<?xml version="1.0" encoding="UTF-8" standalone="no" ?>
  <gpx version="1.0" creator="Loctome.com">
  <metadata>
  <link href="https://play.google.com/store/apps/details?id=com.loctome.app.loctome">
      <text>Loctome Live Track GPS</text>
  </link>
  <desc>File created by Loctome Android Client No Limits Edition</desc>
  <time>2016-07-01T11:25:35Z</time>
  </metadata>
  <trk>
    <name>2016-07-01T11:25:35Z</name>
    <trkseg>
      <trkpt lat="40.42175267" lon="-5.30077616"><ele>1926</ele><speed>0.00</speed><time>2016-07-01T11:25:36Z</time><pdop>9.0</pdop><geoidheight>54.00</geoidheight><course>0.0</course><type>1</type></trkpt>
      <trkpt lat="40.42175136" lon="-5.300776"><ele>1926</ele><speed>0.00</speed><time>2016-07-01T11:26:36Z</time><pdop>9.0</pdop><geoidheight>54.00</geoidheight><course>0.0</course><type>1</type></trkpt>
      <trkpt lat="40.42175019" lon="-5.30077599"><ele>1926</ele><speed>0.00</speed><time>2016-07-01T11:27:36Z</time><pdop>9.0</pdop><geoidheight>54.00</geoidheight><course>0.0</course><type>1</type></trkpt>
      <trkpt lat="40.42174861" lon="-5.30077593"><ele>1926</ele><speed>0.00</speed><time>2016-07-01T11:28:36Z</time><pdop>9.0</pdop><geoidheight>54.00</geoidheight><course>0.0</course><type>1</type></trkpt>
      <trkpt lat="40.42174727" lon="-5.30077567"><ele>1926</ele><speed>0.00</speed><time>2016-07-01T11:29:36Z</time><pdop>9.0</pdop><geoidheight>54.00</geoidheight><course>0.0</course><type>1</type></trkpt>
      <trkpt lat="40.42174627" lon="-5.30077541"><ele>1926</ele><speed>0.00</speed><time>2016-07-01T11:30:36Z</time><pdop>9.0</pdop><geoidheight>54.00</geoidheight><course>0.0</course><type>1</type></trkpt>
      <trkpt lat="40.42174513" lon="-5.30077516"><ele>1926</ele><speed>0.00</speed><time>2016-07-01T11:31:36Z</time><pdop>9.0</pdop><geoidheight>54.00</geoidheight><course>0.0</course><type>1</type></trkpt>
      <trkpt lat="40.42173076" lon="-5.30078199"><ele>1926</ele><speed>0.00</speed><time>2016-07-01T11:32:36Z</time><pdop>3.0</pdop><geoidheight>54.00</geoidheight><course>0.0</course><type>1</type></trkpt>
      <trkpt lat="40.42173059" lon="-5.30078211"><ele>1926</ele><speed>0.00</speed><time>2016-07-01T11:33:36Z</time><pdop>4.0</pdop><geoidheight>54.00</geoidheight><course>0.0</course><type>1</type></trkpt>
      <trkpt lat="40.42173054" lon="-5.30078225"><ele>1926</ele><speed>0.00</speed><time>2016-07-01T11:34:36Z</time><pdop>10.0</pdop><geoidheight>54.00</geoidheight><course>0.0</course><type>1</type></trkpt>
      <trkpt lat="40.42173049" lon="-5.30078245"><ele>1926</ele><speed>0.00</speed><time>2016-07-01T11:35:36Z</time><pdop>3.0</pdop><geoidheight>54.00</geoidheight><course>0.0</course><type>1</type></trkpt>
      <trkpt lat="40.42171832" lon="-5.30079688"><ele>1927</ele><speed>0.00</speed><time>2016-07-01T11:36:36Z</time><pdop>3.0</pdop><geoidheight>54.00</geoidheight><course>0.0</course><type>1</type></trkpt>
      <trkpt lat="40.42171874" lon="-5.30079697"><ele>1927</ele><speed>0.00</speed><time>2016-07-01T11:37:36Z</time><pdop>9.0</pdop><geoidheight>54.00</geoidheight><course>0.0</course><type>1</type></trkpt>
      <trkpt lat="40.42173326" lon="-5.30081456"><ele>1926</ele><speed>0.00</speed><time>2016-07-01T11:38:36Z</time><pdop>3.0</pdop><geoidheight>54.00</geoidheight><course>0.0</course><type>1</type></trkpt>
      <trkpt lat="40.42177701" lon="-5.3008624"><ele>1923</ele><speed>1.32</speed><time>2016-07-01T11:38:56Z</time><pdop>3.0</pdop><geoidheight>54.00</geoidheight><course>332.4</course><type>1</type></trkpt>
      <trkpt lat="40.42174589" lon="-5.30087246"><ele>1924</ele><speed>0.00</speed><time>2016-07-01T11:39:56Z</time><pdop>4.0</pdop><geoidheight>54.00</geoidheight><course>0.0</course><type>1</type></trkpt>
      <trkpt lat="40.4218224" lon="-5.30081591"><ele>1924</ele><speed>2.42</speed><time>2016-07-01T11:40:07Z</time><pdop>5.0</pdop><geoidheight>54.00</geoidheight><course>356.3</course><type>1</type></trkpt>
      <trkpt lat="40.42190718" lon="-5.30084777"><ele>1924</ele><speed>3.88</speed><time>2016-07-01T11:40:10Z</time><pdop>4.0</pdop><geoidheight>54.00</geoidheight><course>342.9</course><type>1</type></trkpt>
      <trkpt lat="40.42200118" lon="-5.30087781"><ele>1922</ele><speed>5.09</speed><time>2016-07-01T11:40:12Z</time><pdop>4.0</pdop><geoidheight>54.00</geoidheight><course>346.6</course><type>1</type></trkpt>
      <trkpt lat="40.42207814" lon="-5.30091175"><ele>1923</ele><speed>4.78</speed><time>2016-07-01T11:40:14Z</time><pdop>4.0</pdop><geoidheight>54.00</geoidheight><course>338.7</course><type>1</type></trkpt>
      <trkpt lat="40.42216294" lon="-5.3009379"><ele>1924</ele><speed>4.75</speed><time>2016-07-01T11:40:16Z</time><pdop>4.0</pdop><geoidheight>54.00</geoidheight><course>346.1</course><type>1</type></trkpt>
      <trkpt lat="40.42224436" lon="-5.30092885"><ele>1927</ele><speed>2.43</speed><time>2016-07-01T11:40:19Z</time><pdop>3.0</pdop><geoidheight>54.00</geoidheight><course>27.8</course><type>1</type></trkpt>
      <trkpt lat="40.42236698" lon="-5.30088309"><ele>1925</ele><speed>5.86</speed><time>2016-07-01T11:40:22Z</time><pdop>4.0</pdop><geoidheight>54.00</geoidheight><course>7.3</course><type>1</type></trkpt>
      <trkpt lat="40.42249601" lon="-5.30089033"><ele>1924</ele><speed>6.95</speed><time>2016-07-01T11:40:24Z</time><pdop>4.0</pdop><geoidheight>54.00</geoidheight><course>1.1</course><type>1</type></trkpt>
      <trkpt lat="40.42259347" lon="-5.30085682"><ele>1926</ele><speed>5.73</speed><time>2016-07-01T11:40:26Z</time><pdop>4.0</pdop><geoidheight>54.00</geoidheight><course>23.6</course><type>1</type></trkpt>
      <trkpt lat="40.42266547" lon="-5.3008229"><ele>1926</ele><speed>4.64</speed><time>2016-07-01T11:40:28Z</time><pdop>4.0</pdop><geoidheight>54.00</geoidheight><course>23.1</course><type>1</type></trkpt>
      <trkpt lat="40.42277878" lon="-5.3007427"><ele>1924</ele><speed>6.15</speed><time>2016-07-01T11:40:30Z</time><pdop>4.0</pdop><geoidheight>54.00</geoidheight><course>19.2</course><type>1</type></trkpt>
      <trkpt lat="40.42286267" lon="-5.30071016"><ele>1924</ele><speed>8.61</speed><time>2016-07-01T11:40:31Z</time><pdop>4.0</pdop><geoidheight>54.00</geoidheight><course>17.1</course><type>1</type></trkpt>
      <trkpt lat="40.42293848" lon="-5.30066318"><ele>1924</ele><speed>8.79</speed><time>2016-07-01T11:40:32Z</time><pdop>4.0</pdop><geoidheight>54.00</geoidheight><course>19.6</course><type>1</type></trkpt>
      <trkpt lat="40.42301698" lon="-5.30063066"><ele>1923</ele><speed>8.37</speed><time>2016-07-01T11:40:33Z</time><pdop>4.0</pdop><geoidheight>54.00</geoidheight><course>18.8</course><type>1</type></trkpt>
      <trkpt lat="40.42311646" lon="-5.30058713"><ele>1921</ele><speed>5.89</speed><time>2016-07-01T11:40:35Z</time><pdop>5.0</pdop><geoidheight>54.00</geoidheight><course>19.4</course><type>1</type></trkpt>
      <trkpt lat="40.4231992" lon="-5.30056795"><ele>1923</ele><speed>4.78</speed><time>2016-07-01T11:40:38Z</time><pdop>3.0</pdop><geoidheight>54.00</geoidheight><course>14.0</course><type>1</type></trkpt>
      <trkpt lat="40.42328388" lon="-5.30053774"><ele>1925</ele><speed>5.33</speed><time>2016-07-01T11:40:40Z</time><pdop>4.0</pdop><geoidheight>54.00</geoidheight><course>22.0</course><type>1</type></trkpt>
      <trkpt lat="40.42339861" lon="-5.30039461"><ele>1928</ele><speed>5.72</speed><time>2016-07-01T11:40:43Z</time><pdop>9.0</pdop><geoidheight>54.00</geoidheight><course>48.1</course><type>1</type></trkpt>
      <trkpt lat="40.4235698" lon="-5.3002514"><ele>1932</ele><speed>7.19</speed><time>2016-07-01T11:40:46Z</time><pdop>9.0</pdop><geoidheight>54.00</geoidheight><course>27.3</course><type>1</type></trkpt>
      <trkpt lat="40.42373002" lon="-5.30020755"><ele>1931</ele><speed>5.53</speed><time>2016-07-01T11:40:49Z</time><pdop>9.0</pdop><geoidheight>54.00</geoidheight><course>357.1</course><type>1</type></trkpt>
      <trkpt lat="40.42384774" lon="-5.30042741"><ele>1937</ele><speed>4.17</speed><time>2016-07-01T11:40:54Z</time><pdop>9.0</pdop><geoidheight>54.00</geoidheight><course>284.2</course><type>1</type></trkpt>
      <trkpt lat="40.42383728" lon="-5.30064509"><ele>1941</ele><speed>4.63</speed><time>2016-07-01T11:40:58Z</time><pdop>9.0</pdop><geoidheight>54.00</geoidheight><course>268.5</course><type>1</type></trkpt>
      <trkpt lat="40.42389357" lon="-5.30088111"><ele>1948</ele><speed>5.15</speed><time>2016-07-01T11:41:02Z</time><pdop>9.0</pdop><geoidheight>54.00</geoidheight><course>302.5</course><type>1</type></trkpt>
      <trkpt lat="40.42406279" lon="-5.30084658"><ele>1943</ele><speed>6.18</speed><time>2016-07-01T11:41:05Z</time><pdop>9.0</pdop><geoidheight>54.00</geoidheight><course>29.4</course><type>1</type></trkpt>
      <trkpt lat="40.42414908" lon="-5.30062731"><ele>1949</ele><speed>9.88</speed><time>2016-07-01T11:41:07Z</time><pdop>10.0</pdop><geoidheight>54.00</geoidheight><course>55.5</course><type>1</type></trkpt>
      <trkpt lat="40.42410257" lon="-5.30027185"><ele>1955</ele><speed>11.53</speed><time>2016-07-01T11:41:09Z</time><pdop>11.0</pdop><geoidheight>54.00</geoidheight><course>87.5</course><type>1</type></trkpt>
      <trkpt lat="40.42395705" lon="-5.30008645"><ele>1955</ele><speed>13.13</speed><time>2016-07-01T11:41:10Z</time><pdop>11.0</pdop><geoidheight>54.00</geoidheight><course>110.0</course><type>1</type></trkpt>
      <trkpt lat="40.42372962" lon="-5.29992936"><ele>1935</ele><speed>11.96</speed><time>2016-07-01T11:41:12Z</time><pdop>16.0</pdop><geoidheight>54.00</geoidheight><course>135.1</course><type>1</type></trkpt>
      <trkpt lat="40.42347959" lon="-5.30025075"><ele>1940</ele><speed>7.44</speed><time>2016-07-01T11:41:15Z</time><pdop>19.0</pdop><geoidheight>54.00</geoidheight><course>195.5</course><type>1</type></trkpt>
      <trkpt lat="40.42375575" lon="-5.30038904"><ele>1957</ele><speed>8.97</speed><time>2016-07-01T11:41:21Z</time><pdop>12.0</pdop><geoidheight>54.00</geoidheight><course>17.7</course><type>1</type></trkpt>
      <trkpt lat="40.42399797" lon="-5.30009869"><ele>1963</ele><speed>10.25</speed><time>2016-07-01T11:41:24Z</time><pdop>11.0</pdop><geoidheight>54.00</geoidheight><course>41.4</course><type>1</type></trkpt>
      <trkpt lat="40.42418262" lon="-5.29983163"><ele>1964</ele><speed>13.06</speed><time>2016-07-01T11:41:26Z</time><pdop>11.0</pdop><geoidheight>54.00</geoidheight><course>47.5</course><type>1</type></trkpt>
      <trkpt lat="40.42431894" lon="-5.299593"><ele>1967</ele><speed>12.13</speed><time>2016-07-01T11:41:28Z</time><pdop>10.0</pdop><geoidheight>54.00</geoidheight><course>50.5</course><type>1</type></trkpt>
      <trkpt lat="40.42450929" lon="-5.29935477"><ele>1969</ele><speed>9.64</speed><time>2016-07-01T11:41:31Z</time><pdop>13.0</pdop><geoidheight>54.00</geoidheight><course>41.5</course><type>1</type></trkpt>
      <trkpt lat="40.42472191" lon="-5.29920122"><ele>1966</ele><speed>10.59</speed><time>2016-07-01T11:41:34Z</time><pdop>10.0</pdop><geoidheight>54.00</geoidheight><course>24.9</course><type>1</type></trkpt>
      <trkpt lat="40.42489384" lon="-5.29912315"><ele>1966</ele><speed>9.27</speed><time>2016-07-01T11:41:36Z</time><pdop>10.0</pdop><geoidheight>54.00</geoidheight><course>20.6</course><type>1</type></trkpt>
      <trkpt lat="40.42509956" lon="-5.29908794"><ele>1968</ele><speed>6.99</speed><time>2016-07-01T11:41:39Z</time><pdop>10.0</pdop><geoidheight>54.00</geoidheight><course>10.7</course><type>1</type></trkpt>
      <trkpt lat="40.42529494" lon="-5.29897682"><ele>1965</ele><speed>9.29</speed><time>2016-07-01T11:41:42Z</time><pdop>10.0</pdop><geoidheight>54.00</geoidheight><course>24.2</course><type>1</type></trkpt>
      <trkpt lat="40.42545333" lon="-5.29878175"><ele>1961</ele><speed>11.78</speed><time>2016-07-01T11:41:44Z</time><pdop>10.0</pdop><geoidheight>54.00</geoidheight><course>40.8</course><type>1</type></trkpt>
      <trkpt lat="40.4255848" lon="-5.29850235"><ele>1964</ele><speed>9.55</speed><time>2016-07-01T11:41:47Z</time><pdop>12.0</pdop><geoidheight>54.00</geoidheight><course>48.4</course><type>1</type></trkpt>
      <trkpt lat="40.42577861" lon="-5.29831259"><ele>1961</ele><speed>8.28</speed><time>2016-07-01T11:41:50Z</time><pdop>10.0</pdop><geoidheight>54.00</geoidheight><course>34.6</course><type>1</type></trkpt>
      <trkpt lat="40.42601361" lon="-5.29833843"><ele>1954</ele><speed>6.50</speed><time>2016-07-01T11:41:54Z</time><pdop>9.0</pdop><geoidheight>54.00</geoidheight><course>337.2</course><type>1</type></trkpt>
      <trkpt lat="40.4261782" lon="-5.29844186"><ele>1952</ele><speed>6.64</speed><time>2016-07-01T11:41:57Z</time><pdop>9.0</pdop><geoidheight>54.00</geoidheight><course>340.6</course><type>1</type></trkpt>
      <trkpt lat="40.42627628" lon="-5.2986724"><ele>1947</ele><speed>6.16</speed><time>2016-07-01T11:42:01Z</time><pdop>10.0</pdop><geoidheight>54.00</geoidheight><course>288.1</course><type>1</type></trkpt>
      <trkpt lat="40.42625981" lon="-5.29897189"><ele>1947</ele><speed>9.10</speed><time>2016-07-01T11:42:03Z</time><pdop>9.0</pdop><geoidheight>54.00</geoidheight><course>268.5</course><type>1</type></trkpt>
      <trkpt lat="40.42639517" lon="-5.29918035"><ele>1949</ele><speed>6.22</speed><time>2016-07-01T11:42:07Z</time><pdop>9.0</pdop><geoidheight>54.00</geoidheight><course>323.3</course><type>1</type></trkpt>
      <trkpt lat="40.42649036" lon="-5.29949574"><ele>1951</ele><speed>8.93</speed><time>2016-07-01T11:42:11Z</time><pdop>11.0</pdop><geoidheight>54.00</geoidheight><course>285.1</course><type>1</type></trkpt>
      <trkpt lat="40.42629351" lon="-5.29968085"><ele>1953</ele><speed>9.05</speed><time>2016-07-01T11:42:13Z</time><pdop>12.0</pdop><geoidheight>54.00</geoidheight><course>232.2</course><type>1</type></trkpt>
      <trkpt lat="40.42596158" lon="-5.29980276"><ele>1951</ele><speed>10.39</speed><time>2016-07-01T11:42:16Z</time><pdop>13.0</pdop><geoidheight>54.00</geoidheight><course>197.4</course><type>1</type></trkpt>
      <trkpt lat="40.42576795" lon="-5.29957138"><ele>1950</ele><speed>9.35</speed><time>2016-07-01T11:42:18Z</time><pdop>14.0</pdop><geoidheight>54.00</geoidheight><course>158.4</course><type>1</type></trkpt>
      <trkpt lat="40.42567428" lon="-5.29925762"><ele>1952</ele><speed>13.39</speed><time>2016-07-01T11:42:19Z</time><pdop>13.0</pdop><geoidheight>54.00</geoidheight><course>130.9</course><type>1</type></trkpt>
      <trkpt lat="40.42557223" lon="-5.29882487"><ele>1953</ele><speed>13.06</speed><time>2016-07-01T11:42:21Z</time><pdop>13.0</pdop><geoidheight>54.00</geoidheight><course>117.4</course><type>1</type></trkpt>
      <trkpt lat="40.42584022" lon="-5.29844932"><ele>1953</ele><speed>10.34</speed><time>2016-07-01T11:42:24Z</time><pdop>15.0</pdop><geoidheight>54.00</geoidheight><course>71.8</course><type>1</type></trkpt>
      <trkpt lat="40.42610655" lon="-5.29845717"><ele>1955</ele><speed>7.96</speed><time>2016-07-01T11:42:26Z</time><pdop>13.0</pdop><geoidheight>54.00</geoidheight><course>22.0</course><type>1</type></trkpt>
      <trkpt lat="40.42634746" lon="-5.29850736"><ele>1957</ele><speed>8.58</speed><time>2016-07-01T11:42:29Z</time><pdop>13.0</pdop><geoidheight>54.00</geoidheight><course>357.4</course><type>1</type></trkpt>
      <trkpt lat="40.42647937" lon="-5.29880173"><ele>1957</ele><speed>7.95</speed><time>2016-07-01T11:42:32Z</time><pdop>12.0</pdop><geoidheight>54.00</geoidheight><course>298.6</course><type>1</type></trkpt>
      <trkpt lat="40.42634094" lon="-5.29914197"><ele>1957</ele><speed>8.53</speed><time>2016-07-01T11:42:35Z</time><pdop>12.0</pdop><geoidheight>54.00</geoidheight><course>249.7</course><type>1</type></trkpt>
      <trkpt lat="40.42611883" lon="-5.29909487"><ele>1955</ele><speed>10.17</speed><time>2016-07-01T11:42:36Z</time><pdop>11.0</pdop><geoidheight>54.00</geoidheight><course>204.5</course><type>1</type></trkpt>
      <trkpt lat="40.42581976" lon="-5.2989063"><ele>1941</ele><speed>12.48</speed><time>2016-07-01T11:42:38Z</time><pdop>14.0</pdop><geoidheight>54.00</geoidheight><course>165.1</course><type>1</type></trkpt>
      <trkpt lat="40.42566276" lon="-5.29855207"><ele>1943</ele><speed>12.71</speed><time>2016-07-01T11:42:40Z</time><pdop>15.0</pdop><geoidheight>54.00</geoidheight><course>133.0</course><type>1</type></trkpt>
      <trkpt lat="40.42558637" lon="-5.29807063"><ele>1947</ele><speed>13.94</speed><time>2016-07-01T11:42:42Z</time><pdop>16.0</pdop><geoidheight>54.00</geoidheight><course>113.0</course><type>1</type></trkpt>
      <trkpt lat="40.42575649" lon="-5.29769788"><ele>1951</ele><speed>13.00</speed><time>2016-07-01T11:42:44Z</time><pdop>13.0</pdop><geoidheight>54.00</geoidheight><course>83.4</course><type>1</type></trkpt>
      <trkpt lat="40.42603213" lon="-5.29753684"><ele>1955</ele><speed>7.45</speed><time>2016-07-01T11:42:47Z</time><pdop>11.0</pdop><geoidheight>54.00</geoidheight><course>25.7</course><type>1</type></trkpt>
      <trkpt lat="40.42625653" lon="-5.29754502"><ele>1957</ele><speed>7.42</speed><time>2016-07-01T11:42:50Z</time><pdop>10.0</pdop><geoidheight>54.00</geoidheight><course>357.6</course><type>1</type></trkpt>
      <trkpt lat="40.42646177" lon="-5.2976705"><ele>1966</ele><speed>7.53</speed><time>2016-07-01T11:42:53Z</time><pdop>10.0</pdop><geoidheight>54.00</geoidheight><course>331.8</course><type>1</type></trkpt>
      <trkpt lat="40.42659991" lon="-5.29785316"><ele>1966</ele><speed>6.30</speed><time>2016-07-01T11:42:57Z</time><pdop>10.0</pdop><geoidheight>54.00</geoidheight><course>304.2</course><type>1</type></trkpt>
      <trkpt lat="40.42674871" lon="-5.29804335"><ele>1966</ele><speed>8.24</speed><time>2016-07-01T11:43:00Z</time><pdop>9.0</pdop><geoidheight>54.00</geoidheight><course>323.2</course><type>1</type></trkpt>
      <trkpt lat="40.42697295" lon="-5.29810446"><ele>1965</ele><speed>9.37</speed><time>2016-07-01T11:43:03Z</time><pdop>9.0</pdop><geoidheight>54.00</geoidheight><course>359.9</course><type>1</type></trkpt>
      <trkpt lat="40.42714756" lon="-5.29810898"><ele>1965</ele><speed>9.39</speed><time>2016-07-01T11:43:05Z</time><pdop>9.0</pdop><geoidheight>54.00</geoidheight><course>2.8</course><type>1</type></trkpt>
      <trkpt lat="40.42732553" lon="-5.29811042"><ele>1965</ele><speed>9.77</speed><time>2016-07-01T11:43:07Z</time><pdop>9.0</pdop><geoidheight>54.00</geoidheight><course>0.8</course><type>1</type></trkpt>
      <trkpt lat="40.42750275" lon="-5.29813477"><ele>1964</ele><speed>9.44</speed><time>2016-07-01T11:43:09Z</time><pdop>9.0</pdop><geoidheight>54.00</geoidheight><course>352.2</course><type>1</type></trkpt>
      <trkpt lat="40.42767304" lon="-5.29818459"><ele>1962</ele><speed>9.21</speed><time>2016-07-01T11:43:11Z</time><pdop>10.0</pdop><geoidheight>54.00</geoidheight><course>345.1</course><type>1</type></trkpt>
      <trkpt lat="40.42788472" lon="-5.29831158"><ele>1958</ele><speed>9.01</speed><time>2016-07-01T11:43:14Z</time><pdop>10.0</pdop><geoidheight>54.00</geoidheight><course>338.2</course><type>1</type></trkpt>
      <trkpt lat="40.42811352" lon="-5.29841809"><ele>1955</ele><speed>9.45</speed><time>2016-07-01T11:43:17Z</time><pdop>10.0</pdop><geoidheight>54.00</geoidheight><course>342.1</course><type>1</type></trkpt>
      <trkpt lat="40.4283558" lon="-5.29848744"><ele>1956</ele><speed>9.72</speed><time>2016-07-01T11:43:20Z</time><pdop>9.0</pdop><geoidheight>54.00</geoidheight><course>350.0</course><type>1</type></trkpt>
      <trkpt lat="40.42855112" lon="-5.2984773"><ele>1955</ele><speed>10.37</speed><time>2016-07-01T11:43:22Z</time><pdop>9.0</pdop><geoidheight>54.00</geoidheight><course>356.7</course><type>1</type></trkpt>
      <trkpt lat="40.42875167" lon="-5.29846567"><ele>1953</ele><speed>10.77</speed><time>2016-07-01T11:43:24Z</time><pdop>9.0</pdop><geoidheight>54.00</geoidheight><course>1.2</course><type>1</type></trkpt>
      <trkpt lat="40.42895074" lon="-5.29849281"><ele>1951</ele><speed>10.89</speed><time>2016-07-01T11:43:26Z</time><pdop>9.0</pdop><geoidheight>54.00</geoidheight><course>356.6</course><type>1</type></trkpt>
      <trkpt lat="40.42913574" lon="-5.29854622"><ele>1949</ele><speed>10.69</speed><time>2016-07-01T11:43:28Z</time><pdop>9.0</pdop><geoidheight>54.00</geoidheight><course>350.7</course><type>1</type></trkpt>
      <trkpt lat="40.42933507" lon="-5.29857683"><ele>1948</ele><speed>10.88</speed><time>2016-07-01T11:43:30Z</time><pdop>9.0</pdop><geoidheight>54.00</geoidheight><course>353.4</course><type>1</type></trkpt>
      <trkpt lat="40.42957111" lon="-5.29859738"><ele>1947</ele><speed>12.74</speed><time>2016-07-01T11:43:32Z</time><pdop>9.0</pdop><geoidheight>54.00</geoidheight><course>356.9</course><type>1</type></trkpt>
      <trkpt lat="40.42987943" lon="-5.29857093"><ele>1944</ele><speed>16.16</speed><time>2016-07-01T11:43:34Z</time><pdop>10.0</pdop><geoidheight>54.00</geoidheight><course>2.0</course><type>1</type></trkpt>
      <trkpt lat="40.43014632" lon="-5.29853298"><ele>1942</ele><speed>14.66</speed><time>2016-07-01T11:43:36Z</time><pdop>10.0</pdop><geoidheight>54.00</geoidheight><course>8.4</course><type>1</type></trkpt>
      <trkpt lat="40.43032742" lon="-5.29845823"><ele>1940</ele><speed>12.53</speed><time>2016-07-01T11:43:38Z</time><pdop>10.0</pdop><geoidheight>54.00</geoidheight><course>15.8</course><type>1</type></trkpt>
      <trkpt lat="40.43059297" lon="-5.29838139"><ele>1938</ele><speed>14.20</speed><time>2016-07-01T11:43:40Z</time><pdop>10.0</pdop><geoidheight>54.00</geoidheight><course>13.3</course><type>1</type></trkpt>
      <trkpt lat="40.43088125" lon="-5.29829711"><ele>1934</ele><speed>15.94</speed><time>2016-07-01T11:43:42Z</time><pdop>10.0</pdop><geoidheight>54.00</geoidheight><course>11.4</course><type>1</type></trkpt>
      <trkpt lat="40.43114801" lon="-5.29818182"><ele>1932</ele><speed>14.36</speed><time>2016-07-01T11:43:44Z</time><pdop>10.0</pdop><geoidheight>54.00</geoidheight><course>15.6</course><type>1</type></trkpt>
      <trkpt lat="40.43137084" lon="-5.2980825"><ele>1929</ele><speed>13.48</speed><time>2016-07-01T11:43:46Z</time><pdop>10.0</pdop><geoidheight>54.00</geoidheight><course>14.6</course><type>1</type></trkpt>
      <trkpt lat="40.43160025" lon="-5.29800228"><ele>1930</ele><speed>13.63</speed><time>2016-07-01T11:43:48Z</time><pdop>10.0</pdop><geoidheight>54.00</geoidheight><course>17.9</course><type>1</type></trkpt>
      <trkpt lat="40.43183674" lon="-5.29785481"><ele>1929</ele><speed>14.36</speed><time>2016-07-01T11:43:50Z</time><pdop>11.0</pdop><geoidheight>54.00</geoidheight><course>25.4</course><type>1</type></trkpt>
      <trkpt lat="40.43202358" lon="-5.29765103"><ele>1930</ele><speed>13.50</speed><time>2016-07-01T11:43:52Z</time><pdop>10.0</pdop><geoidheight>54.00</geoidheight><course>33.9</course><type>1</type></trkpt>
      <trkpt lat="40.43216754" lon="-5.2974841"><ele>1933</ele><speed>10.68</speed><time>2016-07-01T11:43:54Z</time><pdop>10.0</pdop><geoidheight>54.00</geoidheight><course>34.7</course><type>1</type></trkpt>
      <trkpt lat="40.43236822" lon="-5.29746357"><ele>1935</ele><speed>4.70</speed><time>2016-07-01T11:43:58Z</time><pdop>11.0</pdop><geoidheight>54.00</geoidheight><course>343.0</course><type>1</type></trkpt>
      <trkpt lat="40.43251617" lon="-5.29769937"><ele>1935</ele><speed>9.23</speed><time>2016-07-01T11:44:00Z</time><pdop>11.0</pdop><geoidheight>54.00</geoidheight><course>312.3</course><type>1</type></trkpt>
      <trkpt lat="40.43238166" lon="-5.29801548"><ele>1941</ele><speed>8.36</speed><time>2016-07-01T11:44:03Z</time><pdop>12.0</pdop><geoidheight>54.00</geoidheight><course>252.0</course><type>1</type></trkpt>
      <trkpt lat="40.43211596" lon="-5.29801859"><ele>1938</ele><speed>6.01</speed><time>2016-07-01T11:44:06Z</time><pdop>12.0</pdop><geoidheight>54.00</geoidheight><course>185.9</course><type>1</type></trkpt>
      <trkpt lat="40.43191222" lon="-5.29779756"><ele>1936</ele><speed>10.73</speed><time>2016-07-01T11:44:08Z</time><pdop>11.0</pdop><geoidheight>54.00</geoidheight><course>132.0</course><type>1</type></trkpt>
      <trkpt lat="40.43182248" lon="-5.29747268"><ele>1940</ele><speed>13.62</speed><time>2016-07-01T11:44:10Z</time><pdop>10.0</pdop><geoidheight>54.00</geoidheight><course>104.8</course><type>1</type></trkpt>
      <trkpt lat="40.43183469" lon="-5.29718315"><ele>1940</ele><speed>12.34</speed><time>2016-07-01T11:44:12Z</time><pdop>11.0</pdop><geoidheight>54.00</geoidheight><course>94.6</course><type>1</type></trkpt>
      <trkpt lat="40.43199141" lon="-5.29695158"><ele>1946</ele><speed>7.69</speed><time>2016-07-01T11:44:15Z</time><pdop>13.0</pdop><geoidheight>54.00</geoidheight><course>69.0</course><type>1</type></trkpt>
      <trkpt lat="40.43220576" lon="-5.29712089"><ele>1949</ele><speed>5.74</speed><time>2016-07-01T11:44:17Z</time><pdop>12.0</pdop><geoidheight>54.00</geoidheight><course>344.6</course><type>1</type></trkpt>
      <trkpt lat="40.43225626" lon="-5.29740286"><ele>1949</ele><speed>6.95</speed><time>2016-07-01T11:44:19Z</time><pdop>12.0</pdop><geoidheight>54.00</geoidheight><course>284.0</course><type>1</type></trkpt>
      <trkpt lat="40.43205326" lon="-5.29762458"><ele>1951</ele><speed>5.41</speed><time>2016-07-01T11:44:23Z</time><pdop>11.0</pdop><geoidheight>54.00</geoidheight><course>204.7</course><type>1</type></trkpt>
      <trkpt lat="40.43191075" lon="-5.29723022"><ele>1957</ele><speed>9.02</speed><time>2016-07-01T11:44:26Z</time><pdop>13.0</pdop><geoidheight>54.00</geoidheight><course>117.7</course><type>1</type></trkpt>
      <trkpt lat="40.43194651" lon="-5.2968182"><ele>1962</ele><speed>12.74</speed><time>2016-07-01T11:44:28Z</time><pdop>13.0</pdop><geoidheight>54.00</geoidheight><course>90.3</course><type>1</type></trkpt>
      <trkpt lat="40.43227557" lon="-5.29672172"><ele>1962</ele><speed>7.81</speed><time>2016-07-01T11:44:31Z</time><pdop>13.0</pdop><geoidheight>54.00</geoidheight><course>31.6</course><type>1</type></trkpt>
      <trkpt lat="40.432454" lon="-5.2970935"><ele>1962</ele><speed>8.72</speed><time>2016-07-01T11:44:34Z</time><pdop>12.0</pdop><geoidheight>54.00</geoidheight><course>310.7</course><type>1</type></trkpt>
      <trkpt lat="40.43224201" lon="-5.29724058"><ele>1969</ele><speed>6.00</speed><time>2016-07-01T11:44:36Z</time><pdop>11.0</pdop><geoidheight>54.00</geoidheight><course>232.9</course><type>1</type></trkpt>
      <trkpt lat="40.43199058" lon="-5.29729964"><ele>1973</ele><speed>6.89</speed><time>2016-07-01T11:44:39Z</time><pdop>11.0</pdop><geoidheight>54.00</geoidheight><course>181.6</course><type>1</type></trkpt>
      <trkpt lat="40.43180952" lon="-5.29713393"><ele>1976</ele><speed>9.80</speed><time>2016-07-01T11:44:41Z</time><pdop>11.0</pdop><geoidheight>54.00</geoidheight><course>138.0</course><type>1</type></trkpt>
      <trkpt lat="40.43171962" lon="-5.29687986"><ele>1982</ele><speed>11.00</speed><time>2016-07-01T11:44:43Z</time><pdop>11.0</pdop><geoidheight>54.00</geoidheight><course>112.2</course><type>1</type></trkpt>
      <trkpt lat="40.4317234" lon="-5.29661246"><ele>1986</ele><speed>11.37</speed><time>2016-07-01T11:44:45Z</time><pdop>11.0</pdop><geoidheight>54.00</geoidheight><course>95.8</course><type>1</type></trkpt>
      <trkpt lat="40.43180247" lon="-5.29631313"><ele>1990</ele><speed>12.57</speed><time>2016-07-01T11:44:47Z</time><pdop>14.0</pdop><geoidheight>54.00</geoidheight><course>81.3</course><type>1</type></trkpt>
      <trkpt lat="40.43204677" lon="-5.29629906"><ele>1995</ele><speed>7.77</speed><time>2016-07-01T11:44:49Z</time><pdop>12.0</pdop><geoidheight>54.00</geoidheight><course>35.6</course><type>1</type></trkpt>
      <trkpt lat="40.43230058" lon="-5.29648764"><ele>1999</ele><speed>8.23</speed><time>2016-07-01T11:44:52Z</time><pdop>10.0</pdop><geoidheight>54.00</geoidheight><course>326.6</course><type>1</type></trkpt>
      <trkpt lat="40.43238247" lon="-5.29671178"><ele>2002</ele><speed>7.33</speed><time>2016-07-01T11:44:54Z</time><pdop>10.0</pdop><geoidheight>54.00</geoidheight><course>301.9</course><type>1</type></trkpt>
      <trkpt lat="40.43215644" lon="-5.29697958"><ele>2006</ele><speed>7.38</speed><time>2016-07-01T11:44:59Z</time><pdop>13.0</pdop><geoidheight>54.00</geoidheight><course>207.2</course><type>1</type></trkpt>
      <trkpt lat="40.43193483" lon="-5.29693139"><ele>2008</ele><speed>8.47</speed><time>2016-07-01T11:45:01Z</time><pdop>12.0</pdop><geoidheight>54.00</geoidheight><course>187.3</course><type>1</type></trkpt>
      <trkpt lat="40.43169268" lon="-5.29679753"><ele>2009</ele><speed>7.80</speed><time>2016-07-01T11:45:04Z</time><pdop>11.0</pdop><geoidheight>54.00</geoidheight><course>158.3</course><type>1</type></trkpt>
      <trkpt lat="40.43153996" lon="-5.2965751"><ele>2015</ele><speed>9.74</speed><time>2016-07-01T11:45:06Z</time><pdop>12.0</pdop><geoidheight>54.00</geoidheight><course>136.1</course><type>1</type></trkpt>
      <trkpt lat="40.43156758" lon="-5.2962185"><ele>2017</ele><speed>11.08</speed><time>2016-07-01T11:45:08Z</time><pdop>11.0</pdop><geoidheight>54.00</geoidheight><course>93.4</course><type>1</type></trkpt>
      <trkpt lat="40.43171823" lon="-5.29598281"><ele>2018</ele><speed>10.88</speed><time>2016-07-01T11:45:10Z</time><pdop>12.0</pdop><geoidheight>54.00</geoidheight><course>66.6</course><type>1</type></trkpt>
      <trkpt lat="40.43194509" lon="-5.29601909"><ele>2018</ele><speed>6.05</speed><time>2016-07-01T11:45:13Z</time><pdop>13.0</pdop><geoidheight>54.00</geoidheight><course>3.3</course><type>1</type></trkpt>
      <trkpt lat="40.43204834" lon="-5.29630195"><ele>2020</ele><speed>5.42</speed><time>2016-07-01T11:45:16Z</time><pdop>12.0</pdop><geoidheight>54.00</geoidheight><course>302.8</course><type>1</type></trkpt>
      <trkpt lat="40.43182179" lon="-5.29649364"><ele>2024</ele><speed>6.41</speed><time>2016-07-01T11:45:19Z</time><pdop>11.0</pdop><geoidheight>54.00</geoidheight><course>204.1</course><type>1</type></trkpt>
      <trkpt lat="40.43152547" lon="-5.29644671"><ele>2029</ele><speed>9.54</speed><time>2016-07-01T11:45:22Z</time><pdop>11.0</pdop><geoidheight>54.00</geoidheight><course>172.5</course><type>1</type></trkpt>
      <trkpt lat="40.43135922" lon="-5.29628172"><ele>1961</ele><speed>10.06</speed><time>2016-07-01T11:45:24Z</time><pdop>10.0</pdop><geoidheight>54.00</geoidheight><course>147.6</course><type>1</type></trkpt>
      <trkpt lat="40.43122536" lon="-5.29608263"><ele>1988</ele><speed>10.73</speed><time>2016-07-01T11:45:26Z</time><pdop>10.0</pdop><geoidheight>54.00</geoidheight><course>122.9</course><type>1</type></trkpt>
      <trkpt lat="40.43119514" lon="-5.29572899"><ele>2008</ele><speed>12.82</speed><time>2016-07-01T11:45:28Z</time><pdop>11.0</pdop><geoidheight>54.00</geoidheight><course>100.0</course><type>1</type></trkpt>
      <trkpt lat="40.4312233" lon="-5.2953598"><ele>2022</ele><speed>13.29</speed><time>2016-07-01T11:45:30Z</time><pdop>11.0</pdop><geoidheight>54.00</geoidheight><course>85.1</course><type>1</type></trkpt>
      <trkpt lat="40.43137829" lon="-5.29511694"><ele>2034</ele><speed>12.09</speed><time>2016-07-01T11:45:32Z</time><pdop>11.0</pdop><geoidheight>54.00</geoidheight><course>64.5</course><type>1</type></trkpt>
      <trkpt lat="40.43159866" lon="-5.29506146"><ele>2036</ele><speed>9.85</speed><time>2016-07-01T11:45:34Z</time><pdop>12.0</pdop><geoidheight>54.00</geoidheight><course>37.1</course><type>1</type></trkpt>
      <trkpt lat="40.43186417" lon="-5.29513818"><ele>2036</ele><speed>11.26</speed><time>2016-07-01T11:45:36Z</time><pdop>13.0</pdop><geoidheight>54.00</geoidheight><course>3.7</course><type>1</type></trkpt>
      <trkpt lat="40.43178578" lon="-5.29549237"><ele>2046</ele><speed>4.33</speed><time>2016-07-01T11:45:40Z</time><pdop>13.0</pdop><geoidheight>54.00</geoidheight><course>263.5</course><type>1</type></trkpt>
      <trkpt lat="40.43156828" lon="-5.29564488"><ele>2053</ele><speed>8.30</speed><time>2016-07-01T11:45:42Z</time><pdop>11.0</pdop><geoidheight>54.00</geoidheight><course>205.8</course><type>1</type></trkpt>
      <trkpt lat="40.43125303" lon="-5.29571166"><ele>2061</ele><speed>9.97</speed><time>2016-07-01T11:45:45Z</time><pdop>13.0</pdop><geoidheight>54.00</geoidheight><course>183.6</course><type>1</type></trkpt>
      <trkpt lat="40.43110696" lon="-5.29546119"><ele>2065</ele><speed>9.38</speed><time>2016-07-01T11:45:47Z</time><pdop>13.0</pdop><geoidheight>54.00</geoidheight><course>145.0</course><type>1</type></trkpt>
      <trkpt lat="40.43110068" lon="-5.29501646"><ele>2070</ele><speed>11.83</speed><time>2016-07-01T11:45:49Z</time><pdop>13.0</pdop><geoidheight>54.00</geoidheight><course>105.2</course><type>1</type></trkpt>
      <trkpt lat="40.43124159" lon="-5.2947328"><ele>2077</ele><speed>7.86</speed><time>2016-07-01T11:45:52Z</time><pdop>12.0</pdop><geoidheight>54.00</geoidheight><course>72.7</course><type>1</type></trkpt>
      <trkpt lat="40.43147151" lon="-5.29477946"><ele>2078</ele><speed>8.12</speed><time>2016-07-01T11:45:54Z</time><pdop>10.0</pdop><geoidheight>54.00</geoidheight><course>11.3</course><type>1</type></trkpt>
      <trkpt lat="40.4316445" lon="-5.29484858"><ele>2084</ele><speed>8.23</speed><time>2016-07-01T11:45:56Z</time><pdop>10.0</pdop><geoidheight>54.00</geoidheight><course>342.3</course><type>1</type></trkpt>
      <trkpt lat="40.43174962" lon="-5.29506627"><ele>2084</ele><speed>7.42</speed><time>2016-07-01T11:45:59Z</time><pdop>11.0</pdop><geoidheight>54.00</geoidheight><course>293.1</course><type>1</type></trkpt>
      <trkpt lat="40.43162911" lon="-5.29534454"><ele>2087</ele><speed>7.52</speed><time>2016-07-01T11:46:02Z</time><pdop>13.0</pdop><geoidheight>54.00</geoidheight><course>255.1</course><type>1</type></trkpt>
      <trkpt lat="40.43128237" lon="-5.29503205"><ele>2087</ele><speed>8.47</speed><time>2016-07-01T11:46:05Z</time><pdop>16.0</pdop><geoidheight>54.00</geoidheight><course>151.8</course><type>1</type></trkpt>
      <trkpt lat="40.43110936" lon="-5.29457306"><ele>2089</ele><speed>12.97</speed><time>2016-07-01T11:46:07Z</time><pdop>14.0</pdop><geoidheight>54.00</geoidheight><course>122.1</course><type>1</type></trkpt>
      <trkpt lat="40.43126659" lon="-5.29423538"><ele>2090</ele><speed>12.86</speed><time>2016-07-01T11:46:09Z</time><pdop>13.0</pdop><geoidheight>54.00</geoidheight><course>85.5</course><type>1</type></trkpt>
      <trkpt lat="40.43151239" lon="-5.29421906"><ele>2098</ele><speed>4.92</speed><time>2016-07-01T11:46:12Z</time><pdop>13.0</pdop><geoidheight>54.00</geoidheight><course>24.3</course><type>1</type></trkpt>
      <trkpt lat="40.43167746" lon="-5.29455568"><ele>2106</ele><speed>7.08</speed><time>2016-07-01T11:46:15Z</time><pdop>12.0</pdop><geoidheight>54.00</geoidheight><course>285.6</course><type>1</type></trkpt>
      <trkpt lat="40.43155162" lon="-5.29492428"><ele>2107</ele><speed>10.11</speed><time>2016-07-01T11:46:18Z</time><pdop>13.0</pdop><geoidheight>54.00</geoidheight><course>250.3</course><type>1</type></trkpt>
      <trkpt lat="40.43119804" lon="-5.29479169"><ele>2109</ele><speed>7.68</speed><time>2016-07-01T11:46:22Z</time><pdop>21.0</pdop><geoidheight>54.00</geoidheight><course>166.4</course><type>1</type></trkpt>
      <trkpt lat="40.4309167" lon="-5.29435279"><ele>2113</ele><speed>11.68</speed><time>2016-07-01T11:46:25Z</time><pdop>19.0</pdop><geoidheight>54.00</geoidheight><course>136.7</course><type>1</type></trkpt>
      <trkpt lat="40.43077263" lon="-5.29373195"><ele>2001</ele><speed>13.31</speed><time>2016-07-01T11:46:28Z</time><pdop>13.0</pdop><geoidheight>54.00</geoidheight><course>103.7</course><type>1</type></trkpt>
      <trkpt lat="40.43078486" lon="-5.29337144"><ele>2045</ele><speed>12.55</speed><time>2016-07-01T11:46:30Z</time><pdop>11.0</pdop><geoidheight>54.00</geoidheight><course>66.7</course><type>1</type></trkpt>
      <trkpt lat="40.43088077" lon="-5.2931112"><ele>2078</ele><speed>12.03</speed><time>2016-07-01T11:46:32Z</time><pdop>11.0</pdop><geoidheight>54.00</geoidheight><course>62.5</course><type>1</type></trkpt>
      <trkpt lat="40.43113445" lon="-5.29329538"><ele>2099</ele><speed>6.27</speed><time>2016-07-01T11:46:36Z</time><pdop>11.0</pdop><geoidheight>54.00</geoidheight><course>316.7</course><type>1</type></trkpt>
      <trkpt lat="40.43116158" lon="-5.29354826"><ele>2113</ele><speed>7.87</speed><time>2016-07-01T11:46:38Z</time><pdop>10.0</pdop><geoidheight>54.00</geoidheight><course>276.6</course><type>1</type></trkpt>
      <trkpt lat="40.43113223" lon="-5.29387427"><ele>2119</ele><speed>7.91</speed><time>2016-07-01T11:46:41Z</time><pdop>13.0</pdop><geoidheight>54.00</geoidheight><course>263.1</course><type>1</type></trkpt>
      <trkpt lat="40.43076669" lon="-5.29382983"><ele>2126</ele><speed>8.77</speed><time>2016-07-01T11:46:44Z</time><pdop>12.0</pdop><geoidheight>54.00</geoidheight><course>183.7</course><type>1</type></trkpt>
      <trkpt lat="40.43050259" lon="-5.29357987"><ele>2131</ele><speed>12.86</speed><time>2016-07-01T11:46:46Z</time><pdop>11.0</pdop><geoidheight>54.00</geoidheight><course>151.4</course><type>1</type></trkpt>
      <trkpt lat="40.43028805" lon="-5.293409"><ele>2140</ele><speed>13.01</speed><time>2016-07-01T11:46:48Z</time><pdop>10.0</pdop><geoidheight>54.00</geoidheight><course>151.7</course><type>1</type></trkpt>
      <trkpt lat="40.43008567" lon="-5.29320878"><ele>2145</ele><speed>13.08</speed><time>2016-07-01T11:46:50Z</time><pdop>10.0</pdop><geoidheight>54.00</geoidheight><course>138.8</course><type>1</type></trkpt>
      <trkpt lat="40.42996207" lon="-5.29290562"><ele>2148</ele><speed>13.46</speed><time>2016-07-01T11:46:52Z</time><pdop>12.0</pdop><geoidheight>54.00</geoidheight><course>123.1</course><type>1</type></trkpt>
      <trkpt lat="40.43000352" lon="-5.29254498"><ele>2154</ele><speed>12.51</speed><time>2016-07-01T11:46:54Z</time><pdop>10.0</pdop><geoidheight>54.00</geoidheight><course>91.6</course><type>1</type></trkpt>
      <trkpt lat="40.43001184" lon="-5.29219503"><ele>2156</ele><speed>13.79</speed><time>2016-07-01T11:46:56Z</time><pdop>10.0</pdop><geoidheight>54.00</geoidheight><course>81.4</course><type>1</type></trkpt>
      <trkpt lat="40.43003918" lon="-5.2918275"><ele>2160</ele><speed>14.43</speed><time>2016-07-01T11:46:58Z</time><pdop>11.0</pdop><geoidheight>54.00</geoidheight><course>84.3</course><type>1</type></trkpt>
      <trkpt lat="40.43005035" lon="-5.29148602"><ele>2163</ele><speed>12.87</speed><time>2016-07-01T11:47:00Z</time><pdop>11.0</pdop><geoidheight>54.00</geoidheight><course>82.8</course><type>1</type></trkpt>
      <trkpt lat="40.43014358" lon="-5.29121022"><ele>2165</ele><speed>12.63</speed><time>2016-07-01T11:47:02Z</time><pdop>12.0</pdop><geoidheight>54.00</geoidheight><course>76.4</course><type>1</type></trkpt>
      <trkpt lat="40.43041748" lon="-5.29122317"><ele>2169</ele><speed>7.21</speed><time>2016-07-01T11:47:05Z</time><pdop>11.0</pdop><geoidheight>54.00</geoidheight><course>11.3</course><type>1</type></trkpt>
      <trkpt lat="40.43056271" lon="-5.2915336"><ele>2170</ele><speed>7.10</speed><time>2016-07-01T11:47:08Z</time><pdop>12.0</pdop><geoidheight>54.00</geoidheight><course>300.9</course><type>1</type></trkpt>
      <trkpt lat="40.43031429" lon="-5.29178709"><ele>2174</ele><speed>7.51</speed><time>2016-07-01T11:47:11Z</time><pdop>14.0</pdop><geoidheight>54.00</geoidheight><course>233.0</course><type>1</type></trkpt>
      <trkpt lat="40.43000197" lon="-5.29172475"><ele>2177</ele><speed>7.57</speed><time>2016-07-01T11:47:14Z</time><pdop>14.0</pdop><geoidheight>54.00</geoidheight><course>178.5</course><type>1</type></trkpt>
      <trkpt lat="40.42976268" lon="-5.29139316"><ele>2180</ele><speed>11.72</speed><time>2016-07-01T11:47:16Z</time><pdop>13.0</pdop><geoidheight>54.00</geoidheight><course>140.7</course><type>1</type></trkpt>
      <trkpt lat="40.42975535" lon="-5.29091763"><ele>2189</ele><speed>13.51</speed><time>2016-07-01T11:47:18Z</time><pdop>11.0</pdop><geoidheight>54.00</geoidheight><course>100.7</course><type>1</type></trkpt>
      <trkpt lat="40.4297995" lon="-5.29055455"><ele>2196</ele><speed>13.83</speed><time>2016-07-01T11:47:20Z</time><pdop>10.0</pdop><geoidheight>54.00</geoidheight><course>85.0</course><type>1</type></trkpt>
      <trkpt lat="40.42985087" lon="-5.29022142"><ele>2201</ele><speed>13.90</speed><time>2016-07-01T11:47:22Z</time><pdop>10.0</pdop><geoidheight>54.00</geoidheight><course>76.9</course><type>1</type></trkpt>
      <trkpt lat="40.42993643" lon="-5.28993202"><ele>2146</ele><speed>13.07</speed><time>2016-07-01T11:47:24Z</time><pdop>10.0</pdop><geoidheight>54.00</geoidheight><course>68.4</course><type>1</type></trkpt>
      <trkpt lat="40.43008775" lon="-5.28977223"><ele>2167</ele><speed>11.07</speed><time>2016-07-01T11:47:26Z</time><pdop>11.0</pdop><geoidheight>54.00</geoidheight><course>52.0</course><type>1</type></trkpt>
      <trkpt lat="40.43033709" lon="-5.28986836"><ele>2187</ele><speed>5.83</speed><time>2016-07-01T11:47:30Z</time><pdop>11.0</pdop><geoidheight>54.00</geoidheight><course>350.2</course><type>1</type></trkpt>
      <trkpt lat="40.43022699" lon="-5.29017149"><ele>2194</ele><speed>5.48</speed><time>2016-07-01T11:47:34Z</time><pdop>11.0</pdop><geoidheight>54.00</geoidheight><course>227.2</course><type>1</type></trkpt>
      <trkpt lat="40.429952" lon="-5.2902095"><ele>2199</ele><speed>9.23</speed><time>2016-07-01T11:47:37Z</time><pdop>11.0</pdop><geoidheight>54.00</geoidheight><course>177.4</course><type>1</type></trkpt>
      <trkpt lat="40.42971014" lon="-5.29001839"><ele>2206</ele><speed>12.61</speed><time>2016-07-01T11:47:39Z</time><pdop>10.0</pdop><geoidheight>54.00</geoidheight><course>145.7</course><type>1</type></trkpt>
      <trkpt lat="40.42951053" lon="-5.28985082"><ele>2212</ele><speed>13.01</speed><time>2016-07-01T11:47:41Z</time><pdop>11.0</pdop><geoidheight>54.00</geoidheight><course>145.4</course><type>1</type></trkpt>
      <trkpt lat="40.42933732" lon="-5.28956831"><ele>2214</ele><speed>13.79</speed><time>2016-07-01T11:47:43Z</time><pdop>13.0</pdop><geoidheight>54.00</geoidheight><course>130.4</course><type>1</type></trkpt>
      <trkpt lat="40.42922108" lon="-5.28913572"><ele>2222</ele><speed>16.79</speed><time>2016-07-01T11:47:45Z</time><pdop>12.0</pdop><geoidheight>54.00</geoidheight><course>117.5</course><type>1</type></trkpt>
      <trkpt lat="40.42937332" lon="-5.28872046"><ele>2222</ele><speed>16.38</speed><time>2016-07-01T11:47:47Z</time><pdop>14.0</pdop><geoidheight>54.00</geoidheight><course>89.1</course><type>1</type></trkpt>
      <trkpt lat="40.42963183" lon="-5.2887377"><ele>2225</ele><speed>9.08</speed><time>2016-07-01T11:47:49Z</time><pdop>13.0</pdop><geoidheight>54.00</geoidheight><course>40.9</course><type>1</type></trkpt>
      <trkpt lat="40.4298851" lon="-5.28886403"><ele>2231</ele><speed>5.80</speed><time>2016-07-01T11:47:53Z</time><pdop>14.0</pdop><geoidheight>54.00</geoidheight><course>340.3</course><type>1</type></trkpt>
      <trkpt lat="40.42965037" lon="-5.28914824"><ele>2237</ele><speed>6.17</speed><time>2016-07-01T11:47:56Z</time><pdop>13.0</pdop><geoidheight>54.00</geoidheight><course>229.3</course><type>1</type></trkpt>
      <trkpt lat="40.42936363" lon="-5.28915333"><ele>2240</ele><speed>9.08</speed><time>2016-07-01T11:47:58Z</time><pdop>13.0</pdop><geoidheight>54.00</geoidheight><course>193.9</course><type>1</type></trkpt>
      <trkpt lat="40.42912399" lon="-5.28890442"><ele>2249</ele><speed>10.75</speed><time>2016-07-01T11:48:00Z</time><pdop>14.0</pdop><geoidheight>54.00</geoidheight><course>158.0</course><type>1</type></trkpt>
      <trkpt lat="40.42899054" lon="-5.28841799"><ele>2257</ele><speed>14.91</speed><time>2016-07-01T11:48:02Z</time><pdop>14.0</pdop><geoidheight>54.00</geoidheight><course>122.7</course><type>1</type></trkpt>
      <trkpt lat="40.42922614" lon="-5.28795541"><ele>2264</ele><speed>13.74</speed><time>2016-07-01T11:48:05Z</time><pdop>14.0</pdop><geoidheight>54.00</geoidheight><course>78.1</course><type>1</type></trkpt>
      <trkpt lat="40.42945346" lon="-5.28781524"><ele>2272</ele><speed>10.15</speed><time>2016-07-01T11:48:07Z</time><pdop>13.0</pdop><geoidheight>54.00</geoidheight><course>42.4</course><type>1</type></trkpt>
      <trkpt lat="40.4296677" lon="-5.28792822"><ele>2276</ele><speed>6.46</speed><time>2016-07-01T11:48:10Z</time><pdop>12.0</pdop><geoidheight>54.00</geoidheight><course>356.6</course><type>1</type></trkpt>
      <trkpt lat="40.42969946" lon="-5.28824167"><ele>2277</ele><speed>3.97</speed><time>2016-07-01T11:48:14Z</time><pdop>14.0</pdop><geoidheight>54.00</geoidheight><course>281.4</course><type>1</type></trkpt>
      <trkpt lat="40.4293267" lon="-5.28842663"><ele>2282</ele><speed>10.59</speed><time>2016-07-01T11:48:16Z</time><pdop>13.0</pdop><geoidheight>54.00</geoidheight><course>207.6</course><type>1</type></trkpt>
      <trkpt lat="40.42900905" lon="-5.28832919"><ele>2289</ele><speed>9.61</speed><time>2016-07-01T11:48:19Z</time><pdop>13.0</pdop><geoidheight>54.00</geoidheight><course>169.2</course><type>1</type></trkpt>
      <trkpt lat="40.42874223" lon="-5.28810106"><ele>2293</ele><speed>11.22</speed><time>2016-07-01T11:48:22Z</time><pdop>17.0</pdop><geoidheight>54.00</geoidheight><course>147.2</course><type>1</type></trkpt>
      <trkpt lat="40.42865598" lon="-5.28773195"><ele>2302</ele><speed>12.23</speed><time>2016-07-01T11:48:24Z</time><pdop>13.0</pdop><geoidheight>54.00</geoidheight><course>118.7</course><type>1</type></trkpt>
      <trkpt lat="40.42861504" lon="-5.28738044"><ele>2306</ele><speed>11.87</speed><time>2016-07-01T11:48:26Z</time><pdop>14.0</pdop><geoidheight>54.00</geoidheight><course>101.8</course><type>1</type></trkpt>
      <trkpt lat="40.42869129" lon="-5.28692774"><ele>2312</ele><speed>14.71</speed><time>2016-07-01T11:48:28Z</time><pdop>15.0</pdop><geoidheight>54.00</geoidheight><course>85.4</course><type>1</type></trkpt>
      <trkpt lat="40.42896705" lon="-5.28669013"><ele>2318</ele><speed>9.00</speed><time>2016-07-01T11:48:31Z</time><pdop>14.0</pdop><geoidheight>54.00</geoidheight><course>48.3</course><type>1</type></trkpt>
      <trkpt lat="40.42878068" lon="-5.28701938"><ele>2324</ele><speed>6.47</speed><time>2016-07-01T11:48:38Z</time><pdop>15.0</pdop><geoidheight>54.00</geoidheight><course>192.2</course><type>1</type></trkpt>
      <trkpt lat="40.42850914" lon="-5.28681868"><ele>2330</ele><speed>10.59</speed><time>2016-07-01T11:48:40Z</time><pdop>13.0</pdop><geoidheight>54.00</geoidheight><course>154.0</course><type>1</type></trkpt>
      <trkpt lat="40.42843333" lon="-5.28646375"><ele>2340</ele><speed>12.27</speed><time>2016-07-01T11:48:42Z</time><pdop>13.0</pdop><geoidheight>54.00</geoidheight><course>119.1</course><type>1</type></trkpt>
      <trkpt lat="40.4284048" lon="-5.28602773"><ele>2344</ele><speed>13.04</speed><time>2016-07-01T11:48:44Z</time><pdop>12.0</pdop><geoidheight>54.00</geoidheight><course>101.0</course><type>1</type></trkpt>
      <trkpt lat="40.4286119" lon="-5.28573331"><ele>2346</ele><speed>13.19</speed><time>2016-07-01T11:48:46Z</time><pdop>12.0</pdop><geoidheight>54.00</geoidheight><course>69.9</course><type>1</type></trkpt>
      <trkpt lat="40.42885925" lon="-5.28571359"><ele>2353</ele><speed>6.69</speed><time>2016-07-01T11:48:49Z</time><pdop>13.0</pdop><geoidheight>54.00</geoidheight><course>21.6</course><type>1</type></trkpt>
      <trkpt lat="40.42881899" lon="-5.28606099"><ele>2356</ele><speed>5.92</speed><time>2016-07-01T11:48:53Z</time><pdop>13.0</pdop><geoidheight>54.00</geoidheight><course>250.4</course><type>1</type></trkpt>
      <trkpt lat="40.42860611" lon="-5.28617287"><ele>2357</ele><speed>8.54</speed><time>2016-07-01T11:48:55Z</time><pdop>12.0</pdop><geoidheight>54.00</geoidheight><course>208.6</course><type>1</type></trkpt>
      <trkpt lat="40.42835196" lon="-5.28617473"><ele>2361</ele><speed>10.32</speed><time>2016-07-01T11:48:57Z</time><pdop>12.0</pdop><geoidheight>54.00</geoidheight><course>185.4</course><type>1</type></trkpt>
      <trkpt lat="40.42811415" lon="-5.28593669"><ele>2369</ele><speed>12.34</speed><time>2016-07-01T11:48:59Z</time><pdop>12.0</pdop><geoidheight>54.00</geoidheight><course>149.2</course><type>1</type></trkpt>
      <trkpt lat="40.42790111" lon="-5.28572084"><ele>2374</ele><speed>12.88</speed><time>2016-07-01T11:49:01Z</time><pdop>12.0</pdop><geoidheight>54.00</geoidheight><course>140.5</course><type>1</type></trkpt>
      <trkpt lat="40.427797" lon="-5.28532486"><ele>2384</ele><speed>14.13</speed><time>2016-07-01T11:49:03Z</time><pdop>12.0</pdop><geoidheight>54.00</geoidheight><course>117.4</course><type>1</type></trkpt>
      <trkpt lat="40.42787662" lon="-5.28493943"><ele>2391</ele><speed>14.21</speed><time>2016-07-01T11:49:05Z</time><pdop>11.0</pdop><geoidheight>54.00</geoidheight><course>86.3</course><type>1</type></trkpt>
      <trkpt lat="40.42791707" lon="-5.2845542"><ele>2395</ele><speed>15.14</speed><time>2016-07-01T11:49:07Z</time><pdop>12.0</pdop><geoidheight>54.00</geoidheight><course>81.1</course><type>1</type></trkpt>
      <trkpt lat="40.42809908" lon="-5.28435052"><ele>2397</ele><speed>12.57</speed><time>2016-07-01T11:49:09Z</time><pdop>13.0</pdop><geoidheight>54.00</geoidheight><course>63.4</course><type>1</type></trkpt>
      <trkpt lat="40.4284392" lon="-5.28425776"><ele>2038</ele><speed>9.55</speed><time>2016-07-01T11:49:12Z</time><pdop>17.0</pdop><geoidheight>54.00</geoidheight><course>32.7</course><type>1</type></trkpt>
      <trkpt lat="40.4284037" lon="-5.28483913"><ele>2170</ele><speed>7.66</speed><time>2016-07-01T11:49:16Z</time><pdop>17.0</pdop><geoidheight>54.00</geoidheight><course>263.9</course><type>1</type></trkpt>
      <trkpt lat="40.42794199" lon="-5.28473976"><ele>2268</ele><speed>13.60</speed><time>2016-07-01T11:49:19Z</time><pdop>12.0</pdop><geoidheight>54.00</geoidheight><course>151.0</course><type>1</type></trkpt>
      <trkpt lat="40.42772739" lon="-5.28454424"><ele>2327</ele><speed>13.45</speed><time>2016-07-01T11:49:21Z</time><pdop>11.0</pdop><geoidheight>54.00</geoidheight><course>136.3</course><type>1</type></trkpt>
      <trkpt lat="40.42760229" lon="-5.28430462"><ele>2354</ele><speed>12.49</speed><time>2016-07-01T11:49:23Z</time><pdop>11.0</pdop><geoidheight>54.00</geoidheight><course>119.8</course><type>1</type></trkpt>
      <trkpt lat="40.42750883" lon="-5.28400208"><ele>2390</ele><speed>12.68</speed><time>2016-07-01T11:49:25Z</time><pdop>10.0</pdop><geoidheight>54.00</geoidheight><course>102.8</course><type>1</type></trkpt>
      <trkpt lat="40.42745117" lon="-5.28367361"><ele>2406</ele><speed>13.34</speed><time>2016-07-01T11:49:27Z</time><pdop>11.0</pdop><geoidheight>54.00</geoidheight><course>99.7</course><type>1</type></trkpt>
      <trkpt lat="40.42756801" lon="-5.28341185"><ele>2412</ele><speed>12.42</speed><time>2016-07-01T11:49:29Z</time><pdop>12.0</pdop><geoidheight>54.00</geoidheight><course>75.1</course><type>1</type></trkpt>
      <trkpt lat="40.42778779" lon="-5.28325523"><ele>2437</ele><speed>10.74</speed><time>2016-07-01T11:49:31Z</time><pdop>10.0</pdop><geoidheight>54.00</geoidheight><course>38.0</course><type>1</type></trkpt>
      <trkpt lat="40.42795673" lon="-5.28315373"><ele>2450</ele><speed>9.39</speed><time>2016-07-01T11:49:33Z</time><pdop>9.0</pdop><geoidheight>54.00</geoidheight><course>20.5</course><type>1</type></trkpt>
      <trkpt lat="40.42814823" lon="-5.28319378"><ele>2453</ele><speed>6.95</speed><time>2016-07-01T11:49:36Z</time><pdop>9.0</pdop><geoidheight>54.00</geoidheight><course>336.4</course><type>1</type></trkpt>
      <trkpt lat="40.42808717" lon="-5.28344739"><ele>2457</ele><speed>7.66</speed><time>2016-07-01T11:49:40Z</time><pdop>10.0</pdop><geoidheight>54.00</geoidheight><course>233.1</course><type>1</type></trkpt>
      <trkpt lat="40.42780805" lon="-5.28352382"><ele>2460</ele><speed>9.94</speed><time>2016-07-01T11:49:43Z</time><pdop>10.0</pdop><geoidheight>54.00</geoidheight><course>189.6</course><type>1</type></trkpt>
      <trkpt lat="40.4275957" lon="-5.28343223"><ele>2463</ele><speed>9.94</speed><time>2016-07-01T11:49:45Z</time><pdop>10.0</pdop><geoidheight>54.00</geoidheight><course>165.6</course><type>1</type></trkpt>
      <trkpt lat="40.42742794" lon="-5.28322034"><ele>2466</ele><speed>10.72</speed><time>2016-07-01T11:49:47Z</time><pdop>11.0</pdop><geoidheight>54.00</geoidheight><course>145.0</course><type>1</type></trkpt>
      <trkpt lat="40.42736112" lon="-5.28294899"><ele>2468</ele><speed>14.34</speed><time>2016-07-01T11:49:48Z</time><pdop>10.0</pdop><geoidheight>54.00</geoidheight><course>121.1</course><type>1</type></trkpt>
      <trkpt lat="40.42725815" lon="-5.28257886"><ele>2473</ele><speed>14.55</speed><time>2016-07-01T11:49:50Z</time><pdop>11.0</pdop><geoidheight>54.00</geoidheight><course>114.3</course><type>1</type></trkpt>
      <trkpt lat="40.42732941" lon="-5.28218679"><ele>2480</ele><speed>14.63</speed><time>2016-07-01T11:49:52Z</time><pdop>12.0</pdop><geoidheight>54.00</geoidheight><course>93.0</course><type>1</type></trkpt>
      <trkpt lat="40.42756219" lon="-5.28207561"><ele>2479</ele><speed>6.21</speed><time>2016-07-01T11:49:55Z</time><pdop>12.0</pdop><geoidheight>54.00</geoidheight><course>46.3</course><type>1</type></trkpt>
      <trkpt lat="40.42772197" lon="-5.28231997"><ele>2483</ele><speed>5.80</speed><time>2016-07-01T11:49:58Z</time><pdop>12.0</pdop><geoidheight>54.00</geoidheight><course>317.0</course><type>1</type></trkpt>
      <trkpt lat="40.42741094" lon="-5.2824628"><ele>2488</ele><speed>8.53</speed><time>2016-07-01T11:50:01Z</time><pdop>10.0</pdop><geoidheight>54.00</geoidheight><course>184.4</course><type>1</type></trkpt>
      <trkpt lat="40.42719048" lon="-5.28236734"><ele>2495</ele><speed>10.30</speed><time>2016-07-01T11:50:03Z</time><pdop>10.0</pdop><geoidheight>54.00</geoidheight><course>156.9</course><type>1</type></trkpt>
      <trkpt lat="40.42701354" lon="-5.28220417"><ele>2496</ele><speed>11.13</speed><time>2016-07-01T11:50:05Z</time><pdop>11.0</pdop><geoidheight>54.00</geoidheight><course>144.7</course><type>1</type></trkpt>
      <trkpt lat="40.42688874" lon="-5.28193249"><ele>2497</ele><speed>11.80</speed><time>2016-07-01T11:50:07Z</time><pdop>11.0</pdop><geoidheight>54.00</geoidheight><course>126.3</course><type>1</type></trkpt>
      <trkpt lat="40.42683237" lon="-5.2815123"><ele>2500</ele><speed>14.37</speed><time>2016-07-01T11:50:09Z</time><pdop>10.0</pdop><geoidheight>54.00</geoidheight><course>106.5</course><type>1</type></trkpt>
      <trkpt lat="40.42679409" lon="-5.28116081"><ele>2508</ele><speed>13.76</speed><time>2016-07-01T11:50:11Z</time><pdop>10.0</pdop><geoidheight>54.00</geoidheight><course>101.6</course><type>1</type></trkpt>
      <trkpt lat="40.42675581" lon="-5.28081013"><ele>2510</ele><speed>13.72</speed><time>2016-07-01T11:50:13Z</time><pdop>11.0</pdop><geoidheight>54.00</geoidheight><course>97.2</course><type>1</type></trkpt>
      <trkpt lat="40.42693558" lon="-5.28059791"><ele>2513</ele><speed>11.54</speed><time>2016-07-01T11:50:15Z</time><pdop>11.0</pdop><geoidheight>54.00</geoidheight><course>60.6</course><type>1</type></trkpt>
      <trkpt lat="40.42713253" lon="-5.28047943"><ele>2516</ele><speed>10.12</speed><time>2016-07-01T11:50:17Z</time><pdop>11.0</pdop><geoidheight>54.00</geoidheight><course>34.9</course><type>1</type></trkpt>
      <trkpt lat="40.42714663" lon="-5.28074615"><ele>2522</ele><speed>7.88</speed><time>2016-07-01T11:50:24Z</time><pdop>11.0</pdop><geoidheight>54.00</geoidheight><course>211.5</course><type>1</type></trkpt>
      <trkpt lat="40.42692287" lon="-5.28080238"><ele>2525</ele><speed>10.30</speed><time>2016-07-01T11:50:26Z</time><pdop>11.0</pdop><geoidheight>54.00</geoidheight><course>185.3</course><type>1</type></trkpt>
      <trkpt lat="40.42666792" lon="-5.28069142"><ele>2527</ele><speed>12.02</speed><time>2016-07-01T11:50:28Z</time><pdop>10.0</pdop><geoidheight>54.00</geoidheight><course>154.9</course><type>1</type></trkpt>
      <trkpt lat="40.42649767" lon="-5.2804251"><ele>2532</ele><speed>13.21</speed><time>2016-07-01T11:50:30Z</time><pdop>10.0</pdop><geoidheight>54.00</geoidheight><course>130.2</course><type>1</type></trkpt>
      <trkpt lat="40.42635884" lon="-5.28014174"><ele>2538</ele><speed>13.80</speed><time>2016-07-01T11:50:32Z</time><pdop>9.0</pdop><geoidheight>54.00</geoidheight><course>116.6</course><type>1</type></trkpt>
      <trkpt lat="40.42631661" lon="-5.27981376"><ele>2543</ele><speed>13.80</speed><time>2016-07-01T11:50:34Z</time><pdop>9.0</pdop><geoidheight>54.00</geoidheight><course>92.0</course><type>1</type></trkpt>
      <trkpt lat="40.42632758" lon="-5.27948284"><ele>2545</ele><speed>13.68</speed><time>2016-07-01T11:50:36Z</time><pdop>10.0</pdop><geoidheight>54.00</geoidheight><course>85.7</course><type>1</type></trkpt>
      <trkpt lat="40.42659089" lon="-5.27930576"><ele>2551</ele><speed>10.34</speed><time>2016-07-01T11:50:39Z</time><pdop>10.0</pdop><geoidheight>54.00</geoidheight><course>24.8</course><type>1</type></trkpt>
      <trkpt lat="40.42680773" lon="-5.27923929"><ele>2559</ele><speed>6.66</speed><time>2016-07-01T11:50:42Z</time><pdop>11.0</pdop><geoidheight>54.00</geoidheight><course>5.0</course><type>1</type></trkpt>
      <trkpt lat="40.42672601" lon="-5.27955033"><ele>2561</ele><speed>7.11</speed><time>2016-07-01T11:50:47Z</time><pdop>11.0</pdop><geoidheight>54.00</geoidheight><course>239.7</course><type>1</type></trkpt>
      <trkpt lat="40.42644866" lon="-5.27953872"><ele>2561</ele><speed>10.47</speed><time>2016-07-01T11:50:49Z</time><pdop>11.0</pdop><geoidheight>54.00</geoidheight><course>186.7</course><type>1</type></trkpt>
      <trkpt lat="40.42618357" lon="-5.27948728"><ele>2563</ele><speed>12.18</speed><time>2016-07-01T11:50:51Z</time><pdop>11.0</pdop><geoidheight>54.00</geoidheight><course>171.6</course><type>1</type></trkpt>
      <trkpt lat="40.42596305" lon="-5.27944109"><ele>2564</ele><speed>12.15</speed><time>2016-07-01T11:50:53Z</time><pdop>11.0</pdop><geoidheight>54.00</geoidheight><course>175.9</course><type>1</type></trkpt>
      <trkpt lat="40.42579129" lon="-5.27952839"><ele>2566</ele><speed>9.08</speed><time>2016-07-01T11:50:55Z</time><pdop>9.0</pdop><geoidheight>54.00</geoidheight><course>207.3</course><type>1</type></trkpt>
      <trkpt lat="40.42570972" lon="-5.27976434"><ele>2568</ele><speed>5.26</speed><time>2016-07-01T11:50:59Z</time><pdop>11.0</pdop><geoidheight>54.00</geoidheight><course>247.0</course><type>1</type></trkpt>
      <trkpt lat="40.42599256" lon="-5.27976424"><ele>2571</ele><speed>5.48</speed><time>2016-07-01T11:51:03Z</time><pdop>12.0</pdop><geoidheight>54.00</geoidheight><course>353.8</course><type>1</type></trkpt>
      <trkpt lat="40.42622163" lon="-5.27948519"><ele>2569</ele><speed>11.29</speed><time>2016-07-01T11:51:05Z</time><pdop>11.0</pdop><geoidheight>54.00</geoidheight><course>33.6</course><type>1</type></trkpt>
      <trkpt lat="40.42642732" lon="-5.27922052"><ele>2570</ele><speed>12.57</speed><time>2016-07-01T11:51:07Z</time><pdop>11.0</pdop><geoidheight>54.00</geoidheight><course>33.4</course><type>1</type></trkpt>
      <trkpt lat="40.42657631" lon="-5.27904644"><ele>2572</ele><speed>9.65</speed><time>2016-07-01T11:51:09Z</time><pdop>10.0</pdop><geoidheight>54.00</geoidheight><course>33.9</course><type>1</type></trkpt>
      <trkpt lat="40.4267407" lon="-5.27894966"><ele>2576</ele><speed>7.62</speed><time>2016-07-01T11:51:12Z</time><pdop>10.0</pdop><geoidheight>54.00</geoidheight><course>17.0</course><type>1</type></trkpt>
      <trkpt lat="40.4269205" lon="-5.27896994"><ele>2577</ele><speed>10.17</speed><time>2016-07-01T11:51:14Z</time><pdop>9.0</pdop><geoidheight>54.00</geoidheight><course>2.9</course><type>1</type></trkpt>
      <trkpt lat="40.42709231" lon="-5.27900224"><ele>2579</ele><speed>9.55</speed><time>2016-07-01T11:51:16Z</time><pdop>9.0</pdop><geoidheight>54.00</geoidheight><course>353.1</course><type>1</type></trkpt>
      <trkpt lat="40.42725865" lon="-5.27902986"><ele>2581</ele><speed>9.24</speed><time>2016-07-01T11:51:18Z</time><pdop>9.0</pdop><geoidheight>54.00</geoidheight><course>355.9</course><type>1</type></trkpt>
      <trkpt lat="40.42749173" lon="-5.27909152"><ele>2585</ele><speed>8.42</speed><time>2016-07-01T11:51:21Z</time><pdop>9.0</pdop><geoidheight>54.00</geoidheight><course>349.0</course><type>1</type></trkpt>
      <trkpt lat="40.42768071" lon="-5.27916131"><ele>2585</ele><speed>7.54</speed><time>2016-07-01T11:51:24Z</time><pdop>10.0</pdop><geoidheight>54.00</geoidheight><course>343.7</course><type>1</type></trkpt>
      <trkpt lat="40.42786269" lon="-5.27925963"><ele>2583</ele><speed>7.17</speed><time>2016-07-01T11:51:27Z</time><pdop>10.0</pdop><geoidheight>54.00</geoidheight><course>340.1</course><type>1</type></trkpt>
      <trkpt lat="40.4280499" lon="-5.2793262"><ele>2583</ele><speed>7.16</speed><time>2016-07-01T11:51:30Z</time><pdop>10.0</pdop><geoidheight>54.00</geoidheight><course>345.8</course><type>1</type></trkpt>
      <trkpt lat="40.42824543" lon="-5.27942717"><ele>2579</ele><speed>8.02</speed><time>2016-07-01T11:51:33Z</time><pdop>10.0</pdop><geoidheight>54.00</geoidheight><course>340.2</course><type>1</type></trkpt>
      <trkpt lat="40.42842223" lon="-5.27951593"><ele>2578</ele><speed>7.34</speed><time>2016-07-01T11:51:36Z</time><pdop>9.0</pdop><geoidheight>54.00</geoidheight><course>338.9</course><type>1</type></trkpt>
      <trkpt lat="40.4286263" lon="-5.27958417"><ele>2576</ele><speed>7.90</speed><time>2016-07-01T11:51:39Z</time><pdop>9.0</pdop><geoidheight>54.00</geoidheight><course>343.6</course><type>1</type></trkpt>
      <trkpt lat="40.42880529" lon="-5.27970025"><ele>2577</ele><speed>8.00</speed><time>2016-07-01T11:51:42Z</time><pdop>9.0</pdop><geoidheight>54.00</geoidheight><course>335.9</course><type>1</type></trkpt>
      <trkpt lat="40.4289996" lon="-5.27977154"><ele>2576</ele><speed>7.12</speed><time>2016-07-01T11:51:45Z</time><pdop>9.0</pdop><geoidheight>54.00</geoidheight><course>346.7</course><type>1</type></trkpt>
      <trkpt lat="40.42918595" lon="-5.27981924"><ele>2577</ele><speed>7.21</speed><time>2016-07-01T11:51:48Z</time><pdop>9.0</pdop><geoidheight>54.00</geoidheight><course>342.5</course><type>1</type></trkpt>
      <trkpt lat="40.42935334" lon="-5.27993915"><ele>2575</ele><speed>5.68</speed><time>2016-07-01T11:51:51Z</time><pdop>9.0</pdop><geoidheight>54.00</geoidheight><course>333.5</course><type>1</type></trkpt>
      <trkpt lat="40.42951594" lon="-5.27998832"><ele>2574</ele><speed>4.98</speed><time>2016-07-01T11:51:55Z</time><pdop>9.0</pdop><geoidheight>54.00</geoidheight><course>347.7</course><type>1</type></trkpt>
      <trkpt lat="40.42968939" lon="-5.28006389"><ele>2574</ele><speed>5.23</speed><time>2016-07-01T11:51:59Z</time><pdop>9.0</pdop><geoidheight>54.00</geoidheight><course>331.6</course><type>1</type></trkpt>
      <trkpt lat="40.42986198" lon="-5.2802249"><ele>2575</ele><speed>6.14</speed><time>2016-07-01T11:52:03Z</time><pdop>9.0</pdop><geoidheight>54.00</geoidheight><course>330.6</course><type>1</type></trkpt>
      <trkpt lat="40.43002185" lon="-5.28032266"><ele>2573</ele><speed>6.71</speed><time>2016-07-01T11:52:06Z</time><pdop>9.0</pdop><geoidheight>54.00</geoidheight><course>332.8</course><type>1</type></trkpt>
      <trkpt lat="40.43020977" lon="-5.2804786"><ele>2569</ele><speed>8.71</speed><time>2016-07-01T11:52:09Z</time><pdop>10.0</pdop><geoidheight>54.00</geoidheight><course>327.6</course><type>1</type></trkpt>
      <trkpt lat="40.43037681" lon="-5.28065951"><ele>2568</ele><speed>11.31</speed><time>2016-07-01T11:52:11Z</time><pdop>9.0</pdop><geoidheight>54.00</geoidheight><course>322.3</course><type>1</type></trkpt>
      <trkpt lat="40.43053198" lon="-5.2807942"><ele>2566</ele><speed>9.99</speed><time>2016-07-01T11:52:13Z</time><pdop>9.0</pdop><geoidheight>54.00</geoidheight><course>329.4</course><type>1</type></trkpt>
      <trkpt lat="40.43071438" lon="-5.28089937"><ele>2569</ele><speed>7.30</speed><time>2016-07-01T11:52:16Z</time><pdop>10.0</pdop><geoidheight>54.00</geoidheight><course>336.5</course><type>1</type></trkpt>
      <trkpt lat="40.43085071" lon="-5.28114339"><ele>2570</ele><speed>6.64</speed><time>2016-07-01T11:52:20Z</time><pdop>9.0</pdop><geoidheight>54.00</geoidheight><course>298.4</course><type>1</type></trkpt>
      <trkpt lat="40.43093957" lon="-5.28139847"><ele>2571</ele><speed>6.71</speed><time>2016-07-01T11:52:24Z</time><pdop>10.0</pdop><geoidheight>54.00</geoidheight><course>296.4</course><type>1</type></trkpt>
      <trkpt lat="40.43111805" lon="-5.28161404"><ele>2573</ele><speed>9.85</speed><time>2016-07-01T11:52:27Z</time><pdop>9.0</pdop><geoidheight>54.00</geoidheight><course>326.6</course><type>1</type></trkpt>
      <trkpt lat="40.43128454" lon="-5.28168696"><ele>2574</ele><speed>9.95</speed><time>2016-07-01T11:52:29Z</time><pdop>9.0</pdop><geoidheight>54.00</geoidheight><course>338.4</course><type>1</type></trkpt>
      <trkpt lat="40.43146545" lon="-5.28175289"><ele>2578</ele><speed>5.32</speed><time>2016-07-01T11:52:33Z</time><pdop>9.0</pdop><geoidheight>54.00</geoidheight><course>321.7</course><type>1</type></trkpt>
      <trkpt lat="40.43158275" lon="-5.28192073"><ele>2583</ele><speed>5.90</speed><time>2016-07-01T11:52:36Z</time><pdop>9.0</pdop><geoidheight>54.00</geoidheight><course>304.5</course><type>1</type></trkpt>
      <trkpt lat="40.43151773" lon="-5.28217548"><ele>2585</ele><speed>7.73</speed><time>2016-07-01T11:52:39Z</time><pdop>10.0</pdop><geoidheight>54.00</geoidheight><course>246.7</course><type>1</type></trkpt>
      <trkpt lat="40.43128037" lon="-5.2822934"><ele>2587</ele><speed>7.32</speed><time>2016-07-01T11:52:42Z</time><pdop>10.0</pdop><geoidheight>54.00</geoidheight><course>202.6</course><type>1</type></trkpt>
      <trkpt lat="40.43100596" lon="-5.28212308"><ele>2589</ele><speed>10.69</speed><time>2016-07-01T11:52:44Z</time><pdop>10.0</pdop><geoidheight>54.00</geoidheight><course>165.3</course><type>1</type></trkpt>
      <trkpt lat="40.43090782" lon="-5.28185055"><ele>2591</ele><speed>10.92</speed><time>2016-07-01T11:52:46Z</time><pdop>10.0</pdop><geoidheight>54.00</geoidheight><course>125.8</course><type>1</type></trkpt>
      <trkpt lat="40.43091363" lon="-5.28151419"><ele>2593</ele><speed>11.25</speed><time>2016-07-01T11:52:48Z</time><pdop>10.0</pdop><geoidheight>54.00</geoidheight><course>93.8</course><type>1</type></trkpt>
      <trkpt lat="40.43101271" lon="-5.2812021"><ele>2599</ele><speed>11.87</speed><time>2016-07-01T11:52:50Z</time><pdop>11.0</pdop><geoidheight>54.00</geoidheight><course>76.5</course><type>1</type></trkpt>
      <trkpt lat="40.43120061" lon="-5.28101486"><ele>2602</ele><speed>9.91</speed><time>2016-07-01T11:52:52Z</time><pdop>11.0</pdop><geoidheight>54.00</geoidheight><course>55.9</course><type>1</type></trkpt>
      <trkpt lat="40.43141781" lon="-5.2809393"><ele>2608</ele><speed>9.18</speed><time>2016-07-01T11:52:54Z</time><pdop>10.0</pdop><geoidheight>54.00</geoidheight><course>27.4</course><type>1</type></trkpt>
      <trkpt lat="40.43162225" lon="-5.28112519"><ele>2610</ele><speed>7.03</speed><time>2016-07-01T11:52:57Z</time><pdop>10.0</pdop><geoidheight>54.00</geoidheight><course>327.2</course><type>1</type></trkpt>
      <trkpt lat="40.43173599" lon="-5.28135772"><ele>2614</ele><speed>6.58</speed><time>2016-07-01T11:53:00Z</time><pdop>10.0</pdop><geoidheight>54.00</geoidheight><course>299.5</course><type>1</type></trkpt>
      <trkpt lat="40.43179016" lon="-5.28158907"><ele>2616</ele><speed>5.81</speed><time>2016-07-01T11:53:03Z</time><pdop>9.0</pdop><geoidheight>54.00</geoidheight><course>285.9</course><type>1</type></trkpt>
      <trkpt lat="40.43167536" lon="-5.2817766"><ele>2618</ele><speed>6.55</speed><time>2016-07-01T11:53:06Z</time><pdop>9.0</pdop><geoidheight>54.00</geoidheight><course>215.5</course><type>1</type></trkpt>
      <trkpt lat="40.43147144" lon="-5.28177909"><ele>2619</ele><speed>9.46</speed><time>2016-07-01T11:53:08Z</time><pdop>9.0</pdop><geoidheight>54.00</geoidheight><course>179.2</course><type>1</type></trkpt>
      <trkpt lat="40.43131113" lon="-5.28160725"><ele>2620</ele><speed>10.83</speed><time>2016-07-01T11:53:10Z</time><pdop>10.0</pdop><geoidheight>54.00</geoidheight><course>139.6</course><type>1</type></trkpt>
      <trkpt lat="40.43116686" lon="-5.28129978"><ele>2620</ele><speed>13.14</speed><time>2016-07-01T11:53:12Z</time><pdop>9.0</pdop><geoidheight>54.00</geoidheight><course>120.7</course><type>1</type></trkpt>
      <trkpt lat="40.43114107" lon="-5.28093374"><ele>2619</ele><speed>14.25</speed><time>2016-07-01T11:53:14Z</time><pdop>11.0</pdop><geoidheight>54.00</geoidheight><course>102.4</course><type>1</type></trkpt>
      <trkpt lat="40.43131074" lon="-5.28055857"><ele>2618</ele><speed>15.21</speed><time>2016-07-01T11:53:16Z</time><pdop>11.0</pdop><geoidheight>54.00</geoidheight><course>79.2</course><type>1</type></trkpt>
      <trkpt lat="40.4315292" lon="-5.28054316"><ele>2619</ele><speed>8.69</speed><time>2016-07-01T11:53:18Z</time><pdop>11.0</pdop><geoidheight>54.00</geoidheight><course>45.1</course><type>1</type></trkpt>
      <trkpt lat="40.43172824" lon="-5.28063537"><ele>2615</ele><speed>8.10</speed><time>2016-07-01T11:53:20Z</time><pdop>11.0</pdop><geoidheight>54.00</geoidheight><course>1.8</course><type>1</type></trkpt>
      <trkpt lat="40.43186417" lon="-5.28079362"><ele>2614</ele><speed>7.43</speed><time>2016-07-01T11:53:22Z</time><pdop>9.0</pdop><geoidheight>54.00</geoidheight><course>328.4</course><type>1</type></trkpt>
      <trkpt lat="40.43203018" lon="-5.28090762"><ele>2610</ele><speed>7.07</speed><time>2016-07-01T11:53:25Z</time><pdop>9.0</pdop><geoidheight>54.00</geoidheight><course>342.0</course><type>1</type></trkpt>
      <trkpt lat="40.43221732" lon="-5.28103696"><ele>2608</ele><speed>8.07</speed><time>2016-07-01T11:53:28Z</time><pdop>9.0</pdop><geoidheight>54.00</geoidheight><course>319.6</course><type>1</type></trkpt>
      <trkpt lat="40.43230469" lon="-5.28121939"><ele>2606</ele><speed>9.05</speed><time>2016-07-01T11:53:30Z</time><pdop>9.0</pdop><geoidheight>54.00</geoidheight><course>302.9</course><type>1</type></trkpt>
      <trkpt lat="40.432416" lon="-5.281382"><ele>2604</ele><speed>8.38</speed><time>2016-07-01T11:53:32Z</time><pdop>9.0</pdop><geoidheight>54.00</geoidheight><course>310.6</course><type>1</type></trkpt>
      <trkpt lat="40.43258911" lon="-5.28153893"><ele>2603</ele><speed>7.85</speed><time>2016-07-01T11:53:35Z</time><pdop>9.0</pdop><geoidheight>54.00</geoidheight><course>330.7</course><type>1</type></trkpt>
      <trkpt lat="40.4327937" lon="-5.2816858"><ele>2601</ele><speed>10.21</speed><time>2016-07-01T11:53:38Z</time><pdop>9.0</pdop><geoidheight>54.00</geoidheight><course>337.9</course><type>1</type></trkpt>
      <trkpt lat="40.4329829" lon="-5.28177588"><ele>2599</ele><speed>11.17</speed><time>2016-07-01T11:53:40Z</time><pdop>9.0</pdop><geoidheight>54.00</geoidheight><course>341.0</course><type>1</type></trkpt>
      <trkpt lat="40.43316796" lon="-5.28180653"><ele>2596</ele><speed>5.88</speed><time>2016-07-01T11:53:43Z</time><pdop>9.0</pdop><geoidheight>54.00</geoidheight><course>353.4</course><type>1</type></trkpt>
      <trkpt lat="40.43342679" lon="-5.28192231"><ele>2594</ele><speed>9.26</speed><time>2016-07-01T11:53:47Z</time><pdop>10.0</pdop><geoidheight>54.00</geoidheight><course>337.5</course><type>1</type></trkpt>
      <trkpt lat="40.43369132" lon="-5.28204991"><ele>2589</ele><speed>13.49</speed><time>2016-07-01T11:53:49Z</time><pdop>9.0</pdop><geoidheight>54.00</geoidheight><course>337.0</course><type>1</type></trkpt>
      <trkpt lat="40.43388547" lon="-5.28216506"><ele>2586</ele><speed>10.30</speed><time>2016-07-01T11:53:51Z</time><pdop>9.0</pdop><geoidheight>54.00</geoidheight><course>335.6</course><type>1</type></trkpt>
      <trkpt lat="40.43403786" lon="-5.28226564"><ele>2583</ele><speed>9.31</speed><time>2016-07-01T11:53:53Z</time><pdop>9.0</pdop><geoidheight>54.00</geoidheight><course>332.9</course><type>1</type></trkpt>
      <trkpt lat="40.43419527" lon="-5.28239222"><ele>2575</ele><speed>10.75</speed><time>2016-07-01T11:53:55Z</time><pdop>9.0</pdop><geoidheight>54.00</geoidheight><course>328.1</course><type>1</type></trkpt>
      <trkpt lat="40.4343895" lon="-5.28254451"><ele>2568</ele><speed>12.99</speed><time>2016-07-01T11:53:57Z</time><pdop>9.0</pdop><geoidheight>54.00</geoidheight><course>328.1</course><type>1</type></trkpt>
      <trkpt lat="40.43459459" lon="-5.28267705"><ele>2565</ele><speed>11.90</speed><time>2016-07-01T11:53:59Z</time><pdop>9.0</pdop><geoidheight>54.00</geoidheight><course>335.6</course><type>1</type></trkpt>
      <trkpt lat="40.43477286" lon="-5.28275578"><ele>2562</ele><speed>10.25</speed><time>2016-07-01T11:54:01Z</time><pdop>9.0</pdop><geoidheight>54.00</geoidheight><course>342.6</course><type>1</type></trkpt>
      <trkpt lat="40.43496101" lon="-5.2828326"><ele>2559</ele><speed>11.44</speed><time>2016-07-01T11:54:03Z</time><pdop>9.0</pdop><geoidheight>54.00</geoidheight><course>340.7</course><type>1</type></trkpt>
      <trkpt lat="40.43516838" lon="-5.28295161"><ele>2551</ele><speed>12.96</speed><time>2016-07-01T11:54:05Z</time><pdop>9.0</pdop><geoidheight>54.00</geoidheight><course>335.3</course><type>1</type></trkpt>
      <trkpt lat="40.43536111" lon="-5.28306483"><ele>2549</ele><speed>11.43</speed><time>2016-07-01T11:54:07Z</time><pdop>9.0</pdop><geoidheight>54.00</geoidheight><course>338.3</course><type>1</type></trkpt>
      <trkpt lat="40.43553175" lon="-5.28314188"><ele>2547</ele><speed>9.79</speed><time>2016-07-01T11:54:09Z</time><pdop>9.0</pdop><geoidheight>54.00</geoidheight><course>340.0</course><type>1</type></trkpt>
      <trkpt lat="40.435685" lon="-5.28322426"><ele>2544</ele><speed>9.24</speed><time>2016-07-01T11:54:11Z</time><pdop>9.0</pdop><geoidheight>54.00</geoidheight><course>335.5</course><type>1</type></trkpt>
      <trkpt lat="40.43585159" lon="-5.28331653"><ele>2543</ele><speed>9.99</speed><time>2016-07-01T11:54:13Z</time><pdop>9.0</pdop><geoidheight>54.00</geoidheight><course>339.2</course><type>1</type></trkpt>
      <trkpt lat="40.43603319" lon="-5.28341258"><ele>2540</ele><speed>11.13</speed><time>2016-07-01T11:54:15Z</time><pdop>9.0</pdop><geoidheight>54.00</geoidheight><course>338.4</course><type>1</type></trkpt>
      <trkpt lat="40.43620436" lon="-5.28351295"><ele>2541</ele><speed>10.05</speed><time>2016-07-01T11:54:17Z</time><pdop>9.0</pdop><geoidheight>54.00</geoidheight><course>336.3</course><type>1</type></trkpt>
      <trkpt lat="40.43640721" lon="-5.28367002"><ele>2540</ele><speed>8.64</speed><time>2016-07-01T11:54:20Z</time><pdop>9.0</pdop><geoidheight>54.00</geoidheight><course>326.6</course><type>1</type></trkpt>
      <trkpt lat="40.43654739" lon="-5.2837878"><ele>2538</ele><speed>9.27</speed><time>2016-07-01T11:54:22Z</time><pdop>3.0</pdop><geoidheight>54.00</geoidheight><course>330.5</course><type>1</type></trkpt>
      <trkpt lat="40.4366252" lon="-5.28383298"><ele>2539</ele><speed>9.47</speed><time>2016-07-01T11:54:23Z</time><pdop>3.0</pdop><geoidheight>54.00</geoidheight><course>334.2</course><type>1</type></trkpt>
      <trkpt lat="40.43670652" lon="-5.2838728"><ele>2538</ele><speed>9.96</speed><time>2016-07-01T11:54:24Z</time><pdop>3.0</pdop><geoidheight>54.00</geoidheight><course>336.7</course><type>1</type></trkpt>
      <trkpt lat="40.43678591" lon="-5.28393523"><ele>2536</ele><speed>10.55</speed><time>2016-07-01T11:54:25Z</time><pdop>3.0</pdop><geoidheight>54.00</geoidheight><course>331.4</course><type>1</type></trkpt>
      <trkpt lat="40.43688515" lon="-5.28398655"><ele>2536</ele><speed>11.28</speed><time>2016-07-01T11:54:26Z</time><pdop>3.0</pdop><geoidheight>54.00</geoidheight><course>332.8</course><type>1</type></trkpt>
      <trkpt lat="40.43698166" lon="-5.28405363"><ele>2536</ele><speed>11.81</speed><time>2016-07-01T11:54:27Z</time><pdop>3.0</pdop><geoidheight>54.00</geoidheight><course>333.0</course><type>1</type></trkpt>
      <trkpt lat="40.4370756" lon="-5.28411028"><ele>2537</ele><speed>11.20</speed><time>2016-07-01T11:54:28Z</time><pdop>3.0</pdop><geoidheight>54.00</geoidheight><course>337.7</course><type>1</type></trkpt>
      <trkpt lat="40.43716876" lon="-5.28416353"><ele>2537</ele><speed>11.19</speed><time>2016-07-01T11:54:29Z</time><pdop>4.0</pdop><geoidheight>54.00</geoidheight><course>337.5</course><type>1</type></trkpt>
      <trkpt lat="40.43726284" lon="-5.28421151"><ele>2537</ele><speed>11.14</speed><time>2016-07-01T11:54:30Z</time><pdop>5.0</pdop><geoidheight>54.00</geoidheight><course>338.2</course><type>1</type></trkpt>
      <trkpt lat="40.43737467" lon="-5.28422706"><ele>2537</ele><speed>11.43</speed><time>2016-07-01T11:54:31Z</time><pdop>6.0</pdop><geoidheight>54.00</geoidheight><course>344.3</course><type>1</type></trkpt>
      <trkpt lat="40.43746996" lon="-5.28426204"><ele>2538</ele><speed>8.10</speed><time>2016-07-01T11:54:33Z</time><pdop>4.0</pdop><geoidheight>54.00</geoidheight><course>342.7</course><type>1</type></trkpt>
      <trkpt lat="40.43753942" lon="-5.28429257"><ele>2538</ele><speed>8.29</speed><time>2016-07-01T11:54:34Z</time><pdop>3.0</pdop><geoidheight>54.00</geoidheight><course>341.5</course><type>1</type></trkpt>
      <trkpt lat="40.43760841" lon="-5.28433628"><ele>2538</ele><speed>8.40</speed><time>2016-07-01T11:54:35Z</time><pdop>4.0</pdop><geoidheight>54.00</geoidheight><course>339.4</course><type>1</type></trkpt>
      <trkpt lat="40.4376841" lon="-5.28437219"><ele>2537</ele><speed>8.79</speed><time>2016-07-01T11:54:36Z</time><pdop>3.0</pdop><geoidheight>54.00</geoidheight><course>335.4</course><type>1</type></trkpt>
      <trkpt lat="40.43774881" lon="-5.28441222"><ele>2537</ele><speed>9.12</speed><time>2016-07-01T11:54:37Z</time><pdop>3.0</pdop><geoidheight>54.00</geoidheight><course>331.4</course><type>1</type></trkpt>
      <trkpt lat="40.43780705" lon="-5.28445924"><ele>2536</ele><speed>8.93</speed><time>2016-07-01T11:54:38Z</time><pdop>3.0</pdop><geoidheight>54.00</geoidheight><course>329.2</course><type>1</type></trkpt>
      <trkpt lat="40.43787625" lon="-5.284514"><ele>2536</ele><speed>9.02</speed><time>2016-07-01T11:54:39Z</time><pdop>3.0</pdop><geoidheight>54.00</geoidheight><course>329.4</course><type>1</type></trkpt>
      <trkpt lat="40.43794703" lon="-5.28458222"><ele>2537</ele><speed>9.37</speed><time>2016-07-01T11:54:40Z</time><pdop>3.0</pdop><geoidheight>54.00</geoidheight><course>327.1</course><type>1</type></trkpt>
      <trkpt lat="40.4380189" lon="-5.28464619"><ele>2538</ele><speed>9.63</speed><time>2016-07-01T11:54:41Z</time><pdop>3.0</pdop><geoidheight>54.00</geoidheight><course>323.8</course><type>1</type></trkpt>
      <trkpt lat="40.43808409" lon="-5.28471914"><ele>2539</ele><speed>9.47</speed><time>2016-07-01T11:54:42Z</time><pdop>3.0</pdop><geoidheight>54.00</geoidheight><course>322.1</course><type>1</type></trkpt>
      <trkpt lat="40.43814196" lon="-5.2847873"><ele>2540</ele><speed>9.07</speed><time>2016-07-01T11:54:43Z</time><pdop>3.0</pdop><geoidheight>54.00</geoidheight><course>320.7</course><type>1</type></trkpt>
      <trkpt lat="40.43820824" lon="-5.2848229"><ele>2540</ele><speed>7.89</speed><time>2016-07-01T11:54:44Z</time><pdop>3.0</pdop><geoidheight>54.00</geoidheight><course>327.5</course><type>1</type></trkpt>
      <trkpt lat="40.43826529" lon="-5.28486217"><ele>2539</ele><speed>6.88</speed><time>2016-07-01T11:54:45Z</time><pdop>3.0</pdop><geoidheight>54.00</geoidheight><course>328.6</course><type>1</type></trkpt>
      <trkpt lat="40.43835404" lon="-5.28496615"><ele>2538</ele><speed>6.82</speed><time>2016-07-01T11:54:47Z</time><pdop>3.0</pdop><geoidheight>54.00</geoidheight><course>318.3</course><type>1</type></trkpt>
      <trkpt lat="40.43840568" lon="-5.28502306"><ele>2536</ele><speed>6.99</speed><time>2016-07-01T11:54:48Z</time><pdop>3.0</pdop><geoidheight>54.00</geoidheight><course>315.1</course><type>1</type></trkpt>
      <trkpt lat="40.4384493" lon="-5.28508082"><ele>2536</ele><speed>7.35</speed><time>2016-07-01T11:54:49Z</time><pdop>3.0</pdop><geoidheight>54.00</geoidheight><course>316.5</course><type>1</type></trkpt>
      <trkpt lat="40.43850775" lon="-5.28514501"><ele>2536</ele><speed>8.38</speed><time>2016-07-01T11:54:50Z</time><pdop>3.0</pdop><geoidheight>54.00</geoidheight><course>317.2</course><type>1</type></trkpt>
      <trkpt lat="40.43856457" lon="-5.28522827"><ele>2534</ele><speed>9.28</speed><time>2016-07-01T11:54:51Z</time><pdop>3.0</pdop><geoidheight>54.00</geoidheight><course>314.8</course><type>1</type></trkpt>
      <trkpt lat="40.43862177" lon="-5.28530394"><ele>2536</ele><speed>8.93</speed><time>2016-07-01T11:54:52Z</time><pdop>3.0</pdop><geoidheight>54.00</geoidheight><course>316.2</course><type>1</type></trkpt>
      <trkpt lat="40.43867404" lon="-5.28535891"><ele>2537</ele><speed>7.99</speed><time>2016-07-01T11:54:53Z</time><pdop>3.0</pdop><geoidheight>54.00</geoidheight><course>319.0</course><type>1</type></trkpt>
      <trkpt lat="40.43872617" lon="-5.28540894"><ele>2536</ele><speed>7.27</speed><time>2016-07-01T11:54:54Z</time><pdop>3.0</pdop><geoidheight>54.00</geoidheight><course>318.2</course><type>1</type></trkpt>
      <trkpt lat="40.43877109" lon="-5.2854566"><ele>2536</ele><speed>6.66</speed><time>2016-07-01T11:54:55Z</time><pdop>3.0</pdop><geoidheight>54.00</geoidheight><course>320.1</course><type>1</type></trkpt>
      <trkpt lat="40.43881146" lon="-5.28551468"><ele>2536</ele><speed>6.54</speed><time>2016-07-01T11:54:56Z</time><pdop>3.0</pdop><geoidheight>54.00</geoidheight><course>317.3</course><type>1</type></trkpt>
      <trkpt lat="40.43885206" lon="-5.2855725"><ele>2536</ele><speed>6.37</speed><time>2016-07-01T11:54:57Z</time><pdop>3.0</pdop><geoidheight>54.00</geoidheight><course>314.9</course><type>1</type></trkpt>
      <trkpt lat="40.43889434" lon="-5.28563439"><ele>2536</ele><speed>6.40</speed><time>2016-07-01T11:54:58Z</time><pdop>3.0</pdop><geoidheight>54.00</geoidheight><course>316.1</course><type>1</type></trkpt>
      <trkpt lat="40.43894094" lon="-5.2856738"><ele>2535</ele><speed>6.33</speed><time>2016-07-01T11:54:59Z</time><pdop>3.0</pdop><geoidheight>54.00</geoidheight><course>322.1</course><type>1</type></trkpt>
      <trkpt lat="40.4390182" lon="-5.28577519"><ele>2535</ele><speed>6.09</speed><time>2016-07-01T11:55:01Z</time><pdop>3.0</pdop><geoidheight>54.00</geoidheight><course>323.7</course><type>1</type></trkpt>
      <trkpt lat="40.4390993" lon="-5.28586491"><ele>2537</ele><speed>6.01</speed><time>2016-07-01T11:55:03Z</time><pdop>3.0</pdop><geoidheight>54.00</geoidheight><course>323.7</course><type>1</type></trkpt>
      <trkpt lat="40.43919076" lon="-5.28593866"><ele>2535</ele><speed>6.21</speed><time>2016-07-01T11:55:05Z</time><pdop>3.0</pdop><geoidheight>54.00</geoidheight><course>329.8</course><type>1</type></trkpt>
      <trkpt lat="40.43924767" lon="-5.28596727"><ele>2536</ele><speed>6.25</speed><time>2016-07-01T11:55:06Z</time><pdop>3.0</pdop><geoidheight>54.00</geoidheight><course>333.5</course><type>1</type></trkpt>
      <trkpt lat="40.43930196" lon="-5.28601082"><ele>2535</ele><speed>6.57</speed><time>2016-07-01T11:55:07Z</time><pdop>3.0</pdop><geoidheight>54.00</geoidheight><course>330.2</course><type>1</type></trkpt>
      <trkpt lat="40.43936135" lon="-5.28606408"><ele>2533</ele><speed>7.47</speed><time>2016-07-01T11:55:08Z</time><pdop>3.0</pdop><geoidheight>54.00</geoidheight><course>327.7</course><type>1</type></trkpt>
      <trkpt lat="40.4394143" lon="-5.28611163"><ele>2532</ele><speed>8.52</speed><time>2016-07-01T11:55:09Z</time><pdop>3.0</pdop><geoidheight>54.00</geoidheight><course>325.5</course><type>1</type></trkpt>
      <trkpt lat="40.43949674" lon="-5.28617093"><ele>2530</ele><speed>9.82</speed><time>2016-07-01T11:55:10Z</time><pdop>3.0</pdop><geoidheight>54.00</geoidheight><course>329.5</course><type>1</type></trkpt>
      <trkpt lat="40.43958018" lon="-5.28622141"><ele>2531</ele><speed>10.07</speed><time>2016-07-01T11:55:11Z</time><pdop>3.0</pdop><geoidheight>54.00</geoidheight><course>335.0</course><type>1</type></trkpt>
      <trkpt lat="40.4396687" lon="-5.28625721"><ele>2531</ele><speed>10.04</speed><time>2016-07-01T11:55:12Z</time><pdop>3.0</pdop><geoidheight>54.00</geoidheight><course>341.0</course><type>1</type></trkpt>
      <trkpt lat="40.43975045" lon="-5.28628298"><ele>2532</ele><speed>9.65</speed><time>2016-07-01T11:55:13Z</time><pdop>3.0</pdop><geoidheight>54.00</geoidheight><course>344.9</course><type>1</type></trkpt>
      <trkpt lat="40.4398321" lon="-5.28631482"><ele>2532</ele><speed>9.35</speed><time>2016-07-01T11:55:14Z</time><pdop>4.0</pdop><geoidheight>54.00</geoidheight><course>343.4</course><type>1</type></trkpt>
      <trkpt lat="40.43995247" lon="-5.28638094"><ele>2530</ele><speed>7.55</speed><time>2016-07-01T11:55:16Z</time><pdop>5.0</pdop><geoidheight>54.00</geoidheight><course>337.3</course><type>1</type></trkpt>
      <trkpt lat="40.44007099" lon="-5.28647503"><ele>2528</ele><speed>7.81</speed><time>2016-07-01T11:55:18Z</time><pdop>4.0</pdop><geoidheight>54.00</geoidheight><course>334.4</course><type>1</type></trkpt>
      <trkpt lat="40.44020115" lon="-5.28656561"><ele>2528</ele><speed>8.18</speed><time>2016-07-01T11:55:20Z</time><pdop>4.0</pdop><geoidheight>54.00</geoidheight><course>334.7</course><type>1</type></trkpt>
      <trkpt lat="40.44028444" lon="-5.28660464"><ele>2528</ele><speed>8.78</speed><time>2016-07-01T11:55:21Z</time><pdop>3.0</pdop><geoidheight>54.00</geoidheight><course>337.2</course><type>1</type></trkpt>
      <trkpt lat="40.44035444" lon="-5.28664508"><ele>2529</ele><speed>8.81</speed><time>2016-07-01T11:55:22Z</time><pdop>3.0</pdop><geoidheight>54.00</geoidheight><course>337.0</course><type>1</type></trkpt>
      <trkpt lat="40.44051946" lon="-5.28672158"><ele>2531</ele><speed>9.20</speed><time>2016-07-01T11:55:24Z</time><pdop>9.0</pdop><geoidheight>54.00</geoidheight><course>338.4</course><type>1</type></trkpt>
      <trkpt lat="40.44068833" lon="-5.28677419"><ele>2534</ele><speed>6.32</speed><time>2016-07-01T11:55:27Z</time><pdop>9.0</pdop><geoidheight>54.00</geoidheight><course>341.2</course><type>1</type></trkpt>
      <trkpt lat="40.44085369" lon="-5.28682582"><ele>2535</ele><speed>5.90</speed><time>2016-07-01T11:55:30Z</time><pdop>9.0</pdop><geoidheight>54.00</geoidheight><course>341.2</course><type>1</type></trkpt>
      <trkpt lat="40.44100621" lon="-5.28691638"><ele>2533</ele><speed>6.38</speed><time>2016-07-01T11:55:33Z</time><pdop>9.0</pdop><geoidheight>54.00</geoidheight><course>340.3</course><type>1</type></trkpt>
      <trkpt lat="40.44122138" lon="-5.286987"><ele>2530</ele><speed>8.62</speed><time>2016-07-01T11:55:36Z</time><pdop>9.0</pdop><geoidheight>54.00</geoidheight><course>346.6</course><type>1</type></trkpt>
      <trkpt lat="40.4414162" lon="-5.28703519"><ele>2531</ele><speed>6.92</speed><time>2016-07-01T11:55:39Z</time><pdop>9.0</pdop><geoidheight>54.00</geoidheight><course>350.6</course><type>1</type></trkpt>
      <trkpt lat="40.44160812" lon="-5.28712326"><ele>2529</ele><speed>7.19</speed><time>2016-07-01T11:55:42Z</time><pdop>9.0</pdop><geoidheight>54.00</geoidheight><course>340.9</course><type>1</type></trkpt>
      <trkpt lat="40.44179496" lon="-5.28720933"><ele>2529</ele><speed>8.66</speed><time>2016-07-01T11:55:45Z</time><pdop>9.0</pdop><geoidheight>54.00</geoidheight><course>342.9</course><type>1</type></trkpt>
      <trkpt lat="40.44195485" lon="-5.28730671"><ele>2529</ele><speed>9.64</speed><time>2016-07-01T11:55:47Z</time><pdop>9.0</pdop><geoidheight>54.00</geoidheight><course>338.5</course><type>1</type></trkpt>
      <trkpt lat="40.44210838" lon="-5.2873734"><ele>2531</ele><speed>9.62</speed><time>2016-07-01T11:55:49Z</time><pdop>9.0</pdop><geoidheight>54.00</geoidheight><course>338.0</course><type>1</type></trkpt>
      <trkpt lat="40.44231148" lon="-5.2875082"><ele>2535</ele><speed>8.60</speed><time>2016-07-01T11:55:52Z</time><pdop>9.0</pdop><geoidheight>54.00</geoidheight><course>333.6</course><type>1</type></trkpt>
      <trkpt lat="40.44251957" lon="-5.2876084"><ele>2537</ele><speed>8.48</speed><time>2016-07-01T11:55:55Z</time><pdop>9.0</pdop><geoidheight>54.00</geoidheight><course>342.1</course><type>1</type></trkpt>
      <trkpt lat="40.4427313" lon="-5.2876142"><ele>2540</ele><speed>7.82</speed><time>2016-07-01T11:55:58Z</time><pdop>9.0</pdop><geoidheight>54.00</geoidheight><course>5.5</course><type>1</type></trkpt>
      <trkpt lat="40.44294942" lon="-5.28753306"><ele>2542</ele><speed>9.00</speed><time>2016-07-01T11:56:01Z</time><pdop>9.0</pdop><geoidheight>54.00</geoidheight><course>17.7</course><type>1</type></trkpt>
      <trkpt lat="40.44312098" lon="-5.28746203"><ele>2544</ele><speed>10.52</speed><time>2016-07-01T11:56:03Z</time><pdop>9.0</pdop><geoidheight>54.00</geoidheight><course>17.2</course><type>1</type></trkpt>
      <trkpt lat="40.44328573" lon="-5.28738254"><ele>2548</ele><speed>9.64</speed><time>2016-07-01T11:56:05Z</time><pdop>9.0</pdop><geoidheight>54.00</geoidheight><course>20.4</course><type>1</type></trkpt>
      <trkpt lat="40.44345157" lon="-5.2872948"><ele>2549</ele><speed>9.83</speed><time>2016-07-01T11:56:07Z</time><pdop>10.0</pdop><geoidheight>54.00</geoidheight><course>22.2</course><type>1</type></trkpt>
      <trkpt lat="40.44360595" lon="-5.28705771"><ele>2549</ele><speed>8.72</speed><time>2016-07-01T11:56:10Z</time><pdop>11.0</pdop><geoidheight>54.00</geoidheight><course>49.4</course><type>1</type></trkpt>
      <trkpt lat="40.4435132" lon="-5.28670282"><ele>2550</ele><speed>8.59</speed><time>2016-07-01T11:56:13Z</time><pdop>11.0</pdop><geoidheight>54.00</geoidheight><course>100.0</course><type>1</type></trkpt>
      <trkpt lat="40.44326003" lon="-5.28655798"><ele>2267</ele><speed>10.79</speed><time>2016-07-01T11:56:15Z</time><pdop>11.0</pdop><geoidheight>54.00</geoidheight><course>140.9</course><type>1</type></trkpt>
      <trkpt lat="40.44294118" lon="-5.28676085"><ele>2378</ele><speed>10.51</speed><time>2016-07-01T11:56:18Z</time><pdop>13.0</pdop><geoidheight>54.00</geoidheight><course>190.0</course><type>1</type></trkpt>
      <trkpt lat="40.44291529" lon="-5.28718328"><ele>2448</ele><speed>8.87</speed><time>2016-07-01T11:56:21Z</time><pdop>13.0</pdop><geoidheight>54.00</geoidheight><course>246.5</course><type>1</type></trkpt>
      <trkpt lat="40.44319439" lon="-5.28724689"><ele>2530</ele><speed>4.94</speed><time>2016-07-01T11:56:26Z</time><pdop>12.0</pdop><geoidheight>54.00</geoidheight><course>7.6</course><type>1</type></trkpt>
      <trkpt lat="40.44333823" lon="-5.28696745"><ele>2546</ele><speed>7.31</speed><time>2016-07-01T11:56:29Z</time><pdop>12.0</pdop><geoidheight>54.00</geoidheight><course>59.2</course><type>1</type></trkpt>
      <trkpt lat="40.44309387" lon="-5.28678993"><ele>2558</ele><speed>6.58</speed><time>2016-07-01T11:56:33Z</time><pdop>10.0</pdop><geoidheight>54.00</geoidheight><course>183.3</course><type>1</type></trkpt>
      <trkpt lat="40.4429357" lon="-5.28701706"><ele>2561</ele><speed>9.03</speed><time>2016-07-01T11:56:36Z</time><pdop>10.0</pdop><geoidheight>54.00</geoidheight><course>237.0</course><type>1</type></trkpt>
      <trkpt lat="40.4428797" lon="-5.28726423"><ele>2561</ele><speed>8.99</speed><time>2016-07-01T11:56:39Z</time><pdop>10.0</pdop><geoidheight>54.00</geoidheight><course>275.5</course><type>1</type></trkpt>
      <trkpt lat="40.44300532" lon="-5.28750805"><ele>2565</ele><speed>9.77</speed><time>2016-07-01T11:56:42Z</time><pdop>10.0</pdop><geoidheight>54.00</geoidheight><course>314.3</course><type>1</type></trkpt>
      <trkpt lat="40.4432542" lon="-5.2873616"><ele>2574</ele><speed>10.79</speed><time>2016-07-01T11:56:45Z</time><pdop>10.0</pdop><geoidheight>54.00</geoidheight><course>24.7</course><type>1</type></trkpt>
      <trkpt lat="40.44326773" lon="-5.28700808"><ele>2578</ele><speed>13.32</speed><time>2016-07-01T11:56:47Z</time><pdop>10.0</pdop><geoidheight>54.00</geoidheight><course>73.3</course><type>1</type></trkpt>
      <trkpt lat="40.44313031" lon="-5.28677449"><ele>2580</ele><speed>9.11</speed><time>2016-07-01T11:56:49Z</time><pdop>10.0</pdop><geoidheight>54.00</geoidheight><course>108.8</course><type>1</type></trkpt>
      <trkpt lat="40.44291401" lon="-5.28668842"><ele>2580</ele><speed>9.84</speed><time>2016-07-01T11:56:51Z</time><pdop>10.0</pdop><geoidheight>54.00</geoidheight><course>155.4</course><type>1</type></trkpt>
      <trkpt lat="40.44271788" lon="-5.28671919"><ele>2586</ele><speed>9.58</speed><time>2016-07-01T11:56:53Z</time><pdop>9.0</pdop><geoidheight>54.00</geoidheight><course>181.0</course><type>1</type></trkpt>
      <trkpt lat="40.44255609" lon="-5.28680844"><ele>2588</ele><speed>9.51</speed><time>2016-07-01T11:56:55Z</time><pdop>10.0</pdop><geoidheight>54.00</geoidheight><course>200.8</course><type>1</type></trkpt>
      <trkpt lat="40.44242306" lon="-5.28705141"><ele>2582</ele><speed>8.72</speed><time>2016-07-01T11:56:58Z</time><pdop>9.0</pdop><geoidheight>54.00</geoidheight><course>242.9</course><type>1</type></trkpt>
      <trkpt lat="40.44241288" lon="-5.28733216"><ele>2591</ele><speed>8.19</speed><time>2016-07-01T11:57:01Z</time><pdop>9.0</pdop><geoidheight>54.00</geoidheight><course>279.6</course><type>1</type></trkpt>
      <trkpt lat="40.44263785" lon="-5.28737557"><ele>2593</ele><speed>8.33</speed><time>2016-07-01T11:57:04Z</time><pdop>9.0</pdop><geoidheight>54.00</geoidheight><course>356.8</course><type>1</type></trkpt>
      <trkpt lat="40.44276814" lon="-5.28713262"><ele>2596</ele><speed>8.05</speed><time>2016-07-01T11:57:07Z</time><pdop>7.0</pdop><geoidheight>54.00</geoidheight><course>59.2</course><type>1</type></trkpt>
      <trkpt lat="40.44274691" lon="-5.28696209"><ele>2596</ele><speed>10.23</speed><time>2016-07-01T11:57:08Z</time><pdop>6.0</pdop><geoidheight>54.00</geoidheight><course>80.6</course><type>1</type></trkpt>
      <trkpt lat="40.44265061" lon="-5.28675917"><ele>2596</ele><speed>7.87</speed><time>2016-07-01T11:57:10Z</time><pdop>7.0</pdop><geoidheight>54.00</geoidheight><course>102.2</course><type>1</type></trkpt>
      <trkpt lat="40.44244239" lon="-5.28668041"><ele>2597</ele><speed>8.46</speed><time>2016-07-01T11:57:12Z</time><pdop>7.0</pdop><geoidheight>54.00</geoidheight><course>154.7</course><type>1</type></trkpt>
      <trkpt lat="40.44227915" lon="-5.28671709"><ele>2599</ele><speed>11.32</speed><time>2016-07-01T11:57:13Z</time><pdop>4.0</pdop><geoidheight>54.00</geoidheight><course>179.9</course><type>1</type></trkpt>
      <trkpt lat="40.44216898" lon="-5.28672712"><ele>2601</ele><speed>10.85</speed><time>2016-07-01T11:57:14Z</time><pdop>4.0</pdop><geoidheight>54.00</geoidheight><course>185.1</course><type>1</type></trkpt>
      <trkpt lat="40.44207621" lon="-5.28676433"><ele>2602</ele><speed>10.25</speed><time>2016-07-01T11:57:15Z</time><pdop>4.0</pdop><geoidheight>54.00</geoidheight><course>195.5</course><type>1</type></trkpt>
      <trkpt lat="40.44200115" lon="-5.28681733"><ele>2602</ele><speed>10.26</speed><time>2016-07-01T11:57:16Z</time><pdop>4.0</pdop><geoidheight>54.00</geoidheight><course>206.7</course><type>1</type></trkpt>
      <trkpt lat="40.44198353" lon="-5.2870125"><ele>2602</ele><speed>8.55</speed><time>2016-07-01T11:57:18Z</time><pdop>4.0</pdop><geoidheight>54.00</geoidheight><course>265.6</course><type>1</type></trkpt>
      <trkpt lat="40.44199834" lon="-5.28711384"><ele>2604</ele><speed>8.88</speed><time>2016-07-01T11:57:19Z</time><pdop>4.0</pdop><geoidheight>54.00</geoidheight><course>277.2</course><type>1</type></trkpt>
      <trkpt lat="40.44210072" lon="-5.28724138"><ele>2606</ele><speed>7.39</speed><time>2016-07-01T11:57:21Z</time><pdop>6.0</pdop><geoidheight>54.00</geoidheight><course>306.5</course><type>1</type></trkpt>
      <trkpt lat="40.44234383" lon="-5.28723462"><ele>2609</ele><speed>8.61</speed><time>2016-07-01T11:57:24Z</time><pdop>11.0</pdop><geoidheight>54.00</geoidheight><course>355.1</course><type>1</type></trkpt>
      <trkpt lat="40.44234302" lon="-5.28681371"><ele>2608</ele><speed>11.80</speed><time>2016-07-01T11:57:26Z</time><pdop>10.0</pdop><geoidheight>54.00</geoidheight><course>74.3</course><type>1</type></trkpt>
      <trkpt lat="40.44242633" lon="-5.28648437"><ele>2608</ele><speed>12.65</speed><time>2016-07-01T11:57:28Z</time><pdop>9.0</pdop><geoidheight>54.00</geoidheight><course>75.9</course><type>1</type></trkpt>
      <trkpt lat="40.44228326" lon="-5.28636874"><ele>2609</ele><speed>8.66</speed><time>2016-07-01T11:57:30Z</time><pdop>8.0</pdop><geoidheight>54.00</geoidheight><course>110.9</course><type>1</type></trkpt>
      <trkpt lat="40.44207607" lon="-5.28627692"><ele>2609</ele><speed>9.87</speed><time>2016-07-01T11:57:32Z</time><pdop>9.0</pdop><geoidheight>54.00</geoidheight><course>143.8</course><type>1</type></trkpt>
      <trkpt lat="40.44188976" lon="-5.28634225"><ele>2610</ele><speed>8.35</speed><time>2016-07-01T11:57:34Z</time><pdop>8.0</pdop><geoidheight>54.00</geoidheight><course>184.8</course><type>1</type></trkpt>
      <trkpt lat="40.44166633" lon="-5.2867978"><ele>2337</ele><speed>9.73</speed><time>2016-07-01T11:57:38Z</time><pdop>5.0</pdop><geoidheight>54.00</geoidheight><course>259.5</course><type>1</type></trkpt>
      <trkpt lat="40.44164826" lon="-5.28691662"><ele>2422</ele><speed>10.18</speed><time>2016-07-01T11:57:39Z</time><pdop>4.0</pdop><geoidheight>54.00</geoidheight><course>261.2</course><type>1</type></trkpt>
      <trkpt lat="40.44164948" lon="-5.28703399"><ele>2461</ele><speed>10.40</speed><time>2016-07-01T11:57:40Z</time><pdop>4.0</pdop><geoidheight>54.00</geoidheight><course>259.2</course><type>1</type></trkpt>
      <trkpt lat="40.44164052" lon="-5.28716042"><ele>2489</ele><speed>10.33</speed><time>2016-07-01T11:57:41Z</time><pdop>4.0</pdop><geoidheight>54.00</geoidheight><course>263.1</course><type>1</type></trkpt>
      <trkpt lat="40.44163603" lon="-5.28726599"><ele>2510</ele><speed>9.33</speed><time>2016-07-01T11:57:42Z</time><pdop>4.0</pdop><geoidheight>54.00</geoidheight><course>271.0</course><type>1</type></trkpt>
      <trkpt lat="40.44166122" lon="-5.28741621"><ele>2542</ele><speed>7.77</speed><time>2016-07-01T11:57:44Z</time><pdop>4.0</pdop><geoidheight>54.00</geoidheight><course>287.5</course><type>1</type></trkpt>
      <trkpt lat="40.44175178" lon="-5.28757112"><ele>2564</ele><speed>7.87</speed><time>2016-07-01T11:57:46Z</time><pdop>6.0</pdop><geoidheight>54.00</geoidheight><course>306.2</course><type>1</type></trkpt>
      <trkpt lat="40.44185617" lon="-5.28756872"><ele>2579</ele><speed>8.36</speed><time>2016-07-01T11:57:47Z</time><pdop>5.0</pdop><geoidheight>54.00</geoidheight><course>335.7</course><type>1</type></trkpt>
      <trkpt lat="40.44194392" lon="-5.28758748"><ele>2590</ele><speed>9.31</speed><time>2016-07-01T11:57:48Z</time><pdop>4.0</pdop><geoidheight>54.00</geoidheight><course>342.7</course><type>1</type></trkpt>
      <trkpt lat="40.44204566" lon="-5.28762138"><ele>2593</ele><speed>10.44</speed><time>2016-07-01T11:57:49Z</time><pdop>4.0</pdop><geoidheight>54.00</geoidheight><course>342.4</course><type>1</type></trkpt>
      <trkpt lat="40.44213412" lon="-5.28763917"><ele>2597</ele><speed>10.09</speed><time>2016-07-01T11:57:50Z</time><pdop>4.0</pdop><geoidheight>54.00</geoidheight><course>347.2</course><type>1</type></trkpt>
      <trkpt lat="40.44221454" lon="-5.287658"><ele>2602</ele><speed>9.07</speed><time>2016-07-01T11:57:51Z</time><pdop>3.0</pdop><geoidheight>54.00</geoidheight><course>348.8</course><type>1</type></trkpt>
      <trkpt lat="40.44228879" lon="-5.28767888"><ele>2607</ele><speed>8.26</speed><time>2016-07-01T11:57:52Z</time><pdop>3.0</pdop><geoidheight>54.00</geoidheight><course>347.2</course><type>1</type></trkpt>
      <trkpt lat="40.44236199" lon="-5.28771458"><ele>2608</ele><speed>8.18</speed><time>2016-07-01T11:57:53Z</time><pdop>3.0</pdop><geoidheight>54.00</geoidheight><course>342.9</course><type>1</type></trkpt>
      <trkpt lat="40.44242934" lon="-5.28772571"><ele>2606</ele><speed>8.18</speed><time>2016-07-01T11:57:54Z</time><pdop>4.0</pdop><geoidheight>54.00</geoidheight><course>344.0</course><type>1</type></trkpt>
      <trkpt lat="40.4425581" lon="-5.28780942"><ele>2607</ele><speed>8.55</speed><time>2016-07-01T11:57:56Z</time><pdop>6.0</pdop><geoidheight>54.00</geoidheight><course>334.6</course><type>1</type></trkpt>
      <trkpt lat="40.44267087" lon="-5.28786439"><ele>2604</ele><speed>9.64</speed><time>2016-07-01T11:57:57Z</time><pdop>5.0</pdop><geoidheight>54.00</geoidheight><course>335.1</course><type>1</type></trkpt>
      <trkpt lat="40.44281018" lon="-5.28796594"><ele>2606</ele><speed>8.68</speed><time>2016-07-01T11:57:59Z</time><pdop>4.0</pdop><geoidheight>54.00</geoidheight><course>339.0</course><type>1</type></trkpt>
      <trkpt lat="40.4429647" lon="-5.28799718"><ele>2600</ele><speed>8.95</speed><time>2016-07-01T11:58:01Z</time><pdop>5.0</pdop><geoidheight>54.00</geoidheight><course>346.7</course><type>1</type></trkpt>
      <trkpt lat="40.4430644" lon="-5.28800444"><ele>2599</ele><speed>10.35</speed><time>2016-07-01T11:58:02Z</time><pdop>4.0</pdop><geoidheight>54.00</geoidheight><course>351.0</course><type>1</type></trkpt>
      <trkpt lat="40.44317026" lon="-5.28800765"><ele>2599</ele><speed>11.41</speed><time>2016-07-01T11:58:03Z</time><pdop>4.0</pdop><geoidheight>54.00</geoidheight><course>353.5</course><type>1</type></trkpt>
      <trkpt lat="40.44329459" lon="-5.28801399"><ele>2600</ele><speed>12.33</speed><time>2016-07-01T11:58:04Z</time><pdop>4.0</pdop><geoidheight>54.00</geoidheight><course>356.1</course><type>1</type></trkpt>
      <trkpt lat="40.44340499" lon="-5.28801606"><ele>2602</ele><speed>12.57</speed><time>2016-07-01T11:58:05Z</time><pdop>4.0</pdop><geoidheight>54.00</geoidheight><course>357.7</course><type>1</type></trkpt>
      <trkpt lat="40.4435253" lon="-5.28800264"><ele>2601</ele><speed>12.50</speed><time>2016-07-01T11:58:06Z</time><pdop>3.0</pdop><geoidheight>54.00</geoidheight><course>0.1</course><type>1</type></trkpt>
      <trkpt lat="40.4436353" lon="-5.28800511"><ele>2599</ele><speed>12.12</speed><time>2016-07-01T11:58:07Z</time><pdop>4.0</pdop><geoidheight>54.00</geoidheight><course>359.1</course><type>1</type></trkpt>
      <trkpt lat="40.44373955" lon="-5.2880102"><ele>2599</ele><speed>11.79</speed><time>2016-07-01T11:58:08Z</time><pdop>4.0</pdop><geoidheight>54.00</geoidheight><course>358.0</course><type>1</type></trkpt>
      <trkpt lat="40.44393499" lon="-5.28803623"><ele>2599</ele><speed>10.97</speed><time>2016-07-01T11:58:10Z</time><pdop>9.0</pdop><geoidheight>54.00</geoidheight><course>354.7</course><type>1</type></trkpt>
      <trkpt lat="40.44412234" lon="-5.2880908"><ele>2595</ele><speed>10.82</speed><time>2016-07-01T11:58:12Z</time><pdop>9.0</pdop><geoidheight>54.00</geoidheight><course>347.1</course><type>1</type></trkpt>
      <trkpt lat="40.44431192" lon="-5.28817264"><ele>2595</ele><speed>10.82</speed><time>2016-07-01T11:58:14Z</time><pdop>9.0</pdop><geoidheight>54.00</geoidheight><course>341.3</course><type>1</type></trkpt>
      <trkpt lat="40.44449094" lon="-5.28829207"><ele>2593</ele><speed>10.43</speed><time>2016-07-01T11:58:16Z</time><pdop>9.0</pdop><geoidheight>54.00</geoidheight><course>332.4</course><type>1</type></trkpt>
      <trkpt lat="40.44464951" lon="-5.28838846"><ele>2591</ele><speed>9.98</speed><time>2016-07-01T11:58:18Z</time><pdop>9.0</pdop><geoidheight>54.00</geoidheight><course>335.5</course><type>1</type></trkpt>
      <trkpt lat="40.44482232" lon="-5.28848964"><ele>2589</ele><speed>10.73</speed><time>2016-07-01T11:58:20Z</time><pdop>9.0</pdop><geoidheight>54.00</geoidheight><course>338.7</course><type>1</type></trkpt>
      <trkpt lat="40.4450002" lon="-5.28857116"><ele>2588</ele><speed>9.92</speed><time>2016-07-01T11:58:22Z</time><pdop>9.0</pdop><geoidheight>54.00</geoidheight><course>341.1</course><type>1</type></trkpt>
      <trkpt lat="40.44515782" lon="-5.28864233"><ele>2585</ele><speed>9.06</speed><time>2016-07-01T11:58:24Z</time><pdop>9.0</pdop><geoidheight>54.00</geoidheight><course>338.7</course><type>1</type></trkpt>
      <trkpt lat="40.44530751" lon="-5.28873844"><ele>2591</ele><speed>9.54</speed><time>2016-07-01T11:58:26Z</time><pdop>9.0</pdop><geoidheight>54.00</geoidheight><course>334.7</course><type>1</type></trkpt>
      <trkpt lat="40.44549818" lon="-5.28883207"><ele>2585</ele><speed>10.87</speed><time>2016-07-01T11:58:28Z</time><pdop>9.0</pdop><geoidheight>54.00</geoidheight><course>334.2</course><type>1</type></trkpt>
      <trkpt lat="40.44567469" lon="-5.28894476"><ele>2580</ele><speed>10.81</speed><time>2016-07-01T11:58:30Z</time><pdop>9.0</pdop><geoidheight>54.00</geoidheight><course>335.0</course><type>1</type></trkpt>
      <trkpt lat="40.44586189" lon="-5.28905514"><ele>2578</ele><speed>10.94</speed><time>2016-07-01T11:58:32Z</time><pdop>9.0</pdop><geoidheight>54.00</geoidheight><course>335.9</course><type>1</type></trkpt>
      <trkpt lat="40.4460406" lon="-5.2891605"><ele>2574</ele><speed>11.01</speed><time>2016-07-01T11:58:34Z</time><pdop>9.0</pdop><geoidheight>54.00</geoidheight><course>335.9</course><type>1</type></trkpt>
      <trkpt lat="40.4462248" lon="-5.2892559"><ele>2571</ele><speed>11.13</speed><time>2016-07-01T11:58:36Z</time><pdop>9.0</pdop><geoidheight>54.00</geoidheight><course>341.6</course><type>1</type></trkpt>
      <trkpt lat="40.44642851" lon="-5.28927711"><ele>2568</ele><speed>10.78</speed><time>2016-07-01T11:58:38Z</time><pdop>9.0</pdop><geoidheight>54.00</geoidheight><course>355.4</course><type>1</type></trkpt>
      <trkpt lat="40.44662344" lon="-5.28929956"><ele>2566</ele><speed>10.92</speed><time>2016-07-01T11:58:40Z</time><pdop>9.0</pdop><geoidheight>54.00</geoidheight><course>352.4</course><type>1</type></trkpt>
      <trkpt lat="40.44683965" lon="-5.28932967"><ele>2567</ele><speed>12.05</speed><time>2016-07-01T11:58:42Z</time><pdop>9.0</pdop><geoidheight>54.00</geoidheight><course>352.9</course><type>1</type></trkpt>
      <trkpt lat="40.4470208" lon="-5.28939506"><ele>2560</ele><speed>10.39</speed><time>2016-07-01T11:58:44Z</time><pdop>9.0</pdop><geoidheight>54.00</geoidheight><course>345.4</course><type>1</type></trkpt>
      <trkpt lat="40.44718406" lon="-5.28944737"><ele>2558</ele><speed>9.35</speed><time>2016-07-01T11:58:46Z</time><pdop>9.0</pdop><geoidheight>54.00</geoidheight><course>349.4</course><type>1</type></trkpt>
      <trkpt lat="40.44736567" lon="-5.28946521"><ele>2555</ele><speed>10.14</speed><time>2016-07-01T11:58:48Z</time><pdop>9.0</pdop><geoidheight>54.00</geoidheight><course>356.6</course><type>1</type></trkpt>
      <trkpt lat="40.44756546" lon="-5.28945767"><ele>2551</ele><speed>10.89</speed><time>2016-07-01T11:58:50Z</time><pdop>9.0</pdop><geoidheight>54.00</geoidheight><course>357.6</course><type>1</type></trkpt>
      <trkpt lat="40.44775319" lon="-5.28948965"><ele>2553</ele><speed>10.93</speed><time>2016-07-01T11:58:52Z</time><pdop>9.0</pdop><geoidheight>54.00</geoidheight><course>352.8</course><type>1</type></trkpt>
      <trkpt lat="40.44795024" lon="-5.28950604"><ele>2547</ele><speed>10.90</speed><time>2016-07-01T11:58:54Z</time><pdop>9.0</pdop><geoidheight>54.00</geoidheight><course>356.8</course><type>1</type></trkpt>
      <trkpt lat="40.44813857" lon="-5.28951194"><ele>2542</ele><speed>10.94</speed><time>2016-07-01T11:58:56Z</time><pdop>9.0</pdop><geoidheight>54.00</geoidheight><course>357.5</course><type>1</type></trkpt>
      <trkpt lat="40.44835213" lon="-5.2895371"><ele>2537</ele><speed>11.94</speed><time>2016-07-01T11:58:58Z</time><pdop>9.0</pdop><geoidheight>54.00</geoidheight><course>353.4</course><type>1</type></trkpt>
      <trkpt lat="40.44858018" lon="-5.28955737"><ele>2534</ele><speed>12.47</speed><time>2016-07-01T11:59:00Z</time><pdop>9.0</pdop><geoidheight>54.00</geoidheight><course>353.4</course><type>1</type></trkpt>
      <trkpt lat="40.44878694" lon="-5.28958131"><ele>2535</ele><speed>11.25</speed><time>2016-07-01T11:59:02Z</time><pdop>9.0</pdop><geoidheight>54.00</geoidheight><course>355.1</course><type>1</type></trkpt>
      <trkpt lat="40.44895587" lon="-5.28962354"><ele>2533</ele><speed>9.48</speed><time>2016-07-01T11:59:04Z</time><pdop>9.0</pdop><geoidheight>54.00</geoidheight><course>348.6</course><type>1</type></trkpt>
      <trkpt lat="40.44913687" lon="-5.28963604"><ele>2532</ele><speed>10.57</speed><time>2016-07-01T11:59:06Z</time><pdop>9.0</pdop><geoidheight>54.00</geoidheight><course>354.4</course><type>1</type></trkpt>
      <trkpt lat="40.44936095" lon="-5.28964029"><ele>2533</ele><speed>12.34</speed><time>2016-07-01T11:59:08Z</time><pdop>9.0</pdop><geoidheight>54.00</geoidheight><course>358.7</course><type>1</type></trkpt>
      <trkpt lat="40.44958522" lon="-5.28963547"><ele>2532</ele><speed>12.35</speed><time>2016-07-01T11:59:10Z</time><pdop>9.0</pdop><geoidheight>54.00</geoidheight><course>2.1</course><type>1</type></trkpt>
      <trkpt lat="40.44978639" lon="-5.28961133"><ele>2529</ele><speed>11.08</speed><time>2016-07-01T11:59:12Z</time><pdop>10.0</pdop><geoidheight>54.00</geoidheight><course>3.8</course><type>1</type></trkpt>
      <trkpt lat="40.44999998" lon="-5.28962876"><ele>2527</ele><speed>11.37</speed><time>2016-07-01T11:59:14Z</time><pdop>10.0</pdop><geoidheight>54.00</geoidheight><course>353.0</course><type>1</type></trkpt>
      <trkpt lat="40.45021793" lon="-5.2896873"><ele>2524</ele><speed>11.95</speed><time>2016-07-01T11:59:16Z</time><pdop>10.0</pdop><geoidheight>54.00</geoidheight><course>347.8</course><type>1</type></trkpt>
      <trkpt lat="40.45041675" lon="-5.28973879"><ele>2521</ele><speed>11.16</speed><time>2016-07-01T11:59:18Z</time><pdop>10.0</pdop><geoidheight>54.00</geoidheight><course>348.9</course><type>1</type></trkpt>
      <trkpt lat="40.4506152" lon="-5.28980684"><ele>2519</ele><speed>11.25</speed><time>2016-07-01T11:59:20Z</time><pdop>10.0</pdop><geoidheight>54.00</geoidheight><course>341.4</course><type>1</type></trkpt>
      <trkpt lat="40.45078256" lon="-5.28992664"><ele>2517</ele><speed>10.32</speed><time>2016-07-01T11:59:22Z</time><pdop>10.0</pdop><geoidheight>54.00</geoidheight><course>330.3</course><type>1</type></trkpt>
      <trkpt lat="40.45103378" lon="-5.29007595"><ele>2512</ele><speed>10.73</speed><time>2016-07-01T11:59:25Z</time><pdop>10.0</pdop><geoidheight>54.00</geoidheight><course>331.4</course><type>1</type></trkpt>
      <trkpt lat="40.45121126" lon="-5.29015631"><ele>2512</ele><speed>9.79</speed><time>2016-07-01T11:59:27Z</time><pdop>10.0</pdop><geoidheight>54.00</geoidheight><course>341.6</course><type>1</type></trkpt>
      <trkpt lat="40.4514407" lon="-5.29027563"><ele>2509</ele><speed>10.08</speed><time>2016-07-01T11:59:30Z</time><pdop>9.0</pdop><geoidheight>54.00</geoidheight><course>337.9</course><type>1</type></trkpt>
      <trkpt lat="40.45160398" lon="-5.29036171"><ele>2506</ele><speed>10.27</speed><time>2016-07-01T11:59:32Z</time><pdop>9.0</pdop><geoidheight>54.00</geoidheight><course>335.9</course><type>1</type></trkpt>
      <trkpt lat="40.45178308" lon="-5.29045365"><ele>2504</ele><speed>11.10</speed><time>2016-07-01T11:59:34Z</time><pdop>9.0</pdop><geoidheight>54.00</geoidheight><course>342.1</course><type>1</type></trkpt>
      <trkpt lat="40.45198297" lon="-5.29051658"><ele>2503</ele><speed>11.17</speed><time>2016-07-01T11:59:36Z</time><pdop>9.0</pdop><geoidheight>54.00</geoidheight><course>348.4</course><type>1</type></trkpt>
      <trkpt lat="40.45221024" lon="-5.29049329"><ele>2500</ele><speed>12.14</speed><time>2016-07-01T11:59:38Z</time><pdop>9.0</pdop><geoidheight>54.00</geoidheight><course>359.7</course><type>1</type></trkpt>
      <trkpt lat="40.45241585" lon="-5.29047598"><ele>2496</ele><speed>11.54</speed><time>2016-07-01T11:59:40Z</time><pdop>9.0</pdop><geoidheight>54.00</geoidheight><course>1.2</course><type>1</type></trkpt>
      <trkpt lat="40.45262014" lon="-5.29048031"><ele>2493</ele><speed>11.97</speed><time>2016-07-01T11:59:42Z</time><pdop>9.0</pdop><geoidheight>54.00</geoidheight><course>355.8</course><type>1</type></trkpt>
      <trkpt lat="40.45282471" lon="-5.29051064"><ele>2489</ele><speed>11.89</speed><time>2016-07-01T11:59:44Z</time><pdop>9.0</pdop><geoidheight>54.00</geoidheight><course>353.4</course><type>1</type></trkpt>
      <trkpt lat="40.45302912" lon="-5.29053634"><ele>2487</ele><speed>11.36</speed><time>2016-07-01T11:59:46Z</time><pdop>9.0</pdop><geoidheight>54.00</geoidheight><course>354.5</course><type>1</type></trkpt>
      <trkpt lat="40.45323654" lon="-5.29055081"><ele>2485</ele><speed>11.24</speed><time>2016-07-01T11:59:48Z</time><pdop>9.0</pdop><geoidheight>54.00</geoidheight><course>357.9</course><type>1</type></trkpt>
      <trkpt lat="40.45343436" lon="-5.29056435"><ele>2481</ele><speed>11.28</speed><time>2016-07-01T11:59:50Z</time><pdop>9.0</pdop><geoidheight>54.00</geoidheight><course>357.5</course><type>1</type></trkpt>
      <trkpt lat="40.45364783" lon="-5.29058118"><ele>2479</ele><speed>11.42</speed><time>2016-07-01T11:59:52Z</time><pdop>10.0</pdop><geoidheight>54.00</geoidheight><course>354.9</course><type>1</type></trkpt>
      <trkpt lat="40.45386289" lon="-5.29066764"><ele>2477</ele><speed>12.51</speed><time>2016-07-01T11:59:54Z</time><pdop>9.0</pdop><geoidheight>54.00</geoidheight><course>345.7</course><type>1</type></trkpt>
      <trkpt lat="40.45411098" lon="-5.29071598"><ele>2475</ele><speed>13.72</speed><time>2016-07-01T11:59:56Z</time><pdop>10.0</pdop><geoidheight>54.00</geoidheight><course>351.2</course><type>1</type></trkpt>
      <trkpt lat="40.45434901" lon="-5.29076379"><ele>2471</ele><speed>13.25</speed><time>2016-07-01T11:59:58Z</time><pdop>9.0</pdop><geoidheight>54.00</geoidheight><course>353.2</course><type>1</type></trkpt>
      <trkpt lat="40.454587" lon="-5.29080168"><ele>2468</ele><speed>12.89</speed><time>2016-07-01T12:00:00Z</time><pdop>9.0</pdop><geoidheight>54.00</geoidheight><course>351.3</course><type>1</type></trkpt>
      <trkpt lat="40.45482691" lon="-5.29085122"><ele>2463</ele><speed>13.33</speed><time>2016-07-01T12:00:02Z</time><pdop>9.0</pdop><geoidheight>54.00</geoidheight><course>352.9</course><type>1</type></trkpt>
      <trkpt lat="40.45507842" lon="-5.29089658"><ele>2461</ele><speed>13.50</speed><time>2016-07-01T12:00:04Z</time><pdop>9.0</pdop><geoidheight>54.00</geoidheight><course>350.7</course><type>1</type></trkpt>
      <trkpt lat="40.45531025" lon="-5.29095807"><ele>2459</ele><speed>12.82</speed><time>2016-07-01T12:00:06Z</time><pdop>9.0</pdop><geoidheight>54.00</geoidheight><course>346.5</course><type>1</type></trkpt>
      <trkpt lat="40.4555132" lon="-5.291066"><ele>2457</ele><speed>12.51</speed><time>2016-07-01T12:00:08Z</time><pdop>10.0</pdop><geoidheight>54.00</geoidheight><course>341.7</course><type>1</type></trkpt>
      <trkpt lat="40.45577567" lon="-5.2910938"><ele>2453</ele><speed>13.61</speed><time>2016-07-01T12:00:10Z</time><pdop>9.0</pdop><geoidheight>54.00</geoidheight><course>351.0</course><type>1</type></trkpt>
      <trkpt lat="40.45601243" lon="-5.2911343"><ele>2452</ele><speed>13.71</speed><time>2016-07-01T12:00:12Z</time><pdop>9.0</pdop><geoidheight>54.00</geoidheight><course>352.0</course><type>1</type></trkpt>
      <trkpt lat="40.45624175" lon="-5.29121298"><ele>2450</ele><speed>13.61</speed><time>2016-07-01T12:00:14Z</time><pdop>9.0</pdop><geoidheight>54.00</geoidheight><course>348.4</course><type>1</type></trkpt>
      <trkpt lat="40.45651306" lon="-5.29120823"><ele>2447</ele><speed>14.46</speed><time>2016-07-01T12:00:16Z</time><pdop>10.0</pdop><geoidheight>54.00</geoidheight><course>355.8</course><type>1</type></trkpt>
      <trkpt lat="40.45696748" lon="-5.29121363"><ele>2445</ele><speed>16.40</speed><time>2016-07-01T12:00:19Z</time><pdop>11.0</pdop><geoidheight>54.00</geoidheight><course>359.9</course><type>1</type></trkpt>
      <trkpt lat="40.45720831" lon="-5.29121815"><ele>2068</ele><speed>13.73</speed><time>2016-07-01T12:00:21Z</time><pdop>10.0</pdop><geoidheight>54.00</geoidheight><course>1.7</course><type>1</type></trkpt>
      <trkpt lat="40.45744852" lon="-5.29121536"><ele>2165</ele><speed>13.88</speed><time>2016-07-01T12:00:23Z</time><pdop>10.0</pdop><geoidheight>54.00</geoidheight><course>1.7</course><type>1</type></trkpt>
      <trkpt lat="40.45770584" lon="-5.29123088"><ele>2248</ele><speed>14.33</speed><time>2016-07-01T12:00:25Z</time><pdop>11.0</pdop><geoidheight>54.00</geoidheight><course>358.5</course><type>1</type></trkpt>
      <trkpt lat="40.45797454" lon="-5.29120891"><ele>2288</ele><speed>15.01</speed><time>2016-07-01T12:00:27Z</time><pdop>10.0</pdop><geoidheight>54.00</geoidheight><course>359.3</course><type>1</type></trkpt>
      <trkpt lat="40.45824084" lon="-5.29121513"><ele>2314</ele><speed>13.33</speed><time>2016-07-01T12:00:29Z</time><pdop>10.0</pdop><geoidheight>54.00</geoidheight><course>357.9</course><type>1</type></trkpt>
      <trkpt lat="40.45847915" lon="-5.29123221"><ele>2338</ele><speed>13.12</speed><time>2016-07-01T12:00:31Z</time><pdop>12.0</pdop><geoidheight>54.00</geoidheight><course>357.6</course><type>1</type></trkpt>
      <trkpt lat="40.45873108" lon="-5.29117614"><ele>2340</ele><speed>13.74</speed><time>2016-07-01T12:00:33Z</time><pdop>11.0</pdop><geoidheight>54.00</geoidheight><course>4.4</course><type>1</type></trkpt>
      <trkpt lat="40.45900783" lon="-5.29117365"><ele>2348</ele><speed>15.08</speed><time>2016-07-01T12:00:35Z</time><pdop>10.0</pdop><geoidheight>54.00</geoidheight><course>1.2</course><type>1</type></trkpt>
      <trkpt lat="40.45927159" lon="-5.29118063"><ele>2358</ele><speed>14.79</speed><time>2016-07-01T12:00:37Z</time><pdop>10.0</pdop><geoidheight>54.00</geoidheight><course>1.2</course><type>1</type></trkpt>
      <trkpt lat="40.45950353" lon="-5.2911742"><ele>2363</ele><speed>12.54</speed><time>2016-07-01T12:00:39Z</time><pdop>10.0</pdop><geoidheight>54.00</geoidheight><course>0.3</course><type>1</type></trkpt>
      <trkpt lat="40.45971444" lon="-5.29116339"><ele>2363</ele><speed>11.38</speed><time>2016-07-01T12:00:41Z</time><pdop>10.0</pdop><geoidheight>54.00</geoidheight><course>3.3</course><type>1</type></trkpt>
      <trkpt lat="40.45992031" lon="-5.29114116"><ele>2364</ele><speed>11.58</speed><time>2016-07-01T12:00:43Z</time><pdop>12.0</pdop><geoidheight>54.00</geoidheight><course>3.8</course><type>1</type></trkpt>
      <trkpt lat="40.46019384" lon="-5.29110223"><ele>2364</ele><speed>14.53</speed><time>2016-07-01T12:00:45Z</time><pdop>11.0</pdop><geoidheight>54.00</geoidheight><course>7.2</course><type>1</type></trkpt>
      <trkpt lat="40.46043551" lon="-5.29104883"><ele>2367</ele><speed>13.10</speed><time>2016-07-01T12:00:47Z</time><pdop>10.0</pdop><geoidheight>54.00</geoidheight><course>7.2</course><type>1</type></trkpt>
      <trkpt lat="40.46065817" lon="-5.291035"><ele>2365</ele><speed>12.09</speed><time>2016-07-01T12:00:49Z</time><pdop>10.0</pdop><geoidheight>54.00</geoidheight><course>5.2</course><type>1</type></trkpt>
      <trkpt lat="40.46086789" lon="-5.29100934"><ele>2365</ele><speed>12.25</speed><time>2016-07-01T12:00:51Z</time><pdop>11.0</pdop><geoidheight>54.00</geoidheight><course>5.8</course><type>1</type></trkpt>
      <trkpt lat="40.46109489" lon="-5.29098599"><ele>2362</ele><speed>12.92</speed><time>2016-07-01T12:00:53Z</time><pdop>10.0</pdop><geoidheight>54.00</geoidheight><course>6.0</course><type>1</type></trkpt>
      <trkpt lat="40.46132702" lon="-5.29096776"><ele>2358</ele><speed>13.37</speed><time>2016-07-01T12:00:55Z</time><pdop>10.0</pdop><geoidheight>54.00</geoidheight><course>6.7</course><type>1</type></trkpt>
      <trkpt lat="40.46155788" lon="-5.2909085"><ele>2358</ele><speed>12.75</speed><time>2016-07-01T12:00:57Z</time><pdop>10.0</pdop><geoidheight>54.00</geoidheight><course>12.9</course><type>1</type></trkpt>
      <trkpt lat="40.46179876" lon="-5.29083868"><ele>2356</ele><speed>13.54</speed><time>2016-07-01T12:00:59Z</time><pdop>10.0</pdop><geoidheight>54.00</geoidheight><course>10.8</course><type>1</type></trkpt>
      <trkpt lat="40.46203081" lon="-5.29076573"><ele>2355</ele><speed>13.49</speed><time>2016-07-01T12:01:01Z</time><pdop>10.0</pdop><geoidheight>54.00</geoidheight><course>13.8</course><type>1</type></trkpt>
      <trkpt lat="40.46222335" lon="-5.29067773"><ele>2353</ele><speed>11.62</speed><time>2016-07-01T12:01:03Z</time><pdop>11.0</pdop><geoidheight>54.00</geoidheight><course>18.4</course><type>1</type></trkpt>
      <trkpt lat="40.46253373" lon="-5.29056922"><ele>2349</ele><speed>12.16</speed><time>2016-07-01T12:01:06Z</time><pdop>14.0</pdop><geoidheight>54.00</geoidheight><course>15.6</course><type>1</type></trkpt>
      <trkpt lat="40.46282692" lon="-5.29040603"><ele>2345</ele><speed>11.82</speed><time>2016-07-01T12:01:09Z</time><pdop>14.0</pdop><geoidheight>54.00</geoidheight><course>23.3</course><type>1</type></trkpt>
      <trkpt lat="40.46308433" lon="-5.29022358"><ele>2341</ele><speed>11.37</speed><time>2016-07-01T12:01:12Z</time><pdop>11.0</pdop><geoidheight>54.00</geoidheight><course>30.4</course><type>1</type></trkpt>
      <trkpt lat="40.46333211" lon="-5.29001201"><ele>2336</ele><speed>10.93</speed><time>2016-07-01T12:01:15Z</time><pdop>11.0</pdop><geoidheight>54.00</geoidheight><course>33.0</course><type>1</type></trkpt>
      <trkpt lat="40.46351409" lon="-5.28989241"><ele>2330</ele><speed>11.30</speed><time>2016-07-01T12:01:17Z</time><pdop>10.0</pdop><geoidheight>54.00</geoidheight><course>28.6</course><type>1</type></trkpt>
      <trkpt lat="40.46370753" lon="-5.28978853"><ele>2327</ele><speed>11.25</speed><time>2016-07-01T12:01:19Z</time><pdop>10.0</pdop><geoidheight>54.00</geoidheight><course>22.3</course><type>1</type></trkpt>
      <trkpt lat="40.46388639" lon="-5.28972615"><ele>2324</ele><speed>10.26</speed><time>2016-07-01T12:01:21Z</time><pdop>10.0</pdop><geoidheight>54.00</geoidheight><course>14.7</course><type>1</type></trkpt>
      <trkpt lat="40.46407291" lon="-5.28973367"><ele>2320</ele><speed>10.52</speed><time>2016-07-01T12:01:23Z</time><pdop>9.0</pdop><geoidheight>54.00</geoidheight><course>1.5</course><type>1</type></trkpt>
      <trkpt lat="40.46427336" lon="-5.2897339"><ele>2316</ele><speed>11.22</speed><time>2016-07-01T12:01:25Z</time><pdop>9.0</pdop><geoidheight>54.00</geoidheight><course>359.3</course><type>1</type></trkpt>
      <trkpt lat="40.46448228" lon="-5.28974498"><ele>2313</ele><speed>11.95</speed><time>2016-07-01T12:01:27Z</time><pdop>9.0</pdop><geoidheight>54.00</geoidheight><course>358.2</course><type>1</type></trkpt>
      <trkpt lat="40.46470078" lon="-5.28976925"><ele>2312</ele><speed>12.02</speed><time>2016-07-01T12:01:29Z</time><pdop>11.0</pdop><geoidheight>54.00</geoidheight><course>356.2</course><type>1</type></trkpt>
      <trkpt lat="40.46498105" lon="-5.28973988"><ele>2309</ele><speed>14.14</speed><time>2016-07-01T12:01:31Z</time><pdop>9.0</pdop><geoidheight>54.00</geoidheight><course>1.2</course><type>1</type></trkpt>
      <trkpt lat="40.46523264" lon="-5.28972951"><ele>2306</ele><speed>13.60</speed><time>2016-07-01T12:01:33Z</time><pdop>9.0</pdop><geoidheight>54.00</geoidheight><course>3.2</course><type>1</type></trkpt>
      <trkpt lat="40.46546109" lon="-5.28971468"><ele>2304</ele><speed>13.13</speed><time>2016-07-01T12:01:35Z</time><pdop>9.0</pdop><geoidheight>54.00</geoidheight><course>6.5</course><type>1</type></trkpt>
      <trkpt lat="40.46567168" lon="-5.28962194"><ele>2301</ele><speed>12.67</speed><time>2016-07-01T12:01:37Z</time><pdop>9.0</pdop><geoidheight>54.00</geoidheight><course>14.9</course><type>1</type></trkpt>
      <trkpt lat="40.46584664" lon="-5.28955601"><ele>2300</ele><speed>10.11</speed><time>2016-07-01T12:01:39Z</time><pdop>10.0</pdop><geoidheight>54.00</geoidheight><course>15.2</course><type>1</type></trkpt>
      <trkpt lat="40.46606351" lon="-5.28945456"><ele>2300</ele><speed>9.46</speed><time>2016-07-01T12:01:42Z</time><pdop>9.0</pdop><geoidheight>54.00</geoidheight><course>19.0</course><type>1</type></trkpt>
      <trkpt lat="40.4662205" lon="-5.28940093"><ele>2299</ele><speed>8.98</speed><time>2016-07-01T12:01:44Z</time><pdop>9.0</pdop><geoidheight>54.00</geoidheight><course>10.2</course><type>1</type></trkpt>
      <trkpt lat="40.46641647" lon="-5.2895126"><ele>2299</ele><speed>7.27</speed><time>2016-07-01T12:01:47Z</time><pdop>9.0</pdop><geoidheight>54.00</geoidheight><course>325.0</course><type>1</type></trkpt>
      <trkpt lat="40.46650895" lon="-5.28973309"><ele>2300</ele><speed>6.11</speed><time>2016-07-01T12:01:50Z</time><pdop>9.0</pdop><geoidheight>54.00</geoidheight><course>291.9</course><type>1</type></trkpt>
      <trkpt lat="40.4664225" lon="-5.28999496"><ele>2300</ele><speed>7.63</speed><time>2016-07-01T12:01:54Z</time><pdop>9.0</pdop><geoidheight>54.00</geoidheight><course>229.6</course><type>1</type></trkpt>
      <trkpt lat="40.4661623" lon="-5.29012223"><ele>2298</ele><speed>10.42</speed><time>2016-07-01T12:01:57Z</time><pdop>10.0</pdop><geoidheight>54.00</geoidheight><course>195.2</course><type>1</type></trkpt>
      <trkpt lat="40.4659296" lon="-5.29002692"><ele>2297</ele><speed>11.34</speed><time>2016-07-01T12:01:59Z</time><pdop>11.0</pdop><geoidheight>54.00</geoidheight><course>169.8</course><type>1</type></trkpt>
      <trkpt lat="40.46576459" lon="-5.28980402"><ele>2294</ele><speed>10.74</speed><time>2016-07-01T12:02:01Z</time><pdop>12.0</pdop><geoidheight>54.00</geoidheight><course>142.4</course><type>1</type></trkpt>
      <trkpt lat="40.46582357" lon="-5.28929045"><ele>2294</ele><speed>10.79</speed><time>2016-07-01T12:02:04Z</time><pdop>13.0</pdop><geoidheight>54.00</geoidheight><course>87.1</course><type>1</type></trkpt>
      <trkpt lat="40.4659567" lon="-5.28896633"><ele>2292</ele><speed>10.57</speed><time>2016-07-01T12:02:06Z</time><pdop>11.0</pdop><geoidheight>54.00</geoidheight><course>67.8</course><type>1</type></trkpt>
      <trkpt lat="40.46616771" lon="-5.28886877"><ele>2289</ele><speed>10.50</speed><time>2016-07-01T12:02:08Z</time><pdop>11.0</pdop><geoidheight>54.00</geoidheight><course>33.7</course><type>1</type></trkpt>
      <trkpt lat="40.46640326" lon="-5.28889807"><ele>2286</ele><speed>9.86</speed><time>2016-07-01T12:02:10Z</time><pdop>10.0</pdop><geoidheight>54.00</geoidheight><course>6.0</course><type>1</type></trkpt>
      <trkpt lat="40.46658882" lon="-5.28887943"><ele>2287</ele><speed>9.58</speed><time>2016-07-01T12:02:12Z</time><pdop>9.0</pdop><geoidheight>54.00</geoidheight><course>1.5</course><type>1</type></trkpt>
      <trkpt lat="40.4667561" lon="-5.28887611"><ele>2284</ele><speed>9.45</speed><time>2016-07-01T12:02:14Z</time><pdop>9.0</pdop><geoidheight>54.00</geoidheight><course>358.9</course><type>1</type></trkpt>
      <trkpt lat="40.46700257" lon="-5.28892904"><ele>2281</ele><speed>9.94</speed><time>2016-07-01T12:02:17Z</time><pdop>9.0</pdop><geoidheight>54.00</geoidheight><course>350.4</course><type>1</type></trkpt>
      <trkpt lat="40.46723625" lon="-5.2889845"><ele>2283</ele><speed>12.37</speed><time>2016-07-01T12:02:19Z</time><pdop>9.0</pdop><geoidheight>54.00</geoidheight><course>348.9</course><type>1</type></trkpt>
      <trkpt lat="40.46739209" lon="-5.28910967"><ele>2285</ele><speed>10.29</speed><time>2016-07-01T12:02:21Z</time><pdop>9.0</pdop><geoidheight>54.00</geoidheight><course>330.5</course><type>1</type></trkpt>
      <trkpt lat="40.46754246" lon="-5.28931353"><ele>2285</ele><speed>6.44</speed><time>2016-07-01T12:02:25Z</time><pdop>9.0</pdop><geoidheight>54.00</geoidheight><course>309.1</course><type>1</type></trkpt>
      <trkpt lat="40.46767842" lon="-5.28945965"><ele>2292</ele><speed>7.76</speed><time>2016-07-01T12:02:28Z</time><pdop>9.0</pdop><geoidheight>54.00</geoidheight><course>333.9</course><type>1</type></trkpt>
      <trkpt lat="40.46790585" lon="-5.28937758"><ele>2294</ele><speed>8.49</speed><time>2016-07-01T12:02:31Z</time><pdop>10.0</pdop><geoidheight>54.00</geoidheight><course>13.2</course><type>1</type></trkpt>
      <trkpt lat="40.46797201" lon="-5.28913448"><ele>2299</ele><speed>8.74</speed><time>2016-07-01T12:02:33Z</time><pdop>11.0</pdop><geoidheight>54.00</geoidheight><course>55.4</course><type>1</type></trkpt>
      <trkpt lat="40.46793661" lon="-5.28887018"><ele>2302</ele><speed>9.02</speed><time>2016-07-01T12:02:35Z</time><pdop>11.0</pdop><geoidheight>54.00</geoidheight><course>95.1</course><type>1</type></trkpt>
      <trkpt lat="40.4678726" lon="-5.28856316"><ele>2307</ele><speed>6.97</speed><time>2016-07-01T12:02:38Z</time><pdop>11.0</pdop><geoidheight>54.00</geoidheight><course>104.3</course><type>1</type></trkpt>
      <trkpt lat="40.46766926" lon="-5.28852886"><ele>2308</ele><speed>8.02</speed><time>2016-07-01T12:02:40Z</time><pdop>11.0</pdop><geoidheight>54.00</geoidheight><course>162.5</course><type>1</type></trkpt>
      <trkpt lat="40.46746384" lon="-5.28862492"><ele>2309</ele><speed>10.03</speed><time>2016-07-01T12:02:42Z</time><pdop>11.0</pdop><geoidheight>54.00</geoidheight><course>194.9</course><type>1</type></trkpt>
      <trkpt lat="40.46744898" lon="-5.28893801"><ele>2310</ele><speed>7.58</speed><time>2016-07-01T12:02:45Z</time><pdop>11.0</pdop><geoidheight>54.00</geoidheight><course>251.0</course><type>1</type></trkpt>
      <trkpt lat="40.46775001" lon="-5.28887346"><ele>2310</ele><speed>6.72</speed><time>2016-07-01T12:02:50Z</time><pdop>12.0</pdop><geoidheight>54.00</geoidheight><course>20.2</course><type>1</type></trkpt>
      <trkpt lat="40.46784058" lon="-5.28851187"><ele>2320</ele><speed>8.33</speed><time>2016-07-01T12:02:53Z</time><pdop>12.0</pdop><geoidheight>54.00</geoidheight><course>63.2</course><type>1</type></trkpt>
      <trkpt lat="40.4676516" lon="-5.28827895"><ele>2324</ele><speed>6.98</speed><time>2016-07-01T12:02:56Z</time><pdop>12.0</pdop><geoidheight>54.00</geoidheight><course>129.5</course><type>1</type></trkpt>
      <trkpt lat="40.46745298" lon="-5.28841835"><ele>2326</ele><speed>8.37</speed><time>2016-07-01T12:02:58Z</time><pdop>12.0</pdop><geoidheight>54.00</geoidheight><course>200.0</course><type>1</type></trkpt>
      <trkpt lat="40.46732654" lon="-5.28864407"><ele>2335</ele><speed>9.48</speed><time>2016-07-01T12:03:00Z</time><pdop>10.0</pdop><geoidheight>54.00</geoidheight><course>245.5</course><type>1</type></trkpt>
      <trkpt lat="40.4673765" lon="-5.28890671"><ele>2340</ele><speed>8.77</speed><time>2016-07-01T12:03:03Z</time><pdop>9.0</pdop><geoidheight>54.00</geoidheight><course>304.5</course><type>1</type></trkpt>
      <trkpt lat="40.46755034" lon="-5.28903318"><ele>2348</ele><speed>7.38</speed><time>2016-07-01T12:03:06Z</time><pdop>10.0</pdop><geoidheight>54.00</geoidheight><course>340.8</course><type>1</type></trkpt>
      <trkpt lat="40.46777505" lon="-5.28895491"><ele>2353</ele><speed>9.18</speed><time>2016-07-01T12:03:09Z</time><pdop>11.0</pdop><geoidheight>54.00</geoidheight><course>12.7</course><type>1</type></trkpt>
      <trkpt lat="40.46786446" lon="-5.28865782"><ele>2358</ele><speed>8.46</speed><time>2016-07-01T12:03:12Z</time><pdop>13.0</pdop><geoidheight>54.00</geoidheight><course>57.9</course><type>1</type></trkpt>
      <trkpt lat="40.46781773" lon="-5.28823917"><ele>2367</ele><speed>9.93</speed><time>2016-07-01T12:03:15Z</time><pdop>11.0</pdop><geoidheight>54.00</geoidheight><course>89.7</course><type>1</type></trkpt>
      <trkpt lat="40.4678679" lon="-5.2878756"><ele>2360</ele><speed>10.64</speed><time>2016-07-01T12:03:18Z</time><pdop>12.0</pdop><geoidheight>54.00</geoidheight><course>73.9</course><type>1</type></trkpt>
      <trkpt lat="40.46811589" lon="-5.28774145"><ele>2368</ele><speed>8.43</speed><time>2016-07-01T12:03:21Z</time><pdop>13.0</pdop><geoidheight>54.00</geoidheight><course>37.6</course><type>1</type></trkpt>
      <trkpt lat="40.46834817" lon="-5.28795474"><ele>2372</ele><speed>9.51</speed><time>2016-07-01T12:03:23Z</time><pdop>12.0</pdop><geoidheight>54.00</geoidheight><course>344.8</course><type>1</type></trkpt>
      <trkpt lat="40.46826648" lon="-5.28825937"><ele>2159</ele><speed>8.22</speed><time>2016-07-01T12:03:25Z</time><pdop>11.0</pdop><geoidheight>54.00</geoidheight><course>259.8</course><type>1</type></trkpt>
      <trkpt lat="40.46807334" lon="-5.28854672"><ele>2269</ele><speed>10.85</speed><time>2016-07-01T12:03:28Z</time><pdop>10.0</pdop><geoidheight>54.00</geoidheight><course>220.5</course><type>1</type></trkpt>
      <trkpt lat="40.4678187" lon="-5.28871983"><ele>2206</ele><speed>8.89</speed><time>2016-07-01T12:03:31Z</time><pdop>9.0</pdop><geoidheight>54.00</geoidheight><course>195.7</course><type>1</type></trkpt>
      <trkpt lat="40.46761959" lon="-5.28863134"><ele>2293</ele><speed>10.02</speed><time>2016-07-01T12:03:33Z</time><pdop>9.0</pdop><geoidheight>54.00</geoidheight><course>157.7</course><type>1</type></trkpt>
      <trkpt lat="40.46746598" lon="-5.28848254"><ele>2336</ele><speed>10.87</speed><time>2016-07-01T12:03:35Z</time><pdop>10.0</pdop><geoidheight>54.00</geoidheight><course>143.6</course><type>1</type></trkpt>
      <trkpt lat="40.46734204" lon="-5.28817972"><ele>2362</ele><speed>12.50</speed><time>2016-07-01T12:03:37Z</time><pdop>10.0</pdop><geoidheight>54.00</geoidheight><course>121.3</course><type>1</type></trkpt>
      <trkpt lat="40.46727847" lon="-5.2879315"><ele>2354</ele><speed>11.66</speed><time>2016-07-01T12:03:39Z</time><pdop>11.0</pdop><geoidheight>54.00</geoidheight><course>109.0</course><type>1</type></trkpt>
      <trkpt lat="40.46729242" lon="-5.28761665"><ele>2364</ele><speed>11.32</speed><time>2016-07-01T12:03:41Z</time><pdop>13.0</pdop><geoidheight>54.00</geoidheight><course>97.9</course><type>1</type></trkpt>
      <trkpt lat="40.46744088" lon="-5.28734053"><ele>2394</ele><speed>9.08</speed><time>2016-07-01T12:03:44Z</time><pdop>11.0</pdop><geoidheight>54.00</geoidheight><course>72.3</course><type>1</type></trkpt>
      <trkpt lat="40.46757163" lon="-5.28703832"><ele>2405</ele><speed>9.01</speed><time>2016-07-01T12:03:47Z</time><pdop>11.0</pdop><geoidheight>54.00</geoidheight><course>65.8</course><type>1</type></trkpt>
      <trkpt lat="40.46775203" lon="-5.28683739"><ele>2409</ele><speed>10.84</speed><time>2016-07-01T12:03:49Z</time><pdop>11.0</pdop><geoidheight>54.00</geoidheight><course>50.3</course><type>1</type></trkpt>
      <trkpt lat="40.46796145" lon="-5.28672437"><ele>2414</ele><speed>11.26</speed><time>2016-07-01T12:03:51Z</time><pdop>10.0</pdop><geoidheight>54.00</geoidheight><course>20.2</course><type>1</type></trkpt>
      <trkpt lat="40.46818918" lon="-5.28670007"><ele>2417</ele><speed>11.24</speed><time>2016-07-01T12:03:53Z</time><pdop>9.0</pdop><geoidheight>54.00</geoidheight><course>5.1</course><type>1</type></trkpt>
      <trkpt lat="40.46835833" lon="-5.28679758"><ele>2420</ele><speed>10.70</speed><time>2016-07-01T12:03:55Z</time><pdop>10.0</pdop><geoidheight>54.00</geoidheight><course>336.2</course><type>1</type></trkpt>
      <trkpt lat="40.46849345" lon="-5.28696253"><ele>2421</ele><speed>9.80</speed><time>2016-07-01T12:03:57Z</time><pdop>10.0</pdop><geoidheight>54.00</geoidheight><course>317.2</course><type>1</type></trkpt>
      <trkpt lat="40.46845905" lon="-5.28722482"><ele>2220</ele><speed>9.64</speed><time>2016-07-01T12:03:59Z</time><pdop>9.0</pdop><geoidheight>54.00</geoidheight><course>262.8</course><type>1</type></trkpt>
      <trkpt lat="40.46836536" lon="-5.28741302"><ele>2305</ele><speed>8.83</speed><time>2016-07-01T12:04:01Z</time><pdop>10.0</pdop><geoidheight>54.00</geoidheight><course>237.5</course><type>1</type></trkpt>
      <trkpt lat="40.46809529" lon="-5.28740506"><ele>2360</ele><speed>8.66</speed><time>2016-07-01T12:04:04Z</time><pdop>10.0</pdop><geoidheight>54.00</geoidheight><course>177.4</course><type>1</type></trkpt>
      <trkpt lat="40.46790929" lon="-5.28725981"><ele>2378</ele><speed>9.87</speed><time>2016-07-01T12:04:06Z</time><pdop>11.0</pdop><geoidheight>54.00</geoidheight><course>151.7</course><type>1</type></trkpt>
      <trkpt lat="40.46775551" lon="-5.28707535"><ele>2388</ele><speed>8.79</speed><time>2016-07-01T12:04:08Z</time><pdop>12.0</pdop><geoidheight>54.00</geoidheight><course>138.5</course><type>1</type></trkpt>
      <trkpt lat="40.46773582" lon="-5.28678895"><ele>2404</ele><speed>8.65</speed><time>2016-07-01T12:04:10Z</time><pdop>11.0</pdop><geoidheight>54.00</geoidheight><course>100.8</course><type>1</type></trkpt>
      <trkpt lat="40.46781073" lon="-5.28653489"><ele>2414</ele><speed>9.28</speed><time>2016-07-01T12:04:12Z</time><pdop>11.0</pdop><geoidheight>54.00</geoidheight><course>77.4</course><type>1</type></trkpt>
      <trkpt lat="40.46791518" lon="-5.28630448"><ele>2417</ele><speed>9.52</speed><time>2016-07-01T12:04:14Z</time><pdop>11.0</pdop><geoidheight>54.00</geoidheight><course>64.6</course><type>1</type></trkpt>
      <trkpt lat="40.46808472" lon="-5.28615186"><ele>2427</ele><speed>9.99</speed><time>2016-07-01T12:04:16Z</time><pdop>10.0</pdop><geoidheight>54.00</geoidheight><course>35.5</course><type>1</type></trkpt>
      <trkpt lat="40.46833298" lon="-5.28613454"><ele>2438</ele><speed>6.81</speed><time>2016-07-01T12:04:19Z</time><pdop>11.0</pdop><geoidheight>54.00</geoidheight><course>357.2</course><type>1</type></trkpt>
      <trkpt lat="40.46851767" lon="-5.28644321"><ele>2444</ele><speed>9.99</speed><time>2016-07-01T12:04:22Z</time><pdop>12.0</pdop><geoidheight>54.00</geoidheight><course>301.3</course><type>1</type></trkpt>
      <trkpt lat="40.46845023" lon="-5.28672984"><ele>2447</ele><speed>10.33</speed><time>2016-07-01T12:04:24Z</time><pdop>11.0</pdop><geoidheight>54.00</geoidheight><course>273.4</course><type>1</type></trkpt>
      <trkpt lat="40.4682446" lon="-5.28694208"><ele>2451</ele><speed>8.38</speed><time>2016-07-01T12:04:27Z</time><pdop>12.0</pdop><geoidheight>54.00</geoidheight><course>236.6</course><type>1</type></trkpt>
      <trkpt lat="40.46796202" lon="-5.28682856"><ele>2452</ele><speed>6.47</speed><time>2016-07-01T12:04:30Z</time><pdop>13.0</pdop><geoidheight>54.00</geoidheight><course>175.3</course><type>1</type></trkpt>
      <trkpt lat="40.46778539" lon="-5.28658407"><ele>2455</ele><speed>8.25</speed><time>2016-07-01T12:04:32Z</time><pdop>12.0</pdop><geoidheight>54.00</geoidheight><course>136.0</course><type>1</type></trkpt>
      <trkpt lat="40.46772935" lon="-5.286232"><ele>2460</ele><speed>11.04</speed><time>2016-07-01T12:04:34Z</time><pdop>12.0</pdop><geoidheight>54.00</geoidheight><course>104.7</course><type>1</type></trkpt>
      <trkpt lat="40.46776231" lon="-5.28591199"><ele>2447</ele><speed>9.73</speed><time>2016-07-01T12:04:36Z</time><pdop>13.0</pdop><geoidheight>54.00</geoidheight><course>80.9</course><type>1</type></trkpt>
      <trkpt lat="40.46795815" lon="-5.28564504"><ele>2462</ele><speed>8.10</speed><time>2016-07-01T12:04:39Z</time><pdop>11.0</pdop><geoidheight>54.00</geoidheight><course>41.9</course><type>1</type></trkpt>
      <trkpt lat="40.46810654" lon="-5.28545512"><ele>2467</ele><speed>10.64</speed><time>2016-07-01T12:04:41Z</time><pdop>10.0</pdop><geoidheight>54.00</geoidheight><course>37.9</course><type>1</type></trkpt>
      <trkpt lat="40.46836539" lon="-5.28537949"><ele>2472</ele><speed>13.39</speed><time>2016-07-01T12:04:43Z</time><pdop>10.0</pdop><geoidheight>54.00</geoidheight><course>20.9</course><type>1</type></trkpt>
      <trkpt lat="40.4685909" lon="-5.28526556"><ele>2480</ele><speed>12.54</speed><time>2016-07-01T12:04:45Z</time><pdop>9.0</pdop><geoidheight>54.00</geoidheight><course>24.5</course><type>1</type></trkpt>
      <trkpt lat="40.46877797" lon="-5.28510574"><ele>2485</ele><speed>11.87</speed><time>2016-07-01T12:04:47Z</time><pdop>10.0</pdop><geoidheight>54.00</geoidheight><course>31.5</course><type>1</type></trkpt>
      <trkpt lat="40.46897134" lon="-5.28494125"><ele>2488</ele><speed>12.37</speed><time>2016-07-01T12:04:49Z</time><pdop>11.0</pdop><geoidheight>54.00</geoidheight><course>33.2</course><type>1</type></trkpt>
      <trkpt lat="40.46913462" lon="-5.2847537"><ele>2488</ele><speed>12.43</speed><time>2016-07-01T12:04:51Z</time><pdop>11.0</pdop><geoidheight>54.00</geoidheight><course>37.8</course><type>1</type></trkpt>
      <trkpt lat="40.46929387" lon="-5.28452716"><ele>2475</ele><speed>12.85</speed><time>2016-07-01T12:04:53Z</time><pdop>10.0</pdop><geoidheight>54.00</geoidheight><course>34.8</course><type>1</type></trkpt>
      <trkpt lat="40.46949741" lon="-5.28444545"><ele>2479</ele><speed>8.34</speed><time>2016-07-01T12:04:56Z</time><pdop>11.0</pdop><geoidheight>54.00</geoidheight><course>21.0</course><type>1</type></trkpt>
      <trkpt lat="40.4695071" lon="-5.28487344"><ele>2327</ele><speed>6.14</speed><time>2016-07-01T12:05:00Z</time><pdop>13.0</pdop><geoidheight>54.00</geoidheight><course>271.9</course><type>1</type></trkpt>
      <trkpt lat="40.4693323" lon="-5.28515139"><ele>2389</ele><speed>9.15</speed><time>2016-07-01T12:05:02Z</time><pdop>11.0</pdop><geoidheight>54.00</geoidheight><course>239.7</course><type>1</type></trkpt>
      <trkpt lat="40.46912447" lon="-5.28521956"><ele>2418</ele><speed>8.80</speed><time>2016-07-01T12:05:04Z</time><pdop>11.0</pdop><geoidheight>54.00</geoidheight><course>211.6</course><type>1</type></trkpt>
      <trkpt lat="40.46894307" lon="-5.28503482"><ele>2440</ele><speed>8.28</speed><time>2016-07-01T12:05:06Z</time><pdop>11.0</pdop><geoidheight>54.00</geoidheight><course>157.3</course><type>1</type></trkpt>
      <trkpt lat="40.46878095" lon="-5.28480292"><ele>2447</ele><speed>10.49</speed><time>2016-07-01T12:05:08Z</time><pdop>12.0</pdop><geoidheight>54.00</geoidheight><course>138.9</course><type>1</type></trkpt>
      <trkpt lat="40.46859702" lon="-5.28459082"><ele>2454</ele><speed>12.11</speed><time>2016-07-01T12:05:10Z</time><pdop>13.0</pdop><geoidheight>54.00</geoidheight><course>137.9</course><type>1</type></trkpt>
      <trkpt lat="40.46860009" lon="-5.28423971"><ele>2465</ele><speed>12.35</speed><time>2016-07-01T12:05:12Z</time><pdop>12.0</pdop><geoidheight>54.00</geoidheight><course>108.3</course><type>1</type></trkpt>
      <trkpt lat="40.46851154" lon="-5.28392519"><ele>2475</ele><speed>12.38</speed><time>2016-07-01T12:05:14Z</time><pdop>11.0</pdop><geoidheight>54.00</geoidheight><course>115.4</course><type>1</type></trkpt>
      <trkpt lat="40.4683884" lon="-5.28365158"><ele>2480</ele><speed>12.37</speed><time>2016-07-01T12:05:16Z</time><pdop>11.0</pdop><geoidheight>54.00</geoidheight><course>124.1</course><type>1</type></trkpt>
      <trkpt lat="40.46817625" lon="-5.28378851"><ele>2485</ele><speed>6.55</speed><time>2016-07-01T12:05:20Z</time><pdop>12.0</pdop><geoidheight>54.00</geoidheight><course>197.4</course><type>1</type></trkpt>
      <trkpt lat="40.4683553" lon="-5.28410863"><ele>2319</ele><speed>6.28</speed><time>2016-07-01T12:05:23Z</time><pdop>11.0</pdop><geoidheight>54.00</geoidheight><course>297.6</course><type>1</type></trkpt>
      <trkpt lat="40.46855892" lon="-5.28423036"><ele>2375</ele><speed>8.24</speed><time>2016-07-01T12:05:25Z</time><pdop>12.0</pdop><geoidheight>54.00</geoidheight><course>325.4</course><type>1</type></trkpt>
      <trkpt lat="40.46884196" lon="-5.28421754"><ele>2433</ele><speed>11.56</speed><time>2016-07-01T12:05:27Z</time><pdop>11.0</pdop><geoidheight>54.00</geoidheight><course>355.0</course><type>1</type></trkpt>
      <trkpt lat="40.46901353" lon="-5.28398112"><ele>2468</ele><speed>8.52</speed><time>2016-07-01T12:05:30Z</time><pdop>12.0</pdop><geoidheight>54.00</geoidheight><course>36.3</course><type>1</type></trkpt>
      <trkpt lat="40.46893565" lon="-5.28366507"><ele>2476</ele><speed>9.58</speed><time>2016-07-01T12:05:32Z</time><pdop>11.0</pdop><geoidheight>54.00</geoidheight><course>86.7</course><type>1</type></trkpt>
      <trkpt lat="40.46878223" lon="-5.28327823"><ele>2486</ele><speed>10.38</speed><time>2016-07-01T12:05:35Z</time><pdop>11.0</pdop><geoidheight>54.00</geoidheight><course>128.9</course><type>1</type></trkpt>
      <trkpt lat="40.46864377" lon="-5.2830763"><ele>2491</ele><speed>10.26</speed><time>2016-07-01T12:05:37Z</time><pdop>11.0</pdop><geoidheight>54.00</geoidheight><course>138.6</course><type>1</type></trkpt>
      <trkpt lat="40.4684169" lon="-5.28303787"><ele>2500</ele><speed>9.15</speed><time>2016-07-01T12:05:40Z</time><pdop>10.0</pdop><geoidheight>54.00</geoidheight><course>181.1</course><type>1</type></trkpt>
      <trkpt lat="40.46830954" lon="-5.2832769"><ele>2505</ele><speed>7.57</speed><time>2016-07-01T12:05:43Z</time><pdop>9.0</pdop><geoidheight>54.00</geoidheight><course>246.9</course><type>1</type></trkpt>
      <trkpt lat="40.46839581" lon="-5.28350148"><ele>2509</ele><speed>9.87</speed><time>2016-07-01T12:05:45Z</time><pdop>9.0</pdop><geoidheight>54.00</geoidheight><course>288.3</course><type>1</type></trkpt>
      <trkpt lat="40.46855795" lon="-5.2836687"><ele>2515</ele><speed>10.50</speed><time>2016-07-01T12:05:47Z</time><pdop>9.0</pdop><geoidheight>54.00</geoidheight><course>316.3</course><type>1</type></trkpt>
      <trkpt lat="40.46870613" lon="-5.28378962"><ele>2519</ele><speed>9.82</speed><time>2016-07-01T12:05:49Z</time><pdop>9.0</pdop><geoidheight>54.00</geoidheight><course>324.6</course><type>1</type></trkpt>
      <trkpt lat="40.46876874" lon="-5.28400196"><ele>2523</ele><speed>7.71</speed><time>2016-07-01T12:05:52Z</time><pdop>9.0</pdop><geoidheight>54.00</geoidheight><course>267.8</course><type>1</type></trkpt>
      <trkpt lat="40.46865319" lon="-5.28425872"><ele>2525</ele><speed>7.43</speed><time>2016-07-01T12:05:55Z</time><pdop>10.0</pdop><geoidheight>54.00</geoidheight><course>235.8</course><type>1</type></trkpt>
      <trkpt lat="40.46839764" lon="-5.28433958"><ele>2527</ele><speed>8.72</speed><time>2016-07-01T12:05:58Z</time><pdop>11.0</pdop><geoidheight>54.00</geoidheight><course>197.9</course><type>1</type></trkpt>
      <trkpt lat="40.46808455" lon="-5.2842557"><ele>2533</ele><speed>10.75</speed><time>2016-07-01T12:06:01Z</time><pdop>10.0</pdop><geoidheight>54.00</geoidheight><course>162.7</course><type>1</type></trkpt>
      <trkpt lat="40.46788388" lon="-5.28412924"><ele>2536</ele><speed>11.55</speed><time>2016-07-01T12:06:03Z</time><pdop>11.0</pdop><geoidheight>54.00</geoidheight><course>153.3</course><type>1</type></trkpt>
      <trkpt lat="40.4677289" lon="-5.28387263"><ele>2537</ele><speed>11.96</speed><time>2016-07-01T12:06:05Z</time><pdop>11.0</pdop><geoidheight>54.00</geoidheight><course>135.0</course><type>1</type></trkpt>
      <trkpt lat="40.46775732" lon="-5.2835896"><ele>2536</ele><speed>10.32</speed><time>2016-07-01T12:06:07Z</time><pdop>13.0</pdop><geoidheight>54.00</geoidheight><course>107.1</course><type>1</type></trkpt>
      <trkpt lat="40.46801244" lon="-5.28323868"><ele>2541</ele><speed>12.41</speed><time>2016-07-01T12:06:09Z</time><pdop>13.0</pdop><geoidheight>54.00</geoidheight><course>64.6</course><type>1</type></trkpt>
      <trkpt lat="40.46821899" lon="-5.28300109"><ele>2543</ele><speed>12.34</speed><time>2016-07-01T12:06:11Z</time><pdop>12.0</pdop><geoidheight>54.00</geoidheight><course>47.9</course><type>1</type></trkpt>
      <trkpt lat="40.46848988" lon="-5.28294185"><ele>2547</ele><speed>11.30</speed><time>2016-07-01T12:06:13Z</time><pdop>10.0</pdop><geoidheight>54.00</geoidheight><course>12.8</course><type>1</type></trkpt>
      <trkpt lat="40.46867431" lon="-5.28297377"><ele>2550</ele><speed>10.14</speed><time>2016-07-01T12:06:15Z</time><pdop>10.0</pdop><geoidheight>54.00</geoidheight><course>353.1</course><type>1</type></trkpt>
      <trkpt lat="40.46880939" lon="-5.28312214"><ele>2552</ele><speed>6.64</speed><time>2016-07-01T12:06:18Z</time><pdop>9.0</pdop><geoidheight>54.00</geoidheight><course>290.9</course><type>1</type></trkpt>
      <trkpt lat="40.46873253" lon="-5.28338143"><ele>2553</ele><speed>7.48</speed><time>2016-07-01T12:06:21Z</time><pdop>9.0</pdop><geoidheight>54.00</geoidheight><course>240.1</course><type>1</type></trkpt>
      <trkpt lat="40.46855826" lon="-5.2835676"><ele>2555</ele><speed>7.88</speed><time>2016-07-01T12:06:24Z</time><pdop>10.0</pdop><geoidheight>54.00</geoidheight><course>216.2</course><type>1</type></trkpt>
      <trkpt lat="40.46836628" lon="-5.28363215"><ele>2556</ele><speed>9.32</speed><time>2016-07-01T12:06:26Z</time><pdop>10.0</pdop><geoidheight>54.00</geoidheight><course>201.0</course><type>1</type></trkpt>
      <trkpt lat="40.46812897" lon="-5.28367423"><ele>2561</ele><speed>8.12</speed><time>2016-07-01T12:06:29Z</time><pdop>10.0</pdop><geoidheight>54.00</geoidheight><course>175.7</course><type>1</type></trkpt>
      <trkpt lat="40.46800534" lon="-5.28348426"><ele>2564</ele><speed>9.22</speed><time>2016-07-01T12:06:31Z</time><pdop>10.0</pdop><geoidheight>54.00</geoidheight><course>138.2</course><type>1</type></trkpt>
      <trkpt lat="40.46791799" lon="-5.28325537"><ele>2565</ele><speed>9.34</speed><time>2016-07-01T12:06:33Z</time><pdop>11.0</pdop><geoidheight>54.00</geoidheight><course>118.0</course><type>1</type></trkpt>
      <trkpt lat="40.46796136" lon="-5.2828625"><ele>2568</ele><speed>9.93</speed><time>2016-07-01T12:06:36Z</time><pdop>13.0</pdop><geoidheight>54.00</geoidheight><course>86.7</course><type>1</type></trkpt>
      <trkpt lat="40.46816572" lon="-5.2825044"><ele>2571</ele><speed>12.31</speed><time>2016-07-01T12:06:38Z</time><pdop>12.0</pdop><geoidheight>54.00</geoidheight><course>65.8</course><type>1</type></trkpt>
      <trkpt lat="40.46843123" lon="-5.28256965"><ele>2572</ele><speed>9.71</speed><time>2016-07-01T12:06:40Z</time><pdop>11.0</pdop><geoidheight>54.00</geoidheight><course>19.2</course><type>1</type></trkpt>
      <trkpt lat="40.46874071" lon="-5.2827349"><ele>2572</ele><speed>12.95</speed><time>2016-07-01T12:06:42Z</time><pdop>12.0</pdop><geoidheight>54.00</geoidheight><course>351.5</course><type>1</type></trkpt>
      <trkpt lat="40.46880316" lon="-5.28308075"><ele>2574</ele><speed>8.61</speed><time>2016-07-01T12:06:45Z</time><pdop>10.0</pdop><geoidheight>54.00</geoidheight><course>301.6</course><type>1</type></trkpt>
      <trkpt lat="40.46863741" lon="-5.28331543"><ele>2576</ele><speed>6.22</speed><time>2016-07-01T12:06:48Z</time><pdop>11.0</pdop><geoidheight>54.00</geoidheight><course>235.3</course><type>1</type></trkpt>
      <trkpt lat="40.46837179" lon="-5.28322193"><ele>2577</ele><speed>9.95</speed><time>2016-07-01T12:06:50Z</time><pdop>10.0</pdop><geoidheight>54.00</geoidheight><course>170.7</course><type>1</type></trkpt>
      <trkpt lat="40.46820386" lon="-5.28310709"><ele>2579</ele><speed>9.85</speed><time>2016-07-01T12:06:52Z</time><pdop>10.0</pdop><geoidheight>54.00</geoidheight><course>145.7</course><type>1</type></trkpt>
      <trkpt lat="40.46807502" lon="-5.28292883"><ele>2583</ele><speed>9.52</speed><time>2016-07-01T12:06:54Z</time><pdop>10.0</pdop><geoidheight>54.00</geoidheight><course>134.0</course><type>1</type></trkpt>
      <trkpt lat="40.46805218" lon="-5.28257226"><ele>2587</ele><speed>8.91</speed><time>2016-07-01T12:06:57Z</time><pdop>13.0</pdop><geoidheight>54.00</geoidheight><course>94.2</course><type>1</type></trkpt>
      <trkpt lat="40.46822543" lon="-5.28207021"><ele>2592</ele><speed>13.19</speed><time>2016-07-01T12:07:00Z</time><pdop>15.0</pdop><geoidheight>54.00</geoidheight><course>69.0</course><type>1</type></trkpt>
      <trkpt lat="40.4684935" lon="-5.28198613"><ele>2596</ele><speed>11.75</speed><time>2016-07-01T12:07:02Z</time><pdop>13.0</pdop><geoidheight>54.00</geoidheight><course>38.8</course><type>1</type></trkpt>
      <trkpt lat="40.46871954" lon="-5.28207907"><ele>2600</ele><speed>9.14</speed><time>2016-07-01T12:07:04Z</time><pdop>11.0</pdop><geoidheight>54.00</geoidheight><course>358.6</course><type>1</type></trkpt>
      <trkpt lat="40.46889455" lon="-5.28218517"><ele>2603</ele><speed>8.50</speed><time>2016-07-01T12:07:06Z</time><pdop>10.0</pdop><geoidheight>54.00</geoidheight><course>336.1</course><type>1</type></trkpt>
      <trkpt lat="40.46898002" lon="-5.28245646"><ele>2605</ele><speed>8.45</speed><time>2016-07-01T12:07:09Z</time><pdop>10.0</pdop><geoidheight>54.00</geoidheight><course>272.4</course><type>1</type></trkpt>
      <trkpt lat="40.4688656" lon="-5.28266966"><ele>2608</ele><speed>6.58</speed><time>2016-07-01T12:07:12Z</time><pdop>10.0</pdop><geoidheight>54.00</geoidheight><course>217.7</course><type>1</type></trkpt>
      <trkpt lat="40.46865404" lon="-5.28266264"><ele>2610</ele><speed>7.55</speed><time>2016-07-01T12:07:15Z</time><pdop>10.0</pdop><geoidheight>54.00</geoidheight><course>170.0</course><type>1</type></trkpt>
      <trkpt lat="40.46848415" lon="-5.28259371"><ele>2612</ele><speed>8.88</speed><time>2016-07-01T12:07:17Z</time><pdop>9.0</pdop><geoidheight>54.00</geoidheight><course>171.0</course><type>1</type></trkpt>
      <trkpt lat="40.46831225" lon="-5.28255298"><ele>2610</ele><speed>9.40</speed><time>2016-07-01T12:07:19Z</time><pdop>10.0</pdop><geoidheight>54.00</geoidheight><course>170.6</course><type>1</type></trkpt>
      <trkpt lat="40.46814314" lon="-5.28250289"><ele>2611</ele><speed>9.46</speed><time>2016-07-01T12:07:21Z</time><pdop>9.0</pdop><geoidheight>54.00</geoidheight><course>166.6</course><type>1</type></trkpt>
      <trkpt lat="40.46796792" lon="-5.28236493"><ele>2614</ele><speed>10.63</speed><time>2016-07-01T12:07:23Z</time><pdop>10.0</pdop><geoidheight>54.00</geoidheight><course>148.3</course><type>1</type></trkpt>
      <trkpt lat="40.4678288" lon="-5.28219608"><ele>2616</ele><speed>10.28</speed><time>2016-07-01T12:07:25Z</time><pdop>10.0</pdop><geoidheight>54.00</geoidheight><course>133.0</course><type>1</type></trkpt>
      <trkpt lat="40.46776351" lon="-5.28188871"><ele>2621</ele><speed>8.79</speed><time>2016-07-01T12:07:28Z</time><pdop>11.0</pdop><geoidheight>54.00</geoidheight><course>101.5</course><type>1</type></trkpt>
      <trkpt lat="40.46791985" lon="-5.2815879"><ele>2589</ele><speed>12.00</speed><time>2016-07-01T12:07:30Z</time><pdop>12.0</pdop><geoidheight>54.00</geoidheight><course>60.3</course><type>1</type></trkpt>
      <trkpt lat="40.46812025" lon="-5.28142346"><ele>2603</ele><speed>11.48</speed><time>2016-07-01T12:07:32Z</time><pdop>11.0</pdop><geoidheight>54.00</geoidheight><course>44.9</course><type>1</type></trkpt>
      <trkpt lat="40.46834616" lon="-5.28135731"><ele>2612</ele><speed>11.05</speed><time>2016-07-01T12:07:34Z</time><pdop>12.0</pdop><geoidheight>54.00</geoidheight><course>27.0</course><type>1</type></trkpt>
      <trkpt lat="40.46857897" lon="-5.28145193"><ele>2614</ele><speed>10.66</speed><time>2016-07-01T12:07:36Z</time><pdop>12.0</pdop><geoidheight>54.00</geoidheight><course>359.1</course><type>1</type></trkpt>
      <trkpt lat="40.46855766" lon="-5.28179398"><ele>2620</ele><speed>8.44</speed><time>2016-07-01T12:07:38Z</time><pdop>10.0</pdop><geoidheight>54.00</geoidheight><course>278.0</course><type>1</type></trkpt>
      <trkpt lat="40.46846783" lon="-5.28208913"><ele>2624</ele><speed>8.19</speed><time>2016-07-01T12:07:41Z</time><pdop>10.0</pdop><geoidheight>54.00</geoidheight><course>253.2</course><type>1</type></trkpt>
      <trkpt lat="40.46819332" lon="-5.28209816"><ele>2629</ele><speed>8.83</speed><time>2016-07-01T12:07:44Z</time><pdop>10.0</pdop><geoidheight>54.00</geoidheight><course>171.5</course><type>1</type></trkpt>
      <trkpt lat="40.46803229" lon="-5.28197096"><ele>2630</ele><speed>9.87</speed><time>2016-07-01T12:07:46Z</time><pdop>10.0</pdop><geoidheight>54.00</geoidheight><course>145.2</course><type>1</type></trkpt>
      <trkpt lat="40.46789641" lon="-5.28167464"><ele>2633</ele><speed>8.96</speed><time>2016-07-01T12:07:49Z</time><pdop>12.0</pdop><geoidheight>54.00</geoidheight><course>113.7</course><type>1</type></trkpt>
      <trkpt lat="40.46798642" lon="-5.28130341"><ele>2635</ele><speed>10.45</speed><time>2016-07-01T12:07:52Z</time><pdop>13.0</pdop><geoidheight>54.00</geoidheight><course>76.3</course><type>1</type></trkpt>
      <trkpt lat="40.46816446" lon="-5.28103522"><ele>2637</ele><speed>11.97</speed><time>2016-07-01T12:07:54Z</time><pdop>16.0</pdop><geoidheight>54.00</geoidheight><course>61.0</course><type>1</type></trkpt>
      <trkpt lat="40.46836688" lon="-5.28071547"><ele>2640</ele><speed>13.71</speed><time>2016-07-01T12:07:56Z</time><pdop>13.0</pdop><geoidheight>54.00</geoidheight><course>56.2</course><type>1</type></trkpt>
      <trkpt lat="40.46857251" lon="-5.28060115"><ele>2644</ele><speed>11.28</speed><time>2016-07-01T12:07:58Z</time><pdop>10.0</pdop><geoidheight>54.00</geoidheight><course>30.6</course><type>1</type></trkpt>
      <trkpt lat="40.46875911" lon="-5.28051613"><ele>2646</ele><speed>10.19</speed><time>2016-07-01T12:08:00Z</time><pdop>10.0</pdop><geoidheight>54.00</geoidheight><course>13.7</course><type>1</type></trkpt>
      <trkpt lat="40.46899686" lon="-5.28054331"><ele>2648</ele><speed>7.99</speed><time>2016-07-01T12:08:03Z</time><pdop>9.0</pdop><geoidheight>54.00</geoidheight><course>340.4</course><type>1</type></trkpt>
      <trkpt lat="40.46911054" lon="-5.28078572"><ele>2647</ele><speed>8.70</speed><time>2016-07-01T12:08:06Z</time><pdop>9.0</pdop><geoidheight>54.00</geoidheight><course>286.8</course><type>1</type></trkpt>
      <trkpt lat="40.46904319" lon="-5.28105929"><ele>2650</ele><speed>7.97</speed><time>2016-07-01T12:08:09Z</time><pdop>9.0</pdop><geoidheight>54.00</geoidheight><course>242.8</course><type>1</type></trkpt>
      <trkpt lat="40.46891863" lon="-5.28121696"><ele>2649</ele><speed>9.29</speed><time>2016-07-01T12:08:11Z</time><pdop>9.0</pdop><geoidheight>54.00</geoidheight><course>220.1</course><type>1</type></trkpt>
      <trkpt lat="40.46869686" lon="-5.28137543"><ele>2446</ele><speed>8.77</speed><time>2016-07-01T12:08:14Z</time><pdop>10.0</pdop><geoidheight>54.00</geoidheight><course>200.6</course><type>1</type></trkpt>
      <trkpt lat="40.4684905" lon="-5.28128971"><ele>2546</ele><speed>9.90</speed><time>2016-07-01T12:08:16Z</time><pdop>10.0</pdop><geoidheight>54.00</geoidheight><course>167.0</course><type>1</type></trkpt>
      <trkpt lat="40.4682495" lon="-5.28118253"><ele>2617</ele><speed>9.63</speed><time>2016-07-01T12:08:19Z</time><pdop>10.0</pdop><geoidheight>54.00</geoidheight><course>156.9</course><type>1</type></trkpt>
      <trkpt lat="40.46802423" lon="-5.28100614"><ele>2640</ele><speed>9.75</speed><time>2016-07-01T12:08:22Z</time><pdop>9.0</pdop><geoidheight>54.00</geoidheight><course>143.4</course><type>1</type></trkpt>
      <trkpt lat="40.46785855" lon="-5.28076756"><ele>2644</ele><speed>9.39</speed><time>2016-07-01T12:08:25Z</time><pdop>10.0</pdop><geoidheight>54.00</geoidheight><course>129.8</course><type>1</type></trkpt>
      <trkpt lat="40.46785971" lon="-5.28042089"><ele>2648</ele><speed>12.81</speed><time>2016-07-01T12:08:27Z</time><pdop>9.0</pdop><geoidheight>54.00</geoidheight><course>95.3</course><type>1</type></trkpt>
      <trkpt lat="40.46782109" lon="-5.28009712"><ele>2652</ele><speed>12.70</speed><time>2016-07-01T12:08:29Z</time><pdop>9.0</pdop><geoidheight>54.00</geoidheight><course>97.5</course><type>1</type></trkpt>
      <trkpt lat="40.46775447" lon="-5.27985732"><ele>2654</ele><speed>11.57</speed><time>2016-07-01T12:08:31Z</time><pdop>9.0</pdop><geoidheight>54.00</geoidheight><course>109.8</course><type>1</type></trkpt>
      <trkpt lat="40.46759583" lon="-5.2796967"><ele>2656</ele><speed>11.33</speed><time>2016-07-01T12:08:33Z</time><pdop>9.0</pdop><geoidheight>54.00</geoidheight><course>139.9</course><type>1</type></trkpt>
      <trkpt lat="40.46740731" lon="-5.27962427"><ele>2656</ele><speed>11.10</speed><time>2016-07-01T12:08:35Z</time><pdop>10.0</pdop><geoidheight>54.00</geoidheight><course>159.8</course><type>1</type></trkpt>
      <trkpt lat="40.46722946" lon="-5.27974123"><ele>2655</ele><speed>10.90</speed><time>2016-07-01T12:08:37Z</time><pdop>10.0</pdop><geoidheight>54.00</geoidheight><course>191.2</course><type>1</type></trkpt>
      <trkpt lat="40.46729443" lon="-5.2800411"><ele>2657</ele><speed>9.01</speed><time>2016-07-01T12:08:39Z</time><pdop>9.0</pdop><geoidheight>54.00</geoidheight><course>263.2</course><type>1</type></trkpt>
      <trkpt lat="40.46741122" lon="-5.28025897"><ele>2658</ele><speed>9.38</speed><time>2016-07-01T12:08:41Z</time><pdop>10.0</pdop><geoidheight>54.00</geoidheight><course>300.0</course><type>1</type></trkpt>
      <trkpt lat="40.46759239" lon="-5.2803013"><ele>2664</ele><speed>9.74</speed><time>2016-07-01T12:08:43Z</time><pdop>9.0</pdop><geoidheight>54.00</geoidheight><course>347.8</course><type>1</type></trkpt>
      <trkpt lat="40.46778528" lon="-5.28026293"><ele>2665</ele><speed>11.39</speed><time>2016-07-01T12:08:45Z</time><pdop>10.0</pdop><geoidheight>54.00</geoidheight><course>9.8</course><type>1</type></trkpt>
      <trkpt lat="40.46786858" lon="-5.27994329"><ele>2666</ele><speed>8.84</speed><time>2016-07-01T12:08:48Z</time><pdop>10.0</pdop><geoidheight>54.00</geoidheight><course>71.0</course><type>1</type></trkpt>
      <trkpt lat="40.46779327" lon="-5.27970188"><ele>2669</ele><speed>8.69</speed><time>2016-07-01T12:08:50Z</time><pdop>10.0</pdop><geoidheight>54.00</geoidheight><course>101.8</course><type>1</type></trkpt>
      <trkpt lat="40.46761162" lon="-5.27957861"><ele>2669</ele><speed>9.44</speed><time>2016-07-01T12:08:52Z</time><pdop>10.0</pdop><geoidheight>54.00</geoidheight><course>145.2</course><type>1</type></trkpt>
      <trkpt lat="40.4674021" lon="-5.27949478"><ele>2670</ele><speed>10.62</speed><time>2016-07-01T12:08:54Z</time><pdop>10.0</pdop><geoidheight>54.00</geoidheight><course>164.6</course><type>1</type></trkpt>
      <trkpt lat="40.46722801" lon="-5.2795674"><ele>2672</ele><speed>10.94</speed><time>2016-07-01T12:08:56Z</time><pdop>10.0</pdop><geoidheight>54.00</geoidheight><course>194.3</course><type>1</type></trkpt>
      <trkpt lat="40.46720385" lon="-5.27984021"><ele>2674</ele><speed>9.83</speed><time>2016-07-01T12:08:58Z</time><pdop>10.0</pdop><geoidheight>54.00</geoidheight><course>244.1</course><type>1</type></trkpt>
      <trkpt lat="40.46722307" lon="-5.28017516"><ele>2679</ele><speed>9.63</speed><time>2016-07-01T12:09:01Z</time><pdop>10.0</pdop><geoidheight>54.00</geoidheight><course>281.1</course><type>1</type></trkpt>
      <trkpt lat="40.46745584" lon="-5.28026303"><ele>2680</ele><speed>9.01</speed><time>2016-07-01T12:09:04Z</time><pdop>10.0</pdop><geoidheight>54.00</geoidheight><course>353.0</course><type>1</type></trkpt>
      <trkpt lat="40.46765327" lon="-5.28015068"><ele>2679</ele><speed>11.08</speed><time>2016-07-01T12:09:06Z</time><pdop>10.0</pdop><geoidheight>54.00</geoidheight><course>20.9</course><type>1</type></trkpt>
      <trkpt lat="40.46777531" lon="-5.27982738"><ele>2681</ele><speed>11.14</speed><time>2016-07-01T12:09:09Z</time><pdop>10.0</pdop><geoidheight>54.00</geoidheight><course>60.6</course><type>1</type></trkpt>
      <trkpt lat="40.46777539" lon="-5.27955122"><ele>2683</ele><speed>11.06</speed><time>2016-07-01T12:09:11Z</time><pdop>9.0</pdop><geoidheight>54.00</geoidheight><course>87.8</course><type>1</type></trkpt>
      <trkpt lat="40.46772034" lon="-5.27930082"><ele>2683</ele><speed>10.55</speed><time>2016-07-01T12:09:13Z</time><pdop>10.0</pdop><geoidheight>54.00</geoidheight><course>100.8</course><type>1</type></trkpt>
      <trkpt lat="40.46757477" lon="-5.27912841"><ele>2686</ele><speed>10.19</speed><time>2016-07-01T12:09:15Z</time><pdop>9.0</pdop><geoidheight>54.00</geoidheight><course>142.4</course><type>1</type></trkpt>
      <trkpt lat="40.46741674" lon="-5.27905284"><ele>2688</ele><speed>10.65</speed><time>2016-07-01T12:09:17Z</time><pdop>9.0</pdop><geoidheight>54.00</geoidheight><course>160.8</course><type>1</type></trkpt>
      <trkpt lat="40.46722047" lon="-5.27905221"><ele>2688</ele><speed>10.98</speed><time>2016-07-01T12:09:19Z</time><pdop>9.0</pdop><geoidheight>54.00</geoidheight><course>183.2</course><type>1</type></trkpt>
      <trkpt lat="40.46708809" lon="-5.27920813"><ele>2687</ele><speed>10.50</speed><time>2016-07-01T12:09:21Z</time><pdop>10.0</pdop><geoidheight>54.00</geoidheight><course>226.0</course><type>1</type></trkpt>
      <trkpt lat="40.46706882" lon="-5.27945913"><ele>2686</ele><speed>10.57</speed><time>2016-07-01T12:09:23Z</time><pdop>9.0</pdop><geoidheight>54.00</geoidheight><course>266.0</course><type>1</type></trkpt>
      <trkpt lat="40.46712339" lon="-5.27968296"><ele>2686</ele><speed>9.95</speed><time>2016-07-01T12:09:25Z</time><pdop>9.0</pdop><geoidheight>54.00</geoidheight><course>289.6</course><type>1</type></trkpt>
      <trkpt lat="40.46729411" lon="-5.27978335"><ele>2686</ele><speed>9.50</speed><time>2016-07-01T12:09:27Z</time><pdop>9.0</pdop><geoidheight>54.00</geoidheight><course>329.8</course><type>1</type></trkpt>
      <trkpt lat="40.46747931" lon="-5.27971506"><ele>2685</ele><speed>9.28</speed><time>2016-07-01T12:09:29Z</time><pdop>9.0</pdop><geoidheight>54.00</geoidheight><course>2.3</course><type>1</type></trkpt>
      <trkpt lat="40.4676516" lon="-5.27966195"><ele>2685</ele><speed>9.92</speed><time>2016-07-01T12:09:31Z</time><pdop>10.0</pdop><geoidheight>54.00</geoidheight><course>14.0</course><type>1</type></trkpt>
      <trkpt lat="40.46785938" lon="-5.27943471"><ele>2687</ele><speed>9.94</speed><time>2016-07-01T12:09:34Z</time><pdop>10.0</pdop><geoidheight>54.00</geoidheight><course>30.4</course><type>1</type></trkpt>
      <trkpt lat="40.46805199" lon="-5.2792762"><ele>2688</ele><speed>8.38</speed><time>2016-07-01T12:09:37Z</time><pdop>11.0</pdop><geoidheight>54.00</geoidheight><course>32.4</course><type>1</type></trkpt>
      <trkpt lat="40.4681168" lon="-5.27893138"><ele>2687</ele><speed>9.79</speed><time>2016-07-01T12:09:40Z</time><pdop>11.0</pdop><geoidheight>54.00</geoidheight><course>80.9</course><type>1</type></trkpt>
      <trkpt lat="40.46794048" lon="-5.27863035"><ele>2688</ele><speed>10.02</speed><time>2016-07-01T12:09:43Z</time><pdop>9.0</pdop><geoidheight>54.00</geoidheight><course>133.6</course><type>1</type></trkpt>
      <trkpt lat="40.46778994" lon="-5.27851873"><ele>2691</ele><speed>10.30</speed><time>2016-07-01T12:09:45Z</time><pdop>9.0</pdop><geoidheight>54.00</geoidheight><course>154.9</course><type>1</type></trkpt>
      <trkpt lat="40.46762578" lon="-5.2784776"><ele>2691</ele><speed>9.67</speed><time>2016-07-01T12:09:47Z</time><pdop>9.0</pdop><geoidheight>54.00</geoidheight><course>173.8</course><type>1</type></trkpt>
      <trkpt lat="40.46745481" lon="-5.27849854"><ele>2689</ele><speed>9.15</speed><time>2016-07-01T12:09:49Z</time><pdop>10.0</pdop><geoidheight>54.00</geoidheight><course>186.4</course><type>1</type></trkpt>
      <trkpt lat="40.46727228" lon="-5.27866711"><ele>2687</ele><speed>9.69</speed><time>2016-07-01T12:09:52Z</time><pdop>10.0</pdop><geoidheight>54.00</geoidheight><course>217.3</course><type>1</type></trkpt>
      <trkpt lat="40.4671463" lon="-5.27884709"><ele>2687</ele><speed>10.55</speed><time>2016-07-01T12:09:54Z</time><pdop>9.0</pdop><geoidheight>54.00</geoidheight><course>228.0</course><type>1</type></trkpt>
      <trkpt lat="40.46709025" lon="-5.27905805"><ele>2685</ele><speed>9.17</speed><time>2016-07-01T12:09:56Z</time><pdop>9.0</pdop><geoidheight>54.00</geoidheight><course>257.0</course><type>1</type></trkpt>
      <trkpt lat="40.46714585" lon="-5.2792787"><ele>2683</ele><speed>10.06</speed><time>2016-07-01T12:09:58Z</time><pdop>3.0</pdop><geoidheight>54.00</geoidheight><course>289.9</course><type>1</type></trkpt>
      <trkpt lat="40.46718939" lon="-5.27939131"><ele>2684</ele><speed>10.29</speed><time>2016-07-01T12:09:59Z</time><pdop>3.0</pdop><geoidheight>54.00</geoidheight><course>294.1</course><type>1</type></trkpt>
      <trkpt lat="40.46726154" lon="-5.27947291"><ele>2512</ele><speed>9.74</speed><time>2016-07-01T12:10:00Z</time><pdop>3.0</pdop><geoidheight>54.00</geoidheight><course>310.1</course><type>1</type></trkpt>
      <trkpt lat="40.46733382" lon="-5.27951293"><ele>2557</ele><speed>9.35</speed><time>2016-07-01T12:10:01Z</time><pdop>3.0</pdop><geoidheight>54.00</geoidheight><course>319.5</course><type>1</type></trkpt>
      <trkpt lat="40.46740723" lon="-5.27956848"><ele>2604</ele><speed>9.36</speed><time>2016-07-01T12:10:02Z</time><pdop>3.0</pdop><geoidheight>54.00</geoidheight><course>323.4</course><type>1</type></trkpt>
      <trkpt lat="40.46747237" lon="-5.27962609"><ele>2623</ele><speed>9.15</speed><time>2016-07-01T12:10:03Z</time><pdop>3.0</pdop><geoidheight>54.00</geoidheight><course>325.5</course><type>1</type></trkpt>
      <trkpt lat="40.46753784" lon="-5.27969133"><ele>2630</ele><speed>8.86</speed><time>2016-07-01T12:10:04Z</time><pdop>3.0</pdop><geoidheight>54.00</geoidheight><course>325.9</course><type>1</type></trkpt>
      <trkpt lat="40.4676025" lon="-5.27976049"><ele>2639</ele><speed>8.94</speed><time>2016-07-01T12:10:05Z</time><pdop>3.0</pdop><geoidheight>54.00</geoidheight><course>324.7</course><type>1</type></trkpt>
      <trkpt lat="40.46768145" lon="-5.27980329"><ele>2649</ele><speed>9.19</speed><time>2016-07-01T12:10:06Z</time><pdop>3.0</pdop><geoidheight>54.00</geoidheight><course>332.1</course><type>1</type></trkpt>
      <trkpt lat="40.46775682" lon="-5.27984309"><ele>2652</ele><speed>9.48</speed><time>2016-07-01T12:10:07Z</time><pdop>3.0</pdop><geoidheight>54.00</geoidheight><course>335.2</course><type>1</type></trkpt>
      <trkpt lat="40.46784117" lon="-5.27988541"><ele>2657</ele><speed>9.67</speed><time>2016-07-01T12:10:08Z</time><pdop>3.0</pdop><geoidheight>54.00</geoidheight><course>336.5</course><type>1</type></trkpt>
      <trkpt lat="40.46791649" lon="-5.2799379"><ele>2660</ele><speed>9.37</speed><time>2016-07-01T12:10:09Z</time><pdop>3.0</pdop><geoidheight>54.00</geoidheight><course>334.0</course><type>1</type></trkpt>
      <trkpt lat="40.46799252" lon="-5.27997327"><ele>2662</ele><speed>9.09</speed><time>2016-07-01T12:10:10Z</time><pdop>3.0</pdop><geoidheight>54.00</geoidheight><course>336.7</course><type>1</type></trkpt>
      <trkpt lat="40.46805623" lon="-5.28000709"><ele>2659</ele><speed>8.25</speed><time>2016-07-01T12:10:11Z</time><pdop>4.0</pdop><geoidheight>54.00</geoidheight><course>338.3</course><type>1</type></trkpt>
      <trkpt lat="40.46817751" lon="-5.28005286"><ele>2661</ele><speed>7.68</speed><time>2016-07-01T12:10:13Z</time><pdop>4.0</pdop><geoidheight>54.00</geoidheight><course>344.2</course><type>1</type></trkpt>
      <trkpt lat="40.46825467" lon="-5.28004344"><ele>2657</ele><speed>8.42</speed><time>2016-07-01T12:10:14Z</time><pdop>4.0</pdop><geoidheight>54.00</geoidheight><course>355.6</course><type>1</type></trkpt>
      <trkpt lat="40.46833713" lon="-5.28004373"><ele>2657</ele><speed>8.59</speed><time>2016-07-01T12:10:15Z</time><pdop>4.0</pdop><geoidheight>54.00</geoidheight><course>356.2</course><type>1</type></trkpt>
      <trkpt lat="40.46843691" lon="-5.28002936"><ele>2656</ele><speed>9.83</speed><time>2016-07-01T12:10:16Z</time><pdop>5.0</pdop><geoidheight>54.00</geoidheight><course>358.9</course><type>1</type></trkpt>
      <trkpt lat="40.46854771" lon="-5.28004632"><ele>2657</ele><speed>10.85</speed><time>2016-07-01T12:10:17Z</time><pdop>4.0</pdop><geoidheight>54.00</geoidheight><course>354.0</course><type>1</type></trkpt>
      <trkpt lat="40.46864932" lon="-5.28005059"><ele>2656</ele><speed>10.83</speed><time>2016-07-01T12:10:18Z</time><pdop>4.0</pdop><geoidheight>54.00</geoidheight><course>354.8</course><type>1</type></trkpt>
      <trkpt lat="40.46875224" lon="-5.28006997"><ele>2655</ele><speed>11.08</speed><time>2016-07-01T12:10:19Z</time><pdop>3.0</pdop><geoidheight>54.00</geoidheight><course>350.7</course><type>1</type></trkpt>
      <trkpt lat="40.46885403" lon="-5.28008907"><ele>2653</ele><speed>11.00</speed><time>2016-07-01T12:10:20Z</time><pdop>3.0</pdop><geoidheight>54.00</geoidheight><course>349.1</course><type>1</type></trkpt>
      <trkpt lat="40.46894972" lon="-5.28011113"><ele>2651</ele><speed>10.78</speed><time>2016-07-01T12:10:21Z</time><pdop>4.0</pdop><geoidheight>54.00</geoidheight><course>348.5</course><type>1</type></trkpt>
      <trkpt lat="40.46904693" lon="-5.28013316"><ele>2651</ele><speed>10.57</speed><time>2016-07-01T12:10:22Z</time><pdop>3.0</pdop><geoidheight>54.00</geoidheight><course>349.3</course><type>1</type></trkpt>
      <trkpt lat="40.46914064" lon="-5.28015332"><ele>2651</ele><speed>10.46</speed><time>2016-07-01T12:10:23Z</time><pdop>3.0</pdop><geoidheight>54.00</geoidheight><course>346.9</course><type>1</type></trkpt>
      <trkpt lat="40.46923856" lon="-5.2801652"><ele>2648</ele><speed>10.72</speed><time>2016-07-01T12:10:24Z</time><pdop>3.0</pdop><geoidheight>54.00</geoidheight><course>348.7</course><type>1</type></trkpt>
      <trkpt lat="40.469335" lon="-5.28018618"><ele>2647</ele><speed>11.04</speed><time>2016-07-01T12:10:25Z</time><pdop>3.0</pdop><geoidheight>54.00</geoidheight><course>347.9</course><type>1</type></trkpt>
      <trkpt lat="40.46942941" lon="-5.28021904"><ele>2646</ele><speed>11.16</speed><time>2016-07-01T12:10:26Z</time><pdop>3.0</pdop><geoidheight>54.00</geoidheight><course>345.9</course><type>1</type></trkpt>
      <trkpt lat="40.46952186" lon="-5.280254"><ele>2645</ele><speed>11.07</speed><time>2016-07-01T12:10:27Z</time><pdop>3.0</pdop><geoidheight>54.00</geoidheight><course>343.4</course><type>1</type></trkpt>
      <trkpt lat="40.46961729" lon="-5.2802912"><ele>2644</ele><speed>10.82</speed><time>2016-07-01T12:10:28Z</time><pdop>3.0</pdop><geoidheight>54.00</geoidheight><course>342.6</course><type>1</type></trkpt>
      <trkpt lat="40.46971469" lon="-5.28032346"><ele>2644</ele><speed>10.91</speed><time>2016-07-01T12:10:29Z</time><pdop>3.0</pdop><geoidheight>54.00</geoidheight><course>344.3</course><type>1</type></trkpt>
      <trkpt lat="40.46981727" lon="-5.28035918"><ele>2642</ele><speed>11.24</speed><time>2016-07-01T12:10:30Z</time><pdop>3.0</pdop><geoidheight>54.00</geoidheight><course>345.3</course><type>1</type></trkpt>
      <trkpt lat="40.46992198" lon="-5.28039876"><ele>2642</ele><speed>11.45</speed><time>2016-07-01T12:10:31Z</time><pdop>3.0</pdop><geoidheight>54.00</geoidheight><course>343.9</course><type>1</type></trkpt>
      <trkpt lat="40.47002176" lon="-5.28043083"><ele>2641</ele><speed>11.41</speed><time>2016-07-01T12:10:32Z</time><pdop>3.0</pdop><geoidheight>54.00</geoidheight><course>345.9</course><type>1</type></trkpt>
      <trkpt lat="40.47011657" lon="-5.28045944"><ele>2642</ele><speed>10.69</speed><time>2016-07-01T12:10:33Z</time><pdop>3.0</pdop><geoidheight>54.00</geoidheight><course>348.7</course><type>1</type></trkpt>
      <trkpt lat="40.47020876" lon="-5.28046573"><ele>2642</ele><speed>10.06</speed><time>2016-07-01T12:10:34Z</time><pdop>3.0</pdop><geoidheight>54.00</geoidheight><course>355.5</course><type>1</type></trkpt>
      <trkpt lat="40.47030038" lon="-5.28047072"><ele>2641</ele><speed>9.92</speed><time>2016-07-01T12:10:35Z</time><pdop>3.0</pdop><geoidheight>54.00</geoidheight><course>356.2</course><type>1</type></trkpt>
      <trkpt lat="40.47038841" lon="-5.28047114"><ele>2639</ele><speed>9.82</speed><time>2016-07-01T12:10:36Z</time><pdop>3.0</pdop><geoidheight>54.00</geoidheight><course>357.3</course><type>1</type></trkpt>
      <trkpt lat="40.47048657" lon="-5.28048924"><ele>2638</ele><speed>10.55</speed><time>2016-07-01T12:10:37Z</time><pdop>3.0</pdop><geoidheight>54.00</geoidheight><course>356.4</course><type>1</type></trkpt>
      <trkpt lat="40.47058145" lon="-5.28048668"><ele>2638</ele><speed>11.07</speed><time>2016-07-01T12:10:38Z</time><pdop>3.0</pdop><geoidheight>54.00</geoidheight><course>357.4</course><type>1</type></trkpt>
      <trkpt lat="40.4707018" lon="-5.28048197"><ele>2636</ele><speed>12.18</speed><time>2016-07-01T12:10:39Z</time><pdop>4.0</pdop><geoidheight>54.00</geoidheight><course>358.0</course><type>1</type></trkpt>
      <trkpt lat="40.47084306" lon="-5.28047714"><ele>2634</ele><speed>13.59</speed><time>2016-07-01T12:10:40Z</time><pdop>3.0</pdop><geoidheight>54.00</geoidheight><course>358.4</course><type>1</type></trkpt>
      <trkpt lat="40.47097112" lon="-5.2804993"><ele>2632</ele><speed>13.78</speed><time>2016-07-01T12:10:41Z</time><pdop>3.0</pdop><geoidheight>54.00</geoidheight><course>355.4</course><type>1</type></trkpt>
      <trkpt lat="40.47109573" lon="-5.28051867"><ele>2632</ele><speed>13.62</speed><time>2016-07-01T12:10:42Z</time><pdop>3.0</pdop><geoidheight>54.00</geoidheight><course>355.1</course><type>1</type></trkpt>
      <trkpt lat="40.47120505" lon="-5.28052041"><ele>2630</ele><speed>13.22</speed><time>2016-07-01T12:10:43Z</time><pdop>3.0</pdop><geoidheight>54.00</geoidheight><course>358.1</course><type>1</type></trkpt>
      <trkpt lat="40.47129767" lon="-5.28053308"><ele>2628</ele><speed>12.17</speed><time>2016-07-01T12:10:44Z</time><pdop>5.0</pdop><geoidheight>54.00</geoidheight><course>357.2</course><type>1</type></trkpt>
      <trkpt lat="40.4714296" lon="-5.28054865"><ele>2628</ele><speed>13.21</speed><time>2016-07-01T12:10:45Z</time><pdop>4.0</pdop><geoidheight>54.00</geoidheight><course>355.5</course><type>1</type></trkpt>
      <trkpt lat="40.47156604" lon="-5.28052761"><ele>2626</ele><speed>13.64</speed><time>2016-07-01T12:10:46Z</time><pdop>4.0</pdop><geoidheight>54.00</geoidheight><course>357.3</course><type>1</type></trkpt>
      <trkpt lat="40.47169394" lon="-5.28056025"><ele>2623</ele><speed>13.88</speed><time>2016-07-01T12:10:47Z</time><pdop>3.0</pdop><geoidheight>54.00</geoidheight><course>352.8</course><type>1</type></trkpt>
      <trkpt lat="40.47181737" lon="-5.28058141"><ele>2621</ele><speed>14.04</speed><time>2016-07-01T12:10:48Z</time><pdop>3.0</pdop><geoidheight>54.00</geoidheight><course>353.1</course><type>1</type></trkpt>
      <trkpt lat="40.47193826" lon="-5.28060248"><ele>2619</ele><speed>13.59</speed><time>2016-07-01T12:10:49Z</time><pdop>3.0</pdop><geoidheight>54.00</geoidheight><course>352.5</course><type>1</type></trkpt>
      <trkpt lat="40.47206572" lon="-5.28062556"><ele>2616</ele><speed>13.25</speed><time>2016-07-01T12:10:50Z</time><pdop>3.0</pdop><geoidheight>54.00</geoidheight><course>352.0</course><type>1</type></trkpt>
      <trkpt lat="40.47218213" lon="-5.2806546"><ele>2614</ele><speed>12.96</speed><time>2016-07-01T12:10:51Z</time><pdop>3.0</pdop><geoidheight>54.00</geoidheight><course>350.8</course><type>1</type></trkpt>
      <trkpt lat="40.47229796" lon="-5.28067389"><ele>2610</ele><speed>12.99</speed><time>2016-07-01T12:10:52Z</time><pdop>3.0</pdop><geoidheight>54.00</geoidheight><course>351.9</course><type>1</type></trkpt>
      <trkpt lat="40.47241451" lon="-5.28068996"><ele>2609</ele><speed>12.88</speed><time>2016-07-01T12:10:53Z</time><pdop>3.0</pdop><geoidheight>54.00</geoidheight><course>354.6</course><type>1</type></trkpt>
      <trkpt lat="40.47252925" lon="-5.28069435"><ele>2608</ele><speed>12.98</speed><time>2016-07-01T12:10:54Z</time><pdop>3.0</pdop><geoidheight>54.00</geoidheight><course>358.2</course><type>1</type></trkpt>
      <trkpt lat="40.47264238" lon="-5.28068604"><ele>2606</ele><speed>13.03</speed><time>2016-07-01T12:10:55Z</time><pdop>3.0</pdop><geoidheight>54.00</geoidheight><course>0.4</course><type>1</type></trkpt>
      <trkpt lat="40.47276001" lon="-5.28068256"><ele>2604</ele><speed>12.86</speed><time>2016-07-01T12:10:56Z</time><pdop>4.0</pdop><geoidheight>54.00</geoidheight><course>359.8</course><type>1</type></trkpt>
      <trkpt lat="40.47288235" lon="-5.28068824"><ele>2602</ele><speed>12.96</speed><time>2016-07-01T12:10:57Z</time><pdop>5.0</pdop><geoidheight>54.00</geoidheight><course>358.1</course><type>1</type></trkpt>
      <trkpt lat="40.47299364" lon="-5.2807094"><ele>2601</ele><speed>12.79</speed><time>2016-07-01T12:10:58Z</time><pdop>5.0</pdop><geoidheight>54.00</geoidheight><course>355.0</course><type>1</type></trkpt>
      <trkpt lat="40.47322613" lon="-5.28077614"><ele>2594</ele><speed>12.74</speed><time>2016-07-01T12:11:00Z</time><pdop>9.0</pdop><geoidheight>54.00</geoidheight><course>348.0</course><type>1</type></trkpt>
      <trkpt lat="40.47344793" lon="-5.28084909"><ele>2590</ele><speed>13.17</speed><time>2016-07-01T12:11:02Z</time><pdop>9.0</pdop><geoidheight>54.00</geoidheight><course>344.4</course><type>1</type></trkpt>
      <trkpt lat="40.47369644" lon="-5.28091665"><ele>2589</ele><speed>13.43</speed><time>2016-07-01T12:11:04Z</time><pdop>10.0</pdop><geoidheight>54.00</geoidheight><course>349.3</course><type>1</type></trkpt>
      <trkpt lat="40.47393949" lon="-5.28092474"><ele>2586</ele><speed>13.63</speed><time>2016-07-01T12:11:06Z</time><pdop>10.0</pdop><geoidheight>54.00</geoidheight><course>355.2</course><type>1</type></trkpt>
      <trkpt lat="40.47418977" lon="-5.28093798"><ele>2584</ele><speed>13.63</speed><time>2016-07-01T12:11:08Z</time><pdop>10.0</pdop><geoidheight>54.00</geoidheight><course>356.9</course><type>1</type></trkpt>
      <trkpt lat="40.47438949" lon="-5.28087497"><ele>2582</ele><speed>12.35</speed><time>2016-07-01T12:11:10Z</time><pdop>11.0</pdop><geoidheight>54.00</geoidheight><course>9.2</course><type>1</type></trkpt>
      <trkpt lat="40.47466135" lon="-5.28079275"><ele>2579</ele><speed>14.16</speed><time>2016-07-01T12:11:12Z</time><pdop>12.0</pdop><geoidheight>54.00</geoidheight><course>13.9</course><type>1</type></trkpt>
      <trkpt lat="40.47515327" lon="-5.28057463"><ele>2309</ele><speed>14.55</speed><time>2016-07-01T12:11:16Z</time><pdop>10.0</pdop><geoidheight>54.00</geoidheight><course>22.9</course><type>1</type></trkpt>
      <trkpt lat="40.47536297" lon="-5.28047226"><ele>2420</ele><speed>13.94</speed><time>2016-07-01T12:11:18Z</time><pdop>9.0</pdop><geoidheight>54.00</geoidheight><course>23.5</course><type>1</type></trkpt>
      <trkpt lat="40.47560195" lon="-5.28035858"><ele>2476</ele><speed>13.65</speed><time>2016-07-01T12:11:20Z</time><pdop>9.0</pdop><geoidheight>54.00</geoidheight><course>22.6</course><type>1</type></trkpt>
      <trkpt lat="40.47579957" lon="-5.28027403"><ele>2503</ele><speed>12.65</speed><time>2016-07-01T12:11:22Z</time><pdop>9.0</pdop><geoidheight>54.00</geoidheight><course>18.3</course><type>1</type></trkpt>
      <trkpt lat="40.47601977" lon="-5.28020448"><ele>2502</ele><speed>12.63</speed><time>2016-07-01T12:11:24Z</time><pdop>10.0</pdop><geoidheight>54.00</geoidheight><course>12.8</course><type>1</type></trkpt>
      <trkpt lat="40.47624929" lon="-5.28018943"><ele>2500</ele><speed>13.03</speed><time>2016-07-01T12:11:26Z</time><pdop>12.0</pdop><geoidheight>54.00</geoidheight><course>4.3</course><type>1</type></trkpt>
      <trkpt lat="40.47648212" lon="-5.28028911"><ele>2516</ele><speed>13.07</speed><time>2016-07-01T12:11:28Z</time><pdop>10.0</pdop><geoidheight>54.00</geoidheight><course>351.1</course><type>1</type></trkpt>
      <trkpt lat="40.47673634" lon="-5.28033955"><ele>2518</ele><speed>12.93</speed><time>2016-07-01T12:11:30Z</time><pdop>10.0</pdop><geoidheight>54.00</geoidheight><course>350.3</course><type>1</type></trkpt>
      <trkpt lat="40.47693662" lon="-5.28041681"><ele>2520</ele><speed>11.90</speed><time>2016-07-01T12:11:32Z</time><pdop>9.0</pdop><geoidheight>54.00</geoidheight><course>344.4</course><type>1</type></trkpt>
      <trkpt lat="40.47715346" lon="-5.28051405"><ele>2522</ele><speed>12.48</speed><time>2016-07-01T12:11:34Z</time><pdop>9.0</pdop><geoidheight>54.00</geoidheight><course>343.0</course><type>1</type></trkpt>
      <trkpt lat="40.47739945" lon="-5.28062118"><ele>2518</ele><speed>14.14</speed><time>2016-07-01T12:11:36Z</time><pdop>9.0</pdop><geoidheight>54.00</geoidheight><course>344.0</course><type>1</type></trkpt>
      <trkpt lat="40.47766109" lon="-5.28067874"><ele>2516</ele><speed>14.20</speed><time>2016-07-01T12:11:38Z</time><pdop>9.0</pdop><geoidheight>54.00</geoidheight><course>349.2</course><type>1</type></trkpt>
      <trkpt lat="40.47790428" lon="-5.28071338"><ele>2517</ele><speed>13.78</speed><time>2016-07-01T12:11:40Z</time><pdop>10.0</pdop><geoidheight>54.00</geoidheight><course>354.6</course><type>1</type></trkpt>
      <trkpt lat="40.47822667" lon="-5.28073249"><ele>2514</ele><speed>12.83</speed><time>2016-07-01T12:11:43Z</time><pdop>11.0</pdop><geoidheight>54.00</geoidheight><course>357.9</course><type>1</type></trkpt>
      <trkpt lat="40.47851704" lon="-5.28070986"><ele>2509</ele><speed>14.81</speed><time>2016-07-01T12:11:45Z</time><pdop>12.0</pdop><geoidheight>54.00</geoidheight><course>2.2</course><type>1</type></trkpt>
      <trkpt lat="40.47878612" lon="-5.28063998"><ele>2508</ele><speed>15.22</speed><time>2016-07-01T12:11:47Z</time><pdop>11.0</pdop><geoidheight>54.00</geoidheight><course>7.1</course><type>1</type></trkpt>
      <trkpt lat="40.47901199" lon="-5.28060696"><ele>2505</ele><speed>13.22</speed><time>2016-07-01T12:11:49Z</time><pdop>10.0</pdop><geoidheight>54.00</geoidheight><course>4.2</course><type>1</type></trkpt>
      <trkpt lat="40.47921467" lon="-5.28066196"><ele>2499</ele><speed>11.90</speed><time>2016-07-01T12:11:51Z</time><pdop>10.0</pdop><geoidheight>54.00</geoidheight><course>352.1</course><type>1</type></trkpt>
      <trkpt lat="40.47942238" lon="-5.28074386"><ele>2493</ele><speed>11.83</speed><time>2016-07-01T12:11:53Z</time><pdop>10.0</pdop><geoidheight>54.00</geoidheight><course>343.7</course><type>1</type></trkpt>
      <trkpt lat="40.47963265" lon="-5.28085693"><ele>2492</ele><speed>12.29</speed><time>2016-07-01T12:11:55Z</time><pdop>10.0</pdop><geoidheight>54.00</geoidheight><course>339.8</course><type>1</type></trkpt>
      <trkpt lat="40.47986984" lon="-5.28091037"><ele>2485</ele><speed>12.74</speed><time>2016-07-01T12:11:57Z</time><pdop>11.0</pdop><geoidheight>54.00</geoidheight><course>347.0</course><type>1</type></trkpt>
      <trkpt lat="40.48013374" lon="-5.28109982"><ele>2481</ele><speed>11.60</speed><time>2016-07-01T12:12:00Z</time><pdop>10.0</pdop><geoidheight>54.00</geoidheight><course>340.6</course><type>1</type></trkpt>
      <trkpt lat="40.4803523" lon="-5.28122803"><ele>2478</ele><speed>12.73</speed><time>2016-07-01T12:12:02Z</time><pdop>11.0</pdop><geoidheight>54.00</geoidheight><course>339.3</course><type>1</type></trkpt>
      <trkpt lat="40.48054347" lon="-5.28131956"><ele>2474</ele><speed>12.10</speed><time>2016-07-01T12:12:04Z</time><pdop>11.0</pdop><geoidheight>54.00</geoidheight><course>340.7</course><type>1</type></trkpt>
      <trkpt lat="40.48083515" lon="-5.28149645"><ele>2469</ele><speed>12.21</speed><time>2016-07-01T12:12:07Z</time><pdop>11.0</pdop><geoidheight>54.00</geoidheight><course>334.1</course><type>1</type></trkpt>
      <trkpt lat="40.48095554" lon="-5.28174214"><ele>2467</ele><speed>11.57</speed><time>2016-07-01T12:12:09Z</time><pdop>11.0</pdop><geoidheight>54.00</geoidheight><course>312.0</course><type>1</type></trkpt>
      <trkpt lat="40.48104084" lon="-5.28203722"><ele>2465</ele><speed>11.97</speed><time>2016-07-01T12:12:11Z</time><pdop>10.0</pdop><geoidheight>54.00</geoidheight><course>299.4</course><type>1</type></trkpt>
      <trkpt lat="40.48115605" lon="-5.28227032"><ele>2461</ele><speed>12.32</speed><time>2016-07-01T12:12:13Z</time><pdop>10.0</pdop><geoidheight>54.00</geoidheight><course>300.3</course><type>1</type></trkpt>
      <trkpt lat="40.48125542" lon="-5.28253801"><ele>2459</ele><speed>12.15</speed><time>2016-07-01T12:12:15Z</time><pdop>9.0</pdop><geoidheight>54.00</geoidheight><course>298.6</course><type>1</type></trkpt>
      <trkpt lat="40.48137523" lon="-5.28276344"><ele>2454</ele><speed>11.48</speed><time>2016-07-01T12:12:17Z</time><pdop>9.0</pdop><geoidheight>54.00</geoidheight><course>303.3</course><type>1</type></trkpt>
      <trkpt lat="40.48148262" lon="-5.28300093"><ele>2449</ele><speed>11.72</speed><time>2016-07-01T12:12:19Z</time><pdop>3.0</pdop><geoidheight>54.00</geoidheight><course>299.1</course><type>1</type></trkpt>
      <trkpt lat="40.48153318" lon="-5.28312092"><ele>2447</ele><speed>12.07</speed><time>2016-07-01T12:12:20Z</time><pdop>3.0</pdop><geoidheight>54.00</geoidheight><course>297.4</course><type>1</type></trkpt>
      <trkpt lat="40.48158797" lon="-5.28324157"><ele>2444</ele><speed>12.06</speed><time>2016-07-01T12:12:21Z</time><pdop>3.0</pdop><geoidheight>54.00</geoidheight><course>299.0</course><type>1</type></trkpt>
      <trkpt lat="40.48164626" lon="-5.28335303"><ele>2442</ele><speed>12.04</speed><time>2016-07-01T12:12:22Z</time><pdop>4.0</pdop><geoidheight>54.00</geoidheight><course>300.3</course><type>1</type></trkpt>
      <trkpt lat="40.48170848" lon="-5.28347342"><ele>2440</ele><speed>12.09</speed><time>2016-07-01T12:12:23Z</time><pdop>4.0</pdop><geoidheight>54.00</geoidheight><course>302.5</course><type>1</type></trkpt>
      <trkpt lat="40.48177243" lon="-5.28360513"><ele>2438</ele><speed>12.65</speed><time>2016-07-01T12:12:24Z</time><pdop>4.0</pdop><geoidheight>54.00</geoidheight><course>302.7</course><type>1</type></trkpt>
      <trkpt lat="40.48184191" lon="-5.28371569"><ele>2437</ele><speed>12.48</speed><time>2016-07-01T12:12:25Z</time><pdop>3.0</pdop><geoidheight>54.00</geoidheight><course>302.8</course><type>1</type></trkpt>
      <trkpt lat="40.48190275" lon="-5.28383837"><ele>2435</ele><speed>12.37</speed><time>2016-07-01T12:12:26Z</time><pdop>4.0</pdop><geoidheight>54.00</geoidheight><course>302.1</course><type>1</type></trkpt>
      <trkpt lat="40.48195076" lon="-5.2839631"><ele>2435</ele><speed>12.14</speed><time>2016-07-01T12:12:27Z</time><pdop>4.0</pdop><geoidheight>54.00</geoidheight><course>298.7</course><type>1</type></trkpt>
      <trkpt lat="40.48200005" lon="-5.28410166"><ele>2434</ele><speed>12.26</speed><time>2016-07-01T12:12:28Z</time><pdop>4.0</pdop><geoidheight>54.00</geoidheight><course>296.4</course><type>1</type></trkpt>
      <trkpt lat="40.48205263" lon="-5.2842466"><ele>2432</ele><speed>12.61</speed><time>2016-07-01T12:12:29Z</time><pdop>4.0</pdop><geoidheight>54.00</geoidheight><course>295.5</course><type>1</type></trkpt>
      <trkpt lat="40.48209359" lon="-5.28438105"><ele>2432</ele><speed>12.84</speed><time>2016-07-01T12:12:30Z</time><pdop>4.0</pdop><geoidheight>54.00</geoidheight><course>295.5</course><type>1</type></trkpt>
      <trkpt lat="40.48213735" lon="-5.28451269"><ele>2430</ele><speed>12.67</speed><time>2016-07-01T12:12:31Z</time><pdop>4.0</pdop><geoidheight>54.00</geoidheight><course>295.9</course><type>1</type></trkpt>
      <trkpt lat="40.4821934" lon="-5.28463646"><ele>2430</ele><speed>12.12</speed><time>2016-07-01T12:12:32Z</time><pdop>4.0</pdop><geoidheight>54.00</geoidheight><course>296.8</course><type>1</type></trkpt>
      <trkpt lat="40.48224596" lon="-5.28475049"><ele>2428</ele><speed>11.65</speed><time>2016-07-01T12:12:33Z</time><pdop>4.0</pdop><geoidheight>54.00</geoidheight><course>298.3</course><type>1</type></trkpt>
      <trkpt lat="40.48230187" lon="-5.28487133"><ele>2427</ele><speed>11.43</speed><time>2016-07-01T12:12:34Z</time><pdop>4.0</pdop><geoidheight>54.00</geoidheight><course>300.2</course><type>1</type></trkpt>
      <trkpt lat="40.48236501" lon="-5.28497943"><ele>2424</ele><speed>11.47</speed><time>2016-07-01T12:12:35Z</time><pdop>4.0</pdop><geoidheight>54.00</geoidheight><course>300.3</course><type>1</type></trkpt>
      <trkpt lat="40.48242459" lon="-5.28510584"><ele>2423</ele><speed>12.11</speed><time>2016-07-01T12:12:36Z</time><pdop>4.0</pdop><geoidheight>54.00</geoidheight><course>302.2</course><type>1</type></trkpt>
      <trkpt lat="40.48250432" lon="-5.28521529"><ele>2420</ele><speed>12.95</speed><time>2016-07-01T12:12:37Z</time><pdop>3.0</pdop><geoidheight>54.00</geoidheight><course>306.2</course><type>1</type></trkpt>
      <trkpt lat="40.48259866" lon="-5.28530813"><ele>2415</ele><speed>13.17</speed><time>2016-07-01T12:12:38Z</time><pdop>3.0</pdop><geoidheight>54.00</geoidheight><course>309.4</course><type>1</type></trkpt>
      <trkpt lat="40.48267517" lon="-5.28542057"><ele>2413</ele><speed>12.89</speed><time>2016-07-01T12:12:39Z</time><pdop>3.0</pdop><geoidheight>54.00</geoidheight><course>310.4</course><type>1</type></trkpt>
      <trkpt lat="40.48274894" lon="-5.28553026"><ele>2410</ele><speed>12.40</speed><time>2016-07-01T12:12:40Z</time><pdop>3.0</pdop><geoidheight>54.00</geoidheight><course>310.6</course><type>1</type></trkpt>
      <trkpt lat="40.48282862" lon="-5.28562834"><ele>2408</ele><speed>12.05</speed><time>2016-07-01T12:12:41Z</time><pdop>3.0</pdop><geoidheight>54.00</geoidheight><course>311.8</course><type>1</type></trkpt>
      <trkpt lat="40.48290419" lon="-5.2857276"><ele>2406</ele><speed>11.78</speed><time>2016-07-01T12:12:42Z</time><pdop>4.0</pdop><geoidheight>54.00</geoidheight><course>314.2</course><type>1</type></trkpt>
      <trkpt lat="40.48297867" lon="-5.28583556"><ele>2405</ele><speed>12.11</speed><time>2016-07-01T12:12:43Z</time><pdop>4.0</pdop><geoidheight>54.00</geoidheight><course>314.0</course><type>1</type></trkpt>
      <trkpt lat="40.48305696" lon="-5.28593303"><ele>2404</ele><speed>12.01</speed><time>2016-07-01T12:12:44Z</time><pdop>4.0</pdop><geoidheight>54.00</geoidheight><course>313.1</course><type>1</type></trkpt>
      <trkpt lat="40.48311757" lon="-5.2860481"><ele>2403</ele><speed>11.94</speed><time>2016-07-01T12:12:45Z</time><pdop>4.0</pdop><geoidheight>54.00</geoidheight><course>309.3</course><type>1</type></trkpt>
      <trkpt lat="40.48317807" lon="-5.28617529"><ele>2402</ele><speed>11.92</speed><time>2016-07-01T12:12:46Z</time><pdop>4.0</pdop><geoidheight>54.00</geoidheight><course>307.0</course><type>1</type></trkpt>
      <trkpt lat="40.48324098" lon="-5.28625321"><ele>2402</ele><speed>11.54</speed><time>2016-07-01T12:12:47Z</time><pdop>5.0</pdop><geoidheight>54.00</geoidheight><course>309.5</course><type>1</type></trkpt>
      <trkpt lat="40.48331172" lon="-5.28637257"><ele>2401</ele><speed>11.76</speed><time>2016-07-01T12:12:48Z</time><pdop>4.0</pdop><geoidheight>54.00</geoidheight><course>310.2</course><type>1</type></trkpt>
      <trkpt lat="40.48339474" lon="-5.28645284"><ele>2396</ele><speed>11.66</speed><time>2016-07-01T12:12:49Z</time><pdop>4.0</pdop><geoidheight>54.00</geoidheight><course>313.2</course><type>1</type></trkpt>
      <trkpt lat="40.48347239" lon="-5.28657023"><ele>2395</ele><speed>12.20</speed><time>2016-07-01T12:12:50Z</time><pdop>5.0</pdop><geoidheight>54.00</geoidheight><course>312.3</course><type>1</type></trkpt>
      <trkpt lat="40.48354895" lon="-5.28666447"><ele>2394</ele><speed>12.35</speed><time>2016-07-01T12:12:51Z</time><pdop>5.0</pdop><geoidheight>54.00</geoidheight><course>312.3</course><type>1</type></trkpt>
      <trkpt lat="40.48361981" lon="-5.28680775"><ele>2391</ele><speed>13.01</speed><time>2016-07-01T12:12:52Z</time><pdop>4.0</pdop><geoidheight>54.00</geoidheight><course>307.6</course><type>1</type></trkpt>
      <trkpt lat="40.48368383" lon="-5.28692436"><ele>2391</ele><speed>12.51</speed><time>2016-07-01T12:12:53Z</time><pdop>4.0</pdop><geoidheight>54.00</geoidheight><course>303.8</course><type>1</type></trkpt>
      <trkpt lat="40.4837363" lon="-5.28705662"><ele>2390</ele><speed>12.02</speed><time>2016-07-01T12:12:54Z</time><pdop>4.0</pdop><geoidheight>54.00</geoidheight><course>300.6</course><type>1</type></trkpt>
      <trkpt lat="40.48379252" lon="-5.28718581"><ele>2389</ele><speed>11.91</speed><time>2016-07-01T12:12:55Z</time><pdop>4.0</pdop><geoidheight>54.00</geoidheight><course>300.0</course><type>1</type></trkpt>
      <trkpt lat="40.48384885" lon="-5.28729963"><ele>2388</ele><speed>11.58</speed><time>2016-07-01T12:12:56Z</time><pdop>4.0</pdop><geoidheight>54.00</geoidheight><course>299.9</course><type>1</type></trkpt>
      <trkpt lat="40.48390545" lon="-5.28741567"><ele>2385</ele><speed>11.70</speed><time>2016-07-01T12:12:57Z</time><pdop>4.0</pdop><geoidheight>54.00</geoidheight><course>299.9</course><type>1</type></trkpt>
      <trkpt lat="40.48395529" lon="-5.28754339"><ele>2384</ele><speed>12.19</speed><time>2016-07-01T12:12:58Z</time><pdop>4.0</pdop><geoidheight>54.00</geoidheight><course>299.1</course><type>1</type></trkpt>
      <trkpt lat="40.48401294" lon="-5.28766355"><ele>2384</ele><speed>12.33</speed><time>2016-07-01T12:12:59Z</time><pdop>4.0</pdop><geoidheight>54.00</geoidheight><course>300.0</course><type>1</type></trkpt>
      <trkpt lat="40.48407335" lon="-5.28778203"><ele>2382</ele><speed>12.26</speed><time>2016-07-01T12:13:00Z</time><pdop>4.0</pdop><geoidheight>54.00</geoidheight><course>301.4</course><type>1</type></trkpt>
      <trkpt lat="40.4841344" lon="-5.28791165"><ele>2381</ele><speed>12.38</speed><time>2016-07-01T12:13:01Z</time><pdop>5.0</pdop><geoidheight>54.00</geoidheight><course>301.7</course><type>1</type></trkpt>
      <trkpt lat="40.4841912" lon="-5.28803119"><ele>2379</ele><speed>12.30</speed><time>2016-07-01T12:13:02Z</time><pdop>5.0</pdop><geoidheight>54.00</geoidheight><course>302.8</course><type>1</type></trkpt>
      <trkpt lat="40.48426065" lon="-5.28812927"><ele>2376</ele><speed>12.10</speed><time>2016-07-01T12:13:03Z</time><pdop>5.0</pdop><geoidheight>54.00</geoidheight><course>305.0</course><type>1</type></trkpt>
      <trkpt lat="40.48433568" lon="-5.28822643"><ele>2372</ele><speed>12.06</speed><time>2016-07-01T12:13:04Z</time><pdop>5.0</pdop><geoidheight>54.00</geoidheight><course>307.6</course><type>1</type></trkpt>
      <trkpt lat="40.48440099" lon="-5.28835775"><ele>2371</ele><speed>12.51</speed><time>2016-07-01T12:13:05Z</time><pdop>5.0</pdop><geoidheight>54.00</geoidheight><course>307.4</course><type>1</type></trkpt>
      <trkpt lat="40.48447689" lon="-5.28845295"><ele>2369</ele><speed>12.11</speed><time>2016-07-01T12:13:06Z</time><pdop>4.0</pdop><geoidheight>54.00</geoidheight><course>308.7</course><type>1</type></trkpt>
      <trkpt lat="40.48453707" lon="-5.28857524"><ele>2368</ele><speed>11.80</speed><time>2016-07-01T12:13:07Z</time><pdop>4.0</pdop><geoidheight>54.00</geoidheight><course>306.5</course><type>1</type></trkpt>
      <trkpt lat="40.48461425" lon="-5.28865378"><ele>2362</ele><speed>11.66</speed><time>2016-07-01T12:13:08Z</time><pdop>4.0</pdop><geoidheight>54.00</geoidheight><course>308.3</course><type>1</type></trkpt>
      <trkpt lat="40.48468605" lon="-5.28875149"><ele>2359</ele><speed>12.05</speed><time>2016-07-01T12:13:09Z</time><pdop>4.0</pdop><geoidheight>54.00</geoidheight><course>308.7</course><type>1</type></trkpt>
      <trkpt lat="40.48476751" lon="-5.28886156"><ele>2356</ele><speed>12.46</speed><time>2016-07-01T12:13:10Z</time><pdop>3.0</pdop><geoidheight>54.00</geoidheight><course>310.7</course><type>1</type></trkpt>
      <trkpt lat="40.4848358" lon="-5.28897856"><ele>2354</ele><speed>12.84</speed><time>2016-07-01T12:13:11Z</time><pdop>4.0</pdop><geoidheight>54.00</geoidheight><course>309.5</course><type>1</type></trkpt>
      <trkpt lat="40.48490498" lon="-5.28909517"><ele>2351</ele><speed>12.59</speed><time>2016-07-01T12:13:12Z</time><pdop>3.0</pdop><geoidheight>54.00</geoidheight><course>308.4</course><type>1</type></trkpt>
      <trkpt lat="40.48498277" lon="-5.28920434"><ele>2349</ele><speed>12.52</speed><time>2016-07-01T12:13:13Z</time><pdop>4.0</pdop><geoidheight>54.00</geoidheight><course>309.0</course><type>1</type></trkpt>
      <trkpt lat="40.48506044" lon="-5.28930397"><ele>2347</ele><speed>12.50</speed><time>2016-07-01T12:13:14Z</time><pdop>4.0</pdop><geoidheight>54.00</geoidheight><course>311.5</course><type>1</type></trkpt>
      <trkpt lat="40.48513616" lon="-5.28939085"><ele>2344</ele><speed>11.55</speed><time>2016-07-01T12:13:15Z</time><pdop>4.0</pdop><geoidheight>54.00</geoidheight><course>315.2</course><type>1</type></trkpt>
      <trkpt lat="40.48520631" lon="-5.28950038"><ele>2343</ele><speed>11.47</speed><time>2016-07-01T12:13:16Z</time><pdop>4.0</pdop><geoidheight>54.00</geoidheight><course>311.2</course><type>1</type></trkpt>
      <trkpt lat="40.48526384" lon="-5.28959657"><ele>2343</ele><speed>10.82</speed><time>2016-07-01T12:13:17Z</time><pdop>5.0</pdop><geoidheight>54.00</geoidheight><course>308.8</course><type>1</type></trkpt>
      <trkpt lat="40.48531796" lon="-5.28970958"><ele>2341</ele><speed>11.17</speed><time>2016-07-01T12:13:18Z</time><pdop>5.0</pdop><geoidheight>54.00</geoidheight><course>303.7</course><type>1</type></trkpt>
      <trkpt lat="40.48539833" lon="-5.28993281"><ele>2340</ele><speed>10.79</speed><time>2016-07-01T12:13:20Z</time><pdop>7.0</pdop><geoidheight>54.00</geoidheight><course>298.9</course><type>1</type></trkpt>
      <trkpt lat="40.48545891" lon="-5.29015556"><ele>2336</ele><speed>10.81</speed><time>2016-07-01T12:13:22Z</time><pdop>6.0</pdop><geoidheight>54.00</geoidheight><course>286.3</course><type>1</type></trkpt>
      <trkpt lat="40.48552098" lon="-5.2903848"><ele>2334</ele><speed>10.21</speed><time>2016-07-01T12:13:24Z</time><pdop>6.0</pdop><geoidheight>54.00</geoidheight><course>286.4</course><type>1</type></trkpt>
      <trkpt lat="40.48555839" lon="-5.29056176"><ele>2331</ele><speed>8.85</speed><time>2016-07-01T12:13:26Z</time><pdop>4.0</pdop><geoidheight>54.00</geoidheight><course>282.5</course><type>1</type></trkpt>
      <trkpt lat="40.48555807" lon="-5.29067902"><ele>2329</ele><speed>9.50</speed><time>2016-07-01T12:13:27Z</time><pdop>4.0</pdop><geoidheight>54.00</geoidheight><course>277.4</course><type>1</type></trkpt>
      <trkpt lat="40.48556048" lon="-5.29077545"><ele>2329</ele><speed>9.13</speed><time>2016-07-01T12:13:28Z</time><pdop>4.0</pdop><geoidheight>54.00</geoidheight><course>274.7</course><type>1</type></trkpt>
      <trkpt lat="40.48555566" lon="-5.29089794"><ele>2327</ele><speed>9.81</speed><time>2016-07-01T12:13:29Z</time><pdop>4.0</pdop><geoidheight>54.00</geoidheight><course>273.7</course><type>1</type></trkpt>
      <trkpt lat="40.4855551" lon="-5.29100915"><ele>2325</ele><speed>9.35</speed><time>2016-07-01T12:13:30Z</time><pdop>4.0</pdop><geoidheight>54.00</geoidheight><course>270.1</course><type>1</type></trkpt>
      <trkpt lat="40.48554883" lon="-5.29111188"><ele>2324</ele><speed>8.40</speed><time>2016-07-01T12:13:31Z</time><pdop>3.0</pdop><geoidheight>54.00</geoidheight><course>269.3</course><type>1</type></trkpt>
      <trkpt lat="40.48555968" lon="-5.29119428"><ele>2322</ele><speed>7.28</speed><time>2016-07-01T12:13:32Z</time><pdop>3.0</pdop><geoidheight>54.00</geoidheight><course>272.4</course><type>1</type></trkpt>
      <trkpt lat="40.48558687" lon="-5.29136098"><ele>2318</ele><speed>7.50</speed><time>2016-07-01T12:13:34Z</time><pdop>4.0</pdop><geoidheight>54.00</geoidheight><course>278.1</course><type>1</type></trkpt>
      <trkpt lat="40.48559014" lon="-5.29146832"><ele>2317</ele><speed>8.55</speed><time>2016-07-01T12:13:35Z</time><pdop>4.0</pdop><geoidheight>54.00</geoidheight><course>271.4</course><type>1</type></trkpt>
      <trkpt lat="40.48558732" lon="-5.29158711"><ele>2317</ele><speed>9.15</speed><time>2016-07-01T12:13:36Z</time><pdop>4.0</pdop><geoidheight>54.00</geoidheight><course>265.0</course><type>1</type></trkpt>
      <trkpt lat="40.48558247" lon="-5.29169272"><ele>2316</ele><speed>9.04</speed><time>2016-07-01T12:13:37Z</time><pdop>4.0</pdop><geoidheight>54.00</geoidheight><course>259.5</course><type>1</type></trkpt>
      <trkpt lat="40.48556415" lon="-5.29178504"><ele>2316</ele><speed>8.06</speed><time>2016-07-01T12:13:38Z</time><pdop>4.0</pdop><geoidheight>54.00</geoidheight><course>254.9</course><type>1</type></trkpt>
      <trkpt lat="40.48549827" lon="-5.29195102"><ele>2315</ele><speed>8.09</speed><time>2016-07-01T12:13:40Z</time><pdop>4.0</pdop><geoidheight>54.00</geoidheight><course>243.9</course><type>1</type></trkpt>
      <trkpt lat="40.48540645" lon="-5.29206784"><ele>2311</ele><speed>6.63</speed><time>2016-07-01T12:13:42Z</time><pdop>4.0</pdop><geoidheight>54.00</geoidheight><course>221.5</course><type>1</type></trkpt>
      <trkpt lat="40.48529599" lon="-5.29214083"><ele>2310</ele><speed>7.37</speed><time>2016-07-01T12:13:44Z</time><pdop>4.0</pdop><geoidheight>54.00</geoidheight><course>203.4</course><type>1</type></trkpt>
      <trkpt lat="40.48511946" lon="-5.29208619"><ele>2306</ele><speed>9.37</speed><time>2016-07-01T12:13:46Z</time><pdop>4.0</pdop><geoidheight>54.00</geoidheight><course>171.5</course><type>1</type></trkpt>
      <trkpt lat="40.48503762" lon="-5.29205083"><ele>2306</ele><speed>9.61</speed><time>2016-07-01T12:13:47Z</time><pdop>5.0</pdop><geoidheight>54.00</geoidheight><course>169.7</course><type>1</type></trkpt>
      <trkpt lat="40.48488132" lon="-5.29203737"><ele>2305</ele><speed>8.76</speed><time>2016-07-01T12:13:49Z</time><pdop>5.0</pdop><geoidheight>54.00</geoidheight><course>175.8</course><type>1</type></trkpt>
      <trkpt lat="40.48473172" lon="-5.29205268"><ele>2303</ele><speed>7.93</speed><time>2016-07-01T12:13:51Z</time><pdop>8.0</pdop><geoidheight>54.00</geoidheight><course>187.4</course><type>1</type></trkpt>
      <trkpt lat="40.48462239" lon="-5.29219778"><ele>2302</ele><speed>8.69</speed><time>2016-07-01T12:13:53Z</time><pdop>8.0</pdop><geoidheight>54.00</geoidheight><course>220.8</course><type>1</type></trkpt>
      <trkpt lat="40.48461511" lon="-5.29246502"><ele>2300</ele><speed>10.40</speed><time>2016-07-01T12:13:55Z</time><pdop>5.0</pdop><geoidheight>54.00</geoidheight><course>249.0</course><type>1</type></trkpt>
      <trkpt lat="40.48457465" lon="-5.29267439"><ele>2297</ele><speed>8.97</speed><time>2016-07-01T12:13:57Z</time><pdop>5.0</pdop><geoidheight>54.00</geoidheight><course>250.0</course><type>1</type></trkpt>
      <trkpt lat="40.48453035" lon="-5.29286102"><ele>2294</ele><speed>8.61</speed><time>2016-07-01T12:13:59Z</time><pdop>6.0</pdop><geoidheight>54.00</geoidheight><course>247.1</course><type>1</type></trkpt>
      <trkpt lat="40.48449901" lon="-5.29302877"><ele>2288</ele><speed>9.22</speed><time>2016-07-01T12:14:01Z</time><pdop>4.0</pdop><geoidheight>54.00</geoidheight><course>254.0</course><type>1</type></trkpt>
      <trkpt lat="40.48443774" lon="-5.29324004"><ele>2284</ele><speed>10.06</speed><time>2016-07-01T12:14:03Z</time><pdop>5.0</pdop><geoidheight>54.00</geoidheight><course>250.0</course><type>1</type></trkpt>
      <trkpt lat="40.4843967" lon="-5.29335555"><ele>2283</ele><speed>10.23</speed><time>2016-07-01T12:14:04Z</time><pdop>5.0</pdop><geoidheight>54.00</geoidheight><course>249.7</course><type>1</type></trkpt>
      <trkpt lat="40.48435556" lon="-5.29348188"><ele>2282</ele><speed>10.98</speed><time>2016-07-01T12:14:05Z</time><pdop>6.0</pdop><geoidheight>54.00</geoidheight><course>248.8</course><type>1</type></trkpt>
      <trkpt lat="40.48433088" lon="-5.29362224"><ele>2281</ele><speed>11.72</speed><time>2016-07-01T12:14:06Z</time><pdop>6.0</pdop><geoidheight>54.00</geoidheight><course>253.1</course><type>1</type></trkpt>
      <trkpt lat="40.48431244" lon="-5.29375893"><ele>2280</ele><speed>11.50</speed><time>2016-07-01T12:14:07Z</time><pdop>5.0</pdop><geoidheight>54.00</geoidheight><course>256.1</course><type>1</type></trkpt>
      <trkpt lat="40.48430212" lon="-5.29395433"><ele>2275</ele><speed>8.82</speed><time>2016-07-01T12:14:09Z</time><pdop>5.0</pdop><geoidheight>54.00</geoidheight><course>258.5</course><type>1</type></trkpt>
      <trkpt lat="40.48425644" lon="-5.29416322"><ele>2273</ele><speed>9.25</speed><time>2016-07-01T12:14:11Z</time><pdop>5.0</pdop><geoidheight>54.00</geoidheight><course>258.1</course><type>1</type></trkpt>
      <trkpt lat="40.48424807" lon="-5.29428148"><ele>2268</ele><speed>10.56</speed><time>2016-07-01T12:14:12Z</time><pdop>4.0</pdop><geoidheight>54.00</geoidheight><course>256.4</course><type>1</type></trkpt>
      <trkpt lat="40.48422137" lon="-5.29441187"><ele>2265</ele><speed>11.58</speed><time>2016-07-01T12:14:13Z</time><pdop>4.0</pdop><geoidheight>54.00</geoidheight><course>255.3</course><type>1</type></trkpt>
      <trkpt lat="40.48418235" lon="-5.29468871"><ele>2260</ele><speed>11.48</speed><time>2016-07-01T12:14:15Z</time><pdop>10.0</pdop><geoidheight>54.00</geoidheight><course>256.9</course><type>1</type></trkpt>
      <trkpt lat="40.48414204" lon="-5.29493596"><ele>2255</ele><speed>10.01</speed><time>2016-07-01T12:14:17Z</time><pdop>10.0</pdop><geoidheight>54.00</geoidheight><course>255.7</course><type>1</type></trkpt>
      <trkpt lat="40.48410042" lon="-5.29519311"><ele>2250</ele><speed>11.19</speed><time>2016-07-01T12:14:19Z</time><pdop>9.0</pdop><geoidheight>54.00</geoidheight><course>257.3</course><type>1</type></trkpt>
      <trkpt lat="40.48406499" lon="-5.29546066"><ele>2247</ele><speed>10.82</speed><time>2016-07-01T12:14:21Z</time><pdop>9.0</pdop><geoidheight>54.00</geoidheight><course>259.0</course><type>1</type></trkpt>
      <trkpt lat="40.48405134" lon="-5.29572612"><ele>2244</ele><speed>11.06</speed><time>2016-07-01T12:14:23Z</time><pdop>10.0</pdop><geoidheight>54.00</geoidheight><course>267.1</course><type>1</type></trkpt>
      <trkpt lat="40.48410416" lon="-5.29596763"><ele>2238</ele><speed>10.74</speed><time>2016-07-01T12:14:25Z</time><pdop>9.0</pdop><geoidheight>54.00</geoidheight><course>277.5</course><type>1</type></trkpt>
      <trkpt lat="40.484095" lon="-5.29619744"><ele>2237</ele><speed>9.67</speed><time>2016-07-01T12:14:27Z</time><pdop>10.0</pdop><geoidheight>54.00</geoidheight><course>268.1</course><type>1</type></trkpt>
      <trkpt lat="40.48407366" lon="-5.29643359"><ele>2234</ele><speed>10.11</speed><time>2016-07-01T12:14:29Z</time><pdop>10.0</pdop><geoidheight>54.00</geoidheight><course>268.4</course><type>1</type></trkpt>
      <trkpt lat="40.48410468" lon="-5.29671582"><ele>2230</ele><speed>11.50</speed><time>2016-07-01T12:14:31Z</time><pdop>10.0</pdop><geoidheight>54.00</geoidheight><course>277.0</course><type>1</type></trkpt>
      <trkpt lat="40.48415359" lon="-5.29699498"><ele>2224</ele><speed>11.83</speed><time>2016-07-01T12:14:33Z</time><pdop>9.0</pdop><geoidheight>54.00</geoidheight><course>281.7</course><type>1</type></trkpt>
      <trkpt lat="40.48423911" lon="-5.2972593"><ele>2219</ele><speed>11.80</speed><time>2016-07-01T12:14:35Z</time><pdop>9.0</pdop><geoidheight>54.00</geoidheight><course>291.1</course><type>1</type></trkpt>
      <trkpt lat="40.48432483" lon="-5.29752125"><ele>2218</ele><speed>12.00</speed><time>2016-07-01T12:14:37Z</time><pdop>11.0</pdop><geoidheight>54.00</geoidheight><course>293.9</course><type>1</type></trkpt>
      <trkpt lat="40.48450104" lon="-5.29770399"><ele>2207</ele><speed>12.48</speed><time>2016-07-01T12:14:39Z</time><pdop>10.0</pdop><geoidheight>54.00</geoidheight><course>314.0</course><type>1</type></trkpt>
      <trkpt lat="40.48469305" lon="-5.29788384"><ele>2204</ele><speed>13.37</speed><time>2016-07-01T12:14:41Z</time><pdop>11.0</pdop><geoidheight>54.00</geoidheight><course>323.3</course><type>1</type></trkpt>
      <trkpt lat="40.48495541" lon="-5.29788081"><ele>2201</ele><speed>13.06</speed><time>2016-07-01T12:14:43Z</time><pdop>12.0</pdop><geoidheight>54.00</geoidheight><course>348.6</course><type>1</type></trkpt>
      <trkpt lat="40.48520218" lon="-5.29786622"><ele>2197</ele><speed>12.44</speed><time>2016-07-01T12:14:45Z</time><pdop>11.0</pdop><geoidheight>54.00</geoidheight><course>356.3</course><type>1</type></trkpt>
      <trkpt lat="40.48540085" lon="-5.29792202"><ele>2193</ele><speed>11.14</speed><time>2016-07-01T12:14:47Z</time><pdop>10.0</pdop><geoidheight>54.00</geoidheight><course>341.2</course><type>1</type></trkpt>
      <trkpt lat="40.48554851" lon="-5.29812269"><ele>2187</ele><speed>11.45</speed><time>2016-07-01T12:14:49Z</time><pdop>10.0</pdop><geoidheight>54.00</geoidheight><course>309.3</course><type>1</type></trkpt>
      <trkpt lat="40.48569521" lon="-5.29840663"><ele>2181</ele><speed>8.66</speed><time>2016-07-01T12:14:52Z</time><pdop>11.0</pdop><geoidheight>54.00</geoidheight><course>308.1</course><type>1</type></trkpt>
      <trkpt lat="40.48582005" lon="-5.29868644"><ele>2176</ele><speed>6.22</speed><time>2016-07-01T12:14:56Z</time><pdop>11.0</pdop><geoidheight>54.00</geoidheight><course>291.8</course><type>1</type></trkpt>
      <trkpt lat="40.48584547" lon="-5.29902758"><ele>2165</ele><speed>8.11</speed><time>2016-07-01T12:15:00Z</time><pdop>10.0</pdop><geoidheight>54.00</geoidheight><course>270.4</course><type>1</type></trkpt>
      <trkpt lat="40.48592253" lon="-5.29931859"><ele>2159</ele><speed>8.32</speed><time>2016-07-01T12:15:03Z</time><pdop>5.0</pdop><geoidheight>54.00</geoidheight><course>305.4</course><type>1</type></trkpt>
      <trkpt lat="40.4860289" lon="-5.29945052"><ele>2156</ele><speed>8.17</speed><time>2016-07-01T12:15:05Z</time><pdop>7.0</pdop><geoidheight>54.00</geoidheight><course>313.9</course><type>1</type></trkpt>
      <trkpt lat="40.48616758" lon="-5.29941507"><ele>2156</ele><speed>10.00</speed><time>2016-07-01T12:15:06Z</time><pdop>7.0</pdop><geoidheight>54.00</geoidheight><course>349.0</course><type>1</type></trkpt>
      <trkpt lat="40.48628949" lon="-5.29937288"><ele>2155</ele><speed>11.26</speed><time>2016-07-01T12:15:07Z</time><pdop>7.0</pdop><geoidheight>54.00</geoidheight><course>4.1</course><type>1</type></trkpt>
      <trkpt lat="40.48646912" lon="-5.29924951"><ele>2153</ele><speed>11.30</speed><time>2016-07-01T12:15:09Z</time><pdop>7.0</pdop><geoidheight>54.00</geoidheight><course>18.9</course><type>1</type></trkpt>
      <trkpt lat="40.48668535" lon="-5.29908589"><ele>2149</ele><speed>13.30</speed><time>2016-07-01T12:15:11Z</time><pdop>10.0</pdop><geoidheight>54.00</geoidheight><course>25.3</course><type>1</type></trkpt>
      <trkpt lat="40.48697552" lon="-5.29890294"><ele>2145</ele><speed>15.91</speed><time>2016-07-01T12:15:13Z</time><pdop>11.0</pdop><geoidheight>54.00</geoidheight><course>25.8</course><type>1</type></trkpt>
      <trkpt lat="40.48723308" lon="-5.29868833"><ele>2139</ele><speed>15.51</speed><time>2016-07-01T12:15:15Z</time><pdop>7.0</pdop><geoidheight>54.00</geoidheight><course>26.7</course><type>1</type></trkpt>
      <trkpt lat="40.48733665" lon="-5.29859376"><ele>2136</ele><speed>15.03</speed><time>2016-07-01T12:15:16Z</time><pdop>6.0</pdop><geoidheight>54.00</geoidheight><course>28.1</course><type>1</type></trkpt>
      <trkpt lat="40.48745476" lon="-5.29851431"><ele>2135</ele><speed>14.93</speed><time>2016-07-01T12:15:17Z</time><pdop>7.0</pdop><geoidheight>54.00</geoidheight><course>28.5</course><type>1</type></trkpt>
      <trkpt lat="40.48772168" lon="-5.29834674"><ele>2132</ele><speed>16.74</speed><time>2016-07-01T12:15:19Z</time><pdop>6.0</pdop><geoidheight>54.00</geoidheight><course>24.3</course><type>1</type></trkpt>
      <trkpt lat="40.48785076" lon="-5.29825671"><ele>2130</ele><speed>16.72</speed><time>2016-07-01T12:15:20Z</time><pdop>7.0</pdop><geoidheight>54.00</geoidheight><course>24.7</course><type>1</type></trkpt>
      <trkpt lat="40.48797093" lon="-5.29818715"><ele>2129</ele><speed>15.98</speed><time>2016-07-01T12:15:21Z</time><pdop>6.0</pdop><geoidheight>54.00</geoidheight><course>24.0</course><type>1</type></trkpt>
      <trkpt lat="40.48809155" lon="-5.29810982"><ele>2126</ele><speed>15.47</speed><time>2016-07-01T12:15:22Z</time><pdop>6.0</pdop><geoidheight>54.00</geoidheight><course>24.2</course><type>1</type></trkpt>
      <trkpt lat="40.48833195" lon="-5.29797601"><ele>2123</ele><speed>15.03</speed><time>2016-07-01T12:15:24Z</time><pdop>11.0</pdop><geoidheight>54.00</geoidheight><course>24.1</course><type>1</type></trkpt>
      <trkpt lat="40.48862779" lon="-5.29773493"><ele>2117</ele><speed>15.38</speed><time>2016-07-01T12:15:27Z</time><pdop>13.0</pdop><geoidheight>54.00</geoidheight><course>30.9</course><type>1</type></trkpt>
      <trkpt lat="40.48894125" lon="-5.29754716"><ele>2113</ele><speed>16.37</speed><time>2016-07-01T12:15:29Z</time><pdop>11.0</pdop><geoidheight>54.00</geoidheight><course>29.2</course><type>1</type></trkpt>
      <trkpt lat="40.48916321" lon="-5.29736094"><ele>2107</ele><speed>15.31</speed><time>2016-07-01T12:15:31Z</time><pdop>9.0</pdop><geoidheight>54.00</geoidheight><course>36.8</course><type>1</type></trkpt>
      <trkpt lat="40.48937551" lon="-5.29715127"><ele>2102</ele><speed>14.74</speed><time>2016-07-01T12:15:33Z</time><pdop>10.0</pdop><geoidheight>54.00</geoidheight><course>39.4</course><type>1</type></trkpt>
      <trkpt lat="40.48958459" lon="-5.29694381"><ele>2097</ele><speed>14.66</speed><time>2016-07-01T12:15:35Z</time><pdop>13.0</pdop><geoidheight>54.00</geoidheight><course>39.6</course><type>1</type></trkpt>
      <trkpt lat="40.48976905" lon="-5.29670492"><ele>2092</ele><speed>14.69</speed><time>2016-07-01T12:15:37Z</time><pdop>10.0</pdop><geoidheight>54.00</geoidheight><course>42.6</course><type>1</type></trkpt>
      <trkpt lat="40.48997502" lon="-5.29650958"><ele>2085</ele><speed>14.79</speed><time>2016-07-01T12:15:39Z</time><pdop>12.0</pdop><geoidheight>54.00</geoidheight><course>39.1</course><type>1</type></trkpt>
      <trkpt lat="40.49019356" lon="-5.29628304"><ele>2079</ele><speed>15.37</speed><time>2016-07-01T12:15:41Z</time><pdop>12.0</pdop><geoidheight>54.00</geoidheight><course>37.2</course><type>1</type></trkpt>
      <trkpt lat="40.49043986" lon="-5.29608406"><ele>2074</ele><speed>16.01</speed><time>2016-07-01T12:15:43Z</time><pdop>13.0</pdop><geoidheight>54.00</geoidheight><course>33.8</course><type>1</type></trkpt>
      <trkpt lat="40.49066086" lon="-5.29589239"><ele>2067</ele><speed>15.38</speed><time>2016-07-01T12:15:45Z</time><pdop>9.0</pdop><geoidheight>54.00</geoidheight><course>36.7</course><type>1</type></trkpt>
      <trkpt lat="40.49084212" lon="-5.29572483"><ele>2055</ele><speed>15.01</speed><time>2016-07-01T12:15:47Z</time><pdop>8.0</pdop><geoidheight>54.00</geoidheight><course>37.0</course><type>1</type></trkpt>
      <trkpt lat="40.49105567" lon="-5.2955722"><ele>2043</ele><speed>15.35</speed><time>2016-07-01T12:15:49Z</time><pdop>9.0</pdop><geoidheight>54.00</geoidheight><course>34.0</course><type>1</type></trkpt>
      <trkpt lat="40.491297" lon="-5.29534995"><ele>2039</ele><speed>16.16</speed><time>2016-07-01T12:15:51Z</time><pdop>13.0</pdop><geoidheight>54.00</geoidheight><course>35.0</course><type>1</type></trkpt>
      <trkpt lat="40.49155317" lon="-5.29510038"><ele>2035</ele><speed>17.44</speed><time>2016-07-01T12:15:53Z</time><pdop>15.0</pdop><geoidheight>54.00</geoidheight><course>35.4</course><type>1</type></trkpt>
      <trkpt lat="40.49179372" lon="-5.29485994"><ele>2031</ele><speed>17.38</speed><time>2016-07-01T12:15:55Z</time><pdop>15.0</pdop><geoidheight>54.00</geoidheight><course>35.9</course><type>1</type></trkpt>
      <trkpt lat="40.49206289" lon="-5.29456987"><ele>2026</ele><speed>18.40</speed><time>2016-07-01T12:15:57Z</time><pdop>13.0</pdop><geoidheight>54.00</geoidheight><course>41.7</course><type>1</type></trkpt>
      <trkpt lat="40.49230008" lon="-5.29425697"><ele>2021</ele><speed>19.16</speed><time>2016-07-01T12:15:59Z</time><pdop>13.0</pdop><geoidheight>54.00</geoidheight><course>45.2</course><type>1</type></trkpt>
      <trkpt lat="40.49252991" lon="-5.29400246"><ele>2015</ele><speed>18.22</speed><time>2016-07-01T12:16:01Z</time><pdop>15.0</pdop><geoidheight>54.00</geoidheight><course>44.3</course><type>1</type></trkpt>
      <trkpt lat="40.49285306" lon="-5.29359679"><ele>2008</ele><speed>17.59</speed><time>2016-07-01T12:16:04Z</time><pdop>22.0</pdop><geoidheight>54.00</geoidheight><course>44.7</course><type>1</type></trkpt>
      <trkpt lat="40.49316949" lon="-5.29325404"><ele>1999</ele><speed>17.58</speed><time>2016-07-01T12:16:07Z</time><pdop>17.0</pdop><geoidheight>54.00</geoidheight><course>43.9</course><type>1</type></trkpt>
      <trkpt lat="40.49339448" lon="-5.29301114"><ele>1995</ele><speed>17.16</speed><time>2016-07-01T12:16:09Z</time><pdop>15.0</pdop><geoidheight>54.00</geoidheight><course>43.7</course><type>1</type></trkpt>
      <trkpt lat="40.49371969" lon="-5.29268268"><ele>1989</ele><speed>16.37</speed><time>2016-07-01T12:16:12Z</time><pdop>19.0</pdop><geoidheight>54.00</geoidheight><course>38.1</course><type>1</type></trkpt>
      <trkpt lat="40.49406678" lon="-5.29232615"><ele>1979</ele><speed>16.36</speed><time>2016-07-01T12:16:15Z</time><pdop>18.0</pdop><geoidheight>54.00</geoidheight><course>39.9</course><type>1</type></trkpt>
      <trkpt lat="40.49432007" lon="-5.29192649"><ele>1972</ele><speed>15.97</speed><time>2016-07-01T12:16:18Z</time><pdop>15.0</pdop><geoidheight>54.00</geoidheight><course>47.4</course><type>1</type></trkpt>
      <trkpt lat="40.49454362" lon="-5.29163324"><ele>1967</ele><speed>17.04</speed><time>2016-07-01T12:16:20Z</time><pdop>18.0</pdop><geoidheight>54.00</geoidheight><course>45.9</course><type>1</type></trkpt>
      <trkpt lat="40.4948604" lon="-5.29130927"><ele>1959</ele><speed>16.25</speed><time>2016-07-01T12:16:23Z</time><pdop>19.0</pdop><geoidheight>54.00</geoidheight><course>38.5</course><type>1</type></trkpt>
      <trkpt lat="40.49524135" lon="-5.29088727"><ele>1954</ele><speed>17.56</speed><time>2016-07-01T12:16:26Z</time><pdop>18.0</pdop><geoidheight>54.00</geoidheight><course>38.4</course><type>1</type></trkpt>
      <trkpt lat="40.4954227" lon="-5.29049279"><ele>1941</ele><speed>10.76</speed><time>2016-07-01T12:16:30Z</time><pdop>18.0</pdop><geoidheight>54.00</geoidheight><course>61.0</course><type>1</type></trkpt>
      <trkpt lat="40.4954948" lon="-5.29000328"><ele>1926</ele><speed>11.52</speed><time>2016-07-01T12:16:34Z</time><pdop>14.0</pdop><geoidheight>54.00</geoidheight><course>77.1</course><type>1</type></trkpt>
      <trkpt lat="40.49544577" lon="-5.28961301"><ele>1923</ele><speed>8.20</speed><time>2016-07-01T12:16:38Z</time><pdop>14.0</pdop><geoidheight>54.00</geoidheight><course>121.7</course><type>1</type></trkpt>
      <trkpt lat="40.49514758" lon="-5.28973776"><ele>1913</ele><speed>8.76</speed><time>2016-07-01T12:16:42Z</time><pdop>17.0</pdop><geoidheight>54.00</geoidheight><course>204.0</course><type>1</type></trkpt>
      <trkpt lat="40.495229" lon="-5.29026737"><ele>1918</ele><speed>9.43</speed><time>2016-07-01T12:16:47Z</time><pdop>16.0</pdop><geoidheight>54.00</geoidheight><course>296.2</course><type>1</type></trkpt>
      <trkpt lat="40.49555606" lon="-5.29029325"><ele>1905</ele><speed>8.80</speed><time>2016-07-01T12:16:50Z</time><pdop>12.0</pdop><geoidheight>54.00</geoidheight><course>356.9</course><type>1</type></trkpt>
      <trkpt lat="40.495842" lon="-5.29026355"><ele>1892</ele><speed>10.96</speed><time>2016-07-01T12:16:53Z</time><pdop>11.0</pdop><geoidheight>54.00</geoidheight><course>6.4</course><type>1</type></trkpt>
      <trkpt lat="40.49608054" lon="-5.29018374"><ele>1886</ele><speed>13.40</speed><time>2016-07-01T12:16:55Z</time><pdop>11.0</pdop><geoidheight>54.00</geoidheight><course>18.4</course><type>1</type></trkpt>
      <trkpt lat="40.49633471" lon="-5.29000129"><ele>1883</ele><speed>14.49</speed><time>2016-07-01T12:16:57Z</time><pdop>13.0</pdop><geoidheight>54.00</geoidheight><course>27.4</course><type>1</type></trkpt>
      <trkpt lat="40.49655049" lon="-5.28980762"><ele>1878</ele><speed>14.61</speed><time>2016-07-01T12:16:59Z</time><pdop>12.0</pdop><geoidheight>54.00</geoidheight><course>35.2</course><type>1</type></trkpt>
      <trkpt lat="40.49671121" lon="-5.2895626"><ele>1874</ele><speed>14.89</speed><time>2016-07-01T12:17:01Z</time><pdop>13.0</pdop><geoidheight>54.00</geoidheight><course>41.4</course><type>1</type></trkpt>
      <trkpt lat="40.49695326" lon="-5.28931208"><ele>1872</ele><speed>15.48</speed><time>2016-07-01T12:17:03Z</time><pdop>13.0</pdop><geoidheight>54.00</geoidheight><course>41.7</course><type>1</type></trkpt>
      <trkpt lat="40.49702244" lon="-5.28896202"><ele>1869</ele><speed>14.30</speed><time>2016-07-01T12:17:05Z</time><pdop>11.0</pdop><geoidheight>54.00</geoidheight><course>54.6</course><type>1</type></trkpt>
      <trkpt lat="40.49716192" lon="-5.28871982"><ele>1869</ele><speed>12.88</speed><time>2016-07-01T12:17:07Z</time><pdop>10.0</pdop><geoidheight>54.00</geoidheight><course>57.4</course><type>1</type></trkpt>
      <trkpt lat="40.49730651" lon="-5.28850954"><ele>1871</ele><speed>11.35</speed><time>2016-07-01T12:17:09Z</time><pdop>10.0</pdop><geoidheight>54.00</geoidheight><course>49.7</course><type>1</type></trkpt>
      <trkpt lat="40.49759358" lon="-5.28836664"><ele>1870</ele><speed>11.65</speed><time>2016-07-01T12:17:12Z</time><pdop>9.0</pdop><geoidheight>54.00</geoidheight><course>19.4</course><type>1</type></trkpt>
      <trkpt lat="40.49779161" lon="-5.28833644"><ele>1871</ele><speed>9.99</speed><time>2016-07-01T12:17:14Z</time><pdop>9.0</pdop><geoidheight>54.00</geoidheight><course>4.3</course><type>1</type></trkpt>
      <trkpt lat="40.49795457" lon="-5.28847944"><ele>1872</ele><speed>3.65</speed><time>2016-07-01T12:17:18Z</time><pdop>11.0</pdop><geoidheight>54.00</geoidheight><course>317.9</course><type>1</type></trkpt>
      <trkpt lat="40.49773901" lon="-5.28857869"><ele>1872</ele><speed>7.29</speed><time>2016-07-01T12:17:20Z</time><pdop>10.0</pdop><geoidheight>54.00</geoidheight><course>184.1</course><type>1</type></trkpt>
      <trkpt lat="40.49749266" lon="-5.28849119"><ele>1871</ele><speed>9.14</speed><time>2016-07-01T12:17:23Z</time><pdop>11.0</pdop><geoidheight>54.00</geoidheight><course>161.1</course><type>1</type></trkpt>
      <trkpt lat="40.49729372" lon="-5.28828537"><ele>1869</ele><speed>11.62</speed><time>2016-07-01T12:17:25Z</time><pdop>12.0</pdop><geoidheight>54.00</geoidheight><course>145.1</course><type>1</type></trkpt>
      <trkpt lat="40.49736747" lon="-5.28791279"><ele>1873</ele><speed>12.84</speed><time>2016-07-01T12:17:27Z</time><pdop>10.0</pdop><geoidheight>54.00</geoidheight><course>89.1</course><type>1</type></trkpt>
      <trkpt lat="40.49742977" lon="-5.28765428"><ele>1876</ele><speed>11.77</speed><time>2016-07-01T12:17:29Z</time><pdop>10.0</pdop><geoidheight>54.00</geoidheight><course>71.1</course><type>1</type></trkpt>
      <trkpt lat="40.49754832" lon="-5.28739137"><ele>1877</ele><speed>12.05</speed><time>2016-07-01T12:17:31Z</time><pdop>9.0</pdop><geoidheight>54.00</geoidheight><course>59.3</course><type>1</type></trkpt>
      <trkpt lat="40.4977256" lon="-5.28719228"><ele>1878</ele><speed>12.65</speed><time>2016-07-01T12:17:33Z</time><pdop>10.0</pdop><geoidheight>54.00</geoidheight><course>42.2</course><type>1</type></trkpt>
      <trkpt lat="40.4979372" lon="-5.28699212"><ele>1878</ele><speed>13.79</speed><time>2016-07-01T12:17:35Z</time><pdop>12.0</pdop><geoidheight>54.00</geoidheight><course>38.2</course><type>1</type></trkpt>
      <trkpt lat="40.49818689" lon="-5.28679057"><ele>1879</ele><speed>13.30</speed><time>2016-07-01T12:17:37Z</time><pdop>11.0</pdop><geoidheight>54.00</geoidheight><course>37.1</course><type>1</type></trkpt>
      <trkpt lat="40.49841972" lon="-5.28671685"><ele>1876</ele><speed>9.64</speed><time>2016-07-01T12:17:40Z</time><pdop>12.0</pdop><geoidheight>54.00</geoidheight><course>23.4</course><type>1</type></trkpt>
      <trkpt lat="40.49863572" lon="-5.28683338"><ele>1877</ele><speed>8.59</speed><time>2016-07-01T12:17:43Z</time><pdop>13.0</pdop><geoidheight>54.00</geoidheight><course>356.0</course><type>1</type></trkpt>
      <trkpt lat="40.49888217" lon="-5.28689829"><ele>1880</ele><speed>8.03</speed><time>2016-07-01T12:17:46Z</time><pdop>10.0</pdop><geoidheight>54.00</geoidheight><course>349.8</course><type>1</type></trkpt>
      <trkpt lat="40.49908502" lon="-5.28697079"><ele>1880</ele><speed>7.92</speed><time>2016-07-01T12:17:49Z</time><pdop>12.0</pdop><geoidheight>54.00</geoidheight><course>350.5</course><type>1</type></trkpt>
      <trkpt lat="40.4993431" lon="-5.28672953"><ele>1881</ele><speed>12.86</speed><time>2016-07-01T12:17:52Z</time><pdop>11.0</pdop><geoidheight>54.00</geoidheight><course>32.3</course><type>1</type></trkpt>
      <trkpt lat="40.49939819" lon="-5.28631447"><ele>1887</ele><speed>13.64</speed><time>2016-07-01T12:17:54Z</time><pdop>10.0</pdop><geoidheight>54.00</geoidheight><course>67.1</course><type>1</type></trkpt>
      <trkpt lat="40.49936316" lon="-5.2858958"><ele>1887</ele><speed>15.26</speed><time>2016-07-01T12:17:56Z</time><pdop>11.0</pdop><geoidheight>54.00</geoidheight><course>83.6</course><type>1</type></trkpt>
      <trkpt lat="40.4991605" lon="-5.28573397"><ele>1883</ele><speed>12.35</speed><time>2016-07-01T12:17:58Z</time><pdop>11.0</pdop><geoidheight>54.00</geoidheight><course>119.8</course><type>1</type></trkpt>
      <trkpt lat="40.4989451" lon="-5.28569036"><ele>1883</ele><speed>7.53</speed><time>2016-07-01T12:18:01Z</time><pdop>12.0</pdop><geoidheight>54.00</geoidheight><course>149.4</course><type>1</type></trkpt>
      <trkpt lat="40.49903383" lon="-5.2859824"><ele>1883</ele><speed>4.63</speed><time>2016-07-01T12:18:05Z</time><pdop>13.0</pdop><geoidheight>54.00</geoidheight><course>301.5</course><type>1</type></trkpt>
      <trkpt lat="40.49925865" lon="-5.28601601"><ele>1890</ele><speed>8.63</speed><time>2016-07-01T12:18:09Z</time><pdop>10.0</pdop><geoidheight>54.00</geoidheight><course>29.1</course><type>1</type></trkpt>
      <trkpt lat="40.49944341" lon="-5.2858346"><ele>1889</ele><speed>11.81</speed><time>2016-07-01T12:18:11Z</time><pdop>10.0</pdop><geoidheight>54.00</geoidheight><course>36.2</course><type>1</type></trkpt>
      <trkpt lat="40.49962064" lon="-5.28566741"><ele>1888</ele><speed>11.91</speed><time>2016-07-01T12:18:13Z</time><pdop>10.0</pdop><geoidheight>54.00</geoidheight><course>35.0</course><type>1</type></trkpt>
      <trkpt lat="40.49979226" lon="-5.28550534"><ele>1892</ele><speed>10.64</speed><time>2016-07-01T12:18:15Z</time><pdop>9.0</pdop><geoidheight>54.00</geoidheight><course>34.1</course><type>1</type></trkpt>
      <trkpt lat="40.49993891" lon="-5.28538863"><ele>1892</ele><speed>10.02</speed><time>2016-07-01T12:18:17Z</time><pdop>10.0</pdop><geoidheight>54.00</geoidheight><course>32.6</course><type>1</type></trkpt>
      <trkpt lat="40.50010654" lon="-5.28523789"><ele>1895</ele><speed>10.87</speed><time>2016-07-01T12:18:19Z</time><pdop>10.0</pdop><geoidheight>54.00</geoidheight><course>33.1</course><type>1</type></trkpt>
      <trkpt lat="40.50031624" lon="-5.28505015"><ele>1900</ele><speed>8.93</speed><time>2016-07-01T12:18:22Z</time><pdop>11.0</pdop><geoidheight>54.00</geoidheight><course>34.7</course><type>1</type></trkpt>
      <trkpt lat="40.50057857" lon="-5.28508789"><ele>1903</ele><speed>7.96</speed><time>2016-07-01T12:18:26Z</time><pdop>11.0</pdop><geoidheight>54.00</geoidheight><course>4.3</course><type>1</type></trkpt>
      <trkpt lat="40.50082545" lon="-5.28504019"><ele>1903</ele><speed>7.08</speed><time>2016-07-01T12:18:30Z</time><pdop>10.0</pdop><geoidheight>54.00</geoidheight><course>7.8</course><type>1</type></trkpt>
      <trkpt lat="40.50107346" lon="-5.28500622"><ele>1904</ele><speed>10.04</speed><time>2016-07-01T12:18:33Z</time><pdop>10.0</pdop><geoidheight>54.00</geoidheight><course>9.4</course><type>1</type></trkpt>
      <trkpt lat="40.50125157" lon="-5.28496695"><ele>1905</ele><speed>10.46</speed><time>2016-07-01T12:18:35Z</time><pdop>10.0</pdop><geoidheight>54.00</geoidheight><course>10.1</course><type>1</type></trkpt>
      <trkpt lat="40.50150808" lon="-5.2848557"><ele>1908</ele><speed>10.47</speed><time>2016-07-01T12:18:38Z</time><pdop>11.0</pdop><geoidheight>54.00</geoidheight><course>19.8</course><type>1</type></trkpt>
      <trkpt lat="40.50176558" lon="-5.28478115"><ele>1912</ele><speed>12.26</speed><time>2016-07-01T12:18:40Z</time><pdop>11.0</pdop><geoidheight>54.00</geoidheight><course>14.3</course><type>1</type></trkpt>
      <trkpt lat="40.50197958" lon="-5.2846738"><ele>1912</ele><speed>9.22</speed><time>2016-07-01T12:18:43Z</time><pdop>9.0</pdop><geoidheight>54.00</geoidheight><course>0.5</course><type>1</type></trkpt>
      <trkpt lat="40.50210525" lon="-5.28486727"><ele>1913</ele><speed>6.23</speed><time>2016-07-01T12:18:47Z</time><pdop>9.0</pdop><geoidheight>54.00</geoidheight><course>280.0</course><type>1</type></trkpt>
      <trkpt lat="40.50200344" lon="-5.28507011"><ele>1918</ele><speed>6.79</speed><time>2016-07-01T12:18:50Z</time><pdop>10.0</pdop><geoidheight>54.00</geoidheight><course>228.4</course><type>1</type></trkpt>
      <trkpt lat="40.50175188" lon="-5.28470868"><ele>1919</ele><speed>9.78</speed><time>2016-07-01T12:18:54Z</time><pdop>13.0</pdop><geoidheight>54.00</geoidheight><course>122.9</course><type>1</type></trkpt>
      <trkpt lat="40.50172169" lon="-5.28434055"><ele>1921</ele><speed>10.52</speed><time>2016-07-01T12:18:56Z</time><pdop>11.0</pdop><geoidheight>54.00</geoidheight><course>90.6</course><type>1</type></trkpt>
      <trkpt lat="40.50176452" lon="-5.28405368"><ele>1922</ele><speed>10.98</speed><time>2016-07-01T12:18:58Z</time><pdop>11.0</pdop><geoidheight>54.00</geoidheight><course>78.0</course><type>1</type></trkpt>
      <trkpt lat="40.501957" lon="-5.28382664"><ele>1923</ele><speed>12.41</speed><time>2016-07-01T12:19:00Z</time><pdop>12.0</pdop><geoidheight>54.00</geoidheight><course>58.9</course><type>1</type></trkpt>
      <trkpt lat="40.50211582" lon="-5.28357242"><ele>1925</ele><speed>13.25</speed><time>2016-07-01T12:19:02Z</time><pdop>11.0</pdop><geoidheight>54.00</geoidheight><course>50.4</course><type>1</type></trkpt>
      <trkpt lat="40.50229083" lon="-5.28344538"><ele>1927</ele><speed>11.35</speed><time>2016-07-01T12:19:04Z</time><pdop>10.0</pdop><geoidheight>54.00</geoidheight><course>35.0</course><type>1</type></trkpt>
      <trkpt lat="40.50250412" lon="-5.28344502"><ele>1929</ele><speed>7.55</speed><time>2016-07-01T12:19:07Z</time><pdop>9.0</pdop><geoidheight>54.00</geoidheight><course>357.7</course><type>1</type></trkpt>
      <trkpt lat="40.50265896" lon="-5.28357186"><ele>1933</ele><speed>7.43</speed><time>2016-07-01T12:19:10Z</time><pdop>9.0</pdop><geoidheight>54.00</geoidheight><course>313.3</course><type>1</type></trkpt>
      <trkpt lat="40.50267485" lon="-5.28381662"><ele>1934</ele><speed>7.46</speed><time>2016-07-01T12:19:13Z</time><pdop>11.0</pdop><geoidheight>54.00</geoidheight><course>272.3</course><type>1</type></trkpt>
      <trkpt lat="40.50245483" lon="-5.28395693"><ele>1935</ele><speed>7.33</speed><time>2016-07-01T12:19:16Z</time><pdop>13.0</pdop><geoidheight>54.00</geoidheight><course>213.9</course><type>1</type></trkpt>
      <trkpt lat="40.50222104" lon="-5.28389633"><ele>1937</ele><speed>8.00</speed><time>2016-07-01T12:19:18Z</time><pdop>11.0</pdop><geoidheight>54.00</geoidheight><course>179.0</course><type>1</type></trkpt>
      <trkpt lat="40.50206717" lon="-5.28351773"><ele>1940</ele><speed>12.47</speed><time>2016-07-01T12:19:21Z</time><pdop>11.0</pdop><geoidheight>54.00</geoidheight><course>109.6</course><type>1</type></trkpt>
      <trkpt lat="40.50203502" lon="-5.28316321"><ele>1943</ele><speed>12.89</speed><time>2016-07-01T12:19:23Z</time><pdop>10.0</pdop><geoidheight>54.00</geoidheight><course>86.3</course><type>1</type></trkpt>
      <trkpt lat="40.50207696" lon="-5.28285697"><ele>1944</ele><speed>12.36</speed><time>2016-07-01T12:19:25Z</time><pdop>9.0</pdop><geoidheight>54.00</geoidheight><course>75.1</course><type>1</type></trkpt>
      <trkpt lat="40.50216959" lon="-5.28260631"><ele>1946</ele><speed>11.85</speed><time>2016-07-01T12:19:27Z</time><pdop>10.0</pdop><geoidheight>54.00</geoidheight><course>63.5</course><type>1</type></trkpt>
      <trkpt lat="40.50239047" lon="-5.28241893"><ele>1947</ele><speed>13.34</speed><time>2016-07-01T12:19:29Z</time><pdop>10.0</pdop><geoidheight>54.00</geoidheight><course>36.9</course><type>1</type></trkpt>
      <trkpt lat="40.50259701" lon="-5.28234023"><ele>1946</ele><speed>11.32</speed><time>2016-07-01T12:19:31Z</time><pdop>11.0</pdop><geoidheight>54.00</geoidheight><course>20.7</course><type>1</type></trkpt>
      <trkpt lat="40.50278866" lon="-5.2824753"><ele>1948</ele><speed>5.32</speed><time>2016-07-01T12:19:35Z</time><pdop>12.0</pdop><geoidheight>54.00</geoidheight><course>339.0</course><type>1</type></trkpt>
      <trkpt lat="40.50274923" lon="-5.28289175"><ele>2124</ele><speed>6.49</speed><time>2016-07-01T12:19:38Z</time><pdop>11.0</pdop><geoidheight>54.00</geoidheight><course>262.4</course><type>1</type></trkpt>
      <trkpt lat="40.50281502" lon="-5.28314725"><ele>2003</ele><speed>7.89</speed><time>2016-07-01T12:19:42Z</time><pdop>9.0</pdop><geoidheight>54.00</geoidheight><course>313.2</course><type>1</type></trkpt>
      <trkpt lat="40.50299184" lon="-5.28329746"><ele>1978</ele><speed>7.19</speed><time>2016-07-01T12:19:45Z</time><pdop>4.0</pdop><geoidheight>54.00</geoidheight><course>336.8</course><type>1</type></trkpt>
      <trkpt lat="40.50311694" lon="-5.28335295"><ele>1967</ele><speed>7.42</speed><time>2016-07-01T12:19:47Z</time><pdop>3.0</pdop><geoidheight>54.00</geoidheight><course>340.2</course><type>1</type></trkpt>
      <trkpt lat="40.50319233" lon="-5.28339124"><ele>1964</ele><speed>8.46</speed><time>2016-07-01T12:19:48Z</time><pdop>3.0</pdop><geoidheight>54.00</geoidheight><course>341.2</course><type>1</type></trkpt>
      <trkpt lat="40.50327016" lon="-5.28343265"><ele>1961</ele><speed>9.10</speed><time>2016-07-01T12:19:49Z</time><pdop>4.0</pdop><geoidheight>54.00</geoidheight><course>342.2</course><type>1</type></trkpt>
      <trkpt lat="40.50336591" lon="-5.28346261"><ele>1960</ele><speed>10.32</speed><time>2016-07-01T12:19:50Z</time><pdop>3.0</pdop><geoidheight>54.00</geoidheight><course>343.0</course><type>1</type></trkpt>
      <trkpt lat="40.50346103" lon="-5.28349563"><ele>1959</ele><speed>10.70</speed><time>2016-07-01T12:19:51Z</time><pdop>3.0</pdop><geoidheight>54.00</geoidheight><course>343.6</course><type>1</type></trkpt>
      <trkpt lat="40.50355253" lon="-5.28351928"><ele>1961</ele><speed>10.56</speed><time>2016-07-01T12:19:52Z</time><pdop>3.0</pdop><geoidheight>54.00</geoidheight><course>347.3</course><type>1</type></trkpt>
      <trkpt lat="40.50364211" lon="-5.283537"><ele>1960</ele><speed>10.41</speed><time>2016-07-01T12:19:53Z</time><pdop>3.0</pdop><geoidheight>54.00</geoidheight><course>353.5</course><type>1</type></trkpt>
      <trkpt lat="40.50373819" lon="-5.283544"><ele>1959</ele><speed>10.37</speed><time>2016-07-01T12:19:54Z</time><pdop>3.0</pdop><geoidheight>54.00</geoidheight><course>357.5</course><type>1</type></trkpt>
      <trkpt lat="40.50382438" lon="-5.28354954"><ele>1959</ele><speed>10.25</speed><time>2016-07-01T12:19:55Z</time><pdop>3.0</pdop><geoidheight>54.00</geoidheight><course>356.0</course><type>1</type></trkpt>
      <trkpt lat="40.50390487" lon="-5.28356973"><ele>1957</ele><speed>9.91</speed><time>2016-07-01T12:19:56Z</time><pdop>3.0</pdop><geoidheight>54.00</geoidheight><course>350.5</course><type>1</type></trkpt>
      <trkpt lat="40.50398463" lon="-5.28359587"><ele>1957</ele><speed>9.65</speed><time>2016-07-01T12:19:57Z</time><pdop>3.0</pdop><geoidheight>54.00</geoidheight><course>346.3</course><type>1</type></trkpt>
      <trkpt lat="40.50404302" lon="-5.28363674"><ele>1958</ele><speed>8.55</speed><time>2016-07-01T12:19:58Z</time><pdop>3.0</pdop><geoidheight>54.00</geoidheight><course>336.1</course><type>1</type></trkpt>
      <trkpt lat="40.50408694" lon="-5.2836854"><ele>1958</ele><speed>7.43</speed><time>2016-07-01T12:19:59Z</time><pdop>3.0</pdop><geoidheight>54.00</geoidheight><course>329.5</course><type>1</type></trkpt>
      <trkpt lat="40.50415508" lon="-5.28379845"><ele>1958</ele><speed>5.67</speed><time>2016-07-01T12:20:01Z</time><pdop>3.0</pdop><geoidheight>54.00</geoidheight><course>299.7</course><type>1</type></trkpt>
      <trkpt lat="40.50416421" lon="-5.28387449"><ele>1958</ele><speed>5.91</speed><time>2016-07-01T12:20:02Z</time><pdop>3.0</pdop><geoidheight>54.00</geoidheight><course>282.7</course><type>1</type></trkpt>
      <trkpt lat="40.50416129" lon="-5.28396019"><ele>1958</ele><speed>6.47</speed><time>2016-07-01T12:20:03Z</time><pdop>3.0</pdop><geoidheight>54.00</geoidheight><course>267.6</course><type>1</type></trkpt>
      <trkpt lat="40.50414011" lon="-5.28406315"><ele>1957</ele><speed>7.86</speed><time>2016-07-01T12:20:04Z</time><pdop>3.0</pdop><geoidheight>54.00</geoidheight><course>259.1</course><type>1</type></trkpt>
      <trkpt lat="40.50411819" lon="-5.28416292"><ele>1956</ele><speed>8.70</speed><time>2016-07-01T12:20:05Z</time><pdop>3.0</pdop><geoidheight>54.00</geoidheight><course>254.7</course><type>1</type></trkpt>
      <trkpt lat="40.50409078" lon="-5.28425959"><ele>1958</ele><speed>9.32</speed><time>2016-07-01T12:20:06Z</time><pdop>3.0</pdop><geoidheight>54.00</geoidheight><course>250.4</course><type>1</type></trkpt>
      <trkpt lat="40.50406315" lon="-5.28437055"><ele>1960</ele><speed>9.46</speed><time>2016-07-01T12:20:07Z</time><pdop>4.0</pdop><geoidheight>54.00</geoidheight><course>246.5</course><type>1</type></trkpt>
      <trkpt lat="40.50397938" lon="-5.28451666"><ele>1960</ele><speed>8.20</speed><time>2016-07-01T12:20:09Z</time><pdop>7.0</pdop><geoidheight>54.00</geoidheight><course>235.0</course><type>1</type></trkpt>
      <trkpt lat="40.50378715" lon="-5.28453124"><ele>1960</ele><speed>8.45</speed><time>2016-07-01T12:20:11Z</time><pdop>8.0</pdop><geoidheight>54.00</geoidheight><course>198.6</course><type>1</type></trkpt>
      <trkpt lat="40.50366012" lon="-5.28441719"><ele>1959</ele><speed>9.05</speed><time>2016-07-01T12:20:12Z</time><pdop>8.0</pdop><geoidheight>54.00</geoidheight><course>173.1</course><type>1</type></trkpt>
      <trkpt lat="40.5035644" lon="-5.28429588"><ele>1961</ele><speed>9.57</speed><time>2016-07-01T12:20:13Z</time><pdop>6.0</pdop><geoidheight>54.00</geoidheight><course>151.9</course><type>1</type></trkpt>
      <trkpt lat="40.50348359" lon="-5.2841842"><ele>1961</ele><speed>10.47</speed><time>2016-07-01T12:20:14Z</time><pdop>6.0</pdop><geoidheight>54.00</geoidheight><course>142.7</course><type>1</type></trkpt>
      <trkpt lat="40.50338135" lon="-5.28396441"><ele>1962</ele><speed>11.77</speed><time>2016-07-01T12:20:16Z</time><pdop>6.0</pdop><geoidheight>54.00</geoidheight><course>124.0</course><type>1</type></trkpt>
      <trkpt lat="40.50336348" lon="-5.28370498"><ele>1958</ele><speed>10.88</speed><time>2016-07-01T12:20:18Z</time><pdop>7.0</pdop><geoidheight>54.00</geoidheight><course>99.5</course><type>1</type></trkpt>
      <trkpt lat="40.50339907" lon="-5.2834189"><ele>1959</ele><speed>11.23</speed><time>2016-07-01T12:20:20Z</time><pdop>7.0</pdop><geoidheight>54.00</geoidheight><course>84.5</course><type>1</type></trkpt>
      <trkpt lat="40.50343748" lon="-5.28323545"><ele>1960</ele><speed>12.77</speed><time>2016-07-01T12:20:21Z</time><pdop>7.0</pdop><geoidheight>54.00</geoidheight><course>80.3</course><type>1</type></trkpt>
      <trkpt lat="40.50356474" lon="-5.28296472"><ele>1959</ele><speed>12.88</speed><time>2016-07-01T12:20:23Z</time><pdop>5.0</pdop><geoidheight>54.00</geoidheight><course>67.2</course><type>1</type></trkpt>
      <trkpt lat="40.50363911" lon="-5.28280509"><ele>1960</ele><speed>13.44</speed><time>2016-07-01T12:20:24Z</time><pdop>6.0</pdop><geoidheight>54.00</geoidheight><course>64.5</course><type>1</type></trkpt>
      <trkpt lat="40.50371581" lon="-5.28267758"><ele>1961</ele><speed>12.99</speed><time>2016-07-01T12:20:25Z</time><pdop>6.0</pdop><geoidheight>54.00</geoidheight><course>59.2</course><type>1</type></trkpt>
      <trkpt lat="40.50379474" lon="-5.28249624"><ele>1961</ele><speed>10.13</speed><time>2016-07-01T12:20:27Z</time><pdop>6.0</pdop><geoidheight>54.00</geoidheight><course>56.3</course><type>1</type></trkpt>
      <trkpt lat="40.50385226" lon="-5.2823725"><ele>1961</ele><speed>10.67</speed><time>2016-07-01T12:20:28Z</time><pdop>6.0</pdop><geoidheight>54.00</geoidheight><course>54.0</course><type>1</type></trkpt>
      <trkpt lat="40.50394205" lon="-5.282268"><ele>1961</ele><speed>11.58</speed><time>2016-07-01T12:20:29Z</time><pdop>4.0</pdop><geoidheight>54.00</geoidheight><course>50.7</course><type>1</type></trkpt>
      <trkpt lat="40.50400184" lon="-5.28215502"><ele>1962</ele><speed>12.17</speed><time>2016-07-01T12:20:30Z</time><pdop>4.0</pdop><geoidheight>54.00</geoidheight><course>50.0</course><type>1</type></trkpt>
      <trkpt lat="40.50407494" lon="-5.28202594"><ele>1962</ele><speed>12.89</speed><time>2016-07-01T12:20:31Z</time><pdop>6.0</pdop><geoidheight>54.00</geoidheight><course>50.4</course><type>1</type></trkpt>
      <trkpt lat="40.50415934" lon="-5.28186369"><ele>1961</ele><speed>14.31</speed><time>2016-07-01T12:20:32Z</time><pdop>6.0</pdop><geoidheight>54.00</geoidheight><course>52.2</course><type>1</type></trkpt>
      <trkpt lat="40.50424719" lon="-5.2817469"><ele>1962</ele><speed>14.28</speed><time>2016-07-01T12:20:33Z</time><pdop>7.0</pdop><geoidheight>54.00</geoidheight><course>50.2</course><type>1</type></trkpt>
      <trkpt lat="40.5043296" lon="-5.28159572"><ele>1962</ele><speed>14.36</speed><time>2016-07-01T12:20:34Z</time><pdop>5.0</pdop><geoidheight>54.00</geoidheight><course>49.0</course><type>1</type></trkpt>
      <trkpt lat="40.50441791" lon="-5.28145946"><ele>1963</ele><speed>13.56</speed><time>2016-07-01T12:20:35Z</time><pdop>5.0</pdop><geoidheight>54.00</geoidheight><course>46.1</course><type>1</type></trkpt>
      <trkpt lat="40.50451253" lon="-5.28140751"><ele>1962</ele><speed>11.53</speed><time>2016-07-01T12:20:36Z</time><pdop>4.0</pdop><geoidheight>54.00</geoidheight><course>33.4</course><type>1</type></trkpt>
      <trkpt lat="40.50462478" lon="-5.28137633"><ele>1962</ele><speed>11.81</speed><time>2016-07-01T12:20:37Z</time><pdop>4.0</pdop><geoidheight>54.00</geoidheight><course>24.0</course><type>1</type></trkpt>
      <trkpt lat="40.50471422" lon="-5.28135039"><ele>1961</ele><speed>10.88</speed><time>2016-07-01T12:20:38Z</time><pdop>6.0</pdop><geoidheight>54.00</geoidheight><course>20.0</course><type>1</type></trkpt>
      <trkpt lat="40.50480639" lon="-5.28144763"><ele>1961</ele><speed>10.03</speed><time>2016-07-01T12:20:39Z</time><pdop>6.0</pdop><geoidheight>54.00</geoidheight><course>351.6</course><type>1</type></trkpt>
      <trkpt lat="40.50492878" lon="-5.28155434"><ele>1959</ele><speed>11.43</speed><time>2016-07-01T12:20:40Z</time><pdop>6.0</pdop><geoidheight>54.00</geoidheight><course>338.9</course><type>1</type></trkpt>
      <trkpt lat="40.50501105" lon="-5.28170152"><ele>1956</ele><speed>11.39</speed><time>2016-07-01T12:20:41Z</time><pdop>6.0</pdop><geoidheight>54.00</geoidheight><course>318.4</course><type>1</type></trkpt>
      <trkpt lat="40.50507862" lon="-5.28181341"><ele>1955</ele><speed>10.65</speed><time>2016-07-01T12:20:42Z</time><pdop>5.0</pdop><geoidheight>54.00</geoidheight><course>309.7</course><type>1</type></trkpt>
      <trkpt lat="40.50514574" lon="-5.28191487"><ele>1955</ele><speed>10.60</speed><time>2016-07-01T12:20:43Z</time><pdop>6.0</pdop><geoidheight>54.00</geoidheight><course>306.6</course><type>1</type></trkpt>
      <trkpt lat="40.50517316" lon="-5.28211593"><ele>1951</ele><speed>8.99</speed><time>2016-07-01T12:20:45Z</time><pdop>6.0</pdop><geoidheight>54.00</geoidheight><course>281.7</course><type>1</type></trkpt>
      <trkpt lat="40.50516214" lon="-5.2823024"><ele>1944</ele><speed>8.65</speed><time>2016-07-01T12:20:47Z</time><pdop>5.0</pdop><geoidheight>54.00</geoidheight><course>263.3</course><type>1</type></trkpt>
      <trkpt lat="40.5051387" lon="-5.28250526"><ele>1942</ele><speed>7.83</speed><time>2016-07-01T12:20:49Z</time><pdop>4.0</pdop><geoidheight>54.00</geoidheight><course>264.4</course><type>1</type></trkpt>
      <trkpt lat="40.50513558" lon="-5.28260154"><ele>1938</ele><speed>8.24</speed><time>2016-07-01T12:20:50Z</time><pdop>4.0</pdop><geoidheight>54.00</geoidheight><course>266.8</course><type>1</type></trkpt>
      <trkpt lat="40.50512318" lon="-5.28271159"><ele>1934</ele><speed>9.24</speed><time>2016-07-01T12:20:51Z</time><pdop>4.0</pdop><geoidheight>54.00</geoidheight><course>266.4</course><type>1</type></trkpt>
      <trkpt lat="40.50509333" lon="-5.28296787"><ele>1929</ele><speed>10.92</speed><time>2016-07-01T12:20:53Z</time><pdop>9.0</pdop><geoidheight>54.00</geoidheight><course>260.7</course><type>1</type></trkpt>
      <trkpt lat="40.50506224" lon="-5.28323119"><ele>1925</ele><speed>11.34</speed><time>2016-07-01T12:20:55Z</time><pdop>9.0</pdop><geoidheight>54.00</geoidheight><course>259.9</course><type>1</type></trkpt>
      <trkpt lat="40.5050342" lon="-5.28348089"><ele>1923</ele><speed>11.00</speed><time>2016-07-01T12:20:57Z</time><pdop>11.0</pdop><geoidheight>54.00</geoidheight><course>261.6</course><type>1</type></trkpt>
      <trkpt lat="40.50501669" lon="-5.28378614"><ele>1921</ele><speed>9.19</speed><time>2016-07-01T12:21:00Z</time><pdop>13.0</pdop><geoidheight>54.00</geoidheight><course>266.2</course><type>1</type></trkpt>
      <trkpt lat="40.5049109" lon="-5.28415828"><ele>1908</ele><speed>11.61</speed><time>2016-07-01T12:21:03Z</time><pdop>10.0</pdop><geoidheight>54.00</geoidheight><course>252.0</course><type>1</type></trkpt>
      <trkpt lat="40.50481265" lon="-5.2844118"><ele>1902</ele><speed>12.26</speed><time>2016-07-01T12:21:05Z</time><pdop>10.0</pdop><geoidheight>54.00</geoidheight><course>243.8</course><type>1</type></trkpt>
      <trkpt lat="40.50471839" lon="-5.28470199"><ele>1898</ele><speed>12.78</speed><time>2016-07-01T12:21:07Z</time><pdop>10.0</pdop><geoidheight>54.00</geoidheight><course>248.3</course><type>1</type></trkpt>
      <trkpt lat="40.50467392" lon="-5.28499868"><ele>1894</ele><speed>12.71</speed><time>2016-07-01T12:21:09Z</time><pdop>10.0</pdop><geoidheight>54.00</geoidheight><course>257.0</course><type>1</type></trkpt>
      <trkpt lat="40.50464336" lon="-5.28533889"><ele>1892</ele><speed>13.44</speed><time>2016-07-01T12:21:11Z</time><pdop>10.0</pdop><geoidheight>54.00</geoidheight><course>264.7</course><type>1</type></trkpt>
      <trkpt lat="40.5046411" lon="-5.28562125"><ele>1889</ele><speed>11.75</speed><time>2016-07-01T12:21:13Z</time><pdop>10.0</pdop><geoidheight>54.00</geoidheight><course>274.9</course><type>1</type></trkpt>
      <trkpt lat="40.50473068" lon="-5.28598592"><ele>1884</ele><speed>11.08</speed><time>2016-07-01T12:21:16Z</time><pdop>10.0</pdop><geoidheight>54.00</geoidheight><course>289.6</course><type>1</type></trkpt>
      <trkpt lat="40.50481698" lon="-5.28623659"><ele>1883</ele><speed>11.81</speed><time>2016-07-01T12:21:18Z</time><pdop>10.0</pdop><geoidheight>54.00</geoidheight><course>294.0</course><type>1</type></trkpt>
      <trkpt lat="40.50492793" lon="-5.2864264"><ele>1878</ele><speed>10.16</speed><time>2016-07-01T12:21:20Z</time><pdop>10.0</pdop><geoidheight>54.00</geoidheight><course>301.6</course><type>1</type></trkpt>
      <trkpt lat="40.50500771" lon="-5.28671214"><ele>1875</ele><speed>8.71</speed><time>2016-07-01T12:21:23Z</time><pdop>10.0</pdop><geoidheight>54.00</geoidheight><course>289.8</course><type>1</type></trkpt>
      <trkpt lat="40.50503575" lon="-5.28703449"><ele>1870</ele><speed>9.89</speed><time>2016-07-01T12:21:26Z</time><pdop>10.0</pdop><geoidheight>54.00</geoidheight><course>274.9</course><type>1</type></trkpt>
      <trkpt lat="40.50506243" lon="-5.2873459"><ele>1863</ele><speed>9.28</speed><time>2016-07-01T12:21:29Z</time><pdop>10.0</pdop><geoidheight>54.00</geoidheight><course>271.6</course><type>1</type></trkpt>
      <trkpt lat="40.50501062" lon="-5.2876001"><ele>1859</ele><speed>7.07</speed><time>2016-07-01T12:21:32Z</time><pdop>9.0</pdop><geoidheight>54.00</geoidheight><course>256.0</course><type>1</type></trkpt>
      <trkpt lat="40.50492064" lon="-5.28781799"><ele>1855</ele><speed>7.32</speed><time>2016-07-01T12:21:35Z</time><pdop>10.0</pdop><geoidheight>54.00</geoidheight><course>240.0</course><type>1</type></trkpt>
      <trkpt lat="40.50478591" lon="-5.28800415"><ele>1848</ele><speed>6.68</speed><time>2016-07-01T12:21:38Z</time><pdop>9.0</pdop><geoidheight>54.00</geoidheight><course>222.6</course><type>1</type></trkpt>
      <trkpt lat="40.50461165" lon="-5.28816112"><ele>1845</ele><speed>8.74</speed><time>2016-07-01T12:21:41Z</time><pdop>10.0</pdop><geoidheight>54.00</geoidheight><course>217.2</course><type>1</type></trkpt>
      <trkpt lat="40.5044509" lon="-5.28836132"><ele>1842</ele><speed>12.06</speed><time>2016-07-01T12:21:43Z</time><pdop>10.0</pdop><geoidheight>54.00</geoidheight><course>222.5</course><type>1</type></trkpt>
      <trkpt lat="40.50425279" lon="-5.28838991"><ele>1834</ele><speed>7.54</speed><time>2016-07-01T12:21:46Z</time><pdop>10.0</pdop><geoidheight>54.00</geoidheight><course>175.3</course><type>1</type></trkpt>
      <trkpt lat="40.50407614" lon="-5.28816238"><ele>1831</ele><speed>9.16</speed><time>2016-07-01T12:21:49Z</time><pdop>13.0</pdop><geoidheight>54.00</geoidheight><course>132.0</course><type>1</type></trkpt>
      <trkpt lat="40.50379223" lon="-5.28768647"><ele>1826</ele><speed>15.28</speed><time>2016-07-01T12:21:52Z</time><pdop>23.0</pdop><geoidheight>54.00</geoidheight><course>119.7</course><type>1</type></trkpt>
      <trkpt lat="40.5035365" lon="-5.28715003"><ele>1821</ele><speed>14.94</speed><time>2016-07-01T12:21:55Z</time><pdop>18.0</pdop><geoidheight>54.00</geoidheight><course>120.9</course><type>1</type></trkpt>
      <trkpt lat="40.50341269" lon="-5.28665934"><ele>1816</ele><speed>15.10</speed><time>2016-07-01T12:21:58Z</time><pdop>19.0</pdop><geoidheight>54.00</geoidheight><course>110.5</course><type>1</type></trkpt>
      <trkpt lat="40.50336376" lon="-5.28621225"><ele>1810</ele><speed>12.99</speed><time>2016-07-01T12:22:01Z</time><pdop>17.0</pdop><geoidheight>54.00</geoidheight><course>104.8</course><type>1</type></trkpt>
      <trkpt lat="40.50328154" lon="-5.28576903"><ele>1800</ele><speed>14.42</speed><time>2016-07-01T12:22:04Z</time><pdop>15.0</pdop><geoidheight>54.00</geoidheight><course>102.0</course><type>1</type></trkpt>
      <trkpt lat="40.50319061" lon="-5.28527765"><ele>1791</ele><speed>15.06</speed><time>2016-07-01T12:22:07Z</time><pdop>13.0</pdop><geoidheight>54.00</geoidheight><course>99.2</course><type>1</type></trkpt>
      <trkpt lat="40.50331481" lon="-5.28503015"><ele>1978</ele><speed>14.22</speed><time>2016-07-01T12:22:09Z</time><pdop>12.0</pdop><geoidheight>54.00</geoidheight><course>87.3</course><type>1</type></trkpt>
      <trkpt lat="40.50329916" lon="-5.28470515"><ele>1903</ele><speed>13.63</speed><time>2016-07-01T12:22:11Z</time><pdop>11.0</pdop><geoidheight>54.00</geoidheight><course>86.5</course><type>1</type></trkpt>
      <trkpt lat="40.50336569" lon="-5.28438991"><ele>1878</ele><speed>13.41</speed><time>2016-07-01T12:22:13Z</time><pdop>11.0</pdop><geoidheight>54.00</geoidheight><course>79.4</course><type>1</type></trkpt>
      <trkpt lat="40.50339803" lon="-5.28409179"><ele>1842</ele><speed>12.14</speed><time>2016-07-01T12:22:15Z</time><pdop>11.0</pdop><geoidheight>54.00</geoidheight><course>83.3</course><type>1</type></trkpt>
      <trkpt lat="40.50333315" lon="-5.2837007"><ele>1810</ele><speed>10.50</speed><time>2016-07-01T12:22:18Z</time><pdop>12.0</pdop><geoidheight>54.00</geoidheight><course>102.7</course><type>1</type></trkpt>
      <trkpt lat="40.50312768" lon="-5.28344735"><ele>1795</ele><speed>10.09</speed><time>2016-07-01T12:22:21Z</time><pdop>12.0</pdop><geoidheight>54.00</geoidheight><course>130.0</course><type>1</type></trkpt>
      <trkpt lat="40.50285044" lon="-5.28335286"><ele>1791</ele><speed>11.65</speed><time>2016-07-01T12:22:23Z</time><pdop>11.0</pdop><geoidheight>54.00</geoidheight><course>151.5</course><type>1</type></trkpt>
      <trkpt lat="40.50260719" lon="-5.28342412"><ele>1786</ele><speed>11.31</speed><time>2016-07-01T12:22:25Z</time><pdop>11.0</pdop><geoidheight>54.00</geoidheight><course>186.1</course><type>1</type></trkpt>
      <trkpt lat="40.50261061" lon="-5.28370822"><ele>1780</ele><speed>6.62</speed><time>2016-07-01T12:22:28Z</time><pdop>12.0</pdop><geoidheight>54.00</geoidheight><course>248.8</course><type>1</type></trkpt>
      <trkpt lat="40.50291248" lon="-5.28378537"><ele>1776</ele><speed>7.64</speed><time>2016-07-01T12:22:32Z</time><pdop>13.0</pdop><geoidheight>54.00</geoidheight><course>341.9</course><type>1</type></trkpt>
      <trkpt lat="40.50318275" lon="-5.28361341"><ele>1774</ele><speed>9.22</speed><time>2016-07-01T12:22:35Z</time><pdop>12.0</pdop><geoidheight>54.00</geoidheight><course>23.5</course><type>1</type></trkpt>
      <trkpt lat="40.50333845" lon="-5.2833136"><ele>1772</ele><speed>12.63</speed><time>2016-07-01T12:22:37Z</time><pdop>13.0</pdop><geoidheight>54.00</geoidheight><course>48.6</course><type>1</type></trkpt>
      <trkpt lat="40.50349867" lon="-5.28304082"><ele>1768</ele><speed>12.94</speed><time>2016-07-01T12:22:39Z</time><pdop>12.0</pdop><geoidheight>54.00</geoidheight><course>61.7</course><type>1</type></trkpt>
      <trkpt lat="40.50356192" lon="-5.28277199"><ele>1766</ele><speed>12.19</speed><time>2016-07-01T12:22:41Z</time><pdop>10.0</pdop><geoidheight>54.00</geoidheight><course>80.7</course><type>1</type></trkpt>
      <trkpt lat="40.50347068" lon="-5.28251172"><ele>1767</ele><speed>12.29</speed><time>2016-07-01T12:22:43Z</time><pdop>10.0</pdop><geoidheight>54.00</geoidheight><course>98.0</course><type>1</type></trkpt>
      <trkpt lat="40.50339849" lon="-5.28223265"><ele>1766</ele><speed>12.57</speed><time>2016-07-01T12:22:45Z</time><pdop>6.0</pdop><geoidheight>54.00</geoidheight><course>109.0</course><type>1</type></trkpt>
      <trkpt lat="40.50336034" lon="-5.28208495"><ele>1766</ele><speed>12.88</speed><time>2016-07-01T12:22:46Z</time><pdop>5.0</pdop><geoidheight>54.00</geoidheight><course>109.4</course><type>1</type></trkpt>
      <trkpt lat="40.5032721" lon="-5.28195884"><ele>1767</ele><speed>12.75</speed><time>2016-07-01T12:22:47Z</time><pdop>6.0</pdop><geoidheight>54.00</geoidheight><course>120.8</course><type>1</type></trkpt>
      <trkpt lat="40.50311335" lon="-5.2817258"><ele>1768</ele><speed>12.96</speed><time>2016-07-01T12:22:49Z</time><pdop>9.0</pdop><geoidheight>54.00</geoidheight><course>134.3</course><type>1</type></trkpt>
      <trkpt lat="40.50297171" lon="-5.28165822"><ele>1772</ele><speed>9.82</speed><time>2016-07-01T12:22:51Z</time><pdop>7.0</pdop><geoidheight>54.00</geoidheight><course>155.0</course><type>1</type></trkpt>
      <trkpt lat="40.50281525" lon="-5.28165467"><ele>1772</ele><speed>6.54</speed><time>2016-07-01T12:22:54Z</time><pdop>5.0</pdop><geoidheight>54.00</geoidheight><course>182.9</course><type>1</type></trkpt>
      <trkpt lat="40.50272669" lon="-5.28170159"><ele>1774</ele><speed>4.87</speed><time>2016-07-01T12:22:56Z</time><pdop>5.0</pdop><geoidheight>54.00</geoidheight><course>217.8</course><type>1</type></trkpt>
      <trkpt lat="40.50278079" lon="-5.28180549"><ele>1772</ele><speed>5.55</speed><time>2016-07-01T12:23:00Z</time><pdop>3.0</pdop><geoidheight>54.00</geoidheight><course>347.5</course><type>1</type></trkpt>
      <trkpt lat="40.50284254" lon="-5.28180335"><ele>1770</ele><speed>7.21</speed><time>2016-07-01T12:23:01Z</time><pdop>3.0</pdop><geoidheight>54.00</geoidheight><course>359.9</course><type>1</type></trkpt>
      <trkpt lat="40.50291828" lon="-5.28179018"><ele>1770</ele><speed>7.88</speed><time>2016-07-01T12:23:02Z</time><pdop>4.0</pdop><geoidheight>54.00</geoidheight><course>4.6</course><type>1</type></trkpt>
      <trkpt lat="40.5029961" lon="-5.28176625"><ele>1770</ele><speed>8.73</speed><time>2016-07-01T12:23:03Z</time><pdop>4.0</pdop><geoidheight>54.00</geoidheight><course>9.9</course><type>1</type></trkpt>
      <trkpt lat="40.5030855" lon="-5.28170418"><ele>1770</ele><speed>10.10</speed><time>2016-07-01T12:23:04Z</time><pdop>4.0</pdop><geoidheight>54.00</geoidheight><course>22.3</course><type>1</type></trkpt>
      <trkpt lat="40.50316877" lon="-5.28165903"><ele>1771</ele><speed>10.26</speed><time>2016-07-01T12:23:05Z</time><pdop>5.0</pdop><geoidheight>54.00</geoidheight><course>25.0</course><type>1</type></trkpt>
      <trkpt lat="40.5032456" lon="-5.28158255"><ele>1771</ele><speed>10.40</speed><time>2016-07-01T12:23:06Z</time><pdop>5.0</pdop><geoidheight>54.00</geoidheight><course>30.5</course><type>1</type></trkpt>
      <trkpt lat="40.50332824" lon="-5.28149142"><ele>1771</ele><speed>11.00</speed><time>2016-07-01T12:23:07Z</time><pdop>6.0</pdop><geoidheight>54.00</geoidheight><course>35.3</course><type>1</type></trkpt>
      <trkpt lat="40.50347324" lon="-5.28132983"><ele>1772</ele><speed>10.87</speed><time>2016-07-01T12:23:09Z</time><pdop>7.0</pdop><geoidheight>54.00</geoidheight><course>40.8</course><type>1</type></trkpt>
      <trkpt lat="40.50360195" lon="-5.28112534"><ele>1773</ele><speed>12.22</speed><time>2016-07-01T12:23:11Z</time><pdop>8.0</pdop><geoidheight>54.00</geoidheight><course>51.2</course><type>1</type></trkpt>
      <trkpt lat="40.50369345" lon="-5.28097803"><ele>1774</ele><speed>13.21</speed><time>2016-07-01T12:23:12Z</time><pdop>8.0</pdop><geoidheight>54.00</geoidheight><course>50.8</course><type>1</type></trkpt>
      <trkpt lat="40.50380098" lon="-5.28074329"><ele>1773</ele><speed>12.68</speed><time>2016-07-01T12:23:14Z</time><pdop>6.0</pdop><geoidheight>54.00</geoidheight><course>62.1</course><type>1</type></trkpt>
      <trkpt lat="40.5038157" lon="-5.28059747"><ele>1771</ele><speed>12.05</speed><time>2016-07-01T12:23:15Z</time><pdop>6.0</pdop><geoidheight>54.00</geoidheight><course>77.6</course><type>1</type></trkpt>
      <trkpt lat="40.50383969" lon="-5.28044843"><ele>1770</ele><speed>12.38</speed><time>2016-07-01T12:23:16Z</time><pdop>6.0</pdop><geoidheight>54.00</geoidheight><course>82.0</course><type>1</type></trkpt>
      <trkpt lat="40.50386984" lon="-5.28028386"><ele>1769</ele><speed>13.07</speed><time>2016-07-01T12:23:17Z</time><pdop>8.0</pdop><geoidheight>54.00</geoidheight><course>81.2</course><type>1</type></trkpt>
      <trkpt lat="40.50376028" lon="-5.280158"><ele>1767</ele><speed>12.75</speed><time>2016-07-01T12:23:18Z</time><pdop>7.0</pdop><geoidheight>54.00</geoidheight><course>103.0</course><type>1</type></trkpt>
      <trkpt lat="40.50362756" lon="-5.27985379"><ele>1767</ele><speed>13.35</speed><time>2016-07-01T12:23:20Z</time><pdop>9.0</pdop><geoidheight>54.00</geoidheight><course>116.6</course><type>1</type></trkpt>
      <trkpt lat="40.50343917" lon="-5.27963101"><ele>1767</ele><speed>12.51</speed><time>2016-07-01T12:23:22Z</time><pdop>6.0</pdop><geoidheight>54.00</geoidheight><course>138.3</course><type>1</type></trkpt>
      <trkpt lat="40.5032687" lon="-5.27956126"><ele>1767</ele><speed>11.04</speed><time>2016-07-01T12:23:24Z</time><pdop>6.0</pdop><geoidheight>54.00</geoidheight><course>158.4</course><type>1</type></trkpt>
      <trkpt lat="40.50308506" lon="-5.27952509"><ele>1764</ele><speed>10.76</speed><time>2016-07-01T12:23:26Z</time><pdop>6.0</pdop><geoidheight>54.00</geoidheight><course>166.9</course><type>1</type></trkpt>
      <trkpt lat="40.50292045" lon="-5.27949909"><ele>1763</ele><speed>9.59</speed><time>2016-07-01T12:23:28Z</time><pdop>6.0</pdop><geoidheight>54.00</geoidheight><course>170.9</course><type>1</type></trkpt>
      <trkpt lat="40.50275949" lon="-5.27948731"><ele>1761</ele><speed>9.27</speed><time>2016-07-01T12:23:30Z</time><pdop>5.0</pdop><geoidheight>54.00</geoidheight><course>174.5</course><type>1</type></trkpt>
      <trkpt lat="40.50258062" lon="-5.27950006"><ele>1760</ele><speed>9.93</speed><time>2016-07-01T12:23:32Z</time><pdop>6.0</pdop><geoidheight>54.00</geoidheight><course>180.1</course><type>1</type></trkpt>
      <trkpt lat="40.50247308" lon="-5.27948505"><ele>1761</ele><speed>10.81</speed><time>2016-07-01T12:23:33Z</time><pdop>6.0</pdop><geoidheight>54.00</geoidheight><course>175.2</course><type>1</type></trkpt>
      <trkpt lat="40.50229225" lon="-5.27943991"><ele>1761</ele><speed>10.44</speed><time>2016-07-01T12:23:35Z</time><pdop>5.0</pdop><geoidheight>54.00</geoidheight><course>168.5</course><type>1</type></trkpt>
      <trkpt lat="40.50213542" lon="-5.27940333"><ele>1761</ele><speed>9.73</speed><time>2016-07-01T12:23:37Z</time><pdop>6.0</pdop><geoidheight>54.00</geoidheight><course>172.0</course><type>1</type></trkpt>
      <trkpt lat="40.50194099" lon="-5.27936537"><ele>1760</ele><speed>10.37</speed><time>2016-07-01T12:23:39Z</time><pdop>10.0</pdop><geoidheight>54.00</geoidheight><course>171.4</course><type>1</type></trkpt>
      <trkpt lat="40.50170683" lon="-5.27932867"><ele>1762</ele><speed>11.12</speed><time>2016-07-01T12:23:41Z</time><pdop>8.0</pdop><geoidheight>54.00</geoidheight><course>172.8</course><type>1</type></trkpt>
      <trkpt lat="40.50145757" lon="-5.27929961"><ele>1761</ele><speed>11.10</speed><time>2016-07-01T12:23:44Z</time><pdop>8.0</pdop><geoidheight>54.00</geoidheight><course>169.7</course><type>1</type></trkpt>
      <trkpt lat="40.50129802" lon="-5.27931527"><ele>1765</ele><speed>9.43</speed><time>2016-07-01T12:23:46Z</time><pdop>5.0</pdop><geoidheight>54.00</geoidheight><course>182.3</course><type>1</type></trkpt>
      <trkpt lat="40.5011397" lon="-5.27934787"><ele>1769</ele><speed>9.05</speed><time>2016-07-01T12:23:48Z</time><pdop>6.0</pdop><geoidheight>54.00</geoidheight><course>185.7</course><type>1</type></trkpt>
      <trkpt lat="40.50103" lon="-5.27930175"><ele>1771</ele><speed>11.57</speed><time>2016-07-01T12:23:49Z</time><pdop>5.0</pdop><geoidheight>54.00</geoidheight><course>163.7</course><type>1</type></trkpt>
      <trkpt lat="40.5009378" lon="-5.27925042"><ele>1773</ele><speed>11.72</speed><time>2016-07-01T12:23:50Z</time><pdop>5.0</pdop><geoidheight>54.00</geoidheight><course>158.4</course><type>1</type></trkpt>
      <trkpt lat="40.50077082" lon="-5.27906817"><ele>1774</ele><speed>12.30</speed><time>2016-07-01T12:23:52Z</time><pdop>8.0</pdop><geoidheight>54.00</geoidheight><course>143.7</course><type>1</type></trkpt>
      <trkpt lat="40.50077292" lon="-5.27878719"><ele>1777</ele><speed>10.59</speed><time>2016-07-01T12:23:54Z</time><pdop>12.0</pdop><geoidheight>54.00</geoidheight><course>115.4</course><type>1</type></trkpt>
      <trkpt lat="40.50083175" lon="-5.27834633"><ele>1851</ele><speed>13.21</speed><time>2016-07-01T12:23:56Z</time><pdop>17.0</pdop><geoidheight>54.00</geoidheight><course>94.7</course><type>1</type></trkpt>
      <trkpt lat="40.50111538" lon="-5.27812454"><ele>1837</ele><speed>11.24</speed><time>2016-07-01T12:23:58Z</time><pdop>13.0</pdop><geoidheight>54.00</geoidheight><course>60.1</course><type>1</type></trkpt>
      <trkpt lat="40.50137044" lon="-5.27803458"><ele>1829</ele><speed>9.89</speed><time>2016-07-01T12:24:00Z</time><pdop>14.0</pdop><geoidheight>54.00</geoidheight><course>35.5</course><type>1</type></trkpt>
      <trkpt lat="40.5014889" lon="-5.27841258"><ele>1818</ele><speed>4.88</speed><time>2016-07-01T12:24:04Z</time><pdop>18.0</pdop><geoidheight>54.00</geoidheight><course>294.4</course><type>1</type></trkpt>
      <trkpt lat="40.50119161" lon="-5.27869742"><ele>1808</ele><speed>6.69</speed><time>2016-07-01T12:24:08Z</time><pdop>16.0</pdop><geoidheight>54.00</geoidheight><course>206.5</course><type>1</type></trkpt>
      <trkpt lat="40.50094419" lon="-5.27834206"><ele>1806</ele><speed>10.82</speed><time>2016-07-01T12:24:10Z</time><pdop>14.0</pdop><geoidheight>54.00</geoidheight><course>139.8</course><type>1</type></trkpt>
      <trkpt lat="40.50066974" lon="-5.27795323"><ele>1809</ele><speed>13.60</speed><time>2016-07-01T12:24:13Z</time><pdop>14.0</pdop><geoidheight>54.00</geoidheight><course>131.8</course><type>1</type></trkpt>
      <trkpt lat="40.50049833" lon="-5.27754529"><ele>1809</ele><speed>16.30</speed><time>2016-07-01T12:24:15Z</time><pdop>14.0</pdop><geoidheight>54.00</geoidheight><course>119.7</course><type>1</type></trkpt>
      <trkpt lat="40.5005458" lon="-5.27715351"><ele>1812</ele><speed>14.74</speed><time>2016-07-01T12:24:17Z</time><pdop>16.0</pdop><geoidheight>54.00</geoidheight><course>100.1</course><type>1</type></trkpt>
      <trkpt lat="40.50074239" lon="-5.27678446"><ele>1813</ele><speed>14.95</speed><time>2016-07-01T12:24:19Z</time><pdop>16.0</pdop><geoidheight>54.00</geoidheight><course>77.8</course><type>1</type></trkpt>
      <trkpt lat="40.50106707" lon="-5.2767109"><ele>1813</ele><speed>11.17</speed><time>2016-07-01T12:24:21Z</time><pdop>17.0</pdop><geoidheight>54.00</geoidheight><course>41.9</course><type>1</type></trkpt>
      <trkpt lat="40.50133834" lon="-5.27687509"><ele>1815</ele><speed>8.73</speed><time>2016-07-01T12:24:24Z</time><pdop>13.0</pdop><geoidheight>54.00</geoidheight><course>353.5</course><type>1</type></trkpt>
      <trkpt lat="40.50153553" lon="-5.27703794"><ele>1823</ele><speed>8.14</speed><time>2016-07-01T12:24:27Z</time><pdop>12.0</pdop><geoidheight>54.00</geoidheight><course>347.9</course><type>1</type></trkpt>
      <trkpt lat="40.50175237" lon="-5.27709416"><ele>1829</ele><speed>8.84</speed><time>2016-07-01T12:24:30Z</time><pdop>12.0</pdop><geoidheight>54.00</geoidheight><course>354.8</course><type>1</type></trkpt>
      <trkpt lat="40.50195441" lon="-5.27727898"><ele>1808</ele><speed>5.67</speed><time>2016-07-01T12:24:34Z</time><pdop>12.0</pdop><geoidheight>54.00</geoidheight><course>323.6</course><type>1</type></trkpt>
      <trkpt lat="40.50204509" lon="-5.27756374"><ele>1831</ele><speed>4.40</speed><time>2016-07-01T12:24:40Z</time><pdop>10.0</pdop><geoidheight>54.00</geoidheight><course>261.5</course><type>1</type></trkpt>
      <trkpt lat="40.50188431" lon="-5.27778716"><ele>1838</ele><speed>7.31</speed><time>2016-07-01T12:24:44Z</time><pdop>10.0</pdop><geoidheight>54.00</geoidheight><course>206.1</course><type>1</type></trkpt>
      <trkpt lat="40.50167603" lon="-5.27787472"><ele>1846</ele><speed>7.69</speed><time>2016-07-01T12:24:47Z</time><pdop>10.0</pdop><geoidheight>54.00</geoidheight><course>191.8</course><type>1</type></trkpt>
      <trkpt lat="40.50140377" lon="-5.27778532"><ele>1848</ele><speed>10.41</speed><time>2016-07-01T12:24:50Z</time><pdop>12.0</pdop><geoidheight>54.00</geoidheight><course>163.3</course><type>1</type></trkpt>
      <trkpt lat="40.50123339" lon="-5.27750734"><ele>1857</ele><speed>11.53</speed><time>2016-07-01T12:24:53Z</time><pdop>13.0</pdop><geoidheight>54.00</geoidheight><course>126.3</course><type>1</type></trkpt>
      <trkpt lat="40.50112723" lon="-5.27723971"><ele>1860</ele><speed>13.27</speed><time>2016-07-01T12:24:55Z</time><pdop>12.0</pdop><geoidheight>54.00</geoidheight><course>118.2</course><type>1</type></trkpt>
      <trkpt lat="40.5011405" lon="-5.27684786"><ele>1862</ele><speed>15.68</speed><time>2016-07-01T12:24:57Z</time><pdop>13.0</pdop><geoidheight>54.00</geoidheight><course>95.1</course><type>1</type></trkpt>
      <trkpt lat="40.50120996" lon="-5.27643704"><ele>1866</ele><speed>15.37</speed><time>2016-07-01T12:24:59Z</time><pdop>12.0</pdop><geoidheight>54.00</geoidheight><course>81.0</course><type>1</type></trkpt>
      <trkpt lat="40.50124102" lon="-5.27610235"><ele>1869</ele><speed>13.82</speed><time>2016-07-01T12:25:01Z</time><pdop>12.0</pdop><geoidheight>54.00</geoidheight><course>76.5</course><type>1</type></trkpt>
      <trkpt lat="40.50142971" lon="-5.27592266"><ele>1871</ele><speed>11.65</speed><time>2016-07-01T12:25:03Z</time><pdop>12.0</pdop><geoidheight>54.00</geoidheight><course>50.9</course><type>1</type></trkpt>
      <trkpt lat="40.50168446" lon="-5.27589919"><ele>1873</ele><speed>10.58</speed><time>2016-07-01T12:25:05Z</time><pdop>12.0</pdop><geoidheight>54.00</geoidheight><course>15.9</course><type>1</type></trkpt>
      <trkpt lat="40.50178504" lon="-5.27615762"><ele>1881</ele><speed>5.52</speed><time>2016-07-01T12:25:10Z</time><pdop>12.0</pdop><geoidheight>54.00</geoidheight><course>268.4</course><type>1</type></trkpt>
      <trkpt lat="40.50156062" lon="-5.2763587"><ele>1889</ele><speed>7.32</speed><time>2016-07-01T12:25:14Z</time><pdop>11.0</pdop><geoidheight>54.00</geoidheight><course>199.9</course><type>1</type></trkpt>
      <trkpt lat="40.50133839" lon="-5.27604617"><ele>1898</ele><speed>10.15</speed><time>2016-07-01T12:25:19Z</time><pdop>13.0</pdop><geoidheight>54.00</geoidheight><course>105.6</course><type>1</type></trkpt>
      <trkpt lat="40.50121634" lon="-5.27572213"><ele>1902</ele><speed>12.79</speed><time>2016-07-01T12:25:21Z</time><pdop>13.0</pdop><geoidheight>54.00</geoidheight><course>107.6</course><type>1</type></trkpt>
      <trkpt lat="40.50115438" lon="-5.27532923"><ele>1905</ele><speed>15.40</speed><time>2016-07-01T12:25:23Z</time><pdop>12.0</pdop><geoidheight>54.00</geoidheight><course>94.7</course><type>1</type></trkpt>
      <trkpt lat="40.50118252" lon="-5.27493833"><ele>1906</ele><speed>16.43</speed><time>2016-07-01T12:25:25Z</time><pdop>11.0</pdop><geoidheight>54.00</geoidheight><course>88.6</course><type>1</type></trkpt>
      <trkpt lat="40.50120801" lon="-5.27453491"><ele>1909</ele><speed>16.68</speed><time>2016-07-01T12:25:27Z</time><pdop>10.0</pdop><geoidheight>54.00</geoidheight><course>82.2</course><type>1</type></trkpt>
      <trkpt lat="40.50126213" lon="-5.27416264"><ele>1912</ele><speed>16.19</speed><time>2016-07-01T12:25:29Z</time><pdop>11.0</pdop><geoidheight>54.00</geoidheight><course>77.9</course><type>1</type></trkpt>
      <trkpt lat="40.50135961" lon="-5.27385536"><ele>1913</ele><speed>14.40</speed><time>2016-07-01T12:25:31Z</time><pdop>12.0</pdop><geoidheight>54.00</geoidheight><course>70.2</course><type>1</type></trkpt>
      <trkpt lat="40.50146004" lon="-5.27357478"><ele>1918</ele><speed>12.99</speed><time>2016-07-01T12:25:33Z</time><pdop>13.0</pdop><geoidheight>54.00</geoidheight><course>64.3</course><type>1</type></trkpt>
      <trkpt lat="40.50167071" lon="-5.27337667"><ele>1918</ele><speed>12.02</speed><time>2016-07-01T12:25:35Z</time><pdop>12.0</pdop><geoidheight>54.00</geoidheight><course>48.5</course><type>1</type></trkpt>
      <trkpt lat="40.50194535" lon="-5.27331125"><ele>1918</ele><speed>12.98</speed><time>2016-07-01T12:25:37Z</time><pdop>11.0</pdop><geoidheight>54.00</geoidheight><course>22.0</course><type>1</type></trkpt>
      <trkpt lat="40.50220777" lon="-5.2733081"><ele>1919</ele><speed>8.61</speed><time>2016-07-01T12:25:40Z</time><pdop>12.0</pdop><geoidheight>54.00</geoidheight><course>4.9</course><type>1</type></trkpt>
      <trkpt lat="40.50225477" lon="-5.27364781"><ele>1926</ele><speed>5.05</speed><time>2016-07-01T12:25:44Z</time><pdop>13.0</pdop><geoidheight>54.00</geoidheight><course>272.2</course><type>1</type></trkpt>
      <trkpt lat="40.50218732" lon="-5.27395043"><ele>1929</ele><speed>5.50</speed><time>2016-07-01T12:25:47Z</time><pdop>10.0</pdop><geoidheight>54.00</geoidheight><course>247.7</course><type>1</type></trkpt>
      <trkpt lat="40.50196415" lon="-5.27398154"><ele>1926</ele><speed>8.07</speed><time>2016-07-01T12:25:50Z</time><pdop>11.0</pdop><geoidheight>54.00</geoidheight><course>173.1</course><type>1</type></trkpt>
      <trkpt lat="40.50174978" lon="-5.27380222"><ele>1925</ele><speed>11.47</speed><time>2016-07-01T12:25:52Z</time><pdop>11.0</pdop><geoidheight>54.00</geoidheight><course>143.2</course><type>1</type></trkpt>
      <trkpt lat="40.50162435" lon="-5.27356442"><ele>1928</ele><speed>12.52</speed><time>2016-07-01T12:25:54Z</time><pdop>12.0</pdop><geoidheight>54.00</geoidheight><course>123.3</course><type>1</type></trkpt>
      <trkpt lat="40.50152939" lon="-5.2732505"><ele>1930</ele><speed>13.30</speed><time>2016-07-01T12:25:56Z</time><pdop>11.0</pdop><geoidheight>54.00</geoidheight><course>111.8</course><type>1</type></trkpt>
      <trkpt lat="40.5015004" lon="-5.27290449"><ele>1935</ele><speed>14.25</speed><time>2016-07-01T12:25:58Z</time><pdop>10.0</pdop><geoidheight>54.00</geoidheight><course>92.2</course><type>1</type></trkpt>
      <trkpt lat="40.50152012" lon="-5.27252591"><ele>1936</ele><speed>15.36</speed><time>2016-07-01T12:26:00Z</time><pdop>10.0</pdop><geoidheight>54.00</geoidheight><course>82.9</course><type>1</type></trkpt>
      <trkpt lat="40.50167829" lon="-5.27222563"><ele>1936</ele><speed>14.68</speed><time>2016-07-01T12:26:02Z</time><pdop>10.0</pdop><geoidheight>54.00</geoidheight><course>63.6</course><type>1</type></trkpt>
      <trkpt lat="40.50188611" lon="-5.27201307"><ele>1939</ele><speed>14.32</speed><time>2016-07-01T12:26:04Z</time><pdop>10.0</pdop><geoidheight>54.00</geoidheight><course>45.9</course><type>1</type></trkpt>
      <trkpt lat="40.50207812" lon="-5.27181005"><ele>1915</ele><speed>14.06</speed><time>2016-07-01T12:26:06Z</time><pdop>11.0</pdop><geoidheight>54.00</geoidheight><course>40.3</course><type>1</type></trkpt>
      <trkpt lat="40.50227116" lon="-5.27168693"><ele>1926</ele><speed>11.97</speed><time>2016-07-01T12:26:08Z</time><pdop>10.0</pdop><geoidheight>54.00</geoidheight><course>26.6</course><type>1</type></trkpt>
      <trkpt lat="40.50246646" lon="-5.27164815"><ele>1931</ele><speed>11.01</speed><time>2016-07-01T12:26:10Z</time><pdop>10.0</pdop><geoidheight>54.00</geoidheight><course>5.3</course><type>1</type></trkpt>
      <trkpt lat="40.50265453" lon="-5.27177321"><ele>1932</ele><speed>6.44</speed><time>2016-07-01T12:26:13Z</time><pdop>11.0</pdop><geoidheight>54.00</geoidheight><course>335.7</course><type>1</type></trkpt>
      <trkpt lat="40.5025889" lon="-5.27204081"><ele>1935</ele><speed>5.47</speed><time>2016-07-01T12:26:16Z</time><pdop>10.0</pdop><geoidheight>54.00</geoidheight><course>248.9</course><type>1</type></trkpt>
      <trkpt lat="40.50255118" lon="-5.27228255"><ele>1938</ele><speed>4.47</speed><time>2016-07-01T12:26:21Z</time><pdop>9.0</pdop><geoidheight>54.00</geoidheight><course>245.5</course><type>1</type></trkpt>
      <trkpt lat="40.50239869" lon="-5.27244081"><ele>1941</ele><speed>7.34</speed><time>2016-07-01T12:26:24Z</time><pdop>9.0</pdop><geoidheight>54.00</geoidheight><course>207.2</course><type>1</type></trkpt>
      <trkpt lat="40.50221869" lon="-5.27234406"><ele>1940</ele><speed>7.22</speed><time>2016-07-01T12:26:27Z</time><pdop>11.0</pdop><geoidheight>54.00</geoidheight><course>165.8</course><type>1</type></trkpt>
      <trkpt lat="40.50199281" lon="-5.2721595"><ele>1942</ele><speed>9.30</speed><time>2016-07-01T12:26:30Z</time><pdop>13.0</pdop><geoidheight>54.00</geoidheight><course>141.8</course><type>1</type></trkpt>
      <trkpt lat="40.50186335" lon="-5.27181367"><ele>1941</ele><speed>12.26</speed><time>2016-07-01T12:26:32Z</time><pdop>12.0</pdop><geoidheight>54.00</geoidheight><course>117.8</course><type>1</type></trkpt>
      <trkpt lat="40.50190551" lon="-5.27133677"><ele>1943</ele><speed>14.78</speed><time>2016-07-01T12:26:34Z</time><pdop>11.0</pdop><geoidheight>54.00</geoidheight><course>86.3</course><type>1</type></trkpt>
      <trkpt lat="40.5019473" lon="-5.27100293"><ele>1947</ele><speed>14.63</speed><time>2016-07-01T12:26:36Z</time><pdop>10.0</pdop><geoidheight>54.00</geoidheight><course>76.6</course><type>1</type></trkpt>
      <trkpt lat="40.50203772" lon="-5.27068373"><ele>1948</ele><speed>14.09</speed><time>2016-07-01T12:26:38Z</time><pdop>10.0</pdop><geoidheight>54.00</geoidheight><course>73.5</course><type>1</type></trkpt>
      <trkpt lat="40.50211059" lon="-5.27037692"><ele>1949</ele><speed>13.51</speed><time>2016-07-01T12:26:40Z</time><pdop>11.0</pdop><geoidheight>54.00</geoidheight><course>69.3</course><type>1</type></trkpt>
      <trkpt lat="40.50227474" lon="-5.27009341"><ele>1949</ele><speed>13.32</speed><time>2016-07-01T12:26:42Z</time><pdop>11.0</pdop><geoidheight>54.00</geoidheight><course>58.7</course><type>1</type></trkpt>
      <trkpt lat="40.50251152" lon="-5.26998957"><ele>1950</ele><speed>12.71</speed><time>2016-07-01T12:26:44Z</time><pdop>11.0</pdop><geoidheight>54.00</geoidheight><course>33.7</course><type>1</type></trkpt>
      <trkpt lat="40.50270963" lon="-5.26974168"><ele>1953</ele><speed>14.65</speed><time>2016-07-01T12:26:46Z</time><pdop>11.0</pdop><geoidheight>54.00</geoidheight><course>43.2</course><type>1</type></trkpt>
      <trkpt lat="40.50290963" lon="-5.26950583"><ele>1953</ele><speed>14.30</speed><time>2016-07-01T12:26:48Z</time><pdop>11.0</pdop><geoidheight>54.00</geoidheight><course>42.7</course><type>1</type></trkpt>
      <trkpt lat="40.50313217" lon="-5.26913941"><ele>1956</ele><speed>13.97</speed><time>2016-07-01T12:26:51Z</time><pdop>13.0</pdop><geoidheight>54.00</geoidheight><course>49.6</course><type>1</type></trkpt>
      <trkpt lat="40.50331494" lon="-5.26888243"><ele>1953</ele><speed>14.55</speed><time>2016-07-01T12:26:53Z</time><pdop>12.0</pdop><geoidheight>54.00</geoidheight><course>47.6</course><type>1</type></trkpt>
      <trkpt lat="40.50348882" lon="-5.26870127"><ele>1951</ele><speed>12.82</speed><time>2016-07-01T12:26:55Z</time><pdop>11.0</pdop><geoidheight>54.00</geoidheight><course>42.2</course><type>1</type></trkpt>
      <trkpt lat="40.50374251" lon="-5.26844169"><ele>1951</ele><speed>12.58</speed><time>2016-07-01T12:26:58Z</time><pdop>13.0</pdop><geoidheight>54.00</geoidheight><course>40.1</course><type>1</type></trkpt>
      <trkpt lat="40.50402961" lon="-5.26820021"><ele>1946</ele><speed>15.59</speed><time>2016-07-01T12:27:00Z</time><pdop>13.0</pdop><geoidheight>54.00</geoidheight><course>34.4</course><type>1</type></trkpt>
      <trkpt lat="40.50430749" lon="-5.26793236"><ele>1944</ele><speed>17.07</speed><time>2016-07-01T12:27:02Z</time><pdop>12.0</pdop><geoidheight>54.00</geoidheight><course>39.0</course><type>1</type></trkpt>
      <trkpt lat="40.50452345" lon="-5.2676726"><ele>1941</ele><speed>16.37</speed><time>2016-07-01T12:27:04Z</time><pdop>12.0</pdop><geoidheight>54.00</geoidheight><course>41.1</course><type>1</type></trkpt>
      <trkpt lat="40.5047419" lon="-5.26739857"><ele>1936</ele><speed>16.19</speed><time>2016-07-01T12:27:06Z</time><pdop>12.0</pdop><geoidheight>54.00</geoidheight><course>43.4</course><type>1</type></trkpt>
      <trkpt lat="40.50488847" lon="-5.26711867"><ele>1935</ele><speed>15.88</speed><time>2016-07-01T12:27:08Z</time><pdop>14.0</pdop><geoidheight>54.00</geoidheight><course>48.4</course><type>1</type></trkpt>
      <trkpt lat="40.50517136" lon="-5.26685861"><ele>1927</ele><speed>16.82</speed><time>2016-07-01T12:27:10Z</time><pdop>14.0</pdop><geoidheight>54.00</geoidheight><course>42.9</course><type>1</type></trkpt>
      <trkpt lat="40.50545977" lon="-5.26657279"><ele>1922</ele><speed>17.68</speed><time>2016-07-01T12:27:12Z</time><pdop>14.0</pdop><geoidheight>54.00</geoidheight><course>43.1</course><type>1</type></trkpt>
      <trkpt lat="40.50572186" lon="-5.26623692"><ele>1920</ele><speed>18.64</speed><time>2016-07-01T12:27:14Z</time><pdop>14.0</pdop><geoidheight>54.00</geoidheight><course>45.0</course><type>1</type></trkpt>
      <trkpt lat="40.50595352" lon="-5.26604227"><ele>1912</ele><speed>16.07</speed><time>2016-07-01T12:27:16Z</time><pdop>13.0</pdop><geoidheight>54.00</geoidheight><course>44.7</course><type>1</type></trkpt>
      <trkpt lat="40.50620127" lon="-5.26577654"><ele>1903</ele><speed>16.97</speed><time>2016-07-01T12:27:18Z</time><pdop>12.0</pdop><geoidheight>54.00</geoidheight><course>42.6</course><type>1</type></trkpt>
      <trkpt lat="40.50642338" lon="-5.26549879"><ele>1898</ele><speed>15.78</speed><time>2016-07-01T12:27:20Z</time><pdop>12.0</pdop><geoidheight>54.00</geoidheight><course>46.9</course><type>1</type></trkpt>
      <trkpt lat="40.50660961" lon="-5.26523796"><ele>1894</ele><speed>15.23</speed><time>2016-07-01T12:27:22Z</time><pdop>13.0</pdop><geoidheight>54.00</geoidheight><course>49.3</course><type>1</type></trkpt>
      <trkpt lat="40.50682848" lon="-5.26495875"><ele>1890</ele><speed>16.31</speed><time>2016-07-01T12:27:24Z</time><pdop>12.0</pdop><geoidheight>54.00</geoidheight><course>46.7</course><type>1</type></trkpt>
      <trkpt lat="40.5070734" lon="-5.26473048"><ele>1884</ele><speed>15.77</speed><time>2016-07-01T12:27:26Z</time><pdop>11.0</pdop><geoidheight>54.00</geoidheight><course>41.9</course><type>1</type></trkpt>
      <trkpt lat="40.50724463" lon="-5.26445924"><ele>1881</ele><speed>15.20</speed><time>2016-07-01T12:27:28Z</time><pdop>11.0</pdop><geoidheight>54.00</geoidheight><course>49.4</course><type>1</type></trkpt>
      <trkpt lat="40.50743557" lon="-5.26418673"><ele>1876</ele><speed>14.69</speed><time>2016-07-01T12:27:30Z</time><pdop>12.0</pdop><geoidheight>54.00</geoidheight><course>51.7</course><type>1</type></trkpt>
      <trkpt lat="40.50763237" lon="-5.2639249"><ele>1848</ele><speed>14.84</speed><time>2016-07-01T12:27:32Z</time><pdop>12.0</pdop><geoidheight>54.00</geoidheight><course>49.6</course><type>1</type></trkpt>
      <trkpt lat="40.50787286" lon="-5.2637244"><ele>1853</ele><speed>15.02</speed><time>2016-07-01T12:27:34Z</time><pdop>12.0</pdop><geoidheight>54.00</geoidheight><course>39.6</course><type>1</type></trkpt>
      <trkpt lat="40.50808178" lon="-5.26350773"><ele>1856</ele><speed>13.70</speed><time>2016-07-01T12:27:36Z</time><pdop>11.0</pdop><geoidheight>54.00</geoidheight><course>41.9</course><type>1</type></trkpt>
      <trkpt lat="40.50828935" lon="-5.26332426"><ele>1854</ele><speed>12.99</speed><time>2016-07-01T12:27:38Z</time><pdop>11.0</pdop><geoidheight>54.00</geoidheight><course>38.7</course><type>1</type></trkpt>
      <trkpt lat="40.50851956" lon="-5.26316207"><ele>1857</ele><speed>13.41</speed><time>2016-07-01T12:27:40Z</time><pdop>12.0</pdop><geoidheight>54.00</geoidheight><course>31.7</course><type>1</type></trkpt>
      <trkpt lat="40.50884034" lon="-5.26296292"><ele>1854</ele><speed>12.78</speed><time>2016-07-01T12:27:43Z</time><pdop>13.0</pdop><geoidheight>54.00</geoidheight><course>30.6</course><type>1</type></trkpt>
      <trkpt lat="40.50903385" lon="-5.2628028"><ele>1853</ele><speed>12.96</speed><time>2016-07-01T12:27:45Z</time><pdop>12.0</pdop><geoidheight>54.00</geoidheight><course>29.7</course><type>1</type></trkpt>
      <trkpt lat="40.50927798" lon="-5.26265624"><ele>1855</ele><speed>13.84</speed><time>2016-07-01T12:27:47Z</time><pdop>12.0</pdop><geoidheight>54.00</geoidheight><course>25.8</course><type>1</type></trkpt>
      <trkpt lat="40.50947646" lon="-5.26250514"><ele>1855</ele><speed>13.23</speed><time>2016-07-01T12:27:49Z</time><pdop>12.0</pdop><geoidheight>54.00</geoidheight><course>28.9</course><type>1</type></trkpt>
      <trkpt lat="40.50977901" lon="-5.26226777"><ele>1854</ele><speed>13.13</speed><time>2016-07-01T12:27:52Z</time><pdop>14.0</pdop><geoidheight>54.00</geoidheight><course>30.8</course><type>1</type></trkpt>
      <trkpt lat="40.51003913" lon="-5.26206309"><ele>1854</ele><speed>15.60</speed><time>2016-07-01T12:27:54Z</time><pdop>11.0</pdop><geoidheight>54.00</geoidheight><course>33.4</course><type>1</type></trkpt>
      <trkpt lat="40.51027573" lon="-5.26188663"><ele>1858</ele><speed>14.98</speed><time>2016-07-01T12:27:56Z</time><pdop>11.0</pdop><geoidheight>54.00</geoidheight><course>28.9</course><type>1</type></trkpt>
      <trkpt lat="40.51050633" lon="-5.26169402"><ele>1861</ele><speed>13.61</speed><time>2016-07-01T12:27:58Z</time><pdop>10.0</pdop><geoidheight>54.00</geoidheight><course>30.4</course><type>1</type></trkpt>
      <trkpt lat="40.51066515" lon="-5.26157194"><ele>1863</ele><speed>11.37</speed><time>2016-07-01T12:28:00Z</time><pdop>10.0</pdop><geoidheight>54.00</geoidheight><course>32.5</course><type>1</type></trkpt>
      <trkpt lat="40.51084912" lon="-5.26143014"><ele>1863</ele><speed>12.07</speed><time>2016-07-01T12:28:02Z</time><pdop>10.0</pdop><geoidheight>54.00</geoidheight><course>29.7</course><type>1</type></trkpt>
      <trkpt lat="40.51103825" lon="-5.26129819"><ele>1866</ele><speed>13.17</speed><time>2016-07-01T12:28:04Z</time><pdop>10.0</pdop><geoidheight>54.00</geoidheight><course>26.6</course><type>1</type></trkpt>
      <trkpt lat="40.51126593" lon="-5.26115863"><ele>1869</ele><speed>13.64</speed><time>2016-07-01T12:28:06Z</time><pdop>11.0</pdop><geoidheight>54.00</geoidheight><course>27.3</course><type>1</type></trkpt>
      <trkpt lat="40.51154038" lon="-5.26099503"><ele>1872</ele><speed>15.08</speed><time>2016-07-01T12:28:08Z</time><pdop>11.0</pdop><geoidheight>54.00</geoidheight><course>28.7</course><type>1</type></trkpt>
      <trkpt lat="40.51177632" lon="-5.26079119"><ele>1874</ele><speed>15.72</speed><time>2016-07-01T12:28:10Z</time><pdop>12.0</pdop><geoidheight>54.00</geoidheight><course>29.9</course><type>1</type></trkpt>
      <trkpt lat="40.51203827" lon="-5.26056454"><ele>1881</ele><speed>16.60</speed><time>2016-07-01T12:28:12Z</time><pdop>12.0</pdop><geoidheight>54.00</geoidheight><course>31.8</course><type>1</type></trkpt>
      <trkpt lat="40.51225796" lon="-5.26027845"><ele>1886</ele><speed>18.32</speed><time>2016-07-01T12:28:14Z</time><pdop>11.0</pdop><geoidheight>54.00</geoidheight><course>41.0</course><type>1</type></trkpt>
      <trkpt lat="40.51245203" lon="-5.25987079"><ele>1889</ele><speed>19.69</speed><time>2016-07-01T12:28:16Z</time><pdop>10.0</pdop><geoidheight>54.00</geoidheight><course>54.7</course><type>1</type></trkpt>
      <trkpt lat="40.51265583" lon="-5.2595098"><ele>1890</ele><speed>19.15</speed><time>2016-07-01T12:28:18Z</time><pdop>11.0</pdop><geoidheight>54.00</geoidheight><course>53.6</course><type>1</type></trkpt>
      <trkpt lat="40.51280263" lon="-5.25924967"><ele>1892</ele><speed>15.97</speed><time>2016-07-01T12:28:20Z</time><pdop>11.0</pdop><geoidheight>54.00</geoidheight><course>51.5</course><type>1</type></trkpt>
      <trkpt lat="40.51289844" lon="-5.25897684"><ele>1895</ele><speed>14.12</speed><time>2016-07-01T12:28:22Z</time><pdop>12.0</pdop><geoidheight>54.00</geoidheight><course>56.2</course><type>1</type></trkpt>
      <trkpt lat="40.5129275" lon="-5.2585784"><ele>1898</ele><speed>16.72</speed><time>2016-07-01T12:28:24Z</time><pdop>12.0</pdop><geoidheight>54.00</geoidheight><course>72.6</course><type>1</type></trkpt>
      <trkpt lat="40.51280251" lon="-5.2582658"><ele>1903</ele><speed>14.49</speed><time>2016-07-01T12:28:26Z</time><pdop>13.0</pdop><geoidheight>54.00</geoidheight><course>92.8</course><type>1</type></trkpt>
      <trkpt lat="40.51253614" lon="-5.25805186"><ele>1908</ele><speed>14.34</speed><time>2016-07-01T12:28:28Z</time><pdop>13.0</pdop><geoidheight>54.00</geoidheight><course>124.7</course><type>1</type></trkpt>
      <trkpt lat="40.51223443" lon="-5.25802494"><ele>1919</ele><speed>10.06</speed><time>2016-07-01T12:28:31Z</time><pdop>14.0</pdop><geoidheight>54.00</geoidheight><course>158.1</course><type>1</type></trkpt>
      <trkpt lat="40.51246502" lon="-5.2582183"><ele>1950</ele><speed>8.60</speed><time>2016-07-01T12:28:36Z</time><pdop>13.0</pdop><geoidheight>54.00</geoidheight><course>14.4</course><type>1</type></trkpt>
      <trkpt lat="40.51271705" lon="-5.25795434"><ele>1966</ele><speed>11.64</speed><time>2016-07-01T12:28:40Z</time><pdop>14.0</pdop><geoidheight>54.00</geoidheight><course>42.8</course><type>1</type></trkpt>
      <trkpt lat="40.51266964" lon="-5.25745303"><ele>1972</ele><speed>13.04</speed><time>2016-07-01T12:28:43Z</time><pdop>15.0</pdop><geoidheight>54.00</geoidheight><course>86.9</course><type>1</type></trkpt>
      <trkpt lat="40.5123803" lon="-5.25711399"><ele>1978</ele><speed>12.52</speed><time>2016-07-01T12:28:46Z</time><pdop>17.0</pdop><geoidheight>54.00</geoidheight><course>119.9</course><type>1</type></trkpt>
      <trkpt lat="40.51210174" lon="-5.25731437"><ele>2009</ele><speed>5.16</speed><time>2016-07-01T12:28:54Z</time><pdop>17.0</pdop><geoidheight>54.00</geoidheight><course>294.2</course><type>1</type></trkpt>
      <trkpt lat="40.51227788" lon="-5.25763035"><ele>2024</ele><speed>7.32</speed><time>2016-07-01T12:28:58Z</time><pdop>16.0</pdop><geoidheight>54.00</geoidheight><course>333.2</course><type>1</type></trkpt>
      <trkpt lat="40.51261796" lon="-5.25758466"><ele>2034</ele><speed>11.63</speed><time>2016-07-01T12:29:02Z</time><pdop>10.0</pdop><geoidheight>54.00</geoidheight><course>20.9</course><type>1</type></trkpt>
      <trkpt lat="40.51275184" lon="-5.25726175"><ele>2037</ele><speed>13.01</speed><time>2016-07-01T12:29:04Z</time><pdop>12.0</pdop><geoidheight>54.00</geoidheight><course>48.3</course><type>1</type></trkpt>
      <trkpt lat="40.5126541" lon="-5.25698927"><ele>2040</ele><speed>14.11</speed><time>2016-07-01T12:29:05Z</time><pdop>13.0</pdop><geoidheight>54.00</geoidheight><course>78.1</course><type>1</type></trkpt>
      <trkpt lat="40.51249474" lon="-5.25654848"><ele>2043</ele><speed>15.01</speed><time>2016-07-01T12:29:07Z</time><pdop>12.0</pdop><geoidheight>54.00</geoidheight><course>100.3</course><type>1</type></trkpt>
      <trkpt lat="40.5124076" lon="-5.25624206"><ele>2046</ele><speed>13.81</speed><time>2016-07-01T12:29:09Z</time><pdop>15.0</pdop><geoidheight>54.00</geoidheight><course>102.5</course><type>1</type></trkpt>
      <trkpt lat="40.51227096" lon="-5.25663474"><ele>2072</ele><speed>8.17</speed><time>2016-07-01T12:29:14Z</time><pdop>16.0</pdop><geoidheight>54.00</geoidheight><course>291.9</course><type>1</type></trkpt>
      <trkpt lat="40.5126165" lon="-5.25667514"><ele>2103</ele><speed>8.19</speed><time>2016-07-01T12:29:21Z</time><pdop>18.0</pdop><geoidheight>54.00</geoidheight><course>20.9</course><type>1</type></trkpt>
      <trkpt lat="40.51285651" lon="-5.256282"><ele>2105</ele><speed>13.93</speed><time>2016-07-01T12:29:23Z</time><pdop>21.0</pdop><geoidheight>54.00</geoidheight><course>45.6</course><type>1</type></trkpt>
      <trkpt lat="40.51273644" lon="-5.25573716"><ele>2112</ele><speed>13.23</speed><time>2016-07-01T12:29:26Z</time><pdop>21.0</pdop><geoidheight>54.00</geoidheight><course>87.6</course><type>1</type></trkpt>
      <trkpt lat="40.51256912" lon="-5.25520494"><ele>2115</ele><speed>13.90</speed><time>2016-07-01T12:29:29Z</time><pdop>24.0</pdop><geoidheight>54.00</geoidheight><course>104.2</course><type>1</type></trkpt>
      <trkpt lat="40.51270859" lon="-5.25565519"><ele>2175</ele><speed>9.36</speed><time>2016-07-01T12:29:41Z</time><pdop>14.0</pdop><geoidheight>54.00</geoidheight><course>356.7</course><type>1</type></trkpt>
      <trkpt lat="40.5130093" lon="-5.25568487"><ele>2191</ele><speed>9.66</speed><time>2016-07-01T12:29:45Z</time><pdop>16.0</pdop><geoidheight>54.00</geoidheight><course>17.3</course><type>1</type></trkpt>
      <trkpt lat="40.51322168" lon="-5.25537707"><ele>2195</ele><speed>10.80</speed><time>2016-07-01T12:29:48Z</time><pdop>14.0</pdop><geoidheight>54.00</geoidheight><course>48.0</course><type>1</type></trkpt>
      <trkpt lat="40.51322616" lon="-5.25498229"><ele>2200</ele><speed>13.97</speed><time>2016-07-01T12:29:50Z</time><pdop>12.0</pdop><geoidheight>54.00</geoidheight><course>72.7</course><type>1</type></trkpt>
      <trkpt lat="40.51312767" lon="-5.25462561"><ele>2202</ele><speed>13.93</speed><time>2016-07-01T12:29:52Z</time><pdop>11.0</pdop><geoidheight>54.00</geoidheight><course>100.1</course><type>1</type></trkpt>
      <trkpt lat="40.51300438" lon="-5.2543601"><ele>2206</ele><speed>13.08</speed><time>2016-07-01T12:29:54Z</time><pdop>11.0</pdop><geoidheight>54.00</geoidheight><course>116.5</course><type>1</type></trkpt>
      <trkpt lat="40.51282322" lon="-5.25403368"><ele>2209</ele><speed>14.15</speed><time>2016-07-01T12:29:56Z</time><pdop>9.0</pdop><geoidheight>54.00</geoidheight><course>124.1</course><type>1</type></trkpt>
      <trkpt lat="40.51266905" lon="-5.25386378"><ele>2213</ele><speed>11.81</speed><time>2016-07-01T12:29:58Z</time><pdop>8.0</pdop><geoidheight>54.00</geoidheight><course>137.6</course><type>1</type></trkpt>
      <trkpt lat="40.5125126" lon="-5.2538592"><ele>2220</ele><speed>5.58</speed><time>2016-07-01T12:30:01Z</time><pdop>6.0</pdop><geoidheight>54.00</geoidheight><course>173.5</course><type>1</type></trkpt>
      <trkpt lat="40.51234726" lon="-5.25389507"><ele>2227</ele><speed>5.95</speed><time>2016-07-01T12:30:04Z</time><pdop>5.0</pdop><geoidheight>54.00</geoidheight><course>183.2</course><type>1</type></trkpt>
      <trkpt lat="40.51222096" lon="-5.25393173"><ele>2232</ele><speed>6.86</speed><time>2016-07-01T12:30:06Z</time><pdop>5.0</pdop><geoidheight>54.00</geoidheight><course>197.2</course><type>1</type></trkpt>
      <trkpt lat="40.51217808" lon="-5.25406543"><ele>2241</ele><speed>5.70</speed><time>2016-07-01T12:30:08Z</time><pdop>5.0</pdop><geoidheight>54.00</geoidheight><course>235.1</course><type>1</type></trkpt>
      <trkpt lat="40.51215375" lon="-5.25425598"><ele>2256</ele><speed>8.51</speed><time>2016-07-01T12:30:10Z</time><pdop>4.0</pdop><geoidheight>54.00</geoidheight><course>263.7</course><type>1</type></trkpt>
      <trkpt lat="40.51218612" lon="-5.25434743"><ele>2267</ele><speed>8.82</speed><time>2016-07-01T12:30:11Z</time><pdop>3.0</pdop><geoidheight>54.00</geoidheight><course>288.3</course><type>1</type></trkpt>
      <trkpt lat="40.51226133" lon="-5.25441982"><ele>2284</ele><speed>8.33</speed><time>2016-07-01T12:30:13Z</time><pdop>4.0</pdop><geoidheight>54.00</geoidheight><course>332.4</course><type>1</type></trkpt>
      <trkpt lat="40.51239446" lon="-5.2544343"><ele>2296</ele><speed>8.98</speed><time>2016-07-01T12:30:15Z</time><pdop>6.0</pdop><geoidheight>54.00</geoidheight><course>353.8</course><type>1</type></trkpt>
      <trkpt lat="40.51252867" lon="-5.25426673"><ele>2303</ele><speed>12.61</speed><time>2016-07-01T12:30:16Z</time><pdop>7.0</pdop><geoidheight>54.00</geoidheight><course>28.4</course><type>1</type></trkpt>
      <trkpt lat="40.5127105" lon="-5.2540734"><ele>2308</ele><speed>16.85</speed><time>2016-07-01T12:30:17Z</time><pdop>7.0</pdop><geoidheight>54.00</geoidheight><course>33.7</course><type>1</type></trkpt>
      <trkpt lat="40.51284492" lon="-5.2538215"><ele>2311</ele><speed>19.38</speed><time>2016-07-01T12:30:18Z</time><pdop>7.0</pdop><geoidheight>54.00</geoidheight><course>43.6</course><type>1</type></trkpt>
      <trkpt lat="40.51290568" lon="-5.25351413"><ele>2306</ele><speed>20.33</speed><time>2016-07-01T12:30:19Z</time><pdop>9.0</pdop><geoidheight>54.00</geoidheight><course>58.7</course><type>1</type></trkpt>
      <trkpt lat="40.51292693" lon="-5.2531381"><ele>2303</ele><speed>16.72</speed><time>2016-07-01T12:30:21Z</time><pdop>12.0</pdop><geoidheight>54.00</geoidheight><course>68.9</course><type>1</type></trkpt>
      <trkpt lat="40.512834" lon="-5.25281505"><ele>2306</ele><speed>11.35</speed><time>2016-07-01T12:30:24Z</time><pdop>13.0</pdop><geoidheight>54.00</geoidheight><course>88.8</course><type>1</type></trkpt>
      <trkpt lat="40.51257856" lon="-5.25265787"><ele>2312</ele><speed>11.01</speed><time>2016-07-01T12:30:26Z</time><pdop>10.0</pdop><geoidheight>54.00</geoidheight><course>133.9</course><type>1</type></trkpt>
      <trkpt lat="40.51238996" lon="-5.25256417"><ele>2321</ele><speed>10.14</speed><time>2016-07-01T12:30:28Z</time><pdop>9.0</pdop><geoidheight>54.00</geoidheight><course>151.7</course><type>1</type></trkpt>
      <trkpt lat="40.5125216" lon="-5.25271083"><ele>2332</ele><speed>6.98</speed><time>2016-07-01T12:30:34Z</time><pdop>9.0</pdop><geoidheight>54.00</geoidheight><course>340.3</course><type>1</type></trkpt>
      <trkpt lat="40.51269232" lon="-5.2527069"><ele>2336</ele><speed>8.77</speed><time>2016-07-01T12:30:36Z</time><pdop>10.0</pdop><geoidheight>54.00</geoidheight><course>1.6</course><type>1</type></trkpt>
      <trkpt lat="40.51295247" lon="-5.25252283"><ele>2340</ele><speed>12.34</speed><time>2016-07-01T12:30:38Z</time><pdop>11.0</pdop><geoidheight>54.00</geoidheight><course>20.3</course><type>1</type></trkpt>
      <trkpt lat="40.51312978" lon="-5.25232499"><ele>2341</ele><speed>16.23</speed><time>2016-07-01T12:30:39Z</time><pdop>12.0</pdop><geoidheight>54.00</geoidheight><course>31.3</course><type>1</type></trkpt>
      <trkpt lat="40.51319494" lon="-5.25197861"><ele>2344</ele><speed>13.93</speed><time>2016-07-01T12:30:41Z</time><pdop>12.0</pdop><geoidheight>54.00</geoidheight><course>55.6</course><type>1</type></trkpt>
      <trkpt lat="40.51306501" lon="-5.25165694"><ele>2349</ele><speed>11.57</speed><time>2016-07-01T12:30:43Z</time><pdop>11.0</pdop><geoidheight>54.00</geoidheight><course>91.7</course><type>1</type></trkpt>
      <trkpt lat="40.51297113" lon="-5.25131757"><ele>2354</ele><speed>9.32</speed><time>2016-07-01T12:30:46Z</time><pdop>17.0</pdop><geoidheight>54.00</geoidheight><course>101.6</course><type>1</type></trkpt>
      <trkpt lat="40.51316335" lon="-5.25153913"><ele>2372</ele><speed>6.08</speed><time>2016-07-01T12:30:53Z</time><pdop>11.0</pdop><geoidheight>54.00</geoidheight><course>357.4</course><type>1</type></trkpt>
      <trkpt lat="40.51337917" lon="-5.25163054"><ele>2372</ele><speed>8.25</speed><time>2016-07-01T12:30:56Z</time><pdop>9.0</pdop><geoidheight>54.00</geoidheight><course>342.9</course><type>1</type></trkpt>
      <trkpt lat="40.51351456" lon="-5.25178373"><ele>2377</ele><speed>3.89</speed><time>2016-07-01T12:30:59Z</time><pdop>9.0</pdop><geoidheight>54.00</geoidheight><course>313.7</course><type>1</type></trkpt>
      <trkpt lat="40.51337934" lon="-5.25190519"><ele>2379</ele><speed>5.97</speed><time>2016-07-01T12:31:03Z</time><pdop>8.0</pdop><geoidheight>54.00</geoidheight><course>190.5</course><type>1</type></trkpt>
      <trkpt lat="40.51323412" lon="-5.25198345"><ele>2381</ele><speed>7.36</speed><time>2016-07-01T12:31:05Z</time><pdop>8.0</pdop><geoidheight>54.00</geoidheight><course>190.0</course><type>1</type></trkpt>
      <trkpt lat="40.51303883" lon="-5.2519591"><ele>2385</ele><speed>10.49</speed><time>2016-07-01T12:31:07Z</time><pdop>6.0</pdop><geoidheight>54.00</geoidheight><course>168.7</course><type>1</type></trkpt>
      <trkpt lat="40.51284287" lon="-5.25191875"><ele>2388</ele><speed>10.45</speed><time>2016-07-01T12:31:09Z</time><pdop>5.0</pdop><geoidheight>54.00</geoidheight><course>160.7</course><type>1</type></trkpt>
      <trkpt lat="40.51275962" lon="-5.25186895"><ele>2387</ele><speed>10.15</speed><time>2016-07-01T12:31:10Z</time><pdop>5.0</pdop><geoidheight>54.00</geoidheight><course>161.5</course><type>1</type></trkpt>
      <trkpt lat="40.51260449" lon="-5.25181307"><ele>2390</ele><speed>9.41</speed><time>2016-07-01T12:31:12Z</time><pdop>5.0</pdop><geoidheight>54.00</geoidheight><course>162.0</course><type>1</type></trkpt>
      <trkpt lat="40.51243182" lon="-5.25170979"><ele>2392</ele><speed>10.52</speed><time>2016-07-01T12:31:14Z</time><pdop>5.0</pdop><geoidheight>54.00</geoidheight><course>151.5</course><type>1</type></trkpt>
      <trkpt lat="40.512295" lon="-5.25165507"><ele>2393</ele><speed>7.38</speed><time>2016-07-01T12:31:16Z</time><pdop>4.0</pdop><geoidheight>54.00</geoidheight><course>165.6</course><type>1</type></trkpt>
      <trkpt lat="40.51247804" lon="-5.25179019"><ele>2390</ele><speed>7.07</speed><time>2016-07-01T12:31:22Z</time><pdop>8.0</pdop><geoidheight>54.00</geoidheight><course>342.0</course><type>1</type></trkpt>
      <trkpt lat="40.51262446" lon="-5.25182505"><ele>2395</ele><speed>4.71</speed><time>2016-07-01T12:31:25Z</time><pdop>6.0</pdop><geoidheight>54.00</geoidheight><course>7.1</course><type>1</type></trkpt>
      <trkpt lat="40.51274944" lon="-5.25183486"><ele>2398</ele><speed>6.45</speed><time>2016-07-01T12:31:27Z</time><pdop>6.0</pdop><geoidheight>54.00</geoidheight><course>0.4</course><type>1</type></trkpt>
      <trkpt lat="40.51285115" lon="-5.25187141"><ele>2407</ele><speed>6.59</speed><time>2016-07-01T12:31:29Z</time><pdop>5.0</pdop><geoidheight>54.00</geoidheight><course>1.3</course><type>1</type></trkpt>
      <trkpt lat="40.51300874" lon="-5.25188209"><ele>2410</ele><speed>6.40</speed><time>2016-07-01T12:31:32Z</time><pdop>8.0</pdop><geoidheight>54.00</geoidheight><course>6.7</course><type>1</type></trkpt>
      <trkpt lat="40.51321584" lon="-5.25179071"><ele>2410</ele><speed>11.32</speed><time>2016-07-01T12:31:34Z</time><pdop>6.0</pdop><geoidheight>54.00</geoidheight><course>16.2</course><type>1</type></trkpt>
      <trkpt lat="40.51342892" lon="-5.25172498"><ele>2412</ele><speed>13.17</speed><time>2016-07-01T12:31:36Z</time><pdop>7.0</pdop><geoidheight>54.00</geoidheight><course>13.6</course><type>1</type></trkpt>
      <trkpt lat="40.51367119" lon="-5.25160627"><ele>2413</ele><speed>13.91</speed><time>2016-07-01T12:31:38Z</time><pdop>8.0</pdop><geoidheight>54.00</geoidheight><course>17.5</course><type>1</type></trkpt>
      <trkpt lat="40.51381724" lon="-5.25150078"><ele>2413</ele><speed>15.72</speed><time>2016-07-01T12:31:39Z</time><pdop>8.0</pdop><geoidheight>54.00</geoidheight><course>25.6</course><type>1</type></trkpt>
      <trkpt lat="40.5140721" lon="-5.25129535"><ele>2417</ele><speed>17.34</speed><time>2016-07-01T12:31:41Z</time><pdop>12.0</pdop><geoidheight>54.00</geoidheight><course>30.8</course><type>1</type></trkpt>
      <trkpt lat="40.51408455" lon="-5.25085773"><ele>2419</ele><speed>16.30</speed><time>2016-07-01T12:31:43Z</time><pdop>9.0</pdop><geoidheight>54.00</geoidheight><course>64.3</course><type>1</type></trkpt>
      <trkpt lat="40.51399627" lon="-5.25056248"><ele>2421</ele><speed>12.08</speed><time>2016-07-01T12:31:45Z</time><pdop>9.0</pdop><geoidheight>54.00</geoidheight><course>85.3</course><type>1</type></trkpt>
      <trkpt lat="40.51383715" lon="-5.25027149"><ele>2421</ele><speed>11.65</speed><time>2016-07-01T12:31:47Z</time><pdop>13.0</pdop><geoidheight>54.00</geoidheight><course>108.3</course><type>1</type></trkpt>
      <trkpt lat="40.51411229" lon="-5.24978522"><ele>2441</ele><speed>12.37</speed><time>2016-07-01T12:31:58Z</time><pdop>20.0</pdop><geoidheight>54.00</geoidheight><course>63.9</course><type>1</type></trkpt>
      <trkpt lat="40.51428964" lon="-5.24935738"><ele>2443</ele><speed>16.10</speed><time>2016-07-01T12:32:00Z</time><pdop>20.0</pdop><geoidheight>54.00</geoidheight><course>65.7</course><type>1</type></trkpt>
      <trkpt lat="40.51399445" lon="-5.2488613"><ele>2448</ele><speed>14.77</speed><time>2016-07-01T12:32:03Z</time><pdop>18.0</pdop><geoidheight>54.00</geoidheight><course>116.4</course><type>1</type></trkpt>
      <trkpt lat="40.51370547" lon="-5.24875797"><ele>2467</ele><speed>7.40</speed><time>2016-07-01T12:32:07Z</time><pdop>9.0</pdop><geoidheight>54.00</geoidheight><course>179.4</course><type>1</type></trkpt>
      <trkpt lat="40.51364742" lon="-5.24895495"><ele>2483</ele><speed>4.75</speed><time>2016-07-01T12:32:11Z</time><pdop>8.0</pdop><geoidheight>54.00</geoidheight><course>288.6</course><type>1</type></trkpt>
      <trkpt lat="40.51377824" lon="-5.24899523"><ele>2489</ele><speed>7.03</speed><time>2016-07-01T12:32:13Z</time><pdop>6.0</pdop><geoidheight>54.00</geoidheight><course>332.6</course><type>1</type></trkpt>
      <trkpt lat="40.51399908" lon="-5.24895824"><ele>2494</ele><speed>7.79</speed><time>2016-07-01T12:32:16Z</time><pdop>10.0</pdop><geoidheight>54.00</geoidheight><course>6.7</course><type>1</type></trkpt>
      <trkpt lat="40.51426807" lon="-5.24872369"><ele>2495</ele><speed>12.81</speed><time>2016-07-01T12:32:18Z</time><pdop>13.0</pdop><geoidheight>54.00</geoidheight><course>29.1</course><type>1</type></trkpt>
      <trkpt lat="40.51442697" lon="-5.24843376"><ele>2498</ele><speed>13.64</speed><time>2016-07-01T12:32:20Z</time><pdop>12.0</pdop><geoidheight>54.00</geoidheight><course>42.7</course><type>1</type></trkpt>
      <trkpt lat="40.51440275" lon="-5.2479189"><ele>2500</ele><speed>15.97</speed><time>2016-07-01T12:32:22Z</time><pdop>10.0</pdop><geoidheight>54.00</geoidheight><course>73.6</course><type>1</type></trkpt>
      <trkpt lat="40.5143911" lon="-5.24765613"><ele>2501</ele><speed>16.95</speed><time>2016-07-01T12:32:23Z</time><pdop>10.0</pdop><geoidheight>54.00</geoidheight><course>79.6</course><type>1</type></trkpt>
      <trkpt lat="40.51440375" lon="-5.24724899"><ele>2502</ele><speed>16.81</speed><time>2016-07-01T12:32:25Z</time><pdop>9.0</pdop><geoidheight>54.00</geoidheight><course>82.6</course><type>1</type></trkpt>
      <trkpt lat="40.51441003" lon="-5.24686822"><ele>2506</ele><speed>16.84</speed><time>2016-07-01T12:32:27Z</time><pdop>11.0</pdop><geoidheight>54.00</geoidheight><course>83.8</course><type>1</type></trkpt>
      <trkpt lat="40.51452046" lon="-5.24651166"><ele>2506</ele><speed>15.85</speed><time>2016-07-01T12:32:29Z</time><pdop>9.0</pdop><geoidheight>54.00</geoidheight><course>74.6</course><type>1</type></trkpt>
      <trkpt lat="40.51462277" lon="-5.24614788"><ele>2508</ele><speed>15.41</speed><time>2016-07-01T12:32:31Z</time><pdop>11.0</pdop><geoidheight>54.00</geoidheight><course>71.7</course><type>1</type></trkpt>
      <trkpt lat="40.5146868" lon="-5.24579302"><ele>2509</ele><speed>14.81</speed><time>2016-07-01T12:32:33Z</time><pdop>9.0</pdop><geoidheight>54.00</geoidheight><course>72.5</course><type>1</type></trkpt>
      <trkpt lat="40.51480917" lon="-5.24545335"><ele>2509</ele><speed>15.19</speed><time>2016-07-01T12:32:35Z</time><pdop>12.0</pdop><geoidheight>54.00</geoidheight><course>69.1</course><type>1</type></trkpt>
      <trkpt lat="40.51516874" lon="-5.24442756"><ele>2275</ele><speed>17.95</speed><time>2016-07-01T12:32:40Z</time><pdop>8.0</pdop><geoidheight>54.00</geoidheight><course>63.7</course><type>1</type></trkpt>
      <trkpt lat="40.51544255" lon="-5.24380644"><ele>2271</ele><speed>14.96</speed><time>2016-07-01T12:32:44Z</time><pdop>9.0</pdop><geoidheight>54.00</geoidheight><course>57.9</course><type>1</type></trkpt>
      <trkpt lat="40.515577" lon="-5.24351368"><ele>2361</ele><speed>14.82</speed><time>2016-07-01T12:32:46Z</time><pdop>9.0</pdop><geoidheight>54.00</geoidheight><course>59.5</course><type>1</type></trkpt>
      <trkpt lat="40.51558976" lon="-5.24317913"><ele>2425</ele><speed>15.12</speed><time>2016-07-01T12:32:48Z</time><pdop>8.0</pdop><geoidheight>54.00</geoidheight><course>71.1</course><type>1</type></trkpt>
      <trkpt lat="40.51567189" lon="-5.24300045"><ele>2438</ele><speed>16.52</speed><time>2016-07-01T12:32:49Z</time><pdop>9.0</pdop><geoidheight>54.00</geoidheight><course>67.4</course><type>1</type></trkpt>
      <trkpt lat="40.5157339" lon="-5.24279972"><ele>2440</ele><speed>17.52</speed><time>2016-07-01T12:32:50Z</time><pdop>9.0</pdop><geoidheight>54.00</geoidheight><course>67.2</course><type>1</type></trkpt>
      <trkpt lat="40.51588015" lon="-5.24247955"><ele>2445</ele><speed>16.65</speed><time>2016-07-01T12:32:52Z</time><pdop>8.0</pdop><geoidheight>54.00</geoidheight><course>61.8</course><type>1</type></trkpt>
      <trkpt lat="40.51602758" lon="-5.24222212"><ele>2471</ele><speed>14.03</speed><time>2016-07-01T12:32:54Z</time><pdop>7.0</pdop><geoidheight>54.00</geoidheight><course>59.8</course><type>1</type></trkpt>
      <trkpt lat="40.51608978" lon="-5.2420801"><ele>2477</ele><speed>14.13</speed><time>2016-07-01T12:32:55Z</time><pdop>6.0</pdop><geoidheight>54.00</geoidheight><course>58.6</course><type>1</type></trkpt>
      <trkpt lat="40.51616204" lon="-5.24193808"><ele>2472</ele><speed>14.20</speed><time>2016-07-01T12:32:56Z</time><pdop>8.0</pdop><geoidheight>54.00</geoidheight><course>58.4</course><type>1</type></trkpt>
      <trkpt lat="40.51629982" lon="-5.24165586"><ele>2478</ele><speed>14.30</speed><time>2016-07-01T12:32:58Z</time><pdop>8.0</pdop><geoidheight>54.00</geoidheight><course>57.3</course><type>1</type></trkpt>
      <trkpt lat="40.5164096" lon="-5.24134891"><ele>2491</ele><speed>14.98</speed><time>2016-07-01T12:33:00Z</time><pdop>7.0</pdop><geoidheight>54.00</geoidheight><course>67.0</course><type>1</type></trkpt>
      <trkpt lat="40.51646634" lon="-5.24118864"><ele>2492</ele><speed>14.68</speed><time>2016-07-01T12:33:01Z</time><pdop>7.0</pdop><geoidheight>54.00</geoidheight><course>66.8</course><type>1</type></trkpt>
      <trkpt lat="40.51652217" lon="-5.24101917"><ele>2497</ele><speed>14.78</speed><time>2016-07-01T12:33:02Z</time><pdop>8.0</pdop><geoidheight>54.00</geoidheight><course>67.0</course><type>1</type></trkpt>
      <trkpt lat="40.51657747" lon="-5.24069764"><ele>2506</ele><speed>14.46</speed><time>2016-07-01T12:33:04Z</time><pdop>11.0</pdop><geoidheight>54.00</geoidheight><course>71.6</course><type>1</type></trkpt>
      <trkpt lat="40.51662368" lon="-5.24037838"><ele>2512</ele><speed>13.98</speed><time>2016-07-01T12:33:06Z</time><pdop>12.0</pdop><geoidheight>54.00</geoidheight><course>73.3</course><type>1</type></trkpt>
      <trkpt lat="40.51671679" lon="-5.24003539"><ele>2512</ele><speed>14.90</speed><time>2016-07-01T12:33:08Z</time><pdop>12.0</pdop><geoidheight>54.00</geoidheight><course>72.0</course><type>1</type></trkpt>
      <trkpt lat="40.51678939" lon="-5.23970619"><ele>2518</ele><speed>14.76</speed><time>2016-07-01T12:33:10Z</time><pdop>12.0</pdop><geoidheight>54.00</geoidheight><course>73.1</course><type>1</type></trkpt>
      <trkpt lat="40.51687632" lon="-5.23935163"><ele>2512</ele><speed>14.96</speed><time>2016-07-01T12:33:12Z</time><pdop>15.0</pdop><geoidheight>54.00</geoidheight><course>73.3</course><type>1</type></trkpt>
      <trkpt lat="40.51708048" lon="-5.23902228"><ele>2513</ele><speed>15.60</speed><time>2016-07-01T12:33:14Z</time><pdop>19.0</pdop><geoidheight>54.00</geoidheight><course>64.8</course><type>1</type></trkpt>
      <trkpt lat="40.51716922" lon="-5.23858037"><ele>2519</ele><speed>14.51</speed><time>2016-07-01T12:33:17Z</time><pdop>14.0</pdop><geoidheight>54.00</geoidheight><course>68.2</course><type>1</type></trkpt>
      <trkpt lat="40.51734438" lon="-5.23828947"><ele>2523</ele><speed>14.71</speed><time>2016-07-01T12:33:19Z</time><pdop>14.0</pdop><geoidheight>54.00</geoidheight><course>61.9</course><type>1</type></trkpt>
      <trkpt lat="40.51751816" lon="-5.23795512"><ele>2525</ele><speed>16.60</speed><time>2016-07-01T12:33:21Z</time><pdop>11.0</pdop><geoidheight>54.00</geoidheight><course>59.5</course><type>1</type></trkpt>
      <trkpt lat="40.51764261" lon="-5.23765513"><ele>2526</ele><speed>16.06</speed><time>2016-07-01T12:33:23Z</time><pdop>11.0</pdop><geoidheight>54.00</geoidheight><course>59.4</course><type>1</type></trkpt>
      <trkpt lat="40.51778787" lon="-5.23732949"><ele>2527</ele><speed>15.88</speed><time>2016-07-01T12:33:25Z</time><pdop>11.0</pdop><geoidheight>54.00</geoidheight><course>58.7</course><type>1</type></trkpt>
      <trkpt lat="40.51794528" lon="-5.23698108"><ele>2526</ele><speed>15.89</speed><time>2016-07-01T12:33:27Z</time><pdop>11.0</pdop><geoidheight>54.00</geoidheight><course>57.8</course><type>1</type></trkpt>
      <trkpt lat="40.51812845" lon="-5.23665079"><ele>2526</ele><speed>16.33</speed><time>2016-07-01T12:33:29Z</time><pdop>12.0</pdop><geoidheight>54.00</geoidheight><course>56.1</course><type>1</type></trkpt>
      <trkpt lat="40.5183732" lon="-5.23633076"><ele>2524</ele><speed>17.32</speed><time>2016-07-01T12:33:31Z</time><pdop>13.0</pdop><geoidheight>54.00</geoidheight><course>51.1</course><type>1</type></trkpt>
      <trkpt lat="40.51855395" lon="-5.23606287"><ele>2524</ele><speed>16.22</speed><time>2016-07-01T12:33:33Z</time><pdop>13.0</pdop><geoidheight>54.00</geoidheight><course>49.9</course><type>1</type></trkpt>
      <trkpt lat="40.5187322" lon="-5.23577646"><ele>2521</ele><speed>15.22</speed><time>2016-07-01T12:33:35Z</time><pdop>13.0</pdop><geoidheight>54.00</geoidheight><course>47.8</course><type>1</type></trkpt>
      <trkpt lat="40.51891056" lon="-5.2355104"><ele>2521</ele><speed>15.05</speed><time>2016-07-01T12:33:37Z</time><pdop>13.0</pdop><geoidheight>54.00</geoidheight><course>48.1</course><type>1</type></trkpt>
      <trkpt lat="40.51912467" lon="-5.23535284"><ele>2521</ele><speed>14.27</speed><time>2016-07-01T12:33:39Z</time><pdop>12.0</pdop><geoidheight>54.00</geoidheight><course>40.7</course><type>1</type></trkpt>
      <trkpt lat="40.51928444" lon="-5.23514578"><ele>2519</ele><speed>13.32</speed><time>2016-07-01T12:33:41Z</time><pdop>11.0</pdop><geoidheight>54.00</geoidheight><course>41.8</course><type>1</type></trkpt>
      <trkpt lat="40.51947624" lon="-5.23483648"><ele>2517</ele><speed>16.05</speed><time>2016-07-01T12:33:43Z</time><pdop>11.0</pdop><geoidheight>54.00</geoidheight><course>44.4</course><type>1</type></trkpt>
      <trkpt lat="40.51963631" lon="-5.23454085"><ele>2512</ele><speed>15.68</speed><time>2016-07-01T12:33:45Z</time><pdop>11.0</pdop><geoidheight>54.00</geoidheight><course>51.3</course><type>1</type></trkpt>
      <trkpt lat="40.51979774" lon="-5.23426121"><ele>2508</ele><speed>15.22</speed><time>2016-07-01T12:33:47Z</time><pdop>12.0</pdop><geoidheight>54.00</geoidheight><course>51.5</course><type>1</type></trkpt>
      <trkpt lat="40.52000551" lon="-5.23401608"><ele>2504</ele><speed>15.36</speed><time>2016-07-01T12:33:49Z</time><pdop>13.0</pdop><geoidheight>54.00</geoidheight><course>47.4</course><type>1</type></trkpt>
      <trkpt lat="40.52021913" lon="-5.23368966"><ele>2498</ele><speed>16.91</speed><time>2016-07-01T12:33:51Z</time><pdop>17.0</pdop><geoidheight>54.00</geoidheight><course>49.7</course><type>1</type></trkpt>
      <trkpt lat="40.52043553" lon="-5.2333712"><ele>2497</ele><speed>17.45</speed><time>2016-07-01T12:33:53Z</time><pdop>18.0</pdop><geoidheight>54.00</geoidheight><course>49.8</course><type>1</type></trkpt>
      <trkpt lat="40.52072954" lon="-5.23303529"><ele>2494</ele><speed>18.45</speed><time>2016-07-01T12:33:55Z</time><pdop>15.0</pdop><geoidheight>54.00</geoidheight><course>45.4</course><type>1</type></trkpt>
      <trkpt lat="40.52092172" lon="-5.23257429"><ele>2482</ele><speed>16.38</speed><time>2016-07-01T12:33:58Z</time><pdop>16.0</pdop><geoidheight>54.00</geoidheight><course>52.4</course><type>1</type></trkpt>
      <trkpt lat="40.52117492" lon="-5.23221707"><ele>2479</ele><speed>18.05</speed><time>2016-07-01T12:34:00Z</time><pdop>16.0</pdop><geoidheight>54.00</geoidheight><course>50.0</course><type>1</type></trkpt>
      <trkpt lat="40.52140258" lon="-5.2318993"><ele>2025</ele><speed>13.67</speed><time>2016-07-01T12:34:03Z</time><pdop>13.0</pdop><geoidheight>54.00</geoidheight><course>44.3</course><type>1</type></trkpt>
      <trkpt lat="40.5219899" lon="-5.23148223"><ele>2143</ele><speed>17.95</speed><time>2016-07-01T12:34:07Z</time><pdop>17.0</pdop><geoidheight>54.00</geoidheight><course>31.0</course><type>1</type></trkpt>
      <trkpt lat="40.52227797" lon="-5.23125891"><ele>2203</ele><speed>18.28</speed><time>2016-07-01T12:34:09Z</time><pdop>14.0</pdop><geoidheight>54.00</geoidheight><course>32.4</course><type>1</type></trkpt>
      <trkpt lat="40.52269608" lon="-5.23085424"><ele>2110</ele><speed>18.38</speed><time>2016-07-01T12:34:12Z</time><pdop>14.0</pdop><geoidheight>54.00</geoidheight><course>35.4</course><type>1</type></trkpt>
      <trkpt lat="40.5229795" lon="-5.23058847"><ele>2170</ele><speed>12.82</speed><time>2016-07-01T12:34:15Z</time><pdop>15.0</pdop><geoidheight>54.00</geoidheight><course>37.9</course><type>1</type></trkpt>
      <trkpt lat="40.52323438" lon="-5.23044067"><ele>2216</ele><speed>14.40</speed><time>2016-07-01T12:34:17Z</time><pdop>14.0</pdop><geoidheight>54.00</geoidheight><course>25.1</course><type>1</type></trkpt>
      <trkpt lat="40.52348391" lon="-5.23026358"><ele>2266</ele><speed>14.89</speed><time>2016-07-01T12:34:19Z</time><pdop>14.0</pdop><geoidheight>54.00</geoidheight><course>27.2</course><type>1</type></trkpt>
      <trkpt lat="40.52379587" lon="-5.22990054"><ele>2312</ele><speed>16.02</speed><time>2016-07-01T12:34:22Z</time><pdop>14.0</pdop><geoidheight>54.00</geoidheight><course>36.2</course><type>1</type></trkpt>
      <trkpt lat="40.52405608" lon="-5.22963355"><ele>2312</ele><speed>15.72</speed><time>2016-07-01T12:34:24Z</time><pdop>14.0</pdop><geoidheight>54.00</geoidheight><course>36.5</course><type>1</type></trkpt>
      <trkpt lat="40.52433931" lon="-5.22935396"><ele>2327</ele><speed>12.78</speed><time>2016-07-01T12:34:27Z</time><pdop>14.0</pdop><geoidheight>54.00</geoidheight><course>38.1</course><type>1</type></trkpt>
      <trkpt lat="40.52462662" lon="-5.22902122"><ele>2348</ele><speed>13.67</speed><time>2016-07-01T12:34:30Z</time><pdop>16.0</pdop><geoidheight>54.00</geoidheight><course>40.5</course><type>1</type></trkpt>
      <trkpt lat="40.52488873" lon="-5.22878904"><ele>2352</ele><speed>15.52</speed><time>2016-07-01T12:34:32Z</time><pdop>17.0</pdop><geoidheight>54.00</geoidheight><course>38.3</course><type>1</type></trkpt>
      <trkpt lat="40.52514599" lon="-5.22842665"><ele>2355</ele><speed>13.61</speed><time>2016-07-01T12:34:35Z</time><pdop>18.0</pdop><geoidheight>54.00</geoidheight><course>41.9</course><type>1</type></trkpt>
      <trkpt lat="40.52557954" lon="-5.2280601"><ele>2368</ele><speed>11.99</speed><time>2016-07-01T12:34:40Z</time><pdop>27.0</pdop><geoidheight>54.00</geoidheight><course>33.1</course><type>1</type></trkpt>
      <trkpt lat="40.52599108" lon="-5.2277549"><ele>2179</ele><speed>14.19</speed><time>2016-07-01T12:34:43Z</time><pdop>14.0</pdop><geoidheight>54.00</geoidheight><course>28.1</course><type>1</type></trkpt>
      <trkpt lat="40.52630896" lon="-5.22750275"><ele>2215</ele><speed>13.17</speed><time>2016-07-01T12:34:46Z</time><pdop>18.0</pdop><geoidheight>54.00</geoidheight><course>29.1</course><type>1</type></trkpt>
      <trkpt lat="40.52661274" lon="-5.2271919"><ele>2238</ele><speed>15.30</speed><time>2016-07-01T12:34:49Z</time><pdop>20.0</pdop><geoidheight>54.00</geoidheight><course>37.0</course><type>1</type></trkpt>
      <trkpt lat="40.52696241" lon="-5.22687006"><ele>2249</ele><speed>13.27</speed><time>2016-07-01T12:34:52Z</time><pdop>20.0</pdop><geoidheight>54.00</geoidheight><course>39.8</course><type>1</type></trkpt>
      <trkpt lat="40.52742882" lon="-5.22653463"><ele>2282</ele><speed>14.47</speed><time>2016-07-01T12:34:56Z</time><pdop>17.0</pdop><geoidheight>54.00</geoidheight><course>34.7</course><type>1</type></trkpt>
      <trkpt lat="40.5277896" lon="-5.22621729"><ele>2282</ele><speed>14.45</speed><time>2016-07-01T12:34:59Z</time><pdop>19.0</pdop><geoidheight>54.00</geoidheight><course>34.8</course><type>1</type></trkpt>
      <trkpt lat="40.52812514" lon="-5.22580097"><ele>2283</ele><speed>15.01</speed><time>2016-07-01T12:35:02Z</time><pdop>16.0</pdop><geoidheight>54.00</geoidheight><course>38.5</course><type>1</type></trkpt>
      <trkpt lat="40.528364" lon="-5.2255166"><ele>2128</ele><speed>15.33</speed><time>2016-07-01T12:35:04Z</time><pdop>16.0</pdop><geoidheight>54.00</geoidheight><course>37.7</course><type>1</type></trkpt>
      <trkpt lat="40.5285999" lon="-5.2252393"><ele>2152</ele><speed>15.48</speed><time>2016-07-01T12:35:06Z</time><pdop>19.0</pdop><geoidheight>54.00</geoidheight><course>37.2</course><type>1</type></trkpt>
      <trkpt lat="40.52885176" lon="-5.22487659"><ele>2194</ele><speed>13.97</speed><time>2016-07-01T12:35:09Z</time><pdop>17.0</pdop><geoidheight>54.00</geoidheight><course>42.8</course><type>1</type></trkpt>
      <trkpt lat="40.52911078" lon="-5.22456876"><ele>2220</ele><speed>13.37</speed><time>2016-07-01T12:35:12Z</time><pdop>13.0</pdop><geoidheight>54.00</geoidheight><course>40.2</course><type>1</type></trkpt>
      <trkpt lat="40.52930492" lon="-5.22436936"><ele>2233</ele><speed>13.11</speed><time>2016-07-01T12:35:14Z</time><pdop>14.0</pdop><geoidheight>54.00</geoidheight><course>36.6</course><type>1</type></trkpt>
      <trkpt lat="40.52957032" lon="-5.22419167"><ele>2235</ele><speed>13.92</speed><time>2016-07-01T12:35:16Z</time><pdop>11.0</pdop><geoidheight>54.00</geoidheight><course>31.3</course><type>1</type></trkpt>
      <trkpt lat="40.52980423" lon="-5.22400966"><ele>2241</ele><speed>13.91</speed><time>2016-07-01T12:35:18Z</time><pdop>11.0</pdop><geoidheight>54.00</geoidheight><course>31.3</course><type>1</type></trkpt>
      <trkpt lat="40.53013178" lon="-5.22382083"><ele>2242</ele><speed>13.08</speed><time>2016-07-01T12:35:21Z</time><pdop>16.0</pdop><geoidheight>54.00</geoidheight><course>25.0</course><type>1</type></trkpt>
      <trkpt lat="40.53038719" lon="-5.22363593"><ele>2235</ele><speed>14.05</speed><time>2016-07-01T12:35:23Z</time><pdop>13.0</pdop><geoidheight>54.00</geoidheight><course>28.5</course><type>1</type></trkpt>
      <trkpt lat="40.53063906" lon="-5.22345278"><ele>2246</ele><speed>14.51</speed><time>2016-07-01T12:35:25Z</time><pdop>15.0</pdop><geoidheight>54.00</geoidheight><course>28.6</course><type>1</type></trkpt>
      <trkpt lat="40.53091905" lon="-5.22324696"><ele>2242</ele><speed>15.22</speed><time>2016-07-01T12:35:27Z</time><pdop>14.0</pdop><geoidheight>54.00</geoidheight><course>31.5</course><type>1</type></trkpt>
      <trkpt lat="40.53114685" lon="-5.22304704"><ele>2240</ele><speed>14.71</speed><time>2016-07-01T12:35:29Z</time><pdop>15.0</pdop><geoidheight>54.00</geoidheight><course>32.5</course><type>1</type></trkpt>
      <trkpt lat="40.53143683" lon="-5.22280881"><ele>2237</ele><speed>13.05</speed><time>2016-07-01T12:35:32Z</time><pdop>23.0</pdop><geoidheight>54.00</geoidheight><course>34.4</course><type>1</type></trkpt>
      <trkpt lat="40.53185028" lon="-5.22252722"><ele>2235</ele><speed>15.07</speed><time>2016-07-01T12:35:35Z</time><pdop>18.0</pdop><geoidheight>54.00</geoidheight><course>30.0</course><type>1</type></trkpt>
      <trkpt lat="40.53218109" lon="-5.22224632"><ele>2232</ele><speed>15.35</speed><time>2016-07-01T12:35:38Z</time><pdop>21.0</pdop><geoidheight>54.00</geoidheight><course>32.4</course><type>1</type></trkpt>
      <trkpt lat="40.53242474" lon="-5.22201584"><ele>2229</ele><speed>16.33</speed><time>2016-07-01T12:35:40Z</time><pdop>12.0</pdop><geoidheight>54.00</geoidheight><course>34.4</course><type>1</type></trkpt>
      <trkpt lat="40.53262907" lon="-5.22175203"><ele>2225</ele><speed>15.48</speed><time>2016-07-01T12:35:42Z</time><pdop>11.0</pdop><geoidheight>54.00</geoidheight><course>37.1</course><type>1</type></trkpt>
      <trkpt lat="40.53283408" lon="-5.22145654"><ele>2221</ele><speed>15.70</speed><time>2016-07-01T12:35:44Z</time><pdop>11.0</pdop><geoidheight>54.00</geoidheight><course>42.3</course><type>1</type></trkpt>
      <trkpt lat="40.53304631" lon="-5.22120132"><ele>2216</ele><speed>15.59</speed><time>2016-07-01T12:35:46Z</time><pdop>12.0</pdop><geoidheight>54.00</geoidheight><course>46.8</course><type>1</type></trkpt>
      <trkpt lat="40.53322001" lon="-5.22094405"><ele>2214</ele><speed>14.57</speed><time>2016-07-01T12:35:48Z</time><pdop>13.0</pdop><geoidheight>54.00</geoidheight><course>49.8</course><type>1</type></trkpt>
      <trkpt lat="40.53336825" lon="-5.22068271"><ele>2208</ele><speed>12.83</speed><time>2016-07-01T12:35:50Z</time><pdop>11.0</pdop><geoidheight>54.00</geoidheight><course>54.0</course><type>1</type></trkpt>
      <trkpt lat="40.53349169" lon="-5.22045027"><ele>2203</ele><speed>11.61</speed><time>2016-07-01T12:35:52Z</time><pdop>10.0</pdop><geoidheight>54.00</geoidheight><course>54.5</course><type>1</type></trkpt>
      <trkpt lat="40.53363195" lon="-5.22026051"><ele>2203</ele><speed>11.34</speed><time>2016-07-01T12:35:54Z</time><pdop>9.0</pdop><geoidheight>54.00</geoidheight><course>44.2</course><type>1</type></trkpt>
      <trkpt lat="40.53382398" lon="-5.2200693"><ele>2202</ele><speed>12.69</speed><time>2016-07-01T12:35:56Z</time><pdop>8.0</pdop><geoidheight>54.00</geoidheight><course>38.7</course><type>1</type></trkpt>
      <trkpt lat="40.5339539" lon="-5.21989289"><ele>2199</ele><speed>10.17</speed><time>2016-07-01T12:35:58Z</time><pdop>11.0</pdop><geoidheight>54.00</geoidheight><course>41.3</course><type>1</type></trkpt>
      <trkpt lat="40.53419932" lon="-5.21966381"><ele>2197</ele><speed>12.15</speed><time>2016-07-01T12:36:01Z</time><pdop>12.0</pdop><geoidheight>54.00</geoidheight><course>34.8</course><type>1</type></trkpt>
      <trkpt lat="40.53439593" lon="-5.21945844"><ele>2195</ele><speed>13.27</speed><time>2016-07-01T12:36:03Z</time><pdop>13.0</pdop><geoidheight>54.00</geoidheight><course>38.1</course><type>1</type></trkpt>
      <trkpt lat="40.53465221" lon="-5.21924003"><ele>2194</ele><speed>14.88</speed><time>2016-07-01T12:36:05Z</time><pdop>17.0</pdop><geoidheight>54.00</geoidheight><course>35.5</course><type>1</type></trkpt>
      <trkpt lat="40.53492977" lon="-5.21891611"><ele>2189</ele><speed>14.43</speed><time>2016-07-01T12:36:08Z</time><pdop>12.0</pdop><geoidheight>54.00</geoidheight><course>40.9</course><type>1</type></trkpt>
      <trkpt lat="40.53511062" lon="-5.21864538"><ele>2185</ele><speed>13.57</speed><time>2016-07-01T12:36:10Z</time><pdop>13.0</pdop><geoidheight>54.00</geoidheight><course>39.6</course><type>1</type></trkpt>
      <trkpt lat="40.53539449" lon="-5.21841268"><ele>2179</ele><speed>12.11</speed><time>2016-07-01T12:36:13Z</time><pdop>14.0</pdop><geoidheight>54.00</geoidheight><course>30.4</course><type>1</type></trkpt>
      <trkpt lat="40.53562573" lon="-5.21826682"><ele>2173</ele><speed>12.40</speed><time>2016-07-01T12:36:15Z</time><pdop>13.0</pdop><geoidheight>54.00</geoidheight><course>26.9</course><type>1</type></trkpt>
      <trkpt lat="40.5359139" lon="-5.21813226"><ele>2165</ele><speed>10.93</speed><time>2016-07-01T12:36:18Z</time><pdop>14.0</pdop><geoidheight>54.00</geoidheight><course>18.6</course><type>1</type></trkpt>
      <trkpt lat="40.53623437" lon="-5.21793688"><ele>2160</ele><speed>11.96</speed><time>2016-07-01T12:36:21Z</time><pdop>18.0</pdop><geoidheight>54.00</geoidheight><course>19.0</course><type>1</type></trkpt>
      <trkpt lat="40.53656335" lon="-5.21782155"><ele>2154</ele><speed>11.06</speed><time>2016-07-01T12:36:24Z</time><pdop>18.0</pdop><geoidheight>54.00</geoidheight><course>15.2</course><type>1</type></trkpt>
      <trkpt lat="40.53696654" lon="-5.21765362"><ele>2148</ele><speed>10.86</speed><time>2016-07-01T12:36:28Z</time><pdop>28.0</pdop><geoidheight>54.00</geoidheight><course>17.0</course><type>1</type></trkpt>
      <trkpt lat="40.53745114" lon="-5.21731308"><ele>2142</ele><speed>14.88</speed><time>2016-07-01T12:36:31Z</time><pdop>27.0</pdop><geoidheight>54.00</geoidheight><course>23.0</course><type>1</type></trkpt>
      <trkpt lat="40.53800581" lon="-5.21681093"><ele>2130</ele><speed>14.48</speed><time>2016-07-01T12:36:36Z</time><pdop>31.0</pdop><geoidheight>54.00</geoidheight><course>33.4</course><type>1</type></trkpt>
      <trkpt lat="40.53823532" lon="-5.21626495"><ele>2121</ele><speed>13.40</speed><time>2016-07-01T12:36:40Z</time><pdop>21.0</pdop><geoidheight>54.00</geoidheight><course>47.9</course><type>1</type></trkpt>
      <trkpt lat="40.53850434" lon="-5.21576137"><ele>2110</ele><speed>15.78</speed><time>2016-07-01T12:36:43Z</time><pdop>20.0</pdop><geoidheight>54.00</geoidheight><course>45.3</course><type>1</type></trkpt>
      <trkpt lat="40.53889773" lon="-5.2153286"><ele>2095</ele><speed>16.51</speed><time>2016-07-01T12:36:46Z</time><pdop>22.0</pdop><geoidheight>54.00</geoidheight><course>42.9</course><type>1</type></trkpt>
      <trkpt lat="40.53927348" lon="-5.21475642"><ele>2083</ele><speed>15.88</speed><time>2016-07-01T12:36:50Z</time><pdop>18.0</pdop><geoidheight>54.00</geoidheight><course>47.7</course><type>1</type></trkpt>
      <trkpt lat="40.53955378" lon="-5.21426389"><ele>2077</ele><speed>16.88</speed><time>2016-07-01T12:36:53Z</time><pdop>17.0</pdop><geoidheight>54.00</geoidheight><course>48.9</course><type>1</type></trkpt>
      <trkpt lat="40.53978043" lon="-5.21395574"><ele>2071</ele><speed>17.21</speed><time>2016-07-01T12:36:55Z</time><pdop>15.0</pdop><geoidheight>54.00</geoidheight><course>50.3</course><type>1</type></trkpt>
      <trkpt lat="40.53995204" lon="-5.21357461"><ele>2068</ele><speed>17.95</speed><time>2016-07-01T12:36:57Z</time><pdop>17.0</pdop><geoidheight>54.00</geoidheight><course>55.2</course><type>1</type></trkpt>
      <trkpt lat="40.54016519" lon="-5.2132072"><ele>2065</ele><speed>19.09</speed><time>2016-07-01T12:36:59Z</time><pdop>17.0</pdop><geoidheight>54.00</geoidheight><course>55.9</course><type>1</type></trkpt>
      <trkpt lat="40.54027057" lon="-5.21280403"><ele>2063</ele><speed>18.66</speed><time>2016-07-01T12:37:01Z</time><pdop>17.0</pdop><geoidheight>54.00</geoidheight><course>62.0</course><type>1</type></trkpt>
      <trkpt lat="40.54028881" lon="-5.21234993"><ele>2059</ele><speed>18.81</speed><time>2016-07-01T12:37:03Z</time><pdop>14.0</pdop><geoidheight>54.00</geoidheight><course>74.2</course><type>1</type></trkpt>
      <trkpt lat="40.54025207" lon="-5.21189952"><ele>2056</ele><speed>18.45</speed><time>2016-07-01T12:37:05Z</time><pdop>13.0</pdop><geoidheight>54.00</geoidheight><course>83.5</course><type>1</type></trkpt>
      <trkpt lat="40.54044527" lon="-5.21147043"><ele>2053</ele><speed>14.32</speed><time>2016-07-01T12:37:08Z</time><pdop>13.0</pdop><geoidheight>54.00</geoidheight><course>63.1</course><type>1</type></trkpt>
      <trkpt lat="40.54064916" lon="-5.2111507"><ele>2056</ele><speed>12.29</speed><time>2016-07-01T12:37:11Z</time><pdop>12.0</pdop><geoidheight>54.00</geoidheight><course>46.6</course><type>1</type></trkpt>
      <trkpt lat="40.54033153" lon="-5.21117965"><ele>2017</ele><speed>13.21</speed><time>2016-07-01T12:37:18Z</time><pdop>13.0</pdop><geoidheight>54.00</geoidheight><course>145.9</course><type>1</type></trkpt>
      <trkpt lat="40.54006713" lon="-5.2109641"><ele>2032</ele><speed>11.93</speed><time>2016-07-01T12:37:21Z</time><pdop>13.0</pdop><geoidheight>54.00</geoidheight><course>138.8</course><type>1</type></trkpt>
      <trkpt lat="40.5399963" lon="-5.21059154"><ele>2040</ele><speed>11.21</speed><time>2016-07-01T12:37:24Z</time><pdop>17.0</pdop><geoidheight>54.00</geoidheight><course>112.2</course><type>1</type></trkpt>
      <trkpt lat="40.54003435" lon="-5.21012129"><ele>2046</ele><speed>16.10</speed><time>2016-07-01T12:37:26Z</time><pdop>18.0</pdop><geoidheight>54.00</geoidheight><course>96.4</course><type>1</type></trkpt>
      <trkpt lat="40.54015153" lon="-5.20970431"><ele>2056</ele><speed>16.61</speed><time>2016-07-01T12:37:28Z</time><pdop>9.0</pdop><geoidheight>54.00</geoidheight><course>91.7</course><type>1</type></trkpt>
      <trkpt lat="40.54004977" lon="-5.20938779"><ele>2062</ele><speed>15.16</speed><time>2016-07-01T12:37:30Z</time><pdop>9.0</pdop><geoidheight>54.00</geoidheight><course>104.6</course><type>1</type></trkpt>
      <trkpt lat="40.53987773" lon="-5.20921416"><ele>2065</ele><speed>8.80</speed><time>2016-07-01T12:37:33Z</time><pdop>13.0</pdop><geoidheight>54.00</geoidheight><course>124.1</course><type>1</type></trkpt>
      <trkpt lat="40.53998081" lon="-5.20946147"><ele>2073</ele><speed>5.57</speed><time>2016-07-01T12:37:37Z</time><pdop>8.0</pdop><geoidheight>54.00</geoidheight><course>343.1</course><type>1</type></trkpt>
      <trkpt lat="40.5401993" lon="-5.2095563"><ele>2074</ele><speed>6.36</speed><time>2016-07-01T12:37:41Z</time><pdop>13.0</pdop><geoidheight>54.00</geoidheight><course>348.2</course><type>1</type></trkpt>
      <trkpt lat="40.54038007" lon="-5.20932714"><ele>2079</ele><speed>10.62</speed><time>2016-07-01T12:37:43Z</time><pdop>9.0</pdop><geoidheight>54.00</geoidheight><course>37.5</course><type>1</type></trkpt>
      <trkpt lat="40.54054343" lon="-5.20915534"><ele>2082</ele><speed>11.78</speed><time>2016-07-01T12:37:45Z</time><pdop>10.0</pdop><geoidheight>54.00</geoidheight><course>41.9</course><type>1</type></trkpt>
      <trkpt lat="40.54061505" lon="-5.20885"><ele>2085</ele><speed>14.70</speed><time>2016-07-01T12:37:47Z</time><pdop>8.0</pdop><geoidheight>54.00</geoidheight><course>67.6</course><type>1</type></trkpt>
      <trkpt lat="40.54060824" lon="-5.20850552"><ele>2088</ele><speed>15.27</speed><time>2016-07-01T12:37:49Z</time><pdop>8.0</pdop><geoidheight>54.00</geoidheight><course>83.3</course><type>1</type></trkpt>
      <trkpt lat="40.54048601" lon="-5.20838276"><ele>2089</ele><speed>14.11</speed><time>2016-07-01T12:37:50Z</time><pdop>7.0</pdop><geoidheight>54.00</geoidheight><course>105.9</course><type>1</type></trkpt>
      <trkpt lat="40.54039176" lon="-5.20825274"><ele>2088</ele><speed>14.17</speed><time>2016-07-01T12:37:51Z</time><pdop>6.0</pdop><geoidheight>54.00</geoidheight><course>122.5</course><type>1</type></trkpt>
      <trkpt lat="40.54031948" lon="-5.2080936"><ele>2089</ele><speed>14.40</speed><time>2016-07-01T12:37:52Z</time><pdop>6.0</pdop><geoidheight>54.00</geoidheight><course>125.1</course><type>1</type></trkpt>
      <trkpt lat="40.54023286" lon="-5.20799032"><ele>2090</ele><speed>14.12</speed><time>2016-07-01T12:37:53Z</time><pdop>6.0</pdop><geoidheight>54.00</geoidheight><course>131.9</course><type>1</type></trkpt>
      <trkpt lat="40.5401379" lon="-5.20788148"><ele>2090</ele><speed>14.44</speed><time>2016-07-01T12:37:54Z</time><pdop>7.0</pdop><geoidheight>54.00</geoidheight><course>135.6</course><type>1</type></trkpt>
      <trkpt lat="40.5399413" lon="-5.20784107"><ele>2090</ele><speed>12.22</speed><time>2016-07-01T12:37:56Z</time><pdop>7.0</pdop><geoidheight>54.00</geoidheight><course>154.4</course><type>1</type></trkpt>
      <trkpt lat="40.53980981" lon="-5.2080007"><ele>2089</ele><speed>9.38</speed><time>2016-07-01T12:37:58Z</time><pdop>8.0</pdop><geoidheight>54.00</geoidheight><course>190.6</course><type>1</type></trkpt>
      <trkpt lat="40.539806" lon="-5.208231"><ele>2094</ele><speed>5.49</speed><time>2016-07-01T12:38:01Z</time><pdop>8.0</pdop><geoidheight>54.00</geoidheight><course>257.0</course><type>1</type></trkpt>
      <trkpt lat="40.53991839" lon="-5.20835252"><ele>2100</ele><speed>5.80</speed><time>2016-07-01T12:38:04Z</time><pdop>6.0</pdop><geoidheight>54.00</geoidheight><course>326.2</course><type>1</type></trkpt>
      <trkpt lat="40.54013299" lon="-5.20836331"><ele>2104</ele><speed>7.97</speed><time>2016-07-01T12:38:07Z</time><pdop>9.0</pdop><geoidheight>54.00</geoidheight><course>0.0</course><type>1</type></trkpt>
      <trkpt lat="40.54030547" lon="-5.20829486"><ele>2104</ele><speed>8.46</speed><time>2016-07-01T12:38:09Z</time><pdop>10.0</pdop><geoidheight>54.00</geoidheight><course>10.5</course><type>1</type></trkpt>
      <trkpt lat="40.54052437" lon="-5.20820299"><ele>2104</ele><speed>8.06</speed><time>2016-07-01T12:38:12Z</time><pdop>10.0</pdop><geoidheight>54.00</geoidheight><course>20.9</course><type>1</type></trkpt>
      <trkpt lat="40.5407337" lon="-5.2082074"><ele>2106</ele><speed>7.84</speed><time>2016-07-01T12:38:15Z</time><pdop>11.0</pdop><geoidheight>54.00</geoidheight><course>12.3</course><type>1</type></trkpt>
      <trkpt lat="40.54095497" lon="-5.20794683"><ele>2106</ele><speed>9.30</speed><time>2016-07-01T12:38:18Z</time><pdop>12.0</pdop><geoidheight>54.00</geoidheight><course>37.5</course><type>1</type></trkpt>
      <trkpt lat="40.54110525" lon="-5.20768501"><ele>2106</ele><speed>11.91</speed><time>2016-07-01T12:38:20Z</time><pdop>9.0</pdop><geoidheight>54.00</geoidheight><course>46.5</course><type>1</type></trkpt>
      <trkpt lat="40.54125091" lon="-5.20740867"><ele>2108</ele><speed>12.52</speed><time>2016-07-01T12:38:22Z</time><pdop>11.0</pdop><geoidheight>54.00</geoidheight><course>49.9</course><type>1</type></trkpt>
      <trkpt lat="40.54137186" lon="-5.20709228"><ele>2103</ele><speed>13.56</speed><time>2016-07-01T12:38:24Z</time><pdop>11.0</pdop><geoidheight>54.00</geoidheight><course>55.2</course><type>1</type></trkpt>
      <trkpt lat="40.54145945" lon="-5.20677712"><ele>2105</ele><speed>14.08</speed><time>2016-07-01T12:38:26Z</time><pdop>8.0</pdop><geoidheight>54.00</geoidheight><course>61.7</course><type>1</type></trkpt>
      <trkpt lat="40.54152901" lon="-5.20660879"><ele>2104</ele><speed>14.47</speed><time>2016-07-01T12:38:27Z</time><pdop>8.0</pdop><geoidheight>54.00</geoidheight><course>61.9</course><type>1</type></trkpt>
      <trkpt lat="40.5416304" lon="-5.20626609"><ele>2102</ele><speed>14.77</speed><time>2016-07-01T12:38:29Z</time><pdop>11.0</pdop><geoidheight>54.00</geoidheight><course>65.2</course><type>1</type></trkpt>
      <trkpt lat="40.54175289" lon="-5.20600091"><ele>2102</ele><speed>13.65</speed><time>2016-07-01T12:38:31Z</time><pdop>11.0</pdop><geoidheight>54.00</geoidheight><course>60.5</course><type>1</type></trkpt>
      <trkpt lat="40.54191731" lon="-5.20580369"><ele>2101</ele><speed>12.81</speed><time>2016-07-01T12:38:33Z</time><pdop>10.0</pdop><geoidheight>54.00</geoidheight><course>53.3</course><type>1</type></trkpt>
      <trkpt lat="40.54206282" lon="-5.20551813"><ele>2099</ele><speed>14.65</speed><time>2016-07-01T12:38:35Z</time><pdop>8.0</pdop><geoidheight>54.00</geoidheight><course>55.7</course><type>1</type></trkpt>
      <trkpt lat="40.54222608" lon="-5.20522922"><ele>2098</ele><speed>14.52</speed><time>2016-07-01T12:38:37Z</time><pdop>11.0</pdop><geoidheight>54.00</geoidheight><course>55.2</course><type>1</type></trkpt>
      <trkpt lat="40.54238937" lon="-5.20490413"><ele>2096</ele><speed>15.94</speed><time>2016-07-01T12:38:39Z</time><pdop>13.0</pdop><geoidheight>54.00</geoidheight><course>56.4</course><type>1</type></trkpt>
      <trkpt lat="40.54257407" lon="-5.2045527"><ele>2094</ele><speed>16.89</speed><time>2016-07-01T12:38:41Z</time><pdop>14.0</pdop><geoidheight>54.00</geoidheight><course>55.4</course><type>1</type></trkpt>
      <trkpt lat="40.54279208" lon="-5.20430848"><ele>2093</ele><speed>15.00</speed><time>2016-07-01T12:38:43Z</time><pdop>14.0</pdop><geoidheight>54.00</geoidheight><course>46.9</course><type>1</type></trkpt>
      <trkpt lat="40.54298622" lon="-5.20408556"><ele>2089</ele><speed>14.20</speed><time>2016-07-01T12:38:45Z</time><pdop>14.0</pdop><geoidheight>54.00</geoidheight><course>46.3</course><type>1</type></trkpt>
      <trkpt lat="40.54324407" lon="-5.20376383"><ele>2083</ele><speed>14.60</speed><time>2016-07-01T12:38:48Z</time><pdop>17.0</pdop><geoidheight>54.00</geoidheight><course>47.8</course><type>1</type></trkpt>
      <trkpt lat="40.54344219" lon="-5.20346405"><ele>2081</ele><speed>15.73</speed><time>2016-07-01T12:38:50Z</time><pdop>16.0</pdop><geoidheight>54.00</geoidheight><course>50.0</course><type>1</type></trkpt>
      <trkpt lat="40.54377668" lon="-5.20304139"><ele>2076</ele><speed>16.45</speed><time>2016-07-01T12:38:53Z</time><pdop>23.0</pdop><geoidheight>54.00</geoidheight><course>47.7</course><type>1</type></trkpt>
      <trkpt lat="40.54402614" lon="-5.20252884"><ele>2071</ele><speed>16.51</speed><time>2016-07-01T12:38:56Z</time><pdop>18.0</pdop><geoidheight>54.00</geoidheight><course>53.4</course><type>1</type></trkpt>
      <trkpt lat="40.54421452" lon="-5.20216308"><ele>2069</ele><speed>17.74</speed><time>2016-07-01T12:38:58Z</time><pdop>16.0</pdop><geoidheight>54.00</geoidheight><course>54.4</course><type>1</type></trkpt>
      <trkpt lat="40.54447463" lon="-5.20186712"><ele>2066</ele><speed>17.51</speed><time>2016-07-01T12:39:00Z</time><pdop>17.0</pdop><geoidheight>54.00</geoidheight><course>48.5</course><type>1</type></trkpt>
      <trkpt lat="40.54458589" lon="-5.20142221"><ele>2058</ele><speed>15.33</speed><time>2016-07-01T12:39:03Z</time><pdop>12.0</pdop><geoidheight>54.00</geoidheight><course>57.9</course><type>1</type></trkpt>
      <trkpt lat="40.54469867" lon="-5.20112332"><ele>2054</ele><speed>14.90</speed><time>2016-07-01T12:39:05Z</time><pdop>12.0</pdop><geoidheight>54.00</geoidheight><course>58.6</course><type>1</type></trkpt>
      <trkpt lat="40.54489946" lon="-5.20070089"><ele>2047</ele><speed>14.68</speed><time>2016-07-01T12:39:08Z</time><pdop>13.0</pdop><geoidheight>54.00</geoidheight><course>54.3</course><type>1</type></trkpt>
      <trkpt lat="40.54503121" lon="-5.20036585"><ele>2043</ele><speed>15.18</speed><time>2016-07-01T12:39:10Z</time><pdop>13.0</pdop><geoidheight>54.00</geoidheight><course>55.7</course><type>1</type></trkpt>
      <trkpt lat="40.54524151" lon="-5.20006893"><ele>2039</ele><speed>16.05</speed><time>2016-07-01T12:39:12Z</time><pdop>16.0</pdop><geoidheight>54.00</geoidheight><course>52.3</course><type>1</type></trkpt>
      <trkpt lat="40.54544094" lon="-5.19964198"><ele>2033</ele><speed>14.47</speed><time>2016-07-01T12:39:15Z</time><pdop>18.0</pdop><geoidheight>54.00</geoidheight><course>55.9</course><type>1</type></trkpt>
      <trkpt lat="40.54567217" lon="-5.19921366"><ele>2026</ele><speed>15.14</speed><time>2016-07-01T12:39:18Z</time><pdop>23.0</pdop><geoidheight>54.00</geoidheight><course>54.9</course><type>1</type></trkpt>
      <trkpt lat="40.54597534" lon="-5.198725"><ele>2019</ele><speed>15.90</speed><time>2016-07-01T12:39:21Z</time><pdop>17.0</pdop><geoidheight>54.00</geoidheight><course>53.7</course><type>1</type></trkpt>
      <trkpt lat="40.54612115" lon="-5.19837595"><ele>2012</ele><speed>15.55</speed><time>2016-07-01T12:39:23Z</time><pdop>15.0</pdop><geoidheight>54.00</geoidheight><course>57.7</course><type>1</type></trkpt>
      <trkpt lat="40.54625177" lon="-5.19800272"><ele>2008</ele><speed>16.09</speed><time>2016-07-01T12:39:25Z</time><pdop>18.0</pdop><geoidheight>54.00</geoidheight><course>62.6</course><type>1</type></trkpt>
      <trkpt lat="40.54641583" lon="-5.19739801"><ele>2000</ele><speed>13.84</speed><time>2016-07-01T12:39:29Z</time><pdop>22.0</pdop><geoidheight>54.00</geoidheight><course>66.2</course><type>1</type></trkpt>
      <trkpt lat="40.54666262" lon="-5.19676773"><ele>1983</ele><speed>13.59</speed><time>2016-07-01T12:39:33Z</time><pdop>29.0</pdop><geoidheight>54.00</geoidheight><course>63.7</course><type>1</type></trkpt>
      <trkpt lat="40.54668128" lon="-5.19594257"><ele>1964</ele><speed>12.77</speed><time>2016-07-01T12:39:38Z</time><pdop>37.0</pdop><geoidheight>54.00</geoidheight><course>74.5</course><type>1</type></trkpt>
      <trkpt lat="40.54702262" lon="-5.19515955"><ele>1955</ele><speed>14.06</speed><time>2016-07-01T12:39:43Z</time><pdop>39.0</pdop><geoidheight>54.00</geoidheight><course>66.0</course><type>1</type></trkpt>
      <trkpt lat="40.54748781" lon="-5.19434528"><ele>1944</ele><speed>15.46</speed><time>2016-07-01T12:39:48Z</time><pdop>40.0</pdop><geoidheight>54.00</geoidheight><course>55.6</course><type>1</type></trkpt>
      <trkpt lat="40.54791024" lon="-5.19345279"><ele>1924</ele><speed>14.04</speed><time>2016-07-01T12:39:54Z</time><pdop>43.0</pdop><geoidheight>54.00</geoidheight><course>66.4</course><type>1</type></trkpt>
      <trkpt lat="40.54834471" lon="-5.19258566"><ele>1911</ele><speed>16.06</speed><time>2016-07-01T12:39:59Z</time><pdop>38.0</pdop><geoidheight>54.00</geoidheight><course>64.1</course><type>1</type></trkpt>
      <trkpt lat="40.54870485" lon="-5.19159532"><ele>1897</ele><speed>17.54</speed><time>2016-07-01T12:40:04Z</time><pdop>37.0</pdop><geoidheight>54.00</geoidheight><course>71.8</course><type>1</type></trkpt>
      <trkpt lat="40.54896775" lon="-5.190769"><ele>1890</ele><speed>17.12</speed><time>2016-07-01T12:40:08Z</time><pdop>35.0</pdop><geoidheight>54.00</geoidheight><course>74.5</course><type>1</type></trkpt>
      <trkpt lat="40.54919206" lon="-5.18987758"><ele>1878</ele><speed>19.87</speed><time>2016-07-01T12:40:12Z</time><pdop>32.0</pdop><geoidheight>54.00</geoidheight><course>81.3</course><type>1</type></trkpt>
      <trkpt lat="40.54926572" lon="-5.18898591"><ele>1866</ele><speed>17.10</speed><time>2016-07-01T12:40:16Z</time><pdop>32.0</pdop><geoidheight>54.00</geoidheight><course>93.2</course><type>1</type></trkpt>
      <trkpt lat="40.54923225" lon="-5.18815272"><ele>1855</ele><speed>17.67</speed><time>2016-07-01T12:40:20Z</time><pdop>36.0</pdop><geoidheight>54.00</geoidheight><course>99.6</course><type>1</type></trkpt>
      <trkpt lat="40.5494118" lon="-5.18742694"><ele>1841</ele><speed>11.82</speed><time>2016-07-01T12:40:25Z</time><pdop>28.0</pdop><geoidheight>54.00</geoidheight><course>79.6</course><type>1</type></trkpt>
      <trkpt lat="40.54945571" lon="-5.18673917"><ele>1826</ele><speed>15.69</speed><time>2016-07-01T12:40:29Z</time><pdop>21.0</pdop><geoidheight>54.00</geoidheight><course>102.0</course><type>1</type></trkpt>
      <trkpt lat="40.54923136" lon="-5.18619229"><ele>1811</ele><speed>10.90</speed><time>2016-07-01T12:40:34Z</time><pdop>25.0</pdop><geoidheight>54.00</geoidheight><course>135.1</course><type>1</type></trkpt>
      <trkpt lat="40.54893639" lon="-5.18565662"><ele>1800</ele><speed>12.94</speed><time>2016-07-01T12:40:39Z</time><pdop>26.0</pdop><geoidheight>54.00</geoidheight><course>127.5</course><type>1</type></trkpt>
      <trkpt lat="40.54888471" lon="-5.18485921"><ele>1796</ele><speed>12.10</speed><time>2016-07-01T12:40:44Z</time><pdop>34.0</pdop><geoidheight>54.00</geoidheight><course>97.5</course><type>1</type></trkpt>
      <trkpt lat="40.54936391" lon="-5.184313"><ele>1788</ele><speed>13.95</speed><time>2016-07-01T12:40:48Z</time><pdop>27.0</pdop><geoidheight>54.00</geoidheight><course>61.2</course><type>1</type></trkpt>
      <trkpt lat="40.54966783" lon="-5.18383373"><ele>1778</ele><speed>14.77</speed><time>2016-07-01T12:40:51Z</time><pdop>21.0</pdop><geoidheight>54.00</geoidheight><course>61.3</course><type>1</type></trkpt>
      <trkpt lat="40.54987976" lon="-5.18333126"><ele>1767</ele><speed>14.64</speed><time>2016-07-01T12:40:54Z</time><pdop>16.0</pdop><geoidheight>54.00</geoidheight><course>63.9</course><type>1</type></trkpt>
      <trkpt lat="40.54997763" lon="-5.1829564"><ele>1760</ele><speed>15.11</speed><time>2016-07-01T12:40:56Z</time><pdop>16.0</pdop><geoidheight>54.00</geoidheight><course>72.4</course><type>1</type></trkpt>
      <trkpt lat="40.55025224" lon="-5.18185613"><ele>1988</ele><speed>12.14</speed><time>2016-07-01T12:41:03Z</time><pdop>13.0</pdop><geoidheight>54.00</geoidheight><course>71.0</course><type>1</type></trkpt>
      <trkpt lat="40.5503322" lon="-5.18154411"><ele>1938</ele><speed>13.19</speed><time>2016-07-01T12:41:05Z</time><pdop>14.0</pdop><geoidheight>54.00</geoidheight><course>71.7</course><type>1</type></trkpt>
      <trkpt lat="40.55050773" lon="-5.18120465"><ele>1900</ele><speed>14.81</speed><time>2016-07-01T12:41:07Z</time><pdop>17.0</pdop><geoidheight>54.00</geoidheight><course>63.6</course><type>1</type></trkpt>
      <trkpt lat="40.55072326" lon="-5.18078554"><ele>1840</ele><speed>13.28</speed><time>2016-07-01T12:41:10Z</time><pdop>16.0</pdop><geoidheight>54.00</geoidheight><course>63.7</course><type>1</type></trkpt>
      <trkpt lat="40.55076992" lon="-5.18030012"><ele>1805</ele><speed>14.38</speed><time>2016-07-01T12:41:13Z</time><pdop>13.0</pdop><geoidheight>54.00</geoidheight><course>82.2</course><type>1</type></trkpt>
      <trkpt lat="40.55083427" lon="-5.1798888"><ele>1787</ele><speed>15.70</speed><time>2016-07-01T12:41:15Z</time><pdop>13.0</pdop><geoidheight>54.00</geoidheight><course>84.1</course><type>1</type></trkpt>
      <trkpt lat="40.55089077" lon="-5.17946991"><ele>1770</ele><speed>16.37</speed><time>2016-07-01T12:41:17Z</time><pdop>14.0</pdop><geoidheight>54.00</geoidheight><course>84.0</course><type>1</type></trkpt>
      <trkpt lat="40.55092779" lon="-5.17907715"><ele>1765</ele><speed>16.17</speed><time>2016-07-01T12:41:19Z</time><pdop>15.0</pdop><geoidheight>54.00</geoidheight><course>84.6</course><type>1</type></trkpt>
      <trkpt lat="40.55102943" lon="-5.17861196"><ele>1758</ele><speed>15.79</speed><time>2016-07-01T12:41:22Z</time><pdop>14.0</pdop><geoidheight>54.00</geoidheight><course>83.6</course><type>1</type></trkpt>
      <trkpt lat="40.55109652" lon="-5.17825304"><ele>1739</ele><speed>16.40</speed><time>2016-07-01T12:41:24Z</time><pdop>13.0</pdop><geoidheight>54.00</geoidheight><course>83.5</course><type>1</type></trkpt>
      <trkpt lat="40.55106445" lon="-5.17778183"><ele>1729</ele><speed>18.13</speed><time>2016-07-01T12:41:26Z</time><pdop>13.0</pdop><geoidheight>54.00</geoidheight><course>92.1</course><type>1</type></trkpt>
      <trkpt lat="40.55104514" lon="-5.17737513"><ele>1718</ele><speed>16.90</speed><time>2016-07-01T12:41:28Z</time><pdop>13.0</pdop><geoidheight>54.00</geoidheight><course>95.8</course><type>1</type></trkpt>
      <trkpt lat="40.55099006" lon="-5.17696397"><ele>1711</ele><speed>17.36</speed><time>2016-07-01T12:41:30Z</time><pdop>13.0</pdop><geoidheight>54.00</geoidheight><course>101.3</course><type>1</type></trkpt>
      <trkpt lat="40.55097045" lon="-5.17659355"><ele>1702</ele><speed>16.32</speed><time>2016-07-01T12:41:32Z</time><pdop>12.0</pdop><geoidheight>54.00</geoidheight><course>99.5</course><type>1</type></trkpt>
      <trkpt lat="40.55088585" lon="-5.17620303"><ele>1696</ele><speed>17.77</speed><time>2016-07-01T12:41:34Z</time><pdop>14.0</pdop><geoidheight>54.00</geoidheight><course>106.3</course><type>1</type></trkpt>
      <trkpt lat="40.5508302" lon="-5.17586596"><ele>1694</ele><speed>16.48</speed><time>2016-07-01T12:41:36Z</time><pdop>15.0</pdop><geoidheight>54.00</geoidheight><course>105.0</course><type>1</type></trkpt>
      <trkpt lat="40.55072761" lon="-5.17539371"><ele>1686</ele><speed>15.58</speed><time>2016-07-01T12:41:39Z</time><pdop>14.0</pdop><geoidheight>54.00</geoidheight><course>106.9</course><type>1</type></trkpt>
      <trkpt lat="40.55065961" lon="-5.17505972"><ele>1680</ele><speed>15.41</speed><time>2016-07-01T12:41:41Z</time><pdop>14.0</pdop><geoidheight>54.00</geoidheight><course>110.6</course><type>1</type></trkpt>
      <trkpt lat="40.55058546" lon="-5.174669"><ele>1672</ele><speed>16.78</speed><time>2016-07-01T12:41:43Z</time><pdop>11.0</pdop><geoidheight>54.00</geoidheight><course>113.7</course><type>1</type></trkpt>
      <trkpt lat="40.55049424" lon="-5.17425787"><ele>1667</ele><speed>16.73</speed><time>2016-07-01T12:41:45Z</time><pdop>10.0</pdop><geoidheight>54.00</geoidheight><course>114.5</course><type>1</type></trkpt>
      <trkpt lat="40.55039237" lon="-5.17394373"><ele>1664</ele><speed>15.43</speed><time>2016-07-01T12:41:47Z</time><pdop>12.0</pdop><geoidheight>54.00</geoidheight><course>117.3</course><type>1</type></trkpt>
      <trkpt lat="40.55032434" lon="-5.17361807"><ele>1660</ele><speed>15.20</speed><time>2016-07-01T12:41:49Z</time><pdop>15.0</pdop><geoidheight>54.00</geoidheight><course>114.6</course><type>1</type></trkpt>
      <trkpt lat="40.55020323" lon="-5.1732243"><ele>1657</ele><speed>17.06</speed><time>2016-07-01T12:41:51Z</time><pdop>15.0</pdop><geoidheight>54.00</geoidheight><course>117.5</course><type>1</type></trkpt>
      <trkpt lat="40.55002411" lon="-5.17291195"><ele>1652</ele><speed>16.93</speed><time>2016-07-01T12:41:53Z</time><pdop>13.0</pdop><geoidheight>54.00</geoidheight><course>119.6</course><type>1</type></trkpt>
      <trkpt lat="40.54987557" lon="-5.17261972"><ele>1647</ele><speed>16.08</speed><time>2016-07-01T12:41:55Z</time><pdop>12.0</pdop><geoidheight>54.00</geoidheight><course>122.9</course><type>1</type></trkpt>
      <trkpt lat="40.54973589" lon="-5.17241263"><ele>1644</ele><speed>13.56</speed><time>2016-07-01T12:41:57Z</time><pdop>9.0</pdop><geoidheight>54.00</geoidheight><course>133.6</course><type>1</type></trkpt>
      <trkpt lat="40.5495499" lon="-5.17211699"><ele>1640</ele><speed>12.52</speed><time>2016-07-01T12:42:00Z</time><pdop>11.0</pdop><geoidheight>54.00</geoidheight><course>127.4</course><type>1</type></trkpt>
      <trkpt lat="40.54938687" lon="-5.17186534"><ele>1636</ele><speed>13.96</speed><time>2016-07-01T12:42:02Z</time><pdop>11.0</pdop><geoidheight>54.00</geoidheight><course>129.1</course><type>1</type></trkpt>
      <trkpt lat="40.54922492" lon="-5.17157582"><ele>1635</ele><speed>16.17</speed><time>2016-07-01T12:42:04Z</time><pdop>12.0</pdop><geoidheight>54.00</geoidheight><course>130.5</course><type>1</type></trkpt>
      <trkpt lat="40.54903015" lon="-5.17126125"><ele>1632</ele><speed>16.98</speed><time>2016-07-01T12:42:06Z</time><pdop>10.0</pdop><geoidheight>54.00</geoidheight><course>134.4</course><type>1</type></trkpt>
      <trkpt lat="40.54884515" lon="-5.17111489"><ele>1630</ele><speed>13.17</speed><time>2016-07-01T12:42:08Z</time><pdop>8.0</pdop><geoidheight>54.00</geoidheight><course>143.9</course><type>1</type></trkpt>
      <trkpt lat="40.54866126" lon="-5.17095392"><ele>1622</ele><speed>11.22</speed><time>2016-07-01T12:42:11Z</time><pdop>7.0</pdop><geoidheight>54.00</geoidheight><course>143.7</course><type>1</type></trkpt>
      <trkpt lat="40.54848319" lon="-5.17077676"><ele>1617</ele><speed>11.82</speed><time>2016-07-01T12:42:13Z</time><pdop>7.0</pdop><geoidheight>54.00</geoidheight><course>141.9</course><type>1</type></trkpt>
      <trkpt lat="40.54832317" lon="-5.170602"><ele>1614</ele><speed>11.80</speed><time>2016-07-01T12:42:15Z</time><pdop>10.0</pdop><geoidheight>54.00</geoidheight><course>139.8</course><type>1</type></trkpt>
      <trkpt lat="40.54809834" lon="-5.17037207"><ele>1609</ele><speed>15.00</speed><time>2016-07-01T12:42:17Z</time><pdop>8.0</pdop><geoidheight>54.00</geoidheight><course>139.0</course><type>1</type></trkpt>
      <trkpt lat="40.54799855" lon="-5.17024418"><ele>1608</ele><speed>15.50</speed><time>2016-07-01T12:42:18Z</time><pdop>7.0</pdop><geoidheight>54.00</geoidheight><course>136.6</course><type>1</type></trkpt>
      <trkpt lat="40.54791416" lon="-5.17012825"><ele>1607</ele><speed>15.15</speed><time>2016-07-01T12:42:19Z</time><pdop>6.0</pdop><geoidheight>54.00</geoidheight><course>136.2</course><type>1</type></trkpt>
      <trkpt lat="40.54783085" lon="-5.1700118"><ele>1605</ele><speed>14.53</speed><time>2016-07-01T12:42:20Z</time><pdop>6.0</pdop><geoidheight>54.00</geoidheight><course>136.4</course><type>1</type></trkpt>
      <trkpt lat="40.54772622" lon="-5.16990071"><ele>1603</ele><speed>14.14</speed><time>2016-07-01T12:42:21Z</time><pdop>7.0</pdop><geoidheight>54.00</geoidheight><course>135.2</course><type>1</type></trkpt>
      <trkpt lat="40.54759894" lon="-5.16966005"><ele>1600</ele><speed>14.21</speed><time>2016-07-01T12:42:23Z</time><pdop>9.0</pdop><geoidheight>54.00</geoidheight><course>129.2</course><type>1</type></trkpt>
      <trkpt lat="40.54746609" lon="-5.16935296"><ele>1599</ele><speed>14.63</speed><time>2016-07-01T12:42:25Z</time><pdop>10.0</pdop><geoidheight>54.00</geoidheight><course>119.7</course><type>1</type></trkpt>
      <trkpt lat="40.54738485" lon="-5.16905465"><ele>1599</ele><speed>14.00</speed><time>2016-07-01T12:42:27Z</time><pdop>13.0</pdop><geoidheight>54.00</geoidheight><course>112.8</course><type>1</type></trkpt>
      <trkpt lat="40.54726128" lon="-5.16873537"><ele>1600</ele><speed>13.85</speed><time>2016-07-01T12:42:29Z</time><pdop>9.0</pdop><geoidheight>54.00</geoidheight><course>113.3</course><type>1</type></trkpt>
      <trkpt lat="40.54712807" lon="-5.16852006"><ele>1601</ele><speed>12.24</speed><time>2016-07-01T12:42:31Z</time><pdop>10.0</pdop><geoidheight>54.00</geoidheight><course>126.2</course><type>1</type></trkpt>
      <trkpt lat="40.54693946" lon="-5.16832042"><ele>1601</ele><speed>12.13</speed><time>2016-07-01T12:42:33Z</time><pdop>12.0</pdop><geoidheight>54.00</geoidheight><course>135.4</course><type>1</type></trkpt>
      <trkpt lat="40.54690408" lon="-5.16863613"><ele>1600</ele><speed>5.03</speed><time>2016-07-01T12:42:36Z</time><pdop>8.0</pdop><geoidheight>54.00</geoidheight><course>268.1</course><type>1</type></trkpt>
      <trkpt lat="40.5470115" lon="-5.16878606"><ele>1597</ele><speed>7.55</speed><time>2016-07-01T12:42:38Z</time><pdop>7.0</pdop><geoidheight>54.00</geoidheight><course>316.2</course><type>1</type></trkpt>
      <trkpt lat="40.54721523" lon="-5.16881729"><ele>1595</ele><speed>6.24</speed><time>2016-07-01T12:42:41Z</time><pdop>13.0</pdop><geoidheight>54.00</geoidheight><course>353.4</course><type>1</type></trkpt>
      <trkpt lat="40.547408" lon="-5.16850786"><ele>1594</ele><speed>10.66</speed><time>2016-07-01T12:42:43Z</time><pdop>14.0</pdop><geoidheight>54.00</geoidheight><course>40.6</course><type>1</type></trkpt>
      <trkpt lat="40.54753169" lon="-5.1680827"><ele>1593</ele><speed>14.78</speed><time>2016-07-01T12:42:45Z</time><pdop>11.0</pdop><geoidheight>54.00</geoidheight><course>69.4</course><type>1</type></trkpt>
      <trkpt lat="40.54733345" lon="-5.16780216"><ele>1595</ele><speed>13.69</speed><time>2016-07-01T12:42:47Z</time><pdop>8.0</pdop><geoidheight>54.00</geoidheight><course>117.5</course><type>1</type></trkpt>
      <trkpt lat="40.54720286" lon="-5.16753725"><ele>1598</ele><speed>13.10</speed><time>2016-07-01T12:42:49Z</time><pdop>8.0</pdop><geoidheight>54.00</geoidheight><course>125.6</course><type>1</type></trkpt>
      <trkpt lat="40.54708779" lon="-5.16739969"><ele>1598</ele><speed>14.70</speed><time>2016-07-01T12:42:50Z</time><pdop>9.0</pdop><geoidheight>54.00</geoidheight><course>132.6</course><type>1</type></trkpt>
      <trkpt lat="40.54688185" lon="-5.16732785"><ele>1599</ele><speed>12.04</speed><time>2016-07-01T12:42:52Z</time><pdop>8.0</pdop><geoidheight>54.00</geoidheight><course>158.3</course><type>1</type></trkpt>
      <trkpt lat="40.54670806" lon="-5.16735117"><ele>1600</ele><speed>10.13</speed><time>2016-07-01T12:42:54Z</time><pdop>9.0</pdop><geoidheight>54.00</geoidheight><course>168.5</course><type>1</type></trkpt>
      <trkpt lat="40.54683563" lon="-5.16754539"><ele>1599</ele><speed>3.85</speed><time>2016-07-01T12:42:57Z</time><pdop>11.0</pdop><geoidheight>54.00</geoidheight><course>280.8</course><type>1</type></trkpt>
      <trkpt lat="40.54705774" lon="-5.16770459"><ele>1600</ele><speed>5.38</speed><time>2016-07-01T12:43:00Z</time><pdop>12.0</pdop><geoidheight>54.00</geoidheight><course>333.4</course><type>1</type></trkpt>
      <trkpt lat="40.54728322" lon="-5.16746735"><ele>1599</ele><speed>9.06</speed><time>2016-07-01T12:43:02Z</time><pdop>12.0</pdop><geoidheight>54.00</geoidheight><course>27.0</course><type>1</type></trkpt>
      <trkpt lat="40.54739205" lon="-5.16707703"><ele>1598</ele><speed>10.22</speed><time>2016-07-01T12:43:05Z</time><pdop>13.0</pdop><geoidheight>54.00</geoidheight><course>61.8</course><type>1</type></trkpt>
      <trkpt lat="40.54725686" lon="-5.16657282"><ele>1600</ele><speed>15.23</speed><time>2016-07-01T12:43:07Z</time><pdop>12.0</pdop><geoidheight>54.00</geoidheight><course>97.0</course><type>1</type></trkpt>
      <trkpt lat="40.54707434" lon="-5.16633723"><ele>1603</ele><speed>12.98</speed><time>2016-07-01T12:43:09Z</time><pdop>8.0</pdop><geoidheight>54.00</geoidheight><course>122.1</course><type>1</type></trkpt>
      <trkpt lat="40.54684553" lon="-5.16627086"><ele>1603</ele><speed>11.01</speed><time>2016-07-01T12:43:11Z</time><pdop>7.0</pdop><geoidheight>54.00</geoidheight><course>156.1</course><type>1</type></trkpt>
      <trkpt lat="40.54668418" lon="-5.16640537"><ele>1598</ele><speed>8.02</speed><time>2016-07-01T12:43:14Z</time><pdop>6.0</pdop><geoidheight>54.00</geoidheight><course>205.8</course><type>1</type></trkpt>
      <trkpt lat="40.5467442" lon="-5.16663896"><ele>1602</ele><speed>6.48</speed><time>2016-07-01T12:43:17Z</time><pdop>6.0</pdop><geoidheight>54.00</geoidheight><course>283.3</course><type>1</type></trkpt>
      <trkpt lat="40.54698513" lon="-5.16658404"><ele>1602</ele><speed>5.44</speed><time>2016-07-01T12:43:21Z</time><pdop>12.0</pdop><geoidheight>54.00</geoidheight><course>25.1</course><type>1</type></trkpt>
      <trkpt lat="40.54711006" lon="-5.16619967"><ele>1601</ele><speed>10.84</speed><time>2016-07-01T12:43:23Z</time><pdop>13.0</pdop><geoidheight>54.00</geoidheight><course>68.2</course><type>1</type></trkpt>
      <trkpt lat="40.54712986" lon="-5.16592249"><ele>1600</ele><speed>14.34</speed><time>2016-07-01T12:43:24Z</time><pdop>10.0</pdop><geoidheight>54.00</geoidheight><course>82.8</course><type>1</type></trkpt>
      <trkpt lat="40.54707862" lon="-5.16558939"><ele>1599</ele><speed>14.71</speed><time>2016-07-01T12:43:26Z</time><pdop>8.0</pdop><geoidheight>54.00</geoidheight><course>95.7</course><type>1</type></trkpt>
      <trkpt lat="40.54696219" lon="-5.16527772"><ele>1600</ele><speed>14.16</speed><time>2016-07-01T12:43:28Z</time><pdop>8.0</pdop><geoidheight>54.00</geoidheight><course>108.3</course><type>1</type></trkpt>
      <trkpt lat="40.54673846" lon="-5.16513589"><ele>1601</ele><speed>13.01</speed><time>2016-07-01T12:43:30Z</time><pdop>8.0</pdop><geoidheight>54.00</geoidheight><course>135.7</course><type>1</type></trkpt>
      <trkpt lat="40.54653198" lon="-5.16519014"><ele>1598</ele><speed>11.02</speed><time>2016-07-01T12:43:32Z</time><pdop>7.0</pdop><geoidheight>54.00</geoidheight><course>168.3</course><type>1</type></trkpt>
      <trkpt lat="40.54646071" lon="-5.16534401"><ele>1598</ele><speed>10.09</speed><time>2016-07-01T12:43:33Z</time><pdop>5.0</pdop><geoidheight>54.00</geoidheight><course>202.9</course><type>1</type></trkpt>
      <trkpt lat="40.54638178" lon="-5.16541156"><ele>1598</ele><speed>9.14</speed><time>2016-07-01T12:43:34Z</time><pdop>4.0</pdop><geoidheight>54.00</geoidheight><course>208.5</course><type>1</type></trkpt>
      <trkpt lat="40.54629368" lon="-5.16553077"><ele>1602</ele><speed>6.21</speed><time>2016-07-01T12:43:36Z</time><pdop>5.0</pdop><geoidheight>54.00</geoidheight><course>221.0</course><type>1</type></trkpt>
      <trkpt lat="40.54621489" lon="-5.16565631"><ele>1599</ele><speed>7.49</speed><time>2016-07-01T12:43:38Z</time><pdop>6.0</pdop><geoidheight>54.00</geoidheight><course>231.0</course><type>1</type></trkpt>
      <trkpt lat="40.54612844" lon="-5.16579549"><ele>1601</ele><speed>6.99</speed><time>2016-07-01T12:43:40Z</time><pdop>4.0</pdop><geoidheight>54.00</geoidheight><course>228.8</course><type>1</type></trkpt>
      <trkpt lat="40.5460953" lon="-5.16593978"><ele>1602</ele><speed>6.15</speed><time>2016-07-01T12:43:42Z</time><pdop>5.0</pdop><geoidheight>54.00</geoidheight><course>242.7</course><type>1</type></trkpt>
      <trkpt lat="40.54605221" lon="-5.16619791"><ele>1600</ele><speed>5.86</speed><time>2016-07-01T12:43:46Z</time><pdop>7.0</pdop><geoidheight>54.00</geoidheight><course>257.7</course><type>1</type></trkpt>
      <trkpt lat="40.54607678" lon="-5.16643028"><ele>1601</ele><speed>6.39</speed><time>2016-07-01T12:43:49Z</time><pdop>7.0</pdop><geoidheight>54.00</geoidheight><course>278.3</course><type>1</type></trkpt>
      <trkpt lat="40.54616034" lon="-5.16654308"><ele>1600</ele><speed>5.95</speed><time>2016-07-01T12:43:51Z</time><pdop>5.0</pdop><geoidheight>54.00</geoidheight><course>301.2</course><type>1</type></trkpt>
      <trkpt lat="40.54623147" lon="-5.16664018"><ele>1598</ele><speed>5.08</speed><time>2016-07-01T12:43:53Z</time><pdop>5.0</pdop><geoidheight>54.00</geoidheight><course>305.4</course><type>1</type></trkpt>
      <trkpt lat="40.54630126" lon="-5.16673597"><ele>1597</ele><speed>5.60</speed><time>2016-07-01T12:43:55Z</time><pdop>6.0</pdop><geoidheight>54.00</geoidheight><course>308.1</course><type>1</type></trkpt>
      <trkpt lat="40.54645186" lon="-5.16681932"><ele>1595</ele><speed>8.53</speed><time>2016-07-01T12:43:57Z</time><pdop>8.0</pdop><geoidheight>54.00</geoidheight><course>317.7</course><type>1</type></trkpt>
      <trkpt lat="40.54658141" lon="-5.16695027"><ele>1595</ele><speed>9.31</speed><time>2016-07-01T12:43:59Z</time><pdop>9.0</pdop><geoidheight>54.00</geoidheight><course>323.9</course><type>1</type></trkpt>
      <trkpt lat="40.54673601" lon="-5.16698767"><ele>1592</ele><speed>8.10</speed><time>2016-07-01T12:44:01Z</time><pdop>8.0</pdop><geoidheight>54.00</geoidheight><course>347.8</course><type>1</type></trkpt>
      <trkpt lat="40.54694829" lon="-5.16697605"><ele>1593</ele><speed>7.70</speed><time>2016-07-01T12:44:04Z</time><pdop>11.0</pdop><geoidheight>54.00</geoidheight><course>2.6</course><type>1</type></trkpt>
      <trkpt lat="40.54720106" lon="-5.16703756"><ele>1593</ele><speed>7.76</speed><time>2016-07-01T12:44:08Z</time><pdop>11.0</pdop><geoidheight>54.00</geoidheight><course>347.0</course><type>1</type></trkpt>
      <trkpt lat="40.54739794" lon="-5.16712203"><ele>1595</ele><speed>7.46</speed><time>2016-07-01T12:44:11Z</time><pdop>8.0</pdop><geoidheight>54.00</geoidheight><course>356.2</course><type>1</type></trkpt>
      <trkpt lat="40.54759493" lon="-5.16712306"><ele>1596</ele><speed>7.74</speed><time>2016-07-01T12:44:14Z</time><pdop>11.0</pdop><geoidheight>54.00</geoidheight><course>0.5</course><type>1</type></trkpt>
      <trkpt lat="40.5478494" lon="-5.16702476"><ele>1595</ele><speed>7.70</speed><time>2016-07-01T12:44:18Z</time><pdop>12.0</pdop><geoidheight>54.00</geoidheight><course>15.3</course><type>1</type></trkpt>
      <trkpt lat="40.54802083" lon="-5.16716333"><ele>1595</ele><speed>5.24</speed><time>2016-07-01T12:44:22Z</time><pdop>10.0</pdop><geoidheight>54.00</geoidheight><course>327.2</course><type>1</type></trkpt>
      <trkpt lat="40.54805747" lon="-5.16746726"><ele>1594</ele><speed>6.62</speed><time>2016-07-01T12:44:25Z</time><pdop>10.0</pdop><geoidheight>54.00</geoidheight><course>291.3</course><type>1</type></trkpt>
      <trkpt lat="40.54818248" lon="-5.16762393"><ele>1595</ele><speed>4.53</speed><time>2016-07-01T12:44:29Z</time><pdop>8.0</pdop><geoidheight>54.00</geoidheight><course>308.8</course><type>1</type></trkpt>
      <trkpt lat="40.54825534" lon="-5.16779586"><ele>1592</ele><speed>7.93</speed><time>2016-07-01T12:44:31Z</time><pdop>7.0</pdop><geoidheight>54.00</geoidheight><course>303.3</course><type>1</type></trkpt>
      <trkpt lat="40.54831221" lon="-5.16793059"><ele>1591</ele><speed>7.53</speed><time>2016-07-01T12:44:33Z</time><pdop>6.0</pdop><geoidheight>54.00</geoidheight><course>300.6</course><type>1</type></trkpt>
      <trkpt lat="40.54834972" lon="-5.16810036"><ele>1590</ele><speed>5.02</speed><time>2016-07-01T12:44:36Z</time><pdop>6.0</pdop><geoidheight>54.00</geoidheight><course>283.7</course><type>1</type></trkpt>
      <trkpt lat="40.54833652" lon="-5.1683291"><ele>1590</ele><speed>5.64</speed><time>2016-07-01T12:44:40Z</time><pdop>11.0</pdop><geoidheight>54.00</geoidheight><course>264.5</course><type>1</type></trkpt>
      <trkpt lat="40.5483102" lon="-5.16862359"><ele>1587</ele><speed>7.49</speed><time>2016-07-01T12:44:43Z</time><pdop>8.0</pdop><geoidheight>54.00</geoidheight><course>268.2</course><type>1</type></trkpt>
      <trkpt lat="40.54832932" lon="-5.16883115"><ele>1587</ele><speed>6.24</speed><time>2016-07-01T12:44:46Z</time><pdop>8.0</pdop><geoidheight>54.00</geoidheight><course>264.1</course><type>1</type></trkpt>
      <trkpt lat="40.54832469" lon="-5.1690259"><ele>1588</ele><speed>5.60</speed><time>2016-07-01T12:44:49Z</time><pdop>7.0</pdop><geoidheight>54.00</geoidheight><course>270.7</course><type>1</type></trkpt>
      <trkpt lat="40.54832323" lon="-5.16922553"><ele>1590</ele><speed>5.50</speed><time>2016-07-01T12:44:52Z</time><pdop>8.0</pdop><geoidheight>54.00</geoidheight><course>270.3</course><type>1</type></trkpt>
      <trkpt lat="40.54829976" lon="-5.16940889"><ele>1590</ele><speed>2.32</speed><time>2016-07-01T12:44:57Z</time><pdop>7.0</pdop><geoidheight>54.00</geoidheight><course>275.6</course><type>1</type></trkpt>
      <trkpt lat="40.54839479" lon="-5.1695319"><ele>1591</ele><speed>6.93</speed><time>2016-07-01T12:45:00Z</time><pdop>6.0</pdop><geoidheight>54.00</geoidheight><course>321.7</course><type>1</type></trkpt>
      <trkpt lat="40.54850607" lon="-5.16958737"><ele>1594</ele><speed>6.55</speed><time>2016-07-01T12:45:02Z</time><pdop>5.0</pdop><geoidheight>54.00</geoidheight><course>335.9</course><type>1</type></trkpt>
      <trkpt lat="40.54863064" lon="-5.16963502"><ele>1596</ele><speed>6.89</speed><time>2016-07-01T12:45:04Z</time><pdop>6.0</pdop><geoidheight>54.00</geoidheight><course>346.0</course><type>1</type></trkpt>
      <trkpt lat="40.54878131" lon="-5.16958901"><ele>1595</ele><speed>8.11</speed><time>2016-07-01T12:45:06Z</time><pdop>8.0</pdop><geoidheight>54.00</geoidheight><course>6.6</course><type>1</type></trkpt>
      <trkpt lat="40.54896032" lon="-5.16948948"><ele>1595</ele><speed>9.65</speed><time>2016-07-01T12:45:08Z</time><pdop>8.0</pdop><geoidheight>54.00</geoidheight><course>18.5</course><type>1</type></trkpt>
      <trkpt lat="40.54911074" lon="-5.16944188"><ele>1595</ele><speed>9.30</speed><time>2016-07-01T12:45:10Z</time><pdop>9.0</pdop><geoidheight>54.00</geoidheight><course>14.5</course><type>1</type></trkpt>
      <trkpt lat="40.54935198" lon="-5.16946142"><ele>1596</ele><speed>7.95</speed><time>2016-07-01T12:45:13Z</time><pdop>11.0</pdop><geoidheight>54.00</geoidheight><course>356.4</course><type>1</type></trkpt>
      <trkpt lat="40.54914448" lon="-5.16953534"><ele>1594</ele><speed>6.45</speed><time>2016-07-01T12:45:22Z</time><pdop>11.0</pdop><geoidheight>54.00</geoidheight><course>148.4</course><type>1</type></trkpt>
      <trkpt lat="40.54897313" lon="-5.16926197"><ele>1592</ele><speed>11.21</speed><time>2016-07-01T12:45:24Z</time><pdop>11.0</pdop><geoidheight>54.00</geoidheight><course>126.7</course><type>1</type></trkpt>
      <trkpt lat="40.54881781" lon="-5.16898915"><ele>1592</ele><speed>12.86</speed><time>2016-07-01T12:45:26Z</time><pdop>11.0</pdop><geoidheight>54.00</geoidheight><course>125.4</course><type>1</type></trkpt>
      <trkpt lat="40.54866889" lon="-5.16873486"><ele>1592</ele><speed>13.17</speed><time>2016-07-01T12:45:28Z</time><pdop>10.0</pdop><geoidheight>54.00</geoidheight><course>126.6</course><type>1</type></trkpt>
      <trkpt lat="40.54850985" lon="-5.16847418"><ele>1594</ele><speed>13.42</speed><time>2016-07-01T12:45:30Z</time><pdop>11.0</pdop><geoidheight>54.00</geoidheight><course>126.5</course><type>1</type></trkpt>
      <trkpt lat="40.54833927" lon="-5.16824902"><ele>1595</ele><speed>12.47</speed><time>2016-07-01T12:45:32Z</time><pdop>10.0</pdop><geoidheight>54.00</geoidheight><course>133.7</course><type>1</type></trkpt>
      <trkpt lat="40.54817333" lon="-5.16811295"><ele>1596</ele><speed>9.49</speed><time>2016-07-01T12:45:34Z</time><pdop>10.0</pdop><geoidheight>54.00</geoidheight><course>149.6</course><type>1</type></trkpt>
      <trkpt lat="40.54802806" lon="-5.16808745"><ele>1594</ele><speed>6.29</speed><time>2016-07-01T12:45:36Z</time><pdop>4.0</pdop><geoidheight>54.00</geoidheight><course>182.3</course><type>1</type></trkpt>
      <trkpt lat="40.54793486" lon="-5.16814278"><ele>1594</ele><speed>5.26</speed><time>2016-07-01T12:45:38Z</time><pdop>6.0</pdop><geoidheight>54.00</geoidheight><course>200.7</course><type>1</type></trkpt>
      <trkpt lat="40.5480601" lon="-5.16824618"><ele>1594</ele><speed>5.04</speed><time>2016-07-01T12:45:40Z</time><pdop>6.0</pdop><geoidheight>54.00</geoidheight><course>326.6</course><type>1</type></trkpt>
      <trkpt lat="40.54818221" lon="-5.16828055"><ele>1597</ele><speed>6.48</speed><time>2016-07-01T12:45:42Z</time><pdop>6.0</pdop><geoidheight>54.00</geoidheight><course>350.3</course><type>1</type></trkpt>
      <trkpt lat="40.54831199" lon="-5.16828481"><ele>1599</ele><speed>7.19</speed><time>2016-07-01T12:45:44Z</time><pdop>8.0</pdop><geoidheight>54.00</geoidheight><course>356.1</course><type>1</type></trkpt>
      <trkpt lat="40.5485378" lon="-5.16825798"><ele>1598</ele><speed>8.30</speed><time>2016-07-01T12:45:47Z</time><pdop>11.0</pdop><geoidheight>54.00</geoidheight><course>5.1</course><type>1</type></trkpt>
      <trkpt lat="40.54874347" lon="-5.16821838"><ele>1601</ele><speed>8.43</speed><time>2016-07-01T12:45:50Z</time><pdop>12.0</pdop><geoidheight>54.00</geoidheight><course>11.8</course><type>1</type></trkpt>
      <trkpt lat="40.54900001" lon="-5.16817928"><ele>1597</ele><speed>8.55</speed><time>2016-07-01T12:45:53Z</time><pdop>11.0</pdop><geoidheight>54.00</geoidheight><course>5.7</course><type>1</type></trkpt>
      <trkpt lat="40.54922171" lon="-5.16827002"><ele>1597</ele><speed>7.03</speed><time>2016-07-01T12:45:56Z</time><pdop>8.0</pdop><geoidheight>54.00</geoidheight><course>336.4</course><type>1</type></trkpt>
      <trkpt lat="40.54924835" lon="-5.16851714"><ele>1595</ele><speed>5.13</speed><time>2016-07-01T12:46:01Z</time><pdop>11.0</pdop><geoidheight>54.00</geoidheight><course>268.6</course><type>1</type></trkpt>
      <trkpt lat="40.5490567" lon="-5.16864772"><ele>1591</ele><speed>5.53</speed><time>2016-07-01T12:46:05Z</time><pdop>9.0</pdop><geoidheight>54.00</geoidheight><course>219.1</course><type>1</type></trkpt>
      <trkpt lat="40.54889875" lon="-5.16872446"><ele>1586</ele><speed>7.07</speed><time>2016-07-01T12:46:08Z</time><pdop>9.0</pdop><geoidheight>54.00</geoidheight><course>194.2</course><type>1</type></trkpt>
      <trkpt lat="40.54864929" lon="-5.16865885"><ele>1575</ele><speed>8.72</speed><time>2016-07-01T12:46:11Z</time><pdop>6.0</pdop><geoidheight>54.00</geoidheight><course>175.1</course><type>1</type></trkpt>
      <trkpt lat="40.54850389" lon="-5.16866293"><ele>1571</ele><speed>9.00</speed><time>2016-07-01T12:46:13Z</time><pdop>4.0</pdop><geoidheight>54.00</geoidheight><course>184.4</course><type>1</type></trkpt>
      <trkpt lat="40.54837926" lon="-5.16871262"><ele>1570</ele><speed>7.58</speed><time>2016-07-01T12:46:15Z</time><pdop>4.0</pdop><geoidheight>54.00</geoidheight><course>193.1</course><type>1</type></trkpt>
      <trkpt lat="40.54825887" lon="-5.16873191"><ele>1570</ele><speed>6.38</speed><time>2016-07-01T12:46:17Z</time><pdop>5.0</pdop><geoidheight>54.00</geoidheight><course>188.9</course><type>1</type></trkpt>
      <trkpt lat="40.54812137" lon="-5.16873083"><ele>1570</ele><speed>7.47</speed><time>2016-07-01T12:46:19Z</time><pdop>5.0</pdop><geoidheight>54.00</geoidheight><course>179.5</course><type>1</type></trkpt>
      <trkpt lat="40.54798167" lon="-5.16868248"><ele>1570</ele><speed>8.11</speed><time>2016-07-01T12:46:21Z</time><pdop>6.0</pdop><geoidheight>54.00</geoidheight><course>170.9</course><type>1</type></trkpt>
      <trkpt lat="40.54783622" lon="-5.16868397"><ele>1572</ele><speed>7.48</speed><time>2016-07-01T12:46:23Z</time><pdop>5.0</pdop><geoidheight>54.00</geoidheight><course>169.7</course><type>1</type></trkpt>
      <trkpt lat="40.54773029" lon="-5.16863034"><ele>1575</ele><speed>5.27</speed><time>2016-07-01T12:46:25Z</time><pdop>5.0</pdop><geoidheight>54.00</geoidheight><course>166.3</course><type>1</type></trkpt>
      <trkpt lat="40.54772666" lon="-5.16879987"><ele>1578</ele><speed>4.65</speed><time>2016-07-01T12:46:30Z</time><pdop>8.0</pdop><geoidheight>54.00</geoidheight><course>297.0</course><type>1</type></trkpt>
      <trkpt lat="40.54802155" lon="-5.16874065"><ele>1582</ele><speed>9.06</speed><time>2016-07-01T12:46:33Z</time><pdop>7.0</pdop><geoidheight>54.00</geoidheight><course>11.5</course><type>1</type></trkpt>
      <trkpt lat="40.54821827" lon="-5.16871287"><ele>1583</ele><speed>9.32</speed><time>2016-07-01T12:46:35Z</time><pdop>9.0</pdop><geoidheight>54.00</geoidheight><course>4.4</course><type>1</type></trkpt>
      <trkpt lat="40.54834628" lon="-5.16886777"><ele>1583</ele><speed>6.02</speed><time>2016-07-01T12:46:38Z</time><pdop>8.0</pdop><geoidheight>54.00</geoidheight><course>326.6</course><type>1</type></trkpt>
      <trkpt lat="40.54821097" lon="-5.16867274"><ele>1581</ele><speed>4.65</speed><time>2016-07-01T12:46:42Z</time><pdop>14.0</pdop><geoidheight>54.00</geoidheight><course>120.6</course><type>1</type></trkpt>
      <trkpt lat="40.54797646" lon="-5.16834205"><ele>1587</ele><speed>10.74</speed><time>2016-07-01T12:46:44Z</time><pdop>11.0</pdop><geoidheight>54.00</geoidheight><course>121.4</course><type>1</type></trkpt>
      <trkpt lat="40.54781028" lon="-5.16805963"><ele>1590</ele><speed>11.26</speed><time>2016-07-01T12:46:46Z</time><pdop>10.0</pdop><geoidheight>54.00</geoidheight><course>118.2</course><type>1</type></trkpt>
      <trkpt lat="40.54765713" lon="-5.16783798"><ele>1593</ele><speed>10.70</speed><time>2016-07-01T12:46:48Z</time><pdop>7.0</pdop><geoidheight>54.00</geoidheight><course>129.2</course><type>1</type></trkpt>
      <trkpt lat="40.54747916" lon="-5.16771074"><ele>1593</ele><speed>9.52</speed><time>2016-07-01T12:46:50Z</time><pdop>6.0</pdop><geoidheight>54.00</geoidheight><course>150.1</course><type>1</type></trkpt>
      <trkpt lat="40.54731176" lon="-5.1676193"><ele>1593</ele><speed>8.64</speed><time>2016-07-01T12:46:52Z</time><pdop>7.0</pdop><geoidheight>54.00</geoidheight><course>156.7</course><type>1</type></trkpt>
      <trkpt lat="40.54738391" lon="-5.16777939"><ele>1592</ele><speed>7.25</speed><time>2016-07-01T12:46:57Z</time><pdop>6.0</pdop><geoidheight>54.00</geoidheight><course>338.8</course><type>1</type></trkpt>
      <trkpt lat="40.54752828" lon="-5.16784102"><ele>1592</ele><speed>7.95</speed><time>2016-07-01T12:46:59Z</time><pdop>6.0</pdop><geoidheight>54.00</geoidheight><course>344.2</course><type>1</type></trkpt>
      <trkpt lat="40.54769987" lon="-5.16784559"><ele>1593</ele><speed>8.72</speed><time>2016-07-01T12:47:01Z</time><pdop>8.0</pdop><geoidheight>54.00</geoidheight><course>354.8</course><type>1</type></trkpt>
      <trkpt lat="40.54787314" lon="-5.1678711"><ele>1595</ele><speed>9.16</speed><time>2016-07-01T12:47:03Z</time><pdop>11.0</pdop><geoidheight>54.00</geoidheight><course>356.8</course><type>1</type></trkpt>
      <trkpt lat="40.54813569" lon="-5.16790122"><ele>1594</ele><speed>8.03</speed><time>2016-07-01T12:47:07Z</time><pdop>13.0</pdop><geoidheight>54.00</geoidheight><course>348.5</course><type>1</type></trkpt>
      <trkpt lat="40.54835121" lon="-5.167962"><ele>1592</ele><speed>7.47</speed><time>2016-07-01T12:47:10Z</time><pdop>5.0</pdop><geoidheight>54.00</geoidheight><course>347.0</course><type>1</type></trkpt>
      <trkpt lat="40.54846457" lon="-5.16801004"><ele>1594</ele><speed>7.01</speed><time>2016-07-01T12:47:12Z</time><pdop>5.0</pdop><geoidheight>54.00</geoidheight><course>345.9</course><type>1</type></trkpt>
      <trkpt lat="40.54860784" lon="-5.16805372"><ele>1593</ele><speed>7.87</speed><time>2016-07-01T12:47:14Z</time><pdop>4.0</pdop><geoidheight>54.00</geoidheight><course>344.3</course><type>1</type></trkpt>
      <trkpt lat="40.54867739" lon="-5.16806535"><ele>1593</ele><speed>7.87</speed><time>2016-07-01T12:47:15Z</time><pdop>3.0</pdop><geoidheight>54.00</geoidheight><course>345.3</course><type>1</type></trkpt>
      <trkpt lat="40.54874777" lon="-5.16808656"><ele>1594</ele><speed>7.37</speed><time>2016-07-01T12:47:16Z</time><pdop>3.0</pdop><geoidheight>54.00</geoidheight><course>347.0</course><type>1</type></trkpt>
      <trkpt lat="40.5488064" lon="-5.16810543"><ele>1593</ele><speed>7.00</speed><time>2016-07-01T12:47:17Z</time><pdop>3.0</pdop><geoidheight>54.00</geoidheight><course>346.9</course><type>1</type></trkpt>
      <trkpt lat="40.54892092" lon="-5.16814188"><ele>1593</ele><speed>6.84</speed><time>2016-07-01T12:47:19Z</time><pdop>3.0</pdop><geoidheight>54.00</geoidheight><course>343.1</course><type>1</type></trkpt>
      <trkpt lat="40.54898672" lon="-5.1681668"><ele>1593</ele><speed>7.16</speed><time>2016-07-01T12:47:20Z</time><pdop>4.0</pdop><geoidheight>54.00</geoidheight><course>342.8</course><type>1</type></trkpt>
      <trkpt lat="40.54911594" lon="-5.16820232"><ele>1591</ele><speed>7.03</speed><time>2016-07-01T12:47:22Z</time><pdop>4.0</pdop><geoidheight>54.00</geoidheight><course>347.3</course><type>1</type></trkpt>
      <trkpt lat="40.54925916" lon="-5.16822405"><ele>1590</ele><speed>7.27</speed><time>2016-07-01T12:47:24Z</time><pdop>3.0</pdop><geoidheight>54.00</geoidheight><course>356.9</course><type>1</type></trkpt>
      <trkpt lat="40.54932386" lon="-5.16822847"><ele>1590</ele><speed>7.89</speed><time>2016-07-01T12:47:25Z</time><pdop>3.0</pdop><geoidheight>54.00</geoidheight><course>357.1</course><type>1</type></trkpt>
      <trkpt lat="40.54939793" lon="-5.16824038"><ele>1590</ele><speed>8.37</speed><time>2016-07-01T12:47:26Z</time><pdop>3.0</pdop><geoidheight>54.00</geoidheight><course>357.3</course><type>1</type></trkpt>
      <trkpt lat="40.54946206" lon="-5.16824454"><ele>1590</ele><speed>8.12</speed><time>2016-07-01T12:47:27Z</time><pdop>4.0</pdop><geoidheight>54.00</geoidheight><course>357.1</course><type>1</type></trkpt>
      <trkpt lat="40.54953729" lon="-5.1682506"><ele>1589</ele><speed>7.66</speed><time>2016-07-01T12:47:28Z</time><pdop>3.0</pdop><geoidheight>54.00</geoidheight><course>354.7</course><type>1</type></trkpt>
      <trkpt lat="40.54959502" lon="-5.16826719"><ele>1588</ele><speed>7.45</speed><time>2016-07-01T12:47:29Z</time><pdop>3.0</pdop><geoidheight>54.00</geoidheight><course>351.3</course><type>1</type></trkpt>
      <trkpt lat="40.54965691" lon="-5.16828241"><ele>1587</ele><speed>7.71</speed><time>2016-07-01T12:47:30Z</time><pdop>3.0</pdop><geoidheight>54.00</geoidheight><course>347.3</course><type>1</type></trkpt>
      <trkpt lat="40.54980775" lon="-5.16834747"><ele>1586</ele><speed>8.37</speed><time>2016-07-01T12:47:32Z</time><pdop>9.0</pdop><geoidheight>54.00</geoidheight><course>341.9</course><type>1</type></trkpt>
      <trkpt lat="40.54992764" lon="-5.16837732"><ele>1584</ele><speed>7.11</speed><time>2016-07-01T12:47:34Z</time><pdop>4.0</pdop><geoidheight>54.00</geoidheight><course>345.0</course><type>1</type></trkpt>
      <trkpt lat="40.55003767" lon="-5.16842814"><ele>1584</ele><speed>5.51</speed><time>2016-07-01T12:47:36Z</time><pdop>6.0</pdop><geoidheight>54.00</geoidheight><course>339.1</course><type>1</type></trkpt>
      <trkpt lat="40.55003096" lon="-5.16859312"><ele>1583</ele><speed>4.65</speed><time>2016-07-01T12:47:39Z</time><pdop>7.0</pdop><geoidheight>54.00</geoidheight><course>265.9</course><type>1</type></trkpt>
      <trkpt lat="40.54988277" lon="-5.16868872"><ele>1580</ele><speed>3.72</speed><time>2016-07-01T12:47:43Z</time><pdop>10.0</pdop><geoidheight>54.00</geoidheight><course>224.0</course><type>1</type></trkpt>
      <trkpt lat="40.54962394" lon="-5.16864434"><ele>1575</ele><speed>6.50</speed><time>2016-07-01T12:47:49Z</time><pdop>9.0</pdop><geoidheight>54.00</geoidheight><course>165.5</course><type>1</type></trkpt>
      <trkpt lat="40.54943703" lon="-5.16856188"><ele>1573</ele><speed>7.17</speed><time>2016-07-01T12:47:52Z</time><pdop>7.0</pdop><geoidheight>54.00</geoidheight><course>158.3</course><type>1</type></trkpt>
      <trkpt lat="40.54928002" lon="-5.16845955"><ele>1572</ele><speed>8.56</speed><time>2016-07-01T12:47:54Z</time><pdop>7.0</pdop><geoidheight>54.00</geoidheight><course>158.0</course><type>1</type></trkpt>
      <trkpt lat="40.54912154" lon="-5.16843735"><ele>1570</ele><speed>8.31</speed><time>2016-07-01T12:47:56Z</time><pdop>6.0</pdop><geoidheight>54.00</geoidheight><course>170.7</course><type>1</type></trkpt>
      <trkpt lat="40.54901008" lon="-5.16844517"><ele>1568</ele><speed>5.86</speed><time>2016-07-01T12:47:58Z</time><pdop>5.0</pdop><geoidheight>54.00</geoidheight><course>180.4</course><type>1</type></trkpt>
      <trkpt lat="40.54884596" lon="-5.16845488"><ele>1568</ele><speed>5.96</speed><time>2016-07-01T12:48:01Z</time><pdop>8.0</pdop><geoidheight>54.00</geoidheight><course>185.7</course><type>1</type></trkpt>
      <trkpt lat="40.5487117" lon="-5.16853441"><ele>1566</ele><speed>5.11</speed><time>2016-07-01T12:48:05Z</time><pdop>8.0</pdop><geoidheight>54.00</geoidheight><course>179.5</course><type>1</type></trkpt>
      <trkpt lat="40.54856489" lon="-5.168466"><ele>1568</ele><speed>7.25</speed><time>2016-07-01T12:48:07Z</time><pdop>6.0</pdop><geoidheight>54.00</geoidheight><course>164.9</course><type>1</type></trkpt>
      <trkpt lat="40.54841162" lon="-5.16837586"><ele>1566</ele><speed>8.81</speed><time>2016-07-01T12:48:09Z</time><pdop>5.0</pdop><geoidheight>54.00</geoidheight><course>157.4</course><type>1</type></trkpt>
      <trkpt lat="40.54831839" lon="-5.16831674"><ele>1566</ele><speed>8.82</speed><time>2016-07-01T12:48:10Z</time><pdop>5.0</pdop><geoidheight>54.00</geoidheight><course>156.7</course><type>1</type></trkpt>
      <trkpt lat="40.54818389" lon="-5.16823296"><ele>1567</ele><speed>8.35</speed><time>2016-07-01T12:48:12Z</time><pdop>4.0</pdop><geoidheight>54.00</geoidheight><course>164.1</course><type>1</type></trkpt>
      <trkpt lat="40.5480501" lon="-5.16820948"><ele>1565</ele><speed>7.50</speed><time>2016-07-01T12:48:14Z</time><pdop>4.0</pdop><geoidheight>54.00</geoidheight><course>175.2</course><type>1</type></trkpt>
      <trkpt lat="40.547915" lon="-5.16819306"><ele>1566</ele><speed>7.26</speed><time>2016-07-01T12:48:16Z</time><pdop>6.0</pdop><geoidheight>54.00</geoidheight><course>174.7</course><type>1</type></trkpt>
      <trkpt lat="40.54778817" lon="-5.16817718"><ele>1565</ele><speed>6.61</speed><time>2016-07-01T12:48:18Z</time><pdop>5.0</pdop><geoidheight>54.00</geoidheight><course>174.4</course><type>1</type></trkpt>
      <trkpt lat="40.54766908" lon="-5.16819119"><ele>1563</ele><speed>7.61</speed><time>2016-07-01T12:48:20Z</time><pdop>7.0</pdop><geoidheight>54.00</geoidheight><course>185.0</course><type>1</type></trkpt>
      <trkpt lat="40.54753387" lon="-5.16829665"><ele>1561</ele><speed>8.67</speed><time>2016-07-01T12:48:22Z</time><pdop>6.0</pdop><geoidheight>54.00</geoidheight><course>203.9</course><type>1</type></trkpt>
      <trkpt lat="40.54741977" lon="-5.1683965"><ele>1561</ele><speed>7.54</speed><time>2016-07-01T12:48:24Z</time><pdop>6.0</pdop><geoidheight>54.00</geoidheight><course>204.6</course><type>1</type></trkpt>
      <trkpt lat="40.54728585" lon="-5.16841101"><ele>1560</ele><speed>6.66</speed><time>2016-07-01T12:48:26Z</time><pdop>6.0</pdop><geoidheight>54.00</geoidheight><course>178.1</course><type>1</type></trkpt>
      <trkpt lat="40.54712975" lon="-5.16836521"><ele>1558</ele><speed>7.96</speed><time>2016-07-01T12:48:28Z</time><pdop>5.0</pdop><geoidheight>54.00</geoidheight><course>170.9</course><type>1</type></trkpt>
      <trkpt lat="40.54700481" lon="-5.16838553"><ele>1559</ele><speed>6.49</speed><time>2016-07-01T12:48:30Z</time><pdop>5.0</pdop><geoidheight>54.00</geoidheight><course>188.7</course><type>1</type></trkpt>
      <trkpt lat="40.54708286" lon="-5.16859369"><ele>1557</ele><speed>6.27</speed><time>2016-07-01T12:48:35Z</time><pdop>8.0</pdop><geoidheight>54.00</geoidheight><course>323.9</course><type>1</type></trkpt>
      <trkpt lat="40.54729815" lon="-5.1686764"><ele>1557</ele><speed>6.98</speed><time>2016-07-01T12:48:38Z</time><pdop>11.0</pdop><geoidheight>54.00</geoidheight><course>353.4</course><type>1</type></trkpt>
      <trkpt lat="40.54751747" lon="-5.1687307"><ele>1555</ele><speed>7.84</speed><time>2016-07-01T12:48:41Z</time><pdop>12.0</pdop><geoidheight>54.00</geoidheight><course>346.0</course><type>1</type></trkpt>
      <trkpt lat="40.54780086" lon="-5.16872511"><ele>1554</ele><speed>11.00</speed><time>2016-07-01T12:48:44Z</time><pdop>11.0</pdop><geoidheight>54.00</geoidheight><course>1.7</course><type>1</type></trkpt>
      <trkpt lat="40.54806812" lon="-5.16866628"><ele>1552</ele><speed>10.20</speed><time>2016-07-01T12:48:47Z</time><pdop>10.0</pdop><geoidheight>54.00</geoidheight><course>5.7</course><type>1</type></trkpt>
      <trkpt lat="40.54824244" lon="-5.16865336"><ele>1553</ele><speed>9.38</speed><time>2016-07-01T12:48:49Z</time><pdop>5.0</pdop><geoidheight>54.00</geoidheight><course>7.7</course><type>1</type></trkpt>
      <trkpt lat="40.54836883" lon="-5.16862687"><ele>1554</ele><speed>7.45</speed><time>2016-07-01T12:48:51Z</time><pdop>5.0</pdop><geoidheight>54.00</geoidheight><course>8.5</course><type>1</type></trkpt>
      <trkpt lat="40.5484785" lon="-5.16867586"><ele>1552</ele><speed>6.58</speed><time>2016-07-01T12:48:53Z</time><pdop>4.0</pdop><geoidheight>54.00</geoidheight><course>340.8</course><type>1</type></trkpt>
      <trkpt lat="40.54860258" lon="-5.16878337"><ele>1552</ele><speed>7.73</speed><time>2016-07-01T12:48:55Z</time><pdop>4.0</pdop><geoidheight>54.00</geoidheight><course>333.6</course><type>1</type></trkpt>
      <trkpt lat="40.54867395" lon="-5.16881479"><ele>1551</ele><speed>7.46</speed><time>2016-07-01T12:48:56Z</time><pdop>4.0</pdop><geoidheight>54.00</geoidheight><course>337.7</course><type>1</type></trkpt>
      <trkpt lat="40.54880259" lon="-5.16889607"><ele>1550</ele><speed>7.51</speed><time>2016-07-01T12:48:58Z</time><pdop>5.0</pdop><geoidheight>54.00</geoidheight><course>332.6</course><type>1</type></trkpt>
      <trkpt lat="40.54893483" lon="-5.16898116"><ele>1548</ele><speed>8.15</speed><time>2016-07-01T12:49:00Z</time><pdop>4.0</pdop><geoidheight>54.00</geoidheight><course>331.6</course><type>1</type></trkpt>
      <trkpt lat="40.54901058" lon="-5.16900878"><ele>1547</ele><speed>8.30</speed><time>2016-07-01T12:49:01Z</time><pdop>4.0</pdop><geoidheight>54.00</geoidheight><course>333.1</course><type>1</type></trkpt>
      <trkpt lat="40.54912701" lon="-5.16908867"><ele>1545</ele><speed>7.28</speed><time>2016-07-01T12:49:03Z</time><pdop>5.0</pdop><geoidheight>54.00</geoidheight><course>331.0</course><type>1</type></trkpt>
      <trkpt lat="40.54914946" lon="-5.16932337"><ele>1544</ele><speed>5.45</speed><time>2016-07-01T12:49:07Z</time><pdop>12.0</pdop><geoidheight>54.00</geoidheight><course>267.5</course><type>1</type></trkpt>
      <trkpt lat="40.54898003" lon="-5.16951803"><ele>1541</ele><speed>4.96</speed><time>2016-07-01T12:49:11Z</time><pdop>12.0</pdop><geoidheight>54.00</geoidheight><course>225.7</course><type>1</type></trkpt>
      <trkpt lat="40.54861959" lon="-5.16929962"><ele>1533</ele><speed>9.80</speed><time>2016-07-01T12:49:15Z</time><pdop>12.0</pdop><geoidheight>54.00</geoidheight><course>155.1</course><type>1</type></trkpt>
      <trkpt lat="40.54832323" lon="-5.16919451"><ele>1531</ele><speed>13.66</speed><time>2016-07-01T12:49:17Z</time><pdop>7.0</pdop><geoidheight>54.00</geoidheight><course>159.1</course><type>1</type></trkpt>
      <trkpt lat="40.54812037" lon="-5.16906373"><ele>1538</ele><speed>11.15</speed><time>2016-07-01T12:49:19Z</time><pdop>6.0</pdop><geoidheight>54.00</geoidheight><course>146.5</course><type>1</type></trkpt>
      <trkpt lat="40.54798581" lon="-5.16890059"><ele>1538</ele><speed>9.81</speed><time>2016-07-01T12:49:21Z</time><pdop>6.0</pdop><geoidheight>54.00</geoidheight><course>131.2</course><type>1</type></trkpt>
      <trkpt lat="40.5478713" lon="-5.16869995"><ele>1540</ele><speed>10.54</speed><time>2016-07-01T12:49:23Z</time><pdop>6.0</pdop><geoidheight>54.00</geoidheight><course>129.1</course><type>1</type></trkpt>
      <trkpt lat="40.54778347" lon="-5.16858723"><ele>1541</ele><speed>11.21</speed><time>2016-07-01T12:49:24Z</time><pdop>6.0</pdop><geoidheight>54.00</geoidheight><course>133.4</course><type>1</type></trkpt>
      <trkpt lat="40.54756683" lon="-5.16852884"><ele>1539</ele><speed>10.83</speed><time>2016-07-01T12:49:26Z</time><pdop>7.0</pdop><geoidheight>54.00</geoidheight><course>162.1</course><type>1</type></trkpt>
      <trkpt lat="40.54750194" lon="-5.16882617"><ele>1535</ele><speed>5.89</speed><time>2016-07-01T12:49:30Z</time><pdop>13.0</pdop><geoidheight>54.00</geoidheight><course>248.4</course><type>1</type></trkpt>
      <trkpt lat="40.54770414" lon="-5.16908151"><ele>1532</ele><speed>9.15</speed><time>2016-07-01T12:49:32Z</time><pdop>13.0</pdop><geoidheight>54.00</geoidheight><course>299.9</course><type>1</type></trkpt>
      <trkpt lat="40.54801131" lon="-5.16903822"><ele>1533</ele><speed>9.52</speed><time>2016-07-01T12:49:34Z</time><pdop>12.0</pdop><geoidheight>54.00</geoidheight><course>344.9</course><type>1</type></trkpt>
      <trkpt lat="40.54825636" lon="-5.16903039"><ele>1538</ele><speed>7.57</speed><time>2016-07-01T12:49:37Z</time><pdop>11.0</pdop><geoidheight>54.00</geoidheight><course>353.6</course><type>1</type></trkpt>
      <trkpt lat="40.54819314" lon="-5.16934669"><ele>1539</ele><speed>5.05</speed><time>2016-07-01T12:49:43Z</time><pdop>11.0</pdop><geoidheight>54.00</geoidheight><course>236.8</course><type>1</type></trkpt>
      <trkpt lat="40.54798856" lon="-5.1691181"><ele>1540</ele><speed>6.27</speed><time>2016-07-01T12:49:46Z</time><pdop>15.0</pdop><geoidheight>54.00</geoidheight><course>135.2</course><type>1</type></trkpt>
      <trkpt lat="40.54798859" lon="-5.16859241"><ele>1542</ele><speed>10.55</speed><time>2016-07-01T12:49:49Z</time><pdop>17.0</pdop><geoidheight>54.00</geoidheight><course>93.4</course><type>1</type></trkpt>
      <trkpt lat="40.54830839" lon="-5.16827318"><ele>1541</ele><speed>10.00</speed><time>2016-07-01T12:49:52Z</time><pdop>20.0</pdop><geoidheight>54.00</geoidheight><course>53.3</course><type>1</type></trkpt>
      <trkpt lat="40.54821848" lon="-5.16878072"><ele>1546</ele><speed>2.80</speed><time>2016-07-01T12:49:58Z</time><pdop>21.0</pdop><geoidheight>54.00</geoidheight><course>209.5</course><type>1</type></trkpt>
      <trkpt lat="40.54793545" lon="-5.16842351"><ele>1553</ele><speed>7.58</speed><time>2016-07-01T12:50:03Z</time><pdop>21.0</pdop><geoidheight>54.00</geoidheight><course>121.0</course><type>1</type></trkpt>
      <trkpt lat="40.54816158" lon="-5.16808144"><ele>1554</ele><speed>7.40</speed><time>2016-07-01T12:50:06Z</time><pdop>15.0</pdop><geoidheight>54.00</geoidheight><course>42.5</course><type>1</type></trkpt>
      <trkpt lat="40.54844533" lon="-5.16809489"><ele>1560</ele><speed>6.97</speed><time>2016-07-01T12:50:09Z</time><pdop>15.0</pdop><geoidheight>54.00</geoidheight><course>359.7</course><type>1</type></trkpt>
      <trkpt lat="40.54815397" lon="-5.16806621"><ele>1577</ele><speed>8.87</speed><time>2016-07-01T12:50:17Z</time><pdop>15.0</pdop><geoidheight>54.00</geoidheight><course>153.5</course><type>1</type></trkpt>
      <trkpt lat="40.54792365" lon="-5.16791686"><ele>1583</ele><speed>9.71</speed><time>2016-07-01T12:50:19Z</time><pdop>10.0</pdop><geoidheight>54.00</geoidheight><course>157.1</course><type>1</type></trkpt>
      <trkpt lat="40.54766604" lon="-5.16785957"><ele>1588</ele><speed>9.06</speed><time>2016-07-01T12:50:22Z</time><pdop>9.0</pdop><geoidheight>54.00</geoidheight><course>178.2</course><type>1</type></trkpt>
      <trkpt lat="40.54770881" lon="-5.16816288"><ele>1590</ele><speed>3.06</speed><time>2016-07-01T12:50:29Z</time><pdop>17.0</pdop><geoidheight>54.00</geoidheight><course>324.7</course><type>1</type></trkpt>
      <trkpt lat="40.54799494" lon="-5.16813866"><ele>1588</ele><speed>8.43</speed><time>2016-07-01T12:50:31Z</time><pdop>12.0</pdop><geoidheight>54.00</geoidheight><course>355.8</course><type>1</type></trkpt>
      <trkpt lat="40.54831104" lon="-5.16810319"><ele>1585</ele><speed>9.75</speed><time>2016-07-01T12:50:34Z</time><pdop>12.0</pdop><geoidheight>54.00</geoidheight><course>351.9</course><type>1</type></trkpt>
      <trkpt lat="40.5486166" lon="-5.16813355"><ele>1581</ele><speed>9.66</speed><time>2016-07-01T12:50:37Z</time><pdop>12.0</pdop><geoidheight>54.00</geoidheight><course>352.5</course><type>1</type></trkpt>
      <trkpt lat="40.54871013" lon="-5.16844625"><ele>1579</ele><speed>8.82</speed><time>2016-07-01T12:50:40Z</time><pdop>12.0</pdop><geoidheight>54.00</geoidheight><course>292.5</course><type>1</type></trkpt>
      <trkpt lat="40.54871546" lon="-5.16873473"><ele>1581</ele><speed>7.06</speed><time>2016-07-01T12:50:43Z</time><pdop>12.0</pdop><geoidheight>54.00</geoidheight><course>282.9</course><type>1</type></trkpt>
      <trkpt lat="40.54883806" lon="-5.16903979"><ele>1583</ele><speed>7.73</speed><time>2016-07-01T12:50:47Z</time><pdop>12.0</pdop><geoidheight>54.00</geoidheight><course>312.5</course><type>1</type></trkpt>
      <trkpt lat="40.54907576" lon="-5.16924956"><ele>1587</ele><speed>9.54</speed><time>2016-07-01T12:50:50Z</time><pdop>12.0</pdop><geoidheight>54.00</geoidheight><course>333.1</course><type>1</type></trkpt>
      <trkpt lat="40.54935765" lon="-5.16929433"><ele>1580</ele><speed>9.88</speed><time>2016-07-01T12:50:53Z</time><pdop>16.0</pdop><geoidheight>54.00</geoidheight><course>338.6</course><type>1</type></trkpt>
      <trkpt lat="40.54955933" lon="-5.16957074"><ele>1581</ele><speed>9.49</speed><time>2016-07-01T12:50:56Z</time><pdop>14.0</pdop><geoidheight>54.00</geoidheight><course>314.6</course><type>1</type></trkpt>
      <trkpt lat="40.5496421" lon="-5.16988242"><ele>1583</ele><speed>8.28</speed><time>2016-07-01T12:50:59Z</time><pdop>11.0</pdop><geoidheight>54.00</geoidheight><course>298.7</course><type>1</type></trkpt>
      <trkpt lat="40.54974734" lon="-5.17020941"><ele>1581</ele><speed>8.23</speed><time>2016-07-01T12:51:03Z</time><pdop>12.0</pdop><geoidheight>54.00</geoidheight><course>287.2</course><type>1</type></trkpt>
      <trkpt lat="40.54956598" lon="-5.17044811"><ele>1578</ele><speed>6.24</speed><time>2016-07-01T12:51:07Z</time><pdop>12.0</pdop><geoidheight>54.00</geoidheight><course>211.4</course><type>1</type></trkpt>
      <trkpt lat="40.5493336" lon="-5.17039809"><ele>1577</ele><speed>7.72</speed><time>2016-07-01T12:51:10Z</time><pdop>11.0</pdop><geoidheight>54.00</geoidheight><course>158.9</course><type>1</type></trkpt>
      <trkpt lat="40.54911766" lon="-5.1700991"><ele>1574</ele><speed>9.40</speed><time>2016-07-01T12:51:14Z</time><pdop>16.0</pdop><geoidheight>54.00</geoidheight><course>129.2</course><type>1</type></trkpt>
      <trkpt lat="40.54892754" lon="-5.16975446"><ele>1570</ele><speed>13.15</speed><time>2016-07-01T12:51:16Z</time><pdop>13.0</pdop><geoidheight>54.00</geoidheight><course>125.0</course><type>1</type></trkpt>
      <trkpt lat="40.54879903" lon="-5.16948003"><ele>1568</ele><speed>13.02</speed><time>2016-07-01T12:51:18Z</time><pdop>13.0</pdop><geoidheight>54.00</geoidheight><course>122.5</course><type>1</type></trkpt>
      <trkpt lat="40.54861898" lon="-5.16914669"><ele>1565</ele><speed>11.45</speed><time>2016-07-01T12:51:21Z</time><pdop>11.0</pdop><geoidheight>54.00</geoidheight><course>128.6</course><type>1</type></trkpt>
      <trkpt lat="40.54842393" lon="-5.16893169"><ele>1562</ele><speed>12.03</speed><time>2016-07-01T12:51:23Z</time><pdop>10.0</pdop><geoidheight>54.00</geoidheight><course>137.2</course><type>1</type></trkpt>
      <trkpt lat="40.54826283" lon="-5.16877356"><ele>1559</ele><speed>11.17</speed><time>2016-07-01T12:51:25Z</time><pdop>10.0</pdop><geoidheight>54.00</geoidheight><course>140.1</course><type>1</type></trkpt>
      <trkpt lat="40.54809124" lon="-5.16860182"><ele>1559</ele><speed>11.96</speed><time>2016-07-01T12:51:27Z</time><pdop>10.0</pdop><geoidheight>54.00</geoidheight><course>138.0</course><type>1</type></trkpt>
      <trkpt lat="40.54792019" lon="-5.16839376"><ele>1556</ele><speed>13.36</speed><time>2016-07-01T12:51:29Z</time><pdop>10.0</pdop><geoidheight>54.00</geoidheight><course>141.2</course><type>1</type></trkpt>
      <trkpt lat="40.54769889" lon="-5.16826533"><ele>1553</ele><speed>13.41</speed><time>2016-07-01T12:51:31Z</time><pdop>10.0</pdop><geoidheight>54.00</geoidheight><course>157.3</course><type>1</type></trkpt>
      <trkpt lat="40.54748668" lon="-5.16823344"><ele>1549</ele><speed>12.19</speed><time>2016-07-01T12:51:33Z</time><pdop>10.0</pdop><geoidheight>54.00</geoidheight><course>170.2</course><type>1</type></trkpt>
      <trkpt lat="40.54729998" lon="-5.16825346"><ele>1546</ele><speed>9.98</speed><time>2016-07-01T12:51:35Z</time><pdop>10.0</pdop><geoidheight>54.00</geoidheight><course>183.2</course><type>1</type></trkpt>
      <trkpt lat="40.54713777" lon="-5.16839219"><ele>1543</ele><speed>8.18</speed><time>2016-07-01T12:51:38Z</time><pdop>10.0</pdop><geoidheight>54.00</geoidheight><course>202.4</course><type>1</type></trkpt>
      <trkpt lat="40.54693047" lon="-5.16846749"><ele>1541</ele><speed>7.65</speed><time>2016-07-01T12:51:41Z</time><pdop>11.0</pdop><geoidheight>54.00</geoidheight><course>193.4</course><type>1</type></trkpt>
      <trkpt lat="40.54673053" lon="-5.16843638"><ele>1541</ele><speed>7.44</speed><time>2016-07-01T12:51:44Z</time><pdop>10.0</pdop><geoidheight>54.00</geoidheight><course>183.3</course><type>1</type></trkpt>
      <trkpt lat="40.5465171" lon="-5.16858513"><ele>1538</ele><speed>8.48</speed><time>2016-07-01T12:51:47Z</time><pdop>11.0</pdop><geoidheight>54.00</geoidheight><course>205.2</course><type>1</type></trkpt>
      <trkpt lat="40.54668881" lon="-5.1688644"><ele>1538</ele><speed>7.31</speed><time>2016-07-01T12:51:49Z</time><pdop>10.0</pdop><geoidheight>54.00</geoidheight><course>282.9</course><type>1</type></trkpt>
      <trkpt lat="40.54684908" lon="-5.16892993"><ele>1540</ele><speed>7.43</speed><time>2016-07-01T12:51:51Z</time><pdop>5.0</pdop><geoidheight>54.00</geoidheight><course>332.1</course><type>1</type></trkpt>
      <trkpt lat="40.54698102" lon="-5.16897111"><ele>1541</ele><speed>7.35</speed><time>2016-07-01T12:51:53Z</time><pdop>6.0</pdop><geoidheight>54.00</geoidheight><course>346.0</course><type>1</type></trkpt>
      <trkpt lat="40.54717155" lon="-5.16892921"><ele>1542</ele><speed>9.37</speed><time>2016-07-01T12:51:55Z</time><pdop>6.0</pdop><geoidheight>54.00</geoidheight><course>10.5</course><type>1</type></trkpt>
      <trkpt lat="40.54733735" lon="-5.16886375"><ele>1540</ele><speed>9.79</speed><time>2016-07-01T12:51:57Z</time><pdop>8.0</pdop><geoidheight>54.00</geoidheight><course>14.8</course><type>1</type></trkpt>
      <trkpt lat="40.5475018" lon="-5.16889178"><ele>1540</ele><speed>6.13</speed><time>2016-07-01T12:52:00Z</time><pdop>8.0</pdop><geoidheight>54.00</geoidheight><course>354.0</course><type>1</type></trkpt>
      <trkpt lat="40.54749582" lon="-5.16911118"><ele>1539</ele><speed>5.88</speed><time>2016-07-01T12:52:03Z</time><pdop>6.0</pdop><geoidheight>54.00</geoidheight><course>285.3</course><type>1</type></trkpt>
      <trkpt lat="40.54731547" lon="-5.1693396"><ele>1535</ele><speed>8.11</speed><time>2016-07-01T12:52:06Z</time><pdop>8.0</pdop><geoidheight>54.00</geoidheight><course>231.3</course><type>1</type></trkpt>
      <trkpt lat="40.54712174" lon="-5.16931232"><ele>1530</ele><speed>7.10</speed><time>2016-07-01T12:52:08Z</time><pdop>8.0</pdop><geoidheight>54.00</geoidheight><course>175.5</course><type>1</type></trkpt>
      <trkpt lat="40.54690724" lon="-5.16920203"><ele>1528</ele><speed>10.09</speed><time>2016-07-01T12:52:10Z</time><pdop>8.0</pdop><geoidheight>54.00</geoidheight><course>156.5</course><type>1</type></trkpt>
      <trkpt lat="40.54673823" lon="-5.16899364"><ele>1526</ele><speed>11.36</speed><time>2016-07-01T12:52:12Z</time><pdop>7.0</pdop><geoidheight>54.00</geoidheight><course>137.9</course><type>1</type></trkpt>
      <trkpt lat="40.54662682" lon="-5.16884423"><ele>1527</ele><speed>9.78</speed><time>2016-07-01T12:52:14Z</time><pdop>5.0</pdop><geoidheight>54.00</geoidheight><course>144.9</course><type>1</type></trkpt>
      <trkpt lat="40.54644637" lon="-5.16876875"><ele>1526</ele><speed>10.04</speed><time>2016-07-01T12:52:16Z</time><pdop>5.0</pdop><geoidheight>54.00</geoidheight><course>164.0</course><type>1</type></trkpt>
      <trkpt lat="40.54633742" lon="-5.16874347"><ele>1526</ele><speed>10.87</speed><time>2016-07-01T12:52:17Z</time><pdop>5.0</pdop><geoidheight>54.00</geoidheight><course>172.4</course><type>1</type></trkpt>
      <trkpt lat="40.54624052" lon="-5.16875721"><ele>1525</ele><speed>10.16</speed><time>2016-07-01T12:52:18Z</time><pdop>5.0</pdop><geoidheight>54.00</geoidheight><course>180.7</course><type>1</type></trkpt>
      <trkpt lat="40.5460607" lon="-5.16878259"><ele>1524</ele><speed>9.48</speed><time>2016-07-01T12:52:20Z</time><pdop>6.0</pdop><geoidheight>54.00</geoidheight><course>185.3</course><type>1</type></trkpt>
      <trkpt lat="40.54589471" lon="-5.16886155"><ele>1525</ele><speed>9.58</speed><time>2016-07-01T12:52:22Z</time><pdop>7.0</pdop><geoidheight>54.00</geoidheight><course>197.8</course><type>1</type></trkpt>
      <trkpt lat="40.54584285" lon="-5.16907183"><ele>1520</ele><speed>9.07</speed><time>2016-07-01T12:52:24Z</time><pdop>5.0</pdop><geoidheight>54.00</geoidheight><course>232.3</course><type>1</type></trkpt>
      <trkpt lat="40.54574515" lon="-5.16924286"><ele>1517</ele><speed>9.08</speed><time>2016-07-01T12:52:26Z</time><pdop>8.0</pdop><geoidheight>54.00</geoidheight><course>233.5</course><type>1</type></trkpt>
      <trkpt lat="40.54577581" lon="-5.16943338"><ele>1516</ele><speed>7.51</speed><time>2016-07-01T12:52:28Z</time><pdop>7.0</pdop><geoidheight>54.00</geoidheight><course>262.1</course><type>1</type></trkpt>
      <trkpt lat="40.54594474" lon="-5.16948966"><ele>1513</ele><speed>5.42</speed><time>2016-07-01T12:52:31Z</time><pdop>5.0</pdop><geoidheight>54.00</geoidheight><course>325.4</course><type>1</type></trkpt>
      <trkpt lat="40.54603774" lon="-5.16954062"><ele>1513</ele><speed>5.35</speed><time>2016-07-01T12:52:33Z</time><pdop>5.0</pdop><geoidheight>54.00</geoidheight><course>340.1</course><type>1</type></trkpt>
      <trkpt lat="40.54625" lon="-5.16932106"><ele>1515</ele><speed>9.68</speed><time>2016-07-01T12:52:36Z</time><pdop>7.0</pdop><geoidheight>54.00</geoidheight><course>41.8</course><type>1</type></trkpt>
      <trkpt lat="40.54637817" lon="-5.16911918"><ele>1514</ele><speed>9.17</speed><time>2016-07-01T12:52:38Z</time><pdop>8.0</pdop><geoidheight>54.00</geoidheight><course>41.5</course><type>1</type></trkpt>
      <trkpt lat="40.54658565" lon="-5.16901852"><ele>1512</ele><speed>8.60</speed><time>2016-07-01T12:52:41Z</time><pdop>9.0</pdop><geoidheight>54.00</geoidheight><course>23.3</course><type>1</type></trkpt>
      <trkpt lat="40.54679349" lon="-5.16900225"><ele>1514</ele><speed>8.68</speed><time>2016-07-01T12:52:44Z</time><pdop>7.0</pdop><geoidheight>54.00</geoidheight><course>0.1</course><type>1</type></trkpt>
      <trkpt lat="40.54696843" lon="-5.16900807"><ele>1515</ele><speed>8.55</speed><time>2016-07-01T12:52:46Z</time><pdop>9.0</pdop><geoidheight>54.00</geoidheight><course>358.7</course><type>1</type></trkpt>
      <trkpt lat="40.54717855" lon="-5.16901957"><ele>1520</ele><speed>8.58</speed><time>2016-07-01T12:52:49Z</time><pdop>7.0</pdop><geoidheight>54.00</geoidheight><course>3.5</course><type>1</type></trkpt>
      <trkpt lat="40.54732489" lon="-5.16900532"><ele>1524</ele><speed>7.66</speed><time>2016-07-01T12:52:51Z</time><pdop>6.0</pdop><geoidheight>54.00</geoidheight><course>6.2</course><type>1</type></trkpt>
      <trkpt lat="40.54720487" lon="-5.16917036"><ele>1527</ele><speed>6.09</speed><time>2016-07-01T12:52:56Z</time><pdop>11.0</pdop><geoidheight>54.00</geoidheight><course>202.3</course><type>1</type></trkpt>
      <trkpt lat="40.54697232" lon="-5.16895178"><ele>1526</ele><speed>9.53</speed><time>2016-07-01T12:52:59Z</time><pdop>11.0</pdop><geoidheight>54.00</geoidheight><course>141.6</course><type>1</type></trkpt>
      <trkpt lat="40.5468245" lon="-5.16879678"><ele>1529</ele><speed>9.55</speed><time>2016-07-01T12:53:01Z</time><pdop>10.0</pdop><geoidheight>54.00</geoidheight><course>137.8</course><type>1</type></trkpt>
      <trkpt lat="40.54659677" lon="-5.16863633"><ele>1528</ele><speed>8.94</speed><time>2016-07-01T12:53:04Z</time><pdop>10.0</pdop><geoidheight>54.00</geoidheight><course>157.3</course><type>1</type></trkpt>
      <trkpt lat="40.54640125" lon="-5.16858137"><ele>1528</ele><speed>9.51</speed><time>2016-07-01T12:53:06Z</time><pdop>11.0</pdop><geoidheight>54.00</geoidheight><course>171.2</course><type>1</type></trkpt>
      <trkpt lat="40.54647764" lon="-5.16885111"><ele>1525</ele><speed>5.81</speed><time>2016-07-01T12:53:10Z</time><pdop>9.0</pdop><geoidheight>54.00</geoidheight><course>288.8</course><type>1</type></trkpt>
      <trkpt lat="40.54665163" lon="-5.16873048"><ele>1522</ele><speed>5.89</speed><time>2016-07-01T12:53:12Z</time><pdop>9.0</pdop><geoidheight>54.00</geoidheight><course>17.8</course><type>1</type></trkpt>
      <trkpt lat="40.5467886" lon="-5.16864683"><ele>1522</ele><speed>9.92</speed><time>2016-07-01T12:53:13Z</time><pdop>6.0</pdop><geoidheight>54.00</geoidheight><course>23.8</course><type>1</type></trkpt>
      <trkpt lat="40.54696273" lon="-5.16857319"><ele>1522</ele><speed>9.68</speed><time>2016-07-01T12:53:15Z</time><pdop>5.0</pdop><geoidheight>54.00</geoidheight><course>13.6</course><type>1</type></trkpt>
      <trkpt lat="40.54714188" lon="-5.16853504"><ele>1524</ele><speed>9.52</speed><time>2016-07-01T12:53:17Z</time><pdop>6.0</pdop><geoidheight>54.00</geoidheight><course>13.7</course><type>1</type></trkpt>
      <trkpt lat="40.54730268" lon="-5.16851015"><ele>1524</ele><speed>9.09</speed><time>2016-07-01T12:53:19Z</time><pdop>8.0</pdop><geoidheight>54.00</geoidheight><course>6.2</course><type>1</type></trkpt>
      <trkpt lat="40.54745161" lon="-5.16852097"><ele>1524</ele><speed>9.12</speed><time>2016-07-01T12:53:21Z</time><pdop>8.0</pdop><geoidheight>54.00</geoidheight><course>2.4</course><type>1</type></trkpt>
      <trkpt lat="40.54761545" lon="-5.16849398"><ele>1526</ele><speed>8.86</speed><time>2016-07-01T12:53:23Z</time><pdop>7.0</pdop><geoidheight>54.00</geoidheight><course>9.2</course><type>1</type></trkpt>
      <trkpt lat="40.5477713" lon="-5.16843673"><ele>1528</ele><speed>6.99</speed><time>2016-07-01T12:53:26Z</time><pdop>7.0</pdop><geoidheight>54.00</geoidheight><course>14.2</course><type>1</type></trkpt>
      <trkpt lat="40.5479239" lon="-5.16836223"><ele>1529</ele><speed>7.70</speed><time>2016-07-01T12:53:28Z</time><pdop>9.0</pdop><geoidheight>54.00</geoidheight><course>14.2</course><type>1</type></trkpt>
      <trkpt lat="40.54808427" lon="-5.16844927"><ele>1533</ele><speed>5.52</speed><time>2016-07-01T12:53:31Z</time><pdop>7.0</pdop><geoidheight>54.00</geoidheight><course>351.5</course><type>1</type></trkpt>
      <trkpt lat="40.54820324" lon="-5.1685113"><ele>1534</ele><speed>7.67</speed><time>2016-07-01T12:53:33Z</time><pdop>6.0</pdop><geoidheight>54.00</geoidheight><course>345.6</course><type>1</type></trkpt>
      <trkpt lat="40.54835001" lon="-5.16855301"><ele>1536</ele><speed>8.53</speed><time>2016-07-01T12:53:35Z</time><pdop>8.0</pdop><geoidheight>54.00</geoidheight><course>351.1</course><type>1</type></trkpt>
      <trkpt lat="40.54849707" lon="-5.1686129"><ele>1537</ele><speed>9.11</speed><time>2016-07-01T12:53:37Z</time><pdop>7.0</pdop><geoidheight>54.00</geoidheight><course>349.7</course><type>1</type></trkpt>
      <trkpt lat="40.5486828" lon="-5.16860662"><ele>1538</ele><speed>9.58</speed><time>2016-07-01T12:53:39Z</time><pdop>6.0</pdop><geoidheight>54.00</geoidheight><course>356.0</course><type>1</type></trkpt>
      <trkpt lat="40.54883467" lon="-5.16862933"><ele>1539</ele><speed>8.48</speed><time>2016-07-01T12:53:41Z</time><pdop>5.0</pdop><geoidheight>54.00</geoidheight><course>359.7</course><type>1</type></trkpt>
      <trkpt lat="40.54897178" lon="-5.16867288"><ele>1540</ele><speed>7.51</speed><time>2016-07-01T12:53:43Z</time><pdop>6.0</pdop><geoidheight>54.00</geoidheight><course>347.9</course><type>1</type></trkpt>
      <trkpt lat="40.54909621" lon="-5.16876254"><ele>1541</ele><speed>8.41</speed><time>2016-07-01T12:53:45Z</time><pdop>6.0</pdop><geoidheight>54.00</geoidheight><course>340.9</course><type>1</type></trkpt>
      <trkpt lat="40.5491995" lon="-5.16880527"><ele>1541</ele><speed>9.82</speed><time>2016-07-01T12:53:46Z</time><pdop>6.0</pdop><geoidheight>54.00</geoidheight><course>340.8</course><type>1</type></trkpt>
      <trkpt lat="40.54929793" lon="-5.168851"><ele>1542</ele><speed>9.80</speed><time>2016-07-01T12:53:47Z</time><pdop>5.0</pdop><geoidheight>54.00</geoidheight><course>342.3</course><type>1</type></trkpt>
      <trkpt lat="40.54942623" lon="-5.16893926"><ele>1544</ele><speed>8.37</speed><time>2016-07-01T12:53:49Z</time><pdop>4.0</pdop><geoidheight>54.00</geoidheight><course>339.5</course><type>1</type></trkpt>
      <trkpt lat="40.54952055" lon="-5.16902074"><ele>1544</ele><speed>5.96</speed><time>2016-07-01T12:53:51Z</time><pdop>4.0</pdop><geoidheight>54.00</geoidheight><course>328.4</course><type>1</type></trkpt>
      <trkpt lat="40.54961575" lon="-5.16909271"><ele>1542</ele><speed>6.96</speed><time>2016-07-01T12:53:53Z</time><pdop>5.0</pdop><geoidheight>54.00</geoidheight><course>317.5</course><type>1</type></trkpt>
      <trkpt lat="40.54972948" lon="-5.16921245"><ele>1547</ele><speed>8.63</speed><time>2016-07-01T12:53:55Z</time><pdop>4.0</pdop><geoidheight>54.00</geoidheight><course>330.4</course><type>1</type></trkpt>
      <trkpt lat="40.54981376" lon="-5.16922516"><ele>1552</ele><speed>9.65</speed><time>2016-07-01T12:53:56Z</time><pdop>4.0</pdop><geoidheight>54.00</geoidheight><course>349.1</course><type>1</type></trkpt>
      <trkpt lat="40.54988587" lon="-5.16923818"><ele>1554</ele><speed>9.25</speed><time>2016-07-01T12:53:57Z</time><pdop>4.0</pdop><geoidheight>54.00</geoidheight><course>355.8</course><type>1</type></trkpt>
      <trkpt lat="40.54997639" lon="-5.16922436"><ele>1555</ele><speed>9.25</speed><time>2016-07-01T12:53:58Z</time><pdop>5.0</pdop><geoidheight>54.00</geoidheight><course>2.6</course><type>1</type></trkpt>
      <trkpt lat="40.55011404" lon="-5.16924337"><ele>1555</ele><speed>7.06</speed><time>2016-07-01T12:54:00Z</time><pdop>5.0</pdop><geoidheight>54.00</geoidheight><course>347.0</course><type>1</type></trkpt>
      <trkpt lat="40.55021768" lon="-5.16931721"><ele>1555</ele><speed>6.25</speed><time>2016-07-01T12:54:02Z</time><pdop>7.0</pdop><geoidheight>54.00</geoidheight><course>338.7</course><type>1</type></trkpt>
      <trkpt lat="40.55007379" lon="-5.16942217"><ele>1552</ele><speed>4.13</speed><time>2016-07-01T12:54:04Z</time><pdop>8.0</pdop><geoidheight>54.00</geoidheight><course>233.4</course><type>1</type></trkpt>
      <trkpt lat="40.54989962" lon="-5.1692957"><ele>1553</ele><speed>5.43</speed><time>2016-07-01T12:54:07Z</time><pdop>9.0</pdop><geoidheight>54.00</geoidheight><course>144.1</course><type>1</type></trkpt>
      <trkpt lat="40.54979245" lon="-5.16917808"><ele>1551</ele><speed>5.64</speed><time>2016-07-01T12:54:09Z</time><pdop>5.0</pdop><geoidheight>54.00</geoidheight><course>143.0</course><type>1</type></trkpt>
      <trkpt lat="40.54969481" lon="-5.16909178"><ele>1550</ele><speed>5.71</speed><time>2016-07-01T12:54:11Z</time><pdop>6.0</pdop><geoidheight>54.00</geoidheight><course>153.7</course><type>1</type></trkpt>
      <trkpt lat="40.54954783" lon="-5.16903651"><ele>1547</ele><speed>5.06</speed><time>2016-07-01T12:54:14Z</time><pdop>10.0</pdop><geoidheight>54.00</geoidheight><course>166.4</course><type>1</type></trkpt>
      <trkpt lat="40.54935823" lon="-5.16895429"><ele>1544</ele><speed>5.80</speed><time>2016-07-01T12:54:18Z</time><pdop>9.0</pdop><geoidheight>54.00</geoidheight><course>165.3</course><type>1</type></trkpt>
      <trkpt lat="40.54917143" lon="-5.16886788"><ele>1546</ele><speed>4.98</speed><time>2016-07-01T12:54:22Z</time><pdop>9.0</pdop><geoidheight>54.00</geoidheight><course>148.8</course><type>1</type></trkpt>
      <trkpt lat="40.54895616" lon="-5.16878558"><ele>1547</ele><speed>6.55</speed><time>2016-07-01T12:54:26Z</time><pdop>10.0</pdop><geoidheight>54.00</geoidheight><course>163.6</course><type>1</type></trkpt>
      <trkpt lat="40.54876328" lon="-5.16865706"><ele>1546</ele><speed>7.23</speed><time>2016-07-01T12:54:29Z</time><pdop>9.0</pdop><geoidheight>54.00</geoidheight><course>149.9</course><type>1</type></trkpt>
      <trkpt lat="40.54857184" lon="-5.16855949"><ele>1545</ele><speed>7.78</speed><time>2016-07-01T12:54:32Z</time><pdop>10.0</pdop><geoidheight>54.00</geoidheight><course>161.0</course><type>1</type></trkpt>
      <trkpt lat="40.54837097" lon="-5.16861164"><ele>1542</ele><speed>7.53</speed><time>2016-07-01T12:54:35Z</time><pdop>9.0</pdop><geoidheight>54.00</geoidheight><course>179.6</course><type>1</type></trkpt>
      <trkpt lat="40.54814169" lon="-5.1685671"><ele>1541</ele><speed>9.23</speed><time>2016-07-01T12:54:38Z</time><pdop>9.0</pdop><geoidheight>54.00</geoidheight><course>170.4</course><type>1</type></trkpt>
      <trkpt lat="40.54796597" lon="-5.16854627"><ele>1541</ele><speed>9.35</speed><time>2016-07-01T12:54:40Z</time><pdop>9.0</pdop><geoidheight>54.00</geoidheight><course>176.1</course><type>1</type></trkpt>
      <trkpt lat="40.54776188" lon="-5.16859492"><ele>1545</ele><speed>7.01</speed><time>2016-07-01T12:54:43Z</time><pdop>9.0</pdop><geoidheight>54.00</geoidheight><course>193.0</course><type>1</type></trkpt>
      <trkpt lat="40.54755568" lon="-5.16865528"><ele>1547</ele><speed>7.31</speed><time>2016-07-01T12:54:46Z</time><pdop>9.0</pdop><geoidheight>54.00</geoidheight><course>190.3</course><type>1</type></trkpt>
      <trkpt lat="40.54735242" lon="-5.16865463"><ele>1548</ele><speed>5.75</speed><time>2016-07-01T12:54:50Z</time><pdop>9.0</pdop><geoidheight>54.00</geoidheight><course>180.0</course><type>1</type></trkpt>
      <trkpt lat="40.54712983" lon="-5.16872504"><ele>1547</ele><speed>9.07</speed><time>2016-07-01T12:54:53Z</time><pdop>10.0</pdop><geoidheight>54.00</geoidheight><course>195.4</course><type>1</type></trkpt>
      <trkpt lat="40.54692229" lon="-5.16877411"><ele>1556</ele><speed>6.79</speed><time>2016-07-01T12:54:56Z</time><pdop>9.0</pdop><geoidheight>54.00</geoidheight><course>182.2</course><type>1</type></trkpt>
      <trkpt lat="40.54711204" lon="-5.16881041"><ele>1563</ele><speed>8.15</speed><time>2016-07-01T12:55:06Z</time><pdop>9.0</pdop><geoidheight>54.00</geoidheight><course>9.9</course><type>1</type></trkpt>
      <trkpt lat="40.54727247" lon="-5.16874819"><ele>1565</ele><speed>9.89</speed><time>2016-07-01T12:55:08Z</time><pdop>9.0</pdop><geoidheight>54.00</geoidheight><course>19.1</course><type>1</type></trkpt>
      <trkpt lat="40.54749737" lon="-5.16863345"><ele>1566</ele><speed>8.34</speed><time>2016-07-01T12:55:11Z</time><pdop>9.0</pdop><geoidheight>54.00</geoidheight><course>21.9</course><type>1</type></trkpt>
      <trkpt lat="40.54772937" lon="-5.16859585"><ele>1566</ele><speed>8.75</speed><time>2016-07-01T12:55:14Z</time><pdop>9.0</pdop><geoidheight>54.00</geoidheight><course>358.8</course><type>1</type></trkpt>
      <trkpt lat="40.54790135" lon="-5.16867819"><ele>1572</ele><speed>6.06</speed><time>2016-07-01T12:55:17Z</time><pdop>9.0</pdop><geoidheight>54.00</geoidheight><course>330.6</course><type>1</type></trkpt>
      <trkpt lat="40.54806669" lon="-5.16880868"><ele>1577</ele><speed>5.51</speed><time>2016-07-01T12:55:21Z</time><pdop>9.0</pdop><geoidheight>54.00</geoidheight><course>333.6</course><type>1</type></trkpt>
      <trkpt lat="40.54812687" lon="-5.16901159"><ele>1584</ele><speed>2.22</speed><time>2016-07-01T12:55:28Z</time><pdop>9.0</pdop><geoidheight>54.00</geoidheight><course>236.8</course><type>1</type></trkpt>
      <trkpt lat="40.54799653" lon="-5.16879469"><ele>1580</ele><speed>7.19</speed><time>2016-07-01T12:55:32Z</time><pdop>12.0</pdop><geoidheight>54.00</geoidheight><course>123.8</course><type>1</type></trkpt>
      <trkpt lat="40.54787805" lon="-5.16851152"><ele>1582</ele><speed>10.68</speed><time>2016-07-01T12:55:34Z</time><pdop>14.0</pdop><geoidheight>54.00</geoidheight><course>118.4</course><type>1</type></trkpt>
      <trkpt lat="40.54762795" lon="-5.16815855"><ele>1589</ele><speed>13.48</speed><time>2016-07-01T12:55:36Z</time><pdop>11.0</pdop><geoidheight>54.00</geoidheight><course>122.8</course><type>1</type></trkpt>
      <trkpt lat="40.54747291" lon="-5.16790633"><ele>1589</ele><speed>11.78</speed><time>2016-07-01T12:55:38Z</time><pdop>10.0</pdop><geoidheight>54.00</geoidheight><course>127.4</course><type>1</type></trkpt>
      <trkpt lat="40.54731412" lon="-5.16772964"><ele>1588</ele><speed>11.27</speed><time>2016-07-01T12:55:40Z</time><pdop>10.0</pdop><geoidheight>54.00</geoidheight><course>142.3</course><type>1</type></trkpt>
      <trkpt lat="40.54714868" lon="-5.16761829"><ele>1586</ele><speed>9.82</speed><time>2016-07-01T12:55:42Z</time><pdop>10.0</pdop><geoidheight>54.00</geoidheight><course>153.7</course><type>1</type></trkpt>
      <trkpt lat="40.54693181" lon="-5.16764834"><ele>1583</ele><speed>5.88</speed><time>2016-07-01T12:55:45Z</time><pdop>9.0</pdop><geoidheight>54.00</geoidheight><course>194.1</course><type>1</type></trkpt>
      <trkpt lat="40.54706935" lon="-5.16781189"><ele>1579</ele><speed>8.27</speed><time>2016-07-01T12:55:51Z</time><pdop>9.0</pdop><geoidheight>54.00</geoidheight><course>352.4</course><type>1</type></trkpt>
      <trkpt lat="40.54726859" lon="-5.1678509"><ele>1581</ele><speed>7.13</speed><time>2016-07-01T12:55:54Z</time><pdop>10.0</pdop><geoidheight>54.00</geoidheight><course>356.0</course><type>1</type></trkpt>
      <trkpt lat="40.5474271" lon="-5.16802462"><ele>1581</ele><speed>4.61</speed><time>2016-07-01T12:55:59Z</time><pdop>9.0</pdop><geoidheight>54.00</geoidheight><course>293.3</course><type>1</type></trkpt>
      <trkpt lat="40.54756639" lon="-5.16822309"><ele>1574</ele><speed>5.04</speed><time>2016-07-01T12:56:06Z</time><pdop>10.0</pdop><geoidheight>54.00</geoidheight><course>302.6</course><type>1</type></trkpt>
      <trkpt lat="40.54767106" lon="-5.16843231"><ele>1569</ele><speed>5.27</speed><time>2016-07-01T12:56:11Z</time><pdop>10.0</pdop><geoidheight>54.00</geoidheight><course>314.0</course><type>1</type></trkpt>
      <trkpt lat="40.54779143" lon="-5.1686127"><ele>1568</ele><speed>7.36</speed><time>2016-07-01T12:56:14Z</time><pdop>9.0</pdop><geoidheight>54.00</geoidheight><course>315.4</course><type>1</type></trkpt>
      <trkpt lat="40.54796524" lon="-5.16872713"><ele>1573</ele><speed>6.39</speed><time>2016-07-01T12:56:17Z</time><pdop>9.0</pdop><geoidheight>54.00</geoidheight><course>336.2</course><type>1</type></trkpt>
      <trkpt lat="40.5481305" lon="-5.1688636"><ele>1576</ele><speed>7.54</speed><time>2016-07-01T12:56:20Z</time><pdop>9.0</pdop><geoidheight>54.00</geoidheight><course>329.3</course><type>1</type></trkpt>
      <trkpt lat="40.54832792" lon="-5.16898193"><ele>1581</ele><speed>7.70</speed><time>2016-07-01T12:56:23Z</time><pdop>9.0</pdop><geoidheight>54.00</geoidheight><course>335.0</course><type>1</type></trkpt>
      <trkpt lat="40.54851594" lon="-5.1690669"><ele>1582</ele><speed>7.13</speed><time>2016-07-01T12:56:26Z</time><pdop>9.0</pdop><geoidheight>54.00</geoidheight><course>345.3</course><type>1</type></trkpt>
      <trkpt lat="40.54872618" lon="-5.16916218"><ele>1590</ele><speed>8.51</speed><time>2016-07-01T12:56:29Z</time><pdop>9.0</pdop><geoidheight>54.00</geoidheight><course>341.3</course><type>1</type></trkpt>
      <trkpt lat="40.54893462" lon="-5.16919014"><ele>1599</ele><speed>8.52</speed><time>2016-07-01T12:56:32Z</time><pdop>9.0</pdop><geoidheight>54.00</geoidheight><course>1.6</course><type>1</type></trkpt>
      <trkpt lat="40.54911921" lon="-5.1691305"><ele>1600</ele><speed>11.33</speed><time>2016-07-01T12:56:34Z</time><pdop>9.0</pdop><geoidheight>54.00</geoidheight><course>16.7</course><type>1</type></trkpt>
      <trkpt lat="40.54931163" lon="-5.16904059"><ele>1601</ele><speed>11.08</speed><time>2016-07-01T12:56:36Z</time><pdop>9.0</pdop><geoidheight>54.00</geoidheight><course>16.8</course><type>1</type></trkpt>
      <trkpt lat="40.54948742" lon="-5.16901612"><ele>1601</ele><speed>4.79</speed><time>2016-07-01T12:56:39Z</time><pdop>9.0</pdop><geoidheight>54.00</geoidheight><course>355.8</course><type>1</type></trkpt>
      <trkpt lat="40.54924443" lon="-5.16872995"><ele>1601</ele><speed>10.05</speed><time>2016-07-01T12:56:45Z</time><pdop>12.0</pdop><geoidheight>54.00</geoidheight><course>114.6</course><type>1</type></trkpt>
      <trkpt lat="40.54905809" lon="-5.16843312"><ele>1603</ele><speed>13.54</speed><time>2016-07-01T12:56:47Z</time><pdop>11.0</pdop><geoidheight>54.00</geoidheight><course>123.7</course><type>1</type></trkpt>
      <trkpt lat="40.548872" lon="-5.16811547"><ele>1605</ele><speed>14.71</speed><time>2016-07-01T12:56:49Z</time><pdop>11.0</pdop><geoidheight>54.00</geoidheight><course>121.8</course><type>1</type></trkpt>
      <trkpt lat="40.54870554" lon="-5.16786677"><ele>1609</ele><speed>11.83</speed><time>2016-07-01T12:56:51Z</time><pdop>10.0</pdop><geoidheight>54.00</geoidheight><course>128.8</course><type>1</type></trkpt>
      <trkpt lat="40.548493" lon="-5.16776509"><ele>1604</ele><speed>6.45</speed><time>2016-07-01T12:56:54Z</time><pdop>10.0</pdop><geoidheight>54.00</geoidheight><course>180.9</course><type>1</type></trkpt>
      <trkpt lat="40.54851444" lon="-5.16798328"><ele>1605</ele><speed>3.93</speed><time>2016-07-01T12:56:59Z</time><pdop>8.0</pdop><geoidheight>54.00</geoidheight><course>303.5</course><type>1</type></trkpt>
      <trkpt lat="40.54871532" lon="-5.16766083"><ele>1604</ele><speed>8.74</speed><time>2016-07-01T12:57:01Z</time><pdop>10.0</pdop><geoidheight>54.00</geoidheight><course>47.3</course><type>1</type></trkpt>
      <trkpt lat="40.54881548" lon="-5.16727389"><ele>1604</ele><speed>17.24</speed><time>2016-07-01T12:57:02Z</time><pdop>9.0</pdop><geoidheight>54.00</geoidheight><course>66.0</course><type>1</type></trkpt>
      <trkpt lat="40.5487762" lon="-5.16704494"><ele>1604</ele><speed>17.96</speed><time>2016-07-01T12:57:03Z</time><pdop>8.0</pdop><geoidheight>54.00</geoidheight><course>82.2</course><type>1</type></trkpt>
      <trkpt lat="40.54879647" lon="-5.16683743"><ele>1605</ele><speed>17.21</speed><time>2016-07-01T12:57:04Z</time><pdop>9.0</pdop><geoidheight>54.00</geoidheight><course>82.4</course><type>1</type></trkpt>
      <trkpt lat="40.5486909" lon="-5.1664936"><ele>1607</ele><speed>15.45</speed><time>2016-07-01T12:57:06Z</time><pdop>8.0</pdop><geoidheight>54.00</geoidheight><course>98.4</course><type>1</type></trkpt>
      <trkpt lat="40.54858877" lon="-5.1663155"><ele>1606</ele><speed>11.33</speed><time>2016-07-01T12:57:08Z</time><pdop>8.0</pdop><geoidheight>54.00</geoidheight><course>106.2</course><type>1</type></trkpt>
      <trkpt lat="40.54845783" lon="-5.16639881"><ele>1606</ele><speed>8.56</speed><time>2016-07-01T12:57:09Z</time><pdop>5.0</pdop><geoidheight>54.00</geoidheight><course>157.0</course><type>1</type></trkpt>
      <trkpt lat="40.54834785" lon="-5.1664519"><ele>1607</ele><speed>5.07</speed><time>2016-07-01T12:57:11Z</time><pdop>4.0</pdop><geoidheight>54.00</geoidheight><course>213.3</course><type>1</type></trkpt>
      <trkpt lat="40.54836979" lon="-5.1665673"><ele>1605</ele><speed>5.09</speed><time>2016-07-01T12:57:13Z</time><pdop>4.0</pdop><geoidheight>54.00</geoidheight><course>298.6</course><type>1</type></trkpt>
      <trkpt lat="40.54840748" lon="-5.16668509"><ele>1605</ele><speed>4.63</speed><time>2016-07-01T12:57:15Z</time><pdop>3.0</pdop><geoidheight>54.00</geoidheight><course>297.2</course><type>1</type></trkpt>
      <trkpt lat="40.54847053" lon="-5.16676659"><ele>1606</ele><speed>4.97</speed><time>2016-07-01T12:57:17Z</time><pdop>3.0</pdop><geoidheight>54.00</geoidheight><course>326.1</course><type>1</type></trkpt>
      <trkpt lat="40.54856505" lon="-5.16683758"><ele>1605</ele><speed>6.06</speed><time>2016-07-01T12:57:19Z</time><pdop>3.0</pdop><geoidheight>54.00</geoidheight><course>329.2</course><type>1</type></trkpt>
      <trkpt lat="40.54860964" lon="-5.16689287"><ele>1605</ele><speed>6.45</speed><time>2016-07-01T12:57:20Z</time><pdop>3.0</pdop><geoidheight>54.00</geoidheight><course>321.3</course><type>1</type></trkpt>
      <trkpt lat="40.54865407" lon="-5.16694896"><ele>1604</ele><speed>6.84</speed><time>2016-07-01T12:57:21Z</time><pdop>3.0</pdop><geoidheight>54.00</geoidheight><course>318.1</course><type>1</type></trkpt>
      <trkpt lat="40.54869444" lon="-5.16700608"><ele>1604</ele><speed>6.82</speed><time>2016-07-01T12:57:22Z</time><pdop>3.0</pdop><geoidheight>54.00</geoidheight><course>319.0</course><type>1</type></trkpt>
      <trkpt lat="40.54873163" lon="-5.16706034"><ele>1606</ele><speed>6.34</speed><time>2016-07-01T12:57:23Z</time><pdop>3.0</pdop><geoidheight>54.00</geoidheight><course>315.4</course><type>1</type></trkpt>
      <trkpt lat="40.54877787" lon="-5.16715641"><ele>1608</ele><speed>4.32</speed><time>2016-07-01T12:57:25Z</time><pdop>3.0</pdop><geoidheight>54.00</geoidheight><course>297.9</course><type>1</type></trkpt>
      <trkpt lat="40.54881796" lon="-5.16721985"><ele>1612</ele><speed>3.34</speed><time>2016-07-01T12:57:27Z</time><pdop>3.0</pdop><geoidheight>54.00</geoidheight><course>312.2</course><type>1</type></trkpt>
      <trkpt lat="40.54888416" lon="-5.16728534"><ele>1613</ele><speed>2.87</speed><time>2016-07-01T12:57:31Z</time><pdop>4.0</pdop><geoidheight>54.00</geoidheight><course>319.1</course><type>1</type></trkpt>
      <trkpt lat="40.54885834" lon="-5.16741715"><ele>1611</ele><speed>4.08</speed><time>2016-07-01T12:57:34Z</time><pdop>4.0</pdop><geoidheight>54.00</geoidheight><course>238.8</course><type>1</type></trkpt>
      <trkpt lat="40.54877087" lon="-5.16743783"><ele>1611</ele><speed>3.74</speed><time>2016-07-01T12:57:37Z</time><pdop>3.0</pdop><geoidheight>54.00</geoidheight><course>183.6</course><type>1</type></trkpt>
      <trkpt lat="40.54870581" lon="-5.16741282"><ele>1607</ele><speed>4.02</speed><time>2016-07-01T12:57:39Z</time><pdop>3.0</pdop><geoidheight>54.00</geoidheight><course>176.2</course><type>1</type></trkpt>
      <trkpt lat="40.5486254" lon="-5.16742018"><ele>1600</ele><speed>5.71</speed><time>2016-07-01T12:57:41Z</time><pdop>3.0</pdop><geoidheight>54.00</geoidheight><course>185.4</course><type>1</type></trkpt>
      <trkpt lat="40.54852306" lon="-5.16744936"><ele>1595</ele><speed>6.18</speed><time>2016-07-01T12:57:43Z</time><pdop>3.0</pdop><geoidheight>54.00</geoidheight><course>194.5</course><type>1</type></trkpt>
      <trkpt lat="40.54843792" lon="-5.1674831"><ele>1593</ele><speed>4.90</speed><time>2016-07-01T12:57:45Z</time><pdop>3.0</pdop><geoidheight>54.00</geoidheight><course>208.4</course><type>1</type></trkpt>
      <trkpt lat="40.54837494" lon="-5.16754113"><ele>1590</ele><speed>5.05</speed><time>2016-07-01T12:57:47Z</time><pdop>3.0</pdop><geoidheight>54.00</geoidheight><course>212.9</course><type>1</type></trkpt>
      <trkpt lat="40.54832312" lon="-5.16756544"><ele>1587</ele><speed>6.33</speed><time>2016-07-01T12:57:48Z</time><pdop>3.0</pdop><geoidheight>54.00</geoidheight><course>200.5</course><type>1</type></trkpt>
      <trkpt lat="40.5482613" lon="-5.16758508"><ele>1585</ele><speed>6.99</speed><time>2016-07-01T12:57:49Z</time><pdop>3.0</pdop><geoidheight>54.00</geoidheight><course>195.0</course><type>1</type></trkpt>
      <trkpt lat="40.54820085" lon="-5.16761337"><ele>1584</ele><speed>7.28</speed><time>2016-07-01T12:57:50Z</time><pdop>3.0</pdop><geoidheight>54.00</geoidheight><course>200.9</course><type>1</type></trkpt>
      <trkpt lat="40.54814461" lon="-5.16763711"><ele>1582</ele><speed>6.98</speed><time>2016-07-01T12:57:51Z</time><pdop>3.0</pdop><geoidheight>54.00</geoidheight><course>205.4</course><type>1</type></trkpt>
      <trkpt lat="40.5480937" lon="-5.1676728"><ele>1582</ele><speed>6.63</speed><time>2016-07-01T12:57:52Z</time><pdop>3.0</pdop><geoidheight>54.00</geoidheight><course>208.7</course><type>1</type></trkpt>
      <trkpt lat="40.54804828" lon="-5.16771198"><ele>1581</ele><speed>6.14</speed><time>2016-07-01T12:57:53Z</time><pdop>3.0</pdop><geoidheight>54.00</geoidheight><course>213.4</course><type>1</type></trkpt>
      <trkpt lat="40.54797996" lon="-5.16780002"><ele>1579</ele><speed>5.13</speed><time>2016-07-01T12:57:55Z</time><pdop>3.0</pdop><geoidheight>54.00</geoidheight><course>226.9</course><type>1</type></trkpt>
      <trkpt lat="40.5479083" lon="-5.16789062"><ele>1578</ele><speed>5.90</speed><time>2016-07-01T12:57:57Z</time><pdop>3.0</pdop><geoidheight>54.00</geoidheight><course>227.4</course><type>1</type></trkpt>
      <trkpt lat="40.54784855" lon="-5.16799157"><ele>1575</ele><speed>5.29</speed><time>2016-07-01T12:57:59Z</time><pdop>3.0</pdop><geoidheight>54.00</geoidheight><course>231.0</course><type>1</type></trkpt>
      <trkpt lat="40.54777177" lon="-5.16809317"><ele>1574</ele><speed>5.67</speed><time>2016-07-01T12:58:01Z</time><pdop>5.0</pdop><geoidheight>54.00</geoidheight><course>226.8</course><type>1</type></trkpt>
      <trkpt lat="40.54770701" lon="-5.16819628"><ele>1572</ele><speed>5.79</speed><time>2016-07-01T12:58:03Z</time><pdop>3.0</pdop><geoidheight>54.00</geoidheight><course>226.4</course><type>1</type></trkpt>
      <trkpt lat="40.54760424" lon="-5.16831731"><ele>1572</ele><speed>4.58</speed><time>2016-07-01T12:58:06Z</time><pdop>9.0</pdop><geoidheight>54.00</geoidheight><course>217.6</course><type>1</type></trkpt>
      <trkpt lat="40.54748043" lon="-5.16854202"><ele>1566</ele><speed>7.88</speed><time>2016-07-01T12:58:10Z</time><pdop>9.0</pdop><geoidheight>54.00</geoidheight><course>242.3</course><type>1</type></trkpt>
      <trkpt lat="40.5474044" lon="-5.16877513"><ele>1569</ele><speed>6.22</speed><time>2016-07-01T12:58:13Z</time><pdop>9.0</pdop><geoidheight>54.00</geoidheight><course>255.8</course><type>1</type></trkpt>
      <trkpt lat="40.54740917" lon="-5.16901055"><ele>1573</ele><speed>4.07</speed><time>2016-07-01T12:58:17Z</time><pdop>9.0</pdop><geoidheight>54.00</geoidheight><course>284.3</course><type>1</type></trkpt>
      <trkpt lat="40.54751096" lon="-5.16918568"><ele>1574</ele><speed>4.07</speed><time>2016-07-01T12:58:21Z</time><pdop>9.0</pdop><geoidheight>54.00</geoidheight><course>300.5</course><type>1</type></trkpt>
      <trkpt lat="40.54766747" lon="-5.16934408"><ele>1571</ele><speed>6.33</speed><time>2016-07-01T12:58:25Z</time><pdop>9.0</pdop><geoidheight>54.00</geoidheight><course>325.8</course><type>1</type></trkpt>
      <trkpt lat="40.54778875" lon="-5.16956777"><ele>1569</ele><speed>5.79</speed><time>2016-07-01T12:58:29Z</time><pdop>9.0</pdop><geoidheight>54.00</geoidheight><course>293.1</course><type>1</type></trkpt>
      <trkpt lat="40.54770374" lon="-5.16977415"><ele>1567</ele><speed>4.66</speed><time>2016-07-01T12:58:34Z</time><pdop>9.0</pdop><geoidheight>54.00</geoidheight><course>230.1</course><type>1</type></trkpt>
      <trkpt lat="40.54754277" lon="-5.16985374"><ele>1565</ele><speed>6.92</speed><time>2016-07-01T12:58:37Z</time><pdop>9.0</pdop><geoidheight>54.00</geoidheight><course>196.4</course><type>1</type></trkpt>
      <trkpt lat="40.54734805" lon="-5.16990856"><ele>1564</ele><speed>8.26</speed><time>2016-07-01T12:58:40Z</time><pdop>10.0</pdop><geoidheight>54.00</geoidheight><course>199.4</course><type>1</type></trkpt>
      <trkpt lat="40.54713181" lon="-5.17011298"><ele>1560</ele><speed>11.63</speed><time>2016-07-01T12:58:43Z</time><pdop>10.0</pdop><geoidheight>54.00</geoidheight><course>214.9</course><type>1</type></trkpt>
      <trkpt lat="40.5469591" lon="-5.17024896"><ele>1559</ele><speed>10.94</speed><time>2016-07-01T12:58:45Z</time><pdop>9.0</pdop><geoidheight>54.00</geoidheight><course>205.4</course><type>1</type></trkpt>
      <trkpt lat="40.54678509" lon="-5.17032084"><ele>1560</ele><speed>9.13</speed><time>2016-07-01T12:58:47Z</time><pdop>9.0</pdop><geoidheight>54.00</geoidheight><course>191.9</course><type>1</type></trkpt>
      <trkpt lat="40.54661438" lon="-5.17033124"><ele>1560</ele><speed>9.26</speed><time>2016-07-01T12:58:49Z</time><pdop>10.0</pdop><geoidheight>54.00</geoidheight><course>183.3</course><type>1</type></trkpt>
      <trkpt lat="40.54641709" lon="-5.1702852"><ele>1559</ele><speed>10.43</speed><time>2016-07-01T12:58:51Z</time><pdop>11.0</pdop><geoidheight>54.00</geoidheight><course>171.6</course><type>1</type></trkpt>
      <trkpt lat="40.54612796" lon="-5.17022917"><ele>1555</ele><speed>11.17</speed><time>2016-07-01T12:58:54Z</time><pdop>12.0</pdop><geoidheight>54.00</geoidheight><course>174.2</course><type>1</type></trkpt>
      <trkpt lat="40.54593635" lon="-5.17034916"><ele>1553</ele><speed>6.65</speed><time>2016-07-01T12:58:58Z</time><pdop>10.0</pdop><geoidheight>54.00</geoidheight><course>192.8</course><type>1</type></trkpt>
      <trkpt lat="40.54575896" lon="-5.17044265"><ele>1551</ele><speed>7.21</speed><time>2016-07-01T12:59:01Z</time><pdop>9.0</pdop><geoidheight>54.00</geoidheight><course>202.4</course><type>1</type></trkpt>
      <trkpt lat="40.54557225" lon="-5.17059983"><ele>1552</ele><speed>8.00</speed><time>2016-07-01T12:59:04Z</time><pdop>10.0</pdop><geoidheight>54.00</geoidheight><course>211.0</course><type>1</type></trkpt>
      <trkpt lat="40.54540198" lon="-5.17071379"><ele>1552</ele><speed>7.60</speed><time>2016-07-01T12:59:07Z</time><pdop>10.0</pdop><geoidheight>54.00</geoidheight><course>210.2</course><type>1</type></trkpt>
      <trkpt lat="40.54519929" lon="-5.17090029"><ele>1555</ele><speed>8.51</speed><time>2016-07-01T12:59:10Z</time><pdop>9.0</pdop><geoidheight>54.00</geoidheight><course>211.4</course><type>1</type></trkpt>
      <trkpt lat="40.54503391" lon="-5.17099014"><ele>1560</ele><speed>9.32</speed><time>2016-07-01T12:59:12Z</time><pdop>9.0</pdop><geoidheight>54.00</geoidheight><course>200.5</course><type>1</type></trkpt>
      <trkpt lat="40.54483786" lon="-5.17115709"><ele>1565</ele><speed>9.11</speed><time>2016-07-01T12:59:15Z</time><pdop>9.0</pdop><geoidheight>54.00</geoidheight><course>213.2</course><type>1</type></trkpt>
      <trkpt lat="40.54471084" lon="-5.17129852"><ele>1572</ele><speed>8.30</speed><time>2016-07-01T12:59:17Z</time><pdop>9.0</pdop><geoidheight>54.00</geoidheight><course>218.1</course><type>1</type></trkpt>
      <trkpt lat="40.54456642" lon="-5.17149502"><ele>1582</ele><speed>7.67</speed><time>2016-07-01T12:59:20Z</time><pdop>9.0</pdop><geoidheight>54.00</geoidheight><course>235.5</course><type>1</type></trkpt>
      <trkpt lat="40.54450508" lon="-5.17172752"><ele>1589</ele><speed>4.95</speed><time>2016-07-01T12:59:24Z</time><pdop>10.0</pdop><geoidheight>54.00</geoidheight><course>261.8</course><type>1</type></trkpt>
      <trkpt lat="40.54468181" lon="-5.1718878"><ele>1591</ele><speed>8.69</speed><time>2016-07-01T12:59:27Z</time><pdop>9.0</pdop><geoidheight>54.00</geoidheight><course>330.7</course><type>1</type></trkpt>
      <trkpt lat="40.54488495" lon="-5.17194944"><ele>1593</ele><speed>10.28</speed><time>2016-07-01T12:59:29Z</time><pdop>11.0</pdop><geoidheight>54.00</geoidheight><course>345.4</course><type>1</type></trkpt>
      <trkpt lat="40.54514355" lon="-5.17165026"><ele>1593</ele><speed>13.79</speed><time>2016-07-01T12:59:31Z</time><pdop>12.0</pdop><geoidheight>54.00</geoidheight><course>26.3</course><type>1</type></trkpt>
      <trkpt lat="40.54527271" lon="-5.17127348"><ele>1592</ele><speed>14.31</speed><time>2016-07-01T12:59:33Z</time><pdop>12.0</pdop><geoidheight>54.00</geoidheight><course>53.2</course><type>1</type></trkpt>
      <trkpt lat="40.54527513" lon="-5.17095247"><ele>1594</ele><speed>8.76</speed><time>2016-07-01T12:59:36Z</time><pdop>14.0</pdop><geoidheight>54.00</geoidheight><course>75.1</course><type>1</type></trkpt>
      <trkpt lat="40.54499708" lon="-5.17073064"><ele>1596</ele><speed>9.26</speed><time>2016-07-01T12:59:38Z</time><pdop>13.0</pdop><geoidheight>54.00</geoidheight><course>134.2</course><type>1</type></trkpt>
      <trkpt lat="40.54477986" lon="-5.17058416"><ele>1598</ele><speed>9.13</speed><time>2016-07-01T12:59:40Z</time><pdop>12.0</pdop><geoidheight>54.00</geoidheight><course>146.3</course><type>1</type></trkpt>
      <trkpt lat="40.54457806" lon="-5.170661"><ele>1601</ele><speed>6.22</speed><time>2016-07-01T12:59:43Z</time><pdop>11.0</pdop><geoidheight>54.00</geoidheight><course>182.9</course><type>1</type></trkpt>
      <trkpt lat="40.54435984" lon="-5.17073714"><ele>1604</ele><speed>6.80</speed><time>2016-07-01T12:59:47Z</time><pdop>13.0</pdop><geoidheight>54.00</geoidheight><course>201.0</course><type>1</type></trkpt>
      <trkpt lat="40.54416148" lon="-5.17094392"><ele>1612</ele><speed>4.88</speed><time>2016-07-01T12:59:52Z</time><pdop>10.0</pdop><geoidheight>54.00</geoidheight><course>220.7</course><type>1</type></trkpt>
      <trkpt lat="40.54424886" lon="-5.17119909"><ele>1619</ele><speed>6.05</speed><time>2016-07-01T12:59:56Z</time><pdop>11.0</pdop><geoidheight>54.00</geoidheight><course>304.4</course><type>1</type></trkpt>
      <trkpt lat="40.54446341" lon="-5.17110007"><ele>1618</ele><speed>8.28</speed><time>2016-07-01T12:59:58Z</time><pdop>11.0</pdop><geoidheight>54.00</geoidheight><course>4.4</course><type>1</type></trkpt>
      <trkpt lat="40.54465035" lon="-5.17091198"><ele>1620</ele><speed>9.39</speed><time>2016-07-01T13:00:00Z</time><pdop>11.0</pdop><geoidheight>54.00</geoidheight><course>32.5</course><type>1</type></trkpt>
      <trkpt lat="40.54478328" lon="-5.17072326"><ele>1621</ele><speed>14.01</speed><time>2016-07-01T13:00:01Z</time><pdop>8.0</pdop><geoidheight>54.00</geoidheight><course>45.5</course><type>1</type></trkpt>
      <trkpt lat="40.54481071" lon="-5.1705448"><ele>1621</ele><speed>14.63</speed><time>2016-07-01T13:00:02Z</time><pdop>7.0</pdop><geoidheight>54.00</geoidheight><course>62.6</course><type>1</type></trkpt>
      <trkpt lat="40.54481843" lon="-5.17023465"><ele>1622</ele><speed>13.55</speed><time>2016-07-01T13:00:04Z</time><pdop>9.0</pdop><geoidheight>54.00</geoidheight><course>80.6</course><type>1</type></trkpt>
      <trkpt lat="40.54465689" lon="-5.17009024"><ele>1627</ele><speed>9.14</speed><time>2016-07-01T13:00:06Z</time><pdop>11.0</pdop><geoidheight>54.00</geoidheight><course>110.3</course><type>1</type></trkpt>
      <trkpt lat="40.54449956" lon="-5.16988998"><ele>1630</ele><speed>7.39</speed><time>2016-07-01T13:00:09Z</time><pdop>10.0</pdop><geoidheight>54.00</geoidheight><course>145.1</course><type>1</type></trkpt>
      <trkpt lat="40.54434509" lon="-5.1700147"><ele>1637</ele><speed>5.89</speed><time>2016-07-01T13:00:12Z</time><pdop>8.0</pdop><geoidheight>54.00</geoidheight><course>208.7</course><type>1</type></trkpt>
      <trkpt lat="40.54441894" lon="-5.17019889"><ele>1640</ele><speed>5.82</speed><time>2016-07-01T13:00:16Z</time><pdop>7.0</pdop><geoidheight>54.00</geoidheight><course>310.6</course><type>1</type></trkpt>
      <trkpt lat="40.54461763" lon="-5.17014297"><ele>1643</ele><speed>6.76</speed><time>2016-07-01T13:00:19Z</time><pdop>10.0</pdop><geoidheight>54.00</geoidheight><course>23.0</course><type>1</type></trkpt>
      <trkpt lat="40.54478598" lon="-5.16991581"><ele>1644</ele><speed>11.39</speed><time>2016-07-01T13:00:21Z</time><pdop>11.0</pdop><geoidheight>54.00</geoidheight><course>50.3</course><type>1</type></trkpt>
      <trkpt lat="40.54495136" lon="-5.16958505"><ele>1646</ele><speed>15.44</speed><time>2016-07-01T13:00:23Z</time><pdop>7.0</pdop><geoidheight>54.00</geoidheight><course>68.1</course><type>1</type></trkpt>
      <trkpt lat="40.545018" lon="-5.16940956"><ele>1648</ele><speed>15.55</speed><time>2016-07-01T13:00:24Z</time><pdop>7.0</pdop><geoidheight>54.00</geoidheight><course>71.1</course><type>1</type></trkpt>
      <trkpt lat="40.5450528" lon="-5.169218"><ele>1649</ele><speed>15.93</speed><time>2016-07-01T13:00:25Z</time><pdop>7.0</pdop><geoidheight>54.00</geoidheight><course>77.2</course><type>1</type></trkpt>
      <trkpt lat="40.54503922" lon="-5.16902811"><ele>1651</ele><speed>15.85</speed><time>2016-07-01T13:00:26Z</time><pdop>7.0</pdop><geoidheight>54.00</geoidheight><course>83.9</course><type>1</type></trkpt>
      <trkpt lat="40.54495873" lon="-5.1688174"><ele>1653</ele><speed>10.72</speed><time>2016-07-01T13:00:28Z</time><pdop>9.0</pdop><geoidheight>54.00</geoidheight><course>104.7</course><type>1</type></trkpt>
      <trkpt lat="40.54475198" lon="-5.16879457"><ele>1657</ele><speed>7.68</speed><time>2016-07-01T13:00:30Z</time><pdop>6.0</pdop><geoidheight>54.00</geoidheight><course>165.2</course><type>1</type></trkpt>
      <trkpt lat="40.54463154" lon="-5.16884037"><ele>1659</ele><speed>7.46</speed><time>2016-07-01T13:00:32Z</time><pdop>5.0</pdop><geoidheight>54.00</geoidheight><course>202.1</course><type>1</type></trkpt>
      <trkpt lat="40.54468265" lon="-5.16901079"><ele>1663</ele><speed>4.28</speed><time>2016-07-01T13:00:36Z</time><pdop>8.0</pdop><geoidheight>54.00</geoidheight><course>299.5</course><type>1</type></trkpt>
      <trkpt lat="40.54488663" lon="-5.16889281"><ele>1663</ele><speed>6.65</speed><time>2016-07-01T13:00:38Z</time><pdop>8.0</pdop><geoidheight>54.00</geoidheight><course>17.7</course><type>1</type></trkpt>
      <trkpt lat="40.54503554" lon="-5.1686338"><ele>1664</ele><speed>10.30</speed><time>2016-07-01T13:00:40Z</time><pdop>10.0</pdop><geoidheight>54.00</geoidheight><course>44.7</course><type>1</type></trkpt>
      <trkpt lat="40.54530118" lon="-5.16837025"><ele>1667</ele><speed>13.66</speed><time>2016-07-01T13:00:42Z</time><pdop>12.0</pdop><geoidheight>54.00</geoidheight><course>44.5</course><type>1</type></trkpt>
      <trkpt lat="40.54541822" lon="-5.16800996"><ele>1673</ele><speed>14.18</speed><time>2016-07-01T13:00:44Z</time><pdop>9.0</pdop><geoidheight>54.00</geoidheight><course>61.9</course><type>1</type></trkpt>
      <trkpt lat="40.54530942" lon="-5.16777169"><ele>1678</ele><speed>8.73</speed><time>2016-07-01T13:00:46Z</time><pdop>11.0</pdop><geoidheight>54.00</geoidheight><course>92.6</course><type>1</type></trkpt>
      <trkpt lat="40.54508793" lon="-5.16765562"><ele>1684</ele><speed>7.91</speed><time>2016-07-01T13:00:48Z</time><pdop>10.0</pdop><geoidheight>54.00</geoidheight><course>140.6</course><type>1</type></trkpt>
      <trkpt lat="40.54487623" lon="-5.16781327"><ele>1693</ele><speed>7.54</speed><time>2016-07-01T13:00:51Z</time><pdop>8.0</pdop><geoidheight>54.00</geoidheight><course>210.6</course><type>1</type></trkpt>
      <trkpt lat="40.54497066" lon="-5.16797199"><ele>1702</ele><speed>6.27</speed><time>2016-07-01T13:00:55Z</time><pdop>6.0</pdop><geoidheight>54.00</geoidheight><course>336.4</course><type>1</type></trkpt>
      <trkpt lat="40.54512411" lon="-5.16800836"><ele>1705</ele><speed>7.92</speed><time>2016-07-01T13:00:57Z</time><pdop>8.0</pdop><geoidheight>54.00</geoidheight><course>348.9</course><type>1</type></trkpt>
      <trkpt lat="40.54528458" lon="-5.16787913"><ele>1707</ele><speed>8.70</speed><time>2016-07-01T13:00:59Z</time><pdop>10.0</pdop><geoidheight>54.00</geoidheight><course>23.2</course><type>1</type></trkpt>
      <trkpt lat="40.54544902" lon="-5.1674559"><ele>1707</ele><speed>15.62</speed><time>2016-07-01T13:01:01Z</time><pdop>11.0</pdop><geoidheight>54.00</geoidheight><course>58.2</course><type>1</type></trkpt>
      <trkpt lat="40.54549035" lon="-5.16704919"><ele>1712</ele><speed>16.12</speed><time>2016-07-01T13:01:03Z</time><pdop>8.0</pdop><geoidheight>54.00</geoidheight><course>80.9</course><type>1</type></trkpt>
      <trkpt lat="40.54550027" lon="-5.16673375"><ele>1716</ele><speed>13.10</speed><time>2016-07-01T13:01:05Z</time><pdop>7.0</pdop><geoidheight>54.00</geoidheight><course>97.6</course><type>1</type></trkpt>
      <trkpt lat="40.5454292" lon="-5.16647839"><ele>1718</ele><speed>12.16</speed><time>2016-07-01T13:01:07Z</time><pdop>10.0</pdop><geoidheight>54.00</geoidheight><course>108.6</course><type>1</type></trkpt>
      <trkpt lat="40.54528533" lon="-5.16636851"><ele>1721</ele><speed>9.19</speed><time>2016-07-01T13:01:09Z</time><pdop>8.0</pdop><geoidheight>54.00</geoidheight><course>156.2</course><type>1</type></trkpt>
      <trkpt lat="40.54514407" lon="-5.16629727"><ele>1722</ele><speed>7.93</speed><time>2016-07-01T13:01:11Z</time><pdop>8.0</pdop><geoidheight>54.00</geoidheight><course>170.6</course><type>1</type></trkpt>
      <trkpt lat="40.54514225" lon="-5.16653883"><ele>1733</ele><speed>6.02</speed><time>2016-07-01T13:01:15Z</time><pdop>9.0</pdop><geoidheight>54.00</geoidheight><course>286.4</course><type>1</type></trkpt>
      <trkpt lat="40.54537104" lon="-5.16649824"><ele>1736</ele><speed>5.56</speed><time>2016-07-01T13:01:18Z</time><pdop>15.0</pdop><geoidheight>54.00</geoidheight><course>0.8</course><type>1</type></trkpt>
      <trkpt lat="40.54559624" lon="-5.16612236"><ele>1736</ele><speed>11.16</speed><time>2016-07-01T13:01:20Z</time><pdop>14.0</pdop><geoidheight>54.00</geoidheight><course>45.5</course><type>1</type></trkpt>
      <trkpt lat="40.54575224" lon="-5.16581253"><ele>1736</ele><speed>17.89</speed><time>2016-07-01T13:01:21Z</time><pdop>14.0</pdop><geoidheight>54.00</geoidheight><course>55.1</course><type>1</type></trkpt>
      <trkpt lat="40.54583988" lon="-5.16544911"><ele>1741</ele><speed>16.62</speed><time>2016-07-01T13:01:23Z</time><pdop>10.0</pdop><geoidheight>54.00</geoidheight><course>70.0</course><type>1</type></trkpt>
      <trkpt lat="40.5457538" lon="-5.16512815"><ele>1747</ele><speed>10.08</speed><time>2016-07-01T13:01:26Z</time><pdop>13.0</pdop><geoidheight>54.00</geoidheight><course>92.6</course><type>1</type></trkpt>
      <trkpt lat="40.54552961" lon="-5.16508635"><ele>1755</ele><speed>5.00</speed><time>2016-07-01T13:01:30Z</time><pdop>11.0</pdop><geoidheight>54.00</geoidheight><course>216.0</course><type>1</type></trkpt>
      <trkpt lat="40.5455101" lon="-5.16538445"><ele>1767</ele><speed>4.22</speed><time>2016-07-01T13:01:35Z</time><pdop>10.0</pdop><geoidheight>54.00</geoidheight><course>284.2</course><type>1</type></trkpt>
      <trkpt lat="40.54572936" lon="-5.16543446"><ele>1778</ele><speed>6.79</speed><time>2016-07-01T13:01:39Z</time><pdop>9.0</pdop><geoidheight>54.00</geoidheight><course>354.4</course><type>1</type></trkpt>
      <trkpt lat="40.5459231" lon="-5.16551583"><ele>1784</ele><speed>10.00</speed><time>2016-07-01T13:01:41Z</time><pdop>10.0</pdop><geoidheight>54.00</geoidheight><course>351.0</course><type>1</type></trkpt>
      <trkpt lat="40.54613228" lon="-5.16531279"><ele>1786</ele><speed>11.06</speed><time>2016-07-01T13:01:43Z</time><pdop>11.0</pdop><geoidheight>54.00</geoidheight><course>21.4</course><type>1</type></trkpt>
      <trkpt lat="40.54631046" lon="-5.16492972"><ele>1787</ele><speed>14.90</speed><time>2016-07-01T13:01:45Z</time><pdop>12.0</pdop><geoidheight>54.00</geoidheight><course>49.1</course><type>1</type></trkpt>
      <trkpt lat="40.54639279" lon="-5.16454083"><ele>1790</ele><speed>15.45</speed><time>2016-07-01T13:01:47Z</time><pdop>12.0</pdop><geoidheight>54.00</geoidheight><course>65.9</course><type>1</type></trkpt>
      <trkpt lat="40.54619668" lon="-5.16424572"><ele>1792</ele><speed>12.79</speed><time>2016-07-01T13:01:49Z</time><pdop>10.0</pdop><geoidheight>54.00</geoidheight><course>111.6</course><type>1</type></trkpt>
      <trkpt lat="40.54603078" lon="-5.16402652"><ele>1793</ele><speed>11.14</speed><time>2016-07-01T13:01:51Z</time><pdop>12.0</pdop><geoidheight>54.00</geoidheight><course>123.0</course><type>1</type></trkpt>
      <trkpt lat="40.54574438" lon="-5.163999"><ele>1799</ele><speed>10.97</speed><time>2016-07-01T13:01:53Z</time><pdop>10.0</pdop><geoidheight>54.00</geoidheight><course>162.3</course><type>1</type></trkpt>
      <trkpt lat="40.54553188" lon="-5.16400694"><ele>1804</ele><speed>10.56</speed><time>2016-07-01T13:01:55Z</time><pdop>11.0</pdop><geoidheight>54.00</geoidheight><course>180.9</course><type>1</type></trkpt>
      <trkpt lat="40.54575517" lon="-5.16393558"><ele>1816</ele><speed>6.44</speed><time>2016-07-01T13:02:02Z</time><pdop>10.0</pdop><geoidheight>54.00</geoidheight><course>48.6</course><type>1</type></trkpt>
      <trkpt lat="40.54595215" lon="-5.16371443"><ele>1821</ele><speed>9.90</speed><time>2016-07-01T13:02:04Z</time><pdop>12.0</pdop><geoidheight>54.00</geoidheight><course>47.9</course><type>1</type></trkpt>
      <trkpt lat="40.54568482" lon="-5.16336525"><ele>1827</ele><speed>8.05</speed><time>2016-07-01T13:02:08Z</time><pdop>22.0</pdop><geoidheight>54.00</geoidheight><course>126.6</course><type>1</type></trkpt>
      <trkpt lat="40.54537463" lon="-5.16310139"><ele>1835</ele><speed>8.17</speed><time>2016-07-01T13:02:12Z</time><pdop>18.0</pdop><geoidheight>54.00</geoidheight><course>171.0</course><type>1</type></trkpt>
      <trkpt lat="40.54564198" lon="-5.16262038"><ele>1858</ele><speed>11.09</speed><time>2016-07-01T13:02:21Z</time><pdop>26.0</pdop><geoidheight>54.00</geoidheight><course>88.7</course><type>1</type></trkpt>
      <trkpt lat="40.54524395" lon="-5.16259064"><ele>1893</ele><speed>8.15</speed><time>2016-07-01T13:02:31Z</time><pdop>17.0</pdop><geoidheight>54.00</geoidheight><course>215.4</course><type>1</type></trkpt>
      <trkpt lat="40.54553923" lon="-5.16231809"><ele>1917</ele><speed>9.73</speed><time>2016-07-01T13:02:39Z</time><pdop>16.0</pdop><geoidheight>54.00</geoidheight><course>40.4</course><type>1</type></trkpt>
      <trkpt lat="40.54567658" lon="-5.16182098"><ele>1924</ele><speed>13.43</speed><time>2016-07-01T13:02:42Z</time><pdop>13.0</pdop><geoidheight>54.00</geoidheight><course>76.6</course><type>1</type></trkpt>
      <trkpt lat="40.54550669" lon="-5.16151579"><ele>1930</ele><speed>6.71</speed><time>2016-07-01T13:02:46Z</time><pdop>12.0</pdop><geoidheight>54.00</geoidheight><course>138.3</course><type>1</type></trkpt>
      <trkpt lat="40.54531107" lon="-5.16160138"><ele>1937</ele><speed>7.83</speed><time>2016-07-01T13:02:48Z</time><pdop>10.0</pdop><geoidheight>54.00</geoidheight><course>207.4</course><type>1</type></trkpt>
      <trkpt lat="40.5455151" lon="-5.16142171"><ele>1955</ele><speed>10.38</speed><time>2016-07-01T13:02:56Z</time><pdop>15.0</pdop><geoidheight>54.00</geoidheight><course>57.3</course><type>1</type></trkpt>
      <trkpt lat="40.54568485" lon="-5.16107373"><ele>2133</ele><speed>16.18</speed><time>2016-07-01T13:02:58Z</time><pdop>11.0</pdop><geoidheight>54.00</geoidheight><course>65.5</course><type>1</type></trkpt>
      <trkpt lat="40.54578282" lon="-5.16067733"><ele>2051</ele><speed>16.95</speed><time>2016-07-01T13:03:00Z</time><pdop>9.0</pdop><geoidheight>54.00</geoidheight><course>80.3</course><type>1</type></trkpt>
      <trkpt lat="40.54570322" lon="-5.16042923"><ele>2030</ele><speed>12.93</speed><time>2016-07-01T13:03:02Z</time><pdop>10.0</pdop><geoidheight>54.00</geoidheight><course>96.1</course><type>1</type></trkpt>
      <trkpt lat="40.54555811" lon="-5.16022515"><ele>2024</ele><speed>11.68</speed><time>2016-07-01T13:03:04Z</time><pdop>11.0</pdop><geoidheight>54.00</geoidheight><course>123.3</course><type>1</type></trkpt>
      <trkpt lat="40.54537566" lon="-5.16007744"><ele>2018</ele><speed>10.86</speed><time>2016-07-01T13:03:06Z</time><pdop>10.0</pdop><geoidheight>54.00</geoidheight><course>142.2</course><type>1</type></trkpt>
      <trkpt lat="40.54519798" lon="-5.15998671"><ele>2009</ele><speed>10.10</speed><time>2016-07-01T13:03:08Z</time><pdop>11.0</pdop><geoidheight>54.00</geoidheight><course>155.1</course><type>1</type></trkpt>
      <trkpt lat="40.54548858" lon="-5.15965565"><ele>1998</ele><speed>10.65</speed><time>2016-07-01T13:03:17Z</time><pdop>9.0</pdop><geoidheight>54.00</geoidheight><course>71.0</course><type>1</type></trkpt>
      <trkpt lat="40.54559501" lon="-5.1594676"><ele>2000</ele><speed>13.99</speed><time>2016-07-01T13:03:18Z</time><pdop>8.0</pdop><geoidheight>54.00</geoidheight><course>71.7</course><type>1</type></trkpt>
      <trkpt lat="40.54561646" lon="-5.15913543"><ele>2005</ele><speed>14.53</speed><time>2016-07-01T13:03:20Z</time><pdop>7.0</pdop><geoidheight>54.00</geoidheight><course>89.0</course><type>1</type></trkpt>
      <trkpt lat="40.54558172" lon="-5.15882148"><ele>2004</ele><speed>13.73</speed><time>2016-07-01T13:03:22Z</time><pdop>8.0</pdop><geoidheight>54.00</geoidheight><course>104.2</course><type>1</type></trkpt>
      <trkpt lat="40.54545091" lon="-5.15859667"><ele>2008</ele><speed>11.69</speed><time>2016-07-01T13:03:24Z</time><pdop>6.0</pdop><geoidheight>54.00</geoidheight><course>133.6</course><type>1</type></trkpt>
      <trkpt lat="40.54529185" lon="-5.15845936"><ele>2013</ele><speed>10.21</speed><time>2016-07-01T13:03:26Z</time><pdop>6.0</pdop><geoidheight>54.00</geoidheight><course>153.3</course><type>1</type></trkpt>
      <trkpt lat="40.54511805" lon="-5.15838442"><ele>2015</ele><speed>9.90</speed><time>2016-07-01T13:03:28Z</time><pdop>6.0</pdop><geoidheight>54.00</geoidheight><course>162.0</course><type>1</type></trkpt>
      <trkpt lat="40.54496256" lon="-5.15834399"><ele>2019</ele><speed>8.92</speed><time>2016-07-01T13:03:30Z</time><pdop>8.0</pdop><geoidheight>54.00</geoidheight><course>173.3</course><type>1</type></trkpt>
      <trkpt lat="40.54478288" lon="-5.15846733"><ele>2025</ele><speed>7.65</speed><time>2016-07-01T13:03:33Z</time><pdop>10.0</pdop><geoidheight>54.00</geoidheight><course>197.7</course><type>1</type></trkpt>
      <trkpt lat="40.54494551" lon="-5.15858176"><ele>2030</ele><speed>5.85</speed><time>2016-07-01T13:03:37Z</time><pdop>6.0</pdop><geoidheight>54.00</geoidheight><course>347.1</course><type>1</type></trkpt>
      <trkpt lat="40.54510951" lon="-5.15857791"><ele>2032</ele><speed>8.62</speed><time>2016-07-01T13:03:39Z</time><pdop>6.0</pdop><geoidheight>54.00</geoidheight><course>4.1</course><type>1</type></trkpt>
      <trkpt lat="40.54525164" lon="-5.15842715"><ele>2033</ele><speed>8.87</speed><time>2016-07-01T13:03:41Z</time><pdop>8.0</pdop><geoidheight>54.00</geoidheight><course>37.4</course><type>1</type></trkpt>
      <trkpt lat="40.54541454" lon="-5.15803549"><ele>2033</ele><speed>14.98</speed><time>2016-07-01T13:03:43Z</time><pdop>10.0</pdop><geoidheight>54.00</geoidheight><course>58.2</course><type>1</type></trkpt>
      <trkpt lat="40.54552925" lon="-5.15777348"><ele>2033</ele><speed>18.82</speed><time>2016-07-01T13:03:44Z</time><pdop>11.0</pdop><geoidheight>54.00</geoidheight><course>62.0</course><type>1</type></trkpt>
      <trkpt lat="40.54537868" lon="-5.1574469"><ele>2037</ele><speed>14.60</speed><time>2016-07-01T13:03:46Z</time><pdop>8.0</pdop><geoidheight>54.00</geoidheight><course>93.0</course><type>1</type></trkpt>
      <trkpt lat="40.5452691" lon="-5.15717934"><ele>2040</ele><speed>12.17</speed><time>2016-07-01T13:03:48Z</time><pdop>9.0</pdop><geoidheight>54.00</geoidheight><course>108.8</course><type>1</type></trkpt>
      <trkpt lat="40.5451082" lon="-5.15698555"><ele>2043</ele><speed>11.67</speed><time>2016-07-01T13:03:50Z</time><pdop>9.0</pdop><geoidheight>54.00</geoidheight><course>131.6</course><type>1</type></trkpt>
      <trkpt lat="40.5449256" lon="-5.15689724"><ele>2045</ele><speed>10.91</speed><time>2016-07-01T13:03:52Z</time><pdop>9.0</pdop><geoidheight>54.00</geoidheight><course>147.3</course><type>1</type></trkpt>
      <trkpt lat="40.54478048" lon="-5.15698998"><ele>2055</ele><speed>4.54</speed><time>2016-07-01T13:03:56Z</time><pdop>7.0</pdop><geoidheight>54.00</geoidheight><course>204.8</course><type>1</type></trkpt>
      <trkpt lat="40.54488753" lon="-5.15709296"><ele>2058</ele><speed>5.29</speed><time>2016-07-01T13:04:00Z</time><pdop>7.0</pdop><geoidheight>54.00</geoidheight><course>336.8</course><type>1</type></trkpt>
      <trkpt lat="40.54501126" lon="-5.15706078"><ele>2057</ele><speed>9.74</speed><time>2016-07-01T13:04:01Z</time><pdop>6.0</pdop><geoidheight>54.00</geoidheight><course>2.0</course><type>1</type></trkpt>
      <trkpt lat="40.54519333" lon="-5.15697278"><ele>2057</ele><speed>9.88</speed><time>2016-07-01T13:04:03Z</time><pdop>8.0</pdop><geoidheight>54.00</geoidheight><course>15.3</course><type>1</type></trkpt>
      <trkpt lat="40.54523174" lon="-5.15675504"><ele>2057</ele><speed>11.82</speed><time>2016-07-01T13:04:04Z</time><pdop>7.0</pdop><geoidheight>54.00</geoidheight><course>55.3</course><type>1</type></trkpt>
      <trkpt lat="40.5453402" lon="-5.15653773"><ele>2059</ele><speed>16.34</speed><time>2016-07-01T13:04:05Z</time><pdop>8.0</pdop><geoidheight>54.00</geoidheight><course>59.7</course><type>1</type></trkpt>
      <trkpt lat="40.54536815" lon="-5.15633904"><ele>2058</ele><speed>16.94</speed><time>2016-07-01T13:04:06Z</time><pdop>8.0</pdop><geoidheight>54.00</geoidheight><course>70.7</course><type>1</type></trkpt>
      <trkpt lat="40.54535834" lon="-5.15611171"><ele>2059</ele><speed>17.62</speed><time>2016-07-01T13:04:07Z</time><pdop>8.0</pdop><geoidheight>54.00</geoidheight><course>80.8</course><type>1</type></trkpt>
      <trkpt lat="40.54535363" lon="-5.1558832"><ele>2060</ele><speed>18.18</speed><time>2016-07-01T13:04:08Z</time><pdop>8.0</pdop><geoidheight>54.00</geoidheight><course>85.3</course><type>1</type></trkpt>
      <trkpt lat="40.54529931" lon="-5.15569637"><ele>2066</ele><speed>15.65</speed><time>2016-07-01T13:04:09Z</time><pdop>6.0</pdop><geoidheight>54.00</geoidheight><course>97.0</course><type>1</type></trkpt>
      <trkpt lat="40.54523986" lon="-5.15555534"><ele>2071</ele><speed>13.82</speed><time>2016-07-01T13:04:10Z</time><pdop>6.0</pdop><geoidheight>54.00</geoidheight><course>106.6</course><type>1</type></trkpt>
      <trkpt lat="40.54519143" lon="-5.15542179"><ele>2072</ele><speed>12.73</speed><time>2016-07-01T13:04:11Z</time><pdop>6.0</pdop><geoidheight>54.00</geoidheight><course>110.3</course><type>1</type></trkpt>
      <trkpt lat="40.54502281" lon="-5.15531777"><ele>2074</ele><speed>9.65</speed><time>2016-07-01T13:04:13Z</time><pdop>6.0</pdop><geoidheight>54.00</geoidheight><course>156.0</course><type>1</type></trkpt>
      <trkpt lat="40.54486713" lon="-5.15533438"><ele>2076</ele><speed>8.99</speed><time>2016-07-01T13:04:15Z</time><pdop>5.0</pdop><geoidheight>54.00</geoidheight><course>191.2</course><type>1</type></trkpt>
      <trkpt lat="40.54491515" lon="-5.15546586"><ele>2077</ele><speed>5.58</speed><time>2016-07-01T13:04:18Z</time><pdop>4.0</pdop><geoidheight>54.00</geoidheight><course>323.7</course><type>1</type></trkpt>
      <trkpt lat="40.54501579" lon="-5.15551061"><ele>2079</ele><speed>5.84</speed><time>2016-07-01T13:04:20Z</time><pdop>6.0</pdop><geoidheight>54.00</geoidheight><course>341.7</course><type>1</type></trkpt>
      <trkpt lat="40.54513823" lon="-5.15533559"><ele>2080</ele><speed>6.89</speed><time>2016-07-01T13:04:22Z</time><pdop>9.0</pdop><geoidheight>54.00</geoidheight><course>35.7</course><type>1</type></trkpt>
      <trkpt lat="40.5452234" lon="-5.15513635"><ele>2079</ele><speed>11.14</speed><time>2016-07-01T13:04:23Z</time><pdop>10.0</pdop><geoidheight>54.00</geoidheight><course>50.0</course><type>1</type></trkpt>
      <trkpt lat="40.54530806" lon="-5.15469202"><ele>2079</ele><speed>15.25</speed><time>2016-07-01T13:04:25Z</time><pdop>9.0</pdop><geoidheight>54.00</geoidheight><course>72.0</course><type>1</type></trkpt>
      <trkpt lat="40.54525388" lon="-5.15441961"><ele>2080</ele><speed>12.05</speed><time>2016-07-01T13:04:27Z</time><pdop>11.0</pdop><geoidheight>54.00</geoidheight><course>85.9</course><type>1</type></trkpt>
      <trkpt lat="40.54510464" lon="-5.15417538"><ele>2082</ele><speed>11.54</speed><time>2016-07-01T13:04:29Z</time><pdop>13.0</pdop><geoidheight>54.00</geoidheight><course>105.5</course><type>1</type></trkpt>
      <trkpt lat="40.54476506" lon="-5.15427385"><ele>2084</ele><speed>7.08</speed><time>2016-07-01T13:04:33Z</time><pdop>14.0</pdop><geoidheight>54.00</geoidheight><course>184.6</course><type>1</type></trkpt>
      <trkpt lat="40.54491856" lon="-5.15453145"><ele>2088</ele><speed>4.43</speed><time>2016-07-01T13:04:38Z</time><pdop>9.0</pdop><geoidheight>54.00</geoidheight><course>318.1</course><type>1</type></trkpt>
      <trkpt lat="40.5451553" lon="-5.15426587"><ele>2088</ele><speed>10.91</speed><time>2016-07-01T13:04:40Z</time><pdop>7.0</pdop><geoidheight>54.00</geoidheight><course>43.3</course><type>1</type></trkpt>
      <trkpt lat="40.54523326" lon="-5.15404996"><ele>2087</ele><speed>15.54</speed><time>2016-07-01T13:04:41Z</time><pdop>7.0</pdop><geoidheight>54.00</geoidheight><course>58.5</course><type>1</type></trkpt>
      <trkpt lat="40.54529527" lon="-5.15388423"><ele>2089</ele><speed>15.69</speed><time>2016-07-01T13:04:42Z</time><pdop>7.0</pdop><geoidheight>54.00</geoidheight><course>63.3</course><type>1</type></trkpt>
      <trkpt lat="40.54530785" lon="-5.15371072"><ele>2091</ele><speed>15.35</speed><time>2016-07-01T13:04:43Z</time><pdop>7.0</pdop><geoidheight>54.00</geoidheight><course>73.3</course><type>1</type></trkpt>
      <trkpt lat="40.54528429" lon="-5.15355979"><ele>2092</ele><speed>13.70</speed><time>2016-07-01T13:04:44Z</time><pdop>5.0</pdop><geoidheight>54.00</geoidheight><course>95.3</course><type>1</type></trkpt>
      <trkpt lat="40.5452597" lon="-5.15341047"><ele>2093</ele><speed>12.94</speed><time>2016-07-01T13:04:45Z</time><pdop>4.0</pdop><geoidheight>54.00</geoidheight><course>106.1</course><type>1</type></trkpt>
      <trkpt lat="40.54516307" lon="-5.15314781"><ele>2093</ele><speed>12.50</speed><time>2016-07-01T13:04:47Z</time><pdop>9.0</pdop><geoidheight>54.00</geoidheight><course>120.5</course><type>1</type></trkpt>
      <trkpt lat="40.54501849" lon="-5.15296284"><ele>2094</ele><speed>11.27</speed><time>2016-07-01T13:04:49Z</time><pdop>9.0</pdop><geoidheight>54.00</geoidheight><course>137.3</course><type>1</type></trkpt>
      <trkpt lat="40.54485807" lon="-5.1528829"><ele>2094</ele><speed>10.58</speed><time>2016-07-01T13:04:51Z</time><pdop>9.0</pdop><geoidheight>54.00</geoidheight><course>160.5</course><type>1</type></trkpt>
      <trkpt lat="40.54469076" lon="-5.15279835"><ele>2098</ele><speed>10.36</speed><time>2016-07-01T13:04:53Z</time><pdop>9.0</pdop><geoidheight>54.00</geoidheight><course>159.2</course><type>1</type></trkpt>
      <trkpt lat="40.54451943" lon="-5.15267556"><ele>2101</ele><speed>10.90</speed><time>2016-07-01T13:04:55Z</time><pdop>9.0</pdop><geoidheight>54.00</geoidheight><course>151.9</course><type>1</type></trkpt>
      <trkpt lat="40.54433562" lon="-5.15251895"><ele>2102</ele><speed>12.05</speed><time>2016-07-01T13:04:57Z</time><pdop>9.0</pdop><geoidheight>54.00</geoidheight><course>146.8</course><type>1</type></trkpt>
      <trkpt lat="40.54415186" lon="-5.15242248"><ele>2101</ele><speed>10.55</speed><time>2016-07-01T13:04:59Z</time><pdop>9.0</pdop><geoidheight>54.00</geoidheight><course>158.3</course><type>1</type></trkpt>
      <trkpt lat="40.54398183" lon="-5.15245253"><ele>2100</ele><speed>9.99</speed><time>2016-07-01T13:05:01Z</time><pdop>10.0</pdop><geoidheight>54.00</geoidheight><course>187.9</course><type>1</type></trkpt>
      <trkpt lat="40.54415231" lon="-5.15256847"><ele>2091</ele><speed>6.69</speed><time>2016-07-01T13:05:07Z</time><pdop>10.0</pdop><geoidheight>54.00</geoidheight><course>26.1</course><type>1</type></trkpt>
      <trkpt lat="40.54426953" lon="-5.15235302"><ele>2088</ele><speed>10.00</speed><time>2016-07-01T13:05:09Z</time><pdop>10.0</pdop><geoidheight>54.00</geoidheight><course>48.0</course><type>1</type></trkpt>
      <trkpt lat="40.54426642" lon="-5.15199401"><ele>2085</ele><speed>12.69</speed><time>2016-07-01T13:05:11Z</time><pdop>10.0</pdop><geoidheight>54.00</geoidheight><course>80.3</course><type>1</type></trkpt>
      <trkpt lat="40.54429934" lon="-5.15175984"><ele>2085</ele><speed>14.85</speed><time>2016-07-01T13:05:12Z</time><pdop>10.0</pdop><geoidheight>54.00</geoidheight><course>84.9</course><type>1</type></trkpt>
      <trkpt lat="40.54431371" lon="-5.15157555"><ele>2084</ele><speed>14.33</speed><time>2016-07-01T13:05:13Z</time><pdop>4.0</pdop><geoidheight>54.00</geoidheight><course>90.1</course><type>1</type></trkpt>
      <trkpt lat="40.54431747" lon="-5.15140843"><ele>2083</ele><speed>13.98</speed><time>2016-07-01T13:05:14Z</time><pdop>4.0</pdop><geoidheight>54.00</geoidheight><course>96.5</course><type>1</type></trkpt>
      <trkpt lat="40.54429531" lon="-5.15124683"><ele>2083</ele><speed>13.85</speed><time>2016-07-01T13:05:15Z</time><pdop>4.0</pdop><geoidheight>54.00</geoidheight><course>98.9</course><type>1</type></trkpt>
      <trkpt lat="40.54427814" lon="-5.15108483"><ele>2083</ele><speed>13.53</speed><time>2016-07-01T13:05:16Z</time><pdop>4.0</pdop><geoidheight>54.00</geoidheight><course>97.5</course><type>1</type></trkpt>
      <trkpt lat="40.5442644" lon="-5.15091452"><ele>2083</ele><speed>13.17</speed><time>2016-07-01T13:05:17Z</time><pdop>4.0</pdop><geoidheight>54.00</geoidheight><course>99.2</course><type>1</type></trkpt>
      <trkpt lat="40.54424367" lon="-5.1507639"><ele>2082</ele><speed>12.78</speed><time>2016-07-01T13:05:18Z</time><pdop>3.0</pdop><geoidheight>54.00</geoidheight><course>102.1</course><type>1</type></trkpt>
      <trkpt lat="40.5442208" lon="-5.15061661"><ele>2082</ele><speed>12.76</speed><time>2016-07-01T13:05:19Z</time><pdop>3.0</pdop><geoidheight>54.00</geoidheight><course>104.1</course><type>1</type></trkpt>
      <trkpt lat="40.54419619" lon="-5.15047089"><ele>2083</ele><speed>12.73</speed><time>2016-07-01T13:05:20Z</time><pdop>3.0</pdop><geoidheight>54.00</geoidheight><course>107.8</course><type>1</type></trkpt>
      <trkpt lat="40.54415462" lon="-5.15032181"><ele>2082</ele><speed>12.98</speed><time>2016-07-01T13:05:21Z</time><pdop>3.0</pdop><geoidheight>54.00</geoidheight><course>111.3</course><type>1</type></trkpt>
      <trkpt lat="40.54410429" lon="-5.15017837"><ele>2082</ele><speed>13.06</speed><time>2016-07-01T13:05:22Z</time><pdop>3.0</pdop><geoidheight>54.00</geoidheight><course>113.8</course><type>1</type></trkpt>
      <trkpt lat="40.54406059" lon="-5.15003136"><ele>2081</ele><speed>13.11</speed><time>2016-07-01T13:05:23Z</time><pdop>3.0</pdop><geoidheight>54.00</geoidheight><course>117.0</course><type>1</type></trkpt>
      <trkpt lat="40.54399961" lon="-5.14989589"><ele>2080</ele><speed>13.17</speed><time>2016-07-01T13:05:24Z</time><pdop>3.0</pdop><geoidheight>54.00</geoidheight><course>120.3</course><type>1</type></trkpt>
      <trkpt lat="40.54394123" lon="-5.14975662"><ele>2081</ele><speed>13.54</speed><time>2016-07-01T13:05:25Z</time><pdop>3.0</pdop><geoidheight>54.00</geoidheight><course>120.8</course><type>1</type></trkpt>
      <trkpt lat="40.54388763" lon="-5.14960878"><ele>2080</ele><speed>14.15</speed><time>2016-07-01T13:05:26Z</time><pdop>3.0</pdop><geoidheight>54.00</geoidheight><course>118.5</course><type>1</type></trkpt>
      <trkpt lat="40.54384402" lon="-5.14945369"><ele>2080</ele><speed>14.31</speed><time>2016-07-01T13:05:27Z</time><pdop>3.0</pdop><geoidheight>54.00</geoidheight><course>113.0</course><type>1</type></trkpt>
      <trkpt lat="40.54378913" lon="-5.14929669"><ele>2081</ele><speed>14.57</speed><time>2016-07-01T13:05:28Z</time><pdop>3.0</pdop><geoidheight>54.00</geoidheight><course>114.0</course><type>1</type></trkpt>
      <trkpt lat="40.54373247" lon="-5.14915625"><ele>2080</ele><speed>13.73</speed><time>2016-07-01T13:05:29Z</time><pdop>3.0</pdop><geoidheight>54.00</geoidheight><course>120.5</course><type>1</type></trkpt>
      <trkpt lat="40.54367429" lon="-5.14904171"><ele>2081</ele><speed>12.49</speed><time>2016-07-01T13:05:30Z</time><pdop>4.0</pdop><geoidheight>54.00</geoidheight><course>125.7</course><type>1</type></trkpt>
      <trkpt lat="40.54360121" lon="-5.14892955"><ele>2081</ele><speed>12.25</speed><time>2016-07-01T13:05:31Z</time><pdop>6.0</pdop><geoidheight>54.00</geoidheight><course>128.4</course><type>1</type></trkpt>
      <trkpt lat="40.5435083" lon="-5.14879019"><ele>2081</ele><speed>13.43</speed><time>2016-07-01T13:05:32Z</time><pdop>7.0</pdop><geoidheight>54.00</geoidheight><course>131.2</course><type>1</type></trkpt>
      <trkpt lat="40.54337874" lon="-5.14878106"><ele>2082</ele><speed>8.24</speed><time>2016-07-01T13:05:34Z</time><pdop>7.0</pdop><geoidheight>54.00</geoidheight><course>157.7</course><type>1</type></trkpt>
      <trkpt lat="40.54319243" lon="-5.14885378"><ele>2079</ele><speed>8.94</speed><time>2016-07-01T13:05:36Z</time><pdop>9.0</pdop><geoidheight>54.00</geoidheight><course>187.4</course><type>1</type></trkpt>
      <trkpt lat="40.54335293" lon="-5.14903231"><ele>2072</ele><speed>6.51</speed><time>2016-07-01T13:05:39Z</time><pdop>6.0</pdop><geoidheight>54.00</geoidheight><course>330.7</course><type>1</type></trkpt>
      <trkpt lat="40.54346596" lon="-5.14906309"><ele>2070</ele><speed>7.13</speed><time>2016-07-01T13:05:41Z</time><pdop>6.0</pdop><geoidheight>54.00</geoidheight><course>347.9</course><type>1</type></trkpt>
      <trkpt lat="40.54354769" lon="-5.14896273"><ele>2067</ele><speed>7.74</speed><time>2016-07-01T13:05:42Z</time><pdop>6.0</pdop><geoidheight>54.00</geoidheight><course>15.5</course><type>1</type></trkpt>
      <trkpt lat="40.54365246" lon="-5.14877877"><ele>2065</ele><speed>11.64</speed><time>2016-07-01T13:05:43Z</time><pdop>6.0</pdop><geoidheight>54.00</geoidheight><course>43.8</course><type>1</type></trkpt>
      <trkpt lat="40.54373205" lon="-5.14853755"><ele>2064</ele><speed>16.32</speed><time>2016-07-01T13:05:44Z</time><pdop>6.0</pdop><geoidheight>54.00</geoidheight><course>58.3</course><type>1</type></trkpt>
      <trkpt lat="40.54369594" lon="-5.14831878"><ele>2062</ele><speed>16.50</speed><time>2016-07-01T13:05:45Z</time><pdop>5.0</pdop><geoidheight>54.00</geoidheight><course>82.3</course><type>1</type></trkpt>
      <trkpt lat="40.54370909" lon="-5.14811288"><ele>2061</ele><speed>16.75</speed><time>2016-07-01T13:05:46Z</time><pdop>4.0</pdop><geoidheight>54.00</geoidheight><course>86.9</course><type>1</type></trkpt>
      <trkpt lat="40.54370295" lon="-5.14790166"><ele>2060</ele><speed>17.06</speed><time>2016-07-01T13:05:47Z</time><pdop>4.0</pdop><geoidheight>54.00</geoidheight><course>89.6</course><type>1</type></trkpt>
      <trkpt lat="40.5436777" lon="-5.14769934"><ele>2060</ele><speed>16.82</speed><time>2016-07-01T13:05:48Z</time><pdop>4.0</pdop><geoidheight>54.00</geoidheight><course>92.8</course><type>1</type></trkpt>
      <trkpt lat="40.54365754" lon="-5.14750846"><ele>2059</ele><speed>16.18</speed><time>2016-07-01T13:05:49Z</time><pdop>4.0</pdop><geoidheight>54.00</geoidheight><course>96.1</course><type>1</type></trkpt>
      <trkpt lat="40.54363456" lon="-5.14731939"><ele>2057</ele><speed>15.78</speed><time>2016-07-01T13:05:50Z</time><pdop>3.0</pdop><geoidheight>54.00</geoidheight><course>98.2</course><type>1</type></trkpt>
      <trkpt lat="40.54361155" lon="-5.14712469"><ele>2056</ele><speed>16.25</speed><time>2016-07-01T13:05:51Z</time><pdop>3.0</pdop><geoidheight>54.00</geoidheight><course>97.7</course><type>1</type></trkpt>
      <trkpt lat="40.54359357" lon="-5.14691962"><ele>2054</ele><speed>16.59</speed><time>2016-07-01T13:05:52Z</time><pdop>3.0</pdop><geoidheight>54.00</geoidheight><course>97.9</course><type>1</type></trkpt>
      <trkpt lat="40.54357778" lon="-5.14671373"><ele>2053</ele><speed>16.96</speed><time>2016-07-01T13:05:53Z</time><pdop>4.0</pdop><geoidheight>54.00</geoidheight><course>96.9</course><type>1</type></trkpt>
      <trkpt lat="40.5435578" lon="-5.14650991"><ele>2051</ele><speed>17.38</speed><time>2016-07-01T13:05:54Z</time><pdop>4.0</pdop><geoidheight>54.00</geoidheight><course>98.0</course><type>1</type></trkpt>
      <trkpt lat="40.54354432" lon="-5.14630432"><ele>2049</ele><speed>17.26</speed><time>2016-07-01T13:05:55Z</time><pdop>4.0</pdop><geoidheight>54.00</geoidheight><course>98.8</course><type>1</type></trkpt>
      <trkpt lat="40.54350214" lon="-5.14611169"><ele>2048</ele><speed>17.29</speed><time>2016-07-01T13:05:56Z</time><pdop>4.0</pdop><geoidheight>54.00</geoidheight><course>101.1</course><type>1</type></trkpt>
      <trkpt lat="40.54346641" lon="-5.14591166"><ele>2045</ele><speed>17.40</speed><time>2016-07-01T13:05:57Z</time><pdop>4.0</pdop><geoidheight>54.00</geoidheight><course>101.7</course><type>1</type></trkpt>
      <trkpt lat="40.54343248" lon="-5.14570161"><ele>2042</ele><speed>17.92</speed><time>2016-07-01T13:05:58Z</time><pdop>3.0</pdop><geoidheight>54.00</geoidheight><course>103.0</course><type>1</type></trkpt>
      <trkpt lat="40.54340085" lon="-5.14548973"><ele>2040</ele><speed>18.24</speed><time>2016-07-01T13:05:59Z</time><pdop>4.0</pdop><geoidheight>54.00</geoidheight><course>102.5</course><type>1</type></trkpt>
      <trkpt lat="40.54336395" lon="-5.14528423"><ele>2040</ele><speed>18.04</speed><time>2016-07-01T13:06:00Z</time><pdop>4.0</pdop><geoidheight>54.00</geoidheight><course>102.4</course><type>1</type></trkpt>
      <trkpt lat="40.54333433" lon="-5.14509431"><ele>2039</ele><speed>16.81</speed><time>2016-07-01T13:06:01Z</time><pdop>3.0</pdop><geoidheight>54.00</geoidheight><course>100.2</course><type>1</type></trkpt>
      <trkpt lat="40.54330748" lon="-5.14490971"><ele>2039</ele><speed>16.19</speed><time>2016-07-01T13:06:02Z</time><pdop>3.0</pdop><geoidheight>54.00</geoidheight><course>98.8</course><type>1</type></trkpt>
      <trkpt lat="40.54327852" lon="-5.14472304"><ele>2038</ele><speed>16.01</speed><time>2016-07-01T13:06:03Z</time><pdop>3.0</pdop><geoidheight>54.00</geoidheight><course>100.9</course><type>1</type></trkpt>
      <trkpt lat="40.54325879" lon="-5.1445344"><ele>2037</ele><speed>15.82</speed><time>2016-07-01T13:06:04Z</time><pdop>4.0</pdop><geoidheight>54.00</geoidheight><course>100.5</course><type>1</type></trkpt>
      <trkpt lat="40.54324519" lon="-5.14436055"><ele>2036</ele><speed>15.58</speed><time>2016-07-01T13:06:05Z</time><pdop>5.0</pdop><geoidheight>54.00</geoidheight><course>99.0</course><type>1</type></trkpt>
      <trkpt lat="40.54323237" lon="-5.14415511"><ele>2035</ele><speed>16.46</speed><time>2016-07-01T13:06:06Z</time><pdop>5.0</pdop><geoidheight>54.00</geoidheight><course>97.3</course><type>1</type></trkpt>
      <trkpt lat="40.54322805" lon="-5.14394444"><ele>2032</ele><speed>17.17</speed><time>2016-07-01T13:06:07Z</time><pdop>5.0</pdop><geoidheight>54.00</geoidheight><course>95.1</course><type>1</type></trkpt>
      <trkpt lat="40.54322391" lon="-5.14374458"><ele>2028</ele><speed>17.01</speed><time>2016-07-01T13:06:08Z</time><pdop>5.0</pdop><geoidheight>54.00</geoidheight><course>92.1</course><type>1</type></trkpt>
      <trkpt lat="40.54320817" lon="-5.14354489"><ele>2026</ele><speed>16.41</speed><time>2016-07-01T13:06:09Z</time><pdop>5.0</pdop><geoidheight>54.00</geoidheight><course>92.3</course><type>1</type></trkpt>
      <trkpt lat="40.54320726" lon="-5.14335774"><ele>2025</ele><speed>15.83</speed><time>2016-07-01T13:06:10Z</time><pdop>5.0</pdop><geoidheight>54.00</geoidheight><course>92.7</course><type>1</type></trkpt>
      <trkpt lat="40.54320607" lon="-5.14318423"><ele>2022</ele><speed>15.84</speed><time>2016-07-01T13:06:11Z</time><pdop>5.0</pdop><geoidheight>54.00</geoidheight><course>91.5</course><type>1</type></trkpt>
      <trkpt lat="40.54320506" lon="-5.14300533"><ele>2021</ele><speed>15.68</speed><time>2016-07-01T13:06:12Z</time><pdop>6.0</pdop><geoidheight>54.00</geoidheight><course>91.1</course><type>1</type></trkpt>
      <trkpt lat="40.54321623" lon="-5.14282427"><ele>2018</ele><speed>15.74</speed><time>2016-07-01T13:06:13Z</time><pdop>8.0</pdop><geoidheight>54.00</geoidheight><course>89.0</course><type>1</type></trkpt>
      <trkpt lat="40.54319057" lon="-5.14258449"><ele>2016</ele><speed>17.61</speed><time>2016-07-01T13:06:14Z</time><pdop>11.0</pdop><geoidheight>54.00</geoidheight><course>91.6</course><type>1</type></trkpt>
      <trkpt lat="40.54332121" lon="-5.1421397"><ele>2013</ele><speed>19.07</speed><time>2016-07-01T13:06:16Z</time><pdop>11.0</pdop><geoidheight>54.00</geoidheight><course>80.9</course><type>1</type></trkpt>
      <trkpt lat="40.54342029" lon="-5.1416812"><ele>2009</ele><speed>19.58</speed><time>2016-07-01T13:06:18Z</time><pdop>9.0</pdop><geoidheight>54.00</geoidheight><course>76.8</course><type>1</type></trkpt>
      <trkpt lat="40.54345347" lon="-5.14130608"><ele>2006</ele><speed>17.79</speed><time>2016-07-01T13:06:20Z</time><pdop>12.0</pdop><geoidheight>54.00</geoidheight><course>81.0</course><type>1</type></trkpt>
      <trkpt lat="40.54352465" lon="-5.14091657"><ele>2000</ele><speed>16.02</speed><time>2016-07-01T13:06:22Z</time><pdop>12.0</pdop><geoidheight>54.00</geoidheight><course>80.2</course><type>1</type></trkpt>
      <trkpt lat="40.54355361" lon="-5.14053359"><ele>1995</ele><speed>16.26</speed><time>2016-07-01T13:06:24Z</time><pdop>14.0</pdop><geoidheight>54.00</geoidheight><course>80.9</course><type>1</type></trkpt>
      <trkpt lat="40.54355979" lon="-5.1401213"><ele>1992</ele><speed>17.65</speed><time>2016-07-01T13:06:26Z</time><pdop>14.0</pdop><geoidheight>54.00</geoidheight><course>82.7</course><type>1</type></trkpt>
      <trkpt lat="40.54365413" lon="-5.13965108"><ele>1989</ele><speed>18.06</speed><time>2016-07-01T13:06:28Z</time><pdop>13.0</pdop><geoidheight>54.00</geoidheight><course>82.3</course><type>1</type></trkpt>
      <trkpt lat="40.54369097" lon="-5.13926416"><ele>1986</ele><speed>16.46</speed><time>2016-07-01T13:06:30Z</time><pdop>12.0</pdop><geoidheight>54.00</geoidheight><course>85.0</course><type>1</type></trkpt>
      <trkpt lat="40.54374515" lon="-5.13884992"><ele>1983</ele><speed>17.24</speed><time>2016-07-01T13:06:32Z</time><pdop>13.0</pdop><geoidheight>54.00</geoidheight><course>82.6</course><type>1</type></trkpt>
      <trkpt lat="40.54380983" lon="-5.13845243"><ele>1978</ele><speed>17.54</speed><time>2016-07-01T13:06:34Z</time><pdop>13.0</pdop><geoidheight>54.00</geoidheight><course>77.8</course><type>1</type></trkpt>
      <trkpt lat="40.54382406" lon="-5.13808296"><ele>1976</ele><speed>15.58</speed><time>2016-07-01T13:06:36Z</time><pdop>13.0</pdop><geoidheight>54.00</geoidheight><course>78.4</course><type>1</type></trkpt>
      <trkpt lat="40.54387962" lon="-5.13778008"><ele>1973</ele><speed>14.66</speed><time>2016-07-01T13:06:38Z</time><pdop>13.0</pdop><geoidheight>54.00</geoidheight><course>75.1</course><type>1</type></trkpt>
      <trkpt lat="40.54396958" lon="-5.13739882"><ele>1967</ele><speed>17.15</speed><time>2016-07-01T13:06:40Z</time><pdop>13.0</pdop><geoidheight>54.00</geoidheight><course>77.4</course><type>1</type></trkpt>
      <trkpt lat="40.54405531" lon="-5.13691296"><ele>1963</ele><speed>19.64</speed><time>2016-07-01T13:06:42Z</time><pdop>14.0</pdop><geoidheight>54.00</geoidheight><course>79.4</course><type>1</type></trkpt>
      <trkpt lat="40.54407887" lon="-5.13650623"><ele>1962</ele><speed>17.32</speed><time>2016-07-01T13:06:44Z</time><pdop>11.0</pdop><geoidheight>54.00</geoidheight><course>84.3</course><type>1</type></trkpt>
      <trkpt lat="40.54412231" lon="-5.13613456"><ele>1960</ele><speed>14.90</speed><time>2016-07-01T13:06:46Z</time><pdop>9.0</pdop><geoidheight>54.00</geoidheight><course>82.7</course><type>1</type></trkpt>
      <trkpt lat="40.54416717" lon="-5.13580381"><ele>1959</ele><speed>12.91</speed><time>2016-07-01T13:06:48Z</time><pdop>8.0</pdop><geoidheight>54.00</geoidheight><course>91.6</course><type>1</type></trkpt>
      <trkpt lat="40.54410559" lon="-5.13549646"><ele>1952</ele><speed>13.54</speed><time>2016-07-01T13:06:50Z</time><pdop>7.0</pdop><geoidheight>54.00</geoidheight><course>101.3</course><type>1</type></trkpt>
      <trkpt lat="40.54407289" lon="-5.13533515"><ele>1951</ele><speed>13.98</speed><time>2016-07-01T13:06:51Z</time><pdop>7.0</pdop><geoidheight>54.00</geoidheight><course>103.0</course><type>1</type></trkpt>
      <trkpt lat="40.54399764" lon="-5.13502192"><ele>1948</ele><speed>13.63</speed><time>2016-07-01T13:06:53Z</time><pdop>7.0</pdop><geoidheight>54.00</geoidheight><course>109.0</course><type>1</type></trkpt>
      <trkpt lat="40.54395003" lon="-5.13487818"><ele>1946</ele><speed>13.54</speed><time>2016-07-01T13:06:54Z</time><pdop>6.0</pdop><geoidheight>54.00</geoidheight><course>111.2</course><type>1</type></trkpt>
      <trkpt lat="40.54390027" lon="-5.13472357"><ele>1945</ele><speed>13.92</speed><time>2016-07-01T13:06:55Z</time><pdop>6.0</pdop><geoidheight>54.00</geoidheight><course>109.9</course><type>1</type></trkpt>
      <trkpt lat="40.5438608" lon="-5.13456215"><ele>1944</ele><speed>13.96</speed><time>2016-07-01T13:06:56Z</time><pdop>6.0</pdop><geoidheight>54.00</geoidheight><course>107.3</course><type>1</type></trkpt>
      <trkpt lat="40.54381949" lon="-5.13441371"><ele>1943</ele><speed>13.36</speed><time>2016-07-01T13:06:57Z</time><pdop>6.0</pdop><geoidheight>54.00</geoidheight><course>106.7</course><type>1</type></trkpt>
      <trkpt lat="40.54379513" lon="-5.13426691"><ele>1940</ele><speed>13.30</speed><time>2016-07-01T13:06:58Z</time><pdop>6.0</pdop><geoidheight>54.00</geoidheight><course>105.4</course><type>1</type></trkpt>
      <trkpt lat="40.54376094" lon="-5.13411062"><ele>1938</ele><speed>13.54</speed><time>2016-07-01T13:06:59Z</time><pdop>6.0</pdop><geoidheight>54.00</geoidheight><course>103.6</course><type>1</type></trkpt>
      <trkpt lat="40.5437331" lon="-5.1339528"><ele>1936</ele><speed>13.83</speed><time>2016-07-01T13:07:00Z</time><pdop>5.0</pdop><geoidheight>54.00</geoidheight><course>100.8</course><type>1</type></trkpt>
      <trkpt lat="40.54370458" lon="-5.13379438"><ele>1935</ele><speed>14.16</speed><time>2016-07-01T13:07:01Z</time><pdop>5.0</pdop><geoidheight>54.00</geoidheight><course>100.9</course><type>1</type></trkpt>
      <trkpt lat="40.54368268" lon="-5.13363012"><ele>1934</ele><speed>13.96</speed><time>2016-07-01T13:07:02Z</time><pdop>5.0</pdop><geoidheight>54.00</geoidheight><course>102.2</course><type>1</type></trkpt>
      <trkpt lat="40.54365048" lon="-5.13347438"><ele>1933</ele><speed>13.92</speed><time>2016-07-01T13:07:03Z</time><pdop>5.0</pdop><geoidheight>54.00</geoidheight><course>104.3</course><type>1</type></trkpt>
      <trkpt lat="40.54361864" lon="-5.13332526"><ele>1931</ele><speed>13.91</speed><time>2016-07-01T13:07:04Z</time><pdop>4.0</pdop><geoidheight>54.00</geoidheight><course>104.8</course><type>1</type></trkpt>
      <trkpt lat="40.543585" lon="-5.13316852"><ele>1930</ele><speed>14.20</speed><time>2016-07-01T13:07:05Z</time><pdop>4.0</pdop><geoidheight>54.00</geoidheight><course>104.0</course><type>1</type></trkpt>
      <trkpt lat="40.54355129" lon="-5.13300361"><ele>1929</ele><speed>14.73</speed><time>2016-07-01T13:07:06Z</time><pdop>4.0</pdop><geoidheight>54.00</geoidheight><course>103.0</course><type>1</type></trkpt>
      <trkpt lat="40.54353021" lon="-5.13282521"><ele>1928</ele><speed>14.72</speed><time>2016-07-01T13:07:07Z</time><pdop>4.0</pdop><geoidheight>54.00</geoidheight><course>102.2</course><type>1</type></trkpt>
      <trkpt lat="40.54349753" lon="-5.13266532"><ele>1928</ele><speed>14.37</speed><time>2016-07-01T13:07:08Z</time><pdop>4.0</pdop><geoidheight>54.00</geoidheight><course>101.9</course><type>1</type></trkpt>
      <trkpt lat="40.54346916" lon="-5.13251186"><ele>1927</ele><speed>14.14</speed><time>2016-07-01T13:07:09Z</time><pdop>4.0</pdop><geoidheight>54.00</geoidheight><course>100.9</course><type>1</type></trkpt>
      <trkpt lat="40.5434472" lon="-5.13234688"><ele>1926</ele><speed>13.93</speed><time>2016-07-01T13:07:10Z</time><pdop>4.0</pdop><geoidheight>54.00</geoidheight><course>99.4</course><type>1</type></trkpt>
      <trkpt lat="40.54343522" lon="-5.1321767"><ele>1924</ele><speed>13.93</speed><time>2016-07-01T13:07:11Z</time><pdop>4.0</pdop><geoidheight>54.00</geoidheight><course>97.9</course><type>1</type></trkpt>
      <trkpt lat="40.54341922" lon="-5.1320129"><ele>1923</ele><speed>14.07</speed><time>2016-07-01T13:07:12Z</time><pdop>4.0</pdop><geoidheight>54.00</geoidheight><course>95.8</course><type>1</type></trkpt>
      <trkpt lat="40.543413" lon="-5.1318398"><ele>1921</ele><speed>14.63</speed><time>2016-07-01T13:07:13Z</time><pdop>4.0</pdop><geoidheight>54.00</geoidheight><course>93.7</course><type>1</type></trkpt>
      <trkpt lat="40.54340112" lon="-5.13166141"><ele>1919</ele><speed>14.92</speed><time>2016-07-01T13:07:14Z</time><pdop>5.0</pdop><geoidheight>54.00</geoidheight><course>93.2</course><type>1</type></trkpt>
      <trkpt lat="40.54339174" lon="-5.13148807"><ele>1917</ele><speed>15.44</speed><time>2016-07-01T13:07:15Z</time><pdop>5.0</pdop><geoidheight>54.00</geoidheight><course>93.8</course><type>1</type></trkpt>
      <trkpt lat="40.54336518" lon="-5.13130721"><ele>1916</ele><speed>15.72</speed><time>2016-07-01T13:07:16Z</time><pdop>5.0</pdop><geoidheight>54.00</geoidheight><course>97.4</course><type>1</type></trkpt>
      <trkpt lat="40.5433295" lon="-5.13112572"><ele>1915</ele><speed>15.95</speed><time>2016-07-01T13:07:17Z</time><pdop>5.0</pdop><geoidheight>54.00</geoidheight><course>100.7</course><type>1</type></trkpt>
      <trkpt lat="40.5433095" lon="-5.13094389"><ele>1914</ele><speed>15.86</speed><time>2016-07-01T13:07:18Z</time><pdop>5.0</pdop><geoidheight>54.00</geoidheight><course>99.4</course><type>1</type></trkpt>
      <trkpt lat="40.54328939" lon="-5.13075834"><ele>1913</ele><speed>16.00</speed><time>2016-07-01T13:07:19Z</time><pdop>5.0</pdop><geoidheight>54.00</geoidheight><course>96.6</course><type>1</type></trkpt>
      <trkpt lat="40.5432861" lon="-5.13058427"><ele>1912</ele><speed>15.98</speed><time>2016-07-01T13:07:20Z</time><pdop>5.0</pdop><geoidheight>54.00</geoidheight><course>92.1</course><type>1</type></trkpt>
      <trkpt lat="40.54328496" lon="-5.13040319"><ele>1912</ele><speed>15.23</speed><time>2016-07-01T13:07:21Z</time><pdop>5.0</pdop><geoidheight>54.00</geoidheight><course>89.9</course><type>1</type></trkpt>
      <trkpt lat="40.54329328" lon="-5.13023405"><ele>1913</ele><speed>14.67</speed><time>2016-07-01T13:07:22Z</time><pdop>4.0</pdop><geoidheight>54.00</geoidheight><course>87.0</course><type>1</type></trkpt>
      <trkpt lat="40.54329548" lon="-5.13006204"><ele>1912</ele><speed>14.40</speed><time>2016-07-01T13:07:23Z</time><pdop>5.0</pdop><geoidheight>54.00</geoidheight><course>85.6</course><type>1</type></trkpt>
      <trkpt lat="40.54332132" lon="-5.12988884"><ele>1910</ele><speed>14.49</speed><time>2016-07-01T13:07:24Z</time><pdop>5.0</pdop><geoidheight>54.00</geoidheight><course>82.2</course><type>1</type></trkpt>
      <trkpt lat="40.54335327" lon="-5.12971475"><ele>1909</ele><speed>14.95</speed><time>2016-07-01T13:07:25Z</time><pdop>6.0</pdop><geoidheight>54.00</geoidheight><course>78.7</course><type>1</type></trkpt>
      <trkpt lat="40.54339175" lon="-5.12952426"><ele>1907</ele><speed>15.28</speed><time>2016-07-01T13:07:26Z</time><pdop>6.0</pdop><geoidheight>54.00</geoidheight><course>77.5</course><type>1</type></trkpt>
      <trkpt lat="40.54342111" lon="-5.12935294"><ele>1906</ele><speed>15.60</speed><time>2016-07-01T13:07:27Z</time><pdop>6.0</pdop><geoidheight>54.00</geoidheight><course>76.2</course><type>1</type></trkpt>
      <trkpt lat="40.54346163" lon="-5.12918138"><ele>1905</ele><speed>15.87</speed><time>2016-07-01T13:07:28Z</time><pdop>6.0</pdop><geoidheight>54.00</geoidheight><course>74.5</course><type>1</type></trkpt>
      <trkpt lat="40.54349475" lon="-5.12900466"><ele>1903</ele><speed>16.09</speed><time>2016-07-01T13:07:29Z</time><pdop>5.0</pdop><geoidheight>54.00</geoidheight><course>73.3</course><type>1</type></trkpt>
      <trkpt lat="40.54354273" lon="-5.12881569"><ele>1902</ele><speed>17.01</speed><time>2016-07-01T13:07:30Z</time><pdop>6.0</pdop><geoidheight>54.00</geoidheight><course>72.2</course><type>1</type></trkpt>
      <trkpt lat="40.54359734" lon="-5.1286063"><ele>1899</ele><speed>18.56</speed><time>2016-07-01T13:07:31Z</time><pdop>5.0</pdop><geoidheight>54.00</geoidheight><course>72.4</course><type>1</type></trkpt>
      <trkpt lat="40.54363648" lon="-5.12839198"><ele>1899</ele><speed>19.20</speed><time>2016-07-01T13:07:32Z</time><pdop>6.0</pdop><geoidheight>54.00</geoidheight><course>73.5</course><type>1</type></trkpt>
      <trkpt lat="40.54365551" lon="-5.12816522"><ele>1902</ele><speed>19.51</speed><time>2016-07-01T13:07:33Z</time><pdop>5.0</pdop><geoidheight>54.00</geoidheight><course>80.6</course><type>1</type></trkpt>
      <trkpt lat="40.54367268" lon="-5.1279474"><ele>1907</ele><speed>19.35</speed><time>2016-07-01T13:07:34Z</time><pdop>5.0</pdop><geoidheight>54.00</geoidheight><course>84.3</course><type>1</type></trkpt>
      <trkpt lat="40.54365714" lon="-5.12774135"><ele>1911</ele><speed>18.36</speed><time>2016-07-01T13:07:35Z</time><pdop>4.0</pdop><geoidheight>54.00</geoidheight><course>92.0</course><type>1</type></trkpt>
      <trkpt lat="40.54362562" lon="-5.12754654"><ele>1916</ele><speed>17.34</speed><time>2016-07-01T13:07:36Z</time><pdop>4.0</pdop><geoidheight>54.00</geoidheight><course>103.1</course><type>1</type></trkpt>
      <trkpt lat="40.54355924" lon="-5.12737582"><ele>1918</ele><speed>16.32</speed><time>2016-07-01T13:07:37Z</time><pdop>4.0</pdop><geoidheight>54.00</geoidheight><course>115.3</course><type>1</type></trkpt>
      <trkpt lat="40.54349126" lon="-5.12721843"><ele>1920</ele><speed>15.74</speed><time>2016-07-01T13:07:38Z</time><pdop>4.0</pdop><geoidheight>54.00</geoidheight><course>119.5</course><type>1</type></trkpt>
      <trkpt lat="40.54340193" lon="-5.12709272"><ele>1920</ele><speed>15.01</speed><time>2016-07-01T13:07:39Z</time><pdop>5.0</pdop><geoidheight>54.00</geoidheight><course>127.6</course><type>1</type></trkpt>
      <trkpt lat="40.54330489" lon="-5.12709079"><ele>1920</ele><speed>11.08</speed><time>2016-07-01T13:07:40Z</time><pdop>4.0</pdop><geoidheight>54.00</geoidheight><course>153.7</course><type>1</type></trkpt>
      <trkpt lat="40.54317381" lon="-5.12710285"><ele>1916</ele><speed>7.07</speed><time>2016-07-01T13:07:42Z</time><pdop>4.0</pdop><geoidheight>54.00</geoidheight><course>188.3</course><type>1</type></trkpt>
      <trkpt lat="40.54326835" lon="-5.12719003"><ele>1915</ele><speed>5.28</speed><time>2016-07-01T13:07:44Z</time><pdop>4.0</pdop><geoidheight>54.00</geoidheight><course>326.2</course><type>1</type></trkpt>
      <trkpt lat="40.54337467" lon="-5.12724721"><ele>1915</ele><speed>7.18</speed><time>2016-07-01T13:07:46Z</time><pdop>5.0</pdop><geoidheight>54.00</geoidheight><course>341.3</course><type>1</type></trkpt>
      <trkpt lat="40.54352878" lon="-5.12713355"><ele>1915</ele><speed>8.13</speed><time>2016-07-01T13:07:48Z</time><pdop>11.0</pdop><geoidheight>54.00</geoidheight><course>18.1</course><type>1</type></trkpt>
      <trkpt lat="40.54379013" lon="-5.12669632"><ele>1915</ele><speed>16.78</speed><time>2016-07-01T13:07:50Z</time><pdop>12.0</pdop><geoidheight>54.00</geoidheight><course>49.8</course><type>1</type></trkpt>
      <trkpt lat="40.54391434" lon="-5.12631436"><ele>1918</ele><speed>16.74</speed><time>2016-07-01T13:07:52Z</time><pdop>11.0</pdop><geoidheight>54.00</geoidheight><course>59.9</course><type>1</type></trkpt>
      <trkpt lat="40.54402026" lon="-5.12610367"><ele>1930</ele><speed>7.31</speed><time>2016-07-01T13:07:55Z</time><pdop>10.0</pdop><geoidheight>54.00</geoidheight><course>31.7</course><type>1</type></trkpt>
      <trkpt lat="40.54370313" lon="-5.12564957"><ele>1941</ele><speed>15.71</speed><time>2016-07-01T13:08:04Z</time><pdop>13.0</pdop><geoidheight>54.00</geoidheight><course>123.3</course><type>1</type></trkpt>
      <trkpt lat="40.54358467" lon="-5.12524618"><ele>1946</ele><speed>17.16</speed><time>2016-07-01T13:08:06Z</time><pdop>15.0</pdop><geoidheight>54.00</geoidheight><course>114.4</course><type>1</type></trkpt>
      <trkpt lat="40.54359085" lon="-5.12474462"><ele>1953</ele><speed>18.71</speed><time>2016-07-01T13:08:08Z</time><pdop>16.0</pdop><geoidheight>54.00</geoidheight><course>102.0</course><type>1</type></trkpt>
      <trkpt lat="40.54383266" lon="-5.1243786"><ele>1963</ele><speed>8.55</speed><time>2016-07-01T13:08:12Z</time><pdop>22.0</pdop><geoidheight>54.00</geoidheight><course>64.6</course><type>1</type></trkpt>
      <trkpt lat="40.54351338" lon="-5.12400961"><ele>1985</ele><speed>12.37</speed><time>2016-07-01T13:08:23Z</time><pdop>17.0</pdop><geoidheight>54.00</geoidheight><course>103.9</course><type>1</type></trkpt>
      <trkpt lat="40.54355171" lon="-5.12360027"><ele>1993</ele><speed>13.85</speed><time>2016-07-01T13:08:25Z</time><pdop>16.0</pdop><geoidheight>54.00</geoidheight><course>88.3</course><type>1</type></trkpt>
      <trkpt lat="40.54368428" lon="-5.12324715"><ele>1998</ele><speed>12.12</speed><time>2016-07-01T13:08:27Z</time><pdop>14.0</pdop><geoidheight>54.00</geoidheight><course>64.6</course><type>1</type></trkpt>
      <trkpt lat="40.54395438" lon="-5.12306219"><ele>2010</ele><speed>8.18</speed><time>2016-07-01T13:08:30Z</time><pdop>11.0</pdop><geoidheight>54.00</geoidheight><course>25.2</course><type>1</type></trkpt>
      <trkpt lat="40.54414325" lon="-5.1231796"><ele>2018</ele><speed>4.40</speed><time>2016-07-01T13:08:34Z</time><pdop>9.0</pdop><geoidheight>54.00</geoidheight><course>311.0</course><type>1</type></trkpt>
      <trkpt lat="40.54427866" lon="-5.12329761"><ele>2032</ele><speed>4.30</speed><time>2016-07-01T13:08:37Z</time><pdop>7.0</pdop><geoidheight>54.00</geoidheight><course>330.3</course><type>1</type></trkpt>
      <trkpt lat="40.54416159" lon="-5.12344107"><ele>2045</ele><speed>5.20</speed><time>2016-07-01T13:08:41Z</time><pdop>9.0</pdop><geoidheight>54.00</geoidheight><course>202.2</course><type>1</type></trkpt>
      <trkpt lat="40.54397788" lon="-5.12335927"><ele>2046</ele><speed>7.38</speed><time>2016-07-01T13:08:43Z</time><pdop>10.0</pdop><geoidheight>54.00</geoidheight><course>165.0</course><type>1</type></trkpt>
      <trkpt lat="40.54369638" lon="-5.12307312"><ele>2048</ele><speed>13.36</speed><time>2016-07-01T13:08:45Z</time><pdop>11.0</pdop><geoidheight>54.00</geoidheight><course>141.3</course><type>1</type></trkpt>
      <trkpt lat="40.54357058" lon="-5.12284881"><ele>2051</ele><speed>16.24</speed><time>2016-07-01T13:08:46Z</time><pdop>12.0</pdop><geoidheight>54.00</geoidheight><course>134.6</course><type>1</type></trkpt>
      <trkpt lat="40.54357014" lon="-5.12254937"><ele>2055</ele><speed>17.65</speed><time>2016-07-01T13:08:47Z</time><pdop>12.0</pdop><geoidheight>54.00</geoidheight><course>115.3</course><type>1</type></trkpt>
      <trkpt lat="40.5435957" lon="-5.12211426"><ele>2061</ele><speed>14.96</speed><time>2016-07-01T13:08:49Z</time><pdop>14.0</pdop><geoidheight>54.00</geoidheight><course>104.9</course><type>1</type></trkpt>
      <trkpt lat="40.54374101" lon="-5.1217412"><ele>2068</ele><speed>14.62</speed><time>2016-07-01T13:08:51Z</time><pdop>14.0</pdop><geoidheight>54.00</geoidheight><course>82.3</course><type>1</type></trkpt>
      <trkpt lat="40.54399502" lon="-5.12154"><ele>2073</ele><speed>9.58</speed><time>2016-07-01T13:08:54Z</time><pdop>17.0</pdop><geoidheight>54.00</geoidheight><course>47.1</course><type>1</type></trkpt>
      <trkpt lat="40.54374311" lon="-5.12134588"><ele>2093</ele><speed>11.24</speed><time>2016-07-01T13:09:04Z</time><pdop>9.0</pdop><geoidheight>54.00</geoidheight><course>127.0</course><type>1</type></trkpt>
      <trkpt lat="40.54370159" lon="-5.12093505"><ele>2099</ele><speed>14.06</speed><time>2016-07-01T13:09:06Z</time><pdop>8.0</pdop><geoidheight>54.00</geoidheight><course>98.2</course><type>1</type></trkpt>
      <trkpt lat="40.54372582" lon="-5.12074255"><ele>2103</ele><speed>14.09</speed><time>2016-07-01T13:09:07Z</time><pdop>8.0</pdop><geoidheight>54.00</geoidheight><course>87.4</course><type>1</type></trkpt>
      <trkpt lat="40.54379467" lon="-5.12034702"><ele>2105</ele><speed>14.85</speed><time>2016-07-01T13:09:09Z</time><pdop>11.0</pdop><geoidheight>54.00</geoidheight><course>82.2</course><type>1</type></trkpt>
      <trkpt lat="40.54396641" lon="-5.12012455"><ele>2113</ele><speed>11.47</speed><time>2016-07-01T13:09:11Z</time><pdop>9.0</pdop><geoidheight>54.00</geoidheight><course>65.6</course><type>1</type></trkpt>
      <trkpt lat="40.54416037" lon="-5.12007455"><ele>2121</ele><speed>6.47</speed><time>2016-07-01T13:09:14Z</time><pdop>11.0</pdop><geoidheight>54.00</geoidheight><course>22.7</course><type>1</type></trkpt>
      <trkpt lat="40.54407644" lon="-5.12040875"><ele>2132</ele><speed>6.32</speed><time>2016-07-01T13:09:19Z</time><pdop>10.0</pdop><geoidheight>54.00</geoidheight><course>206.6</course><type>1</type></trkpt>
      <trkpt lat="40.54386932" lon="-5.12045419"><ele>2138</ele><speed>5.95</speed><time>2016-07-01T13:09:22Z</time><pdop>8.0</pdop><geoidheight>54.00</geoidheight><course>168.1</course><type>1</type></trkpt>
      <trkpt lat="40.54358346" lon="-5.12022626"><ele>2138</ele><speed>14.58</speed><time>2016-07-01T13:09:24Z</time><pdop>11.0</pdop><geoidheight>54.00</geoidheight><course>143.4</course><type>1</type></trkpt>
      <trkpt lat="40.54339265" lon="-5.11996676"><ele>2144</ele><speed>15.79</speed><time>2016-07-01T13:09:26Z</time><pdop>11.0</pdop><geoidheight>54.00</geoidheight><course>136.1</course><type>1</type></trkpt>
      <trkpt lat="40.54344917" lon="-5.11958926"><ele>2151</ele><speed>13.20</speed><time>2016-07-01T13:09:28Z</time><pdop>12.0</pdop><geoidheight>54.00</geoidheight><course>95.6</course><type>1</type></trkpt>
      <trkpt lat="40.5435386" lon="-5.11926681"><ele>2159</ele><speed>12.20</speed><time>2016-07-01T13:09:30Z</time><pdop>12.0</pdop><geoidheight>54.00</geoidheight><course>72.9</course><type>1</type></trkpt>
      <trkpt lat="40.54369134" lon="-5.11903963"><ele>2169</ele><speed>10.24</speed><time>2016-07-01T13:09:32Z</time><pdop>13.0</pdop><geoidheight>54.00</geoidheight><course>62.5</course><type>1</type></trkpt>
      <trkpt lat="40.54398786" lon="-5.11895242"><ele>2180</ele><speed>6.97</speed><time>2016-07-01T13:09:36Z</time><pdop>19.0</pdop><geoidheight>54.00</geoidheight><course>21.8</course><type>1</type></trkpt>
      <trkpt lat="40.54355687" lon="-5.11908527"><ele>2197</ele><speed>9.71</speed><time>2016-07-01T13:09:42Z</time><pdop>16.0</pdop><geoidheight>54.00</geoidheight><course>148.1</course><type>1</type></trkpt>
      <trkpt lat="40.54333282" lon="-5.11880098"><ele>2204</ele><speed>14.10</speed><time>2016-07-01T13:09:44Z</time><pdop>13.0</pdop><geoidheight>54.00</geoidheight><course>130.4</course><type>1</type></trkpt>
      <trkpt lat="40.54318775" lon="-5.11846338"><ele>2211</ele><speed>15.97</speed><time>2016-07-01T13:09:46Z</time><pdop>12.0</pdop><geoidheight>54.00</geoidheight><course>119.7</course><type>1</type></trkpt>
      <trkpt lat="40.5431063" lon="-5.11809473"><ele>2218</ele><speed>14.88</speed><time>2016-07-01T13:09:48Z</time><pdop>9.0</pdop><geoidheight>54.00</geoidheight><course>110.1</course><type>1</type></trkpt>
      <trkpt lat="40.54317136" lon="-5.11779609"><ele>2223</ele><speed>11.88</speed><time>2016-07-01T13:09:50Z</time><pdop>9.0</pdop><geoidheight>54.00</geoidheight><course>91.3</course><type>1</type></trkpt>
      <trkpt lat="40.54334946" lon="-5.11761462"><ele>2232</ele><speed>9.44</speed><time>2016-07-01T13:09:52Z</time><pdop>8.0</pdop><geoidheight>54.00</geoidheight><course>50.3</course><type>1</type></trkpt>
      <trkpt lat="40.54355138" lon="-5.1175754"><ele>2240</ele><speed>7.99</speed><time>2016-07-01T13:09:54Z</time><pdop>8.0</pdop><geoidheight>54.00</geoidheight><course>17.7</course><type>1</type></trkpt>
      <trkpt lat="40.54372936" lon="-5.11767614"><ele>2251</ele><speed>5.83</speed><time>2016-07-01T13:09:57Z</time><pdop>7.0</pdop><geoidheight>54.00</geoidheight><course>307.9</course><type>1</type></trkpt>
      <trkpt lat="40.54369571" lon="-5.11784417"><ele>2258</ele><speed>6.19</speed><time>2016-07-01T13:09:59Z</time><pdop>6.0</pdop><geoidheight>54.00</geoidheight><course>256.5</course><type>1</type></trkpt>
      <trkpt lat="40.54350371" lon="-5.11785348"><ele>2266</ele><speed>6.28</speed><time>2016-07-01T13:10:03Z</time><pdop>9.0</pdop><geoidheight>54.00</geoidheight><course>162.9</course><type>1</type></trkpt>
      <trkpt lat="40.54330734" lon="-5.11778592"><ele>2266</ele><speed>12.89</speed><time>2016-07-01T13:10:04Z</time><pdop>7.0</pdop><geoidheight>54.00</geoidheight><course>160.2</course><type>1</type></trkpt>
      <trkpt lat="40.54305417" lon="-5.11763498"><ele>2272</ele><speed>15.49</speed><time>2016-07-01T13:10:06Z</time><pdop>7.0</pdop><geoidheight>54.00</geoidheight><course>152.1</course><type>1</type></trkpt>
      <trkpt lat="40.54293467" lon="-5.11751778"><ele>2273</ele><speed>14.27</speed><time>2016-07-01T13:10:07Z</time><pdop>7.0</pdop><geoidheight>54.00</geoidheight><course>145.9</course><type>1</type></trkpt>
      <trkpt lat="40.54284185" lon="-5.11734793"><ele>2275</ele><speed>15.37</speed><time>2016-07-01T13:10:08Z</time><pdop>7.0</pdop><geoidheight>54.00</geoidheight><course>137.7</course><type>1</type></trkpt>
      <trkpt lat="40.54281349" lon="-5.11713007"><ele>2278</ele><speed>15.83</speed><time>2016-07-01T13:10:09Z</time><pdop>6.0</pdop><geoidheight>54.00</geoidheight><course>118.5</course><type>1</type></trkpt>
      <trkpt lat="40.54277922" lon="-5.11693773"><ele>2281</ele><speed>15.33</speed><time>2016-07-01T13:10:10Z</time><pdop>7.0</pdop><geoidheight>54.00</geoidheight><course>110.7</course><type>1</type></trkpt>
      <trkpt lat="40.54271569" lon="-5.11658623"><ele>2287</ele><speed>14.26</speed><time>2016-07-01T13:10:12Z</time><pdop>10.0</pdop><geoidheight>54.00</geoidheight><course>109.4</course><type>1</type></trkpt>
      <trkpt lat="40.54292517" lon="-5.11629842"><ele>2293</ele><speed>12.50</speed><time>2016-07-01T13:10:14Z</time><pdop>9.0</pdop><geoidheight>54.00</geoidheight><course>70.8</course><type>1</type></trkpt>
      <trkpt lat="40.54304944" lon="-5.1161421"><ele>2305</ele><speed>8.54</speed><time>2016-07-01T13:10:16Z</time><pdop>9.0</pdop><geoidheight>54.00</geoidheight><course>61.5</course><type>1</type></trkpt>
      <trkpt lat="40.54326334" lon="-5.11606643"><ele>2311</ele><speed>9.03</speed><time>2016-07-01T13:10:18Z</time><pdop>9.0</pdop><geoidheight>54.00</geoidheight><course>29.5</course><type>1</type></trkpt>
      <trkpt lat="40.54332425" lon="-5.11636405"><ele>2320</ele><speed>2.60</speed><time>2016-07-01T13:10:23Z</time><pdop>15.0</pdop><geoidheight>54.00</geoidheight><course>290.6</course><type>1</type></trkpt>
      <trkpt lat="40.54299375" lon="-5.11640829"><ele>2326</ele><speed>8.06</speed><time>2016-07-01T13:10:26Z</time><pdop>13.0</pdop><geoidheight>54.00</geoidheight><course>164.6</course><type>1</type></trkpt>
      <trkpt lat="40.5427074" lon="-5.11625484"><ele>2335</ele><speed>13.85</speed><time>2016-07-01T13:10:28Z</time><pdop>10.0</pdop><geoidheight>54.00</geoidheight><course>145.1</course><type>1</type></trkpt>
      <trkpt lat="40.54253574" lon="-5.11598496"><ele>2345</ele><speed>14.88</speed><time>2016-07-01T13:10:30Z</time><pdop>7.0</pdop><geoidheight>54.00</geoidheight><course>120.9</course><type>1</type></trkpt>
      <trkpt lat="40.54247881" lon="-5.11582363"><ele>2348</ele><speed>14.81</speed><time>2016-07-01T13:10:31Z</time><pdop>6.0</pdop><geoidheight>54.00</geoidheight><course>115.5</course><type>1</type></trkpt>
      <trkpt lat="40.54241106" lon="-5.11566231"><ele>2348</ele><speed>15.41</speed><time>2016-07-01T13:10:32Z</time><pdop>6.0</pdop><geoidheight>54.00</geoidheight><course>114.0</course><type>1</type></trkpt>
      <trkpt lat="40.54237923" lon="-5.11549541"><ele>2351</ele><speed>15.10</speed><time>2016-07-01T13:10:33Z</time><pdop>7.0</pdop><geoidheight>54.00</geoidheight><course>109.6</course><type>1</type></trkpt>
      <trkpt lat="40.54234433" lon="-5.11533133"><ele>2353</ele><speed>14.52</speed><time>2016-07-01T13:10:34Z</time><pdop>7.0</pdop><geoidheight>54.00</geoidheight><course>107.1</course><type>1</type></trkpt>
      <trkpt lat="40.54240465" lon="-5.11498885"><ele>2361</ele><speed>13.00</speed><time>2016-07-01T13:10:36Z</time><pdop>6.0</pdop><geoidheight>54.00</geoidheight><course>76.9</course><type>1</type></trkpt>
      <trkpt lat="40.54244835" lon="-5.11483453"><ele>2364</ele><speed>12.69</speed><time>2016-07-01T13:10:37Z</time><pdop>5.0</pdop><geoidheight>54.00</geoidheight><course>68.1</course><type>1</type></trkpt>
      <trkpt lat="40.54251614" lon="-5.11470706"><ele>2367</ele><speed>12.82</speed><time>2016-07-01T13:10:38Z</time><pdop>4.0</pdop><geoidheight>54.00</geoidheight><course>56.4</course><type>1</type></trkpt>
      <trkpt lat="40.54258308" lon="-5.11459468"><ele>2370</ele><speed>12.53</speed><time>2016-07-01T13:10:39Z</time><pdop>4.0</pdop><geoidheight>54.00</geoidheight><course>48.0</course><type>1</type></trkpt>
      <trkpt lat="40.54265892" lon="-5.1144939"><ele>2373</ele><speed>11.96</speed><time>2016-07-01T13:10:40Z</time><pdop>4.0</pdop><geoidheight>54.00</geoidheight><course>44.1</course><type>1</type></trkpt>
      <trkpt lat="40.54273386" lon="-5.11443225"><ele>2375</ele><speed>10.70</speed><time>2016-07-01T13:10:41Z</time><pdop>5.0</pdop><geoidheight>54.00</geoidheight><course>35.9</course><type>1</type></trkpt>
      <trkpt lat="40.5428835" lon="-5.11434952"><ele>2381</ele><speed>8.45</speed><time>2016-07-01T13:10:43Z</time><pdop>7.0</pdop><geoidheight>54.00</geoidheight><course>20.7</course><type>1</type></trkpt>
      <trkpt lat="40.54294998" lon="-5.1145931"><ele>2390</ele><speed>4.78</speed><time>2016-07-01T13:10:49Z</time><pdop>14.0</pdop><geoidheight>54.00</geoidheight><course>262.6</course><type>1</type></trkpt>
      <trkpt lat="40.54258964" lon="-5.11471822"><ele>2397</ele><speed>9.47</speed><time>2016-07-01T13:10:52Z</time><pdop>13.0</pdop><geoidheight>54.00</geoidheight><course>184.0</course><type>1</type></trkpt>
      <trkpt lat="40.54239982" lon="-5.11454512"><ele>2401</ele><speed>12.79</speed><time>2016-07-01T13:10:54Z</time><pdop>12.0</pdop><geoidheight>54.00</geoidheight><course>141.3</course><type>1</type></trkpt>
      <trkpt lat="40.54225491" lon="-5.11417708"><ele>2404</ele><speed>15.31</speed><time>2016-07-01T13:10:56Z</time><pdop>11.0</pdop><geoidheight>54.00</geoidheight><course>120.5</course><type>1</type></trkpt>
      <trkpt lat="40.54221441" lon="-5.11378517"><ele>2409</ele><speed>16.42</speed><time>2016-07-01T13:10:58Z</time><pdop>11.0</pdop><geoidheight>54.00</geoidheight><course>103.9</course><type>1</type></trkpt>
      <trkpt lat="40.54223292" lon="-5.11335055"><ele>2414</ele><speed>16.95</speed><time>2016-07-01T13:11:00Z</time><pdop>12.0</pdop><geoidheight>54.00</geoidheight><course>94.7</course><type>1</type></trkpt>
      <trkpt lat="40.54230924" lon="-5.11306423"><ele>2418</ele><speed>12.54</speed><time>2016-07-01T13:11:02Z</time><pdop>11.0</pdop><geoidheight>54.00</geoidheight><course>81.8</course><type>1</type></trkpt>
      <trkpt lat="40.54250851" lon="-5.11291266"><ele>2423</ele><speed>9.56</speed><time>2016-07-01T13:11:04Z</time><pdop>11.0</pdop><geoidheight>54.00</geoidheight><course>44.0</course><type>1</type></trkpt>
      <trkpt lat="40.54276046" lon="-5.11284979"><ele>2429</ele><speed>8.60</speed><time>2016-07-01T13:11:07Z</time><pdop>12.0</pdop><geoidheight>54.00</geoidheight><course>14.0</course><type>1</type></trkpt>
      <trkpt lat="40.54281148" lon="-5.1131816"><ele>2434</ele><speed>6.38</speed><time>2016-07-01T13:11:10Z</time><pdop>12.0</pdop><geoidheight>54.00</geoidheight><course>299.4</course><type>1</type></trkpt>
      <trkpt lat="40.54256862" lon="-5.11330074"><ele>2440</ele><speed>5.39</speed><time>2016-07-01T13:11:13Z</time><pdop>12.0</pdop><geoidheight>54.00</geoidheight><course>207.3</course><type>1</type></trkpt>
      <trkpt lat="40.54225683" lon="-5.11314158"><ele>2450</ele><speed>12.40</speed><time>2016-07-01T13:11:16Z</time><pdop>11.0</pdop><geoidheight>54.00</geoidheight><course>144.8</course><type>1</type></trkpt>
      <trkpt lat="40.54203098" lon="-5.11290832"><ele>2453</ele><speed>14.66</speed><time>2016-07-01T13:11:18Z</time><pdop>11.0</pdop><geoidheight>54.00</geoidheight><course>137.1</course><type>1</type></trkpt>
      <trkpt lat="40.54189974" lon="-5.11254091"><ele>2463</ele><speed>16.21</speed><time>2016-07-01T13:11:20Z</time><pdop>10.0</pdop><geoidheight>54.00</geoidheight><course>112.0</course><type>1</type></trkpt>
      <trkpt lat="40.54185492" lon="-5.11216049"><ele>2476</ele><speed>14.91</speed><time>2016-07-01T13:11:22Z</time><pdop>10.0</pdop><geoidheight>54.00</geoidheight><course>92.8</course><type>1</type></trkpt>
      <trkpt lat="40.5418663" lon="-5.11185082"><ele>2483</ele><speed>12.18</speed><time>2016-07-01T13:11:24Z</time><pdop>10.0</pdop><geoidheight>54.00</geoidheight><course>87.3</course><type>1</type></trkpt>
      <trkpt lat="40.54194757" lon="-5.11157432"><ele>2486</ele><speed>12.72</speed><time>2016-07-01T13:11:26Z</time><pdop>10.0</pdop><geoidheight>54.00</geoidheight><course>71.5</course><type>1</type></trkpt>
      <trkpt lat="40.54201646" lon="-5.11126323"><ele>2488</ele><speed>13.53</speed><time>2016-07-01T13:11:28Z</time><pdop>10.0</pdop><geoidheight>54.00</geoidheight><course>71.9</course><type>1</type></trkpt>
      <trkpt lat="40.54218209" lon="-5.11106742"><ele>2493</ele><speed>12.08</speed><time>2016-07-01T13:11:30Z</time><pdop>10.0</pdop><geoidheight>54.00</geoidheight><course>50.6</course><type>1</type></trkpt>
      <trkpt lat="40.54236558" lon="-5.11086052"><ele>2496</ele><speed>12.29</speed><time>2016-07-01T13:11:32Z</time><pdop>9.0</pdop><geoidheight>54.00</geoidheight><course>47.3</course><type>1</type></trkpt>
      <trkpt lat="40.54256433" lon="-5.11071199"><ele>2500</ele><speed>11.02</speed><time>2016-07-01T13:11:34Z</time><pdop>9.0</pdop><geoidheight>54.00</geoidheight><course>28.2</course><type>1</type></trkpt>
      <trkpt lat="40.54279504" lon="-5.11070622"><ele>2505</ele><speed>8.48</speed><time>2016-07-01T13:11:37Z</time><pdop>9.0</pdop><geoidheight>54.00</geoidheight><course>354.3</course><type>1</type></trkpt>
      <trkpt lat="40.54296534" lon="-5.11075332"><ele>2512</ele><speed>6.22</speed><time>2016-07-01T13:11:40Z</time><pdop>9.0</pdop><geoidheight>54.00</geoidheight><course>349.4</course><type>1</type></trkpt>
      <trkpt lat="40.54313155" lon="-5.11079452"><ele>2517</ele><speed>6.33</speed><time>2016-07-01T13:11:43Z</time><pdop>9.0</pdop><geoidheight>54.00</geoidheight><course>347.8</course><type>1</type></trkpt>
      <trkpt lat="40.54331599" lon="-5.11084128"><ele>2520</ele><speed>7.23</speed><time>2016-07-01T13:11:46Z</time><pdop>10.0</pdop><geoidheight>54.00</geoidheight><course>347.3</course><type>1</type></trkpt>
      <trkpt lat="40.54348556" lon="-5.11102284"><ele>2524</ele><speed>6.00</speed><time>2016-07-01T13:11:49Z</time><pdop>9.0</pdop><geoidheight>54.00</geoidheight><course>318.0</course><type>1</type></trkpt>
      <trkpt lat="40.54344943" lon="-5.11125661"><ele>2529</ele><speed>7.20</speed><time>2016-07-01T13:11:52Z</time><pdop>9.0</pdop><geoidheight>54.00</geoidheight><course>246.2</course><type>1</type></trkpt>
      <trkpt lat="40.54326556" lon="-5.11139004"><ele>2532</ele><speed>7.63</speed><time>2016-07-01T13:11:55Z</time><pdop>9.0</pdop><geoidheight>54.00</geoidheight><course>203.0</course><type>1</type></trkpt>
      <trkpt lat="40.54307613" lon="-5.1114438"><ele>2538</ele><speed>9.80</speed><time>2016-07-01T13:11:57Z</time><pdop>9.0</pdop><geoidheight>54.00</geoidheight><course>188.1</course><type>1</type></trkpt>
      <trkpt lat="40.54288602" lon="-5.11150865"><ele>2543</ele><speed>7.67</speed><time>2016-07-01T13:12:00Z</time><pdop>11.0</pdop><geoidheight>54.00</geoidheight><course>200.2</course><type>1</type></trkpt>
      <trkpt lat="40.54302955" lon="-5.11170039"><ele>2548</ele><speed>4.37</speed><time>2016-07-01T13:12:05Z</time><pdop>10.0</pdop><geoidheight>54.00</geoidheight><course>331.7</course><type>1</type></trkpt>
      <trkpt lat="40.54325544" lon="-5.11130097"><ele>2550</ele><speed>13.41</speed><time>2016-07-01T13:12:08Z</time><pdop>10.0</pdop><geoidheight>54.00</geoidheight><course>55.8</course><type>1</type></trkpt>
      <trkpt lat="40.5433937" lon="-5.11102557"><ele>2382</ele><speed>14.22</speed><time>2016-07-01T13:12:10Z</time><pdop>11.0</pdop><geoidheight>54.00</geoidheight><course>58.4</course><type>1</type></trkpt>
      <trkpt lat="40.54341091" lon="-5.11059378"><ele>2493</ele><speed>16.79</speed><time>2016-07-01T13:12:12Z</time><pdop>10.0</pdop><geoidheight>54.00</geoidheight><course>81.8</course><type>1</type></trkpt>
      <trkpt lat="40.54333722" lon="-5.11028189"><ele>2528</ele><speed>14.03</speed><time>2016-07-01T13:12:14Z</time><pdop>5.0</pdop><geoidheight>54.00</geoidheight><course>102.1</course><type>1</type></trkpt>
      <trkpt lat="40.54330557" lon="-5.11012333"><ele>2533</ele><speed>13.72</speed><time>2016-07-01T13:12:15Z</time><pdop>6.0</pdop><geoidheight>54.00</geoidheight><course>106.0</course><type>1</type></trkpt>
      <trkpt lat="40.54312084" lon="-5.11008208"><ele>2547</ele><speed>9.15</speed><time>2016-07-01T13:12:17Z</time><pdop>7.0</pdop><geoidheight>54.00</geoidheight><course>144.2</course><type>1</type></trkpt>
      <trkpt lat="40.54289754" lon="-5.11005102"><ele>2555</ele><speed>10.67</speed><time>2016-07-01T13:12:19Z</time><pdop>6.0</pdop><geoidheight>54.00</geoidheight><course>164.4</course><type>1</type></trkpt>
      <trkpt lat="40.54281436" lon="-5.1101807"><ele>2560</ele><speed>5.57</speed><time>2016-07-01T13:12:22Z</time><pdop>7.0</pdop><geoidheight>54.00</geoidheight><course>198.2</course><type>1</type></trkpt>
      <trkpt lat="40.54301205" lon="-5.11023784"><ele>2564</ele><speed>4.74</speed><time>2016-07-01T13:12:24Z</time><pdop>7.0</pdop><geoidheight>54.00</geoidheight><course>339.2</course><type>1</type></trkpt>
      <trkpt lat="40.54316226" lon="-5.11014504"><ele>2568</ele><speed>6.11</speed><time>2016-07-01T13:12:26Z</time><pdop>9.0</pdop><geoidheight>54.00</geoidheight><course>19.6</course><type>1</type></trkpt>
      <trkpt lat="40.54328032" lon="-5.10996143"><ele>2572</ele><speed>11.21</speed><time>2016-07-01T13:12:27Z</time><pdop>9.0</pdop><geoidheight>54.00</geoidheight><course>45.8</course><type>1</type></trkpt>
      <trkpt lat="40.5433702" lon="-5.10981848"><ele>2577</ele><speed>12.96</speed><time>2016-07-01T13:12:28Z</time><pdop>6.0</pdop><geoidheight>54.00</geoidheight><course>54.4</course><type>1</type></trkpt>
      <trkpt lat="40.54344682" lon="-5.1096741"><ele>2580</ele><speed>13.28</speed><time>2016-07-01T13:12:29Z</time><pdop>6.0</pdop><geoidheight>54.00</geoidheight><course>56.3</course><type>1</type></trkpt>
      <trkpt lat="40.54347131" lon="-5.10951207"><ele>2582</ele><speed>13.77</speed><time>2016-07-01T13:12:30Z</time><pdop>7.0</pdop><geoidheight>54.00</geoidheight><course>61.8</course><type>1</type></trkpt>
      <trkpt lat="40.54347242" lon="-5.10920064"><ele>2589</ele><speed>14.18</speed><time>2016-07-01T13:12:32Z</time><pdop>7.0</pdop><geoidheight>54.00</geoidheight><course>90.0</course><type>1</type></trkpt>
      <trkpt lat="40.54340765" lon="-5.1089247"><ele>2596</ele><speed>13.89</speed><time>2016-07-01T13:12:34Z</time><pdop>5.0</pdop><geoidheight>54.00</geoidheight><course>123.6</course><type>1</type></trkpt>
      <trkpt lat="40.54332441" lon="-5.10883426"><ele>2599</ele><speed>12.93</speed><time>2016-07-01T13:12:35Z</time><pdop>5.0</pdop><geoidheight>54.00</geoidheight><course>136.9</course><type>1</type></trkpt>
      <trkpt lat="40.54324674" lon="-5.10873953"><ele>2600</ele><speed>12.76</speed><time>2016-07-01T13:12:36Z</time><pdop>5.0</pdop><geoidheight>54.00</geoidheight><course>142.3</course><type>1</type></trkpt>
      <trkpt lat="40.54307727" lon="-5.10865773"><ele>2601</ele><speed>11.61</speed><time>2016-07-01T13:12:38Z</time><pdop>7.0</pdop><geoidheight>54.00</geoidheight><course>157.0</course><type>1</type></trkpt>
      <trkpt lat="40.54299116" lon="-5.1089152"><ele>2603</ele><speed>9.42</speed><time>2016-07-01T13:12:40Z</time><pdop>7.0</pdop><geoidheight>54.00</geoidheight><course>217.0</course><type>1</type></trkpt>
      <trkpt lat="40.54305194" lon="-5.10905442"><ele>2606</ele><speed>8.00</speed><time>2016-07-01T13:12:41Z</time><pdop>6.0</pdop><geoidheight>54.00</geoidheight><course>246.5</course><type>1</type></trkpt>
      <trkpt lat="40.54311827" lon="-5.10921714"><ele>2608</ele><speed>7.02</speed><time>2016-07-01T13:12:43Z</time><pdop>8.0</pdop><geoidheight>54.00</geoidheight><course>276.5</course><type>1</type></trkpt>
      <trkpt lat="40.54323762" lon="-5.1090823"><ele>2607</ele><speed>2.61</speed><time>2016-07-01T13:12:45Z</time><pdop>8.0</pdop><geoidheight>54.00</geoidheight><course>353.0</course><type>1</type></trkpt>
      <trkpt lat="40.5433605" lon="-5.10886581"><ele>2610</ele><speed>6.69</speed><time>2016-07-01T13:12:47Z</time><pdop>12.0</pdop><geoidheight>54.00</geoidheight><course>52.9</course><type>1</type></trkpt>
      <trkpt lat="40.5435805" lon="-5.10871649"><ele>2614</ele><speed>12.17</speed><time>2016-07-01T13:12:48Z</time><pdop>10.0</pdop><geoidheight>54.00</geoidheight><course>47.2</course><type>1</type></trkpt>
      <trkpt lat="40.543711" lon="-5.10842534"><ele>2618</ele><speed>12.33</speed><time>2016-07-01T13:12:50Z</time><pdop>7.0</pdop><geoidheight>54.00</geoidheight><course>59.1</course><type>1</type></trkpt>
      <trkpt lat="40.54370817" lon="-5.10810702"><ele>2618</ele><speed>12.45</speed><time>2016-07-01T13:12:52Z</time><pdop>10.0</pdop><geoidheight>54.00</geoidheight><course>75.3</course><type>1</type></trkpt>
      <trkpt lat="40.54352853" lon="-5.10789133"><ele>2622</ele><speed>10.52</speed><time>2016-07-01T13:12:54Z</time><pdop>9.0</pdop><geoidheight>54.00</geoidheight><course>106.2</course><type>1</type></trkpt>
      <trkpt lat="40.54330433" lon="-5.10771573"><ele>2634</ele><speed>10.89</speed><time>2016-07-01T13:12:56Z</time><pdop>11.0</pdop><geoidheight>54.00</geoidheight><course>128.5</course><type>1</type></trkpt>
      <trkpt lat="40.54309339" lon="-5.10789243"><ele>2633</ele><speed>9.50</speed><time>2016-07-01T13:12:58Z</time><pdop>8.0</pdop><geoidheight>54.00</geoidheight><course>188.4</course><type>1</type></trkpt>
      <trkpt lat="40.54333672" lon="-5.10753803"><ele>2650</ele><speed>13.61</speed><time>2016-07-01T13:13:08Z</time><pdop>9.0</pdop><geoidheight>54.00</geoidheight><course>73.2</course><type>1</type></trkpt>
      <trkpt lat="40.54341251" lon="-5.10724189"><ele>2654</ele><speed>12.93</speed><time>2016-07-01T13:13:10Z</time><pdop>9.0</pdop><geoidheight>54.00</geoidheight><course>82.5</course><type>1</type></trkpt>
      <trkpt lat="40.54347492" lon="-5.10696405"><ele>2657</ele><speed>11.96</speed><time>2016-07-01T13:13:12Z</time><pdop>8.0</pdop><geoidheight>54.00</geoidheight><course>93.8</course><type>1</type></trkpt>
      <trkpt lat="40.54337005" lon="-5.10674795"><ele>2661</ele><speed>12.26</speed><time>2016-07-01T13:13:14Z</time><pdop>6.0</pdop><geoidheight>54.00</geoidheight><course>126.7</course><type>1</type></trkpt>
      <trkpt lat="40.54331212" lon="-5.10662959"><ele>2663</ele><speed>12.53</speed><time>2016-07-01T13:13:15Z</time><pdop>5.0</pdop><geoidheight>54.00</geoidheight><course>127.3</course><type>1</type></trkpt>
      <trkpt lat="40.54325743" lon="-5.10651161"><ele>2664</ele><speed>12.71</speed><time>2016-07-01T13:13:16Z</time><pdop>5.0</pdop><geoidheight>54.00</geoidheight><course>130.6</course><type>1</type></trkpt>
      <trkpt lat="40.54320247" lon="-5.10640422"><ele>2666</ele><speed>12.10</speed><time>2016-07-01T13:13:17Z</time><pdop>5.0</pdop><geoidheight>54.00</geoidheight><course>134.5</course><type>1</type></trkpt>
      <trkpt lat="40.54302263" lon="-5.10631351"><ele>2670</ele><speed>10.90</speed><time>2016-07-01T13:13:19Z</time><pdop>5.0</pdop><geoidheight>54.00</geoidheight><course>160.3</course><type>1</type></trkpt>
      <trkpt lat="40.542926" lon="-5.10632271"><ele>2669</ele><speed>10.28</speed><time>2016-07-01T13:13:20Z</time><pdop>5.0</pdop><geoidheight>54.00</geoidheight><course>173.3</course><type>1</type></trkpt>
      <trkpt lat="40.54277003" lon="-5.10633063"><ele>2670</ele><speed>9.47</speed><time>2016-07-01T13:13:22Z</time><pdop>5.0</pdop><geoidheight>54.00</geoidheight><course>181.7</course><type>1</type></trkpt>
      <trkpt lat="40.54260604" lon="-5.10638369"><ele>2671</ele><speed>9.40</speed><time>2016-07-01T13:13:24Z</time><pdop>6.0</pdop><geoidheight>54.00</geoidheight><course>189.5</course><type>1</type></trkpt>
      <trkpt lat="40.54261783" lon="-5.10662014"><ele>2673</ele><speed>6.12</speed><time>2016-07-01T13:13:27Z</time><pdop>7.0</pdop><geoidheight>54.00</geoidheight><course>250.4</course><type>1</type></trkpt>
      <trkpt lat="40.54272535" lon="-5.10678053"><ele>2676</ele><speed>5.17</speed><time>2016-07-01T13:13:30Z</time><pdop>9.0</pdop><geoidheight>54.00</geoidheight><course>306.3</course><type>1</type></trkpt>
      <trkpt lat="40.5429253" lon="-5.10659056"><ele>2677</ele><speed>7.34</speed><time>2016-07-01T13:13:33Z</time><pdop>11.0</pdop><geoidheight>54.00</geoidheight><course>32.9</course><type>1</type></trkpt>
      <trkpt lat="40.54303146" lon="-5.10635349"><ele>2680</ele><speed>8.98</speed><time>2016-07-01T13:13:35Z</time><pdop>10.0</pdop><geoidheight>54.00</geoidheight><course>58.9</course><type>1</type></trkpt>
      <trkpt lat="40.54306745" lon="-5.10602461"><ele>2680</ele><speed>11.22</speed><time>2016-07-01T13:13:37Z</time><pdop>11.0</pdop><geoidheight>54.00</geoidheight><course>90.2</course><type>1</type></trkpt>
      <trkpt lat="40.54294195" lon="-5.10569143"><ele>2684</ele><speed>9.88</speed><time>2016-07-01T13:13:40Z</time><pdop>13.0</pdop><geoidheight>54.00</geoidheight><course>115.0</course><type>1</type></trkpt>
      <trkpt lat="40.54267736" lon="-5.10552594"><ele>2686</ele><speed>12.63</speed><time>2016-07-01T13:13:42Z</time><pdop>11.0</pdop><geoidheight>54.00</geoidheight><course>145.1</course><type>1</type></trkpt>
      <trkpt lat="40.54254383" lon="-5.10572678"><ele>2692</ele><speed>6.78</speed><time>2016-07-01T13:13:45Z</time><pdop>9.0</pdop><geoidheight>54.00</geoidheight><course>194.4</course><type>1</type></trkpt>
      <trkpt lat="40.5426434" lon="-5.10593603"><ele>2694</ele><speed>3.08</speed><time>2016-07-01T13:13:49Z</time><pdop>11.0</pdop><geoidheight>54.00</geoidheight><course>281.8</course><type>1</type></trkpt>
      <trkpt lat="40.54284201" lon="-5.1056723"><ele>2696</ele><speed>6.51</speed><time>2016-07-01T13:13:52Z</time><pdop>11.0</pdop><geoidheight>54.00</geoidheight><course>53.8</course><type>1</type></trkpt>
      <trkpt lat="40.54306099" lon="-5.10527851"><ele>2703</ele><speed>14.69</speed><time>2016-07-01T13:13:54Z</time><pdop>10.0</pdop><geoidheight>54.00</geoidheight><course>70.5</course><type>1</type></trkpt>
      <trkpt lat="40.54308543" lon="-5.10494231"><ele>2706</ele><speed>14.09</speed><time>2016-07-01T13:13:56Z</time><pdop>7.0</pdop><geoidheight>54.00</geoidheight><course>84.7</course><type>1</type></trkpt>
      <trkpt lat="40.54312029" lon="-5.1047788"><ele>2708</ele><speed>13.81</speed><time>2016-07-01T13:13:57Z</time><pdop>6.0</pdop><geoidheight>54.00</geoidheight><course>87.4</course><type>1</type></trkpt>
      <trkpt lat="40.54310195" lon="-5.1046227"><ele>2709</ele><speed>13.71</speed><time>2016-07-01T13:13:58Z</time><pdop>6.0</pdop><geoidheight>54.00</geoidheight><course>96.3</course><type>1</type></trkpt>
      <trkpt lat="40.54301417" lon="-5.10453421"><ele>2710</ele><speed>11.98</speed><time>2016-07-01T13:13:59Z</time><pdop>5.0</pdop><geoidheight>54.00</geoidheight><course>122.8</course><type>1</type></trkpt>
      <trkpt lat="40.5429373" lon="-5.10446048"><ele>2710</ele><speed>11.30</speed><time>2016-07-01T13:14:00Z</time><pdop>5.0</pdop><geoidheight>54.00</geoidheight><course>140.7</course><type>1</type></trkpt>
      <trkpt lat="40.54286298" lon="-5.10439021"><ele>2710</ele><speed>10.40</speed><time>2016-07-01T13:14:01Z</time><pdop>5.0</pdop><geoidheight>54.00</geoidheight><course>148.7</course><type>1</type></trkpt>
      <trkpt lat="40.54276863" lon="-5.10434188"><ele>2711</ele><speed>10.70</speed><time>2016-07-01T13:14:02Z</time><pdop>5.0</pdop><geoidheight>54.00</geoidheight><course>153.8</course><type>1</type></trkpt>
      <trkpt lat="40.5426195" lon="-5.10437889"><ele>2711</ele><speed>8.30</speed><time>2016-07-01T13:14:04Z</time><pdop>6.0</pdop><geoidheight>54.00</geoidheight><course>175.9</course><type>1</type></trkpt>
      <trkpt lat="40.54263959" lon="-5.1045433"><ele>2712</ele><speed>7.26</speed><time>2016-07-01T13:14:05Z</time><pdop>5.0</pdop><geoidheight>54.00</geoidheight><course>236.7</course><type>1</type></trkpt>
      <trkpt lat="40.54257942" lon="-5.10468758"><ele>2714</ele><speed>6.12</speed><time>2016-07-01T13:14:07Z</time><pdop>4.0</pdop><geoidheight>54.00</geoidheight><course>245.6</course><type>1</type></trkpt>
      <trkpt lat="40.54269467" lon="-5.10481908"><ele>2717</ele><speed>6.76</speed><time>2016-07-01T13:14:09Z</time><pdop>5.0</pdop><geoidheight>54.00</geoidheight><course>309.0</course><type>1</type></trkpt>
      <trkpt lat="40.54280215" lon="-5.10485079"><ele>2718</ele><speed>8.21</speed><time>2016-07-01T13:14:10Z</time><pdop>6.0</pdop><geoidheight>54.00</geoidheight><course>330.3</course><type>1</type></trkpt>
      <trkpt lat="40.54295077" lon="-5.10475224"><ele>2720</ele><speed>8.06</speed><time>2016-07-01T13:14:12Z</time><pdop>5.0</pdop><geoidheight>54.00</geoidheight><course>11.5</course><type>1</type></trkpt>
      <trkpt lat="40.54306364" lon="-5.10473728"><ele>2722</ele><speed>9.09</speed><time>2016-07-01T13:14:13Z</time><pdop>6.0</pdop><geoidheight>54.00</geoidheight><course>14.1</course><type>1</type></trkpt>
      <trkpt lat="40.54321604" lon="-5.10454604"><ele>2723</ele><speed>10.40</speed><time>2016-07-01T13:14:15Z</time><pdop>7.0</pdop><geoidheight>54.00</geoidheight><course>35.9</course><type>1</type></trkpt>
      <trkpt lat="40.54325896" lon="-5.10430674"><ele>2726</ele><speed>14.28</speed><time>2016-07-01T13:14:16Z</time><pdop>6.0</pdop><geoidheight>54.00</geoidheight><course>59.1</course><type>1</type></trkpt>
      <trkpt lat="40.54321582" lon="-5.1041469"><ele>2728</ele><speed>13.21</speed><time>2016-07-01T13:14:17Z</time><pdop>5.0</pdop><geoidheight>54.00</geoidheight><course>77.4</course><type>1</type></trkpt>
      <trkpt lat="40.54324874" lon="-5.10398776"><ele>2729</ele><speed>13.24</speed><time>2016-07-01T13:14:18Z</time><pdop>5.0</pdop><geoidheight>54.00</geoidheight><course>81.3</course><type>1</type></trkpt>
      <trkpt lat="40.54326074" lon="-5.10384133"><ele>2731</ele><speed>12.69</speed><time>2016-07-01T13:14:19Z</time><pdop>5.0</pdop><geoidheight>54.00</geoidheight><course>86.4</course><type>1</type></trkpt>
      <trkpt lat="40.54318857" lon="-5.1037129"><ele>2732</ele><speed>12.44</speed><time>2016-07-01T13:14:20Z</time><pdop>4.0</pdop><geoidheight>54.00</geoidheight><course>111.6</course><type>1</type></trkpt>
      <trkpt lat="40.54315071" lon="-5.1035759"><ele>2732</ele><speed>12.64</speed><time>2016-07-01T13:14:21Z</time><pdop>4.0</pdop><geoidheight>54.00</geoidheight><course>114.3</course><type>1</type></trkpt>
      <trkpt lat="40.54305866" lon="-5.10347287"><ele>2734</ele><speed>12.71</speed><time>2016-07-01T13:14:22Z</time><pdop>3.0</pdop><geoidheight>54.00</geoidheight><course>130.0</course><type>1</type></trkpt>
      <trkpt lat="40.54297513" lon="-5.10342152"><ele>2735</ele><speed>11.83</speed><time>2016-07-01T13:14:23Z</time><pdop>3.0</pdop><geoidheight>54.00</geoidheight><course>143.8</course><type>1</type></trkpt>
      <trkpt lat="40.54288237" lon="-5.10335193"><ele>2735</ele><speed>11.55</speed><time>2016-07-01T13:14:24Z</time><pdop>3.0</pdop><geoidheight>54.00</geoidheight><course>146.4</course><type>1</type></trkpt>
      <trkpt lat="40.54279452" lon="-5.10332943"><ele>2736</ele><speed>10.10</speed><time>2016-07-01T13:14:25Z</time><pdop>3.0</pdop><geoidheight>54.00</geoidheight><course>160.2</course><type>1</type></trkpt>
      <trkpt lat="40.54270573" lon="-5.10331397"><ele>2736</ele><speed>9.55</speed><time>2016-07-01T13:14:26Z</time><pdop>3.0</pdop><geoidheight>54.00</geoidheight><course>168.7</course><type>1</type></trkpt>
      <trkpt lat="40.54262363" lon="-5.10331734"><ele>2737</ele><speed>9.52</speed><time>2016-07-01T13:14:27Z</time><pdop>3.0</pdop><geoidheight>54.00</geoidheight><course>176.7</course><type>1</type></trkpt>
      <trkpt lat="40.54253003" lon="-5.10333284"><ele>2738</ele><speed>9.82</speed><time>2016-07-01T13:14:28Z</time><pdop>4.0</pdop><geoidheight>54.00</geoidheight><course>181.5</course><type>1</type></trkpt>
      <trkpt lat="40.54245453" lon="-5.10334726"><ele>2740</ele><speed>9.76</speed><time>2016-07-01T13:14:29Z</time><pdop>4.0</pdop><geoidheight>54.00</geoidheight><course>188.0</course><type>1</type></trkpt>
      <trkpt lat="40.54237335" lon="-5.10336796"><ele>2743</ele><speed>9.70</speed><time>2016-07-01T13:14:30Z</time><pdop>4.0</pdop><geoidheight>54.00</geoidheight><course>189.6</course><type>1</type></trkpt>
      <trkpt lat="40.54227655" lon="-5.10339492"><ele>2742</ele><speed>10.16</speed><time>2016-07-01T13:14:31Z</time><pdop>4.0</pdop><geoidheight>54.00</geoidheight><course>192.5</course><type>1</type></trkpt>
      <trkpt lat="40.54216883" lon="-5.10341515"><ele>2743</ele><speed>10.81</speed><time>2016-07-01T13:14:32Z</time><pdop>5.0</pdop><geoidheight>54.00</geoidheight><course>192.4</course><type>1</type></trkpt>
      <trkpt lat="40.54206578" lon="-5.10349556"><ele>2744</ele><speed>8.52</speed><time>2016-07-01T13:14:34Z</time><pdop>5.0</pdop><geoidheight>54.00</geoidheight><course>199.8</course><type>1</type></trkpt>
      <trkpt lat="40.54194804" lon="-5.10358281"><ele>2747</ele><speed>7.99</speed><time>2016-07-01T13:14:36Z</time><pdop>7.0</pdop><geoidheight>54.00</geoidheight><course>208.0</course><type>1</type></trkpt>
      <trkpt lat="40.54183271" lon="-5.10376704"><ele>2747</ele><speed>7.67</speed><time>2016-07-01T13:14:39Z</time><pdop>7.0</pdop><geoidheight>54.00</geoidheight><course>226.9</course><type>1</type></trkpt>
      <trkpt lat="40.54194683" lon="-5.10393903"><ele>2749</ele><speed>7.18</speed><time>2016-07-01T13:14:41Z</time><pdop>6.0</pdop><geoidheight>54.00</geoidheight><course>292.6</course><type>1</type></trkpt>
      <trkpt lat="40.54210314" lon="-5.10384212"><ele>2749</ele><speed>4.55</speed><time>2016-07-01T13:14:44Z</time><pdop>8.0</pdop><geoidheight>54.00</geoidheight><course>15.6</course><type>1</type></trkpt>
      <trkpt lat="40.54223144" lon="-5.10354693"><ele>2750</ele><speed>9.80</speed><time>2016-07-01T13:14:46Z</time><pdop>9.0</pdop><geoidheight>54.00</geoidheight><course>53.9</course><type>1</type></trkpt>
      <trkpt lat="40.54226491" lon="-5.10330371"><ele>2752</ele><speed>9.16</speed><time>2016-07-01T13:14:48Z</time><pdop>6.0</pdop><geoidheight>54.00</geoidheight><course>68.6</course><type>1</type></trkpt>
      <trkpt lat="40.54231356" lon="-5.1031416"><ele>2754</ele><speed>11.51</speed><time>2016-07-01T13:14:49Z</time><pdop>5.0</pdop><geoidheight>54.00</geoidheight><course>72.0</course><type>1</type></trkpt>
      <trkpt lat="40.54238097" lon="-5.10298924"><ele>2756</ele><speed>12.23</speed><time>2016-07-01T13:14:50Z</time><pdop>6.0</pdop><geoidheight>54.00</geoidheight><course>67.4</course><type>1</type></trkpt>
      <trkpt lat="40.54243889" lon="-5.10282822"><ele>2758</ele><speed>12.91</speed><time>2016-07-01T13:14:51Z</time><pdop>6.0</pdop><geoidheight>54.00</geoidheight><course>68.4</course><type>1</type></trkpt>
      <trkpt lat="40.54250791" lon="-5.10266832"><ele>2759</ele><speed>13.38</speed><time>2016-07-01T13:14:52Z</time><pdop>6.0</pdop><geoidheight>54.00</geoidheight><course>69.1</course><type>1</type></trkpt>
      <trkpt lat="40.54255788" lon="-5.10249563"><ele>2762</ele><speed>13.16</speed><time>2016-07-01T13:14:53Z</time><pdop>5.0</pdop><geoidheight>54.00</geoidheight><course>76.0</course><type>1</type></trkpt>
      <trkpt lat="40.54259251" lon="-5.10233324"><ele>2763</ele><speed>13.35</speed><time>2016-07-01T13:14:54Z</time><pdop>5.0</pdop><geoidheight>54.00</geoidheight><course>76.6</course><type>1</type></trkpt>
      <trkpt lat="40.54263323" lon="-5.10216318"><ele>2764</ele><speed>13.44</speed><time>2016-07-01T13:14:55Z</time><pdop>5.0</pdop><geoidheight>54.00</geoidheight><course>75.4</course><type>1</type></trkpt>
      <trkpt lat="40.54276317" lon="-5.10193277"><ele>2633</ele><speed>11.69</speed><time>2016-07-01T13:14:57Z</time><pdop>9.0</pdop><geoidheight>54.00</geoidheight><course>54.0</course><type>1</type></trkpt>
      <trkpt lat="40.54296183" lon="-5.10176705"><ele>2687</ele><speed>11.87</speed><time>2016-07-01T13:14:59Z</time><pdop>10.0</pdop><geoidheight>54.00</geoidheight><course>33.5</course><type>1</type></trkpt>
      <trkpt lat="40.54311476" lon="-5.10175179"><ele>2720</ele><speed>8.11</speed><time>2016-07-01T13:15:01Z</time><pdop>7.0</pdop><geoidheight>54.00</geoidheight><course>14.0</course><type>1</type></trkpt>
      <trkpt lat="40.54324633" lon="-5.10200411"><ele>2736</ele><speed>6.72</speed><time>2016-07-01T13:15:04Z</time><pdop>8.0</pdop><geoidheight>54.00</geoidheight><course>315.3</course><type>1</type></trkpt>
      <trkpt lat="40.54323117" lon="-5.10223109"><ele>2748</ele><speed>6.53</speed><time>2016-07-01T13:15:06Z</time><pdop>7.0</pdop><geoidheight>54.00</geoidheight><course>270.0</course><type>1</type></trkpt>
      <trkpt lat="40.54316769" lon="-5.10242243"><ele>2752</ele><speed>6.57</speed><time>2016-07-01T13:15:08Z</time><pdop>7.0</pdop><geoidheight>54.00</geoidheight><course>246.1</course><type>1</type></trkpt>
      <trkpt lat="40.54290425" lon="-5.10249094"><ele>2765</ele><speed>11.09</speed><time>2016-07-01T13:15:10Z</time><pdop>5.0</pdop><geoidheight>54.00</geoidheight><course>192.4</course><type>1</type></trkpt>
      <trkpt lat="40.54272564" lon="-5.10244818"><ele>2773</ele><speed>9.55</speed><time>2016-07-01T13:15:12Z</time><pdop>4.0</pdop><geoidheight>54.00</geoidheight><course>165.3</course><type>1</type></trkpt>
      <trkpt lat="40.54263995" lon="-5.10239682"><ele>2776</ele><speed>10.19</speed><time>2016-07-01T13:15:13Z</time><pdop>4.0</pdop><geoidheight>54.00</geoidheight><course>156.1</course><type>1</type></trkpt>
      <trkpt lat="40.54255922" lon="-5.10232462"><ele>2778</ele><speed>11.32</speed><time>2016-07-01T13:15:14Z</time><pdop>4.0</pdop><geoidheight>54.00</geoidheight><course>150.1</course><type>1</type></trkpt>
      <trkpt lat="40.5424578" lon="-5.10222922"><ele>2784</ele><speed>13.97</speed><time>2016-07-01T13:15:15Z</time><pdop>3.0</pdop><geoidheight>54.00</geoidheight><course>146.3</course><type>1</type></trkpt>
      <trkpt lat="40.54235094" lon="-5.10216167"><ele>2788</ele><speed>13.89</speed><time>2016-07-01T13:15:16Z</time><pdop>3.0</pdop><geoidheight>54.00</geoidheight><course>152.0</course><type>1</type></trkpt>
      <trkpt lat="40.54225267" lon="-5.10211747"><ele>2794</ele><speed>12.48</speed><time>2016-07-01T13:15:17Z</time><pdop>3.0</pdop><geoidheight>54.00</geoidheight><course>159.7</course><type>1</type></trkpt>
      <trkpt lat="40.5421627" lon="-5.10209708"><ele>2796</ele><speed>11.35</speed><time>2016-07-01T13:15:18Z</time><pdop>4.0</pdop><geoidheight>54.00</geoidheight><course>164.6</course><type>1</type></trkpt>
      <trkpt lat="40.54202101" lon="-5.10215571"><ele>2797</ele><speed>8.66</speed><time>2016-07-01T13:15:20Z</time><pdop>5.0</pdop><geoidheight>54.00</geoidheight><course>188.5</course><type>1</type></trkpt>
      <trkpt lat="40.54199524" lon="-5.10231785"><ele>2795</ele><speed>9.08</speed><time>2016-07-01T13:15:21Z</time><pdop>6.0</pdop><geoidheight>54.00</geoidheight><course>222.6</course><type>1</type></trkpt>
      <trkpt lat="40.54200689" lon="-5.10249982"><ele>2800</ele><speed>5.83</speed><time>2016-07-01T13:15:23Z</time><pdop>5.0</pdop><geoidheight>54.00</geoidheight><course>240.7</course><type>1</type></trkpt>
      <trkpt lat="40.54218482" lon="-5.10243352"><ele>2800</ele><speed>4.35</speed><time>2016-07-01T13:15:26Z</time><pdop>8.0</pdop><geoidheight>54.00</geoidheight><course>32.1</course><type>1</type></trkpt>
      <trkpt lat="40.54232458" lon="-5.10220607"><ele>2799</ele><speed>8.46</speed><time>2016-07-01T13:15:28Z</time><pdop>11.0</pdop><geoidheight>54.00</geoidheight><course>50.5</course><type>1</type></trkpt>
      <trkpt lat="40.54236977" lon="-5.10179389"><ele>2806</ele><speed>13.76</speed><time>2016-07-01T13:15:30Z</time><pdop>6.0</pdop><geoidheight>54.00</geoidheight><course>84.8</course><type>1</type></trkpt>
      <trkpt lat="40.54240452" lon="-5.10162257"><ele>2810</ele><speed>13.52</speed><time>2016-07-01T13:15:31Z</time><pdop>5.0</pdop><geoidheight>54.00</geoidheight><course>86.1</course><type>1</type></trkpt>
      <trkpt lat="40.54241653" lon="-5.10146097"><ele>2811</ele><speed>13.06</speed><time>2016-07-01T13:15:32Z</time><pdop>4.0</pdop><geoidheight>54.00</geoidheight><course>87.5</course><type>1</type></trkpt>
      <trkpt lat="40.54242488" lon="-5.10130671"><ele>2813</ele><speed>12.62</speed><time>2016-07-01T13:15:33Z</time><pdop>4.0</pdop><geoidheight>54.00</geoidheight><course>91.8</course><type>1</type></trkpt>
      <trkpt lat="40.5424061" lon="-5.10116148"><ele>2816</ele><speed>12.31</speed><time>2016-07-01T13:15:34Z</time><pdop>4.0</pdop><geoidheight>54.00</geoidheight><course>102.1</course><type>1</type></trkpt>
      <trkpt lat="40.54236071" lon="-5.10103621"><ele>2817</ele><speed>12.56</speed><time>2016-07-01T13:15:35Z</time><pdop>4.0</pdop><geoidheight>54.00</geoidheight><course>112.8</course><type>1</type></trkpt>
      <trkpt lat="40.54229638" lon="-5.10091866"><ele>2819</ele><speed>12.83</speed><time>2016-07-01T13:15:36Z</time><pdop>4.0</pdop><geoidheight>54.00</geoidheight><course>125.9</course><type>1</type></trkpt>
      <trkpt lat="40.54221458" lon="-5.10081814"><ele>2820</ele><speed>13.30</speed><time>2016-07-01T13:15:37Z</time><pdop>5.0</pdop><geoidheight>54.00</geoidheight><course>136.6</course><type>1</type></trkpt>
      <trkpt lat="40.54210035" lon="-5.10078526"><ele>2820</ele><speed>13.20</speed><time>2016-07-01T13:15:38Z</time><pdop>4.0</pdop><geoidheight>54.00</geoidheight><course>156.7</course><type>1</type></trkpt>
      <trkpt lat="40.54198936" lon="-5.10077144"><ele>2822</ele><speed>12.72</speed><time>2016-07-01T13:15:39Z</time><pdop>4.0</pdop><geoidheight>54.00</geoidheight><course>169.8</course><type>1</type></trkpt>
      <trkpt lat="40.54188577" lon="-5.10079769"><ele>2822</ele><speed>12.08</speed><time>2016-07-01T13:15:40Z</time><pdop>4.0</pdop><geoidheight>54.00</geoidheight><course>189.2</course><type>1</type></trkpt>
      <trkpt lat="40.54181087" lon="-5.10086721"><ele>2826</ele><speed>11.55</speed><time>2016-07-01T13:15:41Z</time><pdop>4.0</pdop><geoidheight>54.00</geoidheight><course>208.0</course><type>1</type></trkpt>
      <trkpt lat="40.54173178" lon="-5.10094578"><ele>2826</ele><speed>11.30</speed><time>2016-07-01T13:15:42Z</time><pdop>4.0</pdop><geoidheight>54.00</geoidheight><course>215.3</course><type>1</type></trkpt>
      <trkpt lat="40.54166209" lon="-5.10103438"><ele>2827</ele><speed>11.42</speed><time>2016-07-01T13:15:43Z</time><pdop>5.0</pdop><geoidheight>54.00</geoidheight><course>221.0</course><type>1</type></trkpt>
      <trkpt lat="40.54167002" lon="-5.10124077"><ele>2829</ele><speed>8.93</speed><time>2016-07-01T13:15:45Z</time><pdop>8.0</pdop><geoidheight>54.00</geoidheight><course>251.0</course><type>1</type></trkpt>
      <trkpt lat="40.54187645" lon="-5.10114628"><ele>2831</ele><speed>4.89</speed><time>2016-07-01T13:15:48Z</time><pdop>9.0</pdop><geoidheight>54.00</geoidheight><course>35.3</course><type>1</type></trkpt>
      <trkpt lat="40.5420284" lon="-5.10087245"><ele>2834</ele><speed>7.57</speed><time>2016-07-01T13:15:51Z</time><pdop>11.0</pdop><geoidheight>54.00</geoidheight><course>68.4</course><type>1</type></trkpt>
      <trkpt lat="40.54210546" lon="-5.10051757"><ele>2839</ele><speed>12.39</speed><time>2016-07-01T13:15:53Z</time><pdop>9.0</pdop><geoidheight>54.00</geoidheight><course>86.2</course><type>1</type></trkpt>
      <trkpt lat="40.5420678" lon="-5.10020685"><ele>2845</ele><speed>12.92</speed><time>2016-07-01T13:15:55Z</time><pdop>7.0</pdop><geoidheight>54.00</geoidheight><course>101.8</course><type>1</type></trkpt>
      <trkpt lat="40.54199179" lon="-5.0999728"><ele>2849</ele><speed>11.12</speed><time>2016-07-01T13:15:57Z</time><pdop>5.0</pdop><geoidheight>54.00</geoidheight><course>126.9</course><type>1</type></trkpt>
      <trkpt lat="40.54192723" lon="-5.0998844"><ele>2849</ele><speed>10.54</speed><time>2016-07-01T13:15:58Z</time><pdop>5.0</pdop><geoidheight>54.00</geoidheight><course>133.5</course><type>1</type></trkpt>
      <trkpt lat="40.54184623" lon="-5.09980426"><ele>2850</ele><speed>11.17</speed><time>2016-07-01T13:15:59Z</time><pdop>5.0</pdop><geoidheight>54.00</geoidheight><course>144.2</course><type>1</type></trkpt>
      <trkpt lat="40.5417364" lon="-5.09977077"><ele>2850</ele><speed>11.08</speed><time>2016-07-01T13:16:00Z</time><pdop>6.0</pdop><geoidheight>54.00</geoidheight><course>151.8</course><type>1</type></trkpt>
      <trkpt lat="40.54154844" lon="-5.09981435"><ele>2853</ele><speed>10.31</speed><time>2016-07-01T13:16:02Z</time><pdop>6.0</pdop><geoidheight>54.00</geoidheight><course>177.6</course><type>1</type></trkpt>
      <trkpt lat="40.54146275" lon="-5.09997572"><ele>2857</ele><speed>5.92</speed><time>2016-07-01T13:16:05Z</time><pdop>6.0</pdop><geoidheight>54.00</geoidheight><course>215.0</course><type>1</type></trkpt>
      <trkpt lat="40.54163647" lon="-5.10006947"><ele>2860</ele><speed>4.97</speed><time>2016-07-01T13:16:07Z</time><pdop>6.0</pdop><geoidheight>54.00</geoidheight><course>321.9</course><type>1</type></trkpt>
      <trkpt lat="40.54177306" lon="-5.10002935"><ele>2862</ele><speed>6.15</speed><time>2016-07-01T13:16:09Z</time><pdop>7.0</pdop><geoidheight>54.00</geoidheight><course>25.1</course><type>1</type></trkpt>
      <trkpt lat="40.54198975" lon="-5.09984734"><ele>2870</ele><speed>12.45</speed><time>2016-07-01T13:16:11Z</time><pdop>6.0</pdop><geoidheight>54.00</geoidheight><course>43.8</course><type>1</type></trkpt>
      <trkpt lat="40.54207062" lon="-5.0997389"><ele>2872</ele><speed>13.01</speed><time>2016-07-01T13:16:12Z</time><pdop>6.0</pdop><geoidheight>54.00</geoidheight><course>47.1</course><type>1</type></trkpt>
      <trkpt lat="40.54218966" lon="-5.09960979"><ele>2874</ele><speed>14.36</speed><time>2016-07-01T13:16:13Z</time><pdop>6.0</pdop><geoidheight>54.00</geoidheight><course>50.2</course><type>1</type></trkpt>
      <trkpt lat="40.54226126" lon="-5.09947809"><ele>2872</ele><speed>13.99</speed><time>2016-07-01T13:16:14Z</time><pdop>6.0</pdop><geoidheight>54.00</geoidheight><course>63.0</course><type>1</type></trkpt>
      <trkpt lat="40.54227925" lon="-5.09932985"><ele>2878</ele><speed>13.35</speed><time>2016-07-01T13:16:15Z</time><pdop>4.0</pdop><geoidheight>54.00</geoidheight><course>76.2</course><type>1</type></trkpt>
      <trkpt lat="40.54231327" lon="-5.09917459"><ele>2881</ele><speed>13.32</speed><time>2016-07-01T13:16:16Z</time><pdop>4.0</pdop><geoidheight>54.00</geoidheight><course>81.9</course><type>1</type></trkpt>
      <trkpt lat="40.54226525" lon="-5.09904176"><ele>2885</ele><speed>12.55</speed><time>2016-07-01T13:16:17Z</time><pdop>4.0</pdop><geoidheight>54.00</geoidheight><course>106.0</course><type>1</type></trkpt>
      <trkpt lat="40.54222108" lon="-5.09890848"><ele>2887</ele><speed>12.51</speed><time>2016-07-01T13:16:18Z</time><pdop>4.0</pdop><geoidheight>54.00</geoidheight><course>110.9</course><type>1</type></trkpt>
      <trkpt lat="40.54214985" lon="-5.09876172"><ele>2888</ele><speed>13.52</speed><time>2016-07-01T13:16:19Z</time><pdop>5.0</pdop><geoidheight>54.00</geoidheight><course>118.5</course><type>1</type></trkpt>
      <trkpt lat="40.54205325" lon="-5.09874516"><ele>2887</ele><speed>10.37</speed><time>2016-07-01T13:16:20Z</time><pdop>4.0</pdop><geoidheight>54.00</geoidheight><course>137.7</course><type>1</type></trkpt>
      <trkpt lat="40.54196321" lon="-5.09871951"><ele>2889</ele><speed>10.13</speed><time>2016-07-01T13:16:21Z</time><pdop>5.0</pdop><geoidheight>54.00</geoidheight><course>154.9</course><type>1</type></trkpt>
      <trkpt lat="40.5418613" lon="-5.09877464"><ele>2890</ele><speed>10.30</speed><time>2016-07-01T13:16:22Z</time><pdop>5.0</pdop><geoidheight>54.00</geoidheight><course>178.0</course><type>1</type></trkpt>
      <trkpt lat="40.54179112" lon="-5.09884903"><ele>2891</ele><speed>10.18</speed><time>2016-07-01T13:16:23Z</time><pdop>5.0</pdop><geoidheight>54.00</geoidheight><course>200.3</course><type>1</type></trkpt>
      <trkpt lat="40.54173035" lon="-5.09899556"><ele>2894</ele><speed>7.76</speed><time>2016-07-01T13:16:25Z</time><pdop>6.0</pdop><geoidheight>54.00</geoidheight><course>225.3</course><type>1</type></trkpt>
      <trkpt lat="40.54177963" lon="-5.09917908"><ele>2898</ele><speed>7.09</speed><time>2016-07-01T13:16:27Z</time><pdop>9.0</pdop><geoidheight>54.00</geoidheight><course>265.3</course><type>1</type></trkpt>
      <trkpt lat="40.54210806" lon="-5.09893761"><ele>2908</ele><speed>7.28</speed><time>2016-07-01T13:16:32Z</time><pdop>18.0</pdop><geoidheight>54.00</geoidheight><course>48.9</course><type>1</type></trkpt>
      <trkpt lat="40.54233156" lon="-5.09849797"><ele>2888</ele><speed>12.01</speed><time>2016-07-01T13:16:35Z</time><pdop>11.0</pdop><geoidheight>54.00</geoidheight><course>82.6</course><type>1</type></trkpt>
      <trkpt lat="40.54239174" lon="-5.09823431"><ele>2907</ele><speed>11.68</speed><time>2016-07-01T13:16:37Z</time><pdop>8.0</pdop><geoidheight>54.00</geoidheight><course>106.6</course><type>1</type></trkpt>
      <trkpt lat="40.54230801" lon="-5.09800525"><ele>2921</ele><speed>11.91</speed><time>2016-07-01T13:16:39Z</time><pdop>6.0</pdop><geoidheight>54.00</geoidheight><course>124.1</course><type>1</type></trkpt>
      <trkpt lat="40.54218106" lon="-5.09792395"><ele>2930</ele><speed>10.18</speed><time>2016-07-01T13:16:41Z</time><pdop>6.0</pdop><geoidheight>54.00</geoidheight><course>154.7</course><type>1</type></trkpt>
      <trkpt lat="40.54202464" lon="-5.09785176"><ele>2943</ele><speed>10.41</speed><time>2016-07-01T13:16:43Z</time><pdop>7.0</pdop><geoidheight>54.00</geoidheight><course>163.2</course><type>1</type></trkpt>
      <trkpt lat="40.54192579" lon="-5.09801402"><ele>2946</ele><speed>9.35</speed><time>2016-07-01T13:16:45Z</time><pdop>6.0</pdop><geoidheight>54.00</geoidheight><course>211.1</course><type>1</type></trkpt>
      <trkpt lat="40.54179248" lon="-5.09819876"><ele>2950</ele><speed>10.78</speed><time>2016-07-01T13:16:47Z</time><pdop>7.0</pdop><geoidheight>54.00</geoidheight><course>223.2</course><type>1</type></trkpt>
      <trkpt lat="40.5418462" lon="-5.09839532"><ele>2955</ele><speed>8.34</speed><time>2016-07-01T13:16:49Z</time><pdop>7.0</pdop><geoidheight>54.00</geoidheight><course>258.6</course><type>1</type></trkpt>
      <trkpt lat="40.54207317" lon="-5.0983409"><ele>2962</ele><speed>3.75</speed><time>2016-07-01T13:16:53Z</time><pdop>11.0</pdop><geoidheight>54.00</geoidheight><course>29.2</course><type>1</type></trkpt>
      <trkpt lat="40.54228357" lon="-5.09803599"><ele>2966</ele><speed>10.99</speed><time>2016-07-01T13:16:55Z</time><pdop>12.0</pdop><geoidheight>54.00</geoidheight><course>62.5</course><type>1</type></trkpt>
      <trkpt lat="40.54229256" lon="-5.09774169"><ele>2978</ele><speed>10.85</speed><time>2016-07-01T13:16:57Z</time><pdop>7.0</pdop><geoidheight>54.00</geoidheight><course>100.8</course><type>1</type></trkpt>
      <trkpt lat="40.5422542" lon="-5.09748937"><ele>2983</ele><speed>11.19</speed><time>2016-07-01T13:16:59Z</time><pdop>6.0</pdop><geoidheight>54.00</geoidheight><course>122.7</course><type>1</type></trkpt>
      <trkpt lat="40.54210575" lon="-5.09731835"><ele>2987</ele><speed>11.81</speed><time>2016-07-01T13:17:01Z</time><pdop>6.0</pdop><geoidheight>54.00</geoidheight><course>143.1</course><type>1</type></trkpt>
      <trkpt lat="40.54194738" lon="-5.09721162"><ele>2990</ele><speed>9.76</speed><time>2016-07-01T13:17:03Z</time><pdop>7.0</pdop><geoidheight>54.00</geoidheight><course>148.5</course><type>1</type></trkpt>
      <trkpt lat="40.54181772" lon="-5.09735828"><ele>2991</ele><speed>11.15</speed><time>2016-07-01T13:17:04Z</time><pdop>6.0</pdop><geoidheight>54.00</geoidheight><course>192.7</course><type>1</type></trkpt>
      <trkpt lat="40.54167518" lon="-5.097452"><ele>2996</ele><speed>10.58</speed><time>2016-07-01T13:17:06Z</time><pdop>7.0</pdop><geoidheight>54.00</geoidheight><course>209.4</course><type>1</type></trkpt>
      <trkpt lat="40.54156351" lon="-5.09760191"><ele>2998</ele><speed>9.76</speed><time>2016-07-01T13:17:08Z</time><pdop>7.0</pdop><geoidheight>54.00</geoidheight><course>222.5</course><type>1</type></trkpt>
      <trkpt lat="40.54170532" lon="-5.09784697"><ele>3002</ele><speed>9.41</speed><time>2016-07-01T13:17:10Z</time><pdop>6.0</pdop><geoidheight>54.00</geoidheight><course>283.5</course><type>1</type></trkpt>
      <trkpt lat="40.54182291" lon="-5.09803968"><ele>3008</ele><speed>9.14</speed><time>2016-07-01T13:17:12Z</time><pdop>5.0</pdop><geoidheight>54.00</geoidheight><course>302.2</course><type>1</type></trkpt>
      <trkpt lat="40.54200994" lon="-5.09809825"><ele>3013</ele><speed>9.39</speed><time>2016-07-01T13:17:14Z</time><pdop>7.0</pdop><geoidheight>54.00</geoidheight><course>336.0</course><type>1</type></trkpt>
      <trkpt lat="40.54212284" lon="-5.09805644"><ele>3015</ele><speed>10.40</speed><time>2016-07-01T13:17:15Z</time><pdop>6.0</pdop><geoidheight>54.00</geoidheight><course>352.9</course><type>1</type></trkpt>
      <trkpt lat="40.54229123" lon="-5.09794673"><ele>3020</ele><speed>9.98</speed><time>2016-07-01T13:17:17Z</time><pdop>7.0</pdop><geoidheight>54.00</geoidheight><course>15.0</course><type>1</type></trkpt>
      <trkpt lat="40.54230659" lon="-5.09773086"><ele>3025</ele><speed>12.72</speed><time>2016-07-01T13:17:18Z</time><pdop>5.0</pdop><geoidheight>54.00</geoidheight><course>64.7</course><type>1</type></trkpt>
      <trkpt lat="40.54236997" lon="-5.09758764"><ele>3027</ele><speed>13.18</speed><time>2016-07-01T13:17:19Z</time><pdop>5.0</pdop><geoidheight>54.00</geoidheight><course>69.3</course><type>1</type></trkpt>
      <trkpt lat="40.54234018" lon="-5.09743453"><ele>3030</ele><speed>12.88</speed><time>2016-07-01T13:17:20Z</time><pdop>4.0</pdop><geoidheight>54.00</geoidheight><course>94.8</course><type>1</type></trkpt>
      <trkpt lat="40.54228884" lon="-5.09728895"><ele>3034</ele><speed>12.77</speed><time>2016-07-01T13:17:21Z</time><pdop>4.0</pdop><geoidheight>54.00</geoidheight><course>109.2</course><type>1</type></trkpt>
      <trkpt lat="40.54223712" lon="-5.09717812"><ele>3036</ele><speed>12.03</speed><time>2016-07-01T13:17:22Z</time><pdop>4.0</pdop><geoidheight>54.00</geoidheight><course>123.3</course><type>1</type></trkpt>
      <trkpt lat="40.54216016" lon="-5.09709984"><ele>3038</ele><speed>10.88</speed><time>2016-07-01T13:17:23Z</time><pdop>4.0</pdop><geoidheight>54.00</geoidheight><course>135.9</course><type>1</type></trkpt>
      <trkpt lat="40.54209266" lon="-5.09704419"><ele>3040</ele><speed>9.58</speed><time>2016-07-01T13:17:24Z</time><pdop>4.0</pdop><geoidheight>54.00</geoidheight><course>151.1</course><type>1</type></trkpt>
      <trkpt lat="40.54201611" lon="-5.09705716"><ele>3041</ele><speed>9.40</speed><time>2016-07-01T13:17:25Z</time><pdop>4.0</pdop><geoidheight>54.00</geoidheight><course>177.4</course><type>1</type></trkpt>
      <trkpt lat="40.54193011" lon="-5.0970689"><ele>3040</ele><speed>9.49</speed><time>2016-07-01T13:17:26Z</time><pdop>5.0</pdop><geoidheight>54.00</geoidheight><course>182.3</course><type>1</type></trkpt>
      <trkpt lat="40.54182133" lon="-5.09723657"><ele>3042</ele><speed>9.57</speed><time>2016-07-01T13:17:28Z</time><pdop>7.0</pdop><geoidheight>54.00</geoidheight><course>213.4</course><type>1</type></trkpt>
      <trkpt lat="40.54198451" lon="-5.09744303"><ele>3047</ele><speed>8.76</speed><time>2016-07-01T13:17:30Z</time><pdop>5.0</pdop><geoidheight>54.00</geoidheight><course>308.4</course><type>1</type></trkpt>
      <trkpt lat="40.54212832" lon="-5.09758615"><ele>3049</ele><speed>9.88</speed><time>2016-07-01T13:17:32Z</time><pdop>6.0</pdop><geoidheight>54.00</geoidheight><course>321.8</course><type>1</type></trkpt>
      <trkpt lat="40.54232322" lon="-5.09757759"><ele>3052</ele><speed>8.90</speed><time>2016-07-01T13:17:34Z</time><pdop>6.0</pdop><geoidheight>54.00</geoidheight><course>353.5</course><type>1</type></trkpt>
      <trkpt lat="40.5424375" lon="-5.09744489"><ele>3054</ele><speed>11.33</speed><time>2016-07-01T13:17:35Z</time><pdop>6.0</pdop><geoidheight>54.00</geoidheight><course>22.5</course><type>1</type></trkpt>
      <trkpt lat="40.54250734" lon="-5.09724803"><ele>3058</ele><speed>9.21</speed><time>2016-07-01T13:17:37Z</time><pdop>6.0</pdop><geoidheight>54.00</geoidheight><course>53.4</course><type>1</type></trkpt>
      <trkpt lat="40.54246856" lon="-5.09709665"><ele>3060</ele><speed>10.46</speed><time>2016-07-01T13:17:38Z</time><pdop>5.0</pdop><geoidheight>54.00</geoidheight><course>95.3</course><type>1</type></trkpt>
      <trkpt lat="40.54244908" lon="-5.09697243"><ele>3063</ele><speed>10.65</speed><time>2016-07-01T13:17:39Z</time><pdop>4.0</pdop><geoidheight>54.00</geoidheight><course>109.6</course><type>1</type></trkpt>
      <trkpt lat="40.54241546" lon="-5.09684726"><ele>3063</ele><speed>10.78</speed><time>2016-07-01T13:17:40Z</time><pdop>4.0</pdop><geoidheight>54.00</geoidheight><course>114.4</course><type>1</type></trkpt>
      <trkpt lat="40.54229715" lon="-5.09678251"><ele>3065</ele><speed>8.05</speed><time>2016-07-01T13:17:42Z</time><pdop>5.0</pdop><geoidheight>54.00</geoidheight><course>151.1</course><type>1</type></trkpt>
      <trkpt lat="40.54221712" lon="-5.09688795"><ele>3065</ele><speed>7.78</speed><time>2016-07-01T13:17:43Z</time><pdop>4.0</pdop><geoidheight>54.00</geoidheight><course>199.4</course><type>1</type></trkpt>
      <trkpt lat="40.5421499" lon="-5.0969218"><ele>3067</ele><speed>8.08</speed><time>2016-07-01T13:17:44Z</time><pdop>4.0</pdop><geoidheight>54.00</geoidheight><course>204.3</course><type>1</type></trkpt>
      <trkpt lat="40.54204425" lon="-5.09705701"><ele>3073</ele><speed>9.56</speed><time>2016-07-01T13:17:46Z</time><pdop>4.0</pdop><geoidheight>54.00</geoidheight><course>234.7</course><type>1</type></trkpt>
      <trkpt lat="40.54199104" lon="-5.09716763"><ele>3074</ele><speed>10.51</speed><time>2016-07-01T13:17:47Z</time><pdop>4.0</pdop><geoidheight>54.00</geoidheight><course>236.4</course><type>1</type></trkpt>
      <trkpt lat="40.54194094" lon="-5.09726777"><ele>3075</ele><speed>10.32</speed><time>2016-07-01T13:17:48Z</time><pdop>4.0</pdop><geoidheight>54.00</geoidheight><course>235.0</course><type>1</type></trkpt>
      <trkpt lat="40.54193279" lon="-5.0974276"><ele>3082</ele><speed>7.36</speed><time>2016-07-01T13:17:50Z</time><pdop>4.0</pdop><geoidheight>54.00</geoidheight><course>256.2</course><type>1</type></trkpt>
      <trkpt lat="40.54192646" lon="-5.09761026"><ele>3087</ele><speed>7.76</speed><time>2016-07-01T13:17:52Z</time><pdop>4.0</pdop><geoidheight>54.00</geoidheight><course>263.1</course><type>1</type></trkpt>
      <trkpt lat="40.54192364" lon="-5.09770588"><ele>3088</ele><speed>7.95</speed><time>2016-07-01T13:17:53Z</time><pdop>4.0</pdop><geoidheight>54.00</geoidheight><course>258.1</course><type>1</type></trkpt>
      <trkpt lat="40.54188965" lon="-5.09779597"><ele>3090</ele><speed>7.98</speed><time>2016-07-01T13:17:54Z</time><pdop>4.0</pdop><geoidheight>54.00</geoidheight><course>252.3</course><type>1</type></trkpt>
      <trkpt lat="40.54190222" lon="-5.09789027"><ele>3090</ele><speed>7.61</speed><time>2016-07-01T13:17:55Z</time><pdop>4.0</pdop><geoidheight>54.00</geoidheight><course>262.8</course><type>1</type></trkpt>
      <trkpt lat="40.54193715" lon="-5.09797359"><ele>3092</ele><speed>7.87</speed><time>2016-07-01T13:17:56Z</time><pdop>3.0</pdop><geoidheight>54.00</geoidheight><course>285.0</course><type>1</type></trkpt>
      <trkpt lat="40.54197321" lon="-5.09805242"><ele>3093</ele><speed>7.72</speed><time>2016-07-01T13:17:57Z</time><pdop>3.0</pdop><geoidheight>54.00</geoidheight><course>294.5</course><type>1</type></trkpt>
      <trkpt lat="40.54201109" lon="-5.09812219"><ele>3094</ele><speed>7.54</speed><time>2016-07-01T13:17:58Z</time><pdop>3.0</pdop><geoidheight>54.00</geoidheight><course>301.0</course><type>1</type></trkpt>
      <trkpt lat="40.54205703" lon="-5.09819391"><ele>3095</ele><speed>7.80</speed><time>2016-07-01T13:17:59Z</time><pdop>3.0</pdop><geoidheight>54.00</geoidheight><course>310.6</course><type>1</type></trkpt>
      <trkpt lat="40.54211348" lon="-5.09826475"><ele>3096</ele><speed>8.20</speed><time>2016-07-01T13:18:00Z</time><pdop>4.0</pdop><geoidheight>54.00</geoidheight><course>314.9</course><type>1</type></trkpt>
      <trkpt lat="40.54221009" lon="-5.09827153"><ele>3094</ele><speed>9.73</speed><time>2016-07-01T13:18:01Z</time><pdop>3.0</pdop><geoidheight>54.00</geoidheight><course>342.8</course><type>1</type></trkpt>
      <trkpt lat="40.54230632" lon="-5.09829273"><ele>3096</ele><speed>10.29</speed><time>2016-07-01T13:18:02Z</time><pdop>3.0</pdop><geoidheight>54.00</geoidheight><course>353.9</course><type>1</type></trkpt>
      <trkpt lat="40.54238809" lon="-5.09822894"><ele>3095</ele><speed>10.58</speed><time>2016-07-01T13:18:03Z</time><pdop>3.0</pdop><geoidheight>54.00</geoidheight><course>18.7</course><type>1</type></trkpt>
      <trkpt lat="40.54247386" lon="-5.09813209"><ele>3094</ele><speed>11.53</speed><time>2016-07-01T13:18:04Z</time><pdop>3.0</pdop><geoidheight>54.00</geoidheight><course>36.9</course><type>1</type></trkpt>
      <trkpt lat="40.5425347" lon="-5.09801335"><ele>3093</ele><speed>12.62</speed><time>2016-07-01T13:18:05Z</time><pdop>3.0</pdop><geoidheight>54.00</geoidheight><course>52.6</course><type>1</type></trkpt>
      <trkpt lat="40.54258967" lon="-5.09786912"><ele>3094</ele><speed>13.26</speed><time>2016-07-01T13:18:06Z</time><pdop>3.0</pdop><geoidheight>54.00</geoidheight><course>61.7</course><type>1</type></trkpt>
      <trkpt lat="40.54262514" lon="-5.09773071"><ele>3094</ele><speed>13.18</speed><time>2016-07-01T13:18:07Z</time><pdop>3.0</pdop><geoidheight>54.00</geoidheight><course>69.8</course><type>1</type></trkpt>
      <trkpt lat="40.54264459" lon="-5.09758323"><ele>3094</ele><speed>12.91</speed><time>2016-07-01T13:18:08Z</time><pdop>3.0</pdop><geoidheight>54.00</geoidheight><course>76.8</course><type>1</type></trkpt>
      <trkpt lat="40.54265782" lon="-5.09743522"><ele>3095</ele><speed>12.44</speed><time>2016-07-01T13:18:09Z</time><pdop>3.0</pdop><geoidheight>54.00</geoidheight><course>82.6</course><type>1</type></trkpt>
      <trkpt lat="40.54266809" lon="-5.09729378"><ele>3096</ele><speed>12.32</speed><time>2016-07-01T13:18:10Z</time><pdop>3.0</pdop><geoidheight>54.00</geoidheight><course>84.3</course><type>1</type></trkpt>
      <trkpt lat="40.54269025" lon="-5.09714347"><ele>3095</ele><speed>12.74</speed><time>2016-07-01T13:18:11Z</time><pdop>3.0</pdop><geoidheight>54.00</geoidheight><course>82.0</course><type>1</type></trkpt>
      <trkpt lat="40.54270989" lon="-5.09698946"><ele>3095</ele><speed>13.01</speed><time>2016-07-01T13:18:12Z</time><pdop>3.0</pdop><geoidheight>54.00</geoidheight><course>78.9</course><type>1</type></trkpt>
      <trkpt lat="40.54274496" lon="-5.09683834"><ele>3096</ele><speed>13.32</speed><time>2016-07-01T13:18:13Z</time><pdop>3.0</pdop><geoidheight>54.00</geoidheight><course>75.8</course><type>1</type></trkpt>
      <trkpt lat="40.54277493" lon="-5.09668019"><ele>3097</ele><speed>13.68</speed><time>2016-07-01T13:18:14Z</time><pdop>3.0</pdop><geoidheight>54.00</geoidheight><course>73.1</course><type>1</type></trkpt>
      <trkpt lat="40.54281562" lon="-5.0965218"><ele>3098</ele><speed>13.87</speed><time>2016-07-01T13:18:15Z</time><pdop>3.0</pdop><geoidheight>54.00</geoidheight><course>72.1</course><type>1</type></trkpt>
      <trkpt lat="40.54284903" lon="-5.09636406"><ele>3100</ele><speed>13.63</speed><time>2016-07-01T13:18:16Z</time><pdop>3.0</pdop><geoidheight>54.00</geoidheight><course>73.7</course><type>1</type></trkpt>
      <trkpt lat="40.54286862" lon="-5.0962185"><ele>3102</ele><speed>12.86</speed><time>2016-07-01T13:18:17Z</time><pdop>3.0</pdop><geoidheight>54.00</geoidheight><course>76.4</course><type>1</type></trkpt>
      <trkpt lat="40.54288674" lon="-5.09608783"><ele>3104</ele><speed>11.58</speed><time>2016-07-01T13:18:18Z</time><pdop>3.0</pdop><geoidheight>54.00</geoidheight><course>79.1</course><type>1</type></trkpt>
      <trkpt lat="40.54290055" lon="-5.09597774"><ele>3107</ele><speed>10.10</speed><time>2016-07-01T13:18:19Z</time><pdop>3.0</pdop><geoidheight>54.00</geoidheight><course>82.4</course><type>1</type></trkpt>
      <trkpt lat="40.54290572" lon="-5.09586972"><ele>3108</ele><speed>9.22</speed><time>2016-07-01T13:18:20Z</time><pdop>3.0</pdop><geoidheight>54.00</geoidheight><course>85.5</course><type>1</type></trkpt>
      <trkpt lat="40.54290878" lon="-5.09576551"><ele>3108</ele><speed>9.20</speed><time>2016-07-01T13:18:21Z</time><pdop>3.0</pdop><geoidheight>54.00</geoidheight><course>88.7</course><type>1</type></trkpt>
      <trkpt lat="40.54291557" lon="-5.09564743"><ele>3107</ele><speed>10.30</speed><time>2016-07-01T13:18:22Z</time><pdop>3.0</pdop><geoidheight>54.00</geoidheight><course>86.7</course><type>1</type></trkpt>
      <trkpt lat="40.54292316" lon="-5.09551333"><ele>3106</ele><speed>11.48</speed><time>2016-07-01T13:18:23Z</time><pdop>3.0</pdop><geoidheight>54.00</geoidheight><course>86.0</course><type>1</type></trkpt>
      <trkpt lat="40.54295363" lon="-5.09534493"><ele>3105</ele><speed>13.37</speed><time>2016-07-01T13:18:24Z</time><pdop>3.0</pdop><geoidheight>54.00</geoidheight><course>80.1</course><type>1</type></trkpt>
      <trkpt lat="40.54298339" lon="-5.09517753"><ele>3108</ele><speed>14.00</speed><time>2016-07-01T13:18:25Z</time><pdop>3.0</pdop><geoidheight>54.00</geoidheight><course>76.7</course><type>1</type></trkpt>
      <trkpt lat="40.54302334" lon="-5.09502419"><ele>3110</ele><speed>13.14</speed><time>2016-07-01T13:18:26Z</time><pdop>3.0</pdop><geoidheight>54.00</geoidheight><course>72.2</course><type>1</type></trkpt>
      <trkpt lat="40.54306106" lon="-5.09489687"><ele>3112</ele><speed>11.74</speed><time>2016-07-01T13:18:27Z</time><pdop>3.0</pdop><geoidheight>54.00</geoidheight><course>68.7</course><type>1</type></trkpt>
      <trkpt lat="40.54310791" lon="-5.09477447"><ele>3112</ele><speed>11.16</speed><time>2016-07-01T13:18:28Z</time><pdop>3.0</pdop><geoidheight>54.00</geoidheight><course>67.6</course><type>1</type></trkpt>
      <trkpt lat="40.54315631" lon="-5.09466036"><ele>3111</ele><speed>10.65</speed><time>2016-07-01T13:18:29Z</time><pdop>3.0</pdop><geoidheight>54.00</geoidheight><course>65.4</course><type>1</type></trkpt>
      <trkpt lat="40.54320182" lon="-5.09453221"><ele>3109</ele><speed>11.47</speed><time>2016-07-01T13:18:30Z</time><pdop>3.0</pdop><geoidheight>54.00</geoidheight><course>65.2</course><type>1</type></trkpt>
      <trkpt lat="40.54326188" lon="-5.09439752"><ele>3107</ele><speed>13.03</speed><time>2016-07-01T13:18:31Z</time><pdop>3.0</pdop><geoidheight>54.00</geoidheight><course>63.5</course><type>1</type></trkpt>
      <trkpt lat="40.54331457" lon="-5.09425412"><ele>3107</ele><speed>13.67</speed><time>2016-07-01T13:18:32Z</time><pdop>4.0</pdop><geoidheight>54.00</geoidheight><course>64.6</course><type>1</type></trkpt>
      <trkpt lat="40.54335137" lon="-5.09409564"><ele>3106</ele><speed>14.29</speed><time>2016-07-01T13:18:33Z</time><pdop>5.0</pdop><geoidheight>54.00</geoidheight><course>67.6</course><type>1</type></trkpt>
      <trkpt lat="40.54340076" lon="-5.09394957"><ele>3106</ele><speed>14.46</speed><time>2016-07-01T13:18:34Z</time><pdop>5.0</pdop><geoidheight>54.00</geoidheight><course>66.0</course><type>1</type></trkpt>
      <trkpt lat="40.54347" lon="-5.09379452"><ele>3107</ele><speed>14.62</speed><time>2016-07-01T13:18:35Z</time><pdop>6.0</pdop><geoidheight>54.00</geoidheight><course>64.4</course><type>1</type></trkpt>
      <trkpt lat="40.54352878" lon="-5.09363684"><ele>3107</ele><speed>14.59</speed><time>2016-07-01T13:18:36Z</time><pdop>5.0</pdop><geoidheight>54.00</geoidheight><course>65.5</course><type>1</type></trkpt>
      <trkpt lat="40.54359148" lon="-5.09346458"><ele>3106</ele><speed>14.75</speed><time>2016-07-01T13:18:37Z</time><pdop>4.0</pdop><geoidheight>54.00</geoidheight><course>67.6</course><type>1</type></trkpt>
      <trkpt lat="40.54363671" lon="-5.0932829"><ele>3105</ele><speed>15.58</speed><time>2016-07-01T13:18:38Z</time><pdop>4.0</pdop><geoidheight>54.00</geoidheight><course>68.3</course><type>1</type></trkpt>
      <trkpt lat="40.54368622" lon="-5.09309461"><ele>3104</ele><speed>16.91</speed><time>2016-07-01T13:18:39Z</time><pdop>4.0</pdop><geoidheight>54.00</geoidheight><course>69.4</course><type>1</type></trkpt>
      <trkpt lat="40.54374421" lon="-5.09288141"><ele>3103</ele><speed>18.21</speed><time>2016-07-01T13:18:40Z</time><pdop>4.0</pdop><geoidheight>54.00</geoidheight><course>71.5</course><type>1</type></trkpt>
      <trkpt lat="40.54380173" lon="-5.09267538"><ele>3104</ele><speed>18.45</speed><time>2016-07-01T13:18:41Z</time><pdop>4.0</pdop><geoidheight>54.00</geoidheight><course>72.6</course><type>1</type></trkpt>
      <trkpt lat="40.54384984" lon="-5.09247921"><ele>3105</ele><speed>17.69</speed><time>2016-07-01T13:18:42Z</time><pdop>4.0</pdop><geoidheight>54.00</geoidheight><course>73.2</course><type>1</type></trkpt>
      <trkpt lat="40.54389029" lon="-5.09228574"><ele>3106</ele><speed>16.79</speed><time>2016-07-01T13:18:43Z</time><pdop>4.0</pdop><geoidheight>54.00</geoidheight><course>74.3</course><type>1</type></trkpt>
      <trkpt lat="40.54392902" lon="-5.09210512"><ele>3107</ele><speed>16.05</speed><time>2016-07-01T13:18:44Z</time><pdop>3.0</pdop><geoidheight>54.00</geoidheight><course>75.5</course><type>1</type></trkpt>
      <trkpt lat="40.54397241" lon="-5.09192486"><ele>3107</ele><speed>15.65</speed><time>2016-07-01T13:18:45Z</time><pdop>3.0</pdop><geoidheight>54.00</geoidheight><course>75.8</course><type>1</type></trkpt>
      <trkpt lat="40.54401577" lon="-5.09173735"><ele>3106</ele><speed>15.67</speed><time>2016-07-01T13:18:46Z</time><pdop>3.0</pdop><geoidheight>54.00</geoidheight><course>74.9</course><type>1</type></trkpt>
      <trkpt lat="40.54405458" lon="-5.09155276"><ele>3105</ele><speed>16.27</speed><time>2016-07-01T13:18:47Z</time><pdop>3.0</pdop><geoidheight>54.00</geoidheight><course>73.4</course><type>1</type></trkpt>
      <trkpt lat="40.54410213" lon="-5.09136266"><ele>3104</ele><speed>17.13</speed><time>2016-07-01T13:18:48Z</time><pdop>3.0</pdop><geoidheight>54.00</geoidheight><course>73.2</course><type>1</type></trkpt>
      <trkpt lat="40.54413911" lon="-5.09116264"><ele>3104</ele><speed>17.83</speed><time>2016-07-01T13:18:49Z</time><pdop>3.0</pdop><geoidheight>54.00</geoidheight><course>73.8</course><type>1</type></trkpt>
      <trkpt lat="40.54417793" lon="-5.09096231"><ele>3104</ele><speed>17.80</speed><time>2016-07-01T13:18:50Z</time><pdop>3.0</pdop><geoidheight>54.00</geoidheight><course>74.8</course><type>1</type></trkpt>
      <trkpt lat="40.54421663" lon="-5.09076371"><ele>3104</ele><speed>17.52</speed><time>2016-07-01T13:18:51Z</time><pdop>3.0</pdop><geoidheight>54.00</geoidheight><course>75.1</course><type>1</type></trkpt>
      <trkpt lat="40.54425844" lon="-5.09056392"><ele>3105</ele><speed>17.28</speed><time>2016-07-01T13:18:52Z</time><pdop>3.0</pdop><geoidheight>54.00</geoidheight><course>73.7</course><type>1</type></trkpt>
      <trkpt lat="40.54431131" lon="-5.09036939"><ele>3105</ele><speed>17.34</speed><time>2016-07-01T13:18:53Z</time><pdop>3.0</pdop><geoidheight>54.00</geoidheight><course>72.6</course><type>1</type></trkpt>
      <trkpt lat="40.54435954" lon="-5.09017677"><ele>3105</ele><speed>17.12</speed><time>2016-07-01T13:18:54Z</time><pdop>3.0</pdop><geoidheight>54.00</geoidheight><course>72.7</course><type>1</type></trkpt>
      <trkpt lat="40.54440968" lon="-5.09000619"><ele>3106</ele><speed>15.66</speed><time>2016-07-01T13:18:55Z</time><pdop>3.0</pdop><geoidheight>54.00</geoidheight><course>69.9</course><type>1</type></trkpt>
      <trkpt lat="40.5444443" lon="-5.08985712"><ele>3106</ele><speed>13.64</speed><time>2016-07-01T13:18:56Z</time><pdop>3.0</pdop><geoidheight>54.00</geoidheight><course>68.7</course><type>1</type></trkpt>
      <trkpt lat="40.54447806" lon="-5.08972506"><ele>3108</ele><speed>12.07</speed><time>2016-07-01T13:18:57Z</time><pdop>3.0</pdop><geoidheight>54.00</geoidheight><course>70.9</course><type>1</type></trkpt>
      <trkpt lat="40.54451739" lon="-5.08960108"><ele>3109</ele><speed>11.16</speed><time>2016-07-01T13:18:58Z</time><pdop>3.0</pdop><geoidheight>54.00</geoidheight><course>71.6</course><type>1</type></trkpt>
      <trkpt lat="40.54454767" lon="-5.08948356"><ele>3110</ele><speed>10.51</speed><time>2016-07-01T13:18:59Z</time><pdop>3.0</pdop><geoidheight>54.00</geoidheight><course>70.0</course><type>1</type></trkpt>
      <trkpt lat="40.54457887" lon="-5.08936773"><ele>3109</ele><speed>10.21</speed><time>2016-07-01T13:19:00Z</time><pdop>3.0</pdop><geoidheight>54.00</geoidheight><course>68.7</course><type>1</type></trkpt>
      <trkpt lat="40.54461198" lon="-5.08926064"><ele>3109</ele><speed>10.51</speed><time>2016-07-01T13:19:01Z</time><pdop>3.0</pdop><geoidheight>54.00</geoidheight><course>68.6</course><type>1</type></trkpt>
      <trkpt lat="40.54465618" lon="-5.08912904"><ele>3106</ele><speed>11.86</speed><time>2016-07-01T13:19:02Z</time><pdop>3.0</pdop><geoidheight>54.00</geoidheight><course>68.4</course><type>1</type></trkpt>
      <trkpt lat="40.54469413" lon="-5.08898783"><ele>3105</ele><speed>12.60</speed><time>2016-07-01T13:19:03Z</time><pdop>3.0</pdop><geoidheight>54.00</geoidheight><course>69.4</course><type>1</type></trkpt>
      <trkpt lat="40.54474269" lon="-5.0888221"><ele>3105</ele><speed>14.23</speed><time>2016-07-01T13:19:04Z</time><pdop>4.0</pdop><geoidheight>54.00</geoidheight><course>69.4</course><type>1</type></trkpt>
      <trkpt lat="40.5448042" lon="-5.08863719"><ele>3105</ele><speed>15.85</speed><time>2016-07-01T13:19:05Z</time><pdop>5.0</pdop><geoidheight>54.00</geoidheight><course>68.6</course><type>1</type></trkpt>
      <trkpt lat="40.54487468" lon="-5.08845452"><ele>3105</ele><speed>16.49</speed><time>2016-07-01T13:19:06Z</time><pdop>4.0</pdop><geoidheight>54.00</geoidheight><course>67.5</course><type>1</type></trkpt>
      <trkpt lat="40.54491924" lon="-5.08827285"><ele>3105</ele><speed>15.68</speed><time>2016-07-01T13:19:07Z</time><pdop>4.0</pdop><geoidheight>54.00</geoidheight><course>68.0</course><type>1</type></trkpt>
      <trkpt lat="40.54496592" lon="-5.08811178"><ele>3105</ele><speed>15.23</speed><time>2016-07-01T13:19:08Z</time><pdop>4.0</pdop><geoidheight>54.00</geoidheight><course>70.0</course><type>1</type></trkpt>
      <trkpt lat="40.54501909" lon="-5.08793009"><ele>3103</ele><speed>15.30</speed><time>2016-07-01T13:19:09Z</time><pdop>3.0</pdop><geoidheight>54.00</geoidheight><course>72.7</course><type>1</type></trkpt>
      <trkpt lat="40.54505269" lon="-5.08775739"><ele>3102</ele><speed>15.67</speed><time>2016-07-01T13:19:10Z</time><pdop>3.0</pdop><geoidheight>54.00</geoidheight><course>74.7</course><type>1</type></trkpt>
      <trkpt lat="40.5450944" lon="-5.08756532"><ele>3100</ele><speed>16.28</speed><time>2016-07-01T13:19:11Z</time><pdop>3.0</pdop><geoidheight>54.00</geoidheight><course>74.5</course><type>1</type></trkpt>
      <trkpt lat="40.54514461" lon="-5.08737588"><ele>3098</ele><speed>16.97</speed><time>2016-07-01T13:19:12Z</time><pdop>3.0</pdop><geoidheight>54.00</geoidheight><course>72.7</course><type>1</type></trkpt>
      <trkpt lat="40.54520189" lon="-5.08718182"><ele>3097</ele><speed>17.53</speed><time>2016-07-01T13:19:13Z</time><pdop>3.0</pdop><geoidheight>54.00</geoidheight><course>70.5</course><type>1</type></trkpt>
      <trkpt lat="40.54525375" lon="-5.08698833"><ele>3096</ele><speed>17.71</speed><time>2016-07-01T13:19:14Z</time><pdop>3.0</pdop><geoidheight>54.00</geoidheight><course>69.4</course><type>1</type></trkpt>
      <trkpt lat="40.54530335" lon="-5.08679204"><ele>3096</ele><speed>17.48</speed><time>2016-07-01T13:19:15Z</time><pdop>3.0</pdop><geoidheight>54.00</geoidheight><course>69.8</course><type>1</type></trkpt>
      <trkpt lat="40.54535541" lon="-5.08660551"><ele>3096</ele><speed>16.86</speed><time>2016-07-01T13:19:16Z</time><pdop>3.0</pdop><geoidheight>54.00</geoidheight><course>70.6</course><type>1</type></trkpt>
      <trkpt lat="40.54541045" lon="-5.08642531"><ele>3096</ele><speed>16.43</speed><time>2016-07-01T13:19:17Z</time><pdop>3.0</pdop><geoidheight>54.00</geoidheight><course>71.3</course><type>1</type></trkpt>
      <trkpt lat="40.54545938" lon="-5.08624303"><ele>3094</ele><speed>16.47</speed><time>2016-07-01T13:19:18Z</time><pdop>3.0</pdop><geoidheight>54.00</geoidheight><course>72.2</course><type>1</type></trkpt>
      <trkpt lat="40.54550206" lon="-5.08605503"><ele>3092</ele><speed>16.78</speed><time>2016-07-01T13:19:19Z</time><pdop>3.0</pdop><geoidheight>54.00</geoidheight><course>73.2</course><type>1</type></trkpt>
      <trkpt lat="40.54554822" lon="-5.08586281"><ele>3091</ele><speed>16.88</speed><time>2016-07-01T13:19:20Z</time><pdop>3.0</pdop><geoidheight>54.00</geoidheight><course>73.7</course><type>1</type></trkpt>
      <trkpt lat="40.54558898" lon="-5.08567882"><ele>3092</ele><speed>16.36</speed><time>2016-07-01T13:19:21Z</time><pdop>3.0</pdop><geoidheight>54.00</geoidheight><course>73.8</course><type>1</type></trkpt>
      <trkpt lat="40.54562597" lon="-5.08550204"><ele>3091</ele><speed>15.66</speed><time>2016-07-01T13:19:22Z</time><pdop>3.0</pdop><geoidheight>54.00</geoidheight><course>73.3</course><type>1</type></trkpt>
      <trkpt lat="40.5456666" lon="-5.08533345"><ele>3091</ele><speed>15.01</speed><time>2016-07-01T13:19:23Z</time><pdop>3.0</pdop><geoidheight>54.00</geoidheight><course>71.8</course><type>1</type></trkpt>
      <trkpt lat="40.54571631" lon="-5.08516966"><ele>3090</ele><speed>14.66</speed><time>2016-07-01T13:19:24Z</time><pdop>3.0</pdop><geoidheight>54.00</geoidheight><course>69.2</course><type>1</type></trkpt>
      <trkpt lat="40.54576621" lon="-5.08500412"><ele>3089</ele><speed>15.28</speed><time>2016-07-01T13:19:25Z</time><pdop>3.0</pdop><geoidheight>54.00</geoidheight><course>66.7</course><type>1</type></trkpt>
      <trkpt lat="40.54582848" lon="-5.0848215"><ele>3088</ele><speed>16.55</speed><time>2016-07-01T13:19:26Z</time><pdop>3.0</pdop><geoidheight>54.00</geoidheight><course>66.9</course><type>1</type></trkpt>
      <trkpt lat="40.5458761" lon="-5.08462308"><ele>3086</ele><speed>17.55</speed><time>2016-07-01T13:19:27Z</time><pdop>3.0</pdop><geoidheight>54.00</geoidheight><course>70.4</course><type>1</type></trkpt>
      <trkpt lat="40.54592034" lon="-5.08442332"><ele>3086</ele><speed>17.65</speed><time>2016-07-01T13:19:28Z</time><pdop>3.0</pdop><geoidheight>54.00</geoidheight><course>72.5</course><type>1</type></trkpt>
      <trkpt lat="40.54596899" lon="-5.08423783"><ele>3087</ele><speed>16.72</speed><time>2016-07-01T13:19:29Z</time><pdop>3.0</pdop><geoidheight>54.00</geoidheight><course>71.6</course><type>1</type></trkpt>
      <trkpt lat="40.54601912" lon="-5.08406584"><ele>3087</ele><speed>15.49</speed><time>2016-07-01T13:19:30Z</time><pdop>3.0</pdop><geoidheight>54.00</geoidheight><course>70.1</course><type>1</type></trkpt>
      <trkpt lat="40.54606178" lon="-5.08390269"><ele>3087</ele><speed>14.63</speed><time>2016-07-01T13:19:31Z</time><pdop>3.0</pdop><geoidheight>54.00</geoidheight><course>70.4</course><type>1</type></trkpt>
      <trkpt lat="40.54610054" lon="-5.08374799"><ele>3087</ele><speed>14.42</speed><time>2016-07-01T13:19:32Z</time><pdop>3.0</pdop><geoidheight>54.00</geoidheight><course>70.5</course><type>1</type></trkpt>
      <trkpt lat="40.54614387" lon="-5.0835819"><ele>3084</ele><speed>15.22</speed><time>2016-07-01T13:19:33Z</time><pdop>3.0</pdop><geoidheight>54.00</geoidheight><course>69.8</course><type>1</type></trkpt>
      <trkpt lat="40.54619955" lon="-5.08340404"><ele>3081</ele><speed>16.43</speed><time>2016-07-01T13:19:34Z</time><pdop>3.0</pdop><geoidheight>54.00</geoidheight><course>68.2</course><type>1</type></trkpt>
      <trkpt lat="40.54626288" lon="-5.08321151"><ele>3080</ele><speed>17.34</speed><time>2016-07-01T13:19:35Z</time><pdop>3.0</pdop><geoidheight>54.00</geoidheight><course>67.3</course><type>1</type></trkpt>
      <trkpt lat="40.54632342" lon="-5.08302692"><ele>3080</ele><speed>16.94</speed><time>2016-07-01T13:19:36Z</time><pdop>3.0</pdop><geoidheight>54.00</geoidheight><course>67.9</course><type>1</type></trkpt>
      <trkpt lat="40.54637214" lon="-5.08284989"><ele>3080</ele><speed>15.77</speed><time>2016-07-01T13:19:37Z</time><pdop>3.0</pdop><geoidheight>54.00</geoidheight><course>69.5</course><type>1</type></trkpt>
      <trkpt lat="40.54641877" lon="-5.08268207"><ele>3081</ele><speed>14.71</speed><time>2016-07-01T13:19:38Z</time><pdop>3.0</pdop><geoidheight>54.00</geoidheight><course>71.0</course><type>1</type></trkpt>
      <trkpt lat="40.54645568" lon="-5.08252428"><ele>3081</ele><speed>14.11</speed><time>2016-07-01T13:19:39Z</time><pdop>3.0</pdop><geoidheight>54.00</geoidheight><course>72.1</course><type>1</type></trkpt>
      <trkpt lat="40.54649413" lon="-5.08237214"><ele>3081</ele><speed>13.76</speed><time>2016-07-01T13:19:40Z</time><pdop>3.0</pdop><geoidheight>54.00</geoidheight><course>72.4</course><type>1</type></trkpt>
      <trkpt lat="40.54653449" lon="-5.082223"><ele>3081</ele><speed>13.28</speed><time>2016-07-01T13:19:41Z</time><pdop>3.0</pdop><geoidheight>54.00</geoidheight><course>71.6</course><type>1</type></trkpt>
      <trkpt lat="40.54656402" lon="-5.0820842"><ele>3082</ele><speed>12.62</speed><time>2016-07-01T13:19:42Z</time><pdop>3.0</pdop><geoidheight>54.00</geoidheight><course>71.5</course><type>1</type></trkpt>
      <trkpt lat="40.54660337" lon="-5.08195005"><ele>3083</ele><speed>12.00</speed><time>2016-07-01T13:19:43Z</time><pdop>3.0</pdop><geoidheight>54.00</geoidheight><course>70.8</course><type>1</type></trkpt>
      <trkpt lat="40.54663253" lon="-5.08182738"><ele>3083</ele><speed>11.45</speed><time>2016-07-01T13:19:44Z</time><pdop>3.0</pdop><geoidheight>54.00</geoidheight><course>70.7</course><type>1</type></trkpt>
      <trkpt lat="40.54666853" lon="-5.08170135"><ele>3084</ele><speed>11.41</speed><time>2016-07-01T13:19:45Z</time><pdop>3.0</pdop><geoidheight>54.00</geoidheight><course>71.1</course><type>1</type></trkpt>
      <trkpt lat="40.54670854" lon="-5.08157375"><ele>3083</ele><speed>11.66</speed><time>2016-07-01T13:19:46Z</time><pdop>3.0</pdop><geoidheight>54.00</geoidheight><course>70.6</course><type>1</type></trkpt>
      <trkpt lat="40.54674628" lon="-5.08143764"><ele>3083</ele><speed>11.99</speed><time>2016-07-01T13:19:47Z</time><pdop>3.0</pdop><geoidheight>54.00</geoidheight><course>69.3</course><type>1</type></trkpt>
      <trkpt lat="40.54677946" lon="-5.08130601"><ele>3083</ele><speed>12.04</speed><time>2016-07-01T13:19:48Z</time><pdop>3.0</pdop><geoidheight>54.00</geoidheight><course>68.1</course><type>1</type></trkpt>
      <trkpt lat="40.54682468" lon="-5.08117401"><ele>3083</ele><speed>11.89</speed><time>2016-07-01T13:19:49Z</time><pdop>3.0</pdop><geoidheight>54.00</geoidheight><course>68.1</course><type>1</type></trkpt>
      <trkpt lat="40.54686286" lon="-5.08104077"><ele>3083</ele><speed>11.76</speed><time>2016-07-01T13:19:50Z</time><pdop>3.0</pdop><geoidheight>54.00</geoidheight><course>68.8</course><type>1</type></trkpt>
      <trkpt lat="40.54689329" lon="-5.08092112"><ele>3084</ele><speed>11.21</speed><time>2016-07-01T13:19:51Z</time><pdop>3.0</pdop><geoidheight>54.00</geoidheight><course>69.4</course><type>1</type></trkpt>
      <trkpt lat="40.54693223" lon="-5.08080462"><ele>3084</ele><speed>10.84</speed><time>2016-07-01T13:19:52Z</time><pdop>3.0</pdop><geoidheight>54.00</geoidheight><course>68.3</course><type>1</type></trkpt>
      <trkpt lat="40.54697754" lon="-5.08068768"><ele>3083</ele><speed>10.94</speed><time>2016-07-01T13:19:53Z</time><pdop>3.0</pdop><geoidheight>54.00</geoidheight><course>67.1</course><type>1</type></trkpt>
      <trkpt lat="40.54701198" lon="-5.08055686"><ele>3083</ele><speed>11.66</speed><time>2016-07-01T13:19:54Z</time><pdop>3.0</pdop><geoidheight>54.00</geoidheight><course>67.6</course><type>1</type></trkpt>
      <trkpt lat="40.54705357" lon="-5.08042776"><ele>3082</ele><speed>12.25</speed><time>2016-07-01T13:19:55Z</time><pdop>3.0</pdop><geoidheight>54.00</geoidheight><course>68.4</course><type>1</type></trkpt>
      <trkpt lat="40.5470897" lon="-5.08029313"><ele>3082</ele><speed>12.41</speed><time>2016-07-01T13:19:56Z</time><pdop>3.0</pdop><geoidheight>54.00</geoidheight><course>67.4</course><type>1</type></trkpt>
      <trkpt lat="40.54713833" lon="-5.08015266"><ele>3081</ele><speed>12.78</speed><time>2016-07-01T13:19:57Z</time><pdop>3.0</pdop><geoidheight>54.00</geoidheight><course>66.7</course><type>1</type></trkpt>
      <trkpt lat="40.54718252" lon="-5.0800095"><ele>3080</ele><speed>13.38</speed><time>2016-07-01T13:19:58Z</time><pdop>3.0</pdop><geoidheight>54.00</geoidheight><course>66.7</course><type>1</type></trkpt>
      <trkpt lat="40.54722865" lon="-5.07985716"><ele>3079</ele><speed>13.93</speed><time>2016-07-01T13:19:59Z</time><pdop>3.0</pdop><geoidheight>54.00</geoidheight><course>67.3</course><type>1</type></trkpt>
      <trkpt lat="40.54727024" lon="-5.07970012"><ele>3079</ele><speed>14.08</speed><time>2016-07-01T13:20:00Z</time><pdop>4.0</pdop><geoidheight>54.00</geoidheight><course>69.7</course><type>1</type></trkpt>
      <trkpt lat="40.54731473" lon="-5.07954737"><ele>3078</ele><speed>13.92</speed><time>2016-07-01T13:20:01Z</time><pdop>4.0</pdop><geoidheight>54.00</geoidheight><course>70.1</course><type>1</type></trkpt>
      <trkpt lat="40.54735465" lon="-5.07939656"><ele>3077</ele><speed>13.51</speed><time>2016-07-01T13:20:02Z</time><pdop>4.0</pdop><geoidheight>54.00</geoidheight><course>69.8</course><type>1</type></trkpt>
      <trkpt lat="40.54740568" lon="-5.07924274"><ele>3076</ele><speed>13.43</speed><time>2016-07-01T13:20:03Z</time><pdop>4.0</pdop><geoidheight>54.00</geoidheight><course>69.7</course><type>1</type></trkpt>
      <trkpt lat="40.54744479" lon="-5.0790932"><ele>3077</ele><speed>13.23</speed><time>2016-07-01T13:20:04Z</time><pdop>3.0</pdop><geoidheight>54.00</geoidheight><course>70.6</course><type>1</type></trkpt>
      <trkpt lat="40.54748738" lon="-5.07894919"><ele>3077</ele><speed>12.81</speed><time>2016-07-01T13:20:05Z</time><pdop>3.0</pdop><geoidheight>54.00</geoidheight><course>70.4</course><type>1</type></trkpt>
      <trkpt lat="40.54752175" lon="-5.07880859"><ele>3077</ele><speed>12.84</speed><time>2016-07-01T13:20:06Z</time><pdop>3.0</pdop><geoidheight>54.00</geoidheight><course>70.3</course><type>1</type></trkpt>
      <trkpt lat="40.54755721" lon="-5.07866332"><ele>3077</ele><speed>13.20</speed><time>2016-07-01T13:20:07Z</time><pdop>3.0</pdop><geoidheight>54.00</geoidheight><course>70.4</course><type>1</type></trkpt>
      <trkpt lat="40.54759923" lon="-5.07851132"><ele>3076</ele><speed>13.38</speed><time>2016-07-01T13:20:08Z</time><pdop>3.0</pdop><geoidheight>54.00</geoidheight><course>70.5</course><type>1</type></trkpt>
      <trkpt lat="40.54764393" lon="-5.07836612"><ele>3076</ele><speed>13.13</speed><time>2016-07-01T13:20:09Z</time><pdop>3.0</pdop><geoidheight>54.00</geoidheight><course>70.6</course><type>1</type></trkpt>
      <trkpt lat="40.54768702" lon="-5.07822436"><ele>3075</ele><speed>12.87</speed><time>2016-07-01T13:20:10Z</time><pdop>3.0</pdop><geoidheight>54.00</geoidheight><course>70.0</course><type>1</type></trkpt>
      <trkpt lat="40.5477287" lon="-5.0780826"><ele>3075</ele><speed>12.71</speed><time>2016-07-01T13:20:11Z</time><pdop>3.0</pdop><geoidheight>54.00</geoidheight><course>69.2</course><type>1</type></trkpt>
      <trkpt lat="40.54777353" lon="-5.07794162"><ele>3075</ele><speed>12.67</speed><time>2016-07-01T13:20:12Z</time><pdop>3.0</pdop><geoidheight>54.00</geoidheight><course>69.6</course><type>1</type></trkpt>
      <trkpt lat="40.54781161" lon="-5.07779961"><ele>3074</ele><speed>12.66</speed><time>2016-07-01T13:20:13Z</time><pdop>3.0</pdop><geoidheight>54.00</geoidheight><course>71.2</course><type>1</type></trkpt>
      <trkpt lat="40.5478427" lon="-5.07765217"><ele>3073</ele><speed>12.75</speed><time>2016-07-01T13:20:14Z</time><pdop>3.0</pdop><geoidheight>54.00</geoidheight><course>71.8</course><type>1</type></trkpt>
      <trkpt lat="40.54787385" lon="-5.07750787"><ele>3073</ele><speed>13.07</speed><time>2016-07-01T13:20:15Z</time><pdop>3.0</pdop><geoidheight>54.00</geoidheight><course>71.2</course><type>1</type></trkpt>
      <trkpt lat="40.54791395" lon="-5.07735599"><ele>3073</ele><speed>13.31</speed><time>2016-07-01T13:20:16Z</time><pdop>3.0</pdop><geoidheight>54.00</geoidheight><course>70.4</course><type>1</type></trkpt>
      <trkpt lat="40.54795764" lon="-5.07720429"><ele>3073</ele><speed>13.18</speed><time>2016-07-01T13:20:17Z</time><pdop>3.0</pdop><geoidheight>54.00</geoidheight><course>70.1</course><type>1</type></trkpt>
      <trkpt lat="40.54799015" lon="-5.07707202"><ele>3072</ele><speed>12.66</speed><time>2016-07-01T13:20:18Z</time><pdop>3.0</pdop><geoidheight>54.00</geoidheight><course>69.0</course><type>1</type></trkpt>
      <trkpt lat="40.54803793" lon="-5.07694107"><ele>3071</ele><speed>12.20</speed><time>2016-07-01T13:20:19Z</time><pdop>3.0</pdop><geoidheight>54.00</geoidheight><course>67.0</course><type>1</type></trkpt>
      <trkpt lat="40.54808677" lon="-5.07680434"><ele>3069</ele><speed>12.44</speed><time>2016-07-01T13:20:20Z</time><pdop>3.0</pdop><geoidheight>54.00</geoidheight><course>66.4</course><type>1</type></trkpt>
      <trkpt lat="40.54812443" lon="-5.07665973"><ele>3066</ele><speed>13.43</speed><time>2016-07-01T13:20:21Z</time><pdop>3.0</pdop><geoidheight>54.00</geoidheight><course>68.0</course><type>1</type></trkpt>
      <trkpt lat="40.54817032" lon="-5.07649736"><ele>3063</ele><speed>14.85</speed><time>2016-07-01T13:20:22Z</time><pdop>4.0</pdop><geoidheight>54.00</geoidheight><course>68.1</course><type>1</type></trkpt>
      <trkpt lat="40.54822745" lon="-5.07632971"><ele>3062</ele><speed>15.37</speed><time>2016-07-01T13:20:23Z</time><pdop>4.0</pdop><geoidheight>54.00</geoidheight><course>67.9</course><type>1</type></trkpt>
      <trkpt lat="40.54830696" lon="-5.07614571"><ele>3060</ele><speed>16.81</speed><time>2016-07-01T13:20:24Z</time><pdop>5.0</pdop><geoidheight>54.00</geoidheight><course>65.0</course><type>1</type></trkpt>
      <trkpt lat="40.54837653" lon="-5.07597502"><ele>3060</ele><speed>16.52</speed><time>2016-07-01T13:20:25Z</time><pdop>4.0</pdop><geoidheight>54.00</geoidheight><course>64.2</course><type>1</type></trkpt>
      <trkpt lat="40.54844623" lon="-5.07580876"><ele>3059</ele><speed>16.11</speed><time>2016-07-01T13:20:26Z</time><pdop>4.0</pdop><geoidheight>54.00</geoidheight><course>61.6</course><type>1</type></trkpt>
      <trkpt lat="40.54850337" lon="-5.0756358"><ele>3055</ele><speed>16.31</speed><time>2016-07-01T13:20:27Z</time><pdop>4.0</pdop><geoidheight>54.00</geoidheight><course>61.4</course><type>1</type></trkpt>
      <trkpt lat="40.54858082" lon="-5.07544453"><ele>3051</ele><speed>17.71</speed><time>2016-07-01T13:20:28Z</time><pdop>4.0</pdop><geoidheight>54.00</geoidheight><course>63.0</course><type>1</type></trkpt>
      <trkpt lat="40.54864022" lon="-5.07524025"><ele>3048</ele><speed>18.89</speed><time>2016-07-01T13:20:29Z</time><pdop>4.0</pdop><geoidheight>54.00</geoidheight><course>68.3</course><type>1</type></trkpt>
      <trkpt lat="40.54869231" lon="-5.07502183"><ele>3046</ele><speed>19.49</speed><time>2016-07-01T13:20:30Z</time><pdop>4.0</pdop><geoidheight>54.00</geoidheight><course>69.6</course><type>1</type></trkpt>
      <trkpt lat="40.54875692" lon="-5.07480796"><ele>3045</ele><speed>18.96</speed><time>2016-07-01T13:20:31Z</time><pdop>4.0</pdop><geoidheight>54.00</geoidheight><course>69.0</course><type>1</type></trkpt>
      <trkpt lat="40.54881758" lon="-5.07460945"><ele>3045</ele><speed>17.74</speed><time>2016-07-01T13:20:32Z</time><pdop>4.0</pdop><geoidheight>54.00</geoidheight><course>68.7</course><type>1</type></trkpt>
      <trkpt lat="40.54887637" lon="-5.07442352"><ele>3045</ele><speed>16.38</speed><time>2016-07-01T13:20:33Z</time><pdop>4.0</pdop><geoidheight>54.00</geoidheight><course>69.5</course><type>1</type></trkpt>
      <trkpt lat="40.54892472" lon="-5.07425661"><ele>3045</ele><speed>15.61</speed><time>2016-07-01T13:20:34Z</time><pdop>4.0</pdop><geoidheight>54.00</geoidheight><course>69.7</course><type>1</type></trkpt>
      <trkpt lat="40.54896845" lon="-5.07408654"><ele>3043</ele><speed>15.95</speed><time>2016-07-01T13:20:35Z</time><pdop>4.0</pdop><geoidheight>54.00</geoidheight><course>68.5</course><type>1</type></trkpt>
      <trkpt lat="40.54903195" lon="-5.0739016"><ele>3040</ele><speed>16.87</speed><time>2016-07-01T13:20:36Z</time><pdop>4.0</pdop><geoidheight>54.00</geoidheight><course>66.9</course><type>1</type></trkpt>
      <trkpt lat="40.54910009" lon="-5.07371588"><ele>3037</ele><speed>17.70</speed><time>2016-07-01T13:20:37Z</time><pdop>4.0</pdop><geoidheight>54.00</geoidheight><course>65.8</course><type>1</type></trkpt>
      <trkpt lat="40.54916797" lon="-5.07352287"><ele>3034</ele><speed>18.21</speed><time>2016-07-01T13:20:38Z</time><pdop>4.0</pdop><geoidheight>54.00</geoidheight><course>65.0</course><type>1</type></trkpt>
      <trkpt lat="40.54923843" lon="-5.07332172"><ele>3032</ele><speed>18.37</speed><time>2016-07-01T13:20:39Z</time><pdop>4.0</pdop><geoidheight>54.00</geoidheight><course>64.9</course><type>1</type></trkpt>
      <trkpt lat="40.54930497" lon="-5.07312101"><ele>3030</ele><speed>18.14</speed><time>2016-07-01T13:20:40Z</time><pdop>4.0</pdop><geoidheight>54.00</geoidheight><course>65.4</course><type>1</type></trkpt>
      <trkpt lat="40.54937338" lon="-5.07293072"><ele>3029</ele><speed>17.57</speed><time>2016-07-01T13:20:41Z</time><pdop>4.0</pdop><geoidheight>54.00</geoidheight><course>66.3</course><type>1</type></trkpt>
      <trkpt lat="40.54943168" lon="-5.07274914"><ele>3027</ele><speed>16.91</speed><time>2016-07-01T13:20:42Z</time><pdop>4.0</pdop><geoidheight>54.00</geoidheight><course>67.8</course><type>1</type></trkpt>
      <trkpt lat="40.54947995" lon="-5.07256597"><ele>3024</ele><speed>16.43</speed><time>2016-07-01T13:20:43Z</time><pdop>3.0</pdop><geoidheight>54.00</geoidheight><course>68.9</course><type>1</type></trkpt>
      <trkpt lat="40.54953875" lon="-5.07238438"><ele>3021</ele><speed>16.42</speed><time>2016-07-01T13:20:44Z</time><pdop>3.0</pdop><geoidheight>54.00</geoidheight><course>68.1</course><type>1</type></trkpt>
      <trkpt lat="40.54959479" lon="-5.0722045"><ele>3019</ele><speed>16.77</speed><time>2016-07-01T13:20:45Z</time><pdop>3.0</pdop><geoidheight>54.00</geoidheight><course>67.6</course><type>1</type></trkpt>
      <trkpt lat="40.5496524" lon="-5.07201529"><ele>3017</ele><speed>17.42</speed><time>2016-07-01T13:20:46Z</time><pdop>4.0</pdop><geoidheight>54.00</geoidheight><course>68.0</course><type>1</type></trkpt>
      <trkpt lat="40.5497117" lon="-5.07181769"><ele>3015</ele><speed>17.74</speed><time>2016-07-01T13:20:47Z</time><pdop>4.0</pdop><geoidheight>54.00</geoidheight><course>69.1</course><type>1</type></trkpt>
      <trkpt lat="40.54976388" lon="-5.07162884"><ele>3013</ele><speed>17.61</speed><time>2016-07-01T13:20:48Z</time><pdop>4.0</pdop><geoidheight>54.00</geoidheight><course>70.6</course><type>1</type></trkpt>
      <trkpt lat="40.54981049" lon="-5.07143695"><ele>3011</ele><speed>17.12</speed><time>2016-07-01T13:20:49Z</time><pdop>4.0</pdop><geoidheight>54.00</geoidheight><course>72.2</course><type>1</type></trkpt>
      <trkpt lat="40.54985125" lon="-5.07124195"><ele>3008</ele><speed>16.86</speed><time>2016-07-01T13:20:50Z</time><pdop>4.0</pdop><geoidheight>54.00</geoidheight><course>74.4</course><type>1</type></trkpt>
      <trkpt lat="40.54988832" lon="-5.07104257"><ele>3005</ele><speed>17.17</speed><time>2016-07-01T13:20:51Z</time><pdop>4.0</pdop><geoidheight>54.00</geoidheight><course>74.8</course><type>1</type></trkpt>
      <trkpt lat="40.54992402" lon="-5.07084268"><ele>3002</ele><speed>17.71</speed><time>2016-07-01T13:20:52Z</time><pdop>3.0</pdop><geoidheight>54.00</geoidheight><course>74.5</course><type>1</type></trkpt>
      <trkpt lat="40.54996831" lon="-5.07063994"><ele>2999</ele><speed>18.00</speed><time>2016-07-01T13:20:53Z</time><pdop>3.0</pdop><geoidheight>54.00</geoidheight><course>74.3</course><type>1</type></trkpt>
      <trkpt lat="40.55000537" lon="-5.07043764"><ele>2999</ele><speed>17.79</speed><time>2016-07-01T13:20:54Z</time><pdop>3.0</pdop><geoidheight>54.00</geoidheight><course>75.4</course><type>1</type></trkpt>
      <trkpt lat="40.55003254" lon="-5.07024446"><ele>2998</ele><speed>16.89</speed><time>2016-07-01T13:20:55Z</time><pdop>3.0</pdop><geoidheight>54.00</geoidheight><course>76.4</course><type>1</type></trkpt>
      <trkpt lat="40.55006785" lon="-5.07006369"><ele>2997</ele><speed>15.09</speed><time>2016-07-01T13:20:56Z</time><pdop>3.0</pdop><geoidheight>54.00</geoidheight><course>74.9</course><type>1</type></trkpt>
      <trkpt lat="40.55010257" lon="-5.06990357"><ele>2995</ele><speed>13.90</speed><time>2016-07-01T13:20:57Z</time><pdop>3.0</pdop><geoidheight>54.00</geoidheight><course>73.4</course><type>1</type></trkpt>
      <trkpt lat="40.55014044" lon="-5.06974903"><ele>2993</ele><speed>14.26</speed><time>2016-07-01T13:20:58Z</time><pdop>3.0</pdop><geoidheight>54.00</geoidheight><course>73.0</course><type>1</type></trkpt>
      <trkpt lat="40.55017963" lon="-5.06957291"><ele>2988</ele><speed>15.81</speed><time>2016-07-01T13:20:59Z</time><pdop>3.0</pdop><geoidheight>54.00</geoidheight><course>73.9</course><type>1</type></trkpt>
      <trkpt lat="40.55021565" lon="-5.06937979"><ele>2985</ele><speed>17.17</speed><time>2016-07-01T13:21:00Z</time><pdop>3.0</pdop><geoidheight>54.00</geoidheight><course>74.6</course><type>1</type></trkpt>
      <trkpt lat="40.5502509" lon="-5.06918653"><ele>2981</ele><speed>17.73</speed><time>2016-07-01T13:21:01Z</time><pdop>3.0</pdop><geoidheight>54.00</geoidheight><course>75.0</course><type>1</type></trkpt>
      <trkpt lat="40.55028479" lon="-5.0689962"><ele>2979</ele><speed>17.11</speed><time>2016-07-01T13:21:02Z</time><pdop>3.0</pdop><geoidheight>54.00</geoidheight><course>75.2</course><type>1</type></trkpt>
      <trkpt lat="40.55032153" lon="-5.06881585"><ele>2978</ele><speed>16.19</speed><time>2016-07-01T13:21:03Z</time><pdop>3.0</pdop><geoidheight>54.00</geoidheight><course>74.4</course><type>1</type></trkpt>
      <trkpt lat="40.55036209" lon="-5.06865109"><ele>2976</ele><speed>15.25</speed><time>2016-07-01T13:21:04Z</time><pdop>3.0</pdop><geoidheight>54.00</geoidheight><course>72.8</course><type>1</type></trkpt>
      <trkpt lat="40.55041513" lon="-5.06848437"><ele>2975</ele><speed>14.66</speed><time>2016-07-01T13:21:05Z</time><pdop>3.0</pdop><geoidheight>54.00</geoidheight><course>70.8</course><type>1</type></trkpt>
      <trkpt lat="40.55046652" lon="-5.06832436"><ele>2972</ele><speed>14.71</speed><time>2016-07-01T13:21:06Z</time><pdop>3.0</pdop><geoidheight>54.00</geoidheight><course>69.2</course><type>1</type></trkpt>
      <trkpt lat="40.55052187" lon="-5.06815764"><ele>2969</ele><speed>15.15</speed><time>2016-07-01T13:21:07Z</time><pdop>3.0</pdop><geoidheight>54.00</geoidheight><course>67.9</course><type>1</type></trkpt>
      <trkpt lat="40.55056625" lon="-5.06799272"><ele>2966</ele><speed>15.43</speed><time>2016-07-01T13:21:08Z</time><pdop>3.0</pdop><geoidheight>54.00</geoidheight><course>67.5</course><type>1</type></trkpt>
      <trkpt lat="40.55061984" lon="-5.06782675"><ele>2964</ele><speed>15.37</speed><time>2016-07-01T13:21:09Z</time><pdop>3.0</pdop><geoidheight>54.00</geoidheight><course>67.4</course><type>1</type></trkpt>
      <trkpt lat="40.55067455" lon="-5.06766376"><ele>2963</ele><speed>15.03</speed><time>2016-07-01T13:21:10Z</time><pdop>3.0</pdop><geoidheight>54.00</geoidheight><course>67.5</course><type>1</type></trkpt>
      <trkpt lat="40.55072134" lon="-5.06750418"><ele>2961</ele><speed>14.43</speed><time>2016-07-01T13:21:11Z</time><pdop>3.0</pdop><geoidheight>54.00</geoidheight><course>67.9</course><type>1</type></trkpt>
      <trkpt lat="40.55077349" lon="-5.06735969"><ele>2960</ele><speed>13.69</speed><time>2016-07-01T13:21:12Z</time><pdop>3.0</pdop><geoidheight>54.00</geoidheight><course>65.0</course><type>1</type></trkpt>
      <trkpt lat="40.55084063" lon="-5.06722002"><ele>2958</ele><speed>13.52</speed><time>2016-07-01T13:21:13Z</time><pdop>3.0</pdop><geoidheight>54.00</geoidheight><course>60.2</course><type>1</type></trkpt>
      <trkpt lat="40.55090637" lon="-5.06708355"><ele>2956</ele><speed>13.74</speed><time>2016-07-01T13:21:14Z</time><pdop>3.0</pdop><geoidheight>54.00</geoidheight><course>58.6</course><type>1</type></trkpt>
      <trkpt lat="40.55096329" lon="-5.06693364"><ele>2955</ele><speed>14.19</speed><time>2016-07-01T13:21:15Z</time><pdop>3.0</pdop><geoidheight>54.00</geoidheight><course>61.4</course><type>1</type></trkpt>
      <trkpt lat="40.55101598" lon="-5.06678024"><ele>2953</ele><speed>14.65</speed><time>2016-07-01T13:21:16Z</time><pdop>3.0</pdop><geoidheight>54.00</geoidheight><course>65.5</course><type>1</type></trkpt>
      <trkpt lat="40.55107169" lon="-5.06662222"><ele>2952</ele><speed>14.91</speed><time>2016-07-01T13:21:17Z</time><pdop>3.0</pdop><geoidheight>54.00</geoidheight><course>66.4</course><type>1</type></trkpt>
      <trkpt lat="40.55113338" lon="-5.06645965"><ele>2951</ele><speed>15.00</speed><time>2016-07-01T13:21:18Z</time><pdop>3.0</pdop><geoidheight>54.00</geoidheight><course>65.1</course><type>1</type></trkpt>
      <trkpt lat="40.55118402" lon="-5.06630957"><ele>2950</ele><speed>14.31</speed><time>2016-07-01T13:21:19Z</time><pdop>3.0</pdop><geoidheight>54.00</geoidheight><course>65.2</course><type>1</type></trkpt>
      <trkpt lat="40.55123871" lon="-5.06616559"><ele>2948</ele><speed>13.33</speed><time>2016-07-01T13:21:20Z</time><pdop>3.0</pdop><geoidheight>54.00</geoidheight><course>64.1</course><type>1</type></trkpt>
      <trkpt lat="40.55128723" lon="-5.06603472"><ele>2944</ele><speed>12.73</speed><time>2016-07-01T13:21:21Z</time><pdop>3.0</pdop><geoidheight>54.00</geoidheight><course>62.7</course><type>1</type></trkpt>
      <trkpt lat="40.55132535" lon="-5.06591252"><ele>2943</ele><speed>12.49</speed><time>2016-07-01T13:21:22Z</time><pdop>4.0</pdop><geoidheight>54.00</geoidheight><course>63.5</course><type>1</type></trkpt>
      <trkpt lat="40.55136766" lon="-5.06578417"><ele>2942</ele><speed>12.33</speed><time>2016-07-01T13:21:23Z</time><pdop>5.0</pdop><geoidheight>54.00</geoidheight><course>63.8</course><type>1</type></trkpt>
      <trkpt lat="40.55144536" lon="-5.06561395"><ele>2933</ele><speed>16.00</speed><time>2016-07-01T13:21:24Z</time><pdop>4.0</pdop><geoidheight>54.00</geoidheight><course>62.8</course><type>1</type></trkpt>
      <trkpt lat="40.55150234" lon="-5.06543377"><ele>2927</ele><speed>17.19</speed><time>2016-07-01T13:21:25Z</time><pdop>4.0</pdop><geoidheight>54.00</geoidheight><course>66.3</course><type>1</type></trkpt>
      <trkpt lat="40.55154177" lon="-5.06524975"><ele>2922</ele><speed>17.87</speed><time>2016-07-01T13:21:26Z</time><pdop>4.0</pdop><geoidheight>54.00</geoidheight><course>69.7</course><type>1</type></trkpt>
      <trkpt lat="40.5515754" lon="-5.06502406"><ele>2919</ele><speed>18.35</speed><time>2016-07-01T13:21:27Z</time><pdop>4.0</pdop><geoidheight>54.00</geoidheight><course>76.4</course><type>1</type></trkpt>
      <trkpt lat="40.551605" lon="-5.06482436"><ele>2917</ele><speed>17.93</speed><time>2016-07-01T13:21:28Z</time><pdop>3.0</pdop><geoidheight>54.00</geoidheight><course>79.6</course><type>1</type></trkpt>
      <trkpt lat="40.55163235" lon="-5.06462992"><ele>2915</ele><speed>17.19</speed><time>2016-07-01T13:21:29Z</time><pdop>3.0</pdop><geoidheight>54.00</geoidheight><course>80.5</course><type>1</type></trkpt>
      <trkpt lat="40.55165938" lon="-5.06443415"><ele>2913</ele><speed>16.65</speed><time>2016-07-01T13:21:30Z</time><pdop>4.0</pdop><geoidheight>54.00</geoidheight><course>80.0</course><type>1</type></trkpt>
      <trkpt lat="40.55169561" lon="-5.06425549"><ele>2910</ele><speed>15.83</speed><time>2016-07-01T13:21:31Z</time><pdop>3.0</pdop><geoidheight>54.00</geoidheight><course>76.6</course><type>1</type></trkpt>
      <trkpt lat="40.55174082" lon="-5.06407735"><ele>2908</ele><speed>15.55</speed><time>2016-07-01T13:21:32Z</time><pdop>3.0</pdop><geoidheight>54.00</geoidheight><course>74.5</course><type>1</type></trkpt>
      <trkpt lat="40.55178767" lon="-5.06389477"><ele>2905</ele><speed>15.81</speed><time>2016-07-01T13:21:33Z</time><pdop>4.0</pdop><geoidheight>54.00</geoidheight><course>72.7</course><type>1</type></trkpt>
      <trkpt lat="40.55183562" lon="-5.06370754"><ele>2903</ele><speed>16.40</speed><time>2016-07-01T13:21:34Z</time><pdop>3.0</pdop><geoidheight>54.00</geoidheight><course>72.3</course><type>1</type></trkpt>
      <trkpt lat="40.55188109" lon="-5.06351113"><ele>2901</ele><speed>17.38</speed><time>2016-07-01T13:21:35Z</time><pdop>3.0</pdop><geoidheight>54.00</geoidheight><course>74.5</course><type>1</type></trkpt>
      <trkpt lat="40.55191872" lon="-5.06330003"><ele>2899</ele><speed>18.08</speed><time>2016-07-01T13:21:36Z</time><pdop>4.0</pdop><geoidheight>54.00</geoidheight><course>75.8</course><type>1</type></trkpt>
      <trkpt lat="40.55195929" lon="-5.06310389"><ele>2898</ele><speed>17.71</speed><time>2016-07-01T13:21:37Z</time><pdop>4.0</pdop><geoidheight>54.00</geoidheight><course>76.1</course><type>1</type></trkpt>
      <trkpt lat="40.55199746" lon="-5.06290803"><ele>2899</ele><speed>16.95</speed><time>2016-07-01T13:21:38Z</time><pdop>3.0</pdop><geoidheight>54.00</geoidheight><course>76.2</course><type>1</type></trkpt>
      <trkpt lat="40.55203188" lon="-5.06272609"><ele>2898</ele><speed>16.30</speed><time>2016-07-01T13:21:39Z</time><pdop>3.0</pdop><geoidheight>54.00</geoidheight><course>75.7</course><type>1</type></trkpt>
      <trkpt lat="40.55206068" lon="-5.06255437"><ele>2896</ele><speed>15.99</speed><time>2016-07-01T13:21:40Z</time><pdop>3.0</pdop><geoidheight>54.00</geoidheight><course>74.1</course><type>1</type></trkpt>
      <trkpt lat="40.55211351" lon="-5.06237268"><ele>2894</ele><speed>16.23</speed><time>2016-07-01T13:21:41Z</time><pdop>3.0</pdop><geoidheight>54.00</geoidheight><course>72.4</course><type>1</type></trkpt>
      <trkpt lat="40.55217013" lon="-5.06218351"><ele>2892</ele><speed>16.84</speed><time>2016-07-01T13:21:42Z</time><pdop>3.0</pdop><geoidheight>54.00</geoidheight><course>71.0</course><type>1</type></trkpt>
      <trkpt lat="40.55221948" lon="-5.06198385"><ele>2890</ele><speed>17.59</speed><time>2016-07-01T13:21:43Z</time><pdop>3.0</pdop><geoidheight>54.00</geoidheight><course>71.4</course><type>1</type></trkpt>
      <trkpt lat="40.55226434" lon="-5.06177635"><ele>2888</ele><speed>18.15</speed><time>2016-07-01T13:21:44Z</time><pdop>3.0</pdop><geoidheight>54.00</geoidheight><course>72.6</course><type>1</type></trkpt>
      <trkpt lat="40.5523088" lon="-5.0615635"><ele>2887</ele><speed>18.31</speed><time>2016-07-01T13:21:45Z</time><pdop>3.0</pdop><geoidheight>54.00</geoidheight><course>74.2</course><type>1</type></trkpt>
      <trkpt lat="40.55234688" lon="-5.06137147"><ele>2886</ele><speed>17.53</speed><time>2016-07-01T13:21:46Z</time><pdop>3.0</pdop><geoidheight>54.00</geoidheight><course>75.3</course><type>1</type></trkpt>
      <trkpt lat="40.55238176" lon="-5.06119061"><ele>2886</ele><speed>16.39</speed><time>2016-07-01T13:21:47Z</time><pdop>3.0</pdop><geoidheight>54.00</geoidheight><course>76.0</course><type>1</type></trkpt>
      <trkpt lat="40.55240989" lon="-5.06101362"><ele>2883</ele><speed>15.54</speed><time>2016-07-01T13:21:48Z</time><pdop>3.0</pdop><geoidheight>54.00</geoidheight><course>77.5</course><type>1</type></trkpt>
      <trkpt lat="40.55243944" lon="-5.06082888"><ele>2880</ele><speed>15.92</speed><time>2016-07-01T13:21:49Z</time><pdop>3.0</pdop><geoidheight>54.00</geoidheight><course>78.6</course><type>1</type></trkpt>
      <trkpt lat="40.55247992" lon="-5.06063979"><ele>2878</ele><speed>16.15</speed><time>2016-07-01T13:21:50Z</time><pdop>4.0</pdop><geoidheight>54.00</geoidheight><course>77.5</course><type>1</type></trkpt>
      <trkpt lat="40.55252869" lon="-5.06043809"><ele>2876</ele><speed>17.13</speed><time>2016-07-01T13:21:51Z</time><pdop>4.0</pdop><geoidheight>54.00</geoidheight><course>76.4</course><type>1</type></trkpt>
      <trkpt lat="40.55257631" lon="-5.06020715"><ele>2875</ele><speed>18.59</speed><time>2016-07-01T13:21:52Z</time><pdop>5.0</pdop><geoidheight>54.00</geoidheight><course>76.4</course><type>1</type></trkpt>
      <trkpt lat="40.55264647" lon="-5.05998174"><ele>2870</ele><speed>19.15</speed><time>2016-07-01T13:21:53Z</time><pdop>4.0</pdop><geoidheight>54.00</geoidheight><course>72.2</course><type>1</type></trkpt>
      <trkpt lat="40.55268688" lon="-5.05977992"><ele>2869</ele><speed>18.24</speed><time>2016-07-01T13:21:54Z</time><pdop>4.0</pdop><geoidheight>54.00</geoidheight><course>71.3</course><type>1</type></trkpt>
      <trkpt lat="40.55272175" lon="-5.05961291"><ele>2867</ele><speed>16.18</speed><time>2016-07-01T13:21:55Z</time><pdop>3.0</pdop><geoidheight>54.00</geoidheight><course>71.0</course><type>1</type></trkpt>
      <trkpt lat="40.55275374" lon="-5.05944833"><ele>2866</ele><speed>14.13</speed><time>2016-07-01T13:21:56Z</time><pdop>4.0</pdop><geoidheight>54.00</geoidheight><course>69.7</course><type>1</type></trkpt>
      <trkpt lat="40.55278204" lon="-5.0593152"><ele>2864</ele><speed>12.04</speed><time>2016-07-01T13:21:57Z</time><pdop>4.0</pdop><geoidheight>54.00</geoidheight><course>70.4</course><type>1</type></trkpt>
      <trkpt lat="40.55279987" lon="-5.05919658"><ele>2862</ele><speed>11.14</speed><time>2016-07-01T13:21:58Z</time><pdop>4.0</pdop><geoidheight>54.00</geoidheight><course>74.0</course><type>1</type></trkpt>
      <trkpt lat="40.55282247" lon="-5.05907517"><ele>2858</ele><speed>10.82</speed><time>2016-07-01T13:21:59Z</time><pdop>4.0</pdop><geoidheight>54.00</geoidheight><course>79.2</course><type>1</type></trkpt>
      <trkpt lat="40.55284005" lon="-5.0589474"><ele>2855</ele><speed>11.45</speed><time>2016-07-01T13:22:00Z</time><pdop>4.0</pdop><geoidheight>54.00</geoidheight><course>79.3</course><type>1</type></trkpt>
      <trkpt lat="40.5528641" lon="-5.05879237"><ele>2848</ele><speed>14.00</speed><time>2016-07-01T13:22:01Z</time><pdop>4.0</pdop><geoidheight>54.00</geoidheight><course>78.2</course><type>1</type></trkpt>
      <trkpt lat="40.55289184" lon="-5.05863194"><ele>2842</ele><speed>14.91</speed><time>2016-07-01T13:22:02Z</time><pdop>4.0</pdop><geoidheight>54.00</geoidheight><course>78.0</course><type>1</type></trkpt>
      <trkpt lat="40.55292238" lon="-5.05844197"><ele>2836</ele><speed>16.74</speed><time>2016-07-01T13:22:03Z</time><pdop>5.0</pdop><geoidheight>54.00</geoidheight><course>77.9</course><type>1</type></trkpt>
      <trkpt lat="40.55295909" lon="-5.05824036"><ele>2829</ele><speed>17.98</speed><time>2016-07-01T13:22:04Z</time><pdop>4.0</pdop><geoidheight>54.00</geoidheight><course>77.2</course><type>1</type></trkpt>
      <trkpt lat="40.55300695" lon="-5.05803135"><ele>2825</ele><speed>18.28</speed><time>2016-07-01T13:22:05Z</time><pdop>5.0</pdop><geoidheight>54.00</geoidheight><course>76.9</course><type>1</type></trkpt>
      <trkpt lat="40.55304642" lon="-5.05783882"><ele>2824</ele><speed>17.25</speed><time>2016-07-01T13:22:06Z</time><pdop>5.0</pdop><geoidheight>54.00</geoidheight><course>76.9</course><type>1</type></trkpt>
      <trkpt lat="40.55305557" lon="-5.05770227"><ele>2824</ele><speed>14.36</speed><time>2016-07-01T13:22:07Z</time><pdop>4.0</pdop><geoidheight>54.00</geoidheight><course>75.5</course><type>1</type></trkpt>
      <trkpt lat="40.5530775" lon="-5.05753388"><ele>2822</ele><speed>13.62</speed><time>2016-07-01T13:22:08Z</time><pdop>4.0</pdop><geoidheight>54.00</geoidheight><course>70.8</course><type>1</type></trkpt>
      <trkpt lat="40.5531245" lon="-5.05738845"><ele>2820</ele><speed>14.20</speed><time>2016-07-01T13:22:09Z</time><pdop>4.0</pdop><geoidheight>54.00</geoidheight><course>67.9</course><type>1</type></trkpt>
      <trkpt lat="40.55316768" lon="-5.05721463"><ele>2818</ele><speed>15.05</speed><time>2016-07-01T13:22:10Z</time><pdop>4.0</pdop><geoidheight>54.00</geoidheight><course>69.3</course><type>1</type></trkpt>
      <trkpt lat="40.55319579" lon="-5.05701174"><ele>2812</ele><speed>17.23</speed><time>2016-07-01T13:22:11Z</time><pdop>4.0</pdop><geoidheight>54.00</geoidheight><course>73.4</course><type>1</type></trkpt>
      <trkpt lat="40.55325672" lon="-5.05681622"><ele>2810</ele><speed>17.71</speed><time>2016-07-01T13:22:12Z</time><pdop>4.0</pdop><geoidheight>54.00</geoidheight><course>71.9</course><type>1</type></trkpt>
      <trkpt lat="40.55330086" lon="-5.05661279"><ele>2807</ele><speed>17.23</speed><time>2016-07-01T13:22:13Z</time><pdop>4.0</pdop><geoidheight>54.00</geoidheight><course>71.9</course><type>1</type></trkpt>
      <trkpt lat="40.55334517" lon="-5.05642985"><ele>2807</ele><speed>16.39</speed><time>2016-07-01T13:22:14Z</time><pdop>4.0</pdop><geoidheight>54.00</geoidheight><course>72.4</course><type>1</type></trkpt>
      <trkpt lat="40.55338999" lon="-5.05625933"><ele>2806</ele><speed>15.73</speed><time>2016-07-01T13:22:15Z</time><pdop>4.0</pdop><geoidheight>54.00</geoidheight><course>72.2</course><type>1</type></trkpt>
      <trkpt lat="40.55343451" lon="-5.05607831"><ele>2803</ele><speed>15.88</speed><time>2016-07-01T13:22:16Z</time><pdop>3.0</pdop><geoidheight>54.00</geoidheight><course>71.6</course><type>1</type></trkpt>
      <trkpt lat="40.55348471" lon="-5.05588555"><ele>2802</ele><speed>16.58</speed><time>2016-07-01T13:22:17Z</time><pdop>3.0</pdop><geoidheight>54.00</geoidheight><course>71.6</course><type>1</type></trkpt>
      <trkpt lat="40.55352874" lon="-5.0556843"><ele>2797</ele><speed>17.82</speed><time>2016-07-01T13:22:18Z</time><pdop>3.0</pdop><geoidheight>54.00</geoidheight><course>72.5</course><type>1</type></trkpt>
      <trkpt lat="40.55357521" lon="-5.05547721"><ele>2796</ele><speed>18.16</speed><time>2016-07-01T13:22:19Z</time><pdop>3.0</pdop><geoidheight>54.00</geoidheight><course>73.0</course><type>1</type></trkpt>
      <trkpt lat="40.55361654" lon="-5.0552728"><ele>2794</ele><speed>17.94</speed><time>2016-07-01T13:22:20Z</time><pdop>3.0</pdop><geoidheight>54.00</geoidheight><course>73.9</course><type>1</type></trkpt>
      <trkpt lat="40.55365705" lon="-5.05507775"><ele>2795</ele><speed>17.43</speed><time>2016-07-01T13:22:21Z</time><pdop>3.0</pdop><geoidheight>54.00</geoidheight><course>75.5</course><type>1</type></trkpt>
      <trkpt lat="40.55369683" lon="-5.05488821"><ele>2794</ele><speed>16.58</speed><time>2016-07-01T13:22:22Z</time><pdop>3.0</pdop><geoidheight>54.00</geoidheight><course>75.2</course><type>1</type></trkpt>
      <trkpt lat="40.55373876" lon="-5.05470344"><ele>2794</ele><speed>16.02</speed><time>2016-07-01T13:22:23Z</time><pdop>3.0</pdop><geoidheight>54.00</geoidheight><course>73.5</course><type>1</type></trkpt>
      <trkpt lat="40.55378411" lon="-5.05452403"><ele>2792</ele><speed>16.05</speed><time>2016-07-01T13:22:24Z</time><pdop>3.0</pdop><geoidheight>54.00</geoidheight><course>73.1</course><type>1</type></trkpt>
      <trkpt lat="40.55382502" lon="-5.05433354"><ele>2791</ele><speed>16.48</speed><time>2016-07-01T13:22:25Z</time><pdop>3.0</pdop><geoidheight>54.00</geoidheight><course>74.8</course><type>1</type></trkpt>
      <trkpt lat="40.55385339" lon="-5.05414197"><ele>2790</ele><speed>16.92</speed><time>2016-07-01T13:22:26Z</time><pdop>3.0</pdop><geoidheight>54.00</geoidheight><course>76.7</course><type>1</type></trkpt>
      <trkpt lat="40.55389693" lon="-5.05394545"><ele>2789</ele><speed>17.32</speed><time>2016-07-01T13:22:27Z</time><pdop>3.0</pdop><geoidheight>54.00</geoidheight><course>75.9</course><type>1</type></trkpt>
      <trkpt lat="40.55393482" lon="-5.05374937"><ele>2788</ele><speed>17.24</speed><time>2016-07-01T13:22:28Z</time><pdop>3.0</pdop><geoidheight>54.00</geoidheight><course>74.5</course><type>1</type></trkpt>
      <trkpt lat="40.55396984" lon="-5.05355737"><ele>2787</ele><speed>16.97</speed><time>2016-07-01T13:22:29Z</time><pdop>3.0</pdop><geoidheight>54.00</geoidheight><course>75.5</course><type>1</type></trkpt>
      <trkpt lat="40.55399983" lon="-5.05336894"><ele>2786</ele><speed>16.23</speed><time>2016-07-01T13:22:30Z</time><pdop>3.0</pdop><geoidheight>54.00</geoidheight><course>77.6</course><type>1</type></trkpt>
      <trkpt lat="40.55402509" lon="-5.05319096"><ele>2784</ele><speed>15.64</speed><time>2016-07-01T13:22:31Z</time><pdop>3.0</pdop><geoidheight>54.00</geoidheight><course>77.7</course><type>1</type></trkpt>
      <trkpt lat="40.55407045" lon="-5.05301318"><ele>2782</ele><speed>15.61</speed><time>2016-07-01T13:22:32Z</time><pdop>3.0</pdop><geoidheight>54.00</geoidheight><course>74.1</course><type>1</type></trkpt>
      <trkpt lat="40.55411055" lon="-5.0528366"><ele>2781</ele><speed>15.87</speed><time>2016-07-01T13:22:33Z</time><pdop>3.0</pdop><geoidheight>54.00</geoidheight><course>73.1</course><type>1</type></trkpt>
      <trkpt lat="40.55416344" lon="-5.05263678"><ele>2780</ele><speed>16.94</speed><time>2016-07-01T13:22:34Z</time><pdop>4.0</pdop><geoidheight>54.00</geoidheight><course>72.1</course><type>1</type></trkpt>
      <trkpt lat="40.55422703" lon="-5.05243516"><ele>2780</ele><speed>17.62</speed><time>2016-07-01T13:22:35Z</time><pdop>4.0</pdop><geoidheight>54.00</geoidheight><course>70.4</course><type>1</type></trkpt>
      <trkpt lat="40.55427075" lon="-5.05224641"><ele>2780</ele><speed>17.07</speed><time>2016-07-01T13:22:36Z</time><pdop>5.0</pdop><geoidheight>54.00</geoidheight><course>70.7</course><type>1</type></trkpt>
      <trkpt lat="40.55430015" lon="-5.05208825"><ele>2779</ele><speed>15.94</speed><time>2016-07-01T13:22:37Z</time><pdop>4.0</pdop><geoidheight>54.00</geoidheight><course>70.3</course><type>1</type></trkpt>
      <trkpt lat="40.55434387" lon="-5.05191197"><ele>2777</ele><speed>15.21</speed><time>2016-07-01T13:22:38Z</time><pdop>4.0</pdop><geoidheight>54.00</geoidheight><course>72.0</course><type>1</type></trkpt>
      <trkpt lat="40.55439161" lon="-5.05174134"><ele>2775</ele><speed>15.01</speed><time>2016-07-01T13:22:39Z</time><pdop>4.0</pdop><geoidheight>54.00</geoidheight><course>72.5</course><type>1</type></trkpt>
      <trkpt lat="40.55442678" lon="-5.05156607"><ele>2772</ele><speed>15.88</speed><time>2016-07-01T13:22:40Z</time><pdop>4.0</pdop><geoidheight>54.00</geoidheight><course>73.2</course><type>1</type></trkpt>
      <trkpt lat="40.55448666" lon="-5.05138512"><ele>2769</ele><speed>16.58</speed><time>2016-07-01T13:22:41Z</time><pdop>4.0</pdop><geoidheight>54.00</geoidheight><course>70.0</course><type>1</type></trkpt>
      <trkpt lat="40.55454431" lon="-5.05120141"><ele>2766</ele><speed>16.98</speed><time>2016-07-01T13:22:42Z</time><pdop>4.0</pdop><geoidheight>54.00</geoidheight><course>65.1</course><type>1</type></trkpt>
      <trkpt lat="40.55462667" lon="-5.05103146"><ele>2765</ele><speed>17.15</speed><time>2016-07-01T13:22:43Z</time><pdop>4.0</pdop><geoidheight>54.00</geoidheight><course>60.6</course><type>1</type></trkpt>
      <trkpt lat="40.55472118" lon="-5.05086437"><ele>2763</ele><speed>16.66</speed><time>2016-07-01T13:22:44Z</time><pdop>4.0</pdop><geoidheight>54.00</geoidheight><course>58.1</course><type>1</type></trkpt>
      <trkpt lat="40.55480258" lon="-5.05069605"><ele>2763</ele><speed>16.18</speed><time>2016-07-01T13:22:45Z</time><pdop>4.0</pdop><geoidheight>54.00</geoidheight><course>59.1</course><type>1</type></trkpt>
      <trkpt lat="40.55486803" lon="-5.05055247"><ele>2761</ele><speed>15.29</speed><time>2016-07-01T13:22:46Z</time><pdop>4.0</pdop><geoidheight>54.00</geoidheight><course>60.7</course><type>1</type></trkpt>
      <trkpt lat="40.55494094" lon="-5.05039198"><ele>2758</ele><speed>15.26</speed><time>2016-07-01T13:22:47Z</time><pdop>4.0</pdop><geoidheight>54.00</geoidheight><course>61.9</course><type>1</type></trkpt>
      <trkpt lat="40.55500918" lon="-5.05023053"><ele>2756</ele><speed>15.79</speed><time>2016-07-01T13:22:48Z</time><pdop>4.0</pdop><geoidheight>54.00</geoidheight><course>62.6</course><type>1</type></trkpt>
      <trkpt lat="40.5550756" lon="-5.05005716"><ele>2753</ele><speed>16.38</speed><time>2016-07-01T13:22:49Z</time><pdop>4.0</pdop><geoidheight>54.00</geoidheight><course>64.0</course><type>1</type></trkpt>
      <trkpt lat="40.55514355" lon="-5.04986962"><ele>2750</ele><speed>17.19</speed><time>2016-07-01T13:22:50Z</time><pdop>4.0</pdop><geoidheight>54.00</geoidheight><course>64.9</course><type>1</type></trkpt>
      <trkpt lat="40.55521062" lon="-5.04969182"><ele>2749</ele><speed>17.27</speed><time>2016-07-01T13:22:51Z</time><pdop>4.0</pdop><geoidheight>54.00</geoidheight><course>64.7</course><type>1</type></trkpt>
      <trkpt lat="40.55529243" lon="-5.04950567"><ele>2748</ele><speed>17.45</speed><time>2016-07-01T13:22:52Z</time><pdop>5.0</pdop><geoidheight>54.00</geoidheight><course>62.6</course><type>1</type></trkpt>
      <trkpt lat="40.55538629" lon="-5.04933028"><ele>2746</ele><speed>17.18</speed><time>2016-07-01T13:22:53Z</time><pdop>4.0</pdop><geoidheight>54.00</geoidheight><course>59.1</course><type>1</type></trkpt>
      <trkpt lat="40.55544069" lon="-5.04916196"><ele>2743</ele><speed>16.93</speed><time>2016-07-01T13:22:54Z</time><pdop>4.0</pdop><geoidheight>54.00</geoidheight><course>59.1</course><type>1</type></trkpt>
      <trkpt lat="40.55551564" lon="-5.04898312"><ele>2741</ele><speed>17.53</speed><time>2016-07-01T13:22:55Z</time><pdop>5.0</pdop><geoidheight>54.00</geoidheight><course>58.2</course><type>1</type></trkpt>
      <trkpt lat="40.55561582" lon="-5.04879174"><ele>2737</ele><speed>18.86</speed><time>2016-07-01T13:22:56Z</time><pdop>5.0</pdop><geoidheight>54.00</geoidheight><course>57.2</course><type>1</type></trkpt>
      <trkpt lat="40.55568936" lon="-5.04856363"><ele>2908</ele><speed>20.61</speed><time>2016-07-01T13:22:57Z</time><pdop>6.0</pdop><geoidheight>54.00</geoidheight><course>60.4</course><type>1</type></trkpt>
      <trkpt lat="40.55574537" lon="-5.0483523"><ele>2854</ele><speed>20.65</speed><time>2016-07-01T13:22:58Z</time><pdop>5.0</pdop><geoidheight>54.00</geoidheight><course>65.3</course><type>1</type></trkpt>
      <trkpt lat="40.55582143" lon="-5.04812278"><ele>2826</ele><speed>20.22</speed><time>2016-07-01T13:22:59Z</time><pdop>5.0</pdop><geoidheight>54.00</geoidheight><course>64.8</course><type>1</type></trkpt>
      <trkpt lat="40.55591631" lon="-5.04792077"><ele>2804</ele><speed>19.58</speed><time>2016-07-01T13:23:00Z</time><pdop>5.0</pdop><geoidheight>54.00</geoidheight><course>63.2</course><type>1</type></trkpt>
      <trkpt lat="40.5560016" lon="-5.04774951"><ele>2780</ele><speed>18.20</speed><time>2016-07-01T13:23:01Z</time><pdop>4.0</pdop><geoidheight>54.00</geoidheight><course>59.8</course><type>1</type></trkpt>
      <trkpt lat="40.55608038" lon="-5.04756379"><ele>2764</ele><speed>17.71</speed><time>2016-07-01T13:23:02Z</time><pdop>6.0</pdop><geoidheight>54.00</geoidheight><course>58.6</course><type>1</type></trkpt>
      <trkpt lat="40.55616938" lon="-5.04739151"><ele>2755</ele><speed>17.03</speed><time>2016-07-01T13:23:03Z</time><pdop>6.0</pdop><geoidheight>54.00</geoidheight><course>56.9</course><type>1</type></trkpt>
      <trkpt lat="40.55625433" lon="-5.04726387"><ele>2748</ele><speed>15.61</speed><time>2016-07-01T13:23:04Z</time><pdop>5.0</pdop><geoidheight>54.00</geoidheight><course>52.4</course><type>1</type></trkpt>
      <trkpt lat="40.55632572" lon="-5.04715462"><ele>2744</ele><speed>13.57</speed><time>2016-07-01T13:23:05Z</time><pdop>5.0</pdop><geoidheight>54.00</geoidheight><course>51.7</course><type>1</type></trkpt>
      <trkpt lat="40.55638546" lon="-5.04705376"><ele>2742</ele><speed>11.98</speed><time>2016-07-01T13:23:06Z</time><pdop>5.0</pdop><geoidheight>54.00</geoidheight><course>51.7</course><type>1</type></trkpt>
      <trkpt lat="40.55645151" lon="-5.04694168"><ele>2740</ele><speed>11.67</speed><time>2016-07-01T13:23:07Z</time><pdop>6.0</pdop><geoidheight>54.00</geoidheight><course>53.2</course><type>1</type></trkpt>
      <trkpt lat="40.5565818" lon="-5.04672646"><ele>2736</ele><speed>12.14</speed><time>2016-07-01T13:23:09Z</time><pdop>5.0</pdop><geoidheight>54.00</geoidheight><course>54.7</course><type>1</type></trkpt>
      <trkpt lat="40.55663743" lon="-5.04660899"><ele>2734</ele><speed>13.07</speed><time>2016-07-01T13:23:10Z</time><pdop>5.0</pdop><geoidheight>54.00</geoidheight><course>57.1</course><type>1</type></trkpt>
      <trkpt lat="40.55672552" lon="-5.04646405"><ele>2734</ele><speed>14.77</speed><time>2016-07-01T13:23:11Z</time><pdop>7.0</pdop><geoidheight>54.00</geoidheight><course>57.0</course><type>1</type></trkpt>
      <trkpt lat="40.55678592" lon="-5.04630712"><ele>2731</ele><speed>15.74</speed><time>2016-07-01T13:23:12Z</time><pdop>5.0</pdop><geoidheight>54.00</geoidheight><course>57.1</course><type>1</type></trkpt>
      <trkpt lat="40.55686013" lon="-5.04612223"><ele>2728</ele><speed>16.64</speed><time>2016-07-01T13:23:13Z</time><pdop>5.0</pdop><geoidheight>54.00</geoidheight><course>58.5</course><type>1</type></trkpt>
      <trkpt lat="40.55693784" lon="-5.04595724"><ele>2728</ele><speed>16.65</speed><time>2016-07-01T13:23:14Z</time><pdop>5.0</pdop><geoidheight>54.00</geoidheight><course>58.3</course><type>1</type></trkpt>
      <trkpt lat="40.55700201" lon="-5.04580911"><ele>2726</ele><speed>15.90</speed><time>2016-07-01T13:23:15Z</time><pdop>5.0</pdop><geoidheight>54.00</geoidheight><course>57.5</course><type>1</type></trkpt>
      <trkpt lat="40.55708548" lon="-5.04564822"><ele>2725</ele><speed>15.34</speed><time>2016-07-01T13:23:16Z</time><pdop>4.0</pdop><geoidheight>54.00</geoidheight><course>57.4</course><type>1</type></trkpt>
      <trkpt lat="40.55715934" lon="-5.04550557"><ele>2722</ele><speed>15.40</speed><time>2016-07-01T13:23:17Z</time><pdop>4.0</pdop><geoidheight>54.00</geoidheight><course>58.8</course><type>1</type></trkpt>
      <trkpt lat="40.5572358" lon="-5.04533907"><ele>2720</ele><speed>15.81</speed><time>2016-07-01T13:23:18Z</time><pdop>4.0</pdop><geoidheight>54.00</geoidheight><course>59.3</course><type>1</type></trkpt>
      <trkpt lat="40.55732346" lon="-5.04516885"><ele>2718</ele><speed>16.54</speed><time>2016-07-01T13:23:19Z</time><pdop>4.0</pdop><geoidheight>54.00</geoidheight><course>58.2</course><type>1</type></trkpt>
      <trkpt lat="40.5573977" lon="-5.04501006"><ele>2716</ele><speed>16.99</speed><time>2016-07-01T13:23:20Z</time><pdop>4.0</pdop><geoidheight>54.00</geoidheight><course>56.6</course><type>1</type></trkpt>
      <trkpt lat="40.55748488" lon="-5.04484738"><ele>2714</ele><speed>16.99</speed><time>2016-07-01T13:23:21Z</time><pdop>4.0</pdop><geoidheight>54.00</geoidheight><course>56.4</course><type>1</type></trkpt>
      <trkpt lat="40.55756479" lon="-5.04467993"><ele>2713</ele><speed>16.94</speed><time>2016-07-01T13:23:22Z</time><pdop>3.0</pdop><geoidheight>54.00</geoidheight><course>57.5</course><type>1</type></trkpt>
      <trkpt lat="40.55764624" lon="-5.04451813"><ele>2711</ele><speed>16.58</speed><time>2016-07-01T13:23:23Z</time><pdop>3.0</pdop><geoidheight>54.00</geoidheight><course>58.4</course><type>1</type></trkpt>
      <trkpt lat="40.5577222" lon="-5.04435269"><ele>2710</ele><speed>16.12</speed><time>2016-07-01T13:23:24Z</time><pdop>3.0</pdop><geoidheight>54.00</geoidheight><course>59.3</course><type>1</type></trkpt>
      <trkpt lat="40.55778711" lon="-5.04417812"><ele>2709</ele><speed>16.11</speed><time>2016-07-01T13:23:25Z</time><pdop>3.0</pdop><geoidheight>54.00</geoidheight><course>62.1</course><type>1</type></trkpt>
      <trkpt lat="40.55785445" lon="-5.04399723"><ele>2707</ele><speed>16.44</speed><time>2016-07-01T13:23:26Z</time><pdop>3.0</pdop><geoidheight>54.00</geoidheight><course>64.5</course><type>1</type></trkpt>
      <trkpt lat="40.55792278" lon="-5.04382821"><ele>2706</ele><speed>16.72</speed><time>2016-07-01T13:23:27Z</time><pdop>3.0</pdop><geoidheight>54.00</geoidheight><course>63.9</course><type>1</type></trkpt>
      <trkpt lat="40.55798391" lon="-5.04364281"><ele>2706</ele><speed>16.77</speed><time>2016-07-01T13:23:28Z</time><pdop>3.0</pdop><geoidheight>54.00</geoidheight><course>64.7</course><type>1</type></trkpt>
      <trkpt lat="40.55803588" lon="-5.04346708"><ele>2706</ele><speed>16.38</speed><time>2016-07-01T13:23:29Z</time><pdop>4.0</pdop><geoidheight>54.00</geoidheight><course>67.5</course><type>1</type></trkpt>
      <trkpt lat="40.55807054" lon="-5.04330149"><ele>2705</ele><speed>15.37</speed><time>2016-07-01T13:23:30Z</time><pdop>3.0</pdop><geoidheight>54.00</geoidheight><course>71.0</course><type>1</type></trkpt>
      <trkpt lat="40.55810977" lon="-5.04314283"><ele>2705</ele><speed>14.37</speed><time>2016-07-01T13:23:31Z</time><pdop>3.0</pdop><geoidheight>54.00</geoidheight><course>70.7</course><type>1</type></trkpt>
      <trkpt lat="40.55816131" lon="-5.04299171"><ele>2703</ele><speed>13.93</speed><time>2016-07-01T13:23:32Z</time><pdop>3.0</pdop><geoidheight>54.00</geoidheight><course>68.1</course><type>1</type></trkpt>
      <trkpt lat="40.55821812" lon="-5.04284113"><ele>2702</ele><speed>14.15</speed><time>2016-07-01T13:23:33Z</time><pdop>3.0</pdop><geoidheight>54.00</geoidheight><course>67.5</course><type>1</type></trkpt>
      <trkpt lat="40.55826437" lon="-5.04268209"><ele>2700</ele><speed>14.68</speed><time>2016-07-01T13:23:34Z</time><pdop>3.0</pdop><geoidheight>54.00</geoidheight><course>69.8</course><type>1</type></trkpt>
      <trkpt lat="40.55829742" lon="-5.04250895"><ele>2697</ele><speed>15.32</speed><time>2016-07-01T13:23:35Z</time><pdop>3.0</pdop><geoidheight>54.00</geoidheight><course>71.9</course><type>1</type></trkpt>
      <trkpt lat="40.55835102" lon="-5.04232855"><ele>2696</ele><speed>15.95</speed><time>2016-07-01T13:23:36Z</time><pdop>3.0</pdop><geoidheight>54.00</geoidheight><course>71.1</course><type>1</type></trkpt>
      <trkpt lat="40.55839515" lon="-5.04214641"><ele>2693</ele><speed>16.10</speed><time>2016-07-01T13:23:37Z</time><pdop>3.0</pdop><geoidheight>54.00</geoidheight><course>71.1</course><type>1</type></trkpt>
      <trkpt lat="40.55845004" lon="-5.04197317"><ele>2692</ele><speed>15.78</speed><time>2016-07-01T13:23:38Z</time><pdop>3.0</pdop><geoidheight>54.00</geoidheight><course>69.9</course><type>1</type></trkpt>
      <trkpt lat="40.55849957" lon="-5.04180875"><ele>2692</ele><speed>15.17</speed><time>2016-07-01T13:23:39Z</time><pdop>3.0</pdop><geoidheight>54.00</geoidheight><course>68.9</course><type>1</type></trkpt>
      <trkpt lat="40.55854048" lon="-5.04164702"><ele>2689</ele><speed>14.70</speed><time>2016-07-01T13:23:40Z</time><pdop>3.0</pdop><geoidheight>54.00</geoidheight><course>68.6</course><type>1</type></trkpt>
      <trkpt lat="40.55858824" lon="-5.04148656"><ele>2687</ele><speed>14.77</speed><time>2016-07-01T13:23:41Z</time><pdop>3.0</pdop><geoidheight>54.00</geoidheight><course>68.5</course><type>1</type></trkpt>
      <trkpt lat="40.55864652" lon="-5.04132258"><ele>2684</ele><speed>15.31</speed><time>2016-07-01T13:23:42Z</time><pdop>3.0</pdop><geoidheight>54.00</geoidheight><course>66.3</course><type>1</type></trkpt>
      <trkpt lat="40.55870623" lon="-5.04115708"><ele>2681</ele><speed>15.81</speed><time>2016-07-01T13:23:43Z</time><pdop>3.0</pdop><geoidheight>54.00</geoidheight><course>63.1</course><type>1</type></trkpt>
      <trkpt lat="40.55877555" lon="-5.04099731"><ele>2679</ele><speed>16.06</speed><time>2016-07-01T13:23:44Z</time><pdop>3.0</pdop><geoidheight>54.00</geoidheight><course>61.8</course><type>1</type></trkpt>
      <trkpt lat="40.55884377" lon="-5.04082625"><ele>2678</ele><speed>15.97</speed><time>2016-07-01T13:23:45Z</time><pdop>3.0</pdop><geoidheight>54.00</geoidheight><course>63.8</course><type>1</type></trkpt>
      <trkpt lat="40.55889886" lon="-5.04065572"><ele>2678</ele><speed>15.61</speed><time>2016-07-01T13:23:46Z</time><pdop>3.0</pdop><geoidheight>54.00</geoidheight><course>67.4</course><type>1</type></trkpt>
      <trkpt lat="40.55894106" lon="-5.04048248"><ele>2677</ele><speed>15.25</speed><time>2016-07-01T13:23:47Z</time><pdop>3.0</pdop><geoidheight>54.00</geoidheight><course>70.5</course><type>1</type></trkpt>
      <trkpt lat="40.55898372" lon="-5.04032735"><ele>2676</ele><speed>14.72</speed><time>2016-07-01T13:23:48Z</time><pdop>3.0</pdop><geoidheight>54.00</geoidheight><course>71.3</course><type>1</type></trkpt>
      <trkpt lat="40.55902909" lon="-5.04016264"><ele>2674</ele><speed>14.67</speed><time>2016-07-01T13:23:49Z</time><pdop>3.0</pdop><geoidheight>54.00</geoidheight><course>70.9</course><type>1</type></trkpt>
      <trkpt lat="40.55907746" lon="-5.03999822"><ele>2672</ele><speed>14.85</speed><time>2016-07-01T13:23:50Z</time><pdop>3.0</pdop><geoidheight>54.00</geoidheight><course>70.0</course><type>1</type></trkpt>
      <trkpt lat="40.55912456" lon="-5.03983635"><ele>2672</ele><speed>15.26</speed><time>2016-07-01T13:23:51Z</time><pdop>3.0</pdop><geoidheight>54.00</geoidheight><course>70.4</course><type>1</type></trkpt>
      <trkpt lat="40.55916966" lon="-5.03966582"><ele>2671</ele><speed>15.66</speed><time>2016-07-01T13:23:52Z</time><pdop>3.0</pdop><geoidheight>54.00</geoidheight><course>70.0</course><type>1</type></trkpt>
      <trkpt lat="40.55922717" lon="-5.03947935"><ele>2670</ele><speed>16.42</speed><time>2016-07-01T13:23:53Z</time><pdop>3.0</pdop><geoidheight>54.00</geoidheight><course>69.0</course><type>1</type></trkpt>
      <trkpt lat="40.55927654" lon="-5.03929649"><ele>2670</ele><speed>16.74</speed><time>2016-07-01T13:23:54Z</time><pdop>3.0</pdop><geoidheight>54.00</geoidheight><course>68.3</course><type>1</type></trkpt>
      <trkpt lat="40.5593335" lon="-5.03911383"><ele>2670</ele><speed>16.40</speed><time>2016-07-01T13:23:55Z</time><pdop>3.0</pdop><geoidheight>54.00</geoidheight><course>67.6</course><type>1</type></trkpt>
      <trkpt lat="40.55938492" lon="-5.0389424"><ele>2669</ele><speed>15.79</speed><time>2016-07-01T13:23:56Z</time><pdop>3.0</pdop><geoidheight>54.00</geoidheight><course>67.2</course><type>1</type></trkpt>
      <trkpt lat="40.55942973" lon="-5.03879153"><ele>2669</ele><speed>14.73</speed><time>2016-07-01T13:23:57Z</time><pdop>3.0</pdop><geoidheight>54.00</geoidheight><course>68.0</course><type>1</type></trkpt>
      <trkpt lat="40.55947456" lon="-5.03865069"><ele>2669</ele><speed>13.70</speed><time>2016-07-01T13:23:58Z</time><pdop>3.0</pdop><geoidheight>54.00</geoidheight><course>67.9</course><type>1</type></trkpt>
      <trkpt lat="40.55951009" lon="-5.03848616"><ele>2669</ele><speed>13.70</speed><time>2016-07-01T13:23:59Z</time><pdop>5.0</pdop><geoidheight>54.00</geoidheight><course>70.1</course><type>1</type></trkpt>
      <trkpt lat="40.55956308" lon="-5.03832913"><ele>2669</ele><speed>13.97</speed><time>2016-07-01T13:24:00Z</time><pdop>6.0</pdop><geoidheight>54.00</geoidheight><course>68.5</course><type>1</type></trkpt>
      <trkpt lat="40.55961658" lon="-5.03818629"><ele>2670</ele><speed>14.38</speed><time>2016-07-01T13:24:01Z</time><pdop>7.0</pdop><geoidheight>54.00</geoidheight><course>67.6</course><type>1</type></trkpt>
      <trkpt lat="40.55971433" lon="-5.03800959"><ele>2670</ele><speed>15.69</speed><time>2016-07-01T13:24:02Z</time><pdop>9.0</pdop><geoidheight>54.00</geoidheight><course>62.9</course><type>1</type></trkpt>
      <trkpt lat="40.55979482" lon="-5.0376321"><ele>2669</ele><speed>16.60</speed><time>2016-07-01T13:24:04Z</time><pdop>9.0</pdop><geoidheight>54.00</geoidheight><course>68.0</course><type>1</type></trkpt>
      <trkpt lat="40.55989353" lon="-5.03728309"><ele>2666</ele><speed>16.69</speed><time>2016-07-01T13:24:06Z</time><pdop>7.0</pdop><geoidheight>54.00</geoidheight><course>67.7</course><type>1</type></trkpt>
      <trkpt lat="40.55998614" lon="-5.03709393"><ele>2665</ele><speed>17.00</speed><time>2016-07-01T13:24:07Z</time><pdop>7.0</pdop><geoidheight>54.00</geoidheight><course>63.4</course><type>1</type></trkpt>
      <trkpt lat="40.56007905" lon="-5.03677534"><ele>2662</ele><speed>15.87</speed><time>2016-07-01T13:24:09Z</time><pdop>9.0</pdop><geoidheight>54.00</geoidheight><course>64.2</course><type>1</type></trkpt>
      <trkpt lat="40.56018274" lon="-5.0365967"><ele>2660</ele><speed>16.73</speed><time>2016-07-01T13:24:10Z</time><pdop>10.0</pdop><geoidheight>54.00</geoidheight><course>60.6</course><type>1</type></trkpt>
      <trkpt lat="40.56035177" lon="-5.03624242"><ele>2656</ele><speed>17.37</speed><time>2016-07-01T13:24:12Z</time><pdop>9.0</pdop><geoidheight>54.00</geoidheight><course>59.2</course><type>1</type></trkpt>
      <trkpt lat="40.56043588" lon="-5.03606066"><ele>2654</ele><speed>17.56</speed><time>2016-07-01T13:24:13Z</time><pdop>8.0</pdop><geoidheight>54.00</geoidheight><course>59.9</course><type>1</type></trkpt>
      <trkpt lat="40.56047543" lon="-5.03589371"><ele>2650</ele><speed>16.83</speed><time>2016-07-01T13:24:14Z</time><pdop>6.0</pdop><geoidheight>54.00</geoidheight><course>64.7</course><type>1</type></trkpt>
      <trkpt lat="40.56052353" lon="-5.03571381"><ele>2646</ele><speed>16.85</speed><time>2016-07-01T13:24:15Z</time><pdop>5.0</pdop><geoidheight>54.00</geoidheight><course>65.9</course><type>1</type></trkpt>
      <trkpt lat="40.56057241" lon="-5.03554365"><ele>2643</ele><speed>16.75</speed><time>2016-07-01T13:24:16Z</time><pdop>6.0</pdop><geoidheight>54.00</geoidheight><course>66.0</course><type>1</type></trkpt>
      <trkpt lat="40.56063477" lon="-5.03537886"><ele>2642</ele><speed>16.48</speed><time>2016-07-01T13:24:17Z</time><pdop>6.0</pdop><geoidheight>54.00</geoidheight><course>64.8</course><type>1</type></trkpt>
      <trkpt lat="40.56070407" lon="-5.03523412"><ele>2637</ele><speed>16.20</speed><time>2016-07-01T13:24:18Z</time><pdop>5.0</pdop><geoidheight>54.00</geoidheight><course>60.9</course><type>1</type></trkpt>
      <trkpt lat="40.56078466" lon="-5.03506905"><ele>2635</ele><speed>16.13</speed><time>2016-07-01T13:24:19Z</time><pdop>5.0</pdop><geoidheight>54.00</geoidheight><course>57.4</course><type>1</type></trkpt>
      <trkpt lat="40.56086096" lon="-5.03491578"><ele>2632</ele><speed>16.21</speed><time>2016-07-01T13:24:20Z</time><pdop>5.0</pdop><geoidheight>54.00</geoidheight><course>56.5</course><type>1</type></trkpt>
      <trkpt lat="40.56094961" lon="-5.03474613"><ele>2630</ele><speed>16.80</speed><time>2016-07-01T13:24:21Z</time><pdop>6.0</pdop><geoidheight>54.00</geoidheight><course>56.2</course><type>1</type></trkpt>
      <trkpt lat="40.56105258" lon="-5.03457016"><ele>2629</ele><speed>17.65</speed><time>2016-07-01T13:24:22Z</time><pdop>8.0</pdop><geoidheight>54.00</geoidheight><course>55.0</course><type>1</type></trkpt>
      <trkpt lat="40.56113602" lon="-5.03436699"><ele>2628</ele><speed>18.37</speed><time>2016-07-01T13:24:23Z</time><pdop>10.0</pdop><geoidheight>54.00</geoidheight><course>57.4</course><type>1</type></trkpt>
      <trkpt lat="40.56122593" lon="-5.03414077"><ele>2627</ele><speed>19.27</speed><time>2016-07-01T13:24:24Z</time><pdop>7.0</pdop><geoidheight>54.00</geoidheight><course>58.6</course><type>1</type></trkpt>
      <trkpt lat="40.56131344" lon="-5.03393666"><ele>2627</ele><speed>18.68</speed><time>2016-07-01T13:24:25Z</time><pdop>7.0</pdop><geoidheight>54.00</geoidheight><course>61.5</course><type>1</type></trkpt>
      <trkpt lat="40.56140835" lon="-5.03361533"><ele>2625</ele><speed>15.56</speed><time>2016-07-01T13:24:27Z</time><pdop>10.0</pdop><geoidheight>54.00</geoidheight><course>69.5</course><type>1</type></trkpt>
      <trkpt lat="40.56151707" lon="-5.03329631"><ele>2626</ele><speed>14.12</speed><time>2016-07-01T13:24:29Z</time><pdop>10.0</pdop><geoidheight>54.00</geoidheight><course>63.2</course><type>1</type></trkpt>
      <trkpt lat="40.5616243" lon="-5.03304679"><ele>2625</ele><speed>12.83</speed><time>2016-07-01T13:24:31Z</time><pdop>10.0</pdop><geoidheight>54.00</geoidheight><course>60.9</course><type>1</type></trkpt>
      <trkpt lat="40.56173666" lon="-5.03276377"><ele>2624</ele><speed>13.98</speed><time>2016-07-01T13:24:33Z</time><pdop>11.0</pdop><geoidheight>54.00</geoidheight><course>62.4</course><type>1</type></trkpt>
      <trkpt lat="40.56187874" lon="-5.03243071"><ele>2622</ele><speed>16.04</speed><time>2016-07-01T13:24:35Z</time><pdop>11.0</pdop><geoidheight>54.00</geoidheight><course>61.1</course><type>1</type></trkpt>
      <trkpt lat="40.56201679" lon="-5.03203482"><ele>2619</ele><speed>18.10</speed><time>2016-07-01T13:24:37Z</time><pdop>11.0</pdop><geoidheight>54.00</geoidheight><course>61.7</course><type>1</type></trkpt>
      <trkpt lat="40.56216328" lon="-5.03168605"><ele>2619</ele><speed>16.98</speed><time>2016-07-01T13:24:39Z</time><pdop>10.0</pdop><geoidheight>54.00</geoidheight><course>63.7</course><type>1</type></trkpt>
      <trkpt lat="40.56226916" lon="-5.0313483"><ele>2616</ele><speed>15.59</speed><time>2016-07-01T13:24:41Z</time><pdop>10.0</pdop><geoidheight>54.00</geoidheight><course>65.5</course><type>1</type></trkpt>
      <trkpt lat="40.56238369" lon="-5.03104637"><ele>2607</ele><speed>14.96</speed><time>2016-07-01T13:24:43Z</time><pdop>9.0</pdop><geoidheight>54.00</geoidheight><course>62.2</course><type>1</type></trkpt>
      <trkpt lat="40.56251548" lon="-5.0307262"><ele>2604</ele><speed>15.97</speed><time>2016-07-01T13:24:45Z</time><pdop>9.0</pdop><geoidheight>54.00</geoidheight><course>59.8</course><type>1</type></trkpt>
      <trkpt lat="40.56267494" lon="-5.03037283"><ele>2602</ele><speed>17.46</speed><time>2016-07-01T13:24:47Z</time><pdop>10.0</pdop><geoidheight>54.00</geoidheight><course>58.8</course><type>1</type></trkpt>
      <trkpt lat="40.56279507" lon="-5.02999069"><ele>2600</ele><speed>17.42</speed><time>2016-07-01T13:24:49Z</time><pdop>10.0</pdop><geoidheight>54.00</geoidheight><course>63.8</course><type>1</type></trkpt>
      <trkpt lat="40.56287767" lon="-5.02965604"><ele>2597</ele><speed>15.54</speed><time>2016-07-01T13:24:51Z</time><pdop>9.0</pdop><geoidheight>54.00</geoidheight><course>66.0</course><type>1</type></trkpt>
      <trkpt lat="40.56298698" lon="-5.02931273"><ele>2594</ele><speed>16.33</speed><time>2016-07-01T13:24:53Z</time><pdop>9.0</pdop><geoidheight>54.00</geoidheight><course>66.5</course><type>1</type></trkpt>
      <trkpt lat="40.56311036" lon="-5.02893891"><ele>2592</ele><speed>17.26</speed><time>2016-07-01T13:24:55Z</time><pdop>10.0</pdop><geoidheight>54.00</geoidheight><course>65.5</course><type>1</type></trkpt>
      <trkpt lat="40.5632761" lon="-5.02858395"><ele>2587</ele><speed>18.86</speed><time>2016-07-01T13:24:57Z</time><pdop>11.0</pdop><geoidheight>54.00</geoidheight><course>61.4</course><type>1</type></trkpt>
      <trkpt lat="40.56335936" lon="-5.02813295"><ele>2583</ele><speed>18.14</speed><time>2016-07-01T13:24:59Z</time><pdop>10.0</pdop><geoidheight>54.00</geoidheight><course>69.7</course><type>1</type></trkpt>
      <trkpt lat="40.56347388" lon="-5.02774305"><ele>2580</ele><speed>17.25</speed><time>2016-07-01T13:25:01Z</time><pdop>11.0</pdop><geoidheight>54.00</geoidheight><course>68.7</course><type>1</type></trkpt>
      <trkpt lat="40.56358159" lon="-5.02732871"><ele>2580</ele><speed>17.67</speed><time>2016-07-01T13:25:03Z</time><pdop>11.0</pdop><geoidheight>54.00</geoidheight><course>68.7</course><type>1</type></trkpt>
      <trkpt lat="40.56368588" lon="-5.02696837"><ele>2577</ele><speed>17.51</speed><time>2016-07-01T13:25:05Z</time><pdop>12.0</pdop><geoidheight>54.00</geoidheight><course>66.3</course><type>1</type></trkpt>
      <trkpt lat="40.56384333" lon="-5.02659505"><ele>2578</ele><speed>17.23</speed><time>2016-07-01T13:25:07Z</time><pdop>10.0</pdop><geoidheight>54.00</geoidheight><course>64.7</course><type>1</type></trkpt>
      <trkpt lat="40.56395995" lon="-5.02621797"><ele>2579</ele><speed>16.65</speed><time>2016-07-01T13:25:09Z</time><pdop>10.0</pdop><geoidheight>54.00</geoidheight><course>70.7</course><type>1</type></trkpt>
      <trkpt lat="40.56404171" lon="-5.02590945"><ele>2579</ele><speed>14.78</speed><time>2016-07-01T13:25:11Z</time><pdop>11.0</pdop><geoidheight>54.00</geoidheight><course>70.3</course><type>1</type></trkpt>
      <trkpt lat="40.56415015" lon="-5.0256759"><ele>2578</ele><speed>11.73</speed><time>2016-07-01T13:25:13Z</time><pdop>10.0</pdop><geoidheight>54.00</geoidheight><course>65.0</course><type>1</type></trkpt>
      <trkpt lat="40.56426209" lon="-5.02538338"><ele>2581</ele><speed>9.37</speed><time>2016-07-01T13:25:16Z</time><pdop>10.0</pdop><geoidheight>54.00</geoidheight><course>56.8</course><type>1</type></trkpt>
      <trkpt lat="40.56448714" lon="-5.02527882"><ele>2584</ele><speed>11.00</speed><time>2016-07-01T13:25:18Z</time><pdop>9.0</pdop><geoidheight>54.00</geoidheight><course>22.7</course><type>1</type></trkpt>
      <trkpt lat="40.56467549" lon="-5.02519925"><ele>2589</ele><speed>11.77</speed><time>2016-07-01T13:25:20Z</time><pdop>9.0</pdop><geoidheight>54.00</geoidheight><course>21.3</course><type>1</type></trkpt>
      <trkpt lat="40.56486582" lon="-5.02509375"><ele>2592</ele><speed>11.36</speed><time>2016-07-01T13:25:22Z</time><pdop>10.0</pdop><geoidheight>54.00</geoidheight><course>24.7</course><type>1</type></trkpt>
      <trkpt lat="40.56503554" lon="-5.02500571"><ele>2595</ele><speed>10.17</speed><time>2016-07-01T13:25:24Z</time><pdop>9.0</pdop><geoidheight>54.00</geoidheight><course>18.6</course><type>1</type></trkpt>
      <trkpt lat="40.56520856" lon="-5.02502194"><ele>2595</ele><speed>8.82</speed><time>2016-07-01T13:25:26Z</time><pdop>9.0</pdop><geoidheight>54.00</geoidheight><course>354.5</course><type>1</type></trkpt>
      <trkpt lat="40.56536385" lon="-5.02523707"><ele>2598</ele><speed>7.50</speed><time>2016-07-01T13:25:29Z</time><pdop>11.0</pdop><geoidheight>54.00</geoidheight><course>316.9</course><type>1</type></trkpt>
      <trkpt lat="40.56546405" lon="-5.02547965"><ele>2603</ele><speed>5.31</speed><time>2016-07-01T13:25:33Z</time><pdop>9.0</pdop><geoidheight>54.00</geoidheight><course>296.7</course><type>1</type></trkpt>
      <trkpt lat="40.56541866" lon="-5.02571283"><ele>2688</ele><speed>6.50</speed><time>2016-07-01T13:25:36Z</time><pdop>10.0</pdop><geoidheight>54.00</geoidheight><course>238.9</course><type>1</type></trkpt>
      <trkpt lat="40.56524596" lon="-5.02582328"><ele>2653</ele><speed>8.66</speed><time>2016-07-01T13:25:38Z</time><pdop>11.0</pdop><geoidheight>54.00</geoidheight><course>211.7</course><type>1</type></trkpt>
      <trkpt lat="40.56504485" lon="-5.02572791"><ele>2632</ele><speed>9.28</speed><time>2016-07-01T13:25:40Z</time><pdop>10.0</pdop><geoidheight>54.00</geoidheight><course>164.8</course><type>1</type></trkpt>
      <trkpt lat="40.5648244" lon="-5.02552928"><ele>2626</ele><speed>13.21</speed><time>2016-07-01T13:25:42Z</time><pdop>10.0</pdop><geoidheight>54.00</geoidheight><course>142.1</course><type>1</type></trkpt>
      <trkpt lat="40.56463407" lon="-5.02533812"><ele>2619</ele><speed>13.25</speed><time>2016-07-01T13:25:44Z</time><pdop>9.0</pdop><geoidheight>54.00</geoidheight><course>139.3</course><type>1</type></trkpt>
      <trkpt lat="40.56445197" lon="-5.02514617"><ele>2619</ele><speed>13.56</speed><time>2016-07-01T13:25:46Z</time><pdop>9.0</pdop><geoidheight>54.00</geoidheight><course>139.4</course><type>1</type></trkpt>
      <trkpt lat="40.56429571" lon="-5.02488732"><ele>2621</ele><speed>13.34</speed><time>2016-07-01T13:25:48Z</time><pdop>9.0</pdop><geoidheight>54.00</geoidheight><course>134.1</course><type>1</type></trkpt>
      <trkpt lat="40.56412898" lon="-5.02463354"><ele>2623</ele><speed>14.63</speed><time>2016-07-01T13:25:50Z</time><pdop>10.0</pdop><geoidheight>54.00</geoidheight><course>130.4</course><type>1</type></trkpt>
      <trkpt lat="40.56392636" lon="-5.02443247"><ele>2623</ele><speed>14.60</speed><time>2016-07-01T13:25:52Z</time><pdop>10.0</pdop><geoidheight>54.00</geoidheight><course>138.2</course><type>1</type></trkpt>
      <trkpt lat="40.56374448" lon="-5.02437782"><ele>2625</ele><speed>11.84</speed><time>2016-07-01T13:25:54Z</time><pdop>10.0</pdop><geoidheight>54.00</geoidheight><course>161.3</course><type>1</type></trkpt>
      <trkpt lat="40.56356955" lon="-5.02453825"><ele>2628</ele><speed>10.70</speed><time>2016-07-01T13:25:56Z</time><pdop>10.0</pdop><geoidheight>54.00</geoidheight><course>198.9</course><type>1</type></trkpt>
      <trkpt lat="40.56366801" lon="-5.0247728"><ele>2630</ele><speed>2.03</speed><time>2016-07-01T13:26:01Z</time><pdop>12.0</pdop><geoidheight>54.00</geoidheight><course>280.9</course><type>1</type></trkpt>
      <trkpt lat="40.56397734" lon="-5.02445966"><ele>2636</ele><speed>10.17</speed><time>2016-07-01T13:26:04Z</time><pdop>12.0</pdop><geoidheight>54.00</geoidheight><course>52.9</course><type>1</type></trkpt>
      <trkpt lat="40.56408203" lon="-5.02411545"><ele>2641</ele><speed>13.73</speed><time>2016-07-01T13:26:06Z</time><pdop>7.0</pdop><geoidheight>54.00</geoidheight><course>79.1</course><type>1</type></trkpt>
      <trkpt lat="40.56409326" lon="-5.02393861"><ele>2644</ele><speed>13.92</speed><time>2016-07-01T13:26:07Z</time><pdop>7.0</pdop><geoidheight>54.00</geoidheight><course>88.9</course><type>1</type></trkpt>
      <trkpt lat="40.56410638" lon="-5.02375991"><ele>2648</ele><speed>14.02</speed><time>2016-07-01T13:26:08Z</time><pdop>5.0</pdop><geoidheight>54.00</geoidheight><course>100.1</course><type>1</type></trkpt>
      <trkpt lat="40.56409185" lon="-5.02359717"><ele>2651</ele><speed>14.16</speed><time>2016-07-01T13:26:09Z</time><pdop>4.0</pdop><geoidheight>54.00</geoidheight><course>109.3</course><type>1</type></trkpt>
      <trkpt lat="40.56402315" lon="-5.02344995"><ele>2655</ele><speed>14.38</speed><time>2016-07-01T13:26:10Z</time><pdop>4.0</pdop><geoidheight>54.00</geoidheight><course>121.7</course><type>1</type></trkpt>
      <trkpt lat="40.56393776" lon="-5.02333389"><ele>2657</ele><speed>14.57</speed><time>2016-07-01T13:26:11Z</time><pdop>4.0</pdop><geoidheight>54.00</geoidheight><course>134.4</course><type>1</type></trkpt>
      <trkpt lat="40.56383817" lon="-5.02323413"><ele>2659</ele><speed>14.26</speed><time>2016-07-01T13:26:12Z</time><pdop>4.0</pdop><geoidheight>54.00</geoidheight><course>143.5</course><type>1</type></trkpt>
      <trkpt lat="40.56373991" lon="-5.02320278"><ele>2661</ele><speed>12.38</speed><time>2016-07-01T13:26:13Z</time><pdop>5.0</pdop><geoidheight>54.00</geoidheight><course>155.7</course><type>1</type></trkpt>
      <trkpt lat="40.56362567" lon="-5.02319261"><ele>2661</ele><speed>12.46</speed><time>2016-07-01T13:26:14Z</time><pdop>6.0</pdop><geoidheight>54.00</geoidheight><course>166.9</course><type>1</type></trkpt>
      <trkpt lat="40.56349851" lon="-5.02331016"><ele>2661</ele><speed>9.99</speed><time>2016-07-01T13:26:16Z</time><pdop>8.0</pdop><geoidheight>54.00</geoidheight><course>200.8</course><type>1</type></trkpt>
      <trkpt lat="40.56362694" lon="-5.02348616"><ele>2667</ele><speed>5.47</speed><time>2016-07-01T13:26:18Z</time><pdop>6.0</pdop><geoidheight>54.00</geoidheight><course>289.6</course><type>1</type></trkpt>
      <trkpt lat="40.5637345" lon="-5.02360981"><ele>2668</ele><speed>6.97</speed><time>2016-07-01T13:26:20Z</time><pdop>7.0</pdop><geoidheight>54.00</geoidheight><course>320.1</course><type>1</type></trkpt>
      <trkpt lat="40.5639882" lon="-5.0235696"><ele>2671</ele><speed>8.14</speed><time>2016-07-01T13:26:23Z</time><pdop>9.0</pdop><geoidheight>54.00</geoidheight><course>1.0</course><type>1</type></trkpt>
      <trkpt lat="40.56410881" lon="-5.02337967"><ele>2675</ele><speed>7.90</speed><time>2016-07-01T13:26:25Z</time><pdop>8.0</pdop><geoidheight>54.00</geoidheight><course>36.6</course><type>1</type></trkpt>
      <trkpt lat="40.56416168" lon="-5.0232092"><ele>2677</ele><speed>10.21</speed><time>2016-07-01T13:26:26Z</time><pdop>7.0</pdop><geoidheight>54.00</geoidheight><course>61.8</course><type>1</type></trkpt>
      <trkpt lat="40.56418765" lon="-5.02304071"><ele>2680</ele><speed>12.20</speed><time>2016-07-01T13:26:27Z</time><pdop>7.0</pdop><geoidheight>54.00</geoidheight><course>78.5</course><type>1</type></trkpt>
      <trkpt lat="40.56420854" lon="-5.02285083"><ele>2683</ele><speed>13.41</speed><time>2016-07-01T13:26:28Z</time><pdop>7.0</pdop><geoidheight>54.00</geoidheight><course>82.6</course><type>1</type></trkpt>
      <trkpt lat="40.56421278" lon="-5.02266449"><ele>2684</ele><speed>13.91</speed><time>2016-07-01T13:26:29Z</time><pdop>6.0</pdop><geoidheight>54.00</geoidheight><course>88.8</course><type>1</type></trkpt>
      <trkpt lat="40.56413785" lon="-5.02251371"><ele>2690</ele><speed>14.34</speed><time>2016-07-01T13:26:30Z</time><pdop>6.0</pdop><geoidheight>54.00</geoidheight><course>114.5</course><type>1</type></trkpt>
      <trkpt lat="40.56399371" lon="-5.02231259"><ele>2692</ele><speed>11.68</speed><time>2016-07-01T13:26:32Z</time><pdop>6.0</pdop><geoidheight>54.00</geoidheight><course>134.0</course><type>1</type></trkpt>
      <trkpt lat="40.56384776" lon="-5.02236937"><ele>2695</ele><speed>8.14</speed><time>2016-07-01T13:26:34Z</time><pdop>5.0</pdop><geoidheight>54.00</geoidheight><course>198.8</course><type>1</type></trkpt>
      <trkpt lat="40.56373566" lon="-5.02246395"><ele>2696</ele><speed>8.23</speed><time>2016-07-01T13:26:36Z</time><pdop>5.0</pdop><geoidheight>54.00</geoidheight><course>215.3</course><type>1</type></trkpt>
      <trkpt lat="40.5637311" lon="-5.02263118"><ele>2698</ele><speed>6.58</speed><time>2016-07-01T13:26:38Z</time><pdop>8.0</pdop><geoidheight>54.00</geoidheight><course>254.3</course><type>1</type></trkpt>
      <trkpt lat="40.56374489" lon="-5.02287347"><ele>2701</ele><speed>8.92</speed><time>2016-07-01T13:26:40Z</time><pdop>8.0</pdop><geoidheight>54.00</geoidheight><course>275.4</course><type>1</type></trkpt>
      <trkpt lat="40.5638237" lon="-5.02304337"><ele>2705</ele><speed>8.18</speed><time>2016-07-01T13:26:42Z</time><pdop>6.0</pdop><geoidheight>54.00</geoidheight><course>292.8</course><type>1</type></trkpt>
      <trkpt lat="40.56392189" lon="-5.02306479"><ele>2708</ele><speed>7.67</speed><time>2016-07-01T13:26:43Z</time><pdop>5.0</pdop><geoidheight>54.00</geoidheight><course>329.3</course><type>1</type></trkpt>
      <trkpt lat="40.56405753" lon="-5.02307444"><ele>2711</ele><speed>7.71</speed><time>2016-07-01T13:26:45Z</time><pdop>6.0</pdop><geoidheight>54.00</geoidheight><course>353.2</course><type>1</type></trkpt>
      <trkpt lat="40.56422244" lon="-5.02300544"><ele>2714</ele><speed>9.47</speed><time>2016-07-01T13:26:47Z</time><pdop>6.0</pdop><geoidheight>54.00</geoidheight><course>14.1</course><type>1</type></trkpt>
      <trkpt lat="40.56433558" lon="-5.02274875"><ele>2717</ele><speed>12.17</speed><time>2016-07-01T13:26:49Z</time><pdop>9.0</pdop><geoidheight>54.00</geoidheight><course>48.3</course><type>1</type></trkpt>
      <trkpt lat="40.56442297" lon="-5.02258354"><ele>2717</ele><speed>14.00</speed><time>2016-07-01T13:26:50Z</time><pdop>8.0</pdop><geoidheight>54.00</geoidheight><course>53.3</course><type>1</type></trkpt>
      <trkpt lat="40.56440714" lon="-5.02237691"><ele>2714</ele><speed>14.94</speed><time>2016-07-01T13:26:51Z</time><pdop>7.0</pdop><geoidheight>54.00</geoidheight><course>65.0</course><type>1</type></trkpt>
      <trkpt lat="40.56447364" lon="-5.0222186"><ele>2716</ele><speed>15.02</speed><time>2016-07-01T13:26:52Z</time><pdop>6.0</pdop><geoidheight>54.00</geoidheight><course>65.3</course><type>1</type></trkpt>
      <trkpt lat="40.56453491" lon="-5.02205537"><ele>2718</ele><speed>14.79</speed><time>2016-07-01T13:26:53Z</time><pdop>6.0</pdop><geoidheight>54.00</geoidheight><course>65.7</course><type>1</type></trkpt>
      <trkpt lat="40.56459923" lon="-5.02189587"><ele>2720</ele><speed>14.80</speed><time>2016-07-01T13:26:54Z</time><pdop>6.0</pdop><geoidheight>54.00</geoidheight><course>64.7</course><type>1</type></trkpt>
      <trkpt lat="40.56465353" lon="-5.02172043"><ele>2721</ele><speed>15.16</speed><time>2016-07-01T13:26:55Z</time><pdop>6.0</pdop><geoidheight>54.00</geoidheight><course>64.7</course><type>1</type></trkpt>
      <trkpt lat="40.56472724" lon="-5.02156361"><ele>2722</ele><speed>15.21</speed><time>2016-07-01T13:26:56Z</time><pdop>5.0</pdop><geoidheight>54.00</geoidheight><course>64.7</course><type>1</type></trkpt>
      <trkpt lat="40.56478069" lon="-5.02140785"><ele>2723</ele><speed>14.80</speed><time>2016-07-01T13:26:57Z</time><pdop>5.0</pdop><geoidheight>54.00</geoidheight><course>66.5</course><type>1</type></trkpt>
      <trkpt lat="40.56483046" lon="-5.02124112"><ele>2724</ele><speed>14.97</speed><time>2016-07-01T13:26:58Z</time><pdop>5.0</pdop><geoidheight>54.00</geoidheight><course>69.2</course><type>1</type></trkpt>
      <trkpt lat="40.5648841" lon="-5.02107513"><ele>2724</ele><speed>15.51</speed><time>2016-07-01T13:26:59Z</time><pdop>5.0</pdop><geoidheight>54.00</geoidheight><course>69.7</course><type>1</type></trkpt>
      <trkpt lat="40.56494199" lon="-5.02087937"><ele>2724</ele><speed>16.17</speed><time>2016-07-01T13:27:00Z</time><pdop>6.0</pdop><geoidheight>54.00</geoidheight><course>69.4</course><type>1</type></trkpt>
      <trkpt lat="40.56495654" lon="-5.02068876"><ele>2724</ele><speed>16.09</speed><time>2016-07-01T13:27:01Z</time><pdop>7.0</pdop><geoidheight>54.00</geoidheight><course>72.8</course><type>1</type></trkpt>
      <trkpt lat="40.56504884" lon="-5.02051205"><ele>2725</ele><speed>16.25</speed><time>2016-07-01T13:27:02Z</time><pdop>5.0</pdop><geoidheight>54.00</geoidheight><course>67.0</course><type>1</type></trkpt>
      <trkpt lat="40.56509731" lon="-5.02035745"><ele>2728</ele><speed>15.37</speed><time>2016-07-01T13:27:03Z</time><pdop>4.0</pdop><geoidheight>54.00</geoidheight><course>67.9</course><type>1</type></trkpt>
      <trkpt lat="40.56514044" lon="-5.02021671"><ele>2729</ele><speed>14.30</speed><time>2016-07-01T13:27:04Z</time><pdop>4.0</pdop><geoidheight>54.00</geoidheight><course>67.7</course><type>1</type></trkpt>
      <trkpt lat="40.56519293" lon="-5.02006821"><ele>2730</ele><speed>13.60</speed><time>2016-07-01T13:27:05Z</time><pdop>4.0</pdop><geoidheight>54.00</geoidheight><course>65.6</course><type>1</type></trkpt>
      <trkpt lat="40.565251" lon="-5.01991878"><ele>2731</ele><speed>13.58</speed><time>2016-07-01T13:27:06Z</time><pdop>4.0</pdop><geoidheight>54.00</geoidheight><course>64.9</course><type>1</type></trkpt>
      <trkpt lat="40.56530728" lon="-5.01977157"><ele>2733</ele><speed>13.58</speed><time>2016-07-01T13:27:07Z</time><pdop>4.0</pdop><geoidheight>54.00</geoidheight><course>64.9</course><type>1</type></trkpt>
      <trkpt lat="40.56536187" lon="-5.01962499"><ele>2734</ele><speed>13.91</speed><time>2016-07-01T13:27:08Z</time><pdop>5.0</pdop><geoidheight>54.00</geoidheight><course>65.0</course><type>1</type></trkpt>
      <trkpt lat="40.56544739" lon="-5.01946464"><ele>2734</ele><speed>15.08</speed><time>2016-07-01T13:27:09Z</time><pdop>5.0</pdop><geoidheight>54.00</geoidheight><course>61.4</course><type>1</type></trkpt>
      <trkpt lat="40.56553733" lon="-5.01930186"><ele>2734</ele><speed>15.93</speed><time>2016-07-01T13:27:10Z</time><pdop>5.0</pdop><geoidheight>54.00</geoidheight><course>58.9</course><type>1</type></trkpt>
      <trkpt lat="40.56563774" lon="-5.01912858"><ele>2733</ele><speed>16.79</speed><time>2016-07-01T13:27:11Z</time><pdop>6.0</pdop><geoidheight>54.00</geoidheight><course>57.4</course><type>1</type></trkpt>
      <trkpt lat="40.56567134" lon="-5.01892494"><ele>2731</ele><speed>17.31</speed><time>2016-07-01T13:27:12Z</time><pdop>5.0</pdop><geoidheight>54.00</geoidheight><course>63.7</course><type>1</type></trkpt>
      <trkpt lat="40.56573707" lon="-5.01872281"><ele>2732</ele><speed>17.67</speed><time>2016-07-01T13:27:13Z</time><pdop>5.0</pdop><geoidheight>54.00</geoidheight><course>65.0</course><type>1</type></trkpt>
      <trkpt lat="40.56577169" lon="-5.01854048"><ele>2732</ele><speed>16.89</speed><time>2016-07-01T13:27:14Z</time><pdop>5.0</pdop><geoidheight>54.00</geoidheight><course>67.3</course><type>1</type></trkpt>
      <trkpt lat="40.56582698" lon="-5.01833331"><ele>2732</ele><speed>16.90</speed><time>2016-07-01T13:27:15Z</time><pdop>5.0</pdop><geoidheight>54.00</geoidheight><course>67.3</course><type>1</type></trkpt>
      <trkpt lat="40.56588507" lon="-5.01815437"><ele>2731</ele><speed>16.73</speed><time>2016-07-01T13:27:16Z</time><pdop>5.0</pdop><geoidheight>54.00</geoidheight><course>67.2</course><type>1</type></trkpt>
      <trkpt lat="40.56596064" lon="-5.01798767"><ele>2731</ele><speed>16.72</speed><time>2016-07-01T13:27:17Z</time><pdop>5.0</pdop><geoidheight>54.00</geoidheight><course>64.9</course><type>1</type></trkpt>
      <trkpt lat="40.56602714" lon="-5.01784579"><ele>2730</ele><speed>16.27</speed><time>2016-07-01T13:27:18Z</time><pdop>5.0</pdop><geoidheight>54.00</geoidheight><course>62.6</course><type>1</type></trkpt>
      <trkpt lat="40.56608254" lon="-5.01767889"><ele>2729</ele><speed>16.04</speed><time>2016-07-01T13:27:19Z</time><pdop>5.0</pdop><geoidheight>54.00</geoidheight><course>63.9</course><type>1</type></trkpt>
      <trkpt lat="40.56612708" lon="-5.01751302"><ele>2729</ele><speed>15.84</speed><time>2016-07-01T13:27:20Z</time><pdop>5.0</pdop><geoidheight>54.00</geoidheight><course>66.2</course><type>1</type></trkpt>
      <trkpt lat="40.56618441" lon="-5.01735922"><ele>2729</ele><speed>15.54</speed><time>2016-07-01T13:27:21Z</time><pdop>5.0</pdop><geoidheight>54.00</geoidheight><course>67.3</course><type>1</type></trkpt>
      <trkpt lat="40.56622413" lon="-5.01716673"><ele>2726</ele><speed>15.11</speed><time>2016-07-01T13:27:22Z</time><pdop>3.0</pdop><geoidheight>54.00</geoidheight><course>72.9</course><type>1</type></trkpt>
      <trkpt lat="40.56626088" lon="-5.01698788"><ele>2724</ele><speed>14.96</speed><time>2016-07-01T13:27:23Z</time><pdop>3.0</pdop><geoidheight>54.00</geoidheight><course>75.2</course><type>1</type></trkpt>
      <trkpt lat="40.56629349" lon="-5.01677281"><ele>2722</ele><speed>17.12</speed><time>2016-07-01T13:27:24Z</time><pdop>3.0</pdop><geoidheight>54.00</geoidheight><course>77.8</course><type>1</type></trkpt>
      <trkpt lat="40.56634163" lon="-5.0165662"><ele>2721</ele><speed>17.96</speed><time>2016-07-01T13:27:25Z</time><pdop>3.0</pdop><geoidheight>54.00</geoidheight><course>74.5</course><type>1</type></trkpt>
      <trkpt lat="40.56639708" lon="-5.0163666"><ele>2720</ele><speed>18.03</speed><time>2016-07-01T13:27:26Z</time><pdop>3.0</pdop><geoidheight>54.00</geoidheight><course>71.3</course><type>1</type></trkpt>
      <trkpt lat="40.5664546" lon="-5.01616763"><ele>2719</ele><speed>17.48</speed><time>2016-07-01T13:27:27Z</time><pdop>3.0</pdop><geoidheight>54.00</geoidheight><course>71.2</course><type>1</type></trkpt>
      <trkpt lat="40.56651084" lon="-5.01597669"><ele>2719</ele><speed>17.27</speed><time>2016-07-01T13:27:28Z</time><pdop>3.0</pdop><geoidheight>54.00</geoidheight><course>69.2</course><type>1</type></trkpt>
      <trkpt lat="40.56657675" lon="-5.01579574"><ele>2717</ele><speed>17.09</speed><time>2016-07-01T13:27:29Z</time><pdop>3.0</pdop><geoidheight>54.00</geoidheight><course>66.6</course><type>1</type></trkpt>
      <trkpt lat="40.56663755" lon="-5.01560512"><ele>2717</ele><speed>17.38</speed><time>2016-07-01T13:27:30Z</time><pdop>3.0</pdop><geoidheight>54.00</geoidheight><course>66.6</course><type>1</type></trkpt>
      <trkpt lat="40.56670508" lon="-5.01541767"><ele>2717</ele><speed>17.77</speed><time>2016-07-01T13:27:31Z</time><pdop>3.0</pdop><geoidheight>54.00</geoidheight><course>66.5</course><type>1</type></trkpt>
      <trkpt lat="40.56676397" lon="-5.01522483"><ele>2717</ele><speed>17.58</speed><time>2016-07-01T13:27:32Z</time><pdop>3.0</pdop><geoidheight>54.00</geoidheight><course>68.3</course><type>1</type></trkpt>
      <trkpt lat="40.56679848" lon="-5.01506663"><ele>2717</ele><speed>16.12</speed><time>2016-07-01T13:27:33Z</time><pdop>3.0</pdop><geoidheight>54.00</geoidheight><course>72.4</course><type>1</type></trkpt>
      <trkpt lat="40.5668366" lon="-5.0148952"><ele>2718</ele><speed>15.27</speed><time>2016-07-01T13:27:34Z</time><pdop>3.0</pdop><geoidheight>54.00</geoidheight><course>73.2</course><type>1</type></trkpt>
      <trkpt lat="40.56687746" lon="-5.01471518"><ele>2717</ele><speed>15.18</speed><time>2016-07-01T13:27:35Z</time><pdop>3.0</pdop><geoidheight>54.00</geoidheight><course>73.3</course><type>1</type></trkpt>
      <trkpt lat="40.56692507" lon="-5.01454035"><ele>2717</ele><speed>15.03</speed><time>2016-07-01T13:27:36Z</time><pdop>3.0</pdop><geoidheight>54.00</geoidheight><course>73.0</course><type>1</type></trkpt>
      <trkpt lat="40.5669715" lon="-5.01437115"><ele>2715</ele><speed>14.87</speed><time>2016-07-01T13:27:37Z</time><pdop>3.0</pdop><geoidheight>54.00</geoidheight><course>73.0</course><type>1</type></trkpt>
      <trkpt lat="40.56700668" lon="-5.01420497"><ele>2713</ele><speed>14.44</speed><time>2016-07-01T13:27:38Z</time><pdop>3.0</pdop><geoidheight>54.00</geoidheight><course>72.2</course><type>1</type></trkpt>
      <trkpt lat="40.56704659" lon="-5.0140365"><ele>2713</ele><speed>14.51</speed><time>2016-07-01T13:27:39Z</time><pdop>3.0</pdop><geoidheight>54.00</geoidheight><course>72.1</course><type>1</type></trkpt>
      <trkpt lat="40.56709429" lon="-5.01388897"><ele>2712</ele><speed>14.20</speed><time>2016-07-01T13:27:40Z</time><pdop>4.0</pdop><geoidheight>54.00</geoidheight><course>70.4</course><type>1</type></trkpt>
      <trkpt lat="40.56713847" lon="-5.01370967"><ele>2712</ele><speed>14.87</speed><time>2016-07-01T13:27:41Z</time><pdop>5.0</pdop><geoidheight>54.00</geoidheight><course>70.5</course><type>1</type></trkpt>
      <trkpt lat="40.56717814" lon="-5.01352019"><ele>2711</ele><speed>15.84</speed><time>2016-07-01T13:27:42Z</time><pdop>6.0</pdop><geoidheight>54.00</geoidheight><course>71.0</course><type>1</type></trkpt>
      <trkpt lat="40.56724702" lon="-5.01326031"><ele>2711</ele><speed>18.56</speed><time>2016-07-01T13:27:43Z</time><pdop>7.0</pdop><geoidheight>54.00</geoidheight><course>70.8</course><type>1</type></trkpt>
      <trkpt lat="40.56730444" lon="-5.01304771"><ele>2710</ele><speed>19.03</speed><time>2016-07-01T13:27:44Z</time><pdop>6.0</pdop><geoidheight>54.00</geoidheight><course>69.9</course><type>1</type></trkpt>
      <trkpt lat="40.56738285" lon="-5.01284581"><ele>2710</ele><speed>18.60</speed><time>2016-07-01T13:27:45Z</time><pdop>5.0</pdop><geoidheight>54.00</geoidheight><course>66.3</course><type>1</type></trkpt>
      <trkpt lat="40.56745166" lon="-5.01265811"><ele>2710</ele><speed>16.59</speed><time>2016-07-01T13:27:46Z</time><pdop>4.0</pdop><geoidheight>54.00</geoidheight><course>67.0</course><type>1</type></trkpt>
      <trkpt lat="40.56748071" lon="-5.01248833"><ele>2707</ele><speed>15.59</speed><time>2016-07-01T13:27:47Z</time><pdop>4.0</pdop><geoidheight>54.00</geoidheight><course>71.1</course><type>1</type></trkpt>
      <trkpt lat="40.56752146" lon="-5.01231675"><ele>2707</ele><speed>15.53</speed><time>2016-07-01T13:27:48Z</time><pdop>4.0</pdop><geoidheight>54.00</geoidheight><course>74.3</course><type>1</type></trkpt>
      <trkpt lat="40.56757054" lon="-5.01214157"><ele>2706</ele><speed>15.97</speed><time>2016-07-01T13:27:49Z</time><pdop>4.0</pdop><geoidheight>54.00</geoidheight><course>74.7</course><type>1</type></trkpt>
      <trkpt lat="40.56760926" lon="-5.01195907"><ele>2705</ele><speed>16.38</speed><time>2016-07-01T13:27:50Z</time><pdop>5.0</pdop><geoidheight>54.00</geoidheight><course>74.9</course><type>1</type></trkpt>
      <trkpt lat="40.56765111" lon="-5.01177652"><ele>2705</ele><speed>15.52</speed><time>2016-07-01T13:27:51Z</time><pdop>5.0</pdop><geoidheight>54.00</geoidheight><course>73.6</course><type>1</type></trkpt>
      <trkpt lat="40.56770066" lon="-5.01162561"><ele>2703</ele><speed>14.11</speed><time>2016-07-01T13:27:52Z</time><pdop>3.0</pdop><geoidheight>54.00</geoidheight><course>68.6</course><type>1</type></trkpt>
      <trkpt lat="40.56775058" lon="-5.01147235"><ele>2701</ele><speed>13.86</speed><time>2016-07-01T13:27:53Z</time><pdop>4.0</pdop><geoidheight>54.00</geoidheight><course>67.1</course><type>1</type></trkpt>
      <trkpt lat="40.56780358" lon="-5.011322"><ele>2700</ele><speed>13.69</speed><time>2016-07-01T13:27:54Z</time><pdop>4.0</pdop><geoidheight>54.00</geoidheight><course>66.9</course><type>1</type></trkpt>
      <trkpt lat="40.56785381" lon="-5.01117828"><ele>2699</ele><speed>13.56</speed><time>2016-07-01T13:27:55Z</time><pdop>5.0</pdop><geoidheight>54.00</geoidheight><course>67.4</course><type>1</type></trkpt>
      <trkpt lat="40.56789913" lon="-5.011022"><ele>2699</ele><speed>13.90</speed><time>2016-07-01T13:27:56Z</time><pdop>5.0</pdop><geoidheight>54.00</geoidheight><course>67.6</course><type>1</type></trkpt>
      <trkpt lat="40.56794863" lon="-5.01086466"><ele>2696</ele><speed>14.74</speed><time>2016-07-01T13:27:57Z</time><pdop>6.0</pdop><geoidheight>54.00</geoidheight><course>66.8</course><type>1</type></trkpt>
      <trkpt lat="40.56801291" lon="-5.01070512"><ele>2694</ele><speed>15.57</speed><time>2016-07-01T13:27:58Z</time><pdop>5.0</pdop><geoidheight>54.00</geoidheight><course>65.8</course><type>1</type></trkpt>
      <trkpt lat="40.56805714" lon="-5.01051393"><ele>2692</ele><speed>16.32</speed><time>2016-07-01T13:27:59Z</time><pdop>5.0</pdop><geoidheight>54.00</geoidheight><course>67.5</course><type>1</type></trkpt>
      <trkpt lat="40.5681149" lon="-5.01030525"><ele>2690</ele><speed>17.60</speed><time>2016-07-01T13:28:00Z</time><pdop>4.0</pdop><geoidheight>54.00</geoidheight><course>69.5</course><type>1</type></trkpt>
      <trkpt lat="40.56819516" lon="-5.01011149"><ele>2689</ele><speed>17.69</speed><time>2016-07-01T13:28:01Z</time><pdop>4.0</pdop><geoidheight>54.00</geoidheight><course>65.2</course><type>1</type></trkpt>
      <trkpt lat="40.56826464" lon="-5.00994545"><ele>2688</ele><speed>16.80</speed><time>2016-07-01T13:28:02Z</time><pdop>4.0</pdop><geoidheight>54.00</geoidheight><course>60.7</course><type>1</type></trkpt>
      <trkpt lat="40.56833327" lon="-5.0097678"><ele>2685</ele><speed>16.52</speed><time>2016-07-01T13:28:03Z</time><pdop>3.0</pdop><geoidheight>54.00</geoidheight><course>62.1</course><type>1</type></trkpt>
      <trkpt lat="40.56839664" lon="-5.00959156"><ele>2683</ele><speed>16.14</speed><time>2016-07-01T13:28:04Z</time><pdop>3.0</pdop><geoidheight>54.00</geoidheight><course>66.1</course><type>1</type></trkpt>
      <trkpt lat="40.56846337" lon="-5.00943007"><ele>2681</ele><speed>16.04</speed><time>2016-07-01T13:28:05Z</time><pdop>4.0</pdop><geoidheight>54.00</geoidheight><course>66.2</course><type>1</type></trkpt>
      <trkpt lat="40.56852137" lon="-5.00924437"><ele>2677</ele><speed>16.41</speed><time>2016-07-01T13:28:06Z</time><pdop>3.0</pdop><geoidheight>54.00</geoidheight><course>66.7</course><type>1</type></trkpt>
      <trkpt lat="40.56857618" lon="-5.0090531"><ele>2673</ele><speed>17.41</speed><time>2016-07-01T13:28:07Z</time><pdop>3.0</pdop><geoidheight>54.00</geoidheight><course>68.5</course><type>1</type></trkpt>
      <trkpt lat="40.56862166" lon="-5.00884482"><ele>2670</ele><speed>18.23</speed><time>2016-07-01T13:28:08Z</time><pdop>3.0</pdop><geoidheight>54.00</geoidheight><course>72.1</course><type>1</type></trkpt>
      <trkpt lat="40.5686765" lon="-5.00864262"><ele>2667</ele><speed>18.64</speed><time>2016-07-01T13:28:09Z</time><pdop>4.0</pdop><geoidheight>54.00</geoidheight><course>72.7</course><type>1</type></trkpt>
      <trkpt lat="40.56871375" lon="-5.0084351"><ele>2666</ele><speed>18.22</speed><time>2016-07-01T13:28:10Z</time><pdop>3.0</pdop><geoidheight>54.00</geoidheight><course>74.0</course><type>1</type></trkpt>
      <trkpt lat="40.56874134" lon="-5.00824216"><ele>2663</ele><speed>17.41</speed><time>2016-07-01T13:28:11Z</time><pdop>3.0</pdop><geoidheight>54.00</geoidheight><course>76.2</course><type>1</type></trkpt>
      <trkpt lat="40.56876799" lon="-5.00805094"><ele>2662</ele><speed>16.64</speed><time>2016-07-01T13:28:12Z</time><pdop>3.0</pdop><geoidheight>54.00</geoidheight><course>79.3</course><type>1</type></trkpt>
      <trkpt lat="40.56879543" lon="-5.00785879"><ele>2660</ele><speed>16.44</speed><time>2016-07-01T13:28:13Z</time><pdop>3.0</pdop><geoidheight>54.00</geoidheight><course>80.8</course><type>1</type></trkpt>
      <trkpt lat="40.5688261" lon="-5.00767434"><ele>2657</ele><speed>16.47</speed><time>2016-07-01T13:28:14Z</time><pdop>3.0</pdop><geoidheight>54.00</geoidheight><course>80.0</course><type>1</type></trkpt>
      <trkpt lat="40.56885815" lon="-5.00749285"><ele>2655</ele><speed>16.11</speed><time>2016-07-01T13:28:15Z</time><pdop>3.0</pdop><geoidheight>54.00</geoidheight><course>79.0</course><type>1</type></trkpt>
      <trkpt lat="40.56888371" lon="-5.00731732"><ele>2654</ele><speed>15.69</speed><time>2016-07-01T13:28:16Z</time><pdop>3.0</pdop><geoidheight>54.00</geoidheight><course>80.3</course><type>1</type></trkpt>
      <trkpt lat="40.56890276" lon="-5.00713517"><ele>2652</ele><speed>15.38</speed><time>2016-07-01T13:28:17Z</time><pdop>3.0</pdop><geoidheight>54.00</geoidheight><course>81.8</course><type>1</type></trkpt>
      <trkpt lat="40.56892589" lon="-5.00695915"><ele>2648</ele><speed>15.29</speed><time>2016-07-01T13:28:18Z</time><pdop>3.0</pdop><geoidheight>54.00</geoidheight><course>81.2</course><type>1</type></trkpt>
      <trkpt lat="40.56895249" lon="-5.00677988"><ele>2646</ele><speed>15.42</speed><time>2016-07-01T13:28:19Z</time><pdop>3.0</pdop><geoidheight>54.00</geoidheight><course>78.8</course><type>1</type></trkpt>
      <trkpt lat="40.56898947" lon="-5.00660378"><ele>2642</ele><speed>15.49</speed><time>2016-07-01T13:28:20Z</time><pdop>3.0</pdop><geoidheight>54.00</geoidheight><course>76.2</course><type>1</type></trkpt>
      <trkpt lat="40.56902507" lon="-5.0064272"><ele>2640</ele><speed>15.49</speed><time>2016-07-01T13:28:21Z</time><pdop>3.0</pdop><geoidheight>54.00</geoidheight><course>75.7</course><type>1</type></trkpt>
      <trkpt lat="40.56905235" lon="-5.00624651"><ele>2637</ele><speed>15.32</speed><time>2016-07-01T13:28:22Z</time><pdop>3.0</pdop><geoidheight>54.00</geoidheight><course>77.0</course><type>1</type></trkpt>
      <trkpt lat="40.56908168" lon="-5.00607752"><ele>2634</ele><speed>15.29</speed><time>2016-07-01T13:28:23Z</time><pdop>3.0</pdop><geoidheight>54.00</geoidheight><course>77.4</course><type>1</type></trkpt>
      <trkpt lat="40.56910935" lon="-5.0058971"><ele>2632</ele><speed>15.68</speed><time>2016-07-01T13:28:24Z</time><pdop>3.0</pdop><geoidheight>54.00</geoidheight><course>77.4</course><type>1</type></trkpt>
      <trkpt lat="40.56913509" lon="-5.00572706"><ele>2628</ele><speed>15.85</speed><time>2016-07-01T13:28:25Z</time><pdop>3.0</pdop><geoidheight>54.00</geoidheight><course>77.8</course><type>1</type></trkpt>
      <trkpt lat="40.56916371" lon="-5.00553331"><ele>2625</ele><speed>16.17</speed><time>2016-07-01T13:28:26Z</time><pdop>3.0</pdop><geoidheight>54.00</geoidheight><course>78.7</course><type>1</type></trkpt>
      <trkpt lat="40.56919196" lon="-5.00534538"><ele>2622</ele><speed>16.41</speed><time>2016-07-01T13:28:27Z</time><pdop>3.0</pdop><geoidheight>54.00</geoidheight><course>79.7</course><type>1</type></trkpt>
      <trkpt lat="40.56921955" lon="-5.00514522"><ele>2620</ele><speed>16.85</speed><time>2016-07-01T13:28:28Z</time><pdop>3.0</pdop><geoidheight>54.00</geoidheight><course>79.6</course><type>1</type></trkpt>
      <trkpt lat="40.5692439" lon="-5.00494898"><ele>2617</ele><speed>17.08</speed><time>2016-07-01T13:28:29Z</time><pdop>3.0</pdop><geoidheight>54.00</geoidheight><course>79.1</course><type>1</type></trkpt>
      <trkpt lat="40.56927657" lon="-5.00475548"><ele>2616</ele><speed>16.90</speed><time>2016-07-01T13:28:30Z</time><pdop>3.0</pdop><geoidheight>54.00</geoidheight><course>77.8</course><type>1</type></trkpt>
      <trkpt lat="40.56930792" lon="-5.00458396"><ele>2614</ele><speed>16.38</speed><time>2016-07-01T13:28:31Z</time><pdop>3.0</pdop><geoidheight>54.00</geoidheight><course>76.6</course><type>1</type></trkpt>
      <trkpt lat="40.56934351" lon="-5.00440083"><ele>2612</ele><speed>15.70</speed><time>2016-07-01T13:28:32Z</time><pdop>3.0</pdop><geoidheight>54.00</geoidheight><course>75.4</course><type>1</type></trkpt>
      <trkpt lat="40.56937584" lon="-5.00422414"><ele>2610</ele><speed>15.32</speed><time>2016-07-01T13:28:33Z</time><pdop>3.0</pdop><geoidheight>54.00</geoidheight><course>75.4</course><type>1</type></trkpt>
      <trkpt lat="40.5694141" lon="-5.00404216"><ele>2606</ele><speed>15.79</speed><time>2016-07-01T13:28:34Z</time><pdop>3.0</pdop><geoidheight>54.00</geoidheight><course>76.2</course><type>1</type></trkpt>
      <trkpt lat="40.5694419" lon="-5.00385288"><ele>2602</ele><speed>16.46</speed><time>2016-07-01T13:28:35Z</time><pdop>3.0</pdop><geoidheight>54.00</geoidheight><course>78.9</course><type>1</type></trkpt>
      <trkpt lat="40.56945165" lon="-5.00365981"><ele>2596</ele><speed>16.91</speed><time>2016-07-01T13:28:36Z</time><pdop>3.0</pdop><geoidheight>54.00</geoidheight><course>83.7</course><type>1</type></trkpt>
      <trkpt lat="40.56946205" lon="-5.00346643"><ele>2590</ele><speed>17.41</speed><time>2016-07-01T13:28:37Z</time><pdop>3.0</pdop><geoidheight>54.00</geoidheight><course>85.8</course><type>1</type></trkpt>
      <trkpt lat="40.5694714" lon="-5.00327385"><ele>2587</ele><speed>17.10</speed><time>2016-07-01T13:28:38Z</time><pdop>3.0</pdop><geoidheight>54.00</geoidheight><course>85.0</course><type>1</type></trkpt>
      <trkpt lat="40.56948219" lon="-5.00307658"><ele>2585</ele><speed>16.60</speed><time>2016-07-01T13:28:39Z</time><pdop>3.0</pdop><geoidheight>54.00</geoidheight><course>84.5</course><type>1</type></trkpt>
      <trkpt lat="40.56949079" lon="-5.0029018"><ele>2582</ele><speed>15.64</speed><time>2016-07-01T13:28:40Z</time><pdop>3.0</pdop><geoidheight>54.00</geoidheight><course>85.6</course><type>1</type></trkpt>
      <trkpt lat="40.56950017" lon="-5.00273036"><ele>2578</ele><speed>15.69</speed><time>2016-07-01T13:28:41Z</time><pdop>3.0</pdop><geoidheight>54.00</geoidheight><course>85.0</course><type>1</type></trkpt>
      <trkpt lat="40.56951372" lon="-5.00253297"><ele>2573</ele><speed>16.70</speed><time>2016-07-01T13:28:42Z</time><pdop>3.0</pdop><geoidheight>54.00</geoidheight><course>86.0</course><type>1</type></trkpt>
      <trkpt lat="40.5695226" lon="-5.00233083"><ele>2568</ele><speed>17.65</speed><time>2016-07-01T13:28:43Z</time><pdop>4.0</pdop><geoidheight>54.00</geoidheight><course>86.9</course><type>1</type></trkpt>
      <trkpt lat="40.5695343" lon="-5.00210247"><ele>2567</ele><speed>18.84</speed><time>2016-07-01T13:28:44Z</time><pdop>3.0</pdop><geoidheight>54.00</geoidheight><course>85.3</course><type>1</type></trkpt>
      <trkpt lat="40.5695452" lon="-5.00186777"><ele>2564</ele><speed>19.43</speed><time>2016-07-01T13:28:45Z</time><pdop>4.0</pdop><geoidheight>54.00</geoidheight><course>86.0</course><type>1</type></trkpt>
      <trkpt lat="40.56954395" lon="-5.00163352"><ele>2563</ele><speed>19.71</speed><time>2016-07-01T13:28:46Z</time><pdop>3.0</pdop><geoidheight>54.00</geoidheight><course>88.5</course><type>1</type></trkpt>
      <trkpt lat="40.56953254" lon="-5.00141451"><ele>2562</ele><speed>19.03</speed><time>2016-07-01T13:28:47Z</time><pdop>3.0</pdop><geoidheight>54.00</geoidheight><course>91.9</course><type>1</type></trkpt>
      <trkpt lat="40.56952604" lon="-5.00119857"><ele>2560</ele><speed>18.38</speed><time>2016-07-01T13:28:48Z</time><pdop>4.0</pdop><geoidheight>54.00</geoidheight><course>93.1</course><type>1</type></trkpt>
      <trkpt lat="40.5695227" lon="-5.00099399"><ele>2566</ele><speed>17.53</speed><time>2016-07-01T13:28:49Z</time><pdop>4.0</pdop><geoidheight>54.00</geoidheight><course>92.9</course><type>1</type></trkpt>
      <trkpt lat="40.56952747" lon="-5.00078168"><ele>2562</ele><speed>17.72</speed><time>2016-07-01T13:28:50Z</time><pdop>9.0</pdop><geoidheight>54.00</geoidheight><course>89.0</course><type>1</type></trkpt>
      <trkpt lat="40.56954197" lon="-5.00056456"><ele>2559</ele><speed>18.13</speed><time>2016-07-01T13:28:51Z</time><pdop>9.0</pdop><geoidheight>54.00</geoidheight><course>87.0</course><type>1</type></trkpt>
      <trkpt lat="40.56955903" lon="-5.00033657"><ele>2555</ele><speed>18.40</speed><time>2016-07-01T13:28:52Z</time><pdop>9.0</pdop><geoidheight>54.00</geoidheight><course>86.4</course><type>1</type></trkpt>
      <trkpt lat="40.56959494" lon="-4.99992713"><ele>2550</ele><speed>17.66</speed><time>2016-07-01T13:28:54Z</time><pdop>9.0</pdop><geoidheight>54.00</geoidheight><course>84.1</course><type>1</type></trkpt>
      <trkpt lat="40.56962219" lon="-4.99953619"><ele>2545</ele><speed>17.22</speed><time>2016-07-01T13:28:56Z</time><pdop>9.0</pdop><geoidheight>54.00</geoidheight><course>86.4</course><type>1</type></trkpt>
      <trkpt lat="40.56963763" lon="-4.99913054"><ele>2541</ele><speed>17.27</speed><time>2016-07-01T13:28:58Z</time><pdop>10.0</pdop><geoidheight>54.00</geoidheight><course>85.8</course><type>1</type></trkpt>
      <trkpt lat="40.56965617" lon="-4.99869067"><ele>2538</ele><speed>19.29</speed><time>2016-07-01T13:29:00Z</time><pdop>10.0</pdop><geoidheight>54.00</geoidheight><course>85.4</course><type>1</type></trkpt>
      <trkpt lat="40.56969473" lon="-4.99843467"><ele>2536</ele><speed>20.94</speed><time>2016-07-01T13:29:01Z</time><pdop>10.0</pdop><geoidheight>54.00</geoidheight><course>81.9</course><type>1</type></trkpt>
      <trkpt lat="40.56970968" lon="-4.99799662"><ele>2533</ele><speed>19.41</speed><time>2016-07-01T13:29:03Z</time><pdop>10.0</pdop><geoidheight>54.00</geoidheight><course>86.2</course><type>1</type></trkpt>
      <trkpt lat="40.56970893" lon="-4.99759053"><ele>2532</ele><speed>17.14</speed><time>2016-07-01T13:29:05Z</time><pdop>10.0</pdop><geoidheight>54.00</geoidheight><course>92.1</course><type>1</type></trkpt>
      <trkpt lat="40.56970463" lon="-4.99718613"><ele>2526</ele><speed>17.06</speed><time>2016-07-01T13:29:07Z</time><pdop>9.0</pdop><geoidheight>54.00</geoidheight><course>91.9</course><type>1</type></trkpt>
      <trkpt lat="40.56969951" lon="-4.99675585"><ele>2522</ele><speed>17.99</speed><time>2016-07-01T13:29:09Z</time><pdop>9.0</pdop><geoidheight>54.00</geoidheight><course>91.8</course><type>1</type></trkpt>
      <trkpt lat="40.56969477" lon="-4.99654237"><ele>2518</ele><speed>18.25</speed><time>2016-07-01T13:29:10Z</time><pdop>9.0</pdop><geoidheight>54.00</geoidheight><course>93.4</course><type>1</type></trkpt>
      <trkpt lat="40.56968887" lon="-4.99631827"><ele>2517</ele><speed>18.91</speed><time>2016-07-01T13:29:11Z</time><pdop>9.0</pdop><geoidheight>54.00</geoidheight><course>93.7</course><type>1</type></trkpt>
      <trkpt lat="40.56967638" lon="-4.99609414"><ele>2514</ele><speed>19.01</speed><time>2016-07-01T13:29:12Z</time><pdop>9.0</pdop><geoidheight>54.00</geoidheight><course>94.6</course><type>1</type></trkpt>
      <trkpt lat="40.56966845" lon="-4.99587453"><ele>2512</ele><speed>18.56</speed><time>2016-07-01T13:29:13Z</time><pdop>9.0</pdop><geoidheight>54.00</geoidheight><course>93.6</course><type>1</type></trkpt>
      <trkpt lat="40.56966183" lon="-4.99545886"><ele>2508</ele><speed>17.64</speed><time>2016-07-01T13:29:15Z</time><pdop>9.0</pdop><geoidheight>54.00</geoidheight><course>89.6</course><type>1</type></trkpt>
      <trkpt lat="40.56967968" lon="-4.99504966"><ele>2503</ele><speed>17.40</speed><time>2016-07-01T13:29:17Z</time><pdop>9.0</pdop><geoidheight>54.00</geoidheight><course>87.7</course><type>1</type></trkpt>
      <trkpt lat="40.56969823" lon="-4.99461788"><ele>2498</ele><speed>18.39</speed><time>2016-07-01T13:29:19Z</time><pdop>9.0</pdop><geoidheight>54.00</geoidheight><course>86.8</course><type>1</type></trkpt>
      <trkpt lat="40.56970739" lon="-4.99439348"><ele>2495</ele><speed>19.00</speed><time>2016-07-01T13:29:20Z</time><pdop>9.0</pdop><geoidheight>54.00</geoidheight><course>87.4</course><type>1</type></trkpt>
      <trkpt lat="40.56971092" lon="-4.99416488"><ele>2491</ele><speed>19.25</speed><time>2016-07-01T13:29:21Z</time><pdop>9.0</pdop><geoidheight>54.00</geoidheight><course>89.9</course><type>1</type></trkpt>
      <trkpt lat="40.56970911" lon="-4.99394046"><ele>2489</ele><speed>19.03</speed><time>2016-07-01T13:29:22Z</time><pdop>9.0</pdop><geoidheight>54.00</geoidheight><course>91.3</course><type>1</type></trkpt>
      <trkpt lat="40.56970706" lon="-4.9937172"><ele>2486</ele><speed>18.95</speed><time>2016-07-01T13:29:23Z</time><pdop>9.0</pdop><geoidheight>54.00</geoidheight><course>91.8</course><type>1</type></trkpt>
      <trkpt lat="40.56970436" lon="-4.99349641"><ele>2487</ele><speed>18.32</speed><time>2016-07-01T13:29:24Z</time><pdop>9.0</pdop><geoidheight>54.00</geoidheight><course>90.4</course><type>1</type></trkpt>
      <trkpt lat="40.56971824" lon="-4.9931068"><ele>2487</ele><speed>16.25</speed><time>2016-07-01T13:29:26Z</time><pdop>9.0</pdop><geoidheight>54.00</geoidheight><course>88.6</course><type>1</type></trkpt>
      <trkpt lat="40.56966887" lon="-4.99282616"><ele>2488</ele><speed>12.21</speed><time>2016-07-01T13:29:28Z</time><pdop>9.0</pdop><geoidheight>54.00</geoidheight><course>103.2</course><type>1</type></trkpt>
      <trkpt lat="40.56964403" lon="-4.99254993"><ele>2486</ele><speed>12.37</speed><time>2016-07-01T13:29:30Z</time><pdop>9.0</pdop><geoidheight>54.00</geoidheight><course>91.7</course><type>1</type></trkpt>
      <trkpt lat="40.56964969" lon="-4.99239967"><ele>2483</ele><speed>13.10</speed><time>2016-07-01T13:29:31Z</time><pdop>3.0</pdop><geoidheight>54.00</geoidheight><course>87.0</course><type>1</type></trkpt>
      <trkpt lat="40.56965076" lon="-4.99224211"><ele>2482</ele><speed>13.50</speed><time>2016-07-01T13:29:32Z</time><pdop>4.0</pdop><geoidheight>54.00</geoidheight><course>88.1</course><type>1</type></trkpt>
      <trkpt lat="40.56964197" lon="-4.99206552"><ele>2481</ele><speed>14.06</speed><time>2016-07-01T13:29:33Z</time><pdop>5.0</pdop><geoidheight>54.00</geoidheight><course>90.8</course><type>1</type></trkpt>
      <trkpt lat="40.56964841" lon="-4.99190688"><ele>2480</ele><speed>14.15</speed><time>2016-07-01T13:29:34Z</time><pdop>5.0</pdop><geoidheight>54.00</geoidheight><course>89.9</course><type>1</type></trkpt>
      <trkpt lat="40.56966235" lon="-4.99174243"><ele>2480</ele><speed>14.17</speed><time>2016-07-01T13:29:35Z</time><pdop>7.0</pdop><geoidheight>54.00</geoidheight><course>87.9</course><type>1</type></trkpt>
      <trkpt lat="40.56968168" lon="-4.99156775"><ele>2481</ele><speed>14.27</speed><time>2016-07-01T13:29:36Z</time><pdop>7.0</pdop><geoidheight>54.00</geoidheight><course>86.0</course><type>1</type></trkpt>
      <trkpt lat="40.56967054" lon="-4.99126954"><ele>2479</ele><speed>13.74</speed><time>2016-07-01T13:29:38Z</time><pdop>7.0</pdop><geoidheight>54.00</geoidheight><course>87.3</course><type>1</type></trkpt>
      <trkpt lat="40.56968092" lon="-4.99107761"><ele>2479</ele><speed>14.45</speed><time>2016-07-01T13:29:39Z</time><pdop>7.0</pdop><geoidheight>54.00</geoidheight><course>86.7</course><type>1</type></trkpt>
      <trkpt lat="40.56971257" lon="-4.99074096"><ele>2477</ele><speed>14.62</speed><time>2016-07-01T13:29:41Z</time><pdop>6.0</pdop><geoidheight>54.00</geoidheight><course>84.1</course><type>1</type></trkpt>
      <trkpt lat="40.56972794" lon="-4.99057872"><ele>2475</ele><speed>14.20</speed><time>2016-07-01T13:29:42Z</time><pdop>5.0</pdop><geoidheight>54.00</geoidheight><course>84.5</course><type>1</type></trkpt>
      <trkpt lat="40.56974958" lon="-4.99042018"><ele>2473</ele><speed>13.87</speed><time>2016-07-01T13:29:43Z</time><pdop>5.0</pdop><geoidheight>54.00</geoidheight><course>84.0</course><type>1</type></trkpt>
      <trkpt lat="40.56974993" lon="-4.99026554"><ele>2474</ele><speed>13.45</speed><time>2016-07-01T13:29:44Z</time><pdop>5.0</pdop><geoidheight>54.00</geoidheight><course>84.9</course><type>1</type></trkpt>
      <trkpt lat="40.56974563" lon="-4.9901135"><ele>2471</ele><speed>13.16</speed><time>2016-07-01T13:29:45Z</time><pdop>5.0</pdop><geoidheight>54.00</geoidheight><course>85.5</course><type>1</type></trkpt>
      <trkpt lat="40.56977053" lon="-4.98995229"><ele>2216</ele><speed>13.14</speed><time>2016-07-01T13:29:46Z</time><pdop>5.0</pdop><geoidheight>54.00</geoidheight><course>83.4</course><type>1</type></trkpt>
      <trkpt lat="40.56976542" lon="-4.98980447"><ele>2278</ele><speed>13.24</speed><time>2016-07-01T13:29:47Z</time><pdop>4.0</pdop><geoidheight>54.00</geoidheight><course>88.3</course><type>1</type></trkpt>
      <trkpt lat="40.5697696" lon="-4.98963863"><ele>2317</ele><speed>14.34</speed><time>2016-07-01T13:29:48Z</time><pdop>5.0</pdop><geoidheight>54.00</geoidheight><course>88.9</course><type>1</type></trkpt>
      <trkpt lat="40.56976796" lon="-4.98945689"><ele>2348</ele><speed>15.17</speed><time>2016-07-01T13:29:49Z</time><pdop>5.0</pdop><geoidheight>54.00</geoidheight><course>90.7</course><type>1</type></trkpt>
      <trkpt lat="40.56974969" lon="-4.98928758"><ele>2367</ele><speed>14.96</speed><time>2016-07-01T13:29:50Z</time><pdop>5.0</pdop><geoidheight>54.00</geoidheight><course>91.5</course><type>1</type></trkpt>
      <trkpt lat="40.56974459" lon="-4.98910983"><ele>2398</ele><speed>14.39</speed><time>2016-07-01T13:29:51Z</time><pdop>4.0</pdop><geoidheight>54.00</geoidheight><course>90.8</course><type>1</type></trkpt>
      <trkpt lat="40.56974791" lon="-4.98895383"><ele>2412</ele><speed>13.61</speed><time>2016-07-01T13:29:52Z</time><pdop>4.0</pdop><geoidheight>54.00</geoidheight><course>89.4</course><type>1</type></trkpt>
      <trkpt lat="40.56976094" lon="-4.98880712"><ele>2424</ele><speed>12.89</speed><time>2016-07-01T13:29:53Z</time><pdop>3.0</pdop><geoidheight>54.00</geoidheight><course>88.1</course><type>1</type></trkpt>
      <trkpt lat="40.56976785" lon="-4.98865256"><ele>2431</ele><speed>12.61</speed><time>2016-07-01T13:29:54Z</time><pdop>3.0</pdop><geoidheight>54.00</geoidheight><course>88.6</course><type>1</type></trkpt>
      <trkpt lat="40.56977433" lon="-4.98850748"><ele>2438</ele><speed>12.62</speed><time>2016-07-01T13:29:55Z</time><pdop>4.0</pdop><geoidheight>54.00</geoidheight><course>87.8</course><type>1</type></trkpt>
      <trkpt lat="40.56975454" lon="-4.98836746"><ele>2442</ele><speed>12.23</speed><time>2016-07-01T13:29:56Z</time><pdop>3.0</pdop><geoidheight>54.00</geoidheight><course>94.5</course><type>1</type></trkpt>
      <trkpt lat="40.56974679" lon="-4.98823429"><ele>2444</ele><speed>11.95</speed><time>2016-07-01T13:29:57Z</time><pdop>3.0</pdop><geoidheight>54.00</geoidheight><course>97.0</course><type>1</type></trkpt>
      <trkpt lat="40.56974073" lon="-4.98808089"><ele>2444</ele><speed>12.32</speed><time>2016-07-01T13:29:58Z</time><pdop>3.0</pdop><geoidheight>54.00</geoidheight><course>96.6</course><type>1</type></trkpt>
      <trkpt lat="40.56973515" lon="-4.98793356"><ele>2446</ele><speed>12.99</speed><time>2016-07-01T13:29:59Z</time><pdop>4.0</pdop><geoidheight>54.00</geoidheight><course>95.0</course><type>1</type></trkpt>
      <trkpt lat="40.5697286" lon="-4.98775964"><ele>2446</ele><speed>14.19</speed><time>2016-07-01T13:30:00Z</time><pdop>5.0</pdop><geoidheight>54.00</geoidheight><course>93.7</course><type>1</type></trkpt>
      <trkpt lat="40.56972182" lon="-4.98757548"><ele>2452</ele><speed>14.99</speed><time>2016-07-01T13:30:01Z</time><pdop>3.0</pdop><geoidheight>54.00</geoidheight><course>93.5</course><type>1</type></trkpt>
      <trkpt lat="40.56971541" lon="-4.98740621"><ele>2454</ele><speed>14.58</speed><time>2016-07-01T13:30:02Z</time><pdop>3.0</pdop><geoidheight>54.00</geoidheight><course>94.9</course><type>1</type></trkpt>
      <trkpt lat="40.56967367" lon="-4.98727424"><ele>2457</ele><speed>12.74</speed><time>2016-07-01T13:30:03Z</time><pdop>3.0</pdop><geoidheight>54.00</geoidheight><course>103.9</course><type>1</type></trkpt>
      <trkpt lat="40.56964574" lon="-4.98714699"><ele>2459</ele><speed>11.56</speed><time>2016-07-01T13:30:04Z</time><pdop>3.0</pdop><geoidheight>54.00</geoidheight><course>104.7</course><type>1</type></trkpt>
      <trkpt lat="40.56962841" lon="-4.98701616"><ele>2458</ele><speed>11.06</speed><time>2016-07-01T13:30:05Z</time><pdop>3.0</pdop><geoidheight>54.00</geoidheight><course>102.9</course><type>1</type></trkpt>
      <trkpt lat="40.56961166" lon="-4.98689927"><ele>2458</ele><speed>10.81</speed><time>2016-07-01T13:30:06Z</time><pdop>3.0</pdop><geoidheight>54.00</geoidheight><course>98.6</course><type>1</type></trkpt>
      <trkpt lat="40.56960013" lon="-4.98676557"><ele>2460</ele><speed>10.78</speed><time>2016-07-01T13:30:07Z</time><pdop>3.0</pdop><geoidheight>54.00</geoidheight><course>95.8</course><type>1</type></trkpt>
      <trkpt lat="40.56959494" lon="-4.98663421"><ele>2460</ele><speed>11.25</speed><time>2016-07-01T13:30:08Z</time><pdop>3.0</pdop><geoidheight>54.00</geoidheight><course>93.8</course><type>1</type></trkpt>
      <trkpt lat="40.56960009" lon="-4.98649409"><ele>2461</ele><speed>11.40</speed><time>2016-07-01T13:30:09Z</time><pdop>4.0</pdop><geoidheight>54.00</geoidheight><course>91.5</course><type>1</type></trkpt>
      <trkpt lat="40.5696064" lon="-4.98635678"><ele>2463</ele><speed>11.55</speed><time>2016-07-01T13:30:10Z</time><pdop>3.0</pdop><geoidheight>54.00</geoidheight><course>89.2</course><type>1</type></trkpt>
      <trkpt lat="40.56961676" lon="-4.98622626"><ele>2462</ele><speed>10.93</speed><time>2016-07-01T13:30:11Z</time><pdop>3.0</pdop><geoidheight>54.00</geoidheight><course>88.2</course><type>1</type></trkpt>
      <trkpt lat="40.56961907" lon="-4.98610594"><ele>2465</ele><speed>10.54</speed><time>2016-07-01T13:30:12Z</time><pdop>3.0</pdop><geoidheight>54.00</geoidheight><course>88.8</course><type>1</type></trkpt>
      <trkpt lat="40.56961354" lon="-4.98598779"><ele>2465</ele><speed>10.31</speed><time>2016-07-01T13:30:13Z</time><pdop>3.0</pdop><geoidheight>54.00</geoidheight><course>89.3</course><type>1</type></trkpt>
      <trkpt lat="40.56960908" lon="-4.98585601"><ele>2467</ele><speed>10.55</speed><time>2016-07-01T13:30:14Z</time><pdop>3.0</pdop><geoidheight>54.00</geoidheight><course>90.3</course><type>1</type></trkpt>
      <trkpt lat="40.56960739" lon="-4.98574486"><ele>2466</ele><speed>10.44</speed><time>2016-07-01T13:30:15Z</time><pdop>3.0</pdop><geoidheight>54.00</geoidheight><course>88.1</course><type>1</type></trkpt>
      <trkpt lat="40.5696199" lon="-4.98562039"><ele>2466</ele><speed>10.26</speed><time>2016-07-01T13:30:16Z</time><pdop>4.0</pdop><geoidheight>54.00</geoidheight><course>86.5</course><type>1</type></trkpt>
      <trkpt lat="40.56963333" lon="-4.98549433"><ele>2467</ele><speed>10.89</speed><time>2016-07-01T13:30:17Z</time><pdop>3.0</pdop><geoidheight>54.00</geoidheight><course>84.0</course><type>1</type></trkpt>
      <trkpt lat="40.56964104" lon="-4.98537291"><ele>2468</ele><speed>11.02</speed><time>2016-07-01T13:30:18Z</time><pdop>3.0</pdop><geoidheight>54.00</geoidheight><course>84.2</course><type>1</type></trkpt>
      <trkpt lat="40.56965773" lon="-4.98523872"><ele>2468</ele><speed>11.11</speed><time>2016-07-01T13:30:19Z</time><pdop>3.0</pdop><geoidheight>54.00</geoidheight><course>83.1</course><type>1</type></trkpt>
      <trkpt lat="40.56967492" lon="-4.98510826"><ele>2470</ele><speed>11.24</speed><time>2016-07-01T13:30:20Z</time><pdop>3.0</pdop><geoidheight>54.00</geoidheight><course>81.2</course><type>1</type></trkpt>
      <trkpt lat="40.56968839" lon="-4.98498217"><ele>2471</ele><speed>10.95</speed><time>2016-07-01T13:30:21Z</time><pdop>3.0</pdop><geoidheight>54.00</geoidheight><course>80.2</course><type>1</type></trkpt>
      <trkpt lat="40.56970753" lon="-4.9848536"><ele>2472</ele><speed>10.83</speed><time>2016-07-01T13:30:22Z</time><pdop>3.0</pdop><geoidheight>54.00</geoidheight><course>79.6</course><type>1</type></trkpt>
      <trkpt lat="40.56973001" lon="-4.98472812"><ele>2472</ele><speed>11.15</speed><time>2016-07-01T13:30:23Z</time><pdop>3.0</pdop><geoidheight>54.00</geoidheight><course>77.6</course><type>1</type></trkpt>
      <trkpt lat="40.56975196" lon="-4.98460409"><ele>2473</ele><speed>11.49</speed><time>2016-07-01T13:30:24Z</time><pdop>3.0</pdop><geoidheight>54.00</geoidheight><course>75.7</course><type>1</type></trkpt>
      <trkpt lat="40.56977623" lon="-4.98447992"><ele>2474</ele><speed>11.51</speed><time>2016-07-01T13:30:25Z</time><pdop>3.0</pdop><geoidheight>54.00</geoidheight><course>74.1</course><type>1</type></trkpt>
      <trkpt lat="40.56981157" lon="-4.98434978"><ele>2476</ele><speed>11.16</speed><time>2016-07-01T13:30:26Z</time><pdop>3.0</pdop><geoidheight>54.00</geoidheight><course>71.1</course><type>1</type></trkpt>
      <trkpt lat="40.56984653" lon="-4.98422555"><ele>2477</ele><speed>10.90</speed><time>2016-07-01T13:30:27Z</time><pdop>3.0</pdop><geoidheight>54.00</geoidheight><course>68.6</course><type>1</type></trkpt>
      <trkpt lat="40.5698868" lon="-4.98409889"><ele>2477</ele><speed>11.12</speed><time>2016-07-01T13:30:28Z</time><pdop>4.0</pdop><geoidheight>54.00</geoidheight><course>68.0</course><type>1</type></trkpt>
      <trkpt lat="40.56992346" lon="-4.98398205"><ele>2479</ele><speed>10.89</speed><time>2016-07-01T13:30:29Z</time><pdop>6.0</pdop><geoidheight>54.00</geoidheight><course>66.9</course><type>1</type></trkpt>
      <trkpt lat="40.57015998" lon="-4.98391101"><ele>2480</ele><speed>11.19</speed><time>2016-07-01T13:30:31Z</time><pdop>4.0</pdop><geoidheight>54.00</geoidheight><course>20.1</course><type>1</type></trkpt>
      <trkpt lat="40.57025461" lon="-4.98386038"><ele>2480</ele><speed>11.28</speed><time>2016-07-01T13:30:32Z</time><pdop>4.0</pdop><geoidheight>54.00</geoidheight><course>18.4</course><type>1</type></trkpt>
      <trkpt lat="40.57033702" lon="-4.9838076"><ele>2481</ele><speed>11.56</speed><time>2016-07-01T13:30:33Z</time><pdop>4.0</pdop><geoidheight>54.00</geoidheight><course>23.4</course><type>1</type></trkpt>
      <trkpt lat="40.57043413" lon="-4.98373915"><ele>2481</ele><speed>11.94</speed><time>2016-07-01T13:30:34Z</time><pdop>4.0</pdop><geoidheight>54.00</geoidheight><course>26.9</course><type>1</type></trkpt>
      <trkpt lat="40.57049245" lon="-4.98362775"><ele>2483</ele><speed>11.66</speed><time>2016-07-01T13:30:35Z</time><pdop>3.0</pdop><geoidheight>54.00</geoidheight><course>41.2</course><type>1</type></trkpt>
      <trkpt lat="40.57056851" lon="-4.98353692"><ele>2483</ele><speed>11.73</speed><time>2016-07-01T13:30:36Z</time><pdop>3.0</pdop><geoidheight>54.00</geoidheight><course>45.1</course><type>1</type></trkpt>
      <trkpt lat="40.57063038" lon="-4.98342775"><ele>2483</ele><speed>11.60</speed><time>2016-07-01T13:30:37Z</time><pdop>3.0</pdop><geoidheight>54.00</geoidheight><course>51.3</course><type>1</type></trkpt>
      <trkpt lat="40.57069043" lon="-4.98332359"><ele>2484</ele><speed>11.26</speed><time>2016-07-01T13:30:38Z</time><pdop>3.0</pdop><geoidheight>54.00</geoidheight><course>56.1</course><type>1</type></trkpt>
      <trkpt lat="40.57073789" lon="-4.98320679"><ele>2486</ele><speed>10.68</speed><time>2016-07-01T13:30:39Z</time><pdop>3.0</pdop><geoidheight>54.00</geoidheight><course>58.2</course><type>1</type></trkpt>
      <trkpt lat="40.57079133" lon="-4.98310238"><ele>2487</ele><speed>10.47</speed><time>2016-07-01T13:30:40Z</time><pdop>4.0</pdop><geoidheight>54.00</geoidheight><course>57.5</course><type>1</type></trkpt>
      <trkpt lat="40.57084221" lon="-4.98299946"><ele>2490</ele><speed>10.26</speed><time>2016-07-01T13:30:41Z</time><pdop>3.0</pdop><geoidheight>54.00</geoidheight><course>55.6</course><type>1</type></trkpt>
      <trkpt lat="40.57088965" lon="-4.98291055"><ele>2490</ele><speed>9.84</speed><time>2016-07-01T13:30:42Z</time><pdop>3.0</pdop><geoidheight>54.00</geoidheight><course>55.1</course><type>1</type></trkpt>
      <trkpt lat="40.57093693" lon="-4.98281141"><ele>2490</ele><speed>9.89</speed><time>2016-07-01T13:30:43Z</time><pdop>4.0</pdop><geoidheight>54.00</geoidheight><course>55.8</course><type>1</type></trkpt>
      <trkpt lat="40.57099057" lon="-4.98271466"><ele>2490</ele><speed>9.91</speed><time>2016-07-01T13:30:44Z</time><pdop>6.0</pdop><geoidheight>54.00</geoidheight><course>55.1</course><type>1</type></trkpt>
      <trkpt lat="40.57106316" lon="-4.98249149"><ele>2490</ele><speed>10.11</speed><time>2016-07-01T13:30:46Z</time><pdop>6.0</pdop><geoidheight>54.00</geoidheight><course>60.4</course><type>1</type></trkpt>
      <trkpt lat="40.57108776" lon="-4.9823585"><ele>2490</ele><speed>10.45</speed><time>2016-07-01T13:30:47Z</time><pdop>4.0</pdop><geoidheight>54.00</geoidheight><course>68.9</course><type>1</type></trkpt>
      <trkpt lat="40.57112842" lon="-4.98223657"><ele>2481</ele><speed>10.67</speed><time>2016-07-01T13:30:48Z</time><pdop>4.0</pdop><geoidheight>54.00</geoidheight><course>71.4</course><type>1</type></trkpt>
      <trkpt lat="40.5711721" lon="-4.98211537"><ele>2484</ele><speed>10.96</speed><time>2016-07-01T13:30:49Z</time><pdop>4.0</pdop><geoidheight>54.00</geoidheight><course>71.1</course><type>1</type></trkpt>
      <trkpt lat="40.57121315" lon="-4.98199156"><ele>2486</ele><speed>11.02</speed><time>2016-07-01T13:30:50Z</time><pdop>4.0</pdop><geoidheight>54.00</geoidheight><course>68.6</course><type>1</type></trkpt>
      <trkpt lat="40.57125314" lon="-4.98188029"><ele>2487</ele><speed>10.78</speed><time>2016-07-01T13:30:51Z</time><pdop>3.0</pdop><geoidheight>54.00</geoidheight><course>66.1</course><type>1</type></trkpt>
      <trkpt lat="40.57129328" lon="-4.98177768"><ele>2488</ele><speed>10.48</speed><time>2016-07-01T13:30:52Z</time><pdop>4.0</pdop><geoidheight>54.00</geoidheight><course>65.8</course><type>1</type></trkpt>
      <trkpt lat="40.57132498" lon="-4.98166372"><ele>2489</ele><speed>10.52</speed><time>2016-07-01T13:30:53Z</time><pdop>4.0</pdop><geoidheight>54.00</geoidheight><course>68.3</course><type>1</type></trkpt>
      <trkpt lat="40.5713632" lon="-4.98155844"><ele>2490</ele><speed>10.48</speed><time>2016-07-01T13:30:54Z</time><pdop>4.0</pdop><geoidheight>54.00</geoidheight><course>69.0</course><type>1</type></trkpt>
      <trkpt lat="40.57138936" lon="-4.98143912"><ele>2490</ele><speed>10.65</speed><time>2016-07-01T13:30:55Z</time><pdop>4.0</pdop><geoidheight>54.00</geoidheight><course>69.9</course><type>1</type></trkpt>
      <trkpt lat="40.5714241" lon="-4.98131523"><ele>2492</ele><speed>11.12</speed><time>2016-07-01T13:30:56Z</time><pdop>4.0</pdop><geoidheight>54.00</geoidheight><course>70.8</course><type>1</type></trkpt>
      <trkpt lat="40.5714464" lon="-4.98116207"><ele>2491</ele><speed>12.61</speed><time>2016-07-01T13:30:57Z</time><pdop>4.0</pdop><geoidheight>54.00</geoidheight><course>74.7</course><type>1</type></trkpt>
      <trkpt lat="40.57148646" lon="-4.98100618"><ele>2491</ele><speed>13.41</speed><time>2016-07-01T13:30:58Z</time><pdop>4.0</pdop><geoidheight>54.00</geoidheight><course>74.1</course><type>1</type></trkpt>
      <trkpt lat="40.57152263" lon="-4.98083714"><ele>2492</ele><speed>14.14</speed><time>2016-07-01T13:30:59Z</time><pdop>4.0</pdop><geoidheight>54.00</geoidheight><course>73.8</course><type>1</type></trkpt>
      <trkpt lat="40.57157396" lon="-4.98067277"><ele>2493</ele><speed>14.50</speed><time>2016-07-01T13:31:00Z</time><pdop>4.0</pdop><geoidheight>54.00</geoidheight><course>71.7</course><type>1</type></trkpt>
      <trkpt lat="40.57160189" lon="-4.98051803"><ele>2494</ele><speed>13.79</speed><time>2016-07-01T13:31:01Z</time><pdop>4.0</pdop><geoidheight>54.00</geoidheight><course>70.7</course><type>1</type></trkpt>
      <trkpt lat="40.57163673" lon="-4.98040671"><ele>2494</ele><speed>12.80</speed><time>2016-07-01T13:31:02Z</time><pdop>3.0</pdop><geoidheight>54.00</geoidheight><course>70.2</course><type>1</type></trkpt>
      <trkpt lat="40.57166219" lon="-4.9802674"><ele>2494</ele><speed>12.58</speed><time>2016-07-01T13:31:03Z</time><pdop>3.0</pdop><geoidheight>54.00</geoidheight><course>72.7</course><type>1</type></trkpt>
      <trkpt lat="40.57166778" lon="-4.98014196"><ele>2494</ele><speed>11.94</speed><time>2016-07-01T13:31:04Z</time><pdop>4.0</pdop><geoidheight>54.00</geoidheight><course>77.6</course><type>1</type></trkpt>
      <trkpt lat="40.57165213" lon="-4.98000384"><ele>2494</ele><speed>11.50</speed><time>2016-07-01T13:31:05Z</time><pdop>3.0</pdop><geoidheight>54.00</geoidheight><course>91.0</course><type>1</type></trkpt>
      <trkpt lat="40.57164742" lon="-4.97987289"><ele>2494</ele><speed>11.21</speed><time>2016-07-01T13:31:06Z</time><pdop>3.0</pdop><geoidheight>54.00</geoidheight><course>96.0</course><type>1</type></trkpt>
      <trkpt lat="40.57161138" lon="-4.97975395"><ele>2493</ele><speed>11.04</speed><time>2016-07-01T13:31:07Z</time><pdop>3.0</pdop><geoidheight>54.00</geoidheight><course>110.6</course><type>1</type></trkpt>
      <trkpt lat="40.57158509" lon="-4.97962321"><ele>2493</ele><speed>11.31</speed><time>2016-07-01T13:31:08Z</time><pdop>3.0</pdop><geoidheight>54.00</geoidheight><course>110.2</course><type>1</type></trkpt>
      <trkpt lat="40.57154927" lon="-4.97947097"><ele>2492</ele><speed>12.73</speed><time>2016-07-01T13:31:09Z</time><pdop>3.0</pdop><geoidheight>54.00</geoidheight><course>106.1</course><type>1</type></trkpt>
      <trkpt lat="40.57151748" lon="-4.97931026"><ele>2491</ele><speed>13.92</speed><time>2016-07-01T13:31:10Z</time><pdop>3.0</pdop><geoidheight>54.00</geoidheight><course>104.1</course><type>1</type></trkpt>
      <trkpt lat="40.57150417" lon="-4.97912976"><ele>2492</ele><speed>14.71</speed><time>2016-07-01T13:31:11Z</time><pdop>3.0</pdop><geoidheight>54.00</geoidheight><course>98.9</course><type>1</type></trkpt>
      <trkpt lat="40.57148604" lon="-4.97895566"><ele>2494</ele><speed>14.84</speed><time>2016-07-01T13:31:12Z</time><pdop>3.0</pdop><geoidheight>54.00</geoidheight><course>95.2</course><type>1</type></trkpt>
      <trkpt lat="40.57148219" lon="-4.97879416"><ele>2494</ele><speed>13.91</speed><time>2016-07-01T13:31:13Z</time><pdop>3.0</pdop><geoidheight>54.00</geoidheight><course>92.1</course><type>1</type></trkpt>
      <trkpt lat="40.57148238" lon="-4.97864289"><ele>2494</ele><speed>13.37</speed><time>2016-07-01T13:31:14Z</time><pdop>3.0</pdop><geoidheight>54.00</geoidheight><course>88.2</course><type>1</type></trkpt>
      <trkpt lat="40.57149482" lon="-4.97848267"><ele>2494</ele><speed>13.39</speed><time>2016-07-01T13:31:15Z</time><pdop>3.0</pdop><geoidheight>54.00</geoidheight><course>84.8</course><type>1</type></trkpt>
      <trkpt lat="40.57150226" lon="-4.9783234"><ele>2494</ele><speed>13.57</speed><time>2016-07-01T13:31:16Z</time><pdop>3.0</pdop><geoidheight>54.00</geoidheight><course>84.4</course><type>1</type></trkpt>
      <trkpt lat="40.57151997" lon="-4.9781654"><ele>2494</ele><speed>13.64</speed><time>2016-07-01T13:31:17Z</time><pdop>3.0</pdop><geoidheight>54.00</geoidheight><course>83.5</course><type>1</type></trkpt>
      <trkpt lat="40.5715433" lon="-4.97799936"><ele>2494</ele><speed>14.25</speed><time>2016-07-01T13:31:18Z</time><pdop>3.0</pdop><geoidheight>54.00</geoidheight><course>80.8</course><type>1</type></trkpt>
      <trkpt lat="40.57157568" lon="-4.97782989"><ele>2494</ele><speed>14.97</speed><time>2016-07-01T13:31:19Z</time><pdop>3.0</pdop><geoidheight>54.00</geoidheight><course>78.7</course><type>1</type></trkpt>
      <trkpt lat="40.57160016" lon="-4.97765046"><ele>2494</ele><speed>14.88</speed><time>2016-07-01T13:31:20Z</time><pdop>3.0</pdop><geoidheight>54.00</geoidheight><course>80.2</course><type>1</type></trkpt>
      <trkpt lat="40.57161271" lon="-4.97748347"><ele>2494</ele><speed>14.36</speed><time>2016-07-01T13:31:21Z</time><pdop>3.0</pdop><geoidheight>54.00</geoidheight><course>83.6</course><type>1</type></trkpt>
      <trkpt lat="40.57161407" lon="-4.97733246"><ele>2496</ele><speed>13.31</speed><time>2016-07-01T13:31:22Z</time><pdop>3.0</pdop><geoidheight>54.00</geoidheight><course>87.5</course><type>1</type></trkpt>
      <trkpt lat="40.57161822" lon="-4.97717323"><ele>2497</ele><speed>12.90</speed><time>2016-07-01T13:31:23Z</time><pdop>3.0</pdop><geoidheight>54.00</geoidheight><course>88.6</course><type>1</type></trkpt>
      <trkpt lat="40.57162618" lon="-4.97702036"><ele>2498</ele><speed>12.87</speed><time>2016-07-01T13:31:24Z</time><pdop>3.0</pdop><geoidheight>54.00</geoidheight><course>87.4</course><type>1</type></trkpt>
      <trkpt lat="40.5716444" lon="-4.97687912"><ele>2498</ele><speed>12.62</speed><time>2016-07-01T13:31:25Z</time><pdop>4.0</pdop><geoidheight>54.00</geoidheight><course>84.0</course><type>1</type></trkpt>
      <trkpt lat="40.57165783" lon="-4.97672932"><ele>2499</ele><speed>12.41</speed><time>2016-07-01T13:31:26Z</time><pdop>4.0</pdop><geoidheight>54.00</geoidheight><course>82.2</course><type>1</type></trkpt>
      <trkpt lat="40.57168646" lon="-4.97658162"><ele>2498</ele><speed>12.37</speed><time>2016-07-01T13:31:27Z</time><pdop>5.0</pdop><geoidheight>54.00</geoidheight><course>80.2</course><type>1</type></trkpt>
      <trkpt lat="40.57171233" lon="-4.97643971"><ele>2499</ele><speed>12.04</speed><time>2016-07-01T13:31:28Z</time><pdop>5.0</pdop><geoidheight>54.00</geoidheight><course>81.3</course><type>1</type></trkpt>
      <trkpt lat="40.57167953" lon="-4.97631562"><ele>2500</ele><speed>11.25</speed><time>2016-07-01T13:31:29Z</time><pdop>4.0</pdop><geoidheight>54.00</geoidheight><course>102.1</course><type>1</type></trkpt>
      <trkpt lat="40.57164126" lon="-4.97619588"><ele>2500</ele><speed>10.79</speed><time>2016-07-01T13:31:30Z</time><pdop>3.0</pdop><geoidheight>54.00</geoidheight><course>118.4</course><type>1</type></trkpt>
      <trkpt lat="40.57159443" lon="-4.97609369"><ele>2501</ele><speed>10.68</speed><time>2016-07-01T13:31:31Z</time><pdop>3.0</pdop><geoidheight>54.00</geoidheight><course>119.5</course><type>1</type></trkpt>
      <trkpt lat="40.57150482" lon="-4.97608793"><ele>2502</ele><speed>9.59</speed><time>2016-07-01T13:31:32Z</time><pdop>3.0</pdop><geoidheight>54.00</geoidheight><course>158.3</course><type>1</type></trkpt>
      <trkpt lat="40.57141075" lon="-4.97608527"><ele>2501</ele><speed>8.98</speed><time>2016-07-01T13:31:33Z</time><pdop>3.0</pdop><geoidheight>54.00</geoidheight><course>179.6</course><type>1</type></trkpt>
      <trkpt lat="40.57133146" lon="-4.97610748"><ele>2501</ele><speed>8.85</speed><time>2016-07-01T13:31:34Z</time><pdop>3.0</pdop><geoidheight>54.00</geoidheight><course>188.5</course><type>1</type></trkpt>
      <trkpt lat="40.57126888" lon="-4.97617192"><ele>2502</ele><speed>8.55</speed><time>2016-07-01T13:31:35Z</time><pdop>4.0</pdop><geoidheight>54.00</geoidheight><course>203.9</course><type>1</type></trkpt>
      <trkpt lat="40.57125615" lon="-4.97627477"><ele>2502</ele><speed>7.28</speed><time>2016-07-01T13:31:36Z</time><pdop>3.0</pdop><geoidheight>54.00</geoidheight><course>237.1</course><type>1</type></trkpt>
      <trkpt lat="40.57123889" lon="-4.97635444"><ele>2501</ele><speed>7.58</speed><time>2016-07-01T13:31:37Z</time><pdop>3.0</pdop><geoidheight>54.00</geoidheight><course>247.4</course><type>1</type></trkpt>
      <trkpt lat="40.57127109" lon="-4.97644972"><ele>2503</ele><speed>7.89</speed><time>2016-07-01T13:31:38Z</time><pdop>3.0</pdop><geoidheight>54.00</geoidheight><course>276.5</course><type>1</type></trkpt>
      <trkpt lat="40.57130389" lon="-4.97655115"><ele>2503</ele><speed>8.88</speed><time>2016-07-01T13:31:39Z</time><pdop>3.0</pdop><geoidheight>54.00</geoidheight><course>287.8</course><type>1</type></trkpt>
      <trkpt lat="40.57136639" lon="-4.97664239"><ele>2503</ele><speed>9.95</speed><time>2016-07-01T13:31:40Z</time><pdop>3.0</pdop><geoidheight>54.00</geoidheight><course>305.6</course><type>1</type></trkpt>
      <trkpt lat="40.57142869" lon="-4.97672619"><ele>2504</ele><speed>10.39</speed><time>2016-07-01T13:31:41Z</time><pdop>3.0</pdop><geoidheight>54.00</geoidheight><course>316.2</course><type>1</type></trkpt>
      <trkpt lat="40.57150519" lon="-4.976781"><ele>2506</ele><speed>10.19</speed><time>2016-07-01T13:31:42Z</time><pdop>3.0</pdop><geoidheight>54.00</geoidheight><course>331.0</course><type>1</type></trkpt>
      <trkpt lat="40.5716022" lon="-4.97679729"><ele>2507</ele><speed>10.11</speed><time>2016-07-01T13:31:43Z</time><pdop>3.0</pdop><geoidheight>54.00</geoidheight><course>351.0</course><type>1</type></trkpt>
      <trkpt lat="40.57170147" lon="-4.97677161"><ele>2509</ele><speed>10.36</speed><time>2016-07-01T13:31:44Z</time><pdop>3.0</pdop><geoidheight>54.00</geoidheight><course>6.4</course><type>1</type></trkpt>
      <trkpt lat="40.57178882" lon="-4.97672752"><ele>2510</ele><speed>10.47</speed><time>2016-07-01T13:31:45Z</time><pdop>3.0</pdop><geoidheight>54.00</geoidheight><course>19.4</course><type>1</type></trkpt>
      <trkpt lat="40.57187039" lon="-4.97665282"><ele>2510</ele><speed>10.98</speed><time>2016-07-01T13:31:46Z</time><pdop>3.0</pdop><geoidheight>54.00</geoidheight><course>30.1</course><type>1</type></trkpt>
      <trkpt lat="40.57195394" lon="-4.9765548"><ele>2510</ele><speed>12.38</speed><time>2016-07-01T13:31:47Z</time><pdop>3.0</pdop><geoidheight>54.00</geoidheight><course>39.4</course><type>1</type></trkpt>
      <trkpt lat="40.57203866" lon="-4.97643837"><ele>2510</ele><speed>12.89</speed><time>2016-07-01T13:31:48Z</time><pdop>4.0</pdop><geoidheight>54.00</geoidheight><course>44.3</course><type>1</type></trkpt>
      <trkpt lat="40.57211589" lon="-4.9762672"><ele>2509</ele><speed>14.73</speed><time>2016-07-01T13:31:49Z</time><pdop>5.0</pdop><geoidheight>54.00</geoidheight><course>52.8</course><type>1</type></trkpt>
      <trkpt lat="40.57213993" lon="-4.97606798"><ele>2509</ele><speed>15.20</speed><time>2016-07-01T13:31:50Z</time><pdop>6.0</pdop><geoidheight>54.00</geoidheight><course>64.6</course><type>1</type></trkpt>
      <trkpt lat="40.5721652" lon="-4.97591965"><ele>2510</ele><speed>14.15</speed><time>2016-07-01T13:31:51Z</time><pdop>5.0</pdop><geoidheight>54.00</geoidheight><course>69.5</course><type>1</type></trkpt>
      <trkpt lat="40.57219133" lon="-4.97576913"><ele>2511</ele><speed>13.36</speed><time>2016-07-01T13:31:52Z</time><pdop>5.0</pdop><geoidheight>54.00</geoidheight><course>74.0</course><type>1</type></trkpt>
      <trkpt lat="40.57221911" lon="-4.97560798"><ele>2511</ele><speed>13.24</speed><time>2016-07-01T13:31:53Z</time><pdop>5.0</pdop><geoidheight>54.00</geoidheight><course>75.2</course><type>1</type></trkpt>
      <trkpt lat="40.57224534" lon="-4.97544461"><ele>2511</ele><speed>13.26</speed><time>2016-07-01T13:31:54Z</time><pdop>5.0</pdop><geoidheight>54.00</geoidheight><course>76.7</course><type>1</type></trkpt>
      <trkpt lat="40.57224007" lon="-4.97528729"><ele>2510</ele><speed>13.25</speed><time>2016-07-01T13:31:55Z</time><pdop>4.0</pdop><geoidheight>54.00</geoidheight><course>80.2</course><type>1</type></trkpt>
      <trkpt lat="40.57225547" lon="-4.97512468"><ele>2509</ele><speed>13.17</speed><time>2016-07-01T13:31:56Z</time><pdop>4.0</pdop><geoidheight>54.00</geoidheight><course>82.4</course><type>1</type></trkpt>
      <trkpt lat="40.57227027" lon="-4.97497095"><ele>2508</ele><speed>12.99</speed><time>2016-07-01T13:31:57Z</time><pdop>3.0</pdop><geoidheight>54.00</geoidheight><course>84.6</course><type>1</type></trkpt>
      <trkpt lat="40.57227314" lon="-4.97481408"><ele>2507</ele><speed>12.95</speed><time>2016-07-01T13:31:58Z</time><pdop>3.0</pdop><geoidheight>54.00</geoidheight><course>85.8</course><type>1</type></trkpt>
      <trkpt lat="40.57227963" lon="-4.97466087"><ele>2507</ele><speed>12.92</speed><time>2016-07-01T13:31:59Z</time><pdop>3.0</pdop><geoidheight>54.00</geoidheight><course>87.4</course><type>1</type></trkpt>
      <trkpt lat="40.57228174" lon="-4.97451152"><ele>2506</ele><speed>12.99</speed><time>2016-07-01T13:32:00Z</time><pdop>3.0</pdop><geoidheight>54.00</geoidheight><course>88.8</course><type>1</type></trkpt>
      <trkpt lat="40.57228296" lon="-4.97435171"><ele>2506</ele><speed>13.10</speed><time>2016-07-01T13:32:01Z</time><pdop>3.0</pdop><geoidheight>54.00</geoidheight><course>90.7</course><type>1</type></trkpt>
      <trkpt lat="40.57228341" lon="-4.97419414"><ele>2506</ele><speed>13.07</speed><time>2016-07-01T13:32:02Z</time><pdop>3.0</pdop><geoidheight>54.00</geoidheight><course>90.1</course><type>1</type></trkpt>
      <trkpt lat="40.5722889" lon="-4.97402785"><ele>2506</ele><speed>13.37</speed><time>2016-07-01T13:32:03Z</time><pdop>3.0</pdop><geoidheight>54.00</geoidheight><course>87.4</course><type>1</type></trkpt>
      <trkpt lat="40.57230285" lon="-4.97385679"><ele>2505</ele><speed>14.05</speed><time>2016-07-01T13:32:04Z</time><pdop>3.0</pdop><geoidheight>54.00</geoidheight><course>84.8</course><type>1</type></trkpt>
      <trkpt lat="40.57230527" lon="-4.97369648"><ele>2505</ele><speed>14.32</speed><time>2016-07-01T13:32:05Z</time><pdop>4.0</pdop><geoidheight>54.00</geoidheight><course>85.8</course><type>1</type></trkpt>
      <trkpt lat="40.57230137" lon="-4.97352324"><ele>2506</ele><speed>14.73</speed><time>2016-07-01T13:32:06Z</time><pdop>4.0</pdop><geoidheight>54.00</geoidheight><course>89.3</course><type>1</type></trkpt>
      <trkpt lat="40.57229669" lon="-4.97335348"><ele>2506</ele><speed>14.75</speed><time>2016-07-01T13:32:07Z</time><pdop>4.0</pdop><geoidheight>54.00</geoidheight><course>90.1</course><type>1</type></trkpt>
      <trkpt lat="40.57229181" lon="-4.97317801"><ele>2505</ele><speed>14.75</speed><time>2016-07-01T13:32:08Z</time><pdop>3.0</pdop><geoidheight>54.00</geoidheight><course>91.6</course><type>1</type></trkpt>
      <trkpt lat="40.57228734" lon="-4.97300339"><ele>2505</ele><speed>14.50</speed><time>2016-07-01T13:32:09Z</time><pdop>4.0</pdop><geoidheight>54.00</geoidheight><course>91.2</course><type>1</type></trkpt>
      <trkpt lat="40.57228646" lon="-4.9728404"><ele>2505</ele><speed>14.20</speed><time>2016-07-01T13:32:10Z</time><pdop>4.0</pdop><geoidheight>54.00</geoidheight><course>90.5</course><type>1</type></trkpt>
      <trkpt lat="40.57228245" lon="-4.97266346"><ele>2505</ele><speed>14.46</speed><time>2016-07-01T13:32:11Z</time><pdop>4.0</pdop><geoidheight>54.00</geoidheight><course>92.0</course><type>1</type></trkpt>
      <trkpt lat="40.57227419" lon="-4.97248067"><ele>2504</ele><speed>15.01</speed><time>2016-07-01T13:32:12Z</time><pdop>3.0</pdop><geoidheight>54.00</geoidheight><course>94.6</course><type>1</type></trkpt>
      <trkpt lat="40.57226701" lon="-4.9722915"><ele>2506</ele><speed>15.58</speed><time>2016-07-01T13:32:13Z</time><pdop>4.0</pdop><geoidheight>54.00</geoidheight><course>93.3</course><type>1</type></trkpt>
      <trkpt lat="40.57227214" lon="-4.97211577"><ele>2505</ele><speed>15.40</speed><time>2016-07-01T13:32:14Z</time><pdop>3.0</pdop><geoidheight>54.00</geoidheight><course>91.1</course><type>1</type></trkpt>
      <trkpt lat="40.57226277" lon="-4.97193686"><ele>2506</ele><speed>15.26</speed><time>2016-07-01T13:32:15Z</time><pdop>3.0</pdop><geoidheight>54.00</geoidheight><course>91.9</course><type>1</type></trkpt>
      <trkpt lat="40.57225273" lon="-4.97176412"><ele>2504</ele><speed>15.00</speed><time>2016-07-01T13:32:16Z</time><pdop>3.0</pdop><geoidheight>54.00</geoidheight><course>97.4</course><type>1</type></trkpt>
      <trkpt lat="40.57220627" lon="-4.97161537"><ele>2504</ele><speed>15.01</speed><time>2016-07-01T13:32:17Z</time><pdop>3.0</pdop><geoidheight>54.00</geoidheight><course>105.7</course><type>1</type></trkpt>
      <trkpt lat="40.57215828" lon="-4.97144765"><ele>2504</ele><speed>14.72</speed><time>2016-07-01T13:32:18Z</time><pdop>3.0</pdop><geoidheight>54.00</geoidheight><course>110.5</course><type>1</type></trkpt>
      <trkpt lat="40.57211007" lon="-4.97129189"><ele>2505</ele><speed>13.97</speed><time>2016-07-01T13:32:19Z</time><pdop>3.0</pdop><geoidheight>54.00</geoidheight><course>112.0</course><type>1</type></trkpt>
      <trkpt lat="40.5720698" lon="-4.97114042"><ele>2506</ele><speed>13.17</speed><time>2016-07-01T13:32:20Z</time><pdop>3.0</pdop><geoidheight>54.00</geoidheight><course>109.9</course><type>1</type></trkpt>
      <trkpt lat="40.57203621" lon="-4.97100321"><ele>2507</ele><speed>12.50</speed><time>2016-07-01T13:32:21Z</time><pdop>3.0</pdop><geoidheight>54.00</geoidheight><course>106.1</course><type>1</type></trkpt>
      <trkpt lat="40.57200769" lon="-4.97085582"><ele>2507</ele><speed>12.55</speed><time>2016-07-01T13:32:22Z</time><pdop>3.0</pdop><geoidheight>54.00</geoidheight><course>103.9</course><type>1</type></trkpt>
      <trkpt lat="40.57198025" lon="-4.97071025"><ele>2505</ele><speed>12.86</speed><time>2016-07-01T13:32:23Z</time><pdop>3.0</pdop><geoidheight>54.00</geoidheight><course>104.6</course><type>1</type></trkpt>
      <trkpt lat="40.57194568" lon="-4.97055617"><ele>2504</ele><speed>13.79</speed><time>2016-07-01T13:32:24Z</time><pdop>3.0</pdop><geoidheight>54.00</geoidheight><course>105.7</course><type>1</type></trkpt>
      <trkpt lat="40.57190844" lon="-4.97038684"><ele>2502</ele><speed>14.64</speed><time>2016-07-01T13:32:25Z</time><pdop>3.0</pdop><geoidheight>54.00</geoidheight><course>106.4</course><type>1</type></trkpt>
      <trkpt lat="40.57187256" lon="-4.97021919"><ele>2502</ele><speed>14.86</speed><time>2016-07-01T13:32:26Z</time><pdop>3.0</pdop><geoidheight>54.00</geoidheight><course>105.5</course><type>1</type></trkpt>
      <trkpt lat="40.5718368" lon="-4.970052"><ele>2502</ele><speed>14.91</speed><time>2016-07-01T13:32:27Z</time><pdop>3.0</pdop><geoidheight>54.00</geoidheight><course>105.9</course><type>1</type></trkpt>
      <trkpt lat="40.5718022" lon="-4.96988132"><ele>2501</ele><speed>14.95</speed><time>2016-07-01T13:32:28Z</time><pdop>3.0</pdop><geoidheight>54.00</geoidheight><course>105.8</course><type>1</type></trkpt>
      <trkpt lat="40.57175935" lon="-4.96971756"><ele>2501</ele><speed>15.14</speed><time>2016-07-01T13:32:29Z</time><pdop>3.0</pdop><geoidheight>54.00</geoidheight><course>106.2</course><type>1</type></trkpt>
      <trkpt lat="40.57171992" lon="-4.96954101"><ele>2502</ele><speed>15.15</speed><time>2016-07-01T13:32:30Z</time><pdop>3.0</pdop><geoidheight>54.00</geoidheight><course>106.5</course><type>1</type></trkpt>
      <trkpt lat="40.5716771" lon="-4.96937211"><ele>2502</ele><speed>14.73</speed><time>2016-07-01T13:32:31Z</time><pdop>3.0</pdop><geoidheight>54.00</geoidheight><course>107.5</course><type>1</type></trkpt>
      <trkpt lat="40.57163602" lon="-4.96920957"><ele>2502</ele><speed>14.65</speed><time>2016-07-01T13:32:32Z</time><pdop>3.0</pdop><geoidheight>54.00</geoidheight><course>108.2</course><type>1</type></trkpt>
      <trkpt lat="40.57159735" lon="-4.96904332"><ele>2501</ele><speed>14.85</speed><time>2016-07-01T13:32:33Z</time><pdop>3.0</pdop><geoidheight>54.00</geoidheight><course>107.6</course><type>1</type></trkpt>
      <trkpt lat="40.57155613" lon="-4.96887026"><ele>2502</ele><speed>15.26</speed><time>2016-07-01T13:32:34Z</time><pdop>3.0</pdop><geoidheight>54.00</geoidheight><course>105.0</course><type>1</type></trkpt>
      <trkpt lat="40.57152809" lon="-4.96869224"><ele>2502</ele><speed>15.42</speed><time>2016-07-01T13:32:35Z</time><pdop>3.0</pdop><geoidheight>54.00</geoidheight><course>102.4</course><type>1</type></trkpt>
      <trkpt lat="40.57149957" lon="-4.96852957"><ele>2501</ele><speed>15.23</speed><time>2016-07-01T13:32:36Z</time><pdop>3.0</pdop><geoidheight>54.00</geoidheight><course>101.0</course><type>1</type></trkpt>
      <trkpt lat="40.57148156" lon="-4.96834862"><ele>2500</ele><speed>15.18</speed><time>2016-07-01T13:32:37Z</time><pdop>3.0</pdop><geoidheight>54.00</geoidheight><course>100.1</course><type>1</type></trkpt>
      <trkpt lat="40.57145782" lon="-4.96816718"><ele>2501</ele><speed>15.34</speed><time>2016-07-01T13:32:38Z</time><pdop>3.0</pdop><geoidheight>54.00</geoidheight><course>100.2</course><type>1</type></trkpt>
      <trkpt lat="40.57142994" lon="-4.96797932"><ele>2501</ele><speed>15.77</speed><time>2016-07-01T13:32:39Z</time><pdop>3.0</pdop><geoidheight>54.00</geoidheight><course>100.8</course><type>1</type></trkpt>
      <trkpt lat="40.57140808" lon="-4.96779207"><ele>2500</ele><speed>15.73</speed><time>2016-07-01T13:32:40Z</time><pdop>3.0</pdop><geoidheight>54.00</geoidheight><course>100.5</course><type>1</type></trkpt>
      <trkpt lat="40.57138396" lon="-4.96760466"><ele>2501</ele><speed>16.00</speed><time>2016-07-01T13:32:41Z</time><pdop>3.0</pdop><geoidheight>54.00</geoidheight><course>100.0</course><type>1</type></trkpt>
      <trkpt lat="40.5713557" lon="-4.96742069"><ele>2502</ele><speed>15.93</speed><time>2016-07-01T13:32:42Z</time><pdop>3.0</pdop><geoidheight>54.00</geoidheight><course>100.9</course><type>1</type></trkpt>
      <trkpt lat="40.57132898" lon="-4.96723254"><ele>2502</ele><speed>16.10</speed><time>2016-07-01T13:32:43Z</time><pdop>3.0</pdop><geoidheight>54.00</geoidheight><course>101.0</course><type>1</type></trkpt>
      <trkpt lat="40.57130374" lon="-4.96704587"><ele>2504</ele><speed>16.29</speed><time>2016-07-01T13:32:44Z</time><pdop>3.0</pdop><geoidheight>54.00</geoidheight><course>101.4</course><type>1</type></trkpt>
      <trkpt lat="40.57128034" lon="-4.96685456"><ele>2504</ele><speed>16.18</speed><time>2016-07-01T13:32:45Z</time><pdop>3.0</pdop><geoidheight>54.00</geoidheight><course>100.7</course><type>1</type></trkpt>
      <trkpt lat="40.57126364" lon="-4.96666291"><ele>2505</ele><speed>16.32</speed><time>2016-07-01T13:32:46Z</time><pdop>3.0</pdop><geoidheight>54.00</geoidheight><course>99.5</course><type>1</type></trkpt>
      <trkpt lat="40.57124086" lon="-4.96646479"><ele>2505</ele><speed>16.25</speed><time>2016-07-01T13:32:47Z</time><pdop>3.0</pdop><geoidheight>54.00</geoidheight><course>97.8</course><type>1</type></trkpt>
      <trkpt lat="40.57122293" lon="-4.96627713"><ele>2507</ele><speed>15.99</speed><time>2016-07-01T13:32:48Z</time><pdop>3.0</pdop><geoidheight>54.00</geoidheight><course>96.8</course><type>1</type></trkpt>
      <trkpt lat="40.57120347" lon="-4.96609291"><ele>2509</ele><speed>15.78</speed><time>2016-07-01T13:32:49Z</time><pdop>3.0</pdop><geoidheight>54.00</geoidheight><course>97.5</course><type>1</type></trkpt>
      <trkpt lat="40.57117955" lon="-4.96590576"><ele>2509</ele><speed>16.18</speed><time>2016-07-01T13:32:50Z</time><pdop>3.0</pdop><geoidheight>54.00</geoidheight><course>98.1</course><type>1</type></trkpt>
      <trkpt lat="40.57114133" lon="-4.96575243"><ele>2509</ele><speed>15.52</speed><time>2016-07-01T13:32:51Z</time><pdop>3.0</pdop><geoidheight>54.00</geoidheight><course>100.7</course><type>1</type></trkpt>
      <trkpt lat="40.57112249" lon="-4.9655649"><ele>2509</ele><speed>15.76</speed><time>2016-07-01T13:32:52Z</time><pdop>3.0</pdop><geoidheight>54.00</geoidheight><course>100.0</course><type>1</type></trkpt>
      <trkpt lat="40.57109154" lon="-4.96537859"><ele>2509</ele><speed>15.77</speed><time>2016-07-01T13:32:53Z</time><pdop>3.0</pdop><geoidheight>54.00</geoidheight><course>100.7</course><type>1</type></trkpt>
      <trkpt lat="40.5710823" lon="-4.96517958"><ele>2511</ele><speed>16.25</speed><time>2016-07-01T13:32:54Z</time><pdop>3.0</pdop><geoidheight>54.00</geoidheight><course>96.5</course><type>1</type></trkpt>
      <trkpt lat="40.5710681" lon="-4.96498793"><ele>2512</ele><speed>16.35</speed><time>2016-07-01T13:32:55Z</time><pdop>3.0</pdop><geoidheight>54.00</geoidheight><course>97.2</course><type>1</type></trkpt>
      <trkpt lat="40.57104166" lon="-4.96479392"><ele>2513</ele><speed>16.56</speed><time>2016-07-01T13:32:56Z</time><pdop>3.0</pdop><geoidheight>54.00</geoidheight><course>98.6</course><type>1</type></trkpt>
      <trkpt lat="40.57102006" lon="-4.96459268"><ele>2514</ele><speed>16.85</speed><time>2016-07-01T13:32:57Z</time><pdop>3.0</pdop><geoidheight>54.00</geoidheight><course>99.4</course><type>1</type></trkpt>
      <trkpt lat="40.57099158" lon="-4.96439728"><ele>2515</ele><speed>17.09</speed><time>2016-07-01T13:32:58Z</time><pdop>3.0</pdop><geoidheight>54.00</geoidheight><course>99.7</course><type>1</type></trkpt>
      <trkpt lat="40.57096366" lon="-4.96420634"><ele>2517</ele><speed>16.89</speed><time>2016-07-01T13:32:59Z</time><pdop>3.0</pdop><geoidheight>54.00</geoidheight><course>99.2</course><type>1</type></trkpt>
      <trkpt lat="40.57094621" lon="-4.96402216"><ele>2518</ele><speed>16.31</speed><time>2016-07-01T13:33:00Z</time><pdop>3.0</pdop><geoidheight>54.00</geoidheight><course>98.3</course><type>1</type></trkpt>
      <trkpt lat="40.57093015" lon="-4.96383597"><ele>2520</ele><speed>15.73</speed><time>2016-07-01T13:33:01Z</time><pdop>3.0</pdop><geoidheight>54.00</geoidheight><course>97.9</course><type>1</type></trkpt>
      <trkpt lat="40.57092049" lon="-4.96365444"><ele>2520</ele><speed>15.82</speed><time>2016-07-01T13:33:02Z</time><pdop>3.0</pdop><geoidheight>54.00</geoidheight><course>97.8</course><type>1</type></trkpt>
      <trkpt lat="40.57089688" lon="-4.96346904"><ele>2521</ele><speed>16.03</speed><time>2016-07-01T13:33:03Z</time><pdop>3.0</pdop><geoidheight>54.00</geoidheight><course>98.7</course><type>1</type></trkpt>
      <trkpt lat="40.57086991" lon="-4.96328031"><ele>2521</ele><speed>16.26</speed><time>2016-07-01T13:33:04Z</time><pdop>3.0</pdop><geoidheight>54.00</geoidheight><course>99.3</course><type>1</type></trkpt>
      <trkpt lat="40.57084443" lon="-4.96308088"><ele>2522</ele><speed>16.72</speed><time>2016-07-01T13:33:05Z</time><pdop>3.0</pdop><geoidheight>54.00</geoidheight><course>100.4</course><type>1</type></trkpt>
      <trkpt lat="40.57081033" lon="-4.96288372"><ele>2522</ele><speed>16.91</speed><time>2016-07-01T13:33:06Z</time><pdop>3.0</pdop><geoidheight>54.00</geoidheight><course>102.4</course><type>1</type></trkpt>
      <trkpt lat="40.57077549" lon="-4.96268808"><ele>2523</ele><speed>16.88</speed><time>2016-07-01T13:33:07Z</time><pdop>3.0</pdop><geoidheight>54.00</geoidheight><course>103.4</course><type>1</type></trkpt>
      <trkpt lat="40.5707435" lon="-4.96249084"><ele>2525</ele><speed>17.08</speed><time>2016-07-01T13:33:08Z</time><pdop>3.0</pdop><geoidheight>54.00</geoidheight><course>103.4</course><type>1</type></trkpt>
      <trkpt lat="40.5707105" lon="-4.96229249"><ele>2525</ele><speed>17.15</speed><time>2016-07-01T13:33:09Z</time><pdop>3.0</pdop><geoidheight>54.00</geoidheight><course>102.7</course><type>1</type></trkpt>
      <trkpt lat="40.57067654" lon="-4.9621058"><ele>2526</ele><speed>16.47</speed><time>2016-07-01T13:33:10Z</time><pdop>4.0</pdop><geoidheight>54.00</geoidheight><course>102.1</course><type>1</type></trkpt>
      <trkpt lat="40.57064537" lon="-4.96191587"><ele>2526</ele><speed>16.45</speed><time>2016-07-01T13:33:11Z</time><pdop>5.0</pdop><geoidheight>54.00</geoidheight><course>102.1</course><type>1</type></trkpt>
      <trkpt lat="40.57061732" lon="-4.96174754"><ele>2528</ele><speed>15.62</speed><time>2016-07-01T13:33:12Z</time><pdop>4.0</pdop><geoidheight>54.00</geoidheight><course>101.9</course><type>1</type></trkpt>
      <trkpt lat="40.57058832" lon="-4.96156727"><ele>2528</ele><speed>15.60</speed><time>2016-07-01T13:33:13Z</time><pdop>6.0</pdop><geoidheight>54.00</geoidheight><course>101.9</course><type>1</type></trkpt>
      <trkpt lat="40.57054742" lon="-4.96141052"><ele>2531</ele><speed>13.98</speed><time>2016-07-01T13:33:14Z</time><pdop>3.0</pdop><geoidheight>54.00</geoidheight><course>109.8</course><type>1</type></trkpt>
      <trkpt lat="40.57050524" lon="-4.96124773"><ele>2533</ele><speed>14.66</speed><time>2016-07-01T13:33:15Z</time><pdop>3.0</pdop><geoidheight>54.00</geoidheight><course>113.6</course><type>1</type></trkpt>
      <trkpt lat="40.57044104" lon="-4.96109977"><ele>2534</ele><speed>15.80</speed><time>2016-07-01T13:33:16Z</time><pdop>3.0</pdop><geoidheight>54.00</geoidheight><course>117.6</course><type>1</type></trkpt>
      <trkpt lat="40.57037539" lon="-4.96093478"><ele>2535</ele><speed>15.77</speed><time>2016-07-01T13:33:17Z</time><pdop>3.0</pdop><geoidheight>54.00</geoidheight><course>117.6</course><type>1</type></trkpt>
      <trkpt lat="40.57028605" lon="-4.96076771"><ele>2539</ele><speed>15.99</speed><time>2016-07-01T13:33:18Z</time><pdop>3.0</pdop><geoidheight>54.00</geoidheight><course>121.5</course><type>1</type></trkpt>
      <trkpt lat="40.570196" lon="-4.96061154"><ele>2540</ele><speed>16.23</speed><time>2016-07-01T13:33:19Z</time><pdop>4.0</pdop><geoidheight>54.00</geoidheight><course>126.4</course><type>1</type></trkpt>
      <trkpt lat="40.57010734" lon="-4.96047095"><ele>2541</ele><speed>15.61</speed><time>2016-07-01T13:33:20Z</time><pdop>4.0</pdop><geoidheight>54.00</geoidheight><course>127.8</course><type>1</type></trkpt>
      <trkpt lat="40.57002639" lon="-4.96034416"><ele>2540</ele><speed>14.82</speed><time>2016-07-01T13:33:21Z</time><pdop>5.0</pdop><geoidheight>54.00</geoidheight><course>128.5</course><type>1</type></trkpt>
      <trkpt lat="40.56993443" lon="-4.96031331"><ele>2545</ele><speed>13.27</speed><time>2016-07-01T13:33:22Z</time><pdop>4.0</pdop><geoidheight>54.00</geoidheight><course>137.8</course><type>1</type></trkpt>
      <trkpt lat="40.56984619" lon="-4.96025615"><ele>2547</ele><speed>12.07</speed><time>2016-07-01T13:33:23Z</time><pdop>4.0</pdop><geoidheight>54.00</geoidheight><course>147.3</course><type>1</type></trkpt>
      <trkpt lat="40.56975126" lon="-4.96020406"><ele>2548</ele><speed>11.08</speed><time>2016-07-01T13:33:24Z</time><pdop>4.0</pdop><geoidheight>54.00</geoidheight><course>161.0</course><type>1</type></trkpt>
      <trkpt lat="40.56965998" lon="-4.96017681"><ele>2549</ele><speed>10.67</speed><time>2016-07-01T13:33:25Z</time><pdop>4.0</pdop><geoidheight>54.00</geoidheight><course>167.9</course><type>1</type></trkpt>
      <trkpt lat="40.56957391" lon="-4.96015217"><ele>2534</ele><speed>9.88</speed><time>2016-07-01T13:33:26Z</time><pdop>5.0</pdop><geoidheight>54.00</geoidheight><course>170.5</course><type>1</type></trkpt>
      <trkpt lat="40.56942572" lon="-4.9602668"><ele>2541</ele><speed>9.19</speed><time>2016-07-01T13:33:28Z</time><pdop>6.0</pdop><geoidheight>54.00</geoidheight><course>198.6</course><type>1</type></trkpt>
      <trkpt lat="40.56944397" lon="-4.9604073"><ele>2547</ele><speed>5.00</speed><time>2016-07-01T13:33:30Z</time><pdop>6.0</pdop><geoidheight>54.00</geoidheight><course>231.6</course><type>1</type></trkpt>
      <trkpt lat="40.5695526" lon="-4.96043902"><ele>2550</ele><speed>4.38</speed><time>2016-07-01T13:33:31Z</time><pdop>6.0</pdop><geoidheight>54.00</geoidheight><course>300.9</course><type>1</type></trkpt>
      <trkpt lat="40.56974246" lon="-4.96042144"><ele>2553</ele><speed>6.63</speed><time>2016-07-01T13:33:33Z</time><pdop>8.0</pdop><geoidheight>54.00</geoidheight><course>348.4</course><type>1</type></trkpt>
      <trkpt lat="40.56993991" lon="-4.96010839"><ele>2556</ele><speed>11.68</speed><time>2016-07-01T13:33:35Z</time><pdop>9.0</pdop><geoidheight>54.00</geoidheight><course>40.6</course><type>1</type></trkpt>
      <trkpt lat="40.56995949" lon="-4.95969866"><ele>2560</ele><speed>13.76</speed><time>2016-07-01T13:33:37Z</time><pdop>10.0</pdop><geoidheight>54.00</geoidheight><course>72.6</course><type>1</type></trkpt>
      <trkpt lat="40.56993858" lon="-4.95945472"><ele>2566</ele><speed>16.27</speed><time>2016-07-01T13:33:38Z</time><pdop>6.0</pdop><geoidheight>54.00</geoidheight><course>91.8</course><type>1</type></trkpt>
      <trkpt lat="40.5699292" lon="-4.95925888"><ele>2568</ele><speed>16.80</speed><time>2016-07-01T13:33:39Z</time><pdop>6.0</pdop><geoidheight>54.00</geoidheight><course>98.5</course><type>1</type></trkpt>
      <trkpt lat="40.56989632" lon="-4.95906158"><ele>2571</ele><speed>16.52</speed><time>2016-07-01T13:33:40Z</time><pdop>5.0</pdop><geoidheight>54.00</geoidheight><course>105.2</course><type>1</type></trkpt>
      <trkpt lat="40.56984377" lon="-4.95887161"><ele>2575</ele><speed>16.10</speed><time>2016-07-01T13:33:41Z</time><pdop>5.0</pdop><geoidheight>54.00</geoidheight><course>110.5</course><type>1</type></trkpt>
      <trkpt lat="40.56978238" lon="-4.95872277"><ele>2577</ele><speed>15.79</speed><time>2016-07-01T13:33:42Z</time><pdop>4.0</pdop><geoidheight>54.00</geoidheight><course>116.8</course><type>1</type></trkpt>
      <trkpt lat="40.56970135" lon="-4.95857614"><ele>2579</ele><speed>15.50</speed><time>2016-07-01T13:33:43Z</time><pdop>5.0</pdop><geoidheight>54.00</geoidheight><course>125.5</course><type>1</type></trkpt>
      <trkpt lat="40.56962227" lon="-4.95845672"><ele>2582</ele><speed>14.58</speed><time>2016-07-01T13:33:44Z</time><pdop>5.0</pdop><geoidheight>54.00</geoidheight><course>129.7</course><type>1</type></trkpt>
      <trkpt lat="40.56951538" lon="-4.95838543"><ele>2584</ele><speed>13.87</speed><time>2016-07-01T13:33:45Z</time><pdop>6.0</pdop><geoidheight>54.00</geoidheight><course>141.2</course><type>1</type></trkpt>
      <trkpt lat="40.56941309" lon="-4.9583061"><ele>2586</ele><speed>13.06</speed><time>2016-07-01T13:33:46Z</time><pdop>6.0</pdop><geoidheight>54.00</geoidheight><course>147.9</course><type>1</type></trkpt>
      <trkpt lat="40.56930536" lon="-4.95828208"><ele>2589</ele><speed>12.01</speed><time>2016-07-01T13:33:47Z</time><pdop>6.0</pdop><geoidheight>54.00</geoidheight><course>160.8</course><type>1</type></trkpt>
      <trkpt lat="40.56915444" lon="-4.95835867"><ele>2596</ele><speed>8.41</speed><time>2016-07-01T13:33:49Z</time><pdop>4.0</pdop><geoidheight>54.00</geoidheight><course>188.6</course><type>1</type></trkpt>
      <trkpt lat="40.5690318" lon="-4.9584494"><ele>2598</ele><speed>7.76</speed><time>2016-07-01T13:33:51Z</time><pdop>4.0</pdop><geoidheight>54.00</geoidheight><course>213.4</course><type>1</type></trkpt>
      <trkpt lat="40.56897065" lon="-4.95850614"><ele>2600</ele><speed>8.21</speed><time>2016-07-01T13:33:52Z</time><pdop>4.0</pdop><geoidheight>54.00</geoidheight><course>214.7</course><type>1</type></trkpt>
      <trkpt lat="40.56893808" lon="-4.95860811"><ele>2604</ele><speed>5.17</speed><time>2016-07-01T13:33:54Z</time><pdop>5.0</pdop><geoidheight>54.00</geoidheight><course>242.1</course><type>1</type></trkpt>
      <trkpt lat="40.56910429" lon="-4.9585943"><ele>2609</ele><speed>4.34</speed><time>2016-07-01T13:33:57Z</time><pdop>8.0</pdop><geoidheight>54.00</geoidheight><course>351.6</course><type>1</type></trkpt>
      <trkpt lat="40.56930466" lon="-4.95849396"><ele>2611</ele><speed>7.48</speed><time>2016-07-01T13:33:59Z</time><pdop>11.0</pdop><geoidheight>54.00</geoidheight><course>12.4</course><type>1</type></trkpt>
      <trkpt lat="40.56937438" lon="-4.95824438"><ele>2613</ele><speed>11.81</speed><time>2016-07-01T13:34:00Z</time><pdop>11.0</pdop><geoidheight>54.00</geoidheight><course>48.8</course><type>1</type></trkpt>
      <trkpt lat="40.56942909" lon="-4.95786839"><ele>2618</ele><speed>13.36</speed><time>2016-07-01T13:34:02Z</time><pdop>14.0</pdop><geoidheight>54.00</geoidheight><course>67.4</course><type>1</type></trkpt>
      <trkpt lat="40.56946366" lon="-4.9574339"><ele>2626</ele><speed>16.46</speed><time>2016-07-01T13:34:04Z</time><pdop>6.0</pdop><geoidheight>54.00</geoidheight><course>89.6</course><type>1</type></trkpt>
      <trkpt lat="40.56944469" lon="-4.95723034"><ele>2630</ele><speed>16.39</speed><time>2016-07-01T13:34:05Z</time><pdop>5.0</pdop><geoidheight>54.00</geoidheight><course>100.1</course><type>1</type></trkpt>
      <trkpt lat="40.56940381" lon="-4.95703614"><ele>2632</ele><speed>17.11</speed><time>2016-07-01T13:34:06Z</time><pdop>5.0</pdop><geoidheight>54.00</geoidheight><course>110.0</course><type>1</type></trkpt>
      <trkpt lat="40.56932708" lon="-4.95686481"><ele>2637</ele><speed>16.26</speed><time>2016-07-01T13:34:07Z</time><pdop>4.0</pdop><geoidheight>54.00</geoidheight><course>121.3</course><type>1</type></trkpt>
      <trkpt lat="40.56924922" lon="-4.95674229"><ele>2641</ele><speed>15.01</speed><time>2016-07-01T13:34:08Z</time><pdop>4.0</pdop><geoidheight>54.00</geoidheight><course>132.2</course><type>1</type></trkpt>
      <trkpt lat="40.56914784" lon="-4.95663784"><ele>2646</ele><speed>14.33</speed><time>2016-07-01T13:34:09Z</time><pdop>4.0</pdop><geoidheight>54.00</geoidheight><course>143.9</course><type>1</type></trkpt>
      <trkpt lat="40.56903498" lon="-4.95658377"><ele>2649</ele><speed>12.98</speed><time>2016-07-01T13:34:10Z</time><pdop>4.0</pdop><geoidheight>54.00</geoidheight><course>157.6</course><type>1</type></trkpt>
      <trkpt lat="40.56893238" lon="-4.95656797"><ele>2653</ele><speed>11.78</speed><time>2016-07-01T13:34:11Z</time><pdop>3.0</pdop><geoidheight>54.00</geoidheight><course>173.7</course><type>1</type></trkpt>
      <trkpt lat="40.56884798" lon="-4.95657999"><ele>2657</ele><speed>10.70</speed><time>2016-07-01T13:34:12Z</time><pdop>4.0</pdop><geoidheight>54.00</geoidheight><course>188.8</course><type>1</type></trkpt>
      <trkpt lat="40.56877373" lon="-4.95663983"><ele>2659</ele><speed>9.17</speed><time>2016-07-01T13:34:13Z</time><pdop>3.0</pdop><geoidheight>54.00</geoidheight><course>207.7</course><type>1</type></trkpt>
      <trkpt lat="40.56871742" lon="-4.95669624"><ele>2661</ele><speed>8.50</speed><time>2016-07-01T13:34:14Z</time><pdop>4.0</pdop><geoidheight>54.00</geoidheight><course>217.6</course><type>1</type></trkpt>
      <trkpt lat="40.56866287" lon="-4.95682052"><ele>2663</ele><speed>6.29</speed><time>2016-07-01T13:34:16Z</time><pdop>6.0</pdop><geoidheight>54.00</geoidheight><course>233.2</course><type>1</type></trkpt>
      <trkpt lat="40.56883794" lon="-4.95682083"><ele>2666</ele><speed>3.19</speed><time>2016-07-01T13:34:19Z</time><pdop>13.0</pdop><geoidheight>54.00</geoidheight><course>340.2</course><type>1</type></trkpt>
      <trkpt lat="40.56908486" lon="-4.95650051"><ele>2666</ele><speed>10.50</speed><time>2016-07-01T13:34:21Z</time><pdop>13.0</pdop><geoidheight>54.00</geoidheight><course>40.5</course><type>1</type></trkpt>
      <trkpt lat="40.56918074" lon="-4.95596632"><ele>2671</ele><speed>13.62</speed><time>2016-07-01T13:34:24Z</time><pdop>14.0</pdop><geoidheight>54.00</geoidheight><course>75.9</course><type>1</type></trkpt>
      <trkpt lat="40.5691427" lon="-4.95551109"><ele>2675</ele><speed>16.85</speed><time>2016-07-01T13:34:26Z</time><pdop>9.0</pdop><geoidheight>54.00</geoidheight><course>101.0</course><type>1</type></trkpt>
      <trkpt lat="40.56907715" lon="-4.95525859"><ele>2680</ele><speed>18.52</speed><time>2016-07-01T13:34:27Z</time><pdop>8.0</pdop><geoidheight>54.00</geoidheight><course>110.4</course><type>1</type></trkpt>
      <trkpt lat="40.56902677" lon="-4.95504566"><ele>2682</ele><speed>18.35</speed><time>2016-07-01T13:34:28Z</time><pdop>8.0</pdop><geoidheight>54.00</geoidheight><course>110.9</course><type>1</type></trkpt>
      <trkpt lat="40.56888723" lon="-4.95479375"><ele>2684</ele><speed>14.69</speed><time>2016-07-01T13:34:30Z</time><pdop>9.0</pdop><geoidheight>54.00</geoidheight><course>120.6</course><type>1</type></trkpt>
      <trkpt lat="40.56869497" lon="-4.95471427"><ele>2688</ele><speed>11.31</speed><time>2016-07-01T13:34:32Z</time><pdop>9.0</pdop><geoidheight>54.00</geoidheight><course>140.5</course><type>1</type></trkpt>
      <trkpt lat="40.56843736" lon="-4.95479118"><ele>2696</ele><speed>10.75</speed><time>2016-07-01T13:34:34Z</time><pdop>10.0</pdop><geoidheight>54.00</geoidheight><course>179.5</course><type>1</type></trkpt>
      <trkpt lat="40.56870216" lon="-4.95470155"><ele>2716</ele><speed>9.58</speed><time>2016-07-01T13:34:43Z</time><pdop>16.0</pdop><geoidheight>54.00</geoidheight><course>42.9</course><type>1</type></trkpt>
      <trkpt lat="40.56879754" lon="-4.9542197"><ele>2723</ele><speed>15.02</speed><time>2016-07-01T13:34:45Z</time><pdop>10.0</pdop><geoidheight>54.00</geoidheight><course>74.4</course><type>1</type></trkpt>
      <trkpt lat="40.56882174" lon="-4.95380605"><ele>2731</ele><speed>16.21</speed><time>2016-07-01T13:34:47Z</time><pdop>8.0</pdop><geoidheight>54.00</geoidheight><course>91.9</course><type>1</type></trkpt>
      <trkpt lat="40.5687974" lon="-4.95359804"><ele>2734</ele><speed>16.58</speed><time>2016-07-01T13:34:48Z</time><pdop>8.0</pdop><geoidheight>54.00</geoidheight><course>97.1</course><type>1</type></trkpt>
      <trkpt lat="40.56865582" lon="-4.95336758"><ele>2739</ele><speed>13.34</speed><time>2016-07-01T13:34:50Z</time><pdop>9.0</pdop><geoidheight>54.00</geoidheight><course>112.4</course><type>1</type></trkpt>
      <trkpt lat="40.56845844" lon="-4.95346636"><ele>2744</ele><speed>11.80</speed><time>2016-07-01T13:34:51Z</time><pdop>6.0</pdop><geoidheight>54.00</geoidheight><course>157.6</course><type>1</type></trkpt>
      <trkpt lat="40.56827431" lon="-4.95344394"><ele>2751</ele><speed>9.86</speed><time>2016-07-01T13:34:53Z</time><pdop>5.0</pdop><geoidheight>54.00</geoidheight><course>181.3</course><type>1</type></trkpt>
      <trkpt lat="40.56813262" lon="-4.95349024"><ele>2756</ele><speed>8.27</speed><time>2016-07-01T13:34:55Z</time><pdop>5.0</pdop><geoidheight>54.00</geoidheight><course>203.9</course><type>1</type></trkpt>
      <trkpt lat="40.56807571" lon="-4.95358533"><ele>2762</ele><speed>6.12</speed><time>2016-07-01T13:34:57Z</time><pdop>4.0</pdop><geoidheight>54.00</geoidheight><course>239.7</course><type>1</type></trkpt>
      <trkpt lat="40.56820911" lon="-4.95363122"><ele>2766</ele><speed>4.79</speed><time>2016-07-01T13:35:01Z</time><pdop>7.0</pdop><geoidheight>54.00</geoidheight><course>348.0</course><type>1</type></trkpt>
      <trkpt lat="40.56830099" lon="-4.95351673"><ele>2768</ele><speed>6.82</speed><time>2016-07-01T13:35:02Z</time><pdop>5.0</pdop><geoidheight>54.00</geoidheight><course>28.0</course><type>1</type></trkpt>
      <trkpt lat="40.56838538" lon="-4.95341718"><ele>2769</ele><speed>9.36</speed><time>2016-07-01T13:35:03Z</time><pdop>6.0</pdop><geoidheight>54.00</geoidheight><course>38.5</course><type>1</type></trkpt>
      <trkpt lat="40.56847075" lon="-4.95330344"><ele>2773</ele><speed>10.53</speed><time>2016-07-01T13:35:04Z</time><pdop>7.0</pdop><geoidheight>54.00</geoidheight><course>42.1</course><type>1</type></trkpt>
      <trkpt lat="40.56851534" lon="-4.95292248"><ele>2780</ele><speed>13.76</speed><time>2016-07-01T13:35:06Z</time><pdop>7.0</pdop><geoidheight>54.00</geoidheight><course>75.8</course><type>1</type></trkpt>
      <trkpt lat="40.56854601" lon="-4.95274552"><ele>2785</ele><speed>14.09</speed><time>2016-07-01T13:35:07Z</time><pdop>5.0</pdop><geoidheight>54.00</geoidheight><course>83.0</course><type>1</type></trkpt>
      <trkpt lat="40.5685635" lon="-4.95257926"><ele>2790</ele><speed>14.17</speed><time>2016-07-01T13:35:08Z</time><pdop>5.0</pdop><geoidheight>54.00</geoidheight><course>87.8</course><type>1</type></trkpt>
      <trkpt lat="40.56856526" lon="-4.95240491"><ele>2792</ele><speed>14.63</speed><time>2016-07-01T13:35:09Z</time><pdop>5.0</pdop><geoidheight>54.00</geoidheight><course>91.3</course><type>1</type></trkpt>
      <trkpt lat="40.56855003" lon="-4.95221586"><ele>2795</ele><speed>15.14</speed><time>2016-07-01T13:35:10Z</time><pdop>5.0</pdop><geoidheight>54.00</geoidheight><course>95.9</course><type>1</type></trkpt>
      <trkpt lat="40.56854235" lon="-4.95202226"><ele>2802</ele><speed>15.81</speed><time>2016-07-01T13:35:11Z</time><pdop>4.0</pdop><geoidheight>54.00</geoidheight><course>96.0</course><type>1</type></trkpt>
      <trkpt lat="40.56854388" lon="-4.9518354"><ele>2808</ele><speed>16.18</speed><time>2016-07-01T13:35:12Z</time><pdop>4.0</pdop><geoidheight>54.00</geoidheight><course>95.4</course><type>1</type></trkpt>
      <trkpt lat="40.56852791" lon="-4.95164466"><ele>2813</ele><speed>16.27</speed><time>2016-07-01T13:35:13Z</time><pdop>3.0</pdop><geoidheight>54.00</geoidheight><course>97.6</course><type>1</type></trkpt>
      <trkpt lat="40.56849114" lon="-4.95147271"><ele>2821</ele><speed>15.59</speed><time>2016-07-01T13:35:14Z</time><pdop>3.0</pdop><geoidheight>54.00</geoidheight><course>105.0</course><type>1</type></trkpt>
      <trkpt lat="40.56843385" lon="-4.95132901"><ele>2826</ele><speed>14.01</speed><time>2016-07-01T13:35:15Z</time><pdop>3.0</pdop><geoidheight>54.00</geoidheight><course>116.7</course><type>1</type></trkpt>
      <trkpt lat="40.56835785" lon="-4.95121601"><ele>2832</ele><speed>13.11</speed><time>2016-07-01T13:35:16Z</time><pdop>3.0</pdop><geoidheight>54.00</geoidheight><course>129.9</course><type>1</type></trkpt>
      <trkpt lat="40.56827105" lon="-4.95116269"><ele>2834</ele><speed>11.55</speed><time>2016-07-01T13:35:17Z</time><pdop>3.0</pdop><geoidheight>54.00</geoidheight><course>146.5</course><type>1</type></trkpt>
      <trkpt lat="40.56818107" lon="-4.95112915"><ele>2837</ele><speed>10.69</speed><time>2016-07-01T13:35:18Z</time><pdop>4.0</pdop><geoidheight>54.00</geoidheight><course>159.9</course><type>1</type></trkpt>
      <trkpt lat="40.5680934" lon="-4.95118916"><ele>2838</ele><speed>9.90</speed><time>2016-07-01T13:35:19Z</time><pdop>4.0</pdop><geoidheight>54.00</geoidheight><course>183.9</course><type>1</type></trkpt>
      <trkpt lat="40.5680013" lon="-4.95132218"><ele>2840</ele><speed>8.91</speed><time>2016-07-01T13:35:21Z</time><pdop>4.0</pdop><geoidheight>54.00</geoidheight><course>220.4</course><type>1</type></trkpt>
      <trkpt lat="40.56795843" lon="-4.95145177"><ele>2843</ele><speed>6.58</speed><time>2016-07-01T13:35:23Z</time><pdop>6.0</pdop><geoidheight>54.00</geoidheight><course>238.0</course><type>1</type></trkpt>
      <trkpt lat="40.56813364" lon="-4.95155246"><ele>2845</ele><speed>3.48</speed><time>2016-07-01T13:35:27Z</time><pdop>15.0</pdop><geoidheight>54.00</geoidheight><course>317.7</course><type>1</type></trkpt>
      <trkpt lat="40.56837598" lon="-4.95122903"><ele>2851</ele><speed>9.22</speed><time>2016-07-01T13:35:29Z</time><pdop>15.0</pdop><geoidheight>54.00</geoidheight><course>41.2</course><type>1</type></trkpt>
      <trkpt lat="40.56846706" lon="-4.95075765"><ele>2856</ele><speed>14.66</speed><time>2016-07-01T13:35:31Z</time><pdop>13.0</pdop><geoidheight>54.00</geoidheight><course>73.5</course><type>1</type></trkpt>
      <trkpt lat="40.56847792" lon="-4.95040684"><ele>2863</ele><speed>13.64</speed><time>2016-07-01T13:35:33Z</time><pdop>9.0</pdop><geoidheight>54.00</geoidheight><course>99.0</course><type>1</type></trkpt>
      <trkpt lat="40.56837329" lon="-4.95014062"><ele>2871</ele><speed>12.37</speed><time>2016-07-01T13:35:35Z</time><pdop>7.0</pdop><geoidheight>54.00</geoidheight><course>129.1</course><type>1</type></trkpt>
      <trkpt lat="40.56821542" lon="-4.95004202"><ele>2881</ele><speed>9.94</speed><time>2016-07-01T13:35:37Z</time><pdop>7.0</pdop><geoidheight>54.00</geoidheight><course>166.6</course><type>1</type></trkpt>
      <trkpt lat="40.56807922" lon="-4.95001979"><ele>2640</ele><speed>8.97</speed><time>2016-07-01T13:35:39Z</time><pdop>8.0</pdop><geoidheight>54.00</geoidheight><course>179.6</course><type>1</type></trkpt>
      <trkpt lat="40.56797689" lon="-4.95016243"><ele>2785</ele><speed>6.61</speed><time>2016-07-01T13:35:42Z</time><pdop>8.0</pdop><geoidheight>54.00</geoidheight><course>228.3</course><type>1</type></trkpt>
      <trkpt lat="40.56813676" lon="-4.95037041"><ele>2834</ele><speed>6.67</speed><time>2016-07-01T13:35:45Z</time><pdop>10.0</pdop><geoidheight>54.00</geoidheight><course>304.9</course><type>1</type></trkpt>
      <trkpt lat="40.56830658" lon="-4.95049624"><ele>2857</ele><speed>7.94</speed><time>2016-07-01T13:35:47Z</time><pdop>9.0</pdop><geoidheight>54.00</geoidheight><course>322.2</course><type>1</type></trkpt>
      <trkpt lat="40.56844799" lon="-4.95034027"><ele>2869</ele><speed>6.20</speed><time>2016-07-01T13:35:49Z</time><pdop>8.0</pdop><geoidheight>54.00</geoidheight><course>15.6</course><type>1</type></trkpt>
      <trkpt lat="40.5685933" lon="-4.9500255"><ele>2884</ele><speed>11.87</speed><time>2016-07-01T13:35:51Z</time><pdop>9.0</pdop><geoidheight>54.00</geoidheight><course>52.3</course><type>1</type></trkpt>
      <trkpt lat="40.56863273" lon="-4.9498352"><ele>2893</ele><speed>13.00</speed><time>2016-07-01T13:35:52Z</time><pdop>7.0</pdop><geoidheight>54.00</geoidheight><course>65.7</course><type>1</type></trkpt>
      <trkpt lat="40.56866932" lon="-4.94962872"><ele>2900</ele><speed>14.56</speed><time>2016-07-01T13:35:53Z</time><pdop>7.0</pdop><geoidheight>54.00</geoidheight><course>74.7</course><type>1</type></trkpt>
      <trkpt lat="40.56867737" lon="-4.94940725"><ele>2908</ele><speed>16.07</speed><time>2016-07-01T13:35:54Z</time><pdop>6.0</pdop><geoidheight>54.00</geoidheight><course>79.5</course><type>1</type></trkpt>
      <trkpt lat="40.56869536" lon="-4.94920786"><ele>2913</ele><speed>15.99</speed><time>2016-07-01T13:35:55Z</time><pdop>5.0</pdop><geoidheight>54.00</geoidheight><course>82.4</course><type>1</type></trkpt>
      <trkpt lat="40.56871042" lon="-4.94901751"><ele>2922</ele><speed>15.71</speed><time>2016-07-01T13:35:56Z</time><pdop>5.0</pdop><geoidheight>54.00</geoidheight><course>86.3</course><type>1</type></trkpt>
      <trkpt lat="40.56870613" lon="-4.94883779"><ele>2927</ele><speed>15.53</speed><time>2016-07-01T13:35:57Z</time><pdop>4.0</pdop><geoidheight>54.00</geoidheight><course>94.1</course><type>1</type></trkpt>
      <trkpt lat="40.56867522" lon="-4.9486776"><ele>2931</ele><speed>14.65</speed><time>2016-07-01T13:35:58Z</time><pdop>4.0</pdop><geoidheight>54.00</geoidheight><course>103.3</course><type>1</type></trkpt>
      <trkpt lat="40.56864144" lon="-4.94849002"><ele>2932</ele><speed>15.56</speed><time>2016-07-01T13:35:59Z</time><pdop>5.0</pdop><geoidheight>54.00</geoidheight><course>108.4</course><type>1</type></trkpt>
      <trkpt lat="40.56856092" lon="-4.94831029"><ele>2934</ele><speed>16.77</speed><time>2016-07-01T13:36:00Z</time><pdop>6.0</pdop><geoidheight>54.00</geoidheight><course>117.3</course><type>1</type></trkpt>
      <trkpt lat="40.56846904" lon="-4.94823102"><ele>2937</ele><speed>14.72</speed><time>2016-07-01T13:36:01Z</time><pdop>6.0</pdop><geoidheight>54.00</geoidheight><course>129.5</course><type>1</type></trkpt>
      <trkpt lat="40.56836874" lon="-4.94813634"><ele>2941</ele><speed>14.37</speed><time>2016-07-01T13:36:02Z</time><pdop>6.0</pdop><geoidheight>54.00</geoidheight><course>134.6</course><type>1</type></trkpt>
      <trkpt lat="40.56827216" lon="-4.94802698"><ele>2945</ele><speed>14.33</speed><time>2016-07-01T13:36:03Z</time><pdop>6.0</pdop><geoidheight>54.00</geoidheight><course>143.0</course><type>1</type></trkpt>
      <trkpt lat="40.56816843" lon="-4.94808907"><ele>2950</ele><speed>12.56</speed><time>2016-07-01T13:36:04Z</time><pdop>5.0</pdop><geoidheight>54.00</geoidheight><course>165.8</course><type>1</type></trkpt>
      <trkpt lat="40.56806881" lon="-4.94812176"><ele>2956</ele><speed>11.58</speed><time>2016-07-01T13:36:05Z</time><pdop>4.0</pdop><geoidheight>54.00</geoidheight><course>182.0</course><type>1</type></trkpt>
      <trkpt lat="40.56797592" lon="-4.94813485"><ele>2960</ele><speed>11.12</speed><time>2016-07-01T13:36:06Z</time><pdop>4.0</pdop><geoidheight>54.00</geoidheight><course>188.9</course><type>1</type></trkpt>
      <trkpt lat="40.56787364" lon="-4.94822151"><ele>2970</ele><speed>8.09</speed><time>2016-07-01T13:36:08Z</time><pdop>4.0</pdop><geoidheight>54.00</geoidheight><course>212.2</course><type>1</type></trkpt>
      <trkpt lat="40.56793741" lon="-4.94834007"><ele>2974</ele><speed>5.49</speed><time>2016-07-01T13:36:10Z</time><pdop>4.0</pdop><geoidheight>54.00</geoidheight><course>297.5</course><type>1</type></trkpt>
      <trkpt lat="40.56802648" lon="-4.94844614"><ele>2976</ele><speed>6.94</speed><time>2016-07-01T13:36:12Z</time><pdop>5.0</pdop><geoidheight>54.00</geoidheight><course>315.7</course><type>1</type></trkpt>
      <trkpt lat="40.56819847" lon="-4.94837821"><ele>2976</ele><speed>8.21</speed><time>2016-07-01T13:36:14Z</time><pdop>6.0</pdop><geoidheight>54.00</geoidheight><course>358.9</course><type>1</type></trkpt>
      <trkpt lat="40.56832127" lon="-4.94807704"><ele>2979</ele><speed>11.66</speed><time>2016-07-01T13:36:16Z</time><pdop>7.0</pdop><geoidheight>54.00</geoidheight><course>46.9</course><type>1</type></trkpt>
      <trkpt lat="40.56825564" lon="-4.94783492"><ele>2987</ele><speed>14.34</speed><time>2016-07-01T13:36:17Z</time><pdop>5.0</pdop><geoidheight>54.00</geoidheight><course>84.5</course><type>1</type></trkpt>
      <trkpt lat="40.56824992" lon="-4.94764979"><ele>2991</ele><speed>14.27</speed><time>2016-07-01T13:36:18Z</time><pdop>4.0</pdop><geoidheight>54.00</geoidheight><course>93.7</course><type>1</type></trkpt>
      <trkpt lat="40.56823669" lon="-4.94748086"><ele>2995</ele><speed>14.55</speed><time>2016-07-01T13:36:19Z</time><pdop>4.0</pdop><geoidheight>54.00</geoidheight><course>101.7</course><type>1</type></trkpt>
      <trkpt lat="40.56819319" lon="-4.9473227"><ele>2999</ele><speed>14.44</speed><time>2016-07-01T13:36:20Z</time><pdop>3.0</pdop><geoidheight>54.00</geoidheight><course>112.7</course><type>1</type></trkpt>
      <trkpt lat="40.56814238" lon="-4.94718143"><ele>3002</ele><speed>13.84</speed><time>2016-07-01T13:36:21Z</time><pdop>4.0</pdop><geoidheight>54.00</geoidheight><course>117.5</course><type>1</type></trkpt>
      <trkpt lat="40.56807343" lon="-4.94707158"><ele>3005</ele><speed>12.68</speed><time>2016-07-01T13:36:22Z</time><pdop>4.0</pdop><geoidheight>54.00</geoidheight><course>126.1</course><type>1</type></trkpt>
      <trkpt lat="40.56796849" lon="-4.94699893"><ele>3010</ele><speed>13.06</speed><time>2016-07-01T13:36:23Z</time><pdop>3.0</pdop><geoidheight>54.00</geoidheight><course>144.9</course><type>1</type></trkpt>
      <trkpt lat="40.5678697" lon="-4.9469331"><ele>3013</ele><speed>12.53</speed><time>2016-07-01T13:36:24Z</time><pdop>4.0</pdop><geoidheight>54.00</geoidheight><course>149.3</course><type>1</type></trkpt>
      <trkpt lat="40.56779148" lon="-4.94688333"><ele>3018</ele><speed>11.23</speed><time>2016-07-01T13:36:25Z</time><pdop>4.0</pdop><geoidheight>54.00</geoidheight><course>155.8</course><type>1</type></trkpt>
      <trkpt lat="40.56772216" lon="-4.94685286"><ele>3023</ele><speed>9.60</speed><time>2016-07-01T13:36:26Z</time><pdop>4.0</pdop><geoidheight>54.00</geoidheight><course>162.8</course><type>1</type></trkpt>
      <trkpt lat="40.56765669" lon="-4.9468415"><ele>3027</ele><speed>8.21</speed><time>2016-07-01T13:36:27Z</time><pdop>3.0</pdop><geoidheight>54.00</geoidheight><course>176.6</course><type>1</type></trkpt>
      <trkpt lat="40.56759448" lon="-4.94686251"><ele>3031</ele><speed>7.75</speed><time>2016-07-01T13:36:28Z</time><pdop>3.0</pdop><geoidheight>54.00</geoidheight><course>193.5</course><type>1</type></trkpt>
      <trkpt lat="40.56753681" lon="-4.94690893"><ele>3032</ele><speed>7.46</speed><time>2016-07-01T13:36:29Z</time><pdop>4.0</pdop><geoidheight>54.00</geoidheight><course>208.1</course><type>1</type></trkpt>
      <trkpt lat="40.56749211" lon="-4.94705576"><ele>3035</ele><speed>7.16</speed><time>2016-07-01T13:36:31Z</time><pdop>5.0</pdop><geoidheight>54.00</geoidheight><course>245.0</course><type>1</type></trkpt>
      <trkpt lat="40.56759217" lon="-4.94717639"><ele>3042</ele><speed>6.79</speed><time>2016-07-01T13:36:33Z</time><pdop>4.0</pdop><geoidheight>54.00</geoidheight><course>311.6</course><type>1</type></trkpt>
      <trkpt lat="40.56771753" lon="-4.94725508"><ele>3044</ele><speed>7.36</speed><time>2016-07-01T13:36:35Z</time><pdop>6.0</pdop><geoidheight>54.00</geoidheight><course>335.1</course><type>1</type></trkpt>
      <trkpt lat="40.56785995" lon="-4.94721368"><ele>3048</ele><speed>7.20</speed><time>2016-07-01T13:36:37Z</time><pdop>9.0</pdop><geoidheight>54.00</geoidheight><course>1.7</course><type>1</type></trkpt>
      <trkpt lat="40.56806989" lon="-4.94699809"><ele>3049</ele><speed>11.74</speed><time>2016-07-01T13:36:39Z</time><pdop>11.0</pdop><geoidheight>54.00</geoidheight><course>33.4</course><type>1</type></trkpt>
      <trkpt lat="40.56809469" lon="-4.94660368"><ele>3053</ele><speed>13.83</speed><time>2016-07-01T13:36:41Z</time><pdop>8.0</pdop><geoidheight>54.00</geoidheight><course>68.9</course><type>1</type></trkpt>
      <trkpt lat="40.56816251" lon="-4.94624848"><ele>3060</ele><speed>13.82</speed><time>2016-07-01T13:36:43Z</time><pdop>6.0</pdop><geoidheight>54.00</geoidheight><course>78.3</course><type>1</type></trkpt>
      <trkpt lat="40.56812418" lon="-4.94610481"><ele>3061</ele><speed>12.64</speed><time>2016-07-01T13:36:44Z</time><pdop>4.0</pdop><geoidheight>54.00</geoidheight><course>98.4</course><type>1</type></trkpt>
      <trkpt lat="40.56808" lon="-4.9459667"><ele>3065</ele><speed>12.20</speed><time>2016-07-01T13:36:45Z</time><pdop>4.0</pdop><geoidheight>54.00</geoidheight><course>113.4</course><type>1</type></trkpt>
      <trkpt lat="40.5680237" lon="-4.94583193"><ele>3067</ele><speed>12.50</speed><time>2016-07-01T13:36:46Z</time><pdop>4.0</pdop><geoidheight>54.00</geoidheight><course>118.6</course><type>1</type></trkpt>
      <trkpt lat="40.56794775" lon="-4.94571217"><ele>3068</ele><speed>13.18</speed><time>2016-07-01T13:36:47Z</time><pdop>3.0</pdop><geoidheight>54.00</geoidheight><course>126.6</course><type>1</type></trkpt>
      <trkpt lat="40.56787902" lon="-4.94564121"><ele>3071</ele><speed>11.36</speed><time>2016-07-01T13:36:48Z</time><pdop>3.0</pdop><geoidheight>54.00</geoidheight><course>134.5</course><type>1</type></trkpt>
      <trkpt lat="40.56780917" lon="-4.94560792"><ele>3077</ele><speed>9.30</speed><time>2016-07-01T13:36:49Z</time><pdop>3.0</pdop><geoidheight>54.00</geoidheight><course>151.6</course><type>1</type></trkpt>
      <trkpt lat="40.56773465" lon="-4.94558681"><ele>3079</ele><speed>8.40</speed><time>2016-07-01T13:36:50Z</time><pdop>3.0</pdop><geoidheight>54.00</geoidheight><course>164.8</course><type>1</type></trkpt>
      <trkpt lat="40.56767077" lon="-4.94557064"><ele>3082</ele><speed>7.97</speed><time>2016-07-01T13:36:51Z</time><pdop>3.0</pdop><geoidheight>54.00</geoidheight><course>173.9</course><type>1</type></trkpt>
      <trkpt lat="40.56760687" lon="-4.94557494"><ele>3082</ele><speed>7.52</speed><time>2016-07-01T13:36:52Z</time><pdop>3.0</pdop><geoidheight>54.00</geoidheight><course>183.3</course><type>1</type></trkpt>
      <trkpt lat="40.56755351" lon="-4.94559722"><ele>3085</ele><speed>7.37</speed><time>2016-07-01T13:36:53Z</time><pdop>3.0</pdop><geoidheight>54.00</geoidheight><course>197.3</course><type>1</type></trkpt>
      <trkpt lat="40.56749739" lon="-4.94563163"><ele>3087</ele><speed>7.64</speed><time>2016-07-01T13:36:54Z</time><pdop>3.0</pdop><geoidheight>54.00</geoidheight><course>205.9</course><type>1</type></trkpt>
      <trkpt lat="40.56743081" lon="-4.94567447"><ele>3089</ele><speed>7.86</speed><time>2016-07-01T13:36:55Z</time><pdop>4.0</pdop><geoidheight>54.00</geoidheight><course>206.7</course><type>1</type></trkpt>
      <trkpt lat="40.56732226" lon="-4.94573492"><ele>3095</ele><speed>7.06</speed><time>2016-07-01T13:36:57Z</time><pdop>5.0</pdop><geoidheight>54.00</geoidheight><course>214.6</course><type>1</type></trkpt>
      <trkpt lat="40.56727445" lon="-4.94587236"><ele>3097</ele><speed>7.14</speed><time>2016-07-01T13:36:59Z</time><pdop>6.0</pdop><geoidheight>54.00</geoidheight><course>246.5</course><type>1</type></trkpt>
      <trkpt lat="40.56743554" lon="-4.94595249"><ele>3103</ele><speed>9.43</speed><time>2016-07-01T13:37:00Z</time><pdop>4.0</pdop><geoidheight>54.00</geoidheight><course>314.6</course><type>1</type></trkpt>
      <trkpt lat="40.56749789" lon="-4.94600011"><ele>3105</ele><speed>8.33</speed><time>2016-07-01T13:37:01Z</time><pdop>4.0</pdop><geoidheight>54.00</geoidheight><course>328.0</course><type>1</type></trkpt>
      <trkpt lat="40.56762172" lon="-4.94603194"><ele>3107</ele><speed>7.33</speed><time>2016-07-01T13:37:03Z</time><pdop>5.0</pdop><geoidheight>54.00</geoidheight><course>350.5</course><type>1</type></trkpt>
      <trkpt lat="40.5677233" lon="-4.94595572"><ele>3108</ele><speed>10.14</speed><time>2016-07-01T13:37:04Z</time><pdop>4.0</pdop><geoidheight>54.00</geoidheight><course>19.7</course><type>1</type></trkpt>
      <trkpt lat="40.56781533" lon="-4.94590313"><ele>3109</ele><speed>11.63</speed><time>2016-07-01T13:37:05Z</time><pdop>3.0</pdop><geoidheight>54.00</geoidheight><course>26.6</course><type>1</type></trkpt>
      <trkpt lat="40.56790254" lon="-4.94583544"><ele>3111</ele><speed>12.21</speed><time>2016-07-01T13:37:06Z</time><pdop>3.0</pdop><geoidheight>54.00</geoidheight><course>33.5</course><type>1</type></trkpt>
      <trkpt lat="40.56798036" lon="-4.94572954"><ele>3114</ele><speed>12.71</speed><time>2016-07-01T13:37:07Z</time><pdop>3.0</pdop><geoidheight>54.00</geoidheight><course>43.2</course><type>1</type></trkpt>
      <trkpt lat="40.56802857" lon="-4.94557569"><ele>3117</ele><speed>13.41</speed><time>2016-07-01T13:37:08Z</time><pdop>3.0</pdop><geoidheight>54.00</geoidheight><course>58.5</course><type>1</type></trkpt>
      <trkpt lat="40.56806758" lon="-4.94541456"><ele>3119</ele><speed>14.18</speed><time>2016-07-01T13:37:09Z</time><pdop>3.0</pdop><geoidheight>54.00</geoidheight><course>70.0</course><type>1</type></trkpt>
      <trkpt lat="40.56809255" lon="-4.9452396"><ele>3120</ele><speed>14.58</speed><time>2016-07-01T13:37:10Z</time><pdop>3.0</pdop><geoidheight>54.00</geoidheight><course>78.6</course><type>1</type></trkpt>
      <trkpt lat="40.56809689" lon="-4.94507506"><ele>3122</ele><speed>14.34</speed><time>2016-07-01T13:37:11Z</time><pdop>3.0</pdop><geoidheight>54.00</geoidheight><course>87.5</course><type>1</type></trkpt>
      <trkpt lat="40.56807475" lon="-4.94490598"><ele>3123</ele><speed>14.43</speed><time>2016-07-01T13:37:12Z</time><pdop>3.0</pdop><geoidheight>54.00</geoidheight><course>99.6</course><type>1</type></trkpt>
      <trkpt lat="40.56801543" lon="-4.94475337"><ele>3123</ele><speed>14.51</speed><time>2016-07-01T13:37:13Z</time><pdop>3.0</pdop><geoidheight>54.00</geoidheight><course>114.7</course><type>1</type></trkpt>
      <trkpt lat="40.56793564" lon="-4.94463151"><ele>3120</ele><speed>14.41</speed><time>2016-07-01T13:37:14Z</time><pdop>3.0</pdop><geoidheight>54.00</geoidheight><course>129.8</course><type>1</type></trkpt>
      <trkpt lat="40.56783186" lon="-4.94454022"><ele>3123</ele><speed>14.03</speed><time>2016-07-01T13:37:15Z</time><pdop>3.0</pdop><geoidheight>54.00</geoidheight><course>143.8</course><type>1</type></trkpt>
      <trkpt lat="40.56772555" lon="-4.94448117"><ele>3127</ele><speed>13.22</speed><time>2016-07-01T13:37:16Z</time><pdop>3.0</pdop><geoidheight>54.00</geoidheight><course>154.9</course><type>1</type></trkpt>
      <trkpt lat="40.56763193" lon="-4.94444759"><ele>3131</ele><speed>11.73</speed><time>2016-07-01T13:37:17Z</time><pdop>3.0</pdop><geoidheight>54.00</geoidheight><course>164.4</course><type>1</type></trkpt>
      <trkpt lat="40.56755149" lon="-4.94444183"><ele>3133</ele><speed>9.74</speed><time>2016-07-01T13:37:18Z</time><pdop>3.0</pdop><geoidheight>54.00</geoidheight><course>175.7</course><type>1</type></trkpt>
      <trkpt lat="40.56747738" lon="-4.94445696"><ele>3135</ele><speed>8.71</speed><time>2016-07-01T13:37:19Z</time><pdop>3.0</pdop><geoidheight>54.00</geoidheight><course>187.6</course><type>1</type></trkpt>
      <trkpt lat="40.56741039" lon="-4.94450309"><ele>3136</ele><speed>8.17</speed><time>2016-07-01T13:37:20Z</time><pdop>3.0</pdop><geoidheight>54.00</geoidheight><course>203.1</course><type>1</type></trkpt>
      <trkpt lat="40.56734957" lon="-4.9445676"><ele>3136</ele><speed>8.04</speed><time>2016-07-01T13:37:21Z</time><pdop>3.0</pdop><geoidheight>54.00</geoidheight><course>213.8</course><type>1</type></trkpt>
      <trkpt lat="40.56731191" lon="-4.94465556"><ele>3136</ele><speed>8.10</speed><time>2016-07-01T13:37:22Z</time><pdop>3.0</pdop><geoidheight>54.00</geoidheight><course>230.6</course><type>1</type></trkpt>
      <trkpt lat="40.56729282" lon="-4.94475996"><ele>3136</ele><speed>8.27</speed><time>2016-07-01T13:37:23Z</time><pdop>3.0</pdop><geoidheight>54.00</geoidheight><course>246.9</course><type>1</type></trkpt>
      <trkpt lat="40.56734261" lon="-4.94494562"><ele>3137</ele><speed>8.17</speed><time>2016-07-01T13:37:25Z</time><pdop>4.0</pdop><geoidheight>54.00</geoidheight><course>281.9</course><type>1</type></trkpt>
      <trkpt lat="40.56744605" lon="-4.94496899"><ele>3138</ele><speed>8.66</speed><time>2016-07-01T13:37:26Z</time><pdop>3.0</pdop><geoidheight>54.00</geoidheight><course>328.0</course><type>1</type></trkpt>
      <trkpt lat="40.56753066" lon="-4.94496057"><ele>3138</ele><speed>9.39</speed><time>2016-07-01T13:37:27Z</time><pdop>3.0</pdop><geoidheight>54.00</geoidheight><course>352.9</course><type>1</type></trkpt>
      <trkpt lat="40.56762217" lon="-4.94492377"><ele>3139</ele><speed>10.53</speed><time>2016-07-01T13:37:28Z</time><pdop>3.0</pdop><geoidheight>54.00</geoidheight><course>15.7</course><type>1</type></trkpt>
      <trkpt lat="40.56770727" lon="-4.94486495"><ele>3140</ele><speed>11.39</speed><time>2016-07-01T13:37:29Z</time><pdop>3.0</pdop><geoidheight>54.00</geoidheight><course>27.1</course><type>1</type></trkpt>
      <trkpt lat="40.56780464" lon="-4.94478677"><ele>3141</ele><speed>12.45</speed><time>2016-07-01T13:37:30Z</time><pdop>4.0</pdop><geoidheight>54.00</geoidheight><course>30.7</course><type>1</type></trkpt>
      <trkpt lat="40.56788875" lon="-4.94467568"><ele>3142</ele><speed>12.76</speed><time>2016-07-01T13:37:31Z</time><pdop>5.0</pdop><geoidheight>54.00</geoidheight><course>37.6</course><type>1</type></trkpt>
      <trkpt lat="40.56788035" lon="-4.94449708"><ele>3143</ele><speed>12.28</speed><time>2016-07-01T13:37:32Z</time><pdop>5.0</pdop><geoidheight>54.00</geoidheight><course>62.3</course><type>1</type></trkpt>
      <trkpt lat="40.56790914" lon="-4.94436252"><ele>3143</ele><speed>12.42</speed><time>2016-07-01T13:37:33Z</time><pdop>5.0</pdop><geoidheight>54.00</geoidheight><course>69.2</course><type>1</type></trkpt>
      <trkpt lat="40.56794242" lon="-4.94422567"><ele>3144</ele><speed>12.48</speed><time>2016-07-01T13:37:34Z</time><pdop>4.0</pdop><geoidheight>54.00</geoidheight><course>75.2</course><type>1</type></trkpt>
      <trkpt lat="40.5679789" lon="-4.94406539"><ele>3145</ele><speed>12.90</speed><time>2016-07-01T13:37:35Z</time><pdop>4.0</pdop><geoidheight>54.00</geoidheight><course>77.9</course><type>1</type></trkpt>
      <trkpt lat="40.56799585" lon="-4.94391165"><ele>3147</ele><speed>13.12</speed><time>2016-07-01T13:37:36Z</time><pdop>5.0</pdop><geoidheight>54.00</geoidheight><course>80.3</course><type>1</type></trkpt>
      <trkpt lat="40.56797845" lon="-4.94375346"><ele>3148</ele><speed>13.59</speed><time>2016-07-01T13:37:37Z</time><pdop>4.0</pdop><geoidheight>54.00</geoidheight><course>95.3</course><type>1</type></trkpt>
      <trkpt lat="40.56795693" lon="-4.9435949"><ele>3149</ele><speed>13.77</speed><time>2016-07-01T13:37:38Z</time><pdop>3.0</pdop><geoidheight>54.00</geoidheight><course>100.4</course><type>1</type></trkpt>
      <trkpt lat="40.56792436" lon="-4.94345032"><ele>3150</ele><speed>12.91</speed><time>2016-07-01T13:37:39Z</time><pdop>3.0</pdop><geoidheight>54.00</geoidheight><course>105.2</course><type>1</type></trkpt>
      <trkpt lat="40.56788912" lon="-4.94332472"><ele>3150</ele><speed>12.19</speed><time>2016-07-01T13:37:40Z</time><pdop>3.0</pdop><geoidheight>54.00</geoidheight><course>112.2</course><type>1</type></trkpt>
      <trkpt lat="40.56783614" lon="-4.94319208"><ele>3152</ele><speed>12.63</speed><time>2016-07-01T13:37:41Z</time><pdop>3.0</pdop><geoidheight>54.00</geoidheight><course>120.5</course><type>1</type></trkpt>
      <trkpt lat="40.56775569" lon="-4.94305831"><ele>3152</ele><speed>14.12</speed><time>2016-07-01T13:37:42Z</time><pdop>3.0</pdop><geoidheight>54.00</geoidheight><course>125.4</course><type>1</type></trkpt>
      <trkpt lat="40.56766993" lon="-4.94292773"><ele>3153</ele><speed>14.46</speed><time>2016-07-01T13:37:43Z</time><pdop>3.0</pdop><geoidheight>54.00</geoidheight><course>130.6</course><type>1</type></trkpt>
      <trkpt lat="40.56758453" lon="-4.9428225"><ele>3154</ele><speed>13.45</speed><time>2016-07-01T13:37:44Z</time><pdop>3.0</pdop><geoidheight>54.00</geoidheight><course>134.7</course><type>1</type></trkpt>
      <trkpt lat="40.56749552" lon="-4.94275293"><ele>3157</ele><speed>11.91</speed><time>2016-07-01T13:37:45Z</time><pdop>3.0</pdop><geoidheight>54.00</geoidheight><course>145.3</course><type>1</type></trkpt>
      <trkpt lat="40.56741029" lon="-4.94268671"><ele>3158</ele><speed>11.09</speed><time>2016-07-01T13:37:46Z</time><pdop>3.0</pdop><geoidheight>54.00</geoidheight><course>145.7</course><type>1</type></trkpt>
      <trkpt lat="40.56732808" lon="-4.94261685"><ele>3159</ele><speed>10.74</speed><time>2016-07-01T13:37:47Z</time><pdop>3.0</pdop><geoidheight>54.00</geoidheight><course>148.9</course><type>1</type></trkpt>
      <trkpt lat="40.56724398" lon="-4.94256954"><ele>3160</ele><speed>10.52</speed><time>2016-07-01T13:37:48Z</time><pdop>3.0</pdop><geoidheight>54.00</geoidheight><course>157.8</course><type>1</type></trkpt>
      <trkpt lat="40.56715228" lon="-4.94254559"><ele>3162</ele><speed>10.35</speed><time>2016-07-01T13:37:49Z</time><pdop>3.0</pdop><geoidheight>54.00</geoidheight><course>168.2</course><type>1</type></trkpt>
      <trkpt lat="40.56705964" lon="-4.94254488"><ele>3158</ele><speed>10.22</speed><time>2016-07-01T13:37:50Z</time><pdop>3.0</pdop><geoidheight>54.00</geoidheight><course>177.4</course><type>1</type></trkpt>
      <trkpt lat="40.5669808" lon="-4.94256412"><ele>3162</ele><speed>9.07</speed><time>2016-07-01T13:37:51Z</time><pdop>3.0</pdop><geoidheight>54.00</geoidheight><course>189.4</course><type>1</type></trkpt>
      <trkpt lat="40.56692246" lon="-4.94261748"><ele>3165</ele><speed>7.84</speed><time>2016-07-01T13:37:52Z</time><pdop>3.0</pdop><geoidheight>54.00</geoidheight><course>210.6</course><type>1</type></trkpt>
      <trkpt lat="40.56687654" lon="-4.94268099"><ele>3166</ele><speed>7.32</speed><time>2016-07-01T13:37:53Z</time><pdop>3.0</pdop><geoidheight>54.00</geoidheight><course>228.5</course><type>1</type></trkpt>
      <trkpt lat="40.5668727" lon="-4.94277416"><ele>3167</ele><speed>7.73</speed><time>2016-07-01T13:37:54Z</time><pdop>3.0</pdop><geoidheight>54.00</geoidheight><course>257.7</course><type>1</type></trkpt>
      <trkpt lat="40.56687399" lon="-4.94285988"><ele>3167</ele><speed>7.66</speed><time>2016-07-01T13:37:55Z</time><pdop>3.0</pdop><geoidheight>54.00</geoidheight><course>264.9</course><type>1</type></trkpt>
      <trkpt lat="40.56687863" lon="-4.94294706"><ele>3168</ele><speed>7.65</speed><time>2016-07-01T13:37:56Z</time><pdop>4.0</pdop><geoidheight>54.00</geoidheight><course>271.6</course><type>1</type></trkpt>
      <trkpt lat="40.56707363" lon="-4.94301261"><ele>3169</ele><speed>9.73</speed><time>2016-07-01T13:37:58Z</time><pdop>4.0</pdop><geoidheight>54.00</geoidheight><course>343.7</course><type>1</type></trkpt>
      <trkpt lat="40.5672614" lon="-4.94303898"><ele>3171</ele><speed>9.86</speed><time>2016-07-01T13:38:00Z</time><pdop>5.0</pdop><geoidheight>54.00</geoidheight><course>349.5</course><type>1</type></trkpt>
      <trkpt lat="40.5673824" lon="-4.94292034"><ele>3147</ele><speed>11.66</speed><time>2016-07-01T13:38:01Z</time><pdop>6.0</pdop><geoidheight>54.00</geoidheight><course>13.8</course><type>1</type></trkpt>
      <trkpt lat="40.5674062" lon="-4.94270148"><ele>3156</ele><speed>12.76</speed><time>2016-07-01T13:38:02Z</time><pdop>5.0</pdop><geoidheight>54.00</geoidheight><course>46.8</course><type>1</type></trkpt>
      <trkpt lat="40.5674305" lon="-4.94255277"><ele>3163</ele><speed>12.62</speed><time>2016-07-01T13:38:03Z</time><pdop>4.0</pdop><geoidheight>54.00</geoidheight><course>61.8</course><type>1</type></trkpt>
      <trkpt lat="40.56749438" lon="-4.9424212"><ele>3167</ele><speed>12.92</speed><time>2016-07-01T13:38:04Z</time><pdop>4.0</pdop><geoidheight>54.00</geoidheight><course>62.1</course><type>1</type></trkpt>
      <trkpt lat="40.56755128" lon="-4.94228208"><ele>3169</ele><speed>13.25</speed><time>2016-07-01T13:38:05Z</time><pdop>4.0</pdop><geoidheight>54.00</geoidheight><course>61.7</course><type>1</type></trkpt>
      <trkpt lat="40.5675662" lon="-4.94211979"><ele>3169</ele><speed>13.69</speed><time>2016-07-01T13:38:06Z</time><pdop>4.0</pdop><geoidheight>54.00</geoidheight><course>68.4</course><type>1</type></trkpt>
      <trkpt lat="40.56761179" lon="-4.94195349"><ele>3170</ele><speed>14.65</speed><time>2016-07-01T13:38:07Z</time><pdop>4.0</pdop><geoidheight>54.00</geoidheight><course>69.6</course><type>1</type></trkpt>
      <trkpt lat="40.56765846" lon="-4.94175778"><ele>3172</ele><speed>15.99</speed><time>2016-07-01T13:38:08Z</time><pdop>4.0</pdop><geoidheight>54.00</geoidheight><course>73.2</course><type>1</type></trkpt>
      <trkpt lat="40.56769328" lon="-4.94153511"><ele>3172</ele><speed>16.62</speed><time>2016-07-01T13:38:09Z</time><pdop>4.0</pdop><geoidheight>54.00</geoidheight><course>74.1</course><type>1</type></trkpt>
      <trkpt lat="40.56771909" lon="-4.94136458"><ele>3175</ele><speed>15.40</speed><time>2016-07-01T13:38:10Z</time><pdop>4.0</pdop><geoidheight>54.00</geoidheight><course>77.2</course><type>1</type></trkpt>
      <trkpt lat="40.56774481" lon="-4.94119695"><ele>3176</ele><speed>14.21</speed><time>2016-07-01T13:38:11Z</time><pdop>3.0</pdop><geoidheight>54.00</geoidheight><course>79.3</course><type>1</type></trkpt>
      <trkpt lat="40.56777326" lon="-4.94106401"><ele>3178</ele><speed>13.63</speed><time>2016-07-01T13:38:12Z</time><pdop>4.0</pdop><geoidheight>54.00</geoidheight><course>79.0</course><type>1</type></trkpt>
      <trkpt lat="40.56780572" lon="-4.94090905"><ele>3180</ele><speed>13.84</speed><time>2016-07-01T13:38:13Z</time><pdop>4.0</pdop><geoidheight>54.00</geoidheight><course>78.2</course><type>1</type></trkpt>
      <trkpt lat="40.56782601" lon="-4.94075204"><ele>3181</ele><speed>13.71</speed><time>2016-07-01T13:38:14Z</time><pdop>4.0</pdop><geoidheight>54.00</geoidheight><course>78.6</course><type>1</type></trkpt>
      <trkpt lat="40.56784992" lon="-4.94059047"><ele>3182</ele><speed>13.20</speed><time>2016-07-01T13:38:15Z</time><pdop>4.0</pdop><geoidheight>54.00</geoidheight><course>79.1</course><type>1</type></trkpt>
      <trkpt lat="40.56786541" lon="-4.94045292"><ele>3182</ele><speed>12.37</speed><time>2016-07-01T13:38:16Z</time><pdop>4.0</pdop><geoidheight>54.00</geoidheight><course>84.0</course><type>1</type></trkpt>
      <trkpt lat="40.56783934" lon="-4.94032983"><ele>3182</ele><speed>11.36</speed><time>2016-07-01T13:38:17Z</time><pdop>3.0</pdop><geoidheight>54.00</geoidheight><course>101.8</course><type>1</type></trkpt>
      <trkpt lat="40.56780242" lon="-4.94020624"><ele>3182</ele><speed>11.54</speed><time>2016-07-01T13:38:18Z</time><pdop>3.0</pdop><geoidheight>54.00</geoidheight><course>110.1</course><type>1</type></trkpt>
      <trkpt lat="40.56775586" lon="-4.94009165"><ele>3183</ele><speed>11.48</speed><time>2016-07-01T13:38:19Z</time><pdop>3.0</pdop><geoidheight>54.00</geoidheight><course>112.1</course><type>1</type></trkpt>
      <trkpt lat="40.56772191" lon="-4.93995355"><ele>3184</ele><speed>12.08</speed><time>2016-07-01T13:38:20Z</time><pdop>3.0</pdop><geoidheight>54.00</geoidheight><course>109.6</course><type>1</type></trkpt>
      <trkpt lat="40.56769661" lon="-4.93982567"><ele>3184</ele><speed>12.45</speed><time>2016-07-01T13:38:21Z</time><pdop>4.0</pdop><geoidheight>54.00</geoidheight><course>104.1</course><type>1</type></trkpt>
      <trkpt lat="40.56769387" lon="-4.93965741"><ele>3184</ele><speed>13.29</speed><time>2016-07-01T13:38:22Z</time><pdop>7.0</pdop><geoidheight>54.00</geoidheight><course>97.9</course><type>1</type></trkpt>
      <trkpt lat="40.56773444" lon="-4.93944268"><ele>3183</ele><speed>15.03</speed><time>2016-07-01T13:38:23Z</time><pdop>8.0</pdop><geoidheight>54.00</geoidheight><course>87.6</course><type>1</type></trkpt>
      <trkpt lat="40.56780935" lon="-4.93923305"><ele>3182</ele><speed>15.58</speed><time>2016-07-01T13:38:24Z</time><pdop>8.0</pdop><geoidheight>54.00</geoidheight><course>75.6</course><type>1</type></trkpt>
      <trkpt lat="40.56791908" lon="-4.93904881"><ele>3182</ele><speed>16.23</speed><time>2016-07-01T13:38:25Z</time><pdop>6.0</pdop><geoidheight>54.00</geoidheight><course>66.8</course><type>1</type></trkpt>
      <trkpt lat="40.5679722" lon="-4.93888535"><ele>3181</ele><speed>15.18</speed><time>2016-07-01T13:38:26Z</time><pdop>6.0</pdop><geoidheight>54.00</geoidheight><course>63.6</course><type>1</type></trkpt>
      <trkpt lat="40.56804329" lon="-4.93871904"><ele>3182</ele><speed>14.90</speed><time>2016-07-01T13:38:27Z</time><pdop>5.0</pdop><geoidheight>54.00</geoidheight><course>61.6</course><type>1</type></trkpt>
      <trkpt lat="40.56811691" lon="-4.93856948"><ele>3182</ele><speed>14.10</speed><time>2016-07-01T13:38:28Z</time><pdop>5.0</pdop><geoidheight>54.00</geoidheight><course>61.0</course><type>1</type></trkpt>
      <trkpt lat="40.56817461" lon="-4.93843389"><ele>3182</ele><speed>13.07</speed><time>2016-07-01T13:38:29Z</time><pdop>5.0</pdop><geoidheight>54.00</geoidheight><course>60.3</course><type>1</type></trkpt>
      <trkpt lat="40.56823874" lon="-4.93830044"><ele>3182</ele><speed>13.04</speed><time>2016-07-01T13:38:30Z</time><pdop>4.0</pdop><geoidheight>54.00</geoidheight><course>62.1</course><type>1</type></trkpt>
      <trkpt lat="40.56828689" lon="-4.93816716"><ele>3181</ele><speed>12.82</speed><time>2016-07-01T13:38:31Z</time><pdop>3.0</pdop><geoidheight>54.00</geoidheight><course>64.5</course><type>1</type></trkpt>
      <trkpt lat="40.56833793" lon="-4.9380382"><ele>3182</ele><speed>12.68</speed><time>2016-07-01T13:38:32Z</time><pdop>3.0</pdop><geoidheight>54.00</geoidheight><course>63.3</course><type>1</type></trkpt>
      <trkpt lat="40.56839098" lon="-4.93787717"><ele>3180</ele><speed>14.09</speed><time>2016-07-01T13:38:33Z</time><pdop>4.0</pdop><geoidheight>54.00</geoidheight><course>65.8</course><type>1</type></trkpt>
      <trkpt lat="40.56845809" lon="-4.93771398"><ele>3181</ele><speed>15.00</speed><time>2016-07-01T13:38:34Z</time><pdop>5.0</pdop><geoidheight>54.00</geoidheight><course>64.8</course><type>1</type></trkpt>
      <trkpt lat="40.5685371" lon="-4.93755169"><ele>3181</ele><speed>15.57</speed><time>2016-07-01T13:38:35Z</time><pdop>7.0</pdop><geoidheight>54.00</geoidheight><course>62.2</course><type>1</type></trkpt>
      <trkpt lat="40.56862536" lon="-4.93739001"><ele>3180</ele><speed>15.53</speed><time>2016-07-01T13:38:36Z</time><pdop>6.0</pdop><geoidheight>54.00</geoidheight><course>57.5</course><type>1</type></trkpt>
      <trkpt lat="40.56868831" lon="-4.93723262"><ele>3181</ele><speed>15.07</speed><time>2016-07-01T13:38:37Z</time><pdop>6.0</pdop><geoidheight>54.00</geoidheight><course>60.2</course><type>1</type></trkpt>
      <trkpt lat="40.56874954" lon="-4.93706797"><ele>3181</ele><speed>15.03</speed><time>2016-07-01T13:38:38Z</time><pdop>5.0</pdop><geoidheight>54.00</geoidheight><course>63.1</course><type>1</type></trkpt>
      <trkpt lat="40.56881788" lon="-4.93692956"><ele>3182</ele><speed>14.77</speed><time>2016-07-01T13:38:39Z</time><pdop>5.0</pdop><geoidheight>54.00</geoidheight><course>63.2</course><type>1</type></trkpt>
      <trkpt lat="40.56887645" lon="-4.93676119"><ele>3182</ele><speed>15.17</speed><time>2016-07-01T13:38:40Z</time><pdop>6.0</pdop><geoidheight>54.00</geoidheight><course>65.5</course><type>1</type></trkpt>
      <trkpt lat="40.56892003" lon="-4.9365993"><ele>3181</ele><speed>14.84</speed><time>2016-07-01T13:38:41Z</time><pdop>6.0</pdop><geoidheight>54.00</geoidheight><course>67.5</course><type>1</type></trkpt>
      <trkpt lat="40.56902313" lon="-4.93629773"><ele>3182</ele><speed>14.32</speed><time>2016-07-01T13:38:43Z</time><pdop>10.0</pdop><geoidheight>54.00</geoidheight><course>65.9</course><type>1</type></trkpt>
      <trkpt lat="40.56913621" lon="-4.9360218"><ele>3180</ele><speed>14.03</speed><time>2016-07-01T13:38:45Z</time><pdop>10.0</pdop><geoidheight>54.00</geoidheight><course>61.3</course><type>1</type></trkpt>
      <trkpt lat="40.56925248" lon="-4.93573514"><ele>3178</ele><speed>13.68</speed><time>2016-07-01T13:38:47Z</time><pdop>10.0</pdop><geoidheight>54.00</geoidheight><course>57.8</course><type>1</type></trkpt>
      <trkpt lat="40.56938374" lon="-4.93547828"><ele>3177</ele><speed>12.95</speed><time>2016-07-01T13:38:49Z</time><pdop>10.0</pdop><geoidheight>54.00</geoidheight><course>56.1</course><type>1</type></trkpt>
      <trkpt lat="40.56952019" lon="-4.9352566"><ele>3176</ele><speed>12.50</speed><time>2016-07-01T13:38:51Z</time><pdop>10.0</pdop><geoidheight>54.00</geoidheight><course>57.0</course><type>1</type></trkpt>
      <trkpt lat="40.56962191" lon="-4.93498277"><ele>3172</ele><speed>13.46</speed><time>2016-07-01T13:38:53Z</time><pdop>10.0</pdop><geoidheight>54.00</geoidheight><course>60.4</course><type>1</type></trkpt>
      <trkpt lat="40.56978285" lon="-4.93468541"><ele>3172</ele><speed>16.06</speed><time>2016-07-01T13:38:55Z</time><pdop>9.0</pdop><geoidheight>54.00</geoidheight><course>57.4</course><type>1</type></trkpt>
      <trkpt lat="40.56994162" lon="-4.9343858"><ele>3168</ele><speed>14.51</speed><time>2016-07-01T13:38:57Z</time><pdop>9.0</pdop><geoidheight>54.00</geoidheight><course>57.4</course><type>1</type></trkpt>
      <trkpt lat="40.57006691" lon="-4.93412488"><ele>3168</ele><speed>12.67</speed><time>2016-07-01T13:38:59Z</time><pdop>9.0</pdop><geoidheight>54.00</geoidheight><course>59.2</course><type>1</type></trkpt>
      <trkpt lat="40.57018572" lon="-4.93386217"><ele>3165</ele><speed>12.27</speed><time>2016-07-01T13:39:01Z</time><pdop>9.0</pdop><geoidheight>54.00</geoidheight><course>57.8</course><type>1</type></trkpt>
      <trkpt lat="40.57032761" lon="-4.93363595"><ele>3162</ele><speed>12.84</speed><time>2016-07-01T13:39:03Z</time><pdop>9.0</pdop><geoidheight>54.00</geoidheight><course>53.2</course><type>1</type></trkpt>
      <trkpt lat="40.57050122" lon="-4.93339835"><ele>3159</ele><speed>14.12</speed><time>2016-07-01T13:39:05Z</time><pdop>9.0</pdop><geoidheight>54.00</geoidheight><course>48.1</course><type>1</type></trkpt>
      <trkpt lat="40.57065264" lon="-4.93314778"><ele>3158</ele><speed>13.46</speed><time>2016-07-01T13:39:07Z</time><pdop>9.0</pdop><geoidheight>54.00</geoidheight><course>53.2</course><type>1</type></trkpt>
      <trkpt lat="40.57078954" lon="-4.93291882"><ele>3155</ele><speed>12.99</speed><time>2016-07-01T13:39:09Z</time><pdop>9.0</pdop><geoidheight>54.00</geoidheight><course>53.3</course><type>1</type></trkpt>
      <trkpt lat="40.57092322" lon="-4.93264692"><ele>3150</ele><speed>14.15</speed><time>2016-07-01T13:39:11Z</time><pdop>9.0</pdop><geoidheight>54.00</geoidheight><course>55.4</course><type>1</type></trkpt>
      <trkpt lat="40.57105201" lon="-4.93236754"><ele>3146</ele><speed>13.72</speed><time>2016-07-01T13:39:13Z</time><pdop>9.0</pdop><geoidheight>54.00</geoidheight><course>59.4</course><type>1</type></trkpt>
      <trkpt lat="40.57114948" lon="-4.93207062"><ele>3142</ele><speed>13.90</speed><time>2016-07-01T13:39:15Z</time><pdop>9.0</pdop><geoidheight>54.00</geoidheight><course>64.1</course><type>1</type></trkpt>
      <trkpt lat="40.57126167" lon="-4.93180014"><ele>3136</ele><speed>13.39</speed><time>2016-07-01T13:39:17Z</time><pdop>9.0</pdop><geoidheight>54.00</geoidheight><course>59.2</course><type>1</type></trkpt>
      <trkpt lat="40.57138399" lon="-4.93154541"><ele>3134</ele><speed>12.89</speed><time>2016-07-01T13:39:19Z</time><pdop>9.0</pdop><geoidheight>54.00</geoidheight><course>57.5</course><type>1</type></trkpt>
      <trkpt lat="40.5715478" lon="-4.9313171"><ele>3133</ele><speed>13.71</speed><time>2016-07-01T13:39:21Z</time><pdop>11.0</pdop><geoidheight>54.00</geoidheight><course>51.9</course><type>1</type></trkpt>
      <trkpt lat="40.57167188" lon="-4.93103781"><ele>3133</ele><speed>14.01</speed><time>2016-07-01T13:39:23Z</time><pdop>10.0</pdop><geoidheight>54.00</geoidheight><course>58.2</course><type>1</type></trkpt>
      <trkpt lat="40.57169465" lon="-4.93073376"><ele>3130</ele><speed>12.59</speed><time>2016-07-01T13:39:25Z</time><pdop>10.0</pdop><geoidheight>54.00</geoidheight><course>76.3</course><type>1</type></trkpt>
      <trkpt lat="40.57173947" lon="-4.93041985"><ele>3124</ele><speed>10.23</speed><time>2016-07-01T13:39:28Z</time><pdop>9.0</pdop><geoidheight>54.00</geoidheight><course>77.8</course><type>1</type></trkpt>
      <trkpt lat="40.57180168" lon="-4.93015267"><ele>3122</ele><speed>10.97</speed><time>2016-07-01T13:39:30Z</time><pdop>10.0</pdop><geoidheight>54.00</geoidheight><course>71.4</course><type>1</type></trkpt>
      <trkpt lat="40.57190341" lon="-4.92986011"><ele>3120</ele><speed>12.94</speed><time>2016-07-01T13:39:32Z</time><pdop>12.0</pdop><geoidheight>54.00</geoidheight><course>66.9</course><type>1</type></trkpt>
      <trkpt lat="40.57199423" lon="-4.92954803"><ele>3117</ele><speed>14.50</speed><time>2016-07-01T13:39:34Z</time><pdop>13.0</pdop><geoidheight>54.00</geoidheight><course>65.5</course><type>1</type></trkpt>
      <trkpt lat="40.57212843" lon="-4.9293071"><ele>3113</ele><speed>13.06</speed><time>2016-07-01T13:39:36Z</time><pdop>11.0</pdop><geoidheight>54.00</geoidheight><course>62.3</course><type>1</type></trkpt>
      <trkpt lat="40.57223411" lon="-4.92902999"><ele>3112</ele><speed>12.71</speed><time>2016-07-01T13:39:38Z</time><pdop>12.0</pdop><geoidheight>54.00</geoidheight><course>62.7</course><type>1</type></trkpt>
      <trkpt lat="40.57231737" lon="-4.92875188"><ele>3106</ele><speed>13.83</speed><time>2016-07-01T13:39:40Z</time><pdop>11.0</pdop><geoidheight>54.00</geoidheight><course>67.7</course><type>1</type></trkpt>
      <trkpt lat="40.57237852" lon="-4.92847847"><ele>3101</ele><speed>12.99</speed><time>2016-07-01T13:39:42Z</time><pdop>10.0</pdop><geoidheight>54.00</geoidheight><course>67.7</course><type>1</type></trkpt>
      <trkpt lat="40.57247862" lon="-4.92823383"><ele>3098</ele><speed>12.69</speed><time>2016-07-01T13:39:44Z</time><pdop>10.0</pdop><geoidheight>54.00</geoidheight><course>61.5</course><type>1</type></trkpt>
      <trkpt lat="40.5725752" lon="-4.92794938"><ele>3094</ele><speed>12.78</speed><time>2016-07-01T13:39:46Z</time><pdop>10.0</pdop><geoidheight>54.00</geoidheight><course>69.8</course><type>1</type></trkpt>
      <trkpt lat="40.5725989" lon="-4.92769079"><ele>3095</ele><speed>11.86</speed><time>2016-07-01T13:39:48Z</time><pdop>10.0</pdop><geoidheight>54.00</geoidheight><course>87.6</course><type>1</type></trkpt>
      <trkpt lat="40.57255594" lon="-4.92742624"><ele>3093</ele><speed>11.54</speed><time>2016-07-01T13:39:50Z</time><pdop>10.0</pdop><geoidheight>54.00</geoidheight><course>101.1</course><type>1</type></trkpt>
      <trkpt lat="40.57250103" lon="-4.92718945"><ele>3087</ele><speed>10.40</speed><time>2016-07-01T13:39:52Z</time><pdop>9.0</pdop><geoidheight>54.00</geoidheight><course>100.4</course><type>1</type></trkpt>
      <trkpt lat="40.57251399" lon="-4.92693112"><ele>3082</ele><speed>11.57</speed><time>2016-07-01T13:39:54Z</time><pdop>9.0</pdop><geoidheight>54.00</geoidheight><course>86.8</course><type>1</type></trkpt>
      <trkpt lat="40.5725708" lon="-4.92662203"><ele>3081</ele><speed>13.07</speed><time>2016-07-01T13:39:56Z</time><pdop>10.0</pdop><geoidheight>54.00</geoidheight><course>78.4</course><type>1</type></trkpt>
      <trkpt lat="40.57270304" lon="-4.92641308"><ele>3076</ele><speed>11.01</speed><time>2016-07-01T13:39:58Z</time><pdop>9.0</pdop><geoidheight>54.00</geoidheight><course>64.2</course><type>1</type></trkpt>
      <trkpt lat="40.57278372" lon="-4.92617706"><ele>3074</ele><speed>11.40</speed><time>2016-07-01T13:40:00Z</time><pdop>9.0</pdop><geoidheight>54.00</geoidheight><course>67.8</course><type>1</type></trkpt>
      <trkpt lat="40.57286272" lon="-4.92592722"><ele>3067</ele><speed>11.81</speed><time>2016-07-01T13:40:02Z</time><pdop>9.0</pdop><geoidheight>54.00</geoidheight><course>66.8</course><type>1</type></trkpt>
      <trkpt lat="40.57293726" lon="-4.92566036"><ele>3063</ele><speed>11.66</speed><time>2016-07-01T13:40:04Z</time><pdop>9.0</pdop><geoidheight>54.00</geoidheight><course>71.2</course><type>1</type></trkpt>
      <trkpt lat="40.57300627" lon="-4.92540598"><ele>3059</ele><speed>11.26</speed><time>2016-07-01T13:40:06Z</time><pdop>9.0</pdop><geoidheight>54.00</geoidheight><course>70.7</course><type>1</type></trkpt>
      <trkpt lat="40.57304809" lon="-4.92517322"><ele>3056</ele><speed>10.70</speed><time>2016-07-01T13:40:08Z</time><pdop>9.0</pdop><geoidheight>54.00</geoidheight><course>75.9</course><type>1</type></trkpt>
      <trkpt lat="40.57309303" lon="-4.92491446"><ele>3053</ele><speed>11.86</speed><time>2016-07-01T13:40:10Z</time><pdop>10.0</pdop><geoidheight>54.00</geoidheight><course>78.4</course><type>1</type></trkpt>
      <trkpt lat="40.57317953" lon="-4.92460291"><ele>3049</ele><speed>13.88</speed><time>2016-07-01T13:40:12Z</time><pdop>9.0</pdop><geoidheight>54.00</geoidheight><course>73.9</course><type>1</type></trkpt>
      <trkpt lat="40.57324049" lon="-4.92433742"><ele>3048</ele><speed>12.10</speed><time>2016-07-01T13:40:14Z</time><pdop>9.0</pdop><geoidheight>54.00</geoidheight><course>75.3</course><type>1</type></trkpt>
      <trkpt lat="40.57327603" lon="-4.9240955"><ele>3047</ele><speed>10.07</speed><time>2016-07-01T13:40:16Z</time><pdop>9.0</pdop><geoidheight>54.00</geoidheight><course>77.5</course><type>1</type></trkpt>
      <trkpt lat="40.5732982" lon="-4.92386153"><ele>3047</ele><speed>10.07</speed><time>2016-07-01T13:40:18Z</time><pdop>9.0</pdop><geoidheight>54.00</geoidheight><course>86.6</course><type>1</type></trkpt>
      <trkpt lat="40.57326412" lon="-4.92363217"><ele>3047</ele><speed>10.15</speed><time>2016-07-01T13:40:20Z</time><pdop>9.0</pdop><geoidheight>54.00</geoidheight><course>97.7</course><type>1</type></trkpt>
      <trkpt lat="40.57322757" lon="-4.9234125"><ele>3047</ele><speed>8.63</speed><time>2016-07-01T13:40:22Z</time><pdop>9.0</pdop><geoidheight>54.00</geoidheight><course>91.6</course><type>1</type></trkpt>
      <trkpt lat="40.57321671" lon="-4.92323334"><ele>3046</ele><speed>7.83</speed><time>2016-07-01T13:40:24Z</time><pdop>3.0</pdop><geoidheight>54.00</geoidheight><course>92.2</course><type>1</type></trkpt>
      <trkpt lat="40.57320897" lon="-4.92313463"><ele>3045</ele><speed>8.20</speed><time>2016-07-01T13:40:25Z</time><pdop>3.0</pdop><geoidheight>54.00</geoidheight><course>92.3</course><type>1</type></trkpt>
      <trkpt lat="40.57321027" lon="-4.92303345"><ele>3044</ele><speed>8.99</speed><time>2016-07-01T13:40:26Z</time><pdop>3.0</pdop><geoidheight>54.00</geoidheight><course>89.6</course><type>1</type></trkpt>
      <trkpt lat="40.57321955" lon="-4.92291605"><ele>3043</ele><speed>10.02</speed><time>2016-07-01T13:40:27Z</time><pdop>3.0</pdop><geoidheight>54.00</geoidheight><course>87.8</course><type>1</type></trkpt>
      <trkpt lat="40.57322695" lon="-4.92279723"><ele>3042</ele><speed>10.17</speed><time>2016-07-01T13:40:28Z</time><pdop>3.0</pdop><geoidheight>54.00</geoidheight><course>87.9</course><type>1</type></trkpt>
      <trkpt lat="40.57323154" lon="-4.9226725"><ele>3042</ele><speed>10.50</speed><time>2016-07-01T13:40:29Z</time><pdop>4.0</pdop><geoidheight>54.00</geoidheight><course>87.6</course><type>1</type></trkpt>
      <trkpt lat="40.57326035" lon="-4.92255467"><ele>3040</ele><speed>10.63</speed><time>2016-07-01T13:40:30Z</time><pdop>3.0</pdop><geoidheight>54.00</geoidheight><course>79.3</course><type>1</type></trkpt>
      <trkpt lat="40.57328107" lon="-4.92244022"><ele>3040</ele><speed>10.27</speed><time>2016-07-01T13:40:31Z</time><pdop>4.0</pdop><geoidheight>54.00</geoidheight><course>78.5</course><type>1</type></trkpt>
      <trkpt lat="40.5732996" lon="-4.92233047"><ele>3041</ele><speed>9.33</speed><time>2016-07-01T13:40:32Z</time><pdop>4.0</pdop><geoidheight>54.00</geoidheight><course>77.0</course><type>1</type></trkpt>
      <trkpt lat="40.57332821" lon="-4.92223343"><ele>3041</ele><speed>8.59</speed><time>2016-07-01T13:40:33Z</time><pdop>3.0</pdop><geoidheight>54.00</geoidheight><course>72.8</course><type>1</type></trkpt>
      <trkpt lat="40.57334382" lon="-4.92213606"><ele>3040</ele><speed>8.42</speed><time>2016-07-01T13:40:34Z</time><pdop>3.0</pdop><geoidheight>54.00</geoidheight><course>72.6</course><type>1</type></trkpt>
      <trkpt lat="40.57336532" lon="-4.92204819"><ele>3040</ele><speed>7.91</speed><time>2016-07-01T13:40:35Z</time><pdop>3.0</pdop><geoidheight>54.00</geoidheight><course>74.2</course><type>1</type></trkpt>
      <trkpt lat="40.57337549" lon="-4.92195191"><ele>3040</ele><speed>7.62</speed><time>2016-07-01T13:40:36Z</time><pdop>3.0</pdop><geoidheight>54.00</geoidheight><course>76.2</course><type>1</type></trkpt>
      <trkpt lat="40.57339463" lon="-4.92185782"><ele>3040</ele><speed>7.29</speed><time>2016-07-01T13:40:37Z</time><pdop>3.0</pdop><geoidheight>54.00</geoidheight><course>79.2</course><type>1</type></trkpt>
      <trkpt lat="40.57340558" lon="-4.92177369"><ele>3040</ele><speed>7.35</speed><time>2016-07-01T13:40:38Z</time><pdop>3.0</pdop><geoidheight>54.00</geoidheight><course>79.2</course><type>1</type></trkpt>
      <trkpt lat="40.57342329" lon="-4.92170328"><ele>3041</ele><speed>7.58</speed><time>2016-07-01T13:40:39Z</time><pdop>3.0</pdop><geoidheight>54.00</geoidheight><course>75.3</course><type>1</type></trkpt>
      <trkpt lat="40.57345011" lon="-4.92161161"><ele>3038</ele><speed>8.17</speed><time>2016-07-01T13:40:40Z</time><pdop>3.0</pdop><geoidheight>54.00</geoidheight><course>70.7</course><type>1</type></trkpt>
      <trkpt lat="40.57347616" lon="-4.92152436"><ele>3038</ele><speed>8.21</speed><time>2016-07-01T13:40:41Z</time><pdop>3.0</pdop><geoidheight>54.00</geoidheight><course>69.5</course><type>1</type></trkpt>
      <trkpt lat="40.57350544" lon="-4.92141857"><ele>3038</ele><speed>8.83</speed><time>2016-07-01T13:40:42Z</time><pdop>3.0</pdop><geoidheight>54.00</geoidheight><course>72.8</course><type>1</type></trkpt>
      <trkpt lat="40.57351945" lon="-4.92130865"><ele>3038</ele><speed>9.07</speed><time>2016-07-01T13:40:43Z</time><pdop>3.0</pdop><geoidheight>54.00</geoidheight><course>74.8</course><type>1</type></trkpt>
      <trkpt lat="40.57354101" lon="-4.92121123"><ele>3038</ele><speed>9.08</speed><time>2016-07-01T13:40:44Z</time><pdop>3.0</pdop><geoidheight>54.00</geoidheight><course>74.5</course><type>1</type></trkpt>
      <trkpt lat="40.57355947" lon="-4.92109401"><ele>3038</ele><speed>9.45</speed><time>2016-07-01T13:40:45Z</time><pdop>3.0</pdop><geoidheight>54.00</geoidheight><course>73.8</course><type>1</type></trkpt>
      <trkpt lat="40.57358789" lon="-4.92098508"><ele>3039</ele><speed>9.67</speed><time>2016-07-01T13:40:46Z</time><pdop>3.0</pdop><geoidheight>54.00</geoidheight><course>74.4</course><type>1</type></trkpt>
      <trkpt lat="40.57361852" lon="-4.92087028"><ele>3037</ele><speed>9.76</speed><time>2016-07-01T13:40:47Z</time><pdop>3.0</pdop><geoidheight>54.00</geoidheight><course>73.5</course><type>1</type></trkpt>
      <trkpt lat="40.57364968" lon="-4.92075694"><ele>3036</ele><speed>9.92</speed><time>2016-07-01T13:40:48Z</time><pdop>3.0</pdop><geoidheight>54.00</geoidheight><course>70.0</course><type>1</type></trkpt>
      <trkpt lat="40.57368361" lon="-4.92064619"><ele>3034</ele><speed>10.02</speed><time>2016-07-01T13:40:49Z</time><pdop>3.0</pdop><geoidheight>54.00</geoidheight><course>66.5</course><type>1</type></trkpt>
      <trkpt lat="40.57371923" lon="-4.92053835"><ele>3031</ele><speed>10.37</speed><time>2016-07-01T13:40:50Z</time><pdop>3.0</pdop><geoidheight>54.00</geoidheight><course>65.5</course><type>1</type></trkpt>
      <trkpt lat="40.57376086" lon="-4.92042087"><ele>3029</ele><speed>11.08</speed><time>2016-07-01T13:40:51Z</time><pdop>3.0</pdop><geoidheight>54.00</geoidheight><course>68.9</course><type>1</type></trkpt>
      <trkpt lat="40.57379536" lon="-4.92029811"><ele>3029</ele><speed>11.10</speed><time>2016-07-01T13:40:52Z</time><pdop>3.0</pdop><geoidheight>54.00</geoidheight><course>70.8</course><type>1</type></trkpt>
      <trkpt lat="40.57383112" lon="-4.9201905"><ele>3026</ele><speed>11.14</speed><time>2016-07-01T13:40:53Z</time><pdop>3.0</pdop><geoidheight>54.00</geoidheight><course>68.4</course><type>1</type></trkpt>
      <trkpt lat="40.57387086" lon="-4.92006621"><ele>3025</ele><speed>11.66</speed><time>2016-07-01T13:40:54Z</time><pdop>3.0</pdop><geoidheight>54.00</geoidheight><course>66.7</course><type>1</type></trkpt>
      <trkpt lat="40.57393159" lon="-4.91993213"><ele>3024</ele><speed>12.74</speed><time>2016-07-01T13:40:55Z</time><pdop>3.0</pdop><geoidheight>54.00</geoidheight><course>62.6</course><type>1</type></trkpt>
      <trkpt lat="40.57399202" lon="-4.91981121"><ele>3024</ele><speed>12.83</speed><time>2016-07-01T13:40:56Z</time><pdop>3.0</pdop><geoidheight>54.00</geoidheight><course>62.3</course><type>1</type></trkpt>
      <trkpt lat="40.5740318" lon="-4.9196894"><ele>3025</ele><speed>12.07</speed><time>2016-07-01T13:40:57Z</time><pdop>3.0</pdop><geoidheight>54.00</geoidheight><course>67.2</course><type>1</type></trkpt>
      <trkpt lat="40.57405327" lon="-4.91957201"><ele>3026</ele><speed>10.58</speed><time>2016-07-01T13:40:58Z</time><pdop>3.0</pdop><geoidheight>54.00</geoidheight><course>74.1</course><type>1</type></trkpt>
      <trkpt lat="40.57407524" lon="-4.91945845"><ele>3026</ele><speed>9.95</speed><time>2016-07-01T13:40:59Z</time><pdop>3.0</pdop><geoidheight>54.00</geoidheight><course>74.5</course><type>1</type></trkpt>
      <trkpt lat="40.57409183" lon="-4.91934889"><ele>3026</ele><speed>9.40</speed><time>2016-07-01T13:41:00Z</time><pdop>3.0</pdop><geoidheight>54.00</geoidheight><course>76.9</course><type>1</type></trkpt>
      <trkpt lat="40.57411058" lon="-4.91923979"><ele>3026</ele><speed>9.50</speed><time>2016-07-01T13:41:01Z</time><pdop>3.0</pdop><geoidheight>54.00</geoidheight><course>76.1</course><type>1</type></trkpt>
      <trkpt lat="40.57413461" lon="-4.91913741"><ele>3026</ele><speed>9.28</speed><time>2016-07-01T13:41:02Z</time><pdop>3.0</pdop><geoidheight>54.00</geoidheight><course>76.5</course><type>1</type></trkpt>
      <trkpt lat="40.57414333" lon="-4.91902523"><ele>3026</ele><speed>9.33</speed><time>2016-07-01T13:41:03Z</time><pdop>4.0</pdop><geoidheight>54.00</geoidheight><course>78.6</course><type>1</type></trkpt>
      <trkpt lat="40.57416503" lon="-4.91891094"><ele>3026</ele><speed>9.53</speed><time>2016-07-01T13:41:04Z</time><pdop>3.0</pdop><geoidheight>54.00</geoidheight><course>77.3</course><type>1</type></trkpt>
      <trkpt lat="40.57418108" lon="-4.9188146"><ele>3027</ele><speed>9.56</speed><time>2016-07-01T13:41:05Z</time><pdop>3.0</pdop><geoidheight>54.00</geoidheight><course>77.2</course><type>1</type></trkpt>
      <trkpt lat="40.57419741" lon="-4.91868757"><ele>3028</ele><speed>10.09</speed><time>2016-07-01T13:41:06Z</time><pdop>3.0</pdop><geoidheight>54.00</geoidheight><course>79.0</course><type>1</type></trkpt>
      <trkpt lat="40.57420681" lon="-4.91856414"><ele>3029</ele><speed>10.29</speed><time>2016-07-01T13:41:07Z</time><pdop>3.0</pdop><geoidheight>54.00</geoidheight><course>83.0</course><type>1</type></trkpt>
      <trkpt lat="40.57421657" lon="-4.91844749"><ele>3029</ele><speed>9.99</speed><time>2016-07-01T13:41:08Z</time><pdop>3.0</pdop><geoidheight>54.00</geoidheight><course>83.8</course><type>1</type></trkpt>
      <trkpt lat="40.5742302" lon="-4.91833398"><ele>3029</ele><speed>9.72</speed><time>2016-07-01T13:41:09Z</time><pdop>3.0</pdop><geoidheight>54.00</geoidheight><course>84.5</course><type>1</type></trkpt>
      <trkpt lat="40.57423238" lon="-4.91822118"><ele>3029</ele><speed>9.39</speed><time>2016-07-01T13:41:10Z</time><pdop>3.0</pdop><geoidheight>54.00</geoidheight><course>85.8</course><type>1</type></trkpt>
      <trkpt lat="40.57423828" lon="-4.91810219"><ele>3028</ele><speed>9.47</speed><time>2016-07-01T13:41:11Z</time><pdop>3.0</pdop><geoidheight>54.00</geoidheight><course>85.8</course><type>1</type></trkpt>
      <trkpt lat="40.57424429" lon="-4.9179872"><ele>3028</ele><speed>9.14</speed><time>2016-07-01T13:41:12Z</time><pdop>3.0</pdop><geoidheight>54.00</geoidheight><course>87.8</course><type>1</type></trkpt>
      <trkpt lat="40.5742485" lon="-4.91786607"><ele>3029</ele><speed>9.42</speed><time>2016-07-01T13:41:13Z</time><pdop>3.0</pdop><geoidheight>54.00</geoidheight><course>88.4</course><type>1</type></trkpt>
      <trkpt lat="40.57423255" lon="-4.91774172"><ele>3028</ele><speed>9.86</speed><time>2016-07-01T13:41:14Z</time><pdop>3.0</pdop><geoidheight>54.00</geoidheight><course>93.5</course><type>1</type></trkpt>
      <trkpt lat="40.57422356" lon="-4.91763129"><ele>3028</ele><speed>10.20</speed><time>2016-07-01T13:41:15Z</time><pdop>3.0</pdop><geoidheight>54.00</geoidheight><course>94.3</course><type>1</type></trkpt>
      <trkpt lat="40.57420922" lon="-4.91750274"><ele>3027</ele><speed>10.92</speed><time>2016-07-01T13:41:16Z</time><pdop>4.0</pdop><geoidheight>54.00</geoidheight><course>94.5</course><type>1</type></trkpt>
      <trkpt lat="40.57421744" lon="-4.91734338"><ele>3027</ele><speed>12.15</speed><time>2016-07-01T13:41:17Z</time><pdop>3.0</pdop><geoidheight>54.00</geoidheight><course>89.3</course><type>1</type></trkpt>
      <trkpt lat="40.57424007" lon="-4.91717344"><ele>3027</ele><speed>14.11</speed><time>2016-07-01T13:41:18Z</time><pdop>3.0</pdop><geoidheight>54.00</geoidheight><course>84.9</course><type>1</type></trkpt>
      <trkpt lat="40.57424716" lon="-4.91700644"><ele>3025</ele><speed>14.89</speed><time>2016-07-01T13:41:19Z</time><pdop>3.0</pdop><geoidheight>54.00</geoidheight><course>86.3</course><type>1</type></trkpt>
      <trkpt lat="40.57425654" lon="-4.91683533"><ele>3024</ele><speed>14.79</speed><time>2016-07-01T13:41:20Z</time><pdop>3.0</pdop><geoidheight>54.00</geoidheight><course>86.5</course><type>1</type></trkpt>
      <trkpt lat="40.57426751" lon="-4.91666635"><ele>3027</ele><speed>14.07</speed><time>2016-07-01T13:41:21Z</time><pdop>3.0</pdop><geoidheight>54.00</geoidheight><course>84.0</course><type>1</type></trkpt>
      <trkpt lat="40.57428695" lon="-4.91651317"><ele>3027</ele><speed>13.19</speed><time>2016-07-01T13:41:22Z</time><pdop>3.0</pdop><geoidheight>54.00</geoidheight><course>82.3</course><type>1</type></trkpt>
      <trkpt lat="40.57431165" lon="-4.91638448"><ele>3029</ele><speed>11.82</speed><time>2016-07-01T13:41:23Z</time><pdop>3.0</pdop><geoidheight>54.00</geoidheight><course>78.1</course><type>1</type></trkpt>
      <trkpt lat="40.57432618" lon="-4.91626173"><ele>3029</ele><speed>10.96</speed><time>2016-07-01T13:41:24Z</time><pdop>3.0</pdop><geoidheight>54.00</geoidheight><course>78.5</course><type>1</type></trkpt>
      <trkpt lat="40.57433907" lon="-4.91613682"><ele>3028</ele><speed>10.73</speed><time>2016-07-01T13:41:25Z</time><pdop>3.0</pdop><geoidheight>54.00</geoidheight><course>79.8</course><type>1</type></trkpt>
      <trkpt lat="40.57435896" lon="-4.9160096"><ele>3029</ele><speed>10.80</speed><time>2016-07-01T13:41:26Z</time><pdop>3.0</pdop><geoidheight>54.00</geoidheight><course>81.8</course><type>1</type></trkpt>
      <trkpt lat="40.57435203" lon="-4.91588408"><ele>3031</ele><speed>10.75</speed><time>2016-07-01T13:41:27Z</time><pdop>3.0</pdop><geoidheight>54.00</geoidheight><course>90.9</course><type>1</type></trkpt>
      <trkpt lat="40.57434767" lon="-4.9157593"><ele>3032</ele><speed>10.43</speed><time>2016-07-01T13:41:28Z</time><pdop>3.0</pdop><geoidheight>54.00</geoidheight><course>93.5</course><type>1</type></trkpt>
      <trkpt lat="40.57433329" lon="-4.91564206"><ele>3032</ele><speed>10.17</speed><time>2016-07-01T13:41:29Z</time><pdop>3.0</pdop><geoidheight>54.00</geoidheight><course>95.9</course><type>1</type></trkpt>
      <trkpt lat="40.57432185" lon="-4.91550807"><ele>3035</ele><speed>10.62</speed><time>2016-07-01T13:41:30Z</time><pdop>3.0</pdop><geoidheight>54.00</geoidheight><course>95.7</course><type>1</type></trkpt>
      <trkpt lat="40.5743286" lon="-4.91536365"><ele>3036</ele><speed>11.37</speed><time>2016-07-01T13:41:31Z</time><pdop>3.0</pdop><geoidheight>54.00</geoidheight><course>92.1</course><type>1</type></trkpt>
      <trkpt lat="40.57432807" lon="-4.91522706"><ele>3038</ele><speed>11.84</speed><time>2016-07-01T13:41:32Z</time><pdop>3.0</pdop><geoidheight>54.00</geoidheight><course>90.7</course><type>1</type></trkpt>
      <trkpt lat="40.57433219" lon="-4.91510304"><ele>3039</ele><speed>11.76</speed><time>2016-07-01T13:41:33Z</time><pdop>3.0</pdop><geoidheight>54.00</geoidheight><course>88.8</course><type>1</type></trkpt>
      <trkpt lat="40.57433511" lon="-4.91496868"><ele>3040</ele><speed>11.03</speed><time>2016-07-01T13:41:34Z</time><pdop>3.0</pdop><geoidheight>54.00</geoidheight><course>87.8</course><type>1</type></trkpt>
      <trkpt lat="40.57434739" lon="-4.9148827"><ele>3040</ele><speed>8.60</speed><time>2016-07-01T13:41:35Z</time><pdop>3.0</pdop><geoidheight>54.00</geoidheight><course>81.6</course><type>1</type></trkpt>
      <trkpt lat="40.57436463" lon="-4.91478967"><ele>3041</ele><speed>8.26</speed><time>2016-07-01T13:41:36Z</time><pdop>3.0</pdop><geoidheight>54.00</geoidheight><course>77.7</course><type>1</type></trkpt>
      <trkpt lat="40.57438123" lon="-4.9146821"><ele>3043</ele><speed>8.51</speed><time>2016-07-01T13:41:37Z</time><pdop>3.0</pdop><geoidheight>54.00</geoidheight><course>77.4</course><type>1</type></trkpt>
      <trkpt lat="40.57440042" lon="-4.91458212"><ele>3043</ele><speed>9.03</speed><time>2016-07-01T13:41:38Z</time><pdop>3.0</pdop><geoidheight>54.00</geoidheight><course>78.1</course><type>1</type></trkpt>
      <trkpt lat="40.57442218" lon="-4.91447886"><ele>3043</ele><speed>9.62</speed><time>2016-07-01T13:41:39Z</time><pdop>3.0</pdop><geoidheight>54.00</geoidheight><course>77.0</course><type>1</type></trkpt>
      <trkpt lat="40.57442804" lon="-4.91433863"><ele>3042</ele><speed>11.28</speed><time>2016-07-01T13:41:40Z</time><pdop>3.0</pdop><geoidheight>54.00</geoidheight><course>79.8</course><type>1</type></trkpt>
      <trkpt lat="40.57444528" lon="-4.91418659"><ele>3042</ele><speed>12.13</speed><time>2016-07-01T13:41:41Z</time><pdop>4.0</pdop><geoidheight>54.00</geoidheight><course>80.1</course><type>1</type></trkpt>
      <trkpt lat="40.57447109" lon="-4.91402447"><ele>3043</ele><speed>12.80</speed><time>2016-07-01T13:41:42Z</time><pdop>4.0</pdop><geoidheight>54.00</geoidheight><course>79.8</course><type>1</type></trkpt>
      <trkpt lat="40.57448921" lon="-4.91387573"><ele>3041</ele><speed>13.38</speed><time>2016-07-01T13:41:43Z</time><pdop>4.0</pdop><geoidheight>54.00</geoidheight><course>78.7</course><type>1</type></trkpt>
      <trkpt lat="40.5745375" lon="-4.91370723"><ele>3040</ele><speed>14.02</speed><time>2016-07-01T13:41:44Z</time><pdop>4.0</pdop><geoidheight>54.00</geoidheight><course>76.3</course><type>1</type></trkpt>
      <trkpt lat="40.57454137" lon="-4.91355708"><ele>3039</ele><speed>13.63</speed><time>2016-07-01T13:41:45Z</time><pdop>4.0</pdop><geoidheight>54.00</geoidheight><course>79.0</course><type>1</type></trkpt>
      <trkpt lat="40.57457161" lon="-4.91341723"><ele>3038</ele><speed>13.46</speed><time>2016-07-01T13:41:46Z</time><pdop>3.0</pdop><geoidheight>54.00</geoidheight><course>79.1</course><type>1</type></trkpt>
      <trkpt lat="40.57458521" lon="-4.91326275"><ele>3037</ele><speed>13.63</speed><time>2016-07-01T13:41:47Z</time><pdop>3.0</pdop><geoidheight>54.00</geoidheight><course>82.5</course><type>1</type></trkpt>
      <trkpt lat="40.5745997" lon="-4.91309523"><ele>3036</ele><speed>13.73</speed><time>2016-07-01T13:41:48Z</time><pdop>3.0</pdop><geoidheight>54.00</geoidheight><course>86.3</course><type>1</type></trkpt>
      <trkpt lat="40.57460697" lon="-4.91294562"><ele>3033</ele><speed>13.61</speed><time>2016-07-01T13:41:49Z</time><pdop>3.0</pdop><geoidheight>54.00</geoidheight><course>86.0</course><type>1</type></trkpt>
      <trkpt lat="40.57461931" lon="-4.91279049"><ele>3031</ele><speed>13.52</speed><time>2016-07-01T13:41:50Z</time><pdop>3.0</pdop><geoidheight>54.00</geoidheight><course>82.6</course><type>1</type></trkpt>
      <trkpt lat="40.57463896" lon="-4.91263221"><ele>3029</ele><speed>13.49</speed><time>2016-07-01T13:41:51Z</time><pdop>3.0</pdop><geoidheight>54.00</geoidheight><course>80.4</course><type>1</type></trkpt>
      <trkpt lat="40.57465889" lon="-4.91247339"><ele>3029</ele><speed>13.69</speed><time>2016-07-01T13:41:52Z</time><pdop>3.0</pdop><geoidheight>54.00</geoidheight><course>78.7</course><type>1</type></trkpt>
      <trkpt lat="40.5746931" lon="-4.91231327"><ele>3027</ele><speed>14.21</speed><time>2016-07-01T13:41:53Z</time><pdop>3.0</pdop><geoidheight>54.00</geoidheight><course>76.1</course><type>1</type></trkpt>
      <trkpt lat="40.57472828" lon="-4.91214302"><ele>3025</ele><speed>14.44</speed><time>2016-07-01T13:41:54Z</time><pdop>3.0</pdop><geoidheight>54.00</geoidheight><course>75.4</course><type>1</type></trkpt>
      <trkpt lat="40.57476882" lon="-4.91198777"><ele>3022</ele><speed>14.20</speed><time>2016-07-01T13:41:55Z</time><pdop>3.0</pdop><geoidheight>54.00</geoidheight><course>73.7</course><type>1</type></trkpt>
      <trkpt lat="40.57480038" lon="-4.91183494"><ele>3021</ele><speed>13.80</speed><time>2016-07-01T13:41:56Z</time><pdop>3.0</pdop><geoidheight>54.00</geoidheight><course>73.5</course><type>1</type></trkpt>
      <trkpt lat="40.57484095" lon="-4.91168767"><ele>3020</ele><speed>13.38</speed><time>2016-07-01T13:41:57Z</time><pdop>3.0</pdop><geoidheight>54.00</geoidheight><course>73.2</course><type>1</type></trkpt>
      <trkpt lat="40.57487669" lon="-4.91153432"><ele>3020</ele><speed>12.94</speed><time>2016-07-01T13:41:58Z</time><pdop>3.0</pdop><geoidheight>54.00</geoidheight><course>70.7</course><type>1</type></trkpt>
      <trkpt lat="40.57492522" lon="-4.91139738"><ele>3018</ele><speed>12.77</speed><time>2016-07-01T13:41:59Z</time><pdop>3.0</pdop><geoidheight>54.00</geoidheight><course>67.8</course><type>1</type></trkpt>
      <trkpt lat="40.57496924" lon="-4.91126202"><ele>3017</ele><speed>12.71</speed><time>2016-07-01T13:42:00Z</time><pdop>3.0</pdop><geoidheight>54.00</geoidheight><course>67.0</course><type>1</type></trkpt>
      <trkpt lat="40.57500127" lon="-4.91112278"><ele>3015</ele><speed>12.69</speed><time>2016-07-01T13:42:01Z</time><pdop>3.0</pdop><geoidheight>54.00</geoidheight><course>69.5</course><type>1</type></trkpt>
      <trkpt lat="40.57504443" lon="-4.91098307"><ele>3015</ele><speed>12.95</speed><time>2016-07-01T13:42:02Z</time><pdop>3.0</pdop><geoidheight>54.00</geoidheight><course>70.4</course><type>1</type></trkpt>
      <trkpt lat="40.57506592" lon="-4.91083875"><ele>3014</ele><speed>13.14</speed><time>2016-07-01T13:42:03Z</time><pdop>4.0</pdop><geoidheight>54.00</geoidheight><course>73.4</course><type>1</type></trkpt>
      <trkpt lat="40.57511025" lon="-4.91067337"><ele>3013</ele><speed>14.07</speed><time>2016-07-01T13:42:04Z</time><pdop>3.0</pdop><geoidheight>54.00</geoidheight><course>72.6</course><type>1</type></trkpt>
      <trkpt lat="40.57514812" lon="-4.91051678"><ele>3012</ele><speed>14.17</speed><time>2016-07-01T13:42:05Z</time><pdop>4.0</pdop><geoidheight>54.00</geoidheight><course>72.8</course><type>1</type></trkpt>
      <trkpt lat="40.57520049" lon="-4.91035686"><ele>3011</ele><speed>14.35</speed><time>2016-07-01T13:42:06Z</time><pdop>4.0</pdop><geoidheight>54.00</geoidheight><course>70.4</course><type>1</type></trkpt>
      <trkpt lat="40.57525517" lon="-4.91019589"><ele>3010</ele><speed>14.11</speed><time>2016-07-01T13:42:07Z</time><pdop>3.0</pdop><geoidheight>54.00</geoidheight><course>69.4</course><type>1</type></trkpt>
      <trkpt lat="40.57529631" lon="-4.91004108"><ele>3008</ele><speed>14.10</speed><time>2016-07-01T13:42:08Z</time><pdop>3.0</pdop><geoidheight>54.00</geoidheight><course>68.9</course><type>1</type></trkpt>
      <trkpt lat="40.57534049" lon="-4.90988656"><ele>3007</ele><speed>14.55</speed><time>2016-07-01T13:42:09Z</time><pdop>3.0</pdop><geoidheight>54.00</geoidheight><course>68.4</course><type>1</type></trkpt>
      <trkpt lat="40.57539814" lon="-4.90971057"><ele>3006</ele><speed>15.67</speed><time>2016-07-01T13:42:10Z</time><pdop>4.0</pdop><geoidheight>54.00</geoidheight><course>68.6</course><type>1</type></trkpt>
      <trkpt lat="40.57544796" lon="-4.90952789"><ele>3005</ele><speed>16.38</speed><time>2016-07-01T13:42:11Z</time><pdop>3.0</pdop><geoidheight>54.00</geoidheight><course>71.6</course><type>1</type></trkpt>
      <trkpt lat="40.5754854" lon="-4.90934558"><ele>3003</ele><speed>16.59</speed><time>2016-07-01T13:42:12Z</time><pdop>3.0</pdop><geoidheight>54.00</geoidheight><course>75.3</course><type>1</type></trkpt>
      <trkpt lat="40.57550754" lon="-4.90915638"><ele>3001</ele><speed>16.25</speed><time>2016-07-01T13:42:13Z</time><pdop>3.0</pdop><geoidheight>54.00</geoidheight><course>76.6</course><type>1</type></trkpt>
      <trkpt lat="40.57554562" lon="-4.90897943"><ele>3001</ele><speed>15.61</speed><time>2016-07-01T13:42:14Z</time><pdop>4.0</pdop><geoidheight>54.00</geoidheight><course>76.1</course><type>1</type></trkpt>
      <trkpt lat="40.57557995" lon="-4.90881713"><ele>3000</ele><speed>14.69</speed><time>2016-07-01T13:42:15Z</time><pdop>5.0</pdop><geoidheight>54.00</geoidheight><course>75.0</course><type>1</type></trkpt>
      <trkpt lat="40.57558968" lon="-4.90865378"><ele>3000</ele><speed>14.06</speed><time>2016-07-01T13:42:16Z</time><pdop>5.0</pdop><geoidheight>54.00</geoidheight><course>77.9</course><type>1</type></trkpt>
      <trkpt lat="40.57562324" lon="-4.90851414"><ele>2997</ele><speed>13.96</speed><time>2016-07-01T13:42:17Z</time><pdop>4.0</pdop><geoidheight>54.00</geoidheight><course>77.7</course><type>1</type></trkpt>
      <trkpt lat="40.57564422" lon="-4.90832978"><ele>2997</ele><speed>14.62</speed><time>2016-07-01T13:42:18Z</time><pdop>5.0</pdop><geoidheight>54.00</geoidheight><course>78.3</course><type>1</type></trkpt>
      <trkpt lat="40.57565608" lon="-4.90814818"><ele>2996</ele><speed>15.08</speed><time>2016-07-01T13:42:19Z</time><pdop>5.0</pdop><geoidheight>54.00</geoidheight><course>79.6</course><type>1</type></trkpt>
      <trkpt lat="40.57566608" lon="-4.90797097"><ele>2993</ele><speed>15.39</speed><time>2016-07-01T13:42:20Z</time><pdop>5.0</pdop><geoidheight>54.00</geoidheight><course>81.0</course><type>1</type></trkpt>
      <trkpt lat="40.57569297" lon="-4.90780314"><ele>2991</ele><speed>15.57</speed><time>2016-07-01T13:42:21Z</time><pdop>5.0</pdop><geoidheight>54.00</geoidheight><course>79.3</course><type>1</type></trkpt>
      <trkpt lat="40.57571915" lon="-4.9076222"><ele>2990</ele><speed>15.26</speed><time>2016-07-01T13:42:22Z</time><pdop>5.0</pdop><geoidheight>54.00</geoidheight><course>79.5</course><type>1</type></trkpt>
      <trkpt lat="40.57575364" lon="-4.90745799"><ele>2990</ele><speed>14.86</speed><time>2016-07-01T13:42:23Z</time><pdop>5.0</pdop><geoidheight>54.00</geoidheight><course>78.8</course><type>1</type></trkpt>
      <trkpt lat="40.57576386" lon="-4.90728482"><ele>2990</ele><speed>14.56</speed><time>2016-07-01T13:42:24Z</time><pdop>5.0</pdop><geoidheight>54.00</geoidheight><course>80.4</course><type>1</type></trkpt>
      <trkpt lat="40.57578313" lon="-4.907114"><ele>2985</ele><speed>14.06</speed><time>2016-07-01T13:42:25Z</time><pdop>4.0</pdop><geoidheight>54.00</geoidheight><course>79.6</course><type>1</type></trkpt>
      <trkpt lat="40.57580908" lon="-4.90694578"><ele>2981</ele><speed>14.39</speed><time>2016-07-01T13:42:26Z</time><pdop>4.0</pdop><geoidheight>54.00</geoidheight><course>79.9</course><type>1</type></trkpt>
      <trkpt lat="40.57583113" lon="-4.90676878"><ele>2979</ele><speed>15.38</speed><time>2016-07-01T13:42:27Z</time><pdop>4.0</pdop><geoidheight>54.00</geoidheight><course>82.4</course><type>1</type></trkpt>
      <trkpt lat="40.57585551" lon="-4.90658163"><ele>2977</ele><speed>16.04</speed><time>2016-07-01T13:42:28Z</time><pdop>5.0</pdop><geoidheight>54.00</geoidheight><course>83.7</course><type>1</type></trkpt>
      <trkpt lat="40.57587165" lon="-4.90639065"><ele>2975</ele><speed>16.38</speed><time>2016-07-01T13:42:29Z</time><pdop>5.0</pdop><geoidheight>54.00</geoidheight><course>84.9</course><type>1</type></trkpt>
      <trkpt lat="40.57587572" lon="-4.90621474"><ele>2974</ele><speed>15.38</speed><time>2016-07-01T13:42:30Z</time><pdop>4.0</pdop><geoidheight>54.00</geoidheight><course>86.6</course><type>1</type></trkpt>
      <trkpt lat="40.57589171" lon="-4.90604937"><ele>2973</ele><speed>14.25</speed><time>2016-07-01T13:42:31Z</time><pdop>5.0</pdop><geoidheight>54.00</geoidheight><course>84.0</course><type>1</type></trkpt>
      <trkpt lat="40.57590708" lon="-4.90591023"><ele>2972</ele><speed>12.49</speed><time>2016-07-01T13:42:32Z</time><pdop>6.0</pdop><geoidheight>54.00</geoidheight><course>80.3</course><type>1</type></trkpt>
      <trkpt lat="40.57591444" lon="-4.90571363"><ele>2970</ele><speed>9.35</speed><time>2016-07-01T13:42:34Z</time><pdop>4.0</pdop><geoidheight>54.00</geoidheight><course>87.4</course><type>1</type></trkpt>
      <trkpt lat="40.57591964" lon="-4.90559836"><ele>2968</ele><speed>9.48</speed><time>2016-07-01T13:42:35Z</time><pdop>4.0</pdop><geoidheight>54.00</geoidheight><course>87.8</course><type>1</type></trkpt>
      <trkpt lat="40.57592762" lon="-4.90547849"><ele>2967</ele><speed>10.16</speed><time>2016-07-01T13:42:36Z</time><pdop>4.0</pdop><geoidheight>54.00</geoidheight><course>87.2</course><type>1</type></trkpt>
      <trkpt lat="40.57593704" lon="-4.90535665"><ele>2966</ele><speed>10.25</speed><time>2016-07-01T13:42:37Z</time><pdop>4.0</pdop><geoidheight>54.00</geoidheight><course>85.8</course><type>1</type></trkpt>
      <trkpt lat="40.57595788" lon="-4.90522551"><ele>2966</ele><speed>10.70</speed><time>2016-07-01T13:42:38Z</time><pdop>4.0</pdop><geoidheight>54.00</geoidheight><course>82.8</course><type>1</type></trkpt>
      <trkpt lat="40.57597771" lon="-4.90511412"><ele>2964</ele><speed>10.76</speed><time>2016-07-01T13:42:39Z</time><pdop>3.0</pdop><geoidheight>54.00</geoidheight><course>79.7</course><type>1</type></trkpt>
      <trkpt lat="40.57599886" lon="-4.90498169"><ele>2964</ele><speed>10.99</speed><time>2016-07-01T13:42:40Z</time><pdop>4.0</pdop><geoidheight>54.00</geoidheight><course>77.3</course><type>1</type></trkpt>
      <trkpt lat="40.57601696" lon="-4.9048468"><ele>2964</ele><speed>11.35</speed><time>2016-07-01T13:42:41Z</time><pdop>5.0</pdop><geoidheight>54.00</geoidheight><course>77.8</course><type>1</type></trkpt>
      <trkpt lat="40.57603603" lon="-4.90470964"><ele>2963</ele><speed>11.59</speed><time>2016-07-01T13:42:42Z</time><pdop>6.0</pdop><geoidheight>54.00</geoidheight><course>77.1</course><type>1</type></trkpt>
      <trkpt lat="40.57610279" lon="-4.90446156"><ele>2963</ele><speed>11.92</speed><time>2016-07-01T13:42:44Z</time><pdop>5.0</pdop><geoidheight>54.00</geoidheight><course>73.7</course><type>1</type></trkpt>
      <trkpt lat="40.57614519" lon="-4.90433901"><ele>2964</ele><speed>11.99</speed><time>2016-07-01T13:42:45Z</time><pdop>5.0</pdop><geoidheight>54.00</geoidheight><course>71.6</course><type>1</type></trkpt>
      <trkpt lat="40.57616947" lon="-4.90419648"><ele>2966</ele><speed>11.84</speed><time>2016-07-01T13:42:46Z</time><pdop>5.0</pdop><geoidheight>54.00</geoidheight><course>75.6</course><type>1</type></trkpt>
      <trkpt lat="40.57619126" lon="-4.90408387"><ele>2967</ele><speed>11.36</speed><time>2016-07-01T13:42:47Z</time><pdop>4.0</pdop><geoidheight>54.00</geoidheight><course>77.3</course><type>1</type></trkpt>
      <trkpt lat="40.5762115" lon="-4.90398147"><ele>2966</ele><speed>10.97</speed><time>2016-07-01T13:42:48Z</time><pdop>4.0</pdop><geoidheight>54.00</geoidheight><course>77.2</course><type>1</type></trkpt>
      <trkpt lat="40.57623949" lon="-4.90384337"><ele>2966</ele><speed>11.54</speed><time>2016-07-01T13:42:49Z</time><pdop>3.0</pdop><geoidheight>54.00</geoidheight><course>75.2</course><type>1</type></trkpt>
      <trkpt lat="40.57626879" lon="-4.90371452"><ele>2966</ele><speed>11.98</speed><time>2016-07-01T13:42:50Z</time><pdop>4.0</pdop><geoidheight>54.00</geoidheight><course>74.7</course><type>1</type></trkpt>
      <trkpt lat="40.57629465" lon="-4.90355821"><ele>2966</ele><speed>12.79</speed><time>2016-07-01T13:42:51Z</time><pdop>5.0</pdop><geoidheight>54.00</geoidheight><course>75.4</course><type>1</type></trkpt>
      <trkpt lat="40.57633334" lon="-4.90340614"><ele>2966</ele><speed>13.23</speed><time>2016-07-01T13:42:52Z</time><pdop>5.0</pdop><geoidheight>54.00</geoidheight><course>74.1</course><type>1</type></trkpt>
      <trkpt lat="40.57638996" lon="-4.90328447"><ele>2966</ele><speed>12.77</speed><time>2016-07-01T13:42:53Z</time><pdop>7.0</pdop><geoidheight>54.00</geoidheight><course>70.2</course><type>1</type></trkpt>
      <trkpt lat="40.57645091" lon="-4.90299512"><ele>2967</ele><speed>11.91</speed><time>2016-07-01T13:42:55Z</time><pdop>4.0</pdop><geoidheight>54.00</geoidheight><course>75.6</course><type>1</type></trkpt>
      <trkpt lat="40.57647939" lon="-4.90288221"><ele>2967</ele><speed>11.30</speed><time>2016-07-01T13:42:56Z</time><pdop>3.0</pdop><geoidheight>54.00</geoidheight><course>75.1</course><type>1</type></trkpt>
      <trkpt lat="40.57648805" lon="-4.902741"><ele>2967</ele><speed>11.41</speed><time>2016-07-01T13:42:57Z</time><pdop>3.0</pdop><geoidheight>54.00</geoidheight><course>76.4</course><type>1</type></trkpt>
      <trkpt lat="40.5765129" lon="-4.90260141"><ele>2966</ele><speed>11.90</speed><time>2016-07-01T13:42:58Z</time><pdop>3.0</pdop><geoidheight>54.00</geoidheight><course>76.8</course><type>1</type></trkpt>
      <trkpt lat="40.57653557" lon="-4.90245938"><ele>2965</ele><speed>12.40</speed><time>2016-07-01T13:42:59Z</time><pdop>3.0</pdop><geoidheight>54.00</geoidheight><course>73.6</course><type>1</type></trkpt>
      <trkpt lat="40.57657577" lon="-4.90232101"><ele>2964</ele><speed>12.73</speed><time>2016-07-01T13:43:00Z</time><pdop>3.0</pdop><geoidheight>54.00</geoidheight><course>69.0</course><type>1</type></trkpt>
      <trkpt lat="40.576624" lon="-4.90217331"><ele>2964</ele><speed>12.87</speed><time>2016-07-01T13:43:01Z</time><pdop>3.0</pdop><geoidheight>54.00</geoidheight><course>66.6</course><type>1</type></trkpt>
      <trkpt lat="40.5766771" lon="-4.90203974"><ele>2963</ele><speed>13.18</speed><time>2016-07-01T13:43:02Z</time><pdop>4.0</pdop><geoidheight>54.00</geoidheight><course>65.8</course><type>1</type></trkpt>
      <trkpt lat="40.57672953" lon="-4.90185873"><ele>2962</ele><speed>14.89</speed><time>2016-07-01T13:43:03Z</time><pdop>4.0</pdop><geoidheight>54.00</geoidheight><course>67.6</course><type>1</type></trkpt>
      <trkpt lat="40.57678454" lon="-4.90165615"><ele>2962</ele><speed>16.24</speed><time>2016-07-01T13:43:04Z</time><pdop>5.0</pdop><geoidheight>54.00</geoidheight><course>69.7</course><type>1</type></trkpt>
      <trkpt lat="40.57684811" lon="-4.9014672"><ele>2963</ele><speed>17.20</speed><time>2016-07-01T13:43:05Z</time><pdop>4.0</pdop><geoidheight>54.00</geoidheight><course>71.8</course><type>1</type></trkpt>
      <trkpt lat="40.57688152" lon="-4.90129773"><ele>2962</ele><speed>17.02</speed><time>2016-07-01T13:43:06Z</time><pdop>4.0</pdop><geoidheight>54.00</geoidheight><course>72.8</course><type>1</type></trkpt>
      <trkpt lat="40.57690896" lon="-4.90110122"><ele>2964</ele><speed>16.71</speed><time>2016-07-01T13:43:07Z</time><pdop>3.0</pdop><geoidheight>54.00</geoidheight><course>75.9</course><type>1</type></trkpt>
      <trkpt lat="40.57692954" lon="-4.90091882"><ele>2964</ele><speed>15.62</speed><time>2016-07-01T13:43:08Z</time><pdop>4.0</pdop><geoidheight>54.00</geoidheight><course>77.7</course><type>1</type></trkpt>
      <trkpt lat="40.57694977" lon="-4.90074229"><ele>2964</ele><speed>14.93</speed><time>2016-07-01T13:43:09Z</time><pdop>4.0</pdop><geoidheight>54.00</geoidheight><course>81.1</course><type>1</type></trkpt>
      <trkpt lat="40.57695616" lon="-4.90057857"><ele>2965</ele><speed>14.54</speed><time>2016-07-01T13:43:10Z</time><pdop>3.0</pdop><geoidheight>54.00</geoidheight><course>86.7</course><type>1</type></trkpt>
      <trkpt lat="40.57695305" lon="-4.90040131"><ele>2966</ele><speed>14.34</speed><time>2016-07-01T13:43:11Z</time><pdop>3.0</pdop><geoidheight>54.00</geoidheight><course>88.1</course><type>1</type></trkpt>
      <trkpt lat="40.57694501" lon="-4.90024285"><ele>2964</ele><speed>13.13</speed><time>2016-07-01T13:43:12Z</time><pdop>3.0</pdop><geoidheight>54.00</geoidheight><course>89.0</course><type>1</type></trkpt>
      <trkpt lat="40.57694931" lon="-4.90009296"><ele>2966</ele><speed>12.60</speed><time>2016-07-01T13:43:13Z</time><pdop>3.0</pdop><geoidheight>54.00</geoidheight><course>88.9</course><type>1</type></trkpt>
      <trkpt lat="40.57694633" lon="-4.89994836"><ele>2966</ele><speed>12.05</speed><time>2016-07-01T13:43:14Z</time><pdop>4.0</pdop><geoidheight>54.00</geoidheight><course>89.0</course><type>1</type></trkpt>
      <trkpt lat="40.57695592" lon="-4.89982644"><ele>2967</ele><speed>11.02</speed><time>2016-07-01T13:43:15Z</time><pdop>4.0</pdop><geoidheight>54.00</geoidheight><course>87.6</course><type>1</type></trkpt>
      <trkpt lat="40.5769597" lon="-4.8997048"><ele>2968</ele><speed>10.57</speed><time>2016-07-01T13:43:16Z</time><pdop>4.0</pdop><geoidheight>54.00</geoidheight><course>89.2</course><type>1</type></trkpt>
      <trkpt lat="40.57696347" lon="-4.89956841"><ele>2968</ele><speed>10.96</speed><time>2016-07-01T13:43:17Z</time><pdop>3.0</pdop><geoidheight>54.00</geoidheight><course>87.8</course><type>1</type></trkpt>
      <trkpt lat="40.57697576" lon="-4.89940553"><ele>2968</ele><speed>12.32</speed><time>2016-07-01T13:43:18Z</time><pdop>3.0</pdop><geoidheight>54.00</geoidheight><course>85.2</course><type>1</type></trkpt>
      <trkpt lat="40.57698677" lon="-4.8992533"><ele>2967</ele><speed>13.16</speed><time>2016-07-01T13:43:19Z</time><pdop>3.0</pdop><geoidheight>54.00</geoidheight><course>83.9</course><type>1</type></trkpt>
      <trkpt lat="40.57699653" lon="-4.89908108"><ele>2967</ele><speed>13.92</speed><time>2016-07-01T13:43:20Z</time><pdop>4.0</pdop><geoidheight>54.00</geoidheight><course>86.0</course><type>1</type></trkpt>
      <trkpt lat="40.57699865" lon="-4.89892373"><ele>2967</ele><speed>14.00</speed><time>2016-07-01T13:43:21Z</time><pdop>4.0</pdop><geoidheight>54.00</geoidheight><course>89.2</course><type>1</type></trkpt>
      <trkpt lat="40.57698074" lon="-4.89875007"><ele>2969</ele><speed>13.98</speed><time>2016-07-01T13:43:22Z</time><pdop>4.0</pdop><geoidheight>54.00</geoidheight><course>94.0</course><type>1</type></trkpt>
      <trkpt lat="40.57697538" lon="-4.89859142"><ele>2969</ele><speed>13.36</speed><time>2016-07-01T13:43:23Z</time><pdop>5.0</pdop><geoidheight>54.00</geoidheight><course>92.9</course><type>1</type></trkpt>
      <trkpt lat="40.57698026" lon="-4.89847339"><ele>2970</ele><speed>11.98</speed><time>2016-07-01T13:43:24Z</time><pdop>3.0</pdop><geoidheight>54.00</geoidheight><course>88.4</course><type>1</type></trkpt>
      <trkpt lat="40.57699437" lon="-4.89834462"><ele>2971</ele><speed>11.11</speed><time>2016-07-01T13:43:25Z</time><pdop>3.0</pdop><geoidheight>54.00</geoidheight><course>83.8</course><type>1</type></trkpt>
      <trkpt lat="40.57700616" lon="-4.89821482"><ele>2973</ele><speed>10.85</speed><time>2016-07-01T13:43:26Z</time><pdop>3.0</pdop><geoidheight>54.00</geoidheight><course>82.0</course><type>1</type></trkpt>
      <trkpt lat="40.57701697" lon="-4.89808422"><ele>2974</ele><speed>10.77</speed><time>2016-07-01T13:43:27Z</time><pdop>3.0</pdop><geoidheight>54.00</geoidheight><course>81.2</course><type>1</type></trkpt>
      <trkpt lat="40.57703813" lon="-4.8979703"><ele>2974</ele><speed>11.10</speed><time>2016-07-01T13:43:28Z</time><pdop>3.0</pdop><geoidheight>54.00</geoidheight><course>79.8</course><type>1</type></trkpt>
      <trkpt lat="40.5770593" lon="-4.8978274"><ele>2977</ele><speed>11.32</speed><time>2016-07-01T13:43:29Z</time><pdop>3.0</pdop><geoidheight>54.00</geoidheight><course>76.8</course><type>1</type></trkpt>
      <trkpt lat="40.57707215" lon="-4.89769082"><ele>2980</ele><speed>11.77</speed><time>2016-07-01T13:43:30Z</time><pdop>3.0</pdop><geoidheight>54.00</geoidheight><course>77.8</course><type>1</type></trkpt>
      <trkpt lat="40.57708881" lon="-4.89754427"><ele>2982</ele><speed>11.97</speed><time>2016-07-01T13:43:31Z</time><pdop>3.0</pdop><geoidheight>54.00</geoidheight><course>79.6</course><type>1</type></trkpt>
      <trkpt lat="40.57710918" lon="-4.8974161"><ele>2986</ele><speed>11.29</speed><time>2016-07-01T13:43:32Z</time><pdop>3.0</pdop><geoidheight>54.00</geoidheight><course>79.0</course><type>1</type></trkpt>
      <trkpt lat="40.5771375" lon="-4.89729846"><ele>2988</ele><speed>10.73</speed><time>2016-07-01T13:43:33Z</time><pdop>4.0</pdop><geoidheight>54.00</geoidheight><course>79.3</course><type>1</type></trkpt>
      <trkpt lat="40.57714524" lon="-4.89717405"><ele>2989</ele><speed>10.38</speed><time>2016-07-01T13:43:34Z</time><pdop>4.0</pdop><geoidheight>54.00</geoidheight><course>80.1</course><type>1</type></trkpt>
      <trkpt lat="40.57715017" lon="-4.89704655"><ele>2991</ele><speed>10.70</speed><time>2016-07-01T13:43:35Z</time><pdop>3.0</pdop><geoidheight>54.00</geoidheight><course>79.1</course><type>1</type></trkpt>
      <trkpt lat="40.57718151" lon="-4.89693265"><ele>2991</ele><speed>10.98</speed><time>2016-07-01T13:43:36Z</time><pdop>3.0</pdop><geoidheight>54.00</geoidheight><course>74.8</course><type>1</type></trkpt>
      <trkpt lat="40.57722115" lon="-4.89680361"><ele>2992</ele><speed>11.25</speed><time>2016-07-01T13:43:37Z</time><pdop>3.0</pdop><geoidheight>54.00</geoidheight><course>70.9</course><type>1</type></trkpt>
      <trkpt lat="40.57728344" lon="-4.89669391"><ele>2992</ele><speed>11.35</speed><time>2016-07-01T13:43:38Z</time><pdop>3.0</pdop><geoidheight>54.00</geoidheight><course>59.3</course><type>1</type></trkpt>
      <trkpt lat="40.57734178" lon="-4.89659301"><ele>2993</ele><speed>11.15</speed><time>2016-07-01T13:43:39Z</time><pdop>4.0</pdop><geoidheight>54.00</geoidheight><course>56.3</course><type>1</type></trkpt>
      <trkpt lat="40.57741869" lon="-4.89651534"><ele>2994</ele><speed>10.50</speed><time>2016-07-01T13:43:40Z</time><pdop>5.0</pdop><geoidheight>54.00</geoidheight><course>46.4</course><type>1</type></trkpt>
      <trkpt lat="40.57759652" lon="-4.89642497"><ele>2997</ele><speed>10.44</speed><time>2016-07-01T13:43:42Z</time><pdop>4.0</pdop><geoidheight>54.00</geoidheight><course>21.9</course><type>1</type></trkpt>
      <trkpt lat="40.57768176" lon="-4.89638979"><ele>3000</ele><speed>9.90</speed><time>2016-07-01T13:43:43Z</time><pdop>4.0</pdop><geoidheight>54.00</geoidheight><course>17.1</course><type>1</type></trkpt>
      <trkpt lat="40.57776921" lon="-4.89638038"><ele>3001</ele><speed>9.16</speed><time>2016-07-01T13:43:44Z</time><pdop>3.0</pdop><geoidheight>54.00</geoidheight><course>7.4</course><type>1</type></trkpt>
      <trkpt lat="40.57784521" lon="-4.896401"><ele>3002</ele><speed>8.52</speed><time>2016-07-01T13:43:45Z</time><pdop>3.0</pdop><geoidheight>54.00</geoidheight><course>352.5</course><type>1</type></trkpt>
      <trkpt lat="40.57792768" lon="-4.89643291"><ele>3003</ele><speed>8.61</speed><time>2016-07-01T13:43:46Z</time><pdop>4.0</pdop><geoidheight>54.00</geoidheight><course>346.3</course><type>1</type></trkpt>
      <trkpt lat="40.57801039" lon="-4.89653242"><ele>3004</ele><speed>10.10</speed><time>2016-07-01T13:43:47Z</time><pdop>5.0</pdop><geoidheight>54.00</geoidheight><course>330.7</course><type>1</type></trkpt>
      <trkpt lat="40.57807227" lon="-4.89663917"><ele>3005</ele><speed>10.87</speed><time>2016-07-01T13:43:48Z</time><pdop>6.0</pdop><geoidheight>54.00</geoidheight><course>319.1</course><type>1</type></trkpt>
      <trkpt lat="40.57784726" lon="-4.89698339"><ele>2768</ele><speed>9.97</speed><time>2016-07-01T13:43:51Z</time><pdop>4.0</pdop><geoidheight>54.00</geoidheight><course>230.8</course><type>1</type></trkpt>
      <trkpt lat="40.57777373" lon="-4.89707336"><ele>2842</ele><speed>9.77</speed><time>2016-07-01T13:43:52Z</time><pdop>4.0</pdop><geoidheight>54.00</geoidheight><course>223.4</course><type>1</type></trkpt>
      <trkpt lat="40.57772166" lon="-4.89715042"><ele>2862</ele><speed>9.58</speed><time>2016-07-01T13:43:53Z</time><pdop>4.0</pdop><geoidheight>54.00</geoidheight><course>219.6</course><type>1</type></trkpt>
      <trkpt lat="40.57762524" lon="-4.89719627"><ele>2890</ele><speed>10.80</speed><time>2016-07-01T13:43:54Z</time><pdop>4.0</pdop><geoidheight>54.00</geoidheight><course>205.1</course><type>1</type></trkpt>
      <trkpt lat="40.57751647" lon="-4.89723889"><ele>2904</ele><speed>12.58</speed><time>2016-07-01T13:43:55Z</time><pdop>4.0</pdop><geoidheight>54.00</geoidheight><course>195.4</course><type>1</type></trkpt>
      <trkpt lat="40.57741024" lon="-4.89727462"><ele>2932</ele><speed>12.63</speed><time>2016-07-01T13:43:56Z</time><pdop>4.0</pdop><geoidheight>54.00</geoidheight><course>191.1</course><type>1</type></trkpt>
      <trkpt lat="40.57729047" lon="-4.89728143"><ele>2949</ele><speed>12.76</speed><time>2016-07-01T13:43:57Z</time><pdop>4.0</pdop><geoidheight>54.00</geoidheight><course>184.3</course><type>1</type></trkpt>
      <trkpt lat="40.57716053" lon="-4.89724717"><ele>2962</ele><speed>13.33</speed><time>2016-07-01T13:43:58Z</time><pdop>4.0</pdop><geoidheight>54.00</geoidheight><course>174.4</course><type>1</type></trkpt>
      <trkpt lat="40.5770385" lon="-4.89721921"><ele>2967</ele><speed>13.71</speed><time>2016-07-01T13:43:59Z</time><pdop>4.0</pdop><geoidheight>54.00</geoidheight><course>168.0</course><type>1</type></trkpt>
      <trkpt lat="40.57691716" lon="-4.89718221"><ele>2973</ele><speed>13.78</speed><time>2016-07-01T13:44:00Z</time><pdop>4.0</pdop><geoidheight>54.00</geoidheight><course>164.6</course><type>1</type></trkpt>
      <trkpt lat="40.5767962" lon="-4.89712432"><ele>2978</ele><speed>13.71</speed><time>2016-07-01T13:44:01Z</time><pdop>4.0</pdop><geoidheight>54.00</geoidheight><course>160.4</course><type>1</type></trkpt>
      <trkpt lat="40.57669097" lon="-4.89699541"><ele>2983</ele><speed>14.12</speed><time>2016-07-01T13:44:02Z</time><pdop>4.0</pdop><geoidheight>54.00</geoidheight><course>144.5</course><type>1</type></trkpt>
      <trkpt lat="40.57661329" lon="-4.89686821"><ele>2987</ele><speed>13.55</speed><time>2016-07-01T13:44:03Z</time><pdop>4.0</pdop><geoidheight>54.00</geoidheight><course>132.6</course><type>1</type></trkpt>
      <trkpt lat="40.57655506" lon="-4.89674525"><ele>2996</ele><speed>12.04</speed><time>2016-07-01T13:44:04Z</time><pdop>4.0</pdop><geoidheight>54.00</geoidheight><course>121.5</course><type>1</type></trkpt>
      <trkpt lat="40.57651695" lon="-4.89661018"><ele>3000</ele><speed>11.48</speed><time>2016-07-01T13:44:05Z</time><pdop>4.0</pdop><geoidheight>54.00</geoidheight><course>109.6</course><type>1</type></trkpt>
      <trkpt lat="40.57649545" lon="-4.89646266"><ele>3004</ele><speed>11.38</speed><time>2016-07-01T13:44:06Z</time><pdop>4.0</pdop><geoidheight>54.00</geoidheight><course>98.6</course><type>1</type></trkpt>
      <trkpt lat="40.57648326" lon="-4.89629687"><ele>3006</ele><speed>12.49</speed><time>2016-07-01T13:44:07Z</time><pdop>4.0</pdop><geoidheight>54.00</geoidheight><course>94.2</course><type>1</type></trkpt>
      <trkpt lat="40.57648092" lon="-4.89612821"><ele>3014</ele><speed>12.97</speed><time>2016-07-01T13:44:08Z</time><pdop>4.0</pdop><geoidheight>54.00</geoidheight><course>91.4</course><type>1</type></trkpt>
      <trkpt lat="40.5765014" lon="-4.89597641"><ele>3017</ele><speed>12.55</speed><time>2016-07-01T13:44:09Z</time><pdop>6.0</pdop><geoidheight>54.00</geoidheight><course>87.5</course><type>1</type></trkpt>
      <trkpt lat="40.57667482" lon="-4.89591294"><ele>3022</ele><speed>7.06</speed><time>2016-07-01T13:44:11Z</time><pdop>6.0</pdop><geoidheight>54.00</geoidheight><course>37.8</course><type>1</type></trkpt>
      <trkpt lat="40.57683971" lon="-4.89588771"><ele>3026</ele><speed>7.78</speed><time>2016-07-01T13:44:13Z</time><pdop>8.0</pdop><geoidheight>54.00</geoidheight><course>16.6</course><type>1</type></trkpt>
      <trkpt lat="40.57693166" lon="-4.89609182"><ele>3028</ele><speed>7.65</speed><time>2016-07-01T13:44:15Z</time><pdop>7.0</pdop><geoidheight>54.00</geoidheight><course>314.8</course><type>1</type></trkpt>
      <trkpt lat="40.57690131" lon="-4.89639669"><ele>3030</ele><speed>8.21</speed><time>2016-07-01T13:44:17Z</time><pdop>7.0</pdop><geoidheight>54.00</geoidheight><course>280.0</course><type>1</type></trkpt>
      <trkpt lat="40.57675478" lon="-4.8965122"><ele>3033</ele><speed>9.70</speed><time>2016-07-01T13:44:18Z</time><pdop>5.0</pdop><geoidheight>54.00</geoidheight><course>229.2</course><type>1</type></trkpt>
      <trkpt lat="40.57667324" lon="-4.89657933"><ele>3039</ele><speed>11.10</speed><time>2016-07-01T13:44:19Z</time><pdop>4.0</pdop><geoidheight>54.00</geoidheight><course>206.8</course><type>1</type></trkpt>
      <trkpt lat="40.57658174" lon="-4.89664118"><ele>3042</ele><speed>11.17</speed><time>2016-07-01T13:44:20Z</time><pdop>4.0</pdop><geoidheight>54.00</geoidheight><course>199.2</course><type>1</type></trkpt>
      <trkpt lat="40.57649695" lon="-4.89663917"><ele>3046</ele><speed>10.81</speed><time>2016-07-01T13:44:21Z</time><pdop>4.0</pdop><geoidheight>54.00</geoidheight><course>185.7</course><type>1</type></trkpt>
      <trkpt lat="40.57636742" lon="-4.89661649"><ele>3050</ele><speed>11.99</speed><time>2016-07-01T13:44:22Z</time><pdop>3.0</pdop><geoidheight>54.00</geoidheight><course>175.3</course><type>1</type></trkpt>
      <trkpt lat="40.57626522" lon="-4.89654602"><ele>3054</ele><speed>12.35</speed><time>2016-07-01T13:44:23Z</time><pdop>3.0</pdop><geoidheight>54.00</geoidheight><course>159.5</course><type>1</type></trkpt>
      <trkpt lat="40.57617808" lon="-4.89645475"><ele>3055</ele><speed>11.99</speed><time>2016-07-01T13:44:24Z</time><pdop>3.0</pdop><geoidheight>54.00</geoidheight><course>144.4</course><type>1</type></trkpt>
      <trkpt lat="40.57611055" lon="-4.89633809"><ele>3056</ele><speed>11.89</speed><time>2016-07-01T13:44:25Z</time><pdop>3.0</pdop><geoidheight>54.00</geoidheight><course>128.6</course><type>1</type></trkpt>
      <trkpt lat="40.57606252" lon="-4.89621917"><ele>3058</ele><speed>11.56</speed><time>2016-07-01T13:44:26Z</time><pdop>3.0</pdop><geoidheight>54.00</geoidheight><course>118.1</course><type>1</type></trkpt>
      <trkpt lat="40.57602801" lon="-4.89608265"><ele>3063</ele><speed>11.68</speed><time>2016-07-01T13:44:27Z</time><pdop>3.0</pdop><geoidheight>54.00</geoidheight><course>108.6</course><type>1</type></trkpt>
      <trkpt lat="40.5760024" lon="-4.89594772"><ele>3064</ele><speed>11.08</speed><time>2016-07-01T13:44:28Z</time><pdop>3.0</pdop><geoidheight>54.00</geoidheight><course>102.7</course><type>1</type></trkpt>
      <trkpt lat="40.57602342" lon="-4.89580028"><ele>3070</ele><speed>11.16</speed><time>2016-07-01T13:44:29Z</time><pdop>3.0</pdop><geoidheight>54.00</geoidheight><course>82.7</course><type>1</type></trkpt>
      <trkpt lat="40.57606224" lon="-4.89566901"><ele>3072</ele><speed>11.03</speed><time>2016-07-01T13:44:30Z</time><pdop>3.0</pdop><geoidheight>54.00</geoidheight><course>66.5</course><type>1</type></trkpt>
      <trkpt lat="40.57610789" lon="-4.8955501"><ele>3073</ele><speed>10.85</speed><time>2016-07-01T13:44:31Z</time><pdop>3.0</pdop><geoidheight>54.00</geoidheight><course>64.7</course><type>1</type></trkpt>
      <trkpt lat="40.57614193" lon="-4.89543831"><ele>3075</ele><speed>10.02</speed><time>2016-07-01T13:44:32Z</time><pdop>3.0</pdop><geoidheight>54.00</geoidheight><course>63.0</course><type>1</type></trkpt>
      <trkpt lat="40.57616996" lon="-4.89531948"><ele>3077</ele><speed>10.15</speed><time>2016-07-01T13:44:33Z</time><pdop>3.0</pdop><geoidheight>54.00</geoidheight><course>65.4</course><type>1</type></trkpt>
      <trkpt lat="40.57619844" lon="-4.89519688"><ele>3079</ele><speed>10.46</speed><time>2016-07-01T13:44:34Z</time><pdop>3.0</pdop><geoidheight>54.00</geoidheight><course>66.0</course><type>1</type></trkpt>
      <trkpt lat="40.57624444" lon="-4.89508636"><ele>3080</ele><speed>10.75</speed><time>2016-07-01T13:44:35Z</time><pdop>3.0</pdop><geoidheight>54.00</geoidheight><course>62.5</course><type>1</type></trkpt>
      <trkpt lat="40.57629757" lon="-4.89497254"><ele>3082</ele><speed>10.61</speed><time>2016-07-01T13:44:36Z</time><pdop>3.0</pdop><geoidheight>54.00</geoidheight><course>58.4</course><type>1</type></trkpt>
      <trkpt lat="40.57635142" lon="-4.89487356"><ele>3083</ele><speed>10.30</speed><time>2016-07-01T13:44:37Z</time><pdop>4.0</pdop><geoidheight>54.00</geoidheight><course>55.1</course><type>1</type></trkpt>
      <trkpt lat="40.57642904" lon="-4.89479188"><ele>3083</ele><speed>10.48</speed><time>2016-07-01T13:44:38Z</time><pdop>5.0</pdop><geoidheight>54.00</geoidheight><course>46.4</course><type>1</type></trkpt>
      <trkpt lat="40.57648925" lon="-4.89471569"><ele>3084</ele><speed>10.32</speed><time>2016-07-01T13:44:39Z</time><pdop>4.0</pdop><geoidheight>54.00</geoidheight><course>39.4</course><type>1</type></trkpt>
      <trkpt lat="40.57656728" lon="-4.89466195"><ele>3084</ele><speed>10.01</speed><time>2016-07-01T13:44:40Z</time><pdop>4.0</pdop><geoidheight>54.00</geoidheight><course>33.4</course><type>1</type></trkpt>
      <trkpt lat="40.57663469" lon="-4.89458471"><ele>3085</ele><speed>9.86</speed><time>2016-07-01T13:44:41Z</time><pdop>4.0</pdop><geoidheight>54.00</geoidheight><course>36.6</course><type>1</type></trkpt>
      <trkpt lat="40.57670781" lon="-4.89451241"><ele>3086</ele><speed>9.97</speed><time>2016-07-01T13:44:42Z</time><pdop>5.0</pdop><geoidheight>54.00</geoidheight><course>36.2</course><type>1</type></trkpt>
      <trkpt lat="40.57683097" lon="-4.89435424"><ele>3088</ele><speed>9.45</speed><time>2016-07-01T13:44:44Z</time><pdop>4.0</pdop><geoidheight>54.00</geoidheight><course>48.1</course><type>1</type></trkpt>
      <trkpt lat="40.57688397" lon="-4.89427672"><ele>3089</ele><speed>9.47</speed><time>2016-07-01T13:44:45Z</time><pdop>4.0</pdop><geoidheight>54.00</geoidheight><course>48.2</course><type>1</type></trkpt>
      <trkpt lat="40.5769427" lon="-4.89419681"><ele>3089</ele><speed>9.72</speed><time>2016-07-01T13:44:46Z</time><pdop>3.0</pdop><geoidheight>54.00</geoidheight><course>47.5</course><type>1</type></trkpt>
      <trkpt lat="40.57700279" lon="-4.89411255"><ele>3089</ele><speed>9.94</speed><time>2016-07-01T13:44:47Z</time><pdop>4.0</pdop><geoidheight>54.00</geoidheight><course>47.7</course><type>1</type></trkpt>
      <trkpt lat="40.57707287" lon="-4.89401255"><ele>3089</ele><speed>11.25</speed><time>2016-07-01T13:44:48Z</time><pdop>5.0</pdop><geoidheight>54.00</geoidheight><course>47.7</course><type>1</type></trkpt>
      <trkpt lat="40.57714438" lon="-4.89391712"><ele>3089</ele><speed>11.49</speed><time>2016-07-01T13:44:49Z</time><pdop>6.0</pdop><geoidheight>54.00</geoidheight><course>47.1</course><type>1</type></trkpt>
      <trkpt lat="40.57718002" lon="-4.89377"><ele>3039</ele><speed>12.12</speed><time>2016-07-01T13:44:50Z</time><pdop>5.0</pdop><geoidheight>54.00</geoidheight><course>57.3</course><type>1</type></trkpt>
      <trkpt lat="40.57722441" lon="-4.89361172"><ele>3055</ele><speed>12.67</speed><time>2016-07-01T13:44:51Z</time><pdop>4.0</pdop><geoidheight>54.00</geoidheight><course>65.7</course><type>1</type></trkpt>
      <trkpt lat="40.57727706" lon="-4.89349799"><ele>3064</ele><speed>11.84</speed><time>2016-07-01T13:44:52Z</time><pdop>4.0</pdop><geoidheight>54.00</geoidheight><course>64.9</course><type>1</type></trkpt>
      <trkpt lat="40.57731297" lon="-4.89337573"><ele>3082</ele><speed>10.35</speed><time>2016-07-01T13:44:53Z</time><pdop>4.0</pdop><geoidheight>54.00</geoidheight><course>64.4</course><type>1</type></trkpt>
      <trkpt lat="40.57734978" lon="-4.89327775"><ele>3086</ele><speed>9.40</speed><time>2016-07-01T13:44:54Z</time><pdop>3.0</pdop><geoidheight>54.00</geoidheight><course>63.7</course><type>1</type></trkpt>
      <trkpt lat="40.57739348" lon="-4.89316882"><ele>3087</ele><speed>9.64</speed><time>2016-07-01T13:44:55Z</time><pdop>4.0</pdop><geoidheight>54.00</geoidheight><course>63.5</course><type>1</type></trkpt>
      <trkpt lat="40.57741892" lon="-4.89304732"><ele>3088</ele><speed>10.31</speed><time>2016-07-01T13:44:56Z</time><pdop>5.0</pdop><geoidheight>54.00</geoidheight><course>68.2</course><type>1</type></trkpt>
      <trkpt lat="40.57745544" lon="-4.89291425"><ele>3087</ele><speed>11.58</speed><time>2016-07-01T13:44:57Z</time><pdop>6.0</pdop><geoidheight>54.00</geoidheight><course>68.6</course><type>1</type></trkpt>
      <trkpt lat="40.57754856" lon="-4.89276136"><ele>3089</ele><speed>13.82</speed><time>2016-07-01T13:44:58Z</time><pdop>4.0</pdop><geoidheight>54.00</geoidheight><course>59.0</course><type>1</type></trkpt>
      <trkpt lat="40.5776185" lon="-4.89261858"><ele>3089</ele><speed>14.51</speed><time>2016-07-01T13:44:59Z</time><pdop>5.0</pdop><geoidheight>54.00</geoidheight><course>59.3</course><type>1</type></trkpt>
      <trkpt lat="40.57768825" lon="-4.89247414"><ele>3089</ele><speed>14.47</speed><time>2016-07-01T13:45:00Z</time><pdop>5.0</pdop><geoidheight>54.00</geoidheight><course>58.9</course><type>1</type></trkpt>
      <trkpt lat="40.57776627" lon="-4.89230925"><ele>3090</ele><speed>15.24</speed><time>2016-07-01T13:45:01Z</time><pdop>6.0</pdop><geoidheight>54.00</geoidheight><course>58.3</course><type>1</type></trkpt>
      <trkpt lat="40.57786386" lon="-4.8921629"><ele>3090</ele><speed>15.71</speed><time>2016-07-01T13:45:02Z</time><pdop>5.0</pdop><geoidheight>54.00</geoidheight><course>55.8</course><type>1</type></trkpt>
      <trkpt lat="40.57794221" lon="-4.89200243"><ele>3091</ele><speed>15.64</speed><time>2016-07-01T13:45:03Z</time><pdop>6.0</pdop><geoidheight>54.00</geoidheight><course>55.9</course><type>1</type></trkpt>
      <trkpt lat="40.57802073" lon="-4.89186412"><ele>3091</ele><speed>14.78</speed><time>2016-07-01T13:45:04Z</time><pdop>5.0</pdop><geoidheight>54.00</geoidheight><course>56.1</course><type>1</type></trkpt>
      <trkpt lat="40.5781335" lon="-4.89158576"><ele>3090</ele><speed>13.98</speed><time>2016-07-01T13:45:06Z</time><pdop>9.0</pdop><geoidheight>54.00</geoidheight><course>62.1</course><type>1</type></trkpt>
      <trkpt lat="40.57824644" lon="-4.89126393"><ele>3088</ele><speed>15.18</speed><time>2016-07-01T13:45:08Z</time><pdop>10.0</pdop><geoidheight>54.00</geoidheight><course>65.0</course><type>1</type></trkpt>
      <trkpt lat="40.578409" lon="-4.89092079"><ele>3088</ele><speed>16.74</speed><time>2016-07-01T13:45:10Z</time><pdop>11.0</pdop><geoidheight>54.00</geoidheight><course>61.3</course><type>1</type></trkpt>
      <trkpt lat="40.57855433" lon="-4.8906068"><ele>3084</ele><speed>16.10</speed><time>2016-07-01T13:45:12Z</time><pdop>10.0</pdop><geoidheight>54.00</geoidheight><course>59.9</course><type>1</type></trkpt>
      <trkpt lat="40.57866069" lon="-4.89030486"><ele>3081</ele><speed>14.58</speed><time>2016-07-01T13:45:14Z</time><pdop>9.0</pdop><geoidheight>54.00</geoidheight><course>64.3</course><type>1</type></trkpt>
      <trkpt lat="40.5787921" lon="-4.88998253"><ele>3077</ele><speed>15.64</speed><time>2016-07-01T13:45:16Z</time><pdop>9.0</pdop><geoidheight>54.00</geoidheight><course>63.8</course><type>1</type></trkpt>
      <trkpt lat="40.57894116" lon="-4.88968103"><ele>3074</ele><speed>15.64</speed><time>2016-07-01T13:45:18Z</time><pdop>10.0</pdop><geoidheight>54.00</geoidheight><course>59.0</course><type>1</type></trkpt>
      <trkpt lat="40.57907491" lon="-4.88938144"><ele>3069</ele><speed>14.54</speed><time>2016-07-01T13:45:20Z</time><pdop>9.0</pdop><geoidheight>54.00</geoidheight><course>59.2</course><type>1</type></trkpt>
      <trkpt lat="40.57921509" lon="-4.88910484"><ele>3064</ele><speed>14.01</speed><time>2016-07-01T13:45:22Z</time><pdop>9.0</pdop><geoidheight>54.00</geoidheight><course>56.5</course><type>1</type></trkpt>
      <trkpt lat="40.57938724" lon="-4.88881079"><ele>3062</ele><speed>15.37</speed><time>2016-07-01T13:45:24Z</time><pdop>11.0</pdop><geoidheight>54.00</geoidheight><course>54.6</course><type>1</type></trkpt>
      <trkpt lat="40.57953386" lon="-4.88847545"><ele>3059</ele><speed>16.36</speed><time>2016-07-01T13:45:26Z</time><pdop>10.0</pdop><geoidheight>54.00</geoidheight><course>57.4</course><type>1</type></trkpt>
      <trkpt lat="40.57966142" lon="-4.88812616"><ele>3053</ele><speed>16.38</speed><time>2016-07-01T13:45:28Z</time><pdop>9.0</pdop><geoidheight>54.00</geoidheight><course>62.5</course><type>1</type></trkpt>
      <trkpt lat="40.57978203" lon="-4.88780041"><ele>3048</ele><speed>15.91</speed><time>2016-07-01T13:45:30Z</time><pdop>9.0</pdop><geoidheight>54.00</geoidheight><course>65.5</course><type>1</type></trkpt>
      <trkpt lat="40.57988753" lon="-4.88746387"><ele>3042</ele><speed>16.07</speed><time>2016-07-01T13:45:32Z</time><pdop>4.0</pdop><geoidheight>54.00</geoidheight><course>66.2</course><type>1</type></trkpt>
      <trkpt lat="40.57993807" lon="-4.88729342"><ele>3039</ele><speed>15.98</speed><time>2016-07-01T13:45:33Z</time><pdop>4.0</pdop><geoidheight>54.00</geoidheight><course>66.6</course><type>1</type></trkpt>
      <trkpt lat="40.57999272" lon="-4.88712287"><ele>3037</ele><speed>15.78</speed><time>2016-07-01T13:45:34Z</time><pdop>3.0</pdop><geoidheight>54.00</geoidheight><course>68.5</course><type>1</type></trkpt>
      <trkpt lat="40.58004067" lon="-4.88695588"><ele>3033</ele><speed>15.71</speed><time>2016-07-01T13:45:35Z</time><pdop>3.0</pdop><geoidheight>54.00</geoidheight><course>68.7</course><type>1</type></trkpt>
      <trkpt lat="40.58008703" lon="-4.88677761"><ele>3031</ele><speed>15.64</speed><time>2016-07-01T13:45:36Z</time><pdop>3.0</pdop><geoidheight>54.00</geoidheight><course>67.9</course><type>1</type></trkpt>
      <trkpt lat="40.58014177" lon="-4.88661233"><ele>3029</ele><speed>15.47</speed><time>2016-07-01T13:45:37Z</time><pdop>3.0</pdop><geoidheight>54.00</geoidheight><course>67.3</course><type>1</type></trkpt>
      <trkpt lat="40.58019765" lon="-4.88645165"><ele>3027</ele><speed>15.55</speed><time>2016-07-01T13:45:38Z</time><pdop>3.0</pdop><geoidheight>54.00</geoidheight><course>66.5</course><type>1</type></trkpt>
      <trkpt lat="40.58025318" lon="-4.88628344"><ele>3027</ele><speed>15.82</speed><time>2016-07-01T13:45:39Z</time><pdop>3.0</pdop><geoidheight>54.00</geoidheight><course>66.5</course><type>1</type></trkpt>
      <trkpt lat="40.58031542" lon="-4.88611478"><ele>3024</ele><speed>15.89</speed><time>2016-07-01T13:45:40Z</time><pdop>3.0</pdop><geoidheight>54.00</geoidheight><course>65.1</course><type>1</type></trkpt>
      <trkpt lat="40.58037904" lon="-4.88595316"><ele>3022</ele><speed>15.85</speed><time>2016-07-01T13:45:41Z</time><pdop>3.0</pdop><geoidheight>54.00</geoidheight><course>62.8</course><type>1</type></trkpt>
      <trkpt lat="40.58045163" lon="-4.88579114"><ele>3020</ele><speed>16.12</speed><time>2016-07-01T13:45:42Z</time><pdop>3.0</pdop><geoidheight>54.00</geoidheight><course>62.1</course><type>1</type></trkpt>
      <trkpt lat="40.58051432" lon="-4.88562577"><ele>3021</ele><speed>15.40</speed><time>2016-07-01T13:45:43Z</time><pdop>3.0</pdop><geoidheight>54.00</geoidheight><course>65.8</course><type>1</type></trkpt>
      <trkpt lat="40.58055331" lon="-4.88547631"><ele>3021</ele><speed>13.50</speed><time>2016-07-01T13:45:44Z</time><pdop>3.0</pdop><geoidheight>54.00</geoidheight><course>69.9</course><type>1</type></trkpt>
      <trkpt lat="40.58057949" lon="-4.88535186"><ele>3022</ele><speed>11.61</speed><time>2016-07-01T13:45:45Z</time><pdop>3.0</pdop><geoidheight>54.00</geoidheight><course>72.5</course><type>1</type></trkpt>
      <trkpt lat="40.58061638" lon="-4.88523594"><ele>3021</ele><speed>10.71</speed><time>2016-07-01T13:45:46Z</time><pdop>3.0</pdop><geoidheight>54.00</geoidheight><course>69.2</course><type>1</type></trkpt>
      <trkpt lat="40.58064945" lon="-4.88511711"><ele>3020</ele><speed>10.60</speed><time>2016-07-01T13:45:47Z</time><pdop>3.0</pdop><geoidheight>54.00</geoidheight><course>69.7</course><type>1</type></trkpt>
      <trkpt lat="40.58067718" lon="-4.88499651"><ele>3020</ele><speed>10.57</speed><time>2016-07-01T13:45:48Z</time><pdop>3.0</pdop><geoidheight>54.00</geoidheight><course>70.7</course><type>1</type></trkpt>
      <trkpt lat="40.58071019" lon="-4.88485183"><ele>3019</ele><speed>12.03</speed><time>2016-07-01T13:45:49Z</time><pdop>3.0</pdop><geoidheight>54.00</geoidheight><course>72.5</course><type>1</type></trkpt>
      <trkpt lat="40.5807571" lon="-4.88471562"><ele>3018</ele><speed>12.60</speed><time>2016-07-01T13:45:50Z</time><pdop>3.0</pdop><geoidheight>54.00</geoidheight><course>68.4</course><type>1</type></trkpt>
      <trkpt lat="40.58080235" lon="-4.88455614"><ele>3017</ele><speed>13.82</speed><time>2016-07-01T13:45:51Z</time><pdop>3.0</pdop><geoidheight>54.00</geoidheight><course>67.4</course><type>1</type></trkpt>
      <trkpt lat="40.58085181" lon="-4.88441729"><ele>3016</ele><speed>13.73</speed><time>2016-07-01T13:45:52Z</time><pdop>3.0</pdop><geoidheight>54.00</geoidheight><course>65.0</course><type>1</type></trkpt>
      <trkpt lat="40.5808991" lon="-4.88429314"><ele>3014</ele><speed>13.13</speed><time>2016-07-01T13:45:53Z</time><pdop>3.0</pdop><geoidheight>54.00</geoidheight><course>63.7</course><type>1</type></trkpt>
      <trkpt lat="40.58094513" lon="-4.88417859"><ele>3013</ele><speed>12.56</speed><time>2016-07-01T13:45:54Z</time><pdop>3.0</pdop><geoidheight>54.00</geoidheight><course>62.5</course><type>1</type></trkpt>
      <trkpt lat="40.58099744" lon="-4.88405827"><ele>3011</ele><speed>12.24</speed><time>2016-07-01T13:45:55Z</time><pdop>3.0</pdop><geoidheight>54.00</geoidheight><course>61.9</course><type>1</type></trkpt>
      <trkpt lat="40.58105477" lon="-4.88391928"><ele>3011</ele><speed>12.47</speed><time>2016-07-01T13:45:56Z</time><pdop>3.0</pdop><geoidheight>54.00</geoidheight><course>61.2</course><type>1</type></trkpt>
      <trkpt lat="40.58111233" lon="-4.88378458"><ele>3010</ele><speed>12.82</speed><time>2016-07-01T13:45:57Z</time><pdop>3.0</pdop><geoidheight>54.00</geoidheight><course>61.3</course><type>1</type></trkpt>
      <trkpt lat="40.58117831" lon="-4.88364429"><ele>3010</ele><speed>13.53</speed><time>2016-07-01T13:45:58Z</time><pdop>3.0</pdop><geoidheight>54.00</geoidheight><course>61.1</course><type>1</type></trkpt>
      <trkpt lat="40.58122832" lon="-4.88348837"><ele>3011</ele><speed>13.67</speed><time>2016-07-01T13:45:59Z</time><pdop>3.0</pdop><geoidheight>54.00</geoidheight><course>63.5</course><type>1</type></trkpt>
      <trkpt lat="40.58127908" lon="-4.88334657"><ele>3010</ele><speed>13.48</speed><time>2016-07-01T13:46:00Z</time><pdop>4.0</pdop><geoidheight>54.00</geoidheight><course>64.1</course><type>1</type></trkpt>
      <trkpt lat="40.58130202" lon="-4.88319686"><ele>3011</ele><speed>13.02</speed><time>2016-07-01T13:46:01Z</time><pdop>4.0</pdop><geoidheight>54.00</geoidheight><course>71.7</course><type>1</type></trkpt>
      <trkpt lat="40.58133029" lon="-4.88305261"><ele>3011</ele><speed>12.72</speed><time>2016-07-01T13:46:02Z</time><pdop>4.0</pdop><geoidheight>54.00</geoidheight><course>75.7</course><type>1</type></trkpt>
      <trkpt lat="40.58136929" lon="-4.88292491"><ele>3013</ele><speed>12.18</speed><time>2016-07-01T13:46:03Z</time><pdop>3.0</pdop><geoidheight>54.00</geoidheight><course>76.9</course><type>1</type></trkpt>
      <trkpt lat="40.58138341" lon="-4.88278441"><ele>3012</ele><speed>11.86</speed><time>2016-07-01T13:46:04Z</time><pdop>3.0</pdop><geoidheight>54.00</geoidheight><course>76.2</course><type>1</type></trkpt>
      <trkpt lat="40.58140362" lon="-4.88265551"><ele>3015</ele><speed>12.11</speed><time>2016-07-01T13:46:05Z</time><pdop>3.0</pdop><geoidheight>54.00</geoidheight><course>75.6</course><type>1</type></trkpt>
      <trkpt lat="40.5814323" lon="-4.88251406"><ele>3015</ele><speed>12.33</speed><time>2016-07-01T13:46:06Z</time><pdop>3.0</pdop><geoidheight>54.00</geoidheight><course>76.4</course><type>1</type></trkpt>
      <trkpt lat="40.58145243" lon="-4.88236635"><ele>3017</ele><speed>12.41</speed><time>2016-07-01T13:46:07Z</time><pdop>3.0</pdop><geoidheight>54.00</geoidheight><course>77.6</course><type>1</type></trkpt>
      <trkpt lat="40.58147356" lon="-4.8822213"><ele>3019</ele><speed>12.13</speed><time>2016-07-01T13:46:08Z</time><pdop>3.0</pdop><geoidheight>54.00</geoidheight><course>79.3</course><type>1</type></trkpt>
      <trkpt lat="40.58150402" lon="-4.8820926"><ele>3021</ele><speed>11.44</speed><time>2016-07-01T13:46:09Z</time><pdop>3.0</pdop><geoidheight>54.00</geoidheight><course>73.1</course><type>1</type></trkpt>
      <trkpt lat="40.58153776" lon="-4.88197947"><ele>3024</ele><speed>10.44</speed><time>2016-07-01T13:46:10Z</time><pdop>3.0</pdop><geoidheight>54.00</geoidheight><course>68.9</course><type>1</type></trkpt>
      <trkpt lat="40.58158136" lon="-4.88188242"><ele>3028</ele><speed>10.17</speed><time>2016-07-01T13:46:11Z</time><pdop>3.0</pdop><geoidheight>54.00</geoidheight><course>64.5</course><type>1</type></trkpt>
      <trkpt lat="40.58161313" lon="-4.88177265"><ele>3030</ele><speed>9.80</speed><time>2016-07-01T13:46:12Z</time><pdop>3.0</pdop><geoidheight>54.00</geoidheight><course>65.6</course><type>1</type></trkpt>
      <trkpt lat="40.58164662" lon="-4.88166046"><ele>3033</ele><speed>9.74</speed><time>2016-07-01T13:46:13Z</time><pdop>3.0</pdop><geoidheight>54.00</geoidheight><course>66.4</course><type>1</type></trkpt>
      <trkpt lat="40.58168244" lon="-4.881548"><ele>3036</ele><speed>10.54</speed><time>2016-07-01T13:46:14Z</time><pdop>3.0</pdop><geoidheight>54.00</geoidheight><course>67.7</course><type>1</type></trkpt>
      <trkpt lat="40.58172368" lon="-4.88143167"><ele>3038</ele><speed>10.75</speed><time>2016-07-01T13:46:15Z</time><pdop>3.0</pdop><geoidheight>54.00</geoidheight><course>69.5</course><type>1</type></trkpt>
      <trkpt lat="40.58174795" lon="-4.88130278"><ele>3041</ele><speed>11.56</speed><time>2016-07-01T13:46:16Z</time><pdop>3.0</pdop><geoidheight>54.00</geoidheight><course>74.9</course><type>1</type></trkpt>
      <trkpt lat="40.58175937" lon="-4.88116409"><ele>3042</ele><speed>11.73</speed><time>2016-07-01T13:46:17Z</time><pdop>3.0</pdop><geoidheight>54.00</geoidheight><course>81.0</course><type>1</type></trkpt>
      <trkpt lat="40.58173309" lon="-4.88102797"><ele>3043</ele><speed>11.48</speed><time>2016-07-01T13:46:18Z</time><pdop>3.0</pdop><geoidheight>54.00</geoidheight><course>96.7</course><type>1</type></trkpt>
      <trkpt lat="40.58170437" lon="-4.88090007"><ele>3043</ele><speed>11.59</speed><time>2016-07-01T13:46:19Z</time><pdop>3.0</pdop><geoidheight>54.00</geoidheight><course>104.7</course><type>1</type></trkpt>
      <trkpt lat="40.58161714" lon="-4.88081793"><ele>3043</ele><speed>11.12</speed><time>2016-07-01T13:46:20Z</time><pdop>3.0</pdop><geoidheight>54.00</geoidheight><course>132.4</course><type>1</type></trkpt>
      <trkpt lat="40.58153932" lon="-4.88074496"><ele>3042</ele><speed>11.18</speed><time>2016-07-01T13:46:21Z</time><pdop>3.0</pdop><geoidheight>54.00</geoidheight><course>147.6</course><type>1</type></trkpt>
      <trkpt lat="40.58144925" lon="-4.88070971"><ele>3043</ele><speed>10.62</speed><time>2016-07-01T13:46:22Z</time><pdop>3.0</pdop><geoidheight>54.00</geoidheight><course>159.2</course><type>1</type></trkpt>
      <trkpt lat="40.58136074" lon="-4.88071579"><ele>3045</ele><speed>10.09</speed><time>2016-07-01T13:46:23Z</time><pdop>4.0</pdop><geoidheight>54.00</geoidheight><course>174.2</course><type>1</type></trkpt>
      <trkpt lat="40.58126193" lon="-4.88073982"><ele>3047</ele><speed>10.63</speed><time>2016-07-01T13:46:24Z</time><pdop>5.0</pdop><geoidheight>54.00</geoidheight><course>184.0</course><type>1</type></trkpt>
      <trkpt lat="40.58115406" lon="-4.88078455"><ele>3047</ele><speed>11.38</speed><time>2016-07-01T13:46:25Z</time><pdop>6.0</pdop><geoidheight>54.00</geoidheight><course>189.7</course><type>1</type></trkpt>
      <trkpt lat="40.58109202" lon="-4.8810397"><ele>3045</ele><speed>9.78</speed><time>2016-07-01T13:46:27Z</time><pdop>6.0</pdop><geoidheight>54.00</geoidheight><course>226.1</course><type>1</type></trkpt>
      <trkpt lat="40.58112637" lon="-4.88121726"><ele>3046</ele><speed>7.87</speed><time>2016-07-01T13:46:29Z</time><pdop>6.0</pdop><geoidheight>54.00</geoidheight><course>258.6</course><type>1</type></trkpt>
      <trkpt lat="40.58118018" lon="-4.88144851"><ele>3046</ele><speed>8.53</speed><time>2016-07-01T13:46:31Z</time><pdop>9.0</pdop><geoidheight>54.00</geoidheight><course>274.5</course><type>1</type></trkpt>
      <trkpt lat="40.581379" lon="-4.88127089"><ele>3048</ele><speed>4.69</speed><time>2016-07-01T13:46:34Z</time><pdop>12.0</pdop><geoidheight>54.00</geoidheight><course>359.0</course><type>1</type></trkpt>
      <trkpt lat="40.58162864" lon="-4.88098436"><ele>3052</ele><speed>9.69</speed><time>2016-07-01T13:46:36Z</time><pdop>11.0</pdop><geoidheight>54.00</geoidheight><course>32.7</course><type>1</type></trkpt>
      <trkpt lat="40.58173475" lon="-4.88064187"><ele>3056</ele><speed>12.07</speed><time>2016-07-01T13:46:38Z</time><pdop>9.0</pdop><geoidheight>54.00</geoidheight><course>55.5</course><type>1</type></trkpt>
      <trkpt lat="40.58164738" lon="-4.88034703"><ele>3061</ele><speed>11.05</speed><time>2016-07-01T13:46:40Z</time><pdop>7.0</pdop><geoidheight>54.00</geoidheight><course>101.3</course><type>1</type></trkpt>
      <trkpt lat="40.5816152" lon="-4.88019535"><ele>3064</ele><speed>11.63</speed><time>2016-07-01T13:46:41Z</time><pdop>6.0</pdop><geoidheight>54.00</geoidheight><course>106.2</course><type>1</type></trkpt>
      <trkpt lat="40.58158043" lon="-4.88005785"><ele>3069</ele><speed>11.50</speed><time>2016-07-01T13:46:42Z</time><pdop>5.0</pdop><geoidheight>54.00</geoidheight><course>112.7</course><type>1</type></trkpt>
      <trkpt lat="40.58153589" lon="-4.87992513"><ele>3070</ele><speed>11.52</speed><time>2016-07-01T13:46:43Z</time><pdop>6.0</pdop><geoidheight>54.00</geoidheight><course>115.3</course><type>1</type></trkpt>
      <trkpt lat="40.5813916" lon="-4.87970272"><ele>3074</ele><speed>11.79</speed><time>2016-07-01T13:46:45Z</time><pdop>5.0</pdop><geoidheight>54.00</geoidheight><course>137.0</course><type>1</type></trkpt>
      <trkpt lat="40.58129419" lon="-4.87961324"><ele>3076</ele><speed>11.61</speed><time>2016-07-01T13:46:46Z</time><pdop>4.0</pdop><geoidheight>54.00</geoidheight><course>150.9</course><type>1</type></trkpt>
      <trkpt lat="40.58119141" lon="-4.87957708"><ele>3077</ele><speed>11.30</speed><time>2016-07-01T13:46:47Z</time><pdop>4.0</pdop><geoidheight>54.00</geoidheight><course>161.8</course><type>1</type></trkpt>
      <trkpt lat="40.58108972" lon="-4.87955775"><ele>3078</ele><speed>11.30</speed><time>2016-07-01T13:46:48Z</time><pdop>5.0</pdop><geoidheight>54.00</geoidheight><course>164.8</course><type>1</type></trkpt>
      <trkpt lat="40.58091954" lon="-4.87963182"><ele>3080</ele><speed>10.21</speed><time>2016-07-01T13:46:50Z</time><pdop>9.0</pdop><geoidheight>54.00</geoidheight><course>184.4</course><type>1</type></trkpt>
      <trkpt lat="40.58083943" lon="-4.87999551"><ele>3085</ele><speed>12.36</speed><time>2016-07-01T13:46:52Z</time><pdop>7.0</pdop><geoidheight>54.00</geoidheight><course>239.2</course><type>1</type></trkpt>
      <trkpt lat="40.58077914" lon="-4.88012749"><ele>3088</ele><speed>12.65</speed><time>2016-07-01T13:46:53Z</time><pdop>6.0</pdop><geoidheight>54.00</geoidheight><course>239.7</course><type>1</type></trkpt>
      <trkpt lat="40.58062063" lon="-4.88048345"><ele>2784</ele><speed>11.34</speed><time>2016-07-01T13:46:56Z</time><pdop>7.0</pdop><geoidheight>54.00</geoidheight><course>236.5</course><type>1</type></trkpt>
      <trkpt lat="40.58051244" lon="-4.88069669"><ele>2842</ele><speed>11.10</speed><time>2016-07-01T13:46:58Z</time><pdop>7.0</pdop><geoidheight>54.00</geoidheight><course>240.6</course><type>1</type></trkpt>
      <trkpt lat="40.58056176" lon="-4.88086259"><ele>2956</ele><speed>8.46</speed><time>2016-07-01T13:47:00Z</time><pdop>7.0</pdop><geoidheight>54.00</geoidheight><course>261.2</course><type>1</type></trkpt>
      <trkpt lat="40.58071872" lon="-4.88106468"><ele>3020</ele><speed>8.18</speed><time>2016-07-01T13:47:03Z</time><pdop>12.0</pdop><geoidheight>54.00</geoidheight><course>299.1</course><type>1</type></trkpt>
      <trkpt lat="40.58086254" lon="-4.8808217"><ele>3048</ele><speed>5.39</speed><time>2016-07-01T13:47:05Z</time><pdop>10.0</pdop><geoidheight>54.00</geoidheight><course>3.9</course><type>1</type></trkpt>
      <trkpt lat="40.5809526" lon="-4.88054803"><ele>3065</ele><speed>8.73</speed><time>2016-07-01T13:47:07Z</time><pdop>8.0</pdop><geoidheight>54.00</geoidheight><course>52.1</course><type>1</type></trkpt>
      <trkpt lat="40.58100121" lon="-4.88025734"><ele>3082</ele><speed>10.26</speed><time>2016-07-01T13:47:09Z</time><pdop>8.0</pdop><geoidheight>54.00</geoidheight><course>73.8</course><type>1</type></trkpt>
      <trkpt lat="40.58085156" lon="-4.88012568"><ele>3094</ele><speed>11.36</speed><time>2016-07-01T13:47:10Z</time><pdop>5.0</pdop><geoidheight>54.00</geoidheight><course>124.9</course><type>1</type></trkpt>
      <trkpt lat="40.58078249" lon="-4.88000154"><ele>3101</ele><speed>11.91</speed><time>2016-07-01T13:47:11Z</time><pdop>4.0</pdop><geoidheight>54.00</geoidheight><course>127.9</course><type>1</type></trkpt>
      <trkpt lat="40.5807138" lon="-4.87990993"><ele>3107</ele><speed>12.16</speed><time>2016-07-01T13:47:12Z</time><pdop>4.0</pdop><geoidheight>54.00</geoidheight><course>134.8</course><type>1</type></trkpt>
      <trkpt lat="40.58061526" lon="-4.87983153"><ele>3111</ele><speed>11.98</speed><time>2016-07-01T13:47:13Z</time><pdop>4.0</pdop><geoidheight>54.00</geoidheight><course>148.7</course><type>1</type></trkpt>
      <trkpt lat="40.5805065" lon="-4.87979393"><ele>3116</ele><speed>12.18</speed><time>2016-07-01T13:47:14Z</time><pdop>4.0</pdop><geoidheight>54.00</geoidheight><course>164.6</course><type>1</type></trkpt>
      <trkpt lat="40.58039761" lon="-4.87976938"><ele>3120</ele><speed>12.36</speed><time>2016-07-01T13:47:15Z</time><pdop>4.0</pdop><geoidheight>54.00</geoidheight><course>171.6</course><type>1</type></trkpt>
      <trkpt lat="40.58029432" lon="-4.87978378"><ele>3121</ele><speed>12.08</speed><time>2016-07-01T13:47:16Z</time><pdop>4.0</pdop><geoidheight>54.00</geoidheight><course>183.0</course><type>1</type></trkpt>
      <trkpt lat="40.58018795" lon="-4.879856"><ele>3121</ele><speed>12.39</speed><time>2016-07-01T13:47:17Z</time><pdop>6.0</pdop><geoidheight>54.00</geoidheight><course>195.6</course><type>1</type></trkpt>
      <trkpt lat="40.58007959" lon="-4.87992529"><ele>2827</ele><speed>12.73</speed><time>2016-07-01T13:47:18Z</time><pdop>7.0</pdop><geoidheight>54.00</geoidheight><course>199.4</course><type>1</type></trkpt>
      <trkpt lat="40.5799603" lon="-4.8800131"><ele>2905</ele><speed>13.94</speed><time>2016-07-01T13:47:19Z</time><pdop>8.0</pdop><geoidheight>54.00</geoidheight><course>208.8</course><type>1</type></trkpt>
      <trkpt lat="40.57995567" lon="-4.88021692"><ele>2993</ele><speed>10.52</speed><time>2016-07-01T13:47:21Z</time><pdop>8.0</pdop><geoidheight>54.00</geoidheight><course>236.1</course><type>1</type></trkpt>
      <trkpt lat="40.58007647" lon="-4.88045091"><ele>3047</ele><speed>7.65</speed><time>2016-07-01T13:47:24Z</time><pdop>10.0</pdop><geoidheight>54.00</geoidheight><course>272.8</course><type>1</type></trkpt>
      <trkpt lat="40.58031798" lon="-4.88034035"><ele>3095</ele><speed>4.91</speed><time>2016-07-01T13:47:27Z</time><pdop>9.0</pdop><geoidheight>54.00</geoidheight><course>355.5</course><type>1</type></trkpt>
      <trkpt lat="40.58044567" lon="-4.88019678"><ele>3101</ele><speed>7.71</speed><time>2016-07-01T13:47:28Z</time><pdop>9.0</pdop><geoidheight>54.00</geoidheight><course>27.3</course><type>1</type></trkpt>
      <trkpt lat="40.58048013" lon="-4.87989712"><ele>3110</ele><speed>9.08</speed><time>2016-07-01T13:47:30Z</time><pdop>8.0</pdop><geoidheight>54.00</geoidheight><course>83.8</course><type>1</type></trkpt>
      <trkpt lat="40.58047723" lon="-4.87958727"><ele>3131</ele><speed>10.75</speed><time>2016-07-01T13:47:32Z</time><pdop>7.0</pdop><geoidheight>54.00</geoidheight><course>95.5</course><type>1</type></trkpt>
      <trkpt lat="40.5803614" lon="-4.87938763"><ele>3149</ele><speed>11.51</speed><time>2016-07-01T13:47:34Z</time><pdop>5.0</pdop><geoidheight>54.00</geoidheight><course>132.8</course><type>1</type></trkpt>
      <trkpt lat="40.58027924" lon="-4.87931953"><ele>3154</ele><speed>11.59</speed><time>2016-07-01T13:47:35Z</time><pdop>5.0</pdop><geoidheight>54.00</geoidheight><course>150.8</course><type>1</type></trkpt>
      <trkpt lat="40.58018351" lon="-4.87927838"><ele>3161</ele><speed>11.74</speed><time>2016-07-01T13:47:36Z</time><pdop>4.0</pdop><geoidheight>54.00</geoidheight><course>164.5</course><type>1</type></trkpt>
      <trkpt lat="40.58007412" lon="-4.87925524"><ele>3164</ele><speed>11.91</speed><time>2016-07-01T13:47:37Z</time><pdop>4.0</pdop><geoidheight>54.00</geoidheight><course>172.0</course><type>1</type></trkpt>
      <trkpt lat="40.57997005" lon="-4.87929563"><ele>3165</ele><speed>11.84</speed><time>2016-07-01T13:47:38Z</time><pdop>5.0</pdop><geoidheight>54.00</geoidheight><course>187.0</course><type>1</type></trkpt>
      <trkpt lat="40.57988073" lon="-4.87936565"><ele>3168</ele><speed>11.46</speed><time>2016-07-01T13:47:39Z</time><pdop>6.0</pdop><geoidheight>54.00</geoidheight><course>200.6</course><type>1</type></trkpt>
      <trkpt lat="40.57974626" lon="-4.87948647"><ele>3177</ele><speed>9.95</speed><time>2016-07-01T13:47:41Z</time><pdop>7.0</pdop><geoidheight>54.00</geoidheight><course>214.5</course><type>1</type></trkpt>
      <trkpt lat="40.57972606" lon="-4.87968494"><ele>3181</ele><speed>8.36</speed><time>2016-07-01T13:47:43Z</time><pdop>7.0</pdop><geoidheight>54.00</geoidheight><course>247.4</course><type>1</type></trkpt>
      <trkpt lat="40.57987725" lon="-4.87979432"><ele>3185</ele><speed>7.56</speed><time>2016-07-01T13:47:45Z</time><pdop>6.0</pdop><geoidheight>54.00</geoidheight><course>306.6</course><type>1</type></trkpt>
      <trkpt lat="40.58001869" lon="-4.87990959"><ele>3188</ele><speed>7.58</speed><time>2016-07-01T13:47:47Z</time><pdop>6.0</pdop><geoidheight>54.00</geoidheight><course>321.4</course><type>1</type></trkpt>
      <trkpt lat="40.5801591" lon="-4.87986519"><ele>3189</ele><speed>5.69</speed><time>2016-07-01T13:47:49Z</time><pdop>8.0</pdop><geoidheight>54.00</geoidheight><course>352.6</course><type>1</type></trkpt>
      <trkpt lat="40.58024115" lon="-4.87956602"><ele>3194</ele><speed>10.89</speed><time>2016-07-01T13:47:50Z</time><pdop>5.0</pdop><geoidheight>54.00</geoidheight><course>56.8</course><type>1</type></trkpt>
      <trkpt lat="40.58031034" lon="-4.87945821"><ele>3196</ele><speed>11.74</speed><time>2016-07-01T13:47:51Z</time><pdop>5.0</pdop><geoidheight>54.00</geoidheight><course>59.4</course><type>1</type></trkpt>
      <trkpt lat="40.5803434" lon="-4.87930689"><ele>3198</ele><speed>12.57</speed><time>2016-07-01T13:47:52Z</time><pdop>5.0</pdop><geoidheight>54.00</geoidheight><course>65.3</course><type>1</type></trkpt>
      <trkpt lat="40.58040417" lon="-4.87913736"><ele>3202</ele><speed>13.61</speed><time>2016-07-01T13:47:53Z</time><pdop>4.0</pdop><geoidheight>54.00</geoidheight><course>67.8</course><type>1</type></trkpt>
      <trkpt lat="40.58046582" lon="-4.87896413"><ele>3204</ele><speed>14.22</speed><time>2016-07-01T13:47:54Z</time><pdop>4.0</pdop><geoidheight>54.00</geoidheight><course>67.7</course><type>1</type></trkpt>
      <trkpt lat="40.58051298" lon="-4.87880314"><ele>3206</ele><speed>14.70</speed><time>2016-07-01T13:47:55Z</time><pdop>3.0</pdop><geoidheight>54.00</geoidheight><course>70.6</course><type>1</type></trkpt>
      <trkpt lat="40.58054556" lon="-4.87862335"><ele>3210</ele><speed>14.74</speed><time>2016-07-01T13:47:56Z</time><pdop>3.0</pdop><geoidheight>54.00</geoidheight><course>76.5</course><type>1</type></trkpt>
      <trkpt lat="40.58055158" lon="-4.87845221"><ele>3213</ele><speed>14.33</speed><time>2016-07-01T13:47:57Z</time><pdop>3.0</pdop><geoidheight>54.00</geoidheight><course>82.0</course><type>1</type></trkpt>
      <trkpt lat="40.58056336" lon="-4.87827884"><ele>3214</ele><speed>14.31</speed><time>2016-07-01T13:47:58Z</time><pdop>3.0</pdop><geoidheight>54.00</geoidheight><course>83.8</course><type>1</type></trkpt>
      <trkpt lat="40.58056862" lon="-4.87811942"><ele>3216</ele><speed>13.84</speed><time>2016-07-01T13:47:59Z</time><pdop>4.0</pdop><geoidheight>54.00</geoidheight><course>85.0</course><type>1</type></trkpt>
      <trkpt lat="40.58056124" lon="-4.87797805"><ele>3216</ele><speed>12.98</speed><time>2016-07-01T13:48:00Z</time><pdop>4.0</pdop><geoidheight>54.00</geoidheight><course>87.9</course><type>1</type></trkpt>
      <trkpt lat="40.58058346" lon="-4.8778233"><ele>3216</ele><speed>12.78</speed><time>2016-07-01T13:48:01Z</time><pdop>4.0</pdop><geoidheight>54.00</geoidheight><course>85.7</course><type>1</type></trkpt>
      <trkpt lat="40.58058139" lon="-4.87764931"><ele>3217</ele><speed>13.44</speed><time>2016-07-01T13:48:02Z</time><pdop>5.0</pdop><geoidheight>54.00</geoidheight><course>87.1</course><type>1</type></trkpt>
      <trkpt lat="40.58062688" lon="-4.87747795"><ele>3217</ele><speed>14.34</speed><time>2016-07-01T13:48:03Z</time><pdop>5.0</pdop><geoidheight>54.00</geoidheight><course>79.3</course><type>1</type></trkpt>
      <trkpt lat="40.58067434" lon="-4.87729402"><ele>3215</ele><speed>15.88</speed><time>2016-07-01T13:48:04Z</time><pdop>4.0</pdop><geoidheight>54.00</geoidheight><course>73.6</course><type>1</type></trkpt>
      <trkpt lat="40.58070571" lon="-4.87711373"><ele>3214</ele><speed>16.24</speed><time>2016-07-01T13:48:05Z</time><pdop>3.0</pdop><geoidheight>54.00</geoidheight><course>71.8</course><type>1</type></trkpt>
      <trkpt lat="40.58076308" lon="-4.87695191"><ele>3215</ele><speed>15.31</speed><time>2016-07-01T13:48:06Z</time><pdop>3.0</pdop><geoidheight>54.00</geoidheight><course>67.3</course><type>1</type></trkpt>
      <trkpt lat="40.58081823" lon="-4.87681188"><ele>3217</ele><speed>13.75</speed><time>2016-07-01T13:48:07Z</time><pdop>3.0</pdop><geoidheight>54.00</geoidheight><course>65.4</course><type>1</type></trkpt>
      <trkpt lat="40.58086236" lon="-4.87667388"><ele>3218</ele><speed>12.63</speed><time>2016-07-01T13:48:08Z</time><pdop>3.0</pdop><geoidheight>54.00</geoidheight><course>70.1</course><type>1</type></trkpt>
      <trkpt lat="40.58088097" lon="-4.87655302"><ele>3221</ele><speed>11.11</speed><time>2016-07-01T13:48:09Z</time><pdop>3.0</pdop><geoidheight>54.00</geoidheight><course>76.7</course><type>1</type></trkpt>
      <trkpt lat="40.58089219" lon="-4.87642063"><ele>3221</ele><speed>11.59</speed><time>2016-07-01T13:48:10Z</time><pdop>3.0</pdop><geoidheight>54.00</geoidheight><course>81.1</course><type>1</type></trkpt>
      <trkpt lat="40.58090698" lon="-4.87628564"><ele>3222</ele><speed>12.00</speed><time>2016-07-01T13:48:11Z</time><pdop>3.0</pdop><geoidheight>54.00</geoidheight><course>81.7</course><type>1</type></trkpt>
      <trkpt lat="40.58093509" lon="-4.87614441"><ele>3221</ele><speed>12.72</speed><time>2016-07-01T13:48:12Z</time><pdop>3.0</pdop><geoidheight>54.00</geoidheight><course>77.0</course><type>1</type></trkpt>
      <trkpt lat="40.58097269" lon="-4.875989"><ele>3221</ele><speed>13.54</speed><time>2016-07-01T13:48:13Z</time><pdop>3.0</pdop><geoidheight>54.00</geoidheight><course>73.8</course><type>1</type></trkpt>
      <trkpt lat="40.58100843" lon="-4.87583056"><ele>3222</ele><speed>13.41</speed><time>2016-07-01T13:48:14Z</time><pdop>3.0</pdop><geoidheight>54.00</geoidheight><course>73.1</course><type>1</type></trkpt>
      <trkpt lat="40.58104425" lon="-4.87568938"><ele>3222</ele><speed>12.94</speed><time>2016-07-01T13:48:15Z</time><pdop>3.0</pdop><geoidheight>54.00</geoidheight><course>74.5</course><type>1</type></trkpt>
      <trkpt lat="40.58107444" lon="-4.87554036"><ele>3224</ele><speed>12.58</speed><time>2016-07-01T13:48:16Z</time><pdop>3.0</pdop><geoidheight>54.00</geoidheight><course>76.4</course><type>1</type></trkpt>
      <trkpt lat="40.5810996" lon="-4.87540316"><ele>3223</ele><speed>12.57</speed><time>2016-07-01T13:48:17Z</time><pdop>3.0</pdop><geoidheight>54.00</geoidheight><course>76.3</course><type>1</type></trkpt>
      <trkpt lat="40.58114651" lon="-4.8752554"><ele>3223</ele><speed>13.46</speed><time>2016-07-01T13:48:18Z</time><pdop>3.0</pdop><geoidheight>54.00</geoidheight><course>71.6</course><type>1</type></trkpt>
      <trkpt lat="40.58118925" lon="-4.87510254"><ele>3222</ele><speed>14.23</speed><time>2016-07-01T13:48:19Z</time><pdop>3.0</pdop><geoidheight>54.00</geoidheight><course>72.0</course><type>1</type></trkpt>
      <trkpt lat="40.58122379" lon="-4.87492467"><ele>3222</ele><speed>14.82</speed><time>2016-07-01T13:48:20Z</time><pdop>3.0</pdop><geoidheight>54.00</geoidheight><course>74.4</course><type>1</type></trkpt>
      <trkpt lat="40.58124614" lon="-4.87474511"><ele>3222</ele><speed>15.20</speed><time>2016-07-01T13:48:21Z</time><pdop>3.0</pdop><geoidheight>54.00</geoidheight><course>77.2</course><type>1</type></trkpt>
      <trkpt lat="40.58127352" lon="-4.87456387"><ele>3222</ele><speed>15.42</speed><time>2016-07-01T13:48:22Z</time><pdop>3.0</pdop><geoidheight>54.00</geoidheight><course>79.7</course><type>1</type></trkpt>
      <trkpt lat="40.58129501" lon="-4.87438913"><ele>3223</ele><speed>15.23</speed><time>2016-07-01T13:48:23Z</time><pdop>3.0</pdop><geoidheight>54.00</geoidheight><course>82.2</course><type>1</type></trkpt>
      <trkpt lat="40.58131111" lon="-4.87420946"><ele>3223</ele><speed>14.94</speed><time>2016-07-01T13:48:24Z</time><pdop>3.0</pdop><geoidheight>54.00</geoidheight><course>82.3</course><type>1</type></trkpt>
      <trkpt lat="40.58133218" lon="-4.87404529"><ele>3222</ele><speed>14.70</speed><time>2016-07-01T13:48:25Z</time><pdop>3.0</pdop><geoidheight>54.00</geoidheight><course>80.4</course><type>1</type></trkpt>
      <trkpt lat="40.58135796" lon="-4.87387461"><ele>3223</ele><speed>14.46</speed><time>2016-07-01T13:48:26Z</time><pdop>3.0</pdop><geoidheight>54.00</geoidheight><course>78.9</course><type>1</type></trkpt>
      <trkpt lat="40.58137909" lon="-4.87370729"><ele>3223</ele><speed>14.36</speed><time>2016-07-01T13:48:27Z</time><pdop>3.0</pdop><geoidheight>54.00</geoidheight><course>79.5</course><type>1</type></trkpt>
      <trkpt lat="40.58140513" lon="-4.87354183"><ele>3221</ele><speed>14.40</speed><time>2016-07-01T13:48:28Z</time><pdop>3.0</pdop><geoidheight>54.00</geoidheight><course>80.2</course><type>1</type></trkpt>
      <trkpt lat="40.58142856" lon="-4.87337363"><ele>3220</ele><speed>14.53</speed><time>2016-07-01T13:48:29Z</time><pdop>3.0</pdop><geoidheight>54.00</geoidheight><course>79.9</course><type>1</type></trkpt>
      <trkpt lat="40.58146397" lon="-4.87319887"><ele>3219</ele><speed>14.73</speed><time>2016-07-01T13:48:30Z</time><pdop>3.0</pdop><geoidheight>54.00</geoidheight><course>76.9</course><type>1</type></trkpt>
      <trkpt lat="40.58150015" lon="-4.87302053"><ele>3218</ele><speed>15.40</speed><time>2016-07-01T13:48:31Z</time><pdop>3.0</pdop><geoidheight>54.00</geoidheight><course>75.0</course><type>1</type></trkpt>
      <trkpt lat="40.58153111" lon="-4.87283596"><ele>3217</ele><speed>16.01</speed><time>2016-07-01T13:48:32Z</time><pdop>3.0</pdop><geoidheight>54.00</geoidheight><course>76.5</course><type>1</type></trkpt>
      <trkpt lat="40.58156199" lon="-4.87264652"><ele>3217</ele><speed>16.43</speed><time>2016-07-01T13:48:33Z</time><pdop>3.0</pdop><geoidheight>54.00</geoidheight><course>78.0</course><type>1</type></trkpt>
      <trkpt lat="40.58159248" lon="-4.87245448"><ele>3217</ele><speed>16.64</speed><time>2016-07-01T13:48:34Z</time><pdop>4.0</pdop><geoidheight>54.00</geoidheight><course>78.9</course><type>1</type></trkpt>
      <trkpt lat="40.58160486" lon="-4.87226925"><ele>3216</ele><speed>15.96</speed><time>2016-07-01T13:48:35Z</time><pdop>5.0</pdop><geoidheight>54.00</geoidheight><course>79.1</course><type>1</type></trkpt>
      <trkpt lat="40.5816262" lon="-4.87206958"><ele>3215</ele><speed>16.61</speed><time>2016-07-01T13:48:36Z</time><pdop>4.0</pdop><geoidheight>54.00</geoidheight><course>79.8</course><type>1</type></trkpt>
      <trkpt lat="40.58165486" lon="-4.87189036"><ele>3216</ele><speed>15.98</speed><time>2016-07-01T13:48:37Z</time><pdop>5.0</pdop><geoidheight>54.00</geoidheight><course>79.1</course><type>1</type></trkpt>
      <trkpt lat="40.58170342" lon="-4.87165776"><ele>3218</ele><speed>13.56</speed><time>2016-07-01T13:48:39Z</time><pdop>3.0</pdop><geoidheight>54.00</geoidheight><course>75.5</course><type>1</type></trkpt>
      <trkpt lat="40.58172337" lon="-4.87149832"><ele>3218</ele><speed>14.00</speed><time>2016-07-01T13:48:40Z</time><pdop>3.0</pdop><geoidheight>54.00</geoidheight><course>77.2</course><type>1</type></trkpt>
      <trkpt lat="40.58176508" lon="-4.87131895"><ele>3219</ele><speed>15.24</speed><time>2016-07-01T13:48:41Z</time><pdop>4.0</pdop><geoidheight>54.00</geoidheight><course>76.3</course><type>1</type></trkpt>
      <trkpt lat="40.58179094" lon="-4.87112983"><ele>3219</ele><speed>16.16</speed><time>2016-07-01T13:48:42Z</time><pdop>4.0</pdop><geoidheight>54.00</geoidheight><course>77.5</course><type>1</type></trkpt>
      <trkpt lat="40.58182458" lon="-4.87091053"><ele>3220</ele><speed>17.13</speed><time>2016-07-01T13:48:43Z</time><pdop>3.0</pdop><geoidheight>54.00</geoidheight><course>77.1</course><type>1</type></trkpt>
      <trkpt lat="40.58184443" lon="-4.87072982"><ele>3221</ele><speed>16.90</speed><time>2016-07-01T13:48:44Z</time><pdop>3.0</pdop><geoidheight>54.00</geoidheight><course>79.6</course><type>1</type></trkpt>
      <trkpt lat="40.58186224" lon="-4.87054387"><ele>3225</ele><speed>15.98</speed><time>2016-07-01T13:48:45Z</time><pdop>3.0</pdop><geoidheight>54.00</geoidheight><course>83.7</course><type>1</type></trkpt>
      <trkpt lat="40.58187753" lon="-4.87037173"><ele>3228</ele><speed>14.81</speed><time>2016-07-01T13:48:46Z</time><pdop>3.0</pdop><geoidheight>54.00</geoidheight><course>84.0</course><type>1</type></trkpt>
      <trkpt lat="40.58189199" lon="-4.87020571"><ele>3230</ele><speed>14.07</speed><time>2016-07-01T13:48:47Z</time><pdop>3.0</pdop><geoidheight>54.00</geoidheight><course>83.6</course><type>1</type></trkpt>
      <trkpt lat="40.58191583" lon="-4.87005289"><ele>3229</ele><speed>13.56</speed><time>2016-07-01T13:48:48Z</time><pdop>3.0</pdop><geoidheight>54.00</geoidheight><course>79.4</course><type>1</type></trkpt>
      <trkpt lat="40.58194933" lon="-4.86988163"><ele>3230</ele><speed>14.29</speed><time>2016-07-01T13:48:49Z</time><pdop>3.0</pdop><geoidheight>54.00</geoidheight><course>77.8</course><type>1</type></trkpt>
      <trkpt lat="40.58197316" lon="-4.8697008"><ele>3231</ele><speed>15.20</speed><time>2016-07-01T13:48:50Z</time><pdop>4.0</pdop><geoidheight>54.00</geoidheight><course>78.7</course><type>1</type></trkpt>
      <trkpt lat="40.5819942" lon="-4.86952429"><ele>3231</ele><speed>15.94</speed><time>2016-07-01T13:48:51Z</time><pdop>4.0</pdop><geoidheight>54.00</geoidheight><course>79.4</course><type>1</type></trkpt>
      <trkpt lat="40.58201288" lon="-4.86932715"><ele>3230</ele><speed>16.66</speed><time>2016-07-01T13:48:52Z</time><pdop>6.0</pdop><geoidheight>54.00</geoidheight><course>80.9</course><type>1</type></trkpt>
      <trkpt lat="40.58206052" lon="-4.86913188"><ele>3232</ele><speed>16.93</speed><time>2016-07-01T13:48:53Z</time><pdop>4.0</pdop><geoidheight>54.00</geoidheight><course>78.5</course><type>1</type></trkpt>
      <trkpt lat="40.58211186" lon="-4.86895368"><ele>3234</ele><speed>15.80</speed><time>2016-07-01T13:48:54Z</time><pdop>4.0</pdop><geoidheight>54.00</geoidheight><course>75.9</course><type>1</type></trkpt>
      <trkpt lat="40.58215525" lon="-4.86878191"><ele>3234</ele><speed>14.65</speed><time>2016-07-01T13:48:55Z</time><pdop>3.0</pdop><geoidheight>54.00</geoidheight><course>74.7</course><type>1</type></trkpt>
      <trkpt lat="40.58217592" lon="-4.86862153"><ele>3234</ele><speed>14.15</speed><time>2016-07-01T13:48:56Z</time><pdop>3.0</pdop><geoidheight>54.00</geoidheight><course>77.9</course><type>1</type></trkpt>
      <trkpt lat="40.58220922" lon="-4.8684476"><ele>3234</ele><speed>14.60</speed><time>2016-07-01T13:48:57Z</time><pdop>3.0</pdop><geoidheight>54.00</geoidheight><course>80.2</course><type>1</type></trkpt>
      <trkpt lat="40.58223052" lon="-4.86827064"><ele>3234</ele><speed>15.05</speed><time>2016-07-01T13:48:58Z</time><pdop>3.0</pdop><geoidheight>54.00</geoidheight><course>81.3</course><type>1</type></trkpt>
      <trkpt lat="40.58227765" lon="-4.8680728"><ele>3233</ele><speed>16.63</speed><time>2016-07-01T13:48:59Z</time><pdop>3.0</pdop><geoidheight>54.00</geoidheight><course>76.3</course><type>1</type></trkpt>
      <trkpt lat="40.58231783" lon="-4.86788329"><ele>3233</ele><speed>16.15</speed><time>2016-07-01T13:49:00Z</time><pdop>3.0</pdop><geoidheight>54.00</geoidheight><course>75.8</course><type>1</type></trkpt>
      <trkpt lat="40.58235114" lon="-4.8677206"><ele>3233</ele><speed>14.98</speed><time>2016-07-01T13:49:01Z</time><pdop>3.0</pdop><geoidheight>54.00</geoidheight><course>75.7</course><type>1</type></trkpt>
      <trkpt lat="40.5823953" lon="-4.86757197"><ele>3232</ele><speed>13.91</speed><time>2016-07-01T13:49:02Z</time><pdop>3.0</pdop><geoidheight>54.00</geoidheight><course>71.6</course><type>1</type></trkpt>
      <trkpt lat="40.58244224" lon="-4.86742101"><ele>3232</ele><speed>13.66</speed><time>2016-07-01T13:49:03Z</time><pdop>3.0</pdop><geoidheight>54.00</geoidheight><course>69.1</course><type>1</type></trkpt>
      <trkpt lat="40.58248982" lon="-4.86725606"><ele>3231</ele><speed>14.53</speed><time>2016-07-01T13:49:04Z</time><pdop>3.0</pdop><geoidheight>54.00</geoidheight><course>68.7</course><type>1</type></trkpt>
      <trkpt lat="40.5825336" lon="-4.86707972"><ele>3229</ele><speed>15.48</speed><time>2016-07-01T13:49:05Z</time><pdop>3.0</pdop><geoidheight>54.00</geoidheight><course>70.5</course><type>1</type></trkpt>
      <trkpt lat="40.58257382" lon="-4.8668779"><ele>3228</ele><speed>16.84</speed><time>2016-07-01T13:49:06Z</time><pdop>3.0</pdop><geoidheight>54.00</geoidheight><course>73.0</course><type>1</type></trkpt>
      <trkpt lat="40.58263127" lon="-4.86667366"><ele>3227</ele><speed>17.76</speed><time>2016-07-01T13:49:07Z</time><pdop>4.0</pdop><geoidheight>54.00</geoidheight><course>72.1</course><type>1</type></trkpt>
      <trkpt lat="40.58262574" lon="-4.8664727"><ele>3227</ele><speed>16.99</speed><time>2016-07-01T13:49:08Z</time><pdop>3.0</pdop><geoidheight>54.00</geoidheight><course>77.9</course><type>1</type></trkpt>
      <trkpt lat="40.58263981" lon="-4.8662862"><ele>3226</ele><speed>16.21</speed><time>2016-07-01T13:49:09Z</time><pdop>3.0</pdop><geoidheight>54.00</geoidheight><course>80.2</course><type>1</type></trkpt>
      <trkpt lat="40.58265882" lon="-4.86611004"><ele>3228</ele><speed>15.50</speed><time>2016-07-01T13:49:10Z</time><pdop>3.0</pdop><geoidheight>54.00</geoidheight><course>82.3</course><type>1</type></trkpt>
      <trkpt lat="40.58267384" lon="-4.86593248"><ele>3228</ele><speed>15.01</speed><time>2016-07-01T13:49:11Z</time><pdop>3.0</pdop><geoidheight>54.00</geoidheight><course>83.9</course><type>1</type></trkpt>
      <trkpt lat="40.58269901" lon="-4.86575715"><ele>3227</ele><speed>14.95</speed><time>2016-07-01T13:49:12Z</time><pdop>3.0</pdop><geoidheight>54.00</geoidheight><course>83.6</course><type>1</type></trkpt>
      <trkpt lat="40.58270633" lon="-4.86558199"><ele>3227</ele><speed>15.04</speed><time>2016-07-01T13:49:13Z</time><pdop>3.0</pdop><geoidheight>54.00</geoidheight><course>85.1</course><type>1</type></trkpt>
      <trkpt lat="40.58274747" lon="-4.86539451"><ele>3226</ele><speed>15.92</speed><time>2016-07-01T13:49:14Z</time><pdop>3.0</pdop><geoidheight>54.00</geoidheight><course>79.6</course><type>1</type></trkpt>
      <trkpt lat="40.58278418" lon="-4.8652213"><ele>3225</ele><speed>15.63</speed><time>2016-07-01T13:49:15Z</time><pdop>4.0</pdop><geoidheight>54.00</geoidheight><course>77.9</course><type>1</type></trkpt>
      <trkpt lat="40.58282749" lon="-4.86505249"><ele>3225</ele><speed>15.28</speed><time>2016-07-01T13:49:16Z</time><pdop>4.0</pdop><geoidheight>54.00</geoidheight><course>76.2</course><type>1</type></trkpt>
      <trkpt lat="40.58284816" lon="-4.86489512"><ele>3222</ele><speed>14.72</speed><time>2016-07-01T13:49:17Z</time><pdop>3.0</pdop><geoidheight>54.00</geoidheight><course>76.3</course><type>1</type></trkpt>
      <trkpt lat="40.58287652" lon="-4.86472473"><ele>3220</ele><speed>14.67</speed><time>2016-07-01T13:49:18Z</time><pdop>3.0</pdop><geoidheight>54.00</geoidheight><course>77.9</course><type>1</type></trkpt>
      <trkpt lat="40.58291673" lon="-4.86454062"><ele>3218</ele><speed>15.28</speed><time>2016-07-01T13:49:19Z</time><pdop>3.0</pdop><geoidheight>54.00</geoidheight><course>74.7</course><type>1</type></trkpt>
      <trkpt lat="40.58296677" lon="-4.86436994"><ele>3215</ele><speed>15.78</speed><time>2016-07-01T13:49:20Z</time><pdop>3.0</pdop><geoidheight>54.00</geoidheight><course>70.1</course><type>1</type></trkpt>
      <trkpt lat="40.58300839" lon="-4.86419023"><ele>3215</ele><speed>16.16</speed><time>2016-07-01T13:49:21Z</time><pdop>4.0</pdop><geoidheight>54.00</geoidheight><course>71.3</course><type>1</type></trkpt>
      <trkpt lat="40.58305027" lon="-4.86401324"><ele>3212</ele><speed>16.53</speed><time>2016-07-01T13:49:22Z</time><pdop>5.0</pdop><geoidheight>54.00</geoidheight><course>72.5</course><type>1</type></trkpt>
      <trkpt lat="40.58308204" lon="-4.86380983"><ele>3210</ele><speed>16.90</speed><time>2016-07-01T13:49:23Z</time><pdop>4.0</pdop><geoidheight>54.00</geoidheight><course>75.1</course><type>1</type></trkpt>
      <trkpt lat="40.58313182" lon="-4.86362619"><ele>3210</ele><speed>16.40</speed><time>2016-07-01T13:49:24Z</time><pdop>4.0</pdop><geoidheight>54.00</geoidheight><course>74.3</course><type>1</type></trkpt>
      <trkpt lat="40.58316155" lon="-4.86346008"><ele>3207</ele><speed>15.34</speed><time>2016-07-01T13:49:25Z</time><pdop>5.0</pdop><geoidheight>54.00</geoidheight><course>75.2</course><type>1</type></trkpt>
      <trkpt lat="40.58321456" lon="-4.86329909"><ele>3206</ele><speed>14.82</speed><time>2016-07-01T13:49:26Z</time><pdop>5.0</pdop><geoidheight>54.00</geoidheight><course>73.0</course><type>1</type></trkpt>
      <trkpt lat="40.58323817" lon="-4.86314202"><ele>3203</ele><speed>14.44</speed><time>2016-07-01T13:49:27Z</time><pdop>5.0</pdop><geoidheight>54.00</geoidheight><course>74.4</course><type>1</type></trkpt>
      <trkpt lat="40.58328332" lon="-4.86295299"><ele>3204</ele><speed>15.33</speed><time>2016-07-01T13:49:28Z</time><pdop>5.0</pdop><geoidheight>54.00</geoidheight><course>73.3</course><type>1</type></trkpt>
      <trkpt lat="40.58334977" lon="-4.86276649"><ele>3202</ele><speed>16.35</speed><time>2016-07-01T13:49:29Z</time><pdop>5.0</pdop><geoidheight>54.00</geoidheight><course>70.7</course><type>1</type></trkpt>
      <trkpt lat="40.58337872" lon="-4.86256223"><ele>3202</ele><speed>17.07</speed><time>2016-07-01T13:49:30Z</time><pdop>5.0</pdop><geoidheight>54.00</geoidheight><course>73.2</course><type>1</type></trkpt>
      <trkpt lat="40.58342563" lon="-4.86237559"><ele>3201</ele><speed>17.56</speed><time>2016-07-01T13:49:31Z</time><pdop>4.0</pdop><geoidheight>54.00</geoidheight><course>70.4</course><type>1</type></trkpt>
      <trkpt lat="40.58345258" lon="-4.8621995"><ele>3198</ele><speed>16.79</speed><time>2016-07-01T13:49:32Z</time><pdop>4.0</pdop><geoidheight>54.00</geoidheight><course>70.1</course><type>1</type></trkpt>
      <trkpt lat="40.58351302" lon="-4.86202144"><ele>3198</ele><speed>16.14</speed><time>2016-07-01T13:49:33Z</time><pdop>4.0</pdop><geoidheight>54.00</geoidheight><course>69.5</course><type>1</type></trkpt>
      <trkpt lat="40.58358104" lon="-4.86183761"><ele>3199</ele><speed>16.47</speed><time>2016-07-01T13:49:34Z</time><pdop>4.0</pdop><geoidheight>54.00</geoidheight><course>70.0</course><type>1</type></trkpt>
      <trkpt lat="40.58362447" lon="-4.86164736"><ele>3197</ele><speed>16.44</speed><time>2016-07-01T13:49:35Z</time><pdop>3.0</pdop><geoidheight>54.00</geoidheight><course>72.0</course><type>1</type></trkpt>
      <trkpt lat="40.58365024" lon="-4.86146244"><ele>3195</ele><speed>16.44</speed><time>2016-07-01T13:49:36Z</time><pdop>4.0</pdop><geoidheight>54.00</geoidheight><course>74.3</course><type>1</type></trkpt>
      <trkpt lat="40.58369568" lon="-4.86126183"><ele>3192</ele><speed>17.60</speed><time>2016-07-01T13:49:37Z</time><pdop>3.0</pdop><geoidheight>54.00</geoidheight><course>73.7</course><type>1</type></trkpt>
      <trkpt lat="40.58373748" lon="-4.86105034"><ele>3191</ele><speed>18.42</speed><time>2016-07-01T13:49:38Z</time><pdop>4.0</pdop><geoidheight>54.00</geoidheight><course>74.5</course><type>1</type></trkpt>
      <trkpt lat="40.58377982" lon="-4.86083728"><ele>3188</ele><speed>19.45</speed><time>2016-07-01T13:49:39Z</time><pdop>3.0</pdop><geoidheight>54.00</geoidheight><course>75.9</course><type>1</type></trkpt>
      <trkpt lat="40.58381199" lon="-4.86061557"><ele>3187</ele><speed>19.45</speed><time>2016-07-01T13:49:40Z</time><pdop>3.0</pdop><geoidheight>54.00</geoidheight><course>78.6</course><type>1</type></trkpt>
      <trkpt lat="40.58382341" lon="-4.86041766"><ele>3184</ele><speed>18.41</speed><time>2016-07-01T13:49:41Z</time><pdop>3.0</pdop><geoidheight>54.00</geoidheight><course>81.5</course><type>1</type></trkpt>
      <trkpt lat="40.5838472" lon="-4.8602139"><ele>3181</ele><speed>18.03</speed><time>2016-07-01T13:49:42Z</time><pdop>4.0</pdop><geoidheight>54.00</geoidheight><course>81.5</course><type>1</type></trkpt>
      <trkpt lat="40.58386594" lon="-4.86000237"><ele>3179</ele><speed>17.56</speed><time>2016-07-01T13:49:43Z</time><pdop>3.0</pdop><geoidheight>54.00</geoidheight><course>83.5</course><type>1</type></trkpt>
      <trkpt lat="40.5838819" lon="-4.85979119"><ele>3178</ele><speed>17.21</speed><time>2016-07-01T13:49:44Z</time><pdop>3.0</pdop><geoidheight>54.00</geoidheight><course>84.9</course><type>1</type></trkpt>
      <trkpt lat="40.58390596" lon="-4.85958026"><ele>3176</ele><speed>17.77</speed><time>2016-07-01T13:49:45Z</time><pdop>4.0</pdop><geoidheight>54.00</geoidheight><course>82.2</course><type>1</type></trkpt>
      <trkpt lat="40.58394521" lon="-4.8593687"><ele>3172</ele><speed>19.15</speed><time>2016-07-01T13:49:46Z</time><pdop>3.0</pdop><geoidheight>54.00</geoidheight><course>77.7</course><type>1</type></trkpt>
      <trkpt lat="40.5840012" lon="-4.8591497"><ele>3168</ele><speed>19.84</speed><time>2016-07-01T13:49:47Z</time><pdop>4.0</pdop><geoidheight>54.00</geoidheight><course>73.3</course><type>1</type></trkpt>
      <trkpt lat="40.58406214" lon="-4.85890939"><ele>3166</ele><speed>20.44</speed><time>2016-07-01T13:49:48Z</time><pdop>4.0</pdop><geoidheight>54.00</geoidheight><course>73.4</course><type>1</type></trkpt>
      <trkpt lat="40.58411776" lon="-4.85867374"><ele>3164</ele><speed>20.42</speed><time>2016-07-01T13:49:49Z</time><pdop>5.0</pdop><geoidheight>54.00</geoidheight><course>73.4</course><type>1</type></trkpt>
      <trkpt lat="40.58415032" lon="-4.85846104"><ele>3162</ele><speed>19.45</speed><time>2016-07-01T13:49:50Z</time><pdop>6.0</pdop><geoidheight>54.00</geoidheight><course>75.1</course><type>1</type></trkpt>
      <trkpt lat="40.58416977" lon="-4.85826531"><ele>3158</ele><speed>17.41</speed><time>2016-07-01T13:49:51Z</time><pdop>5.0</pdop><geoidheight>54.00</geoidheight><course>79.7</course><type>1</type></trkpt>
      <trkpt lat="40.58419048" lon="-4.85807571"><ele>3155</ele><speed>16.89</speed><time>2016-07-01T13:49:52Z</time><pdop>4.0</pdop><geoidheight>54.00</geoidheight><course>78.4</course><type>1</type></trkpt>
      <trkpt lat="40.58422079" lon="-4.85789441"><ele>3153</ele><speed>16.27</speed><time>2016-07-01T13:49:53Z</time><pdop>4.0</pdop><geoidheight>54.00</geoidheight><course>76.9</course><type>1</type></trkpt>
      <trkpt lat="40.584256" lon="-4.85772885"><ele>3151</ele><speed>15.66</speed><time>2016-07-01T13:49:54Z</time><pdop>5.0</pdop><geoidheight>54.00</geoidheight><course>77.0</course><type>1</type></trkpt>
      <trkpt lat="40.58429289" lon="-4.85753134"><ele>3148</ele><speed>16.43</speed><time>2016-07-01T13:49:55Z</time><pdop>5.0</pdop><geoidheight>54.00</geoidheight><course>75.5</course><type>1</type></trkpt>
      <trkpt lat="40.58433383" lon="-4.85730581"><ele>3145</ele><speed>18.03</speed><time>2016-07-01T13:49:56Z</time><pdop>5.0</pdop><geoidheight>54.00</geoidheight><course>75.9</course><type>1</type></trkpt>
      <trkpt lat="40.58437358" lon="-4.85707955"><ele>3142</ele><speed>19.27</speed><time>2016-07-01T13:49:57Z</time><pdop>5.0</pdop><geoidheight>54.00</geoidheight><course>78.0</course><type>1</type></trkpt>
      <trkpt lat="40.58440416" lon="-4.85686369"><ele>3139</ele><speed>18.75</speed><time>2016-07-01T13:49:58Z</time><pdop>6.0</pdop><geoidheight>54.00</geoidheight><course>77.3</course><type>1</type></trkpt>
      <trkpt lat="40.58441474" lon="-4.85668178"><ele>3137</ele><speed>17.28</speed><time>2016-07-01T13:49:59Z</time><pdop>5.0</pdop><geoidheight>54.00</geoidheight><course>81.2</course><type>1</type></trkpt>
      <trkpt lat="40.58442582" lon="-4.85649264"><ele>3134</ele><speed>16.91</speed><time>2016-07-01T13:50:00Z</time><pdop>4.0</pdop><geoidheight>54.00</geoidheight><course>82.9</course><type>1</type></trkpt>
      <trkpt lat="40.58443535" lon="-4.85628424"><ele>3132</ele><speed>16.99</speed><time>2016-07-01T13:50:01Z</time><pdop>4.0</pdop><geoidheight>54.00</geoidheight><course>84.2</course><type>1</type></trkpt>
      <trkpt lat="40.58445271" lon="-4.85607672"><ele>3131</ele><speed>17.29</speed><time>2016-07-01T13:50:02Z</time><pdop>5.0</pdop><geoidheight>54.00</geoidheight><course>84.0</course><type>1</type></trkpt>
      <trkpt lat="40.58447212" lon="-4.85587204"><ele>3129</ele><speed>17.75</speed><time>2016-07-01T13:50:03Z</time><pdop>6.0</pdop><geoidheight>54.00</geoidheight><course>83.6</course><type>1</type></trkpt>
      <trkpt lat="40.58449202" lon="-4.85564735"><ele>3127</ele><speed>18.58</speed><time>2016-07-01T13:50:04Z</time><pdop>7.0</pdop><geoidheight>54.00</geoidheight><course>83.5</course><type>1</type></trkpt>
      <trkpt lat="40.58453734" lon="-4.85541268"><ele>3124</ele><speed>19.43</speed><time>2016-07-01T13:50:05Z</time><pdop>6.0</pdop><geoidheight>54.00</geoidheight><course>80.6</course><type>1</type></trkpt>
      <trkpt lat="40.58459969" lon="-4.85520341"><ele>3123</ele><speed>19.29</speed><time>2016-07-01T13:50:06Z</time><pdop>6.0</pdop><geoidheight>54.00</geoidheight><course>77.3</course><type>1</type></trkpt>
      <trkpt lat="40.5846531" lon="-4.8550003"><ele>3120</ele><speed>18.44</speed><time>2016-07-01T13:50:07Z</time><pdop>5.0</pdop><geoidheight>54.00</geoidheight><course>74.5</course><type>1</type></trkpt>
      <trkpt lat="40.58470926" lon="-4.85481507"><ele>3117</ele><speed>17.30</speed><time>2016-07-01T13:50:08Z</time><pdop>5.0</pdop><geoidheight>54.00</geoidheight><course>72.3</course><type>1</type></trkpt>
      <trkpt lat="40.58475784" lon="-4.85464466"><ele>3114</ele><speed>16.57</speed><time>2016-07-01T13:50:09Z</time><pdop>4.0</pdop><geoidheight>54.00</geoidheight><course>70.9</course><type>1</type></trkpt>
      <trkpt lat="40.58480435" lon="-4.85445661"><ele>3113</ele><speed>16.48</speed><time>2016-07-01T13:50:10Z</time><pdop>4.0</pdop><geoidheight>54.00</geoidheight><course>71.7</course><type>1</type></trkpt>
      <trkpt lat="40.58486165" lon="-4.85427802"><ele>3110</ele><speed>16.90</speed><time>2016-07-01T13:50:11Z</time><pdop>4.0</pdop><geoidheight>54.00</geoidheight><course>70.4</course><type>1</type></trkpt>
      <trkpt lat="40.58491247" lon="-4.85408328"><ele>3104</ele><speed>17.65</speed><time>2016-07-01T13:50:12Z</time><pdop>4.0</pdop><geoidheight>54.00</geoidheight><course>69.7</course><type>1</type></trkpt>
      <trkpt lat="40.58497206" lon="-4.85388269"><ele>3100</ele><speed>18.26</speed><time>2016-07-01T13:50:13Z</time><pdop>4.0</pdop><geoidheight>54.00</geoidheight><course>69.6</course><type>1</type></trkpt>
      <trkpt lat="40.58503601" lon="-4.85368052"><ele>3097</ele><speed>18.48</speed><time>2016-07-01T13:50:14Z</time><pdop>4.0</pdop><geoidheight>54.00</geoidheight><course>69.5</course><type>1</type></trkpt>
      <trkpt lat="40.58509601" lon="-4.85347235"><ele>3096</ele><speed>18.62</speed><time>2016-07-01T13:50:15Z</time><pdop>5.0</pdop><geoidheight>54.00</geoidheight><course>69.6</course><type>1</type></trkpt>
      <trkpt lat="40.58515955" lon="-4.85326076"><ele>3095</ele><speed>18.58</speed><time>2016-07-01T13:50:16Z</time><pdop>5.0</pdop><geoidheight>54.00</geoidheight><course>69.4</course><type>1</type></trkpt>
      <trkpt lat="40.58521018" lon="-4.85305991"><ele>3093</ele><speed>18.15</speed><time>2016-07-01T13:50:17Z</time><pdop>5.0</pdop><geoidheight>54.00</geoidheight><course>70.5</course><type>1</type></trkpt>
      <trkpt lat="40.58525845" lon="-4.85288763"><ele>3090</ele><speed>17.69</speed><time>2016-07-01T13:50:18Z</time><pdop>6.0</pdop><geoidheight>54.00</geoidheight><course>71.0</course><type>1</type></trkpt>
      <trkpt lat="40.58530216" lon="-4.85267413"><ele>3089</ele><speed>18.15</speed><time>2016-07-01T13:50:19Z</time><pdop>5.0</pdop><geoidheight>54.00</geoidheight><course>74.9</course><type>1</type></trkpt>
      <trkpt lat="40.58533743" lon="-4.85246815"><ele>3083</ele><speed>18.52</speed><time>2016-07-01T13:50:20Z</time><pdop>4.0</pdop><geoidheight>54.00</geoidheight><course>77.1</course><type>1</type></trkpt>
      <trkpt lat="40.58537881" lon="-4.85224853"><ele>3080</ele><speed>18.68</speed><time>2016-07-01T13:50:21Z</time><pdop>5.0</pdop><geoidheight>54.00</geoidheight><course>77.4</course><type>1</type></trkpt>
      <trkpt lat="40.5854175" lon="-4.85204674"><ele>3076</ele><speed>18.48</speed><time>2016-07-01T13:50:22Z</time><pdop>5.0</pdop><geoidheight>54.00</geoidheight><course>73.2</course><type>1</type></trkpt>
      <trkpt lat="40.58547564" lon="-4.8518521"><ele>3072</ele><speed>18.04</speed><time>2016-07-01T13:50:23Z</time><pdop>4.0</pdop><geoidheight>54.00</geoidheight><course>68.8</course><type>1</type></trkpt>
      <trkpt lat="40.58554033" lon="-4.85166184"><ele>3070</ele><speed>17.81</speed><time>2016-07-01T13:50:24Z</time><pdop>4.0</pdop><geoidheight>54.00</geoidheight><course>67.9</course><type>1</type></trkpt>
      <trkpt lat="40.58560163" lon="-4.85146947"><ele>3068</ele><speed>17.81</speed><time>2016-07-01T13:50:25Z</time><pdop>5.0</pdop><geoidheight>54.00</geoidheight><course>68.0</course><type>1</type></trkpt>
      <trkpt lat="40.58565282" lon="-4.85126524"><ele>3066</ele><speed>18.09</speed><time>2016-07-01T13:50:26Z</time><pdop>6.0</pdop><geoidheight>54.00</geoidheight><course>69.1</course><type>1</type></trkpt>
      <trkpt lat="40.58573525" lon="-4.85106037"><ele>3062</ele><speed>18.76</speed><time>2016-07-01T13:50:27Z</time><pdop>5.0</pdop><geoidheight>54.00</geoidheight><course>65.6</course><type>1</type></trkpt>
      <trkpt lat="40.58578944" lon="-4.85089087"><ele>3058</ele><speed>18.20</speed><time>2016-07-01T13:50:28Z</time><pdop>5.0</pdop><geoidheight>54.00</geoidheight><course>66.6</course><type>1</type></trkpt>
      <trkpt lat="40.58585125" lon="-4.85069536"><ele>3051</ele><speed>18.62</speed><time>2016-07-01T13:50:29Z</time><pdop>4.0</pdop><geoidheight>54.00</geoidheight><course>67.4</course><type>1</type></trkpt>
      <trkpt lat="40.5859178" lon="-4.85049137"><ele>3047</ele><speed>18.63</speed><time>2016-07-01T13:50:30Z</time><pdop>4.0</pdop><geoidheight>54.00</geoidheight><course>67.9</course><type>1</type></trkpt>
      <trkpt lat="40.58595998" lon="-4.85030461"><ele>3042</ele><speed>18.07</speed><time>2016-07-01T13:50:31Z</time><pdop>4.0</pdop><geoidheight>54.00</geoidheight><course>69.2</course><type>1</type></trkpt>
      <trkpt lat="40.586011" lon="-4.85010831"><ele>3040</ele><speed>17.73</speed><time>2016-07-01T13:50:32Z</time><pdop>4.0</pdop><geoidheight>54.00</geoidheight><course>69.5</course><type>1</type></trkpt>
      <trkpt lat="40.58607056" lon="-4.84991678"><ele>3038</ele><speed>17.44</speed><time>2016-07-01T13:50:33Z</time><pdop>5.0</pdop><geoidheight>54.00</geoidheight><course>68.9</course><type>1</type></trkpt>
      <trkpt lat="40.58613151" lon="-4.84971565"><ele>3038</ele><speed>17.63</speed><time>2016-07-01T13:50:34Z</time><pdop>6.0</pdop><geoidheight>54.00</geoidheight><course>68.4</course><type>1</type></trkpt>
      <trkpt lat="40.58621857" lon="-4.84951391"><ele>3036</ele><speed>18.43</speed><time>2016-07-01T13:50:35Z</time><pdop>6.0</pdop><geoidheight>54.00</geoidheight><course>65.6</course><type>1</type></trkpt>
      <trkpt lat="40.58627795" lon="-4.8493111"><ele>3034</ele><speed>18.71</speed><time>2016-07-01T13:50:36Z</time><pdop>6.0</pdop><geoidheight>54.00</geoidheight><course>66.8</course><type>1</type></trkpt>
      <trkpt lat="40.58632415" lon="-4.84909952"><ele>3032</ele><speed>18.93</speed><time>2016-07-01T13:50:37Z</time><pdop>6.0</pdop><geoidheight>54.00</geoidheight><course>68.3</course><type>1</type></trkpt>
      <trkpt lat="40.58639844" lon="-4.84891524"><ele>3026</ele><speed>19.08</speed><time>2016-07-01T13:50:38Z</time><pdop>5.0</pdop><geoidheight>54.00</geoidheight><course>65.7</course><type>1</type></trkpt>
      <trkpt lat="40.58645736" lon="-4.84872068"><ele>3022</ele><speed>18.68</speed><time>2016-07-01T13:50:39Z</time><pdop>5.0</pdop><geoidheight>54.00</geoidheight><course>66.6</course><type>1</type></trkpt>
      <trkpt lat="40.5865056" lon="-4.84853599"><ele>3019</ele><speed>18.23</speed><time>2016-07-01T13:50:40Z</time><pdop>5.0</pdop><geoidheight>54.00</geoidheight><course>67.2</course><type>1</type></trkpt>
      <trkpt lat="40.58658094" lon="-4.84835512"><ele>3016</ele><speed>18.14</speed><time>2016-07-01T13:50:41Z</time><pdop>6.0</pdop><geoidheight>54.00</geoidheight><course>65.6</course><type>1</type></trkpt>
      <trkpt lat="40.58660851" lon="-4.84818596"><ele>3012</ele><speed>17.31</speed><time>2016-07-01T13:50:42Z</time><pdop>7.0</pdop><geoidheight>54.00</geoidheight><course>68.5</course><type>1</type></trkpt>
      <trkpt lat="40.58668915" lon="-4.84798942"><ele>3011</ele><speed>17.80</speed><time>2016-07-01T13:50:43Z</time><pdop>8.0</pdop><geoidheight>54.00</geoidheight><course>66.3</course><type>1</type></trkpt>
      <trkpt lat="40.58675454" lon="-4.84779502"><ele>3009</ele><speed>17.88</speed><time>2016-07-01T13:50:44Z</time><pdop>7.0</pdop><geoidheight>54.00</geoidheight><course>66.4</course><type>1</type></trkpt>
      <trkpt lat="40.58682546" lon="-4.84759214"><ele>3008</ele><speed>18.21</speed><time>2016-07-01T13:50:45Z</time><pdop>8.0</pdop><geoidheight>54.00</geoidheight><course>66.4</course><type>1</type></trkpt>
      <trkpt lat="40.58689362" lon="-4.84741141"><ele>3004</ele><speed>18.02</speed><time>2016-07-01T13:50:46Z</time><pdop>6.0</pdop><geoidheight>54.00</geoidheight><course>67.2</course><type>1</type></trkpt>
      <trkpt lat="40.58694568" lon="-4.84721565"><ele>3003</ele><speed>17.90</speed><time>2016-07-01T13:50:47Z</time><pdop>5.0</pdop><geoidheight>54.00</geoidheight><course>68.2</course><type>1</type></trkpt>
      <trkpt lat="40.58701818" lon="-4.84702126"><ele>3001</ele><speed>18.06</speed><time>2016-07-01T13:50:48Z</time><pdop>7.0</pdop><geoidheight>54.00</geoidheight><course>67.1</course><type>1</type></trkpt>
      <trkpt lat="40.58709777" lon="-4.84682152"><ele>2999</ele><speed>18.44</speed><time>2016-07-01T13:50:49Z</time><pdop>8.0</pdop><geoidheight>54.00</geoidheight><course>65.9</course><type>1</type></trkpt>
      <trkpt lat="40.58712679" lon="-4.84663751"><ele>2995</ele><speed>18.00</speed><time>2016-07-01T13:50:50Z</time><pdop>7.0</pdop><geoidheight>54.00</geoidheight><course>68.9</course><type>1</type></trkpt>
      <trkpt lat="40.5871403" lon="-4.84645153"><ele>2993</ele><speed>17.42</speed><time>2016-07-01T13:50:51Z</time><pdop>6.0</pdop><geoidheight>54.00</geoidheight><course>72.4</course><type>1</type></trkpt>
      <trkpt lat="40.58720766" lon="-4.84625239"><ele>2992</ele><speed>17.52</speed><time>2016-07-01T13:50:52Z</time><pdop>6.0</pdop><geoidheight>54.00</geoidheight><course>70.7</course><type>1</type></trkpt>
      <trkpt lat="40.58722898" lon="-4.84607319"><ele>2989</ele><speed>16.96</speed><time>2016-07-01T13:50:53Z</time><pdop>6.0</pdop><geoidheight>54.00</geoidheight><course>73.1</course><type>1</type></trkpt>
      <trkpt lat="40.58726836" lon="-4.84589161"><ele>2986</ele><speed>16.84</speed><time>2016-07-01T13:50:54Z</time><pdop>6.0</pdop><geoidheight>54.00</geoidheight><course>73.2</course><type>1</type></trkpt>
      <trkpt lat="40.58727737" lon="-4.84571297"><ele>2985</ele><speed>16.44</speed><time>2016-07-01T13:50:55Z</time><pdop>7.0</pdop><geoidheight>54.00</geoidheight><course>76.2</course><type>1</type></trkpt>
      <trkpt lat="40.5873476" lon="-4.84551813"><ele>2984</ele><speed>16.89</speed><time>2016-07-01T13:50:56Z</time><pdop>6.0</pdop><geoidheight>54.00</geoidheight><course>72.6</course><type>1</type></trkpt>
      <trkpt lat="40.5873807" lon="-4.84533206"><ele>2980</ele><speed>16.96</speed><time>2016-07-01T13:50:57Z</time><pdop>6.0</pdop><geoidheight>54.00</geoidheight><course>72.9</course><type>1</type></trkpt>
      <trkpt lat="40.58742534" lon="-4.84514611"><ele>2977</ele><speed>17.27</speed><time>2016-07-01T13:50:58Z</time><pdop>5.0</pdop><geoidheight>54.00</geoidheight><course>71.1</course><type>1</type></trkpt>
      <trkpt lat="40.58748796" lon="-4.84495669"><ele>2974</ele><speed>17.62</speed><time>2016-07-01T13:50:59Z</time><pdop>5.0</pdop><geoidheight>54.00</geoidheight><course>70.9</course><type>1</type></trkpt>
      <trkpt lat="40.5875469" lon="-4.84477034"><ele>2971</ele><speed>17.71</speed><time>2016-07-01T13:51:00Z</time><pdop>5.0</pdop><geoidheight>54.00</geoidheight><course>70.3</course><type>1</type></trkpt>
      <trkpt lat="40.58759539" lon="-4.84458579"><ele>2967</ele><speed>17.28</speed><time>2016-07-01T13:51:01Z</time><pdop>4.0</pdop><geoidheight>54.00</geoidheight><course>72.4</course><type>1</type></trkpt>
      <trkpt lat="40.58764268" lon="-4.84440938"><ele>2964</ele><speed>16.78</speed><time>2016-07-01T13:51:02Z</time><pdop>4.0</pdop><geoidheight>54.00</geoidheight><course>72.9</course><type>1</type></trkpt>
      <trkpt lat="40.58769305" lon="-4.84422469"><ele>2960</ele><speed>16.60</speed><time>2016-07-01T13:51:03Z</time><pdop>3.0</pdop><geoidheight>54.00</geoidheight><course>73.2</course><type>1</type></trkpt>
      <trkpt lat="40.58773641" lon="-4.84404098"><ele>2956</ele><speed>16.69</speed><time>2016-07-01T13:51:04Z</time><pdop>3.0</pdop><geoidheight>54.00</geoidheight><course>73.6</course><type>1</type></trkpt>
      <trkpt lat="40.58778064" lon="-4.84384704"><ele>2954</ele><speed>17.09</speed><time>2016-07-01T13:51:05Z</time><pdop>3.0</pdop><geoidheight>54.00</geoidheight><course>75.1</course><type>1</type></trkpt>
      <trkpt lat="40.58780999" lon="-4.84366666"><ele>2951</ele><speed>16.60</speed><time>2016-07-01T13:51:06Z</time><pdop>3.0</pdop><geoidheight>54.00</geoidheight><course>77.0</course><type>1</type></trkpt>
      <trkpt lat="40.58784142" lon="-4.84346949"><ele>2950</ele><speed>16.71</speed><time>2016-07-01T13:51:07Z</time><pdop>3.0</pdop><geoidheight>54.00</geoidheight><course>77.8</course><type>1</type></trkpt>
      <trkpt lat="40.58785799" lon="-4.84327766"><ele>2949</ele><speed>16.73</speed><time>2016-07-01T13:51:08Z</time><pdop>4.0</pdop><geoidheight>54.00</geoidheight><course>80.9</course><type>1</type></trkpt>
      <trkpt lat="40.58788075" lon="-4.84307308"><ele>2948</ele><speed>17.16</speed><time>2016-07-01T13:51:09Z</time><pdop>3.0</pdop><geoidheight>54.00</geoidheight><course>80.9</course><type>1</type></trkpt>
      <trkpt lat="40.58792109" lon="-4.84288635"><ele>2945</ele><speed>17.22</speed><time>2016-07-01T13:51:10Z</time><pdop>3.0</pdop><geoidheight>54.00</geoidheight><course>78.2</course><type>1</type></trkpt>
      <trkpt lat="40.58795508" lon="-4.84268399"><ele>2943</ele><speed>17.57</speed><time>2016-07-01T13:51:11Z</time><pdop>3.0</pdop><geoidheight>54.00</geoidheight><course>76.1</course><type>1</type></trkpt>
      <trkpt lat="40.58799195" lon="-4.84248626"><ele>2940</ele><speed>17.21</speed><time>2016-07-01T13:51:12Z</time><pdop>3.0</pdop><geoidheight>54.00</geoidheight><course>77.4</course><type>1</type></trkpt>
      <trkpt lat="40.5880177" lon="-4.84228985"><ele>2939</ele><speed>16.99</speed><time>2016-07-01T13:51:13Z</time><pdop>3.0</pdop><geoidheight>54.00</geoidheight><course>78.0</course><type>1</type></trkpt>
      <trkpt lat="40.58805801" lon="-4.84210256"><ele>2937</ele><speed>16.67</speed><time>2016-07-01T13:51:14Z</time><pdop>4.0</pdop><geoidheight>54.00</geoidheight><course>76.2</course><type>1</type></trkpt>
      <trkpt lat="40.58810133" lon="-4.84192473"><ele>2937</ele><speed>16.37</speed><time>2016-07-01T13:51:15Z</time><pdop>4.0</pdop><geoidheight>54.00</geoidheight><course>73.9</course><type>1</type></trkpt>
      <trkpt lat="40.5881432" lon="-4.84172667"><ele>2936</ele><speed>16.54</speed><time>2016-07-01T13:51:16Z</time><pdop>4.0</pdop><geoidheight>54.00</geoidheight><course>73.1</course><type>1</type></trkpt>
      <trkpt lat="40.58821191" lon="-4.84155058"><ele>2934</ele><speed>16.80</speed><time>2016-07-01T13:51:17Z</time><pdop>4.0</pdop><geoidheight>54.00</geoidheight><course>69.7</course><type>1</type></trkpt>
      <trkpt lat="40.58827416" lon="-4.84135882"><ele>2933</ele><speed>17.29</speed><time>2016-07-01T13:51:18Z</time><pdop>4.0</pdop><geoidheight>54.00</geoidheight><course>68.7</course><type>1</type></trkpt>
      <trkpt lat="40.58833522" lon="-4.84117913"><ele>2933</ele><speed>17.62</speed><time>2016-07-01T13:51:19Z</time><pdop>4.0</pdop><geoidheight>53.00</geoidheight><course>67.9</course><type>1</type></trkpt>
      <trkpt lat="40.58840406" lon="-4.84100412"><ele>2927</ele><speed>17.91</speed><time>2016-07-01T13:51:20Z</time><pdop>3.0</pdop><geoidheight>53.00</geoidheight><course>64.1</course><type>1</type></trkpt>
      <trkpt lat="40.5884717" lon="-4.84081499"><ele>2923</ele><speed>18.09</speed><time>2016-07-01T13:51:21Z</time><pdop>3.0</pdop><geoidheight>53.00</geoidheight><course>63.7</course><type>1</type></trkpt>
      <trkpt lat="40.58854169" lon="-4.84061458"><ele>2920</ele><speed>18.47</speed><time>2016-07-01T13:51:22Z</time><pdop>3.0</pdop><geoidheight>53.00</geoidheight><course>66.4</course><type>1</type></trkpt>
      <trkpt lat="40.58861388" lon="-4.8404197"><ele>2917</ele><speed>18.49</speed><time>2016-07-01T13:51:23Z</time><pdop>3.0</pdop><geoidheight>53.00</geoidheight><course>65.2</course><type>1</type></trkpt>
      <trkpt lat="40.58868384" lon="-4.84022317"><ele>2912</ele><speed>18.45</speed><time>2016-07-01T13:51:24Z</time><pdop>3.0</pdop><geoidheight>53.00</geoidheight><course>66.2</course><type>1</type></trkpt>
      <trkpt lat="40.58875614" lon="-4.84002299"><ele>2909</ele><speed>18.65</speed><time>2016-07-01T13:51:25Z</time><pdop>3.0</pdop><geoidheight>53.00</geoidheight><course>66.3</course><type>1</type></trkpt>
      <trkpt lat="40.58881991" lon="-4.83981976"><ele>2907</ele><speed>18.69</speed><time>2016-07-01T13:51:26Z</time><pdop>3.0</pdop><geoidheight>53.00</geoidheight><course>67.1</course><type>1</type></trkpt>
      <trkpt lat="40.58888495" lon="-4.83962234"><ele>2904</ele><speed>18.46</speed><time>2016-07-01T13:51:27Z</time><pdop>3.0</pdop><geoidheight>53.00</geoidheight><course>67.2</course><type>1</type></trkpt>
      <trkpt lat="40.58895512" lon="-4.83942204"><ele>2903</ele><speed>18.33</speed><time>2016-07-01T13:51:28Z</time><pdop>4.0</pdop><geoidheight>53.00</geoidheight><course>66.3</course><type>1</type></trkpt>
      <trkpt lat="40.58904342" lon="-4.83924046"><ele>2902</ele><speed>18.19</speed><time>2016-07-01T13:51:29Z</time><pdop>3.0</pdop><geoidheight>53.00</geoidheight><course>61.7</course><type>1</type></trkpt>
      <trkpt lat="40.58911521" lon="-4.83907767"><ele>2897</ele><speed>17.31</speed><time>2016-07-01T13:51:30Z</time><pdop>3.0</pdop><geoidheight>53.00</geoidheight><course>60.4</course><type>1</type></trkpt>
      <trkpt lat="40.5891862" lon="-4.83888759"><ele>2895</ele><speed>17.29</speed><time>2016-07-01T13:51:31Z</time><pdop>3.0</pdop><geoidheight>53.00</geoidheight><course>63.1</course><type>1</type></trkpt>
      <trkpt lat="40.58925486" lon="-4.83871244"><ele>2892</ele><speed>16.96</speed><time>2016-07-01T13:51:32Z</time><pdop>3.0</pdop><geoidheight>53.00</geoidheight><course>63.9</course><type>1</type></trkpt>
      <trkpt lat="40.58931812" lon="-4.83854849"><ele>2889</ele><speed>17.21</speed><time>2016-07-01T13:51:33Z</time><pdop>3.0</pdop><geoidheight>53.00</geoidheight><course>65.0</course><type>1</type></trkpt>
      <trkpt lat="40.58937495" lon="-4.83836857"><ele>2885</ele><speed>17.31</speed><time>2016-07-01T13:51:34Z</time><pdop>3.0</pdop><geoidheight>53.00</geoidheight><course>65.8</course><type>1</type></trkpt>
      <trkpt lat="40.58943713" lon="-4.83818051"><ele>2883</ele><speed>17.28</speed><time>2016-07-01T13:51:35Z</time><pdop>3.0</pdop><geoidheight>53.00</geoidheight><course>66.2</course><type>1</type></trkpt>
      <trkpt lat="40.58950423" lon="-4.8379953"><ele>2883</ele><speed>17.26</speed><time>2016-07-01T13:51:36Z</time><pdop>3.0</pdop><geoidheight>53.00</geoidheight><course>65.7</course><type>1</type></trkpt>
      <trkpt lat="40.58956529" lon="-4.83781899"><ele>2881</ele><speed>16.67</speed><time>2016-07-01T13:51:37Z</time><pdop>3.0</pdop><geoidheight>53.00</geoidheight><course>65.0</course><type>1</type></trkpt>
      <trkpt lat="40.58962827" lon="-4.8376361"><ele>2879</ele><speed>16.73</speed><time>2016-07-01T13:51:38Z</time><pdop>3.0</pdop><geoidheight>53.00</geoidheight><course>66.2</course><type>1</type></trkpt>
      <trkpt lat="40.58968642" lon="-4.83746402"><ele>2877</ele><speed>16.81</speed><time>2016-07-01T13:51:39Z</time><pdop>3.0</pdop><geoidheight>53.00</geoidheight><course>68.4</course><type>1</type></trkpt>
      <trkpt lat="40.58973956" lon="-4.8372732"><ele>2874</ele><speed>17.30</speed><time>2016-07-01T13:51:40Z</time><pdop>3.0</pdop><geoidheight>53.00</geoidheight><course>70.4</course><type>1</type></trkpt>
      <trkpt lat="40.58979144" lon="-4.83706598"><ele>2873</ele><speed>18.08</speed><time>2016-07-01T13:51:41Z</time><pdop>3.0</pdop><geoidheight>53.00</geoidheight><course>71.0</course><type>1</type></trkpt>
      <trkpt lat="40.58985245" lon="-4.83690801"><ele>2867</ele><speed>17.40</speed><time>2016-07-01T13:51:42Z</time><pdop>3.0</pdop><geoidheight>53.00</geoidheight><course>68.6</course><type>1</type></trkpt>
      <trkpt lat="40.5899096" lon="-4.8367226"><ele>2865</ele><speed>17.24</speed><time>2016-07-01T13:51:43Z</time><pdop>3.0</pdop><geoidheight>53.00</geoidheight><course>67.4</course><type>1</type></trkpt>
      <trkpt lat="40.58996966" lon="-4.83654984"><ele>2862</ele><speed>16.87</speed><time>2016-07-01T13:51:44Z</time><pdop>3.0</pdop><geoidheight>53.00</geoidheight><course>66.1</course><type>1</type></trkpt>
      <trkpt lat="40.59003145" lon="-4.83636672"><ele>2861</ele><speed>16.46</speed><time>2016-07-01T13:51:45Z</time><pdop>3.0</pdop><geoidheight>53.00</geoidheight><course>66.0</course><type>1</type></trkpt>
      <trkpt lat="40.59008621" lon="-4.83620047"><ele>2858</ele><speed>16.02</speed><time>2016-07-01T13:51:46Z</time><pdop>3.0</pdop><geoidheight>53.00</geoidheight><course>66.2</course><type>1</type></trkpt>
      <trkpt lat="40.59014375" lon="-4.83603907"><ele>2856</ele><speed>15.87</speed><time>2016-07-01T13:51:47Z</time><pdop>3.0</pdop><geoidheight>53.00</geoidheight><course>66.1</course><type>1</type></trkpt>
      <trkpt lat="40.59020396" lon="-4.83587009"><ele>2851</ele><speed>16.27</speed><time>2016-07-01T13:51:48Z</time><pdop>3.0</pdop><geoidheight>53.00</geoidheight><course>64.5</course><type>1</type></trkpt>
      <trkpt lat="40.59026353" lon="-4.8357007"><ele>2846</ele><speed>16.84</speed><time>2016-07-01T13:51:49Z</time><pdop>3.0</pdop><geoidheight>53.00</geoidheight><course>64.7</course><type>1</type></trkpt>
      <trkpt lat="40.59032669" lon="-4.83551309"><ele>2841</ele><speed>17.57</speed><time>2016-07-01T13:51:50Z</time><pdop>3.0</pdop><geoidheight>53.00</geoidheight><course>65.7</course><type>1</type></trkpt>
      <trkpt lat="40.59038479" lon="-4.83531481"><ele>2837</ele><speed>18.37</speed><time>2016-07-01T13:51:51Z</time><pdop>3.0</pdop><geoidheight>53.00</geoidheight><course>68.2</course><type>1</type></trkpt>
      <trkpt lat="40.59044385" lon="-4.83511341"><ele>2833</ele><speed>18.80</speed><time>2016-07-01T13:51:52Z</time><pdop>3.0</pdop><geoidheight>53.00</geoidheight><course>69.7</course><type>1</type></trkpt>
      <trkpt lat="40.59050111" lon="-4.83489741"><ele>2833</ele><speed>18.59</speed><time>2016-07-01T13:51:53Z</time><pdop>3.0</pdop><geoidheight>53.00</geoidheight><course>69.8</course><type>1</type></trkpt>
      <trkpt lat="40.59056394" lon="-4.83470071"><ele>2832</ele><speed>18.01</speed><time>2016-07-01T13:51:54Z</time><pdop>3.0</pdop><geoidheight>53.00</geoidheight><course>67.2</course><type>1</type></trkpt>
      <trkpt lat="40.59062525" lon="-4.8345156"><ele>2831</ele><speed>17.30</speed><time>2016-07-01T13:51:55Z</time><pdop>3.0</pdop><geoidheight>53.00</geoidheight><course>67.2</course><type>1</type></trkpt>
      <trkpt lat="40.59067582" lon="-4.83433748"><ele>2830</ele><speed>16.85</speed><time>2016-07-01T13:51:56Z</time><pdop>3.0</pdop><geoidheight>53.00</geoidheight><course>68.1</course><type>1</type></trkpt>
      <trkpt lat="40.59072184" lon="-4.83416407"><ele>2827</ele><speed>16.68</speed><time>2016-07-01T13:51:57Z</time><pdop>3.0</pdop><geoidheight>53.00</geoidheight><course>70.1</course><type>1</type></trkpt>
      <trkpt lat="40.59077069" lon="-4.83397057"><ele>2825</ele><speed>17.13</speed><time>2016-07-01T13:51:58Z</time><pdop>3.0</pdop><geoidheight>53.00</geoidheight><course>71.7</course><type>1</type></trkpt>
      <trkpt lat="40.5908298" lon="-4.83378117"><ele>2823</ele><speed>17.38</speed><time>2016-07-01T13:51:59Z</time><pdop>3.0</pdop><geoidheight>53.00</geoidheight><course>70.7</course><type>1</type></trkpt>
      <trkpt lat="40.59089553" lon="-4.83359431"><ele>2821</ele><speed>17.55</speed><time>2016-07-01T13:52:00Z</time><pdop>3.0</pdop><geoidheight>53.00</geoidheight><course>67.0</course><type>1</type></trkpt>
      <trkpt lat="40.59097222" lon="-4.83341523"><ele>2817</ele><speed>17.43</speed><time>2016-07-01T13:52:01Z</time><pdop>3.0</pdop><geoidheight>53.00</geoidheight><course>62.5</course><type>1</type></trkpt>
      <trkpt lat="40.59104631" lon="-4.83323659"><ele>2815</ele><speed>17.13</speed><time>2016-07-01T13:52:02Z</time><pdop>3.0</pdop><geoidheight>53.00</geoidheight><course>61.7</course><type>1</type></trkpt>
      <trkpt lat="40.59111374" lon="-4.83305481"><ele>2814</ele><speed>17.14</speed><time>2016-07-01T13:52:03Z</time><pdop>3.0</pdop><geoidheight>53.00</geoidheight><course>63.7</course><type>1</type></trkpt>
      <trkpt lat="40.59117704" lon="-4.83286525"><ele>2812</ele><speed>17.13</speed><time>2016-07-01T13:52:04Z</time><pdop>3.0</pdop><geoidheight>53.00</geoidheight><course>65.7</course><type>1</type></trkpt>
      <trkpt lat="40.59124396" lon="-4.83268185"><ele>2811</ele><speed>17.12</speed><time>2016-07-01T13:52:05Z</time><pdop>3.0</pdop><geoidheight>53.00</geoidheight><course>64.6</course><type>1</type></trkpt>
      <trkpt lat="40.59131802" lon="-4.83249843"><ele>2809</ele><speed>17.53</speed><time>2016-07-01T13:52:06Z</time><pdop>3.0</pdop><geoidheight>53.00</geoidheight><course>63.3</course><type>1</type></trkpt>
      <trkpt lat="40.59140385" lon="-4.83231321"><ele>2807</ele><speed>18.32</speed><time>2016-07-01T13:52:07Z</time><pdop>3.0</pdop><geoidheight>53.00</geoidheight><course>61.3</course><type>1</type></trkpt>
      <trkpt lat="40.59149717" lon="-4.83213145"><ele>2804</ele><speed>18.55</speed><time>2016-07-01T13:52:08Z</time><pdop>3.0</pdop><geoidheight>53.00</geoidheight><course>57.6</course><type>1</type></trkpt>
      <trkpt lat="40.59158746" lon="-4.83194254"><ele>2803</ele><speed>18.60</speed><time>2016-07-01T13:52:09Z</time><pdop>3.0</pdop><geoidheight>53.00</geoidheight><course>57.2</course><type>1</type></trkpt>
      <trkpt lat="40.59166486" lon="-4.83175978"><ele>2802</ele><speed>18.02</speed><time>2016-07-01T13:52:10Z</time><pdop>3.0</pdop><geoidheight>53.00</geoidheight><course>58.1</course><type>1</type></trkpt>
      <trkpt lat="40.59173655" lon="-4.83159384"><ele>2801</ele><speed>16.95</speed><time>2016-07-01T13:52:11Z</time><pdop>3.0</pdop><geoidheight>53.00</geoidheight><course>59.7</course><type>1</type></trkpt>
      <trkpt lat="40.59180182" lon="-4.83143876"><ele>2800</ele><speed>15.80</speed><time>2016-07-01T13:52:12Z</time><pdop>3.0</pdop><geoidheight>53.00</geoidheight><course>61.6</course><type>1</type></trkpt>
      <trkpt lat="40.59185649" lon="-4.83127235"><ele>2800</ele><speed>15.19</speed><time>2016-07-01T13:52:13Z</time><pdop>3.0</pdop><geoidheight>53.00</geoidheight><course>64.5</course><type>1</type></trkpt>
      <trkpt lat="40.5919016" lon="-4.83110677"><ele>2798</ele><speed>15.33</speed><time>2016-07-01T13:52:14Z</time><pdop>3.0</pdop><geoidheight>53.00</geoidheight><course>70.3</course><type>1</type></trkpt>
      <trkpt lat="40.59193197" lon="-4.83094232"><ele>2795</ele><speed>14.80</speed><time>2016-07-01T13:52:15Z</time><pdop>3.0</pdop><geoidheight>53.00</geoidheight><course>75.6</course><type>1</type></trkpt>
      <trkpt lat="40.59196658" lon="-4.83077798"><ele>2794</ele><speed>14.37</speed><time>2016-07-01T13:52:16Z</time><pdop>3.0</pdop><geoidheight>53.00</geoidheight><course>75.6</course><type>1</type></trkpt>
      <trkpt lat="40.59200069" lon="-4.83061573"><ele>2794</ele><speed>14.27</speed><time>2016-07-01T13:52:17Z</time><pdop>3.0</pdop><geoidheight>53.00</geoidheight><course>73.6</course><type>1</type></trkpt>
      <trkpt lat="40.59204321" lon="-4.83045426"><ele>2792</ele><speed>14.66</speed><time>2016-07-01T13:52:18Z</time><pdop>3.0</pdop><geoidheight>53.00</geoidheight><course>71.4</course><type>1</type></trkpt>
      <trkpt lat="40.59209083" lon="-4.83029371"><ele>2790</ele><speed>14.96</speed><time>2016-07-01T13:52:19Z</time><pdop>3.0</pdop><geoidheight>53.00</geoidheight><course>68.1</course><type>1</type></trkpt>
      <trkpt lat="40.59214803" lon="-4.83012369"><ele>2788</ele><speed>15.42</speed><time>2016-07-01T13:52:20Z</time><pdop>3.0</pdop><geoidheight>53.00</geoidheight><course>67.5</course><type>1</type></trkpt>
      <trkpt lat="40.59220849" lon="-4.82995328"><ele>2788</ele><speed>16.01</speed><time>2016-07-01T13:52:21Z</time><pdop>4.0</pdop><geoidheight>53.00</geoidheight><course>66.0</course><type>1</type></trkpt>
      <trkpt lat="40.59231142" lon="-4.82978055"><ele>2785</ele><speed>17.53</speed><time>2016-07-01T13:52:22Z</time><pdop>3.0</pdop><geoidheight>53.00</geoidheight><course>60.0</course><type>1</type></trkpt>
      <trkpt lat="40.59236902" lon="-4.82961316"><ele>2782</ele><speed>16.88</speed><time>2016-07-01T13:52:23Z</time><pdop>3.0</pdop><geoidheight>53.00</geoidheight><course>65.2</course><type>1</type></trkpt>
      <trkpt lat="40.59241651" lon="-4.82944412"><ele>2781</ele><speed>16.21</speed><time>2016-07-01T13:52:24Z</time><pdop>3.0</pdop><geoidheight>53.00</geoidheight><course>66.1</course><type>1</type></trkpt>
      <trkpt lat="40.59244309" lon="-4.8292705"><ele>2780</ele><speed>15.40</speed><time>2016-07-01T13:52:25Z</time><pdop>4.0</pdop><geoidheight>53.00</geoidheight><course>70.5</course><type>1</type></trkpt>
      <trkpt lat="40.59245482" lon="-4.82912625"><ele>2778</ele><speed>13.91</speed><time>2016-07-01T13:52:26Z</time><pdop>3.0</pdop><geoidheight>53.00</geoidheight><course>77.7</course><type>1</type></trkpt>
      <trkpt lat="40.59247125" lon="-4.82897656"><ele>2776</ele><speed>12.83</speed><time>2016-07-01T13:52:27Z</time><pdop>3.0</pdop><geoidheight>53.00</geoidheight><course>82.0</course><type>1</type></trkpt>
      <trkpt lat="40.59247924" lon="-4.82882631"><ele>2773</ele><speed>12.30</speed><time>2016-07-01T13:52:28Z</time><pdop>3.0</pdop><geoidheight>53.00</geoidheight><course>82.8</course><type>1</type></trkpt>
      <trkpt lat="40.59249704" lon="-4.82868559"><ele>2772</ele><speed>12.29</speed><time>2016-07-01T13:52:29Z</time><pdop>3.0</pdop><geoidheight>53.00</geoidheight><course>81.5</course><type>1</type></trkpt>
      <trkpt lat="40.59251801" lon="-4.82854897"><ele>2770</ele><speed>12.27</speed><time>2016-07-01T13:52:30Z</time><pdop>4.0</pdop><geoidheight>53.00</geoidheight><course>81.1</course><type>1</type></trkpt>
      <trkpt lat="40.59251263" lon="-4.82839946"><ele>2769</ele><speed>12.77</speed><time>2016-07-01T13:52:31Z</time><pdop>5.0</pdop><geoidheight>53.00</geoidheight><course>84.9</course><type>1</type></trkpt>
      <trkpt lat="40.59255814" lon="-4.82823054"><ele>2767</ele><speed>14.08</speed><time>2016-07-01T13:52:32Z</time><pdop>6.0</pdop><geoidheight>53.00</geoidheight><course>79.6</course><type>1</type></trkpt>
      <trkpt lat="40.592616" lon="-4.82804857"><ele>2766</ele><speed>15.35</speed><time>2016-07-01T13:52:33Z</time><pdop>7.0</pdop><geoidheight>53.00</geoidheight><course>75.7</course><type>1</type></trkpt>
      <trkpt lat="40.59268657" lon="-4.82785429"><ele>2763</ele><speed>16.77</speed><time>2016-07-01T13:52:34Z</time><pdop>7.0</pdop><geoidheight>53.00</geoidheight><course>71.9</course><type>1</type></trkpt>
      <trkpt lat="40.59272123" lon="-4.82765625"><ele>2760</ele><speed>17.20</speed><time>2016-07-01T13:52:35Z</time><pdop>6.0</pdop><geoidheight>53.00</geoidheight><course>73.0</course><type>1</type></trkpt>
      <trkpt lat="40.59279104" lon="-4.82748314"><ele>2758</ele><speed>17.00</speed><time>2016-07-01T13:52:36Z</time><pdop>6.0</pdop><geoidheight>53.00</geoidheight><course>70.6</course><type>1</type></trkpt>
      <trkpt lat="40.59282068" lon="-4.82731135"><ele>2756</ele><speed>16.10</speed><time>2016-07-01T13:52:37Z</time><pdop>6.0</pdop><geoidheight>53.00</geoidheight><course>73.8</course><type>1</type></trkpt>
      <trkpt lat="40.59286582" lon="-4.8271322"><ele>2753</ele><speed>15.59</speed><time>2016-07-01T13:52:38Z</time><pdop>5.0</pdop><geoidheight>53.00</geoidheight><course>73.8</course><type>1</type></trkpt>
      <trkpt lat="40.59289968" lon="-4.82699573"><ele>2752</ele><speed>14.49</speed><time>2016-07-01T13:52:39Z</time><pdop>6.0</pdop><geoidheight>53.00</geoidheight><course>73.1</course><type>1</type></trkpt>
      <trkpt lat="40.5929303" lon="-4.8268418"><ele>2750</ele><speed>14.19</speed><time>2016-07-01T13:52:40Z</time><pdop>7.0</pdop><geoidheight>53.00</geoidheight><course>72.2</course><type>1</type></trkpt>
      <trkpt lat="40.592996" lon="-4.82669421"><ele>2747</ele><speed>14.36</speed><time>2016-07-01T13:52:41Z</time><pdop>6.0</pdop><geoidheight>53.00</geoidheight><course>66.5</course><type>1</type></trkpt>
      <trkpt lat="40.59308664" lon="-4.8265502"><ele>2745</ele><speed>15.13</speed><time>2016-07-01T13:52:42Z</time><pdop>6.0</pdop><geoidheight>53.00</geoidheight><course>61.3</course><type>1</type></trkpt>
      <trkpt lat="40.59312815" lon="-4.82639624"><ele>2740</ele><speed>15.47</speed><time>2016-07-01T13:52:43Z</time><pdop>5.0</pdop><geoidheight>53.00</geoidheight><course>63.8</course><type>1</type></trkpt>
      <trkpt lat="40.59318106" lon="-4.82623259"><ele>2736</ele><speed>16.05</speed><time>2016-07-01T13:52:44Z</time><pdop>5.0</pdop><geoidheight>53.00</geoidheight><course>68.1</course><type>1</type></trkpt>
      <trkpt lat="40.59323572" lon="-4.82604325"><ele>2734</ele><speed>16.53</speed><time>2016-07-01T13:52:45Z</time><pdop>6.0</pdop><geoidheight>53.00</geoidheight><course>69.7</course><type>1</type></trkpt>
      <trkpt lat="40.59328571" lon="-4.82585456"><ele>2731</ele><speed>16.92</speed><time>2016-07-01T13:52:46Z</time><pdop>8.0</pdop><geoidheight>53.00</geoidheight><course>69.3</course><type>1</type></trkpt>
      <trkpt lat="40.59335861" lon="-4.82567248"><ele>2728</ele><speed>17.46</speed><time>2016-07-01T13:52:47Z</time><pdop>8.0</pdop><geoidheight>53.00</geoidheight><course>67.5</course><type>1</type></trkpt>
      <trkpt lat="40.59343319" lon="-4.82549131"><ele>2723</ele><speed>18.07</speed><time>2016-07-01T13:52:48Z</time><pdop>7.0</pdop><geoidheight>53.00</geoidheight><course>65.8</course><type>1</type></trkpt>
      <trkpt lat="40.59350167" lon="-4.82530265"><ele>2719</ele><speed>17.75</speed><time>2016-07-01T13:52:49Z</time><pdop>7.0</pdop><geoidheight>53.00</geoidheight><course>67.5</course><type>1</type></trkpt>
      <trkpt lat="40.59353745" lon="-4.82512471"><ele>2713</ele><speed>16.38</speed><time>2016-07-01T13:52:50Z</time><pdop>6.0</pdop><geoidheight>53.00</geoidheight><course>70.4</course><type>1</type></trkpt>
      <trkpt lat="40.59357893" lon="-4.82494446"><ele>2708</ele><speed>16.15</speed><time>2016-07-01T13:52:51Z</time><pdop>6.0</pdop><geoidheight>53.00</geoidheight><course>70.7</course><type>1</type></trkpt>
      <trkpt lat="40.59363541" lon="-4.82476388"><ele>2706</ele><speed>16.50</speed><time>2016-07-01T13:52:52Z</time><pdop>7.0</pdop><geoidheight>53.00</geoidheight><course>69.9</course><type>1</type></trkpt>
      <trkpt lat="40.59371316" lon="-4.82458708"><ele>2705</ele><speed>16.96</speed><time>2016-07-01T13:52:53Z</time><pdop>8.0</pdop><geoidheight>53.00</geoidheight><course>68.2</course><type>1</type></trkpt>
      <trkpt lat="40.59374505" lon="-4.82440162"><ele>2698</ele><speed>17.19</speed><time>2016-07-01T13:52:54Z</time><pdop>7.0</pdop><geoidheight>53.00</geoidheight><course>71.4</course><type>1</type></trkpt>
      <trkpt lat="40.5937784" lon="-4.82421968"><ele>2692</ele><speed>17.27</speed><time>2016-07-01T13:52:55Z</time><pdop>6.0</pdop><geoidheight>53.00</geoidheight><course>73.9</course><type>1</type></trkpt>
      <trkpt lat="40.59382349" lon="-4.82404251"><ele>2687</ele><speed>16.97</speed><time>2016-07-01T13:52:56Z</time><pdop>5.0</pdop><geoidheight>53.00</geoidheight><course>74.4</course><type>1</type></trkpt>
      <trkpt lat="40.59386545" lon="-4.82385987"><ele>2684</ele><speed>16.65</speed><time>2016-07-01T13:52:57Z</time><pdop>5.0</pdop><geoidheight>53.00</geoidheight><course>73.8</course><type>1</type></trkpt>
      <trkpt lat="40.59390862" lon="-4.82367475"><ele>2683</ele><speed>16.34</speed><time>2016-07-01T13:52:58Z</time><pdop>6.0</pdop><geoidheight>53.00</geoidheight><course>73.2</course><type>1</type></trkpt>
      <trkpt lat="40.59395772" lon="-4.8234985"><ele>2681</ele><speed>15.89</speed><time>2016-07-01T13:52:59Z</time><pdop>6.0</pdop><geoidheight>53.00</geoidheight><course>72.5</course><type>1</type></trkpt>
      <trkpt lat="40.59399391" lon="-4.8233305"><ele>2679</ele><speed>14.75</speed><time>2016-07-01T13:53:00Z</time><pdop>6.0</pdop><geoidheight>53.00</geoidheight><course>74.3</course><type>1</type></trkpt>
      <trkpt lat="40.59401757" lon="-4.82317043"><ele>2676</ele><speed>14.54</speed><time>2016-07-01T13:53:01Z</time><pdop>6.0</pdop><geoidheight>53.00</geoidheight><course>75.1</course><type>1</type></trkpt>
      <trkpt lat="40.59405039" lon="-4.82300816"><ele>2674</ele><speed>14.32</speed><time>2016-07-01T13:53:02Z</time><pdop>7.0</pdop><geoidheight>53.00</geoidheight><course>74.8</course><type>1</type></trkpt>
      <trkpt lat="40.59413411" lon="-4.82268321"><ele>2670</ele><speed>15.08</speed><time>2016-07-01T13:53:04Z</time><pdop>8.0</pdop><geoidheight>53.00</geoidheight><course>72.6</course><type>1</type></trkpt>
      <trkpt lat="40.59425476" lon="-4.82233551"><ele>2666</ele><speed>16.61</speed><time>2016-07-01T13:53:06Z</time><pdop>9.0</pdop><geoidheight>53.00</geoidheight><course>66.1</course><type>1</type></trkpt>
      <trkpt lat="40.59430934" lon="-4.82202613"><ele>2658</ele><speed>14.20</speed><time>2016-07-01T13:53:08Z</time><pdop>7.0</pdop><geoidheight>53.00</geoidheight><course>68.6</course><type>1</type></trkpt>
      <trkpt lat="40.59438923" lon="-4.82175331"><ele>2652</ele><speed>13.55</speed><time>2016-07-01T13:53:10Z</time><pdop>6.0</pdop><geoidheight>53.00</geoidheight><course>67.5</course><type>1</type></trkpt>
      <trkpt lat="40.59442565" lon="-4.82160164"><ele>2650</ele><speed>14.05</speed><time>2016-07-01T13:53:11Z</time><pdop>6.0</pdop><geoidheight>53.00</geoidheight><course>71.4</course><type>1</type></trkpt>
      <trkpt lat="40.59447263" lon="-4.82144743"><ele>2648</ele><speed>14.55</speed><time>2016-07-01T13:53:12Z</time><pdop>7.0</pdop><geoidheight>53.00</geoidheight><course>72.0</course><type>1</type></trkpt>
      <trkpt lat="40.59453694" lon="-4.8212795"><ele>2644</ele><speed>16.16</speed><time>2016-07-01T13:53:13Z</time><pdop>7.0</pdop><geoidheight>53.00</geoidheight><course>70.4</course><type>1</type></trkpt>
      <trkpt lat="40.59459752" lon="-4.82109146"><ele>2642</ele><speed>16.59</speed><time>2016-07-01T13:53:14Z</time><pdop>7.0</pdop><geoidheight>53.00</geoidheight><course>69.6</course><type>1</type></trkpt>
      <trkpt lat="40.59463794" lon="-4.82092087"><ele>2639</ele><speed>16.12</speed><time>2016-07-01T13:53:15Z</time><pdop>8.0</pdop><geoidheight>53.00</geoidheight><course>69.5</course><type>1</type></trkpt>
      <trkpt lat="40.59471679" lon="-4.82076131"><ele>2637</ele><speed>15.92</speed><time>2016-07-01T13:53:16Z</time><pdop>6.0</pdop><geoidheight>53.00</geoidheight><course>64.0</course><type>1</type></trkpt>
      <trkpt lat="40.59478581" lon="-4.82059738"><ele>2636</ele><speed>15.54</speed><time>2016-07-01T13:53:17Z</time><pdop>7.0</pdop><geoidheight>53.00</geoidheight><course>62.9</course><type>1</type></trkpt>
      <trkpt lat="40.59489686" lon="-4.82028324"><ele>2631</ele><speed>14.83</speed><time>2016-07-01T13:53:19Z</time><pdop>8.0</pdop><geoidheight>53.00</geoidheight><course>63.6</course><type>1</type></trkpt>
      <trkpt lat="40.59498015" lon="-4.81997419"><ele>2627</ele><speed>14.78</speed><time>2016-07-01T13:53:21Z</time><pdop>9.0</pdop><geoidheight>53.00</geoidheight><course>68.6</course><type>1</type></trkpt>
      <trkpt lat="40.59506749" lon="-4.81965027"><ele>2622</ele><speed>15.11</speed><time>2016-07-01T13:53:23Z</time><pdop>9.0</pdop><geoidheight>53.00</geoidheight><course>68.6</course><type>1</type></trkpt>
      <trkpt lat="40.59518293" lon="-4.81935011"><ele>2616</ele><speed>13.52</speed><time>2016-07-01T13:53:25Z</time><pdop>7.0</pdop><geoidheight>53.00</geoidheight><course>66.5</course><type>1</type></trkpt>
      <trkpt lat="40.59531467" lon="-4.81908897"><ele>2611</ele><speed>13.03</speed><time>2016-07-01T13:53:27Z</time><pdop>7.0</pdop><geoidheight>53.00</geoidheight><course>61.4</course><type>1</type></trkpt>
      <trkpt lat="40.59541911" lon="-4.81876279"><ele>2604</ele><speed>15.13</speed><time>2016-07-01T13:53:29Z</time><pdop>9.0</pdop><geoidheight>53.00</geoidheight><course>66.9</course><type>1</type></trkpt>
      <trkpt lat="40.59553261" lon="-4.81836239"><ele>2601</ele><speed>17.58</speed><time>2016-07-01T13:53:31Z</time><pdop>8.0</pdop><geoidheight>53.00</geoidheight><course>69.5</course><type>1</type></trkpt>
      <trkpt lat="40.59558171" lon="-4.81819167"><ele>2598</ele><speed>17.39</speed><time>2016-07-01T13:53:32Z</time><pdop>7.0</pdop><geoidheight>53.00</geoidheight><course>69.9</course><type>1</type></trkpt>
      <trkpt lat="40.59560872" lon="-4.81801471"><ele>2594</ele><speed>16.90</speed><time>2016-07-01T13:53:33Z</time><pdop>6.0</pdop><geoidheight>53.00</geoidheight><course>73.2</course><type>1</type></trkpt>
      <trkpt lat="40.59563962" lon="-4.81782035"><ele>2593</ele><speed>16.63</speed><time>2016-07-01T13:53:34Z</time><pdop>6.0</pdop><geoidheight>53.00</geoidheight><course>73.3</course><type>1</type></trkpt>
      <trkpt lat="40.59569699" lon="-4.81764244"><ele>2591</ele><speed>15.87</speed><time>2016-07-01T13:53:35Z</time><pdop>6.0</pdop><geoidheight>53.00</geoidheight><course>71.3</course><type>1</type></trkpt>
      <trkpt lat="40.59574623" lon="-4.81750039"><ele>2587</ele><speed>14.83</speed><time>2016-07-01T13:53:36Z</time><pdop>7.0</pdop><geoidheight>53.00</geoidheight><course>70.1</course><type>1</type></trkpt>
      <trkpt lat="40.59581778" lon="-4.81719645"><ele>2580</ele><speed>14.88</speed><time>2016-07-01T13:53:38Z</time><pdop>7.0</pdop><geoidheight>53.00</geoidheight><course>73.1</course><type>1</type></trkpt>
      <trkpt lat="40.59584571" lon="-4.81700793"><ele>2578</ele><speed>16.30</speed><time>2016-07-01T13:53:39Z</time><pdop>7.0</pdop><geoidheight>53.00</geoidheight><course>75.6</course><type>1</type></trkpt>
      <trkpt lat="40.59589323" lon="-4.81682575"><ele>2575</ele><speed>16.68</speed><time>2016-07-01T13:53:40Z</time><pdop>6.0</pdop><geoidheight>53.00</geoidheight><course>74.5</course><type>1</type></trkpt>
      <trkpt lat="40.59594201" lon="-4.81663423"><ele>2572</ele><speed>17.55</speed><time>2016-07-01T13:53:41Z</time><pdop>7.0</pdop><geoidheight>53.00</geoidheight><course>73.7</course><type>1</type></trkpt>
      <trkpt lat="40.59600072" lon="-4.81646436"><ele>2564</ele><speed>17.59</speed><time>2016-07-01T13:53:42Z</time><pdop>6.0</pdop><geoidheight>53.00</geoidheight><course>71.3</course><type>1</type></trkpt>
      <trkpt lat="40.5960548" lon="-4.81627309"><ele>2561</ele><speed>17.11</speed><time>2016-07-01T13:53:43Z</time><pdop>6.0</pdop><geoidheight>53.00</geoidheight><course>70.8</course><type>1</type></trkpt>
      <trkpt lat="40.5961029" lon="-4.8160961"><ele>2558</ele><speed>16.38</speed><time>2016-07-01T13:53:44Z</time><pdop>6.0</pdop><geoidheight>53.00</geoidheight><course>69.4</course><type>1</type></trkpt>
      <trkpt lat="40.59614444" lon="-4.81592781"><ele>2554</ele><speed>15.98</speed><time>2016-07-01T13:53:45Z</time><pdop>5.0</pdop><geoidheight>53.00</geoidheight><course>67.4</course><type>1</type></trkpt>
      <trkpt lat="40.59620573" lon="-4.81574931"><ele>2551</ele><speed>16.21</speed><time>2016-07-01T13:53:46Z</time><pdop>5.0</pdop><geoidheight>53.00</geoidheight><course>66.2</course><type>1</type></trkpt>
      <trkpt lat="40.59626431" lon="-4.81555948"><ele>2548</ele><speed>16.74</speed><time>2016-07-01T13:53:47Z</time><pdop>5.0</pdop><geoidheight>53.00</geoidheight><course>67.6</course><type>1</type></trkpt>
      <trkpt lat="40.59633275" lon="-4.81537838"><ele>2542</ele><speed>17.51</speed><time>2016-07-01T13:53:48Z</time><pdop>4.0</pdop><geoidheight>53.00</geoidheight><course>66.2</course><type>1</type></trkpt>
      <trkpt lat="40.59640525" lon="-4.81518856"><ele>2537</ele><speed>18.17</speed><time>2016-07-01T13:53:49Z</time><pdop>4.0</pdop><geoidheight>53.00</geoidheight><course>65.1</course><type>1</type></trkpt>
      <trkpt lat="40.59647155" lon="-4.81499646"><ele>2533</ele><speed>18.26</speed><time>2016-07-01T13:53:50Z</time><pdop>4.0</pdop><geoidheight>53.00</geoidheight><course>66.4</course><type>1</type></trkpt>
      <trkpt lat="40.59653453" lon="-4.81480332"><ele>2530</ele><speed>17.88</speed><time>2016-07-01T13:53:51Z</time><pdop>4.0</pdop><geoidheight>53.00</geoidheight><course>67.4</course><type>1</type></trkpt>
      <trkpt lat="40.59659737" lon="-4.81461682"><ele>2526</ele><speed>17.17</speed><time>2016-07-01T13:53:52Z</time><pdop>4.0</pdop><geoidheight>53.00</geoidheight><course>66.4</course><type>1</type></trkpt>
      <trkpt lat="40.59666736" lon="-4.81444764"><ele>2522</ele><speed>16.90</speed><time>2016-07-01T13:53:53Z</time><pdop>4.0</pdop><geoidheight>53.00</geoidheight><course>65.3</course><type>1</type></trkpt>
      <trkpt lat="40.59673348" lon="-4.81426887"><ele>2520</ele><speed>16.94</speed><time>2016-07-01T13:53:54Z</time><pdop>4.0</pdop><geoidheight>53.00</geoidheight><course>65.2</course><type>1</type></trkpt>
      <trkpt lat="40.59679957" lon="-4.81408487"><ele>2518</ele><speed>17.28</speed><time>2016-07-01T13:53:55Z</time><pdop>4.0</pdop><geoidheight>53.00</geoidheight><course>66.7</course><type>1</type></trkpt>
      <trkpt lat="40.59686243" lon="-4.81389937"><ele>2515</ele><speed>17.11</speed><time>2016-07-01T13:53:56Z</time><pdop>4.0</pdop><geoidheight>53.00</geoidheight><course>67.4</course><type>1</type></trkpt>
      <trkpt lat="40.59692536" lon="-4.81371737"><ele>2511</ele><speed>17.04</speed><time>2016-07-01T13:53:57Z</time><pdop>4.0</pdop><geoidheight>53.00</geoidheight><course>66.8</course><type>1</type></trkpt>
      <trkpt lat="40.59698713" lon="-4.8135319"><ele>2511</ele><speed>17.11</speed><time>2016-07-01T13:53:58Z</time><pdop>4.0</pdop><geoidheight>53.00</geoidheight><course>65.3</course><type>1</type></trkpt>
      <trkpt lat="40.59705847" lon="-4.81336476"><ele>2509</ele><speed>16.85</speed><time>2016-07-01T13:53:59Z</time><pdop>4.0</pdop><geoidheight>53.00</geoidheight><course>62.1</course><type>1</type></trkpt>
      <trkpt lat="40.59713724" lon="-4.81320267"><ele>2508</ele><speed>15.96</speed><time>2016-07-01T13:54:00Z</time><pdop>3.0</pdop><geoidheight>53.00</geoidheight><course>59.1</course><type>1</type></trkpt>
      <trkpt lat="40.59721911" lon="-4.81304635"><ele>2507</ele><speed>15.40</speed><time>2016-07-01T13:54:01Z</time><pdop>4.0</pdop><geoidheight>53.00</geoidheight><course>57.0</course><type>1</type></trkpt>
      <trkpt lat="40.59727743" lon="-4.81294482"><ele>2506</ele><speed>12.58</speed><time>2016-07-01T13:54:02Z</time><pdop>5.0</pdop><geoidheight>53.00</geoidheight><course>55.0</course><type>1</type></trkpt>
      <trkpt lat="40.59731377" lon="-4.81283156"><ele>2509</ele><speed>10.70</speed><time>2016-07-01T13:54:03Z</time><pdop>4.0</pdop><geoidheight>53.00</geoidheight><course>60.6</course><type>1</type></trkpt>
      <trkpt lat="40.59734673" lon="-4.81272241"><ele>2508</ele><speed>9.99</speed><time>2016-07-01T13:54:04Z</time><pdop>4.0</pdop><geoidheight>53.00</geoidheight><course>62.7</course><type>1</type></trkpt>
      <trkpt lat="40.59738061" lon="-4.81262117"><ele>2509</ele><speed>9.57</speed><time>2016-07-01T13:54:05Z</time><pdop>3.0</pdop><geoidheight>53.00</geoidheight><course>66.3</course><type>1</type></trkpt>
      <trkpt lat="40.59740482" lon="-4.81252538"><ele>2508</ele><speed>9.21</speed><time>2016-07-01T13:54:06Z</time><pdop>3.0</pdop><geoidheight>53.00</geoidheight><course>70.6</course><type>1</type></trkpt>
      <trkpt lat="40.59742678" lon="-4.8124209"><ele>2508</ele><speed>9.01</speed><time>2016-07-01T13:54:07Z</time><pdop>3.0</pdop><geoidheight>53.00</geoidheight><course>72.9</course><type>1</type></trkpt>
      <trkpt lat="40.59745003" lon="-4.81232489"><ele>2507</ele><speed>8.86</speed><time>2016-07-01T13:54:08Z</time><pdop>4.0</pdop><geoidheight>53.00</geoidheight><course>72.9</course><type>1</type></trkpt>
      <trkpt lat="40.59749605" lon="-4.81222784"><ele>2508</ele><speed>9.25</speed><time>2016-07-01T13:54:09Z</time><pdop>3.0</pdop><geoidheight>53.00</geoidheight><course>64.8</course><type>1</type></trkpt>
      <trkpt lat="40.59753372" lon="-4.81213567"><ele>2509</ele><speed>9.30</speed><time>2016-07-01T13:54:10Z</time><pdop>3.0</pdop><geoidheight>53.00</geoidheight><course>63.0</course><type>1</type></trkpt>
      <trkpt lat="40.59757196" lon="-4.81205436"><ele>2509</ele><speed>9.67</speed><time>2016-07-01T13:54:11Z</time><pdop>3.0</pdop><geoidheight>53.00</geoidheight><course>59.8</course><type>1</type></trkpt>
      <trkpt lat="40.59761191" lon="-4.81196779"><ele>2509</ele><speed>9.54</speed><time>2016-07-01T13:54:12Z</time><pdop>3.0</pdop><geoidheight>53.00</geoidheight><course>60.2</course><type>1</type></trkpt>
      <trkpt lat="40.59765499" lon="-4.8118642"><ele>2510</ele><speed>9.43</speed><time>2016-07-01T13:54:13Z</time><pdop>3.0</pdop><geoidheight>53.00</geoidheight><course>62.2</course><type>1</type></trkpt>
      <trkpt lat="40.59769663" lon="-4.81176433"><ele>2510</ele><speed>9.54</speed><time>2016-07-01T13:54:14Z</time><pdop>3.0</pdop><geoidheight>53.00</geoidheight><course>63.5</course><type>1</type></trkpt>
      <trkpt lat="40.59773721" lon="-4.81167255"><ele>2509</ele><speed>9.67</speed><time>2016-07-01T13:54:15Z</time><pdop>3.0</pdop><geoidheight>53.00</geoidheight><course>64.3</course><type>1</type></trkpt>
      <trkpt lat="40.59777491" lon="-4.81156503"><ele>2510</ele><speed>9.95</speed><time>2016-07-01T13:54:16Z</time><pdop>4.0</pdop><geoidheight>53.00</geoidheight><course>64.7</course><type>1</type></trkpt>
      <trkpt lat="40.59780594" lon="-4.81144514"><ele>2509</ele><speed>10.49</speed><time>2016-07-01T13:54:17Z</time><pdop>3.0</pdop><geoidheight>53.00</geoidheight><course>68.5</course><type>1</type></trkpt>
      <trkpt lat="40.59784825" lon="-4.81132944"><ele>2508</ele><speed>10.56</speed><time>2016-07-01T13:54:18Z</time><pdop>3.0</pdop><geoidheight>53.00</geoidheight><course>67.8</course><type>1</type></trkpt>
      <trkpt lat="40.59788599" lon="-4.81122008"><ele>2509</ele><speed>10.40</speed><time>2016-07-01T13:54:19Z</time><pdop>4.0</pdop><geoidheight>53.00</geoidheight><course>69.5</course><type>1</type></trkpt>
      <trkpt lat="40.59790938" lon="-4.8111094"><ele>2509</ele><speed>9.80</speed><time>2016-07-01T13:54:20Z</time><pdop>4.0</pdop><geoidheight>53.00</geoidheight><course>71.9</course><type>1</type></trkpt>
      <trkpt lat="40.59793687" lon="-4.81100169"><ele>2510</ele><speed>9.64</speed><time>2016-07-01T13:54:21Z</time><pdop>4.0</pdop><geoidheight>53.00</geoidheight><course>73.0</course><type>1</type></trkpt>
      <trkpt lat="40.5979468" lon="-4.81090597"><ele>2508</ele><speed>9.31</speed><time>2016-07-01T13:54:22Z</time><pdop>4.0</pdop><geoidheight>53.00</geoidheight><course>76.3</course><type>1</type></trkpt>
      <trkpt lat="40.59796843" lon="-4.81080157"><ele>2507</ele><speed>9.13</speed><time>2016-07-01T13:54:23Z</time><pdop>3.0</pdop><geoidheight>53.00</geoidheight><course>76.7</course><type>1</type></trkpt>
      <trkpt lat="40.59798525" lon="-4.81068533"><ele>2506</ele><speed>9.81</speed><time>2016-07-01T13:54:24Z</time><pdop>4.0</pdop><geoidheight>53.00</geoidheight><course>75.7</course><type>1</type></trkpt>
      <trkpt lat="40.59800792" lon="-4.81055378"><ele>2505</ele><speed>10.70</speed><time>2016-07-01T13:54:25Z</time><pdop>4.0</pdop><geoidheight>53.00</geoidheight><course>77.5</course><type>1</type></trkpt>
      <trkpt lat="40.59805431" lon="-4.81041903"><ele>2504</ele><speed>12.00</speed><time>2016-07-01T13:54:26Z</time><pdop>4.0</pdop><geoidheight>53.00</geoidheight><course>68.6</course><type>1</type></trkpt>
      <trkpt lat="40.59810459" lon="-4.81025349"><ele>2503</ele><speed>13.86</speed><time>2016-07-01T13:54:27Z</time><pdop>3.0</pdop><geoidheight>53.00</geoidheight><course>66.7</course><type>1</type></trkpt>
      <trkpt lat="40.59815034" lon="-4.81008403"><ele>2502</ele><speed>14.68</speed><time>2016-07-01T13:54:28Z</time><pdop>4.0</pdop><geoidheight>53.00</geoidheight><course>67.6</course><type>1</type></trkpt>
      <trkpt lat="40.59822037" lon="-4.8099292"><ele>2501</ele><speed>15.24</speed><time>2016-07-01T13:54:29Z</time><pdop>5.0</pdop><geoidheight>53.00</geoidheight><course>64.6</course><type>1</type></trkpt>
      <trkpt lat="40.59828338" lon="-4.80974954"><ele>2502</ele><speed>16.05</speed><time>2016-07-01T13:54:30Z</time><pdop>6.0</pdop><geoidheight>53.00</geoidheight><course>64.1</course><type>1</type></trkpt>
      <trkpt lat="40.59836977" lon="-4.8095785"><ele>2501</ele><speed>16.25</speed><time>2016-07-01T13:54:31Z</time><pdop>7.0</pdop><geoidheight>53.00</geoidheight><course>61.3</course><type>1</type></trkpt>
      <trkpt lat="40.59844187" lon="-4.80942991"><ele>2501</ele><speed>15.75</speed><time>2016-07-01T13:54:32Z</time><pdop>6.0</pdop><geoidheight>53.00</geoidheight><course>60.3</course><type>1</type></trkpt>
      <trkpt lat="40.59852375" lon="-4.80927174"><ele>2500</ele><speed>15.50</speed><time>2016-07-01T13:54:33Z</time><pdop>6.0</pdop><geoidheight>53.00</geoidheight><course>59.1</course><type>1</type></trkpt>
      <trkpt lat="40.59858726" lon="-4.80911908"><ele>2499</ele><speed>14.97</speed><time>2016-07-01T13:54:34Z</time><pdop>6.0</pdop><geoidheight>53.00</geoidheight><course>60.4</course><type>1</type></trkpt>
      <trkpt lat="40.59864485" lon="-4.80897143"><ele>2499</ele><speed>13.94</speed><time>2016-07-01T13:54:35Z</time><pdop>5.0</pdop><geoidheight>53.00</geoidheight><course>63.0</course><type>1</type></trkpt>
      <trkpt lat="40.59870903" lon="-4.80881702"><ele>2499</ele><speed>13.26</speed><time>2016-07-01T13:54:36Z</time><pdop>5.0</pdop><geoidheight>53.00</geoidheight><course>63.1</course><type>1</type></trkpt>
      <trkpt lat="40.59876604" lon="-4.80869435"><ele>2498</ele><speed>12.98</speed><time>2016-07-01T13:54:37Z</time><pdop>4.0</pdop><geoidheight>53.00</geoidheight><course>62.5</course><type>1</type></trkpt>
      <trkpt lat="40.59881327" lon="-4.80856045"><ele>2498</ele><speed>12.54</speed><time>2016-07-01T13:54:38Z</time><pdop>4.0</pdop><geoidheight>53.00</geoidheight><course>59.4</course><type>1</type></trkpt>
      <trkpt lat="40.59887081" lon="-4.80843571"><ele>2498</ele><speed>11.97</speed><time>2016-07-01T13:54:39Z</time><pdop>4.0</pdop><geoidheight>53.00</geoidheight><course>56.1</course><type>1</type></trkpt>
      <trkpt lat="40.5989344" lon="-4.80834563"><ele>2497</ele><speed>11.30</speed><time>2016-07-01T13:54:40Z</time><pdop>4.0</pdop><geoidheight>53.00</geoidheight><course>52.9</course><type>1</type></trkpt>
      <trkpt lat="40.59899881" lon="-4.80823466"><ele>2496</ele><speed>11.61</speed><time>2016-07-01T13:54:41Z</time><pdop>4.0</pdop><geoidheight>53.00</geoidheight><course>52.7</course><type>1</type></trkpt>
      <trkpt lat="40.59907165" lon="-4.8081188"><ele>2496</ele><speed>12.26</speed><time>2016-07-01T13:54:42Z</time><pdop>4.0</pdop><geoidheight>53.00</geoidheight><course>52.6</course><type>1</type></trkpt>
      <trkpt lat="40.59915111" lon="-4.8080089"><ele>2494</ele><speed>12.81</speed><time>2016-07-01T13:54:43Z</time><pdop>4.0</pdop><geoidheight>53.00</geoidheight><course>52.8</course><type>1</type></trkpt>
      <trkpt lat="40.59922158" lon="-4.80789303"><ele>2493</ele><speed>12.92</speed><time>2016-07-01T13:54:44Z</time><pdop>4.0</pdop><geoidheight>53.00</geoidheight><course>55.0</course><type>1</type></trkpt>
      <trkpt lat="40.59927835" lon="-4.80775707"><ele>2493</ele><speed>13.10</speed><time>2016-07-01T13:54:45Z</time><pdop>5.0</pdop><geoidheight>53.00</geoidheight><course>56.5</course><type>1</type></trkpt>
      <trkpt lat="40.59934425" lon="-4.80761295"><ele>2493</ele><speed>13.60</speed><time>2016-07-01T13:54:46Z</time><pdop>4.0</pdop><geoidheight>53.00</geoidheight><course>58.0</course><type>1</type></trkpt>
      <trkpt lat="40.5994179" lon="-4.80748583"><ele>2493</ele><speed>13.83</speed><time>2016-07-01T13:54:47Z</time><pdop>5.0</pdop><geoidheight>53.00</geoidheight><course>56.8</course><type>1</type></trkpt>
      <trkpt lat="40.59946227" lon="-4.80732411"><ele>2493</ele><speed>14.26</speed><time>2016-07-01T13:54:48Z</time><pdop>6.0</pdop><geoidheight>53.00</geoidheight><course>60.9</course><type>1</type></trkpt>
      <trkpt lat="40.59954562" lon="-4.80722213"><ele>2492</ele><speed>13.30</speed><time>2016-07-01T13:54:49Z</time><pdop>6.0</pdop><geoidheight>53.00</geoidheight><course>51.7</course><type>1</type></trkpt>
      <trkpt lat="40.59962495" lon="-4.80710451"><ele>2492</ele><speed>12.90</speed><time>2016-07-01T13:54:50Z</time><pdop>6.0</pdop><geoidheight>53.00</geoidheight><course>49.0</course><type>1</type></trkpt>
      <trkpt lat="40.59972355" lon="-4.80698882"><ele>2493</ele><speed>13.13</speed><time>2016-07-01T13:54:51Z</time><pdop>6.0</pdop><geoidheight>53.00</geoidheight><course>46.7</course><type>1</type></trkpt>
      <trkpt lat="40.59981881" lon="-4.80687407"><ele>2492</ele><speed>13.51</speed><time>2016-07-01T13:54:52Z</time><pdop>5.0</pdop><geoidheight>53.00</geoidheight><course>49.9</course><type>1</type></trkpt>
      <trkpt lat="40.59989377" lon="-4.80675029"><ele>2494</ele><speed>12.84</speed><time>2016-07-01T13:54:53Z</time><pdop>4.0</pdop><geoidheight>53.00</geoidheight><course>55.6</course><type>1</type></trkpt>
      <trkpt lat="40.59994798" lon="-4.80663258"><ele>2495</ele><speed>11.85</speed><time>2016-07-01T13:54:54Z</time><pdop>4.0</pdop><geoidheight>53.00</geoidheight><course>59.7</course><type>1</type></trkpt>
      <trkpt lat="40.59998574" lon="-4.8065108"><ele>2496</ele><speed>11.12</speed><time>2016-07-01T13:54:55Z</time><pdop>3.0</pdop><geoidheight>53.00</geoidheight><course>64.3</course><type>1</type></trkpt>
      <trkpt lat="40.60002832" lon="-4.80639883"><ele>2496</ele><speed>10.65</speed><time>2016-07-01T13:54:56Z</time><pdop>3.0</pdop><geoidheight>53.00</geoidheight><course>67.5</course><type>1</type></trkpt>
      <trkpt lat="40.60006711" lon="-4.80628955"><ele>2496</ele><speed>10.57</speed><time>2016-07-01T13:54:57Z</time><pdop>3.0</pdop><geoidheight>53.00</geoidheight><course>66.2</course><type>1</type></trkpt>
      <trkpt lat="40.60010683" lon="-4.80616233"><ele>2497</ele><speed>10.92</speed><time>2016-07-01T13:54:58Z</time><pdop>3.0</pdop><geoidheight>53.00</geoidheight><course>66.9</course><type>1</type></trkpt>
      <trkpt lat="40.60014014" lon="-4.80604558"><ele>2497</ele><speed>10.57</speed><time>2016-07-01T13:54:59Z</time><pdop>3.0</pdop><geoidheight>53.00</geoidheight><course>67.4</course><type>1</type></trkpt>
      <trkpt lat="40.60016718" lon="-4.80592555"><ele>2496</ele><speed>10.42</speed><time>2016-07-01T13:55:00Z</time><pdop>3.0</pdop><geoidheight>53.00</geoidheight><course>67.8</course><type>1</type></trkpt>
      <trkpt lat="40.60020768" lon="-4.80580995"><ele>2496</ele><speed>10.78</speed><time>2016-07-01T13:55:01Z</time><pdop>3.0</pdop><geoidheight>53.00</geoidheight><course>67.5</course><type>1</type></trkpt>
      <trkpt lat="40.60024057" lon="-4.80568831"><ele>2495</ele><speed>10.98</speed><time>2016-07-01T13:55:02Z</time><pdop>3.0</pdop><geoidheight>53.00</geoidheight><course>71.4</course><type>1</type></trkpt>
      <trkpt lat="40.60026058" lon="-4.80556126"><ele>2494</ele><speed>11.11</speed><time>2016-07-01T13:55:03Z</time><pdop>3.0</pdop><geoidheight>53.00</geoidheight><course>78.8</course><type>1</type></trkpt>
      <trkpt lat="40.60026489" lon="-4.80543712"><ele>2494</ele><speed>11.00</speed><time>2016-07-01T13:55:04Z</time><pdop>3.0</pdop><geoidheight>53.00</geoidheight><course>86.7</course><type>1</type></trkpt>
      <trkpt lat="40.60024814" lon="-4.80529368"><ele>2492</ele><speed>11.90</speed><time>2016-07-01T13:55:05Z</time><pdop>4.0</pdop><geoidheight>53.00</geoidheight><course>92.0</course><type>1</type></trkpt>
      <trkpt lat="40.60023076" lon="-4.80513782"><ele>2492</ele><speed>12.85</speed><time>2016-07-01T13:55:06Z</time><pdop>4.0</pdop><geoidheight>53.00</geoidheight><course>96.3</course><type>1</type></trkpt>
      <trkpt lat="40.60021002" lon="-4.80497727"><ele>2491</ele><speed>13.73</speed><time>2016-07-01T13:55:07Z</time><pdop>3.0</pdop><geoidheight>53.00</geoidheight><course>96.5</course><type>1</type></trkpt>
      <trkpt lat="40.60019996" lon="-4.80481447"><ele>2492</ele><speed>13.88</speed><time>2016-07-01T13:55:08Z</time><pdop>3.0</pdop><geoidheight>53.00</geoidheight><course>95.6</course><type>1</type></trkpt>
      <trkpt lat="40.60018112" lon="-4.80465742"><ele>2493</ele><speed>13.35</speed><time>2016-07-01T13:55:09Z</time><pdop>3.0</pdop><geoidheight>53.00</geoidheight><course>97.6</course><type>1</type></trkpt>
      <trkpt lat="40.60015978" lon="-4.8045106"><ele>2494</ele><speed>12.40</speed><time>2016-07-01T13:55:10Z</time><pdop>3.0</pdop><geoidheight>53.00</geoidheight><course>99.8</course><type>1</type></trkpt>
      <trkpt lat="40.60012811" lon="-4.80438295"><ele>2492</ele><speed>11.82</speed><time>2016-07-01T13:55:11Z</time><pdop>3.0</pdop><geoidheight>53.00</geoidheight><course>101.6</course><type>1</type></trkpt>
      <trkpt lat="40.60010644" lon="-4.80423511"><ele>2492</ele><speed>11.96</speed><time>2016-07-01T13:55:12Z</time><pdop>3.0</pdop><geoidheight>53.00</geoidheight><course>102.1</course><type>1</type></trkpt>
      <trkpt lat="40.60007067" lon="-4.80408608"><ele>2492</ele><speed>12.43</speed><time>2016-07-01T13:55:13Z</time><pdop>4.0</pdop><geoidheight>53.00</geoidheight><course>103.9</course><type>1</type></trkpt>
      <trkpt lat="40.60009387" lon="-4.80393009"><ele>2491</ele><speed>12.62</speed><time>2016-07-01T13:55:14Z</time><pdop>3.0</pdop><geoidheight>53.00</geoidheight><course>91.9</course><type>1</type></trkpt>
      <trkpt lat="40.60010929" lon="-4.80377595"><ele>2491</ele><speed>12.77</speed><time>2016-07-01T13:55:15Z</time><pdop>3.0</pdop><geoidheight>53.00</geoidheight><course>84.4</course><type>1</type></trkpt>
      <trkpt lat="40.60012209" lon="-4.80362656"><ele>2492</ele><speed>12.83</speed><time>2016-07-01T13:55:16Z</time><pdop>4.0</pdop><geoidheight>53.00</geoidheight><course>82.9</course><type>1</type></trkpt>
      <trkpt lat="40.60014167" lon="-4.80347406"><ele>2493</ele><speed>12.49</speed><time>2016-07-01T13:55:17Z</time><pdop>5.0</pdop><geoidheight>53.00</geoidheight><course>80.8</course><type>1</type></trkpt>
      <trkpt lat="40.60017584" lon="-4.80333945"><ele>2493</ele><speed>11.94</speed><time>2016-07-01T13:55:18Z</time><pdop>5.0</pdop><geoidheight>53.00</geoidheight><course>74.6</course><type>1</type></trkpt>
      <trkpt lat="40.60022469" lon="-4.80321505"><ele>2494</ele><speed>11.91</speed><time>2016-07-01T13:55:19Z</time><pdop>5.0</pdop><geoidheight>53.00</geoidheight><course>67.4</course><type>1</type></trkpt>
      <trkpt lat="40.60026637" lon="-4.80310112"><ele>2494</ele><speed>11.46</speed><time>2016-07-01T13:55:20Z</time><pdop>4.0</pdop><geoidheight>53.00</geoidheight><course>68.5</course><type>1</type></trkpt>
      <trkpt lat="40.60031087" lon="-4.80298464"><ele>2493</ele><speed>11.05</speed><time>2016-07-01T13:55:21Z</time><pdop>4.0</pdop><geoidheight>53.00</geoidheight><course>67.6</course><type>1</type></trkpt>
      <trkpt lat="40.6003464" lon="-4.80286968"><ele>2493</ele><speed>10.61</speed><time>2016-07-01T13:55:22Z</time><pdop>5.0</pdop><geoidheight>53.00</geoidheight><course>66.6</course><type>1</type></trkpt>
      <trkpt lat="40.600386" lon="-4.80276031"><ele>2492</ele><speed>10.36</speed><time>2016-07-01T13:55:23Z</time><pdop>5.0</pdop><geoidheight>53.00</geoidheight><course>66.2</course><type>1</type></trkpt>
      <trkpt lat="40.60047073" lon="-4.80253437"><ele>2491</ele><speed>11.16</speed><time>2016-07-01T13:55:25Z</time><pdop>5.0</pdop><geoidheight>53.00</geoidheight><course>65.8</course><type>1</type></trkpt>
      <trkpt lat="40.60051014" lon="-4.80239911"><ele>2492</ele><speed>11.30</speed><time>2016-07-01T13:55:26Z</time><pdop>4.0</pdop><geoidheight>53.00</geoidheight><course>67.6</course><type>1</type></trkpt>
      <trkpt lat="40.60054402" lon="-4.80227454"><ele>2491</ele><speed>11.67</speed><time>2016-07-01T13:55:27Z</time><pdop>4.0</pdop><geoidheight>53.00</geoidheight><course>71.2</course><type>1</type></trkpt>
      <trkpt lat="40.60057505" lon="-4.80214192"><ele>2491</ele><speed>12.07</speed><time>2016-07-01T13:55:28Z</time><pdop>4.0</pdop><geoidheight>53.00</geoidheight><course>74.2</course><type>1</type></trkpt>
      <trkpt lat="40.60059754" lon="-4.80199462"><ele>2491</ele><speed>12.56</speed><time>2016-07-01T13:55:29Z</time><pdop>4.0</pdop><geoidheight>53.00</geoidheight><course>76.3</course><type>1</type></trkpt>
      <trkpt lat="40.60062059" lon="-4.80183421"><ele>2492</ele><speed>13.09</speed><time>2016-07-01T13:55:30Z</time><pdop>4.0</pdop><geoidheight>53.00</geoidheight><course>75.9</course><type>1</type></trkpt>
      <trkpt lat="40.60063873" lon="-4.80166528"><ele>2493</ele><speed>13.84</speed><time>2016-07-01T13:55:31Z</time><pdop>5.0</pdop><geoidheight>53.00</geoidheight><course>77.4</course><type>1</type></trkpt>
      <trkpt lat="40.60066554" lon="-4.80150007"><ele>2493</ele><speed>14.14</speed><time>2016-07-01T13:55:32Z</time><pdop>6.0</pdop><geoidheight>53.00</geoidheight><course>79.0</course><type>1</type></trkpt>
      <trkpt lat="40.60061922" lon="-4.80134178"><ele>2492</ele><speed>14.01</speed><time>2016-07-01T13:55:33Z</time><pdop>4.0</pdop><geoidheight>53.00</geoidheight><course>93.5</course><type>1</type></trkpt>
      <trkpt lat="40.6006048" lon="-4.80118001"><ele>2493</ele><speed>14.02</speed><time>2016-07-01T13:55:34Z</time><pdop>4.0</pdop><geoidheight>53.00</geoidheight><course>95.4</course><type>1</type></trkpt>
      <trkpt lat="40.60060511" lon="-4.80100881"><ele>2493</ele><speed>14.47</speed><time>2016-07-01T13:55:35Z</time><pdop>4.0</pdop><geoidheight>53.00</geoidheight><course>95.6</course><type>1</type></trkpt>
      <trkpt lat="40.60058309" lon="-4.80083384"><ele>2493</ele><speed>14.87</speed><time>2016-07-01T13:55:36Z</time><pdop>4.0</pdop><geoidheight>53.00</geoidheight><course>94.5</course><type>1</type></trkpt>
      <trkpt lat="40.60056581" lon="-4.80065808"><ele>2494</ele><speed>15.15</speed><time>2016-07-01T13:55:37Z</time><pdop>4.0</pdop><geoidheight>53.00</geoidheight><course>96.3</course><type>1</type></trkpt>
      <trkpt lat="40.60054149" lon="-4.80048592"><ele>2495</ele><speed>14.79</speed><time>2016-07-01T13:55:38Z</time><pdop>4.0</pdop><geoidheight>53.00</geoidheight><course>98.4</course><type>1</type></trkpt>
      <trkpt lat="40.60053241" lon="-4.80031434"><ele>2496</ele><speed>14.33</speed><time>2016-07-01T13:55:39Z</time><pdop>4.0</pdop><geoidheight>53.00</geoidheight><course>98.7</course><type>1</type></trkpt>
      <trkpt lat="40.60051642" lon="-4.8001693"><ele>2496</ele><speed>13.35</speed><time>2016-07-01T13:55:40Z</time><pdop>4.0</pdop><geoidheight>53.00</geoidheight><course>97.9</course><type>1</type></trkpt>
      <trkpt lat="40.60049859" lon="-4.80001541"><ele>2497</ele><speed>13.51</speed><time>2016-07-01T13:55:41Z</time><pdop>5.0</pdop><geoidheight>53.00</geoidheight><course>97.2</course><type>1</type></trkpt>
      <trkpt lat="40.60050248" lon="-4.79985894"><ele>2499</ele><speed>13.43</speed><time>2016-07-01T13:55:42Z</time><pdop>6.0</pdop><geoidheight>53.00</geoidheight><course>92.3</course><type>1</type></trkpt>
      <trkpt lat="40.60052518" lon="-4.7997101"><ele>2500</ele><speed>12.82</speed><time>2016-07-01T13:55:43Z</time><pdop>5.0</pdop><geoidheight>53.00</geoidheight><course>86.0</course><type>1</type></trkpt>
      <trkpt lat="40.60059463" lon="-4.79960731"><ele>2503</ele><speed>11.47</speed><time>2016-07-01T13:55:44Z</time><pdop>4.0</pdop><geoidheight>53.00</geoidheight><course>65.4</course><type>1</type></trkpt>
      <trkpt lat="40.60065873" lon="-4.79950071"><ele>2505</ele><speed>10.34</speed><time>2016-07-01T13:55:45Z</time><pdop>5.0</pdop><geoidheight>53.00</geoidheight><course>52.8</course><type>1</type></trkpt>
      <trkpt lat="40.60079483" lon="-4.79945533"><ele>2511</ele><speed>7.17</speed><time>2016-07-01T13:55:47Z</time><pdop>5.0</pdop><geoidheight>53.00</geoidheight><course>7.4</course><type>1</type></trkpt>
      <trkpt lat="40.60091722" lon="-4.79955366"><ele>2518</ele><speed>6.72</speed><time>2016-07-01T13:55:49Z</time><pdop>6.0</pdop><geoidheight>53.00</geoidheight><course>326.2</course><type>1</type></trkpt>
      <trkpt lat="40.60092669" lon="-4.79974318"><ele>2519</ele><speed>6.52</speed><time>2016-07-01T13:55:51Z</time><pdop>9.0</pdop><geoidheight>53.00</geoidheight><course>292.9</course><type>1</type></trkpt>
      <trkpt lat="40.60066202" lon="-4.79986133"><ele>2524</ele><speed>6.80</speed><time>2016-07-01T13:55:54Z</time><pdop>8.0</pdop><geoidheight>53.00</geoidheight><course>196.3</course><type>1</type></trkpt>
      <trkpt lat="40.60046333" lon="-4.79981471"><ele>2527</ele><speed>8.41</speed><time>2016-07-01T13:55:56Z</time><pdop>9.0</pdop><geoidheight>53.00</geoidheight><course>171.4</course><type>1</type></trkpt>
      <trkpt lat="40.60027852" lon="-4.79955686"><ele>2527</ele><speed>12.12</speed><time>2016-07-01T13:55:58Z</time><pdop>8.0</pdop><geoidheight>53.00</geoidheight><course>138.2</course><type>1</type></trkpt>
      <trkpt lat="40.60018695" lon="-4.79936487"><ele>2531</ele><speed>14.55</speed><time>2016-07-01T13:55:59Z</time><pdop>7.0</pdop><geoidheight>53.00</geoidheight><course>125.6</course><type>1</type></trkpt>
      <trkpt lat="40.60012574" lon="-4.79921396"><ele>2534</ele><speed>13.60</speed><time>2016-07-01T13:56:00Z</time><pdop>7.0</pdop><geoidheight>53.00</geoidheight><course>120.2</course><type>1</type></trkpt>
      <trkpt lat="40.60004158" lon="-4.79893281"><ele>2540</ele><speed>13.00</speed><time>2016-07-01T13:56:02Z</time><pdop>6.0</pdop><geoidheight>53.00</geoidheight><course>108.2</course><type>1</type></trkpt>
      <trkpt lat="40.60001686" lon="-4.79876106"><ele>2544</ele><speed>13.12</speed><time>2016-07-01T13:56:03Z</time><pdop>6.0</pdop><geoidheight>53.00</geoidheight><course>99.9</course><type>1</type></trkpt>
      <trkpt lat="40.60000712" lon="-4.79859748"><ele>2546</ele><speed>12.54</speed><time>2016-07-01T13:56:04Z</time><pdop>6.0</pdop><geoidheight>53.00</geoidheight><course>95.8</course><type>1</type></trkpt>
      <trkpt lat="40.59998433" lon="-4.79829162"><ele>2556</ele><speed>11.51</speed><time>2016-07-01T13:56:06Z</time><pdop>12.0</pdop><geoidheight>53.00</geoidheight><course>95.3</course><type>1</type></trkpt>
      <trkpt lat="40.60014338" lon="-4.79808071"><ele>2566</ele><speed>2.48</speed><time>2016-07-01T13:56:10Z</time><pdop>13.0</pdop><geoidheight>53.00</geoidheight><course>48.8</course><type>1</type></trkpt>
      <trkpt lat="40.60037119" lon="-4.79839775"><ele>2575</ele><speed>8.54</speed><time>2016-07-01T13:56:13Z</time><pdop>12.0</pdop><geoidheight>53.00</geoidheight><course>302.9</course><type>1</type></trkpt>
      <trkpt lat="40.60018786" lon="-4.79874148"><ele>2588</ele><speed>7.76</speed><time>2016-07-01T13:56:17Z</time><pdop>13.0</pdop><geoidheight>53.00</geoidheight><course>230.9</course><type>1</type></trkpt>
      <trkpt lat="40.59995296" lon="-4.79884285"><ele>2590</ele><speed>10.76</speed><time>2016-07-01T13:56:19Z</time><pdop>13.0</pdop><geoidheight>53.00</geoidheight><course>204.4</course><type>1</type></trkpt>
      <trkpt lat="40.59972754" lon="-4.79878289"><ele>2597</ele><speed>11.87</speed><time>2016-07-01T13:56:21Z</time><pdop>12.0</pdop><geoidheight>53.00</geoidheight><course>172.2</course><type>1</type></trkpt>
      <trkpt lat="40.59952041" lon="-4.79858789"><ele>2831</ele><speed>11.52</speed><time>2016-07-01T13:56:23Z</time><pdop>12.0</pdop><geoidheight>53.00</geoidheight><course>146.4</course><type>1</type></trkpt>
      <trkpt lat="40.59938729" lon="-4.79832367"><ele>2779</ele><speed>11.59</speed><time>2016-07-01T13:56:25Z</time><pdop>13.0</pdop><geoidheight>53.00</geoidheight><course>124.2</course><type>1</type></trkpt>
      <trkpt lat="40.59926975" lon="-4.7979186"><ele>2732</ele><speed>14.77</speed><time>2016-07-01T13:56:27Z</time><pdop>12.0</pdop><geoidheight>53.00</geoidheight><course>112.8</course><type>1</type></trkpt>
      <trkpt lat="40.5992104" lon="-4.79758101"><ele>2719</ele><speed>13.85</speed><time>2016-07-01T13:56:29Z</time><pdop>12.0</pdop><geoidheight>53.00</geoidheight><course>99.7</course><type>1</type></trkpt>
      <trkpt lat="40.59918652" lon="-4.79719549"><ele>2717</ele><speed>14.04</speed><time>2016-07-01T13:56:31Z</time><pdop>13.0</pdop><geoidheight>53.00</geoidheight><course>95.4</course><type>1</type></trkpt>
      <trkpt lat="40.59923608" lon="-4.79687947"><ele>2708</ele><speed>11.37</speed><time>2016-07-01T13:56:33Z</time><pdop>13.0</pdop><geoidheight>53.00</geoidheight><course>79.8</course><type>1</type></trkpt>
      <trkpt lat="40.59941128" lon="-4.79649838"><ele>2691</ele><speed>7.47</speed><time>2016-07-01T13:56:37Z</time><pdop>21.0</pdop><geoidheight>53.00</geoidheight><course>51.6</course><type>1</type></trkpt>
      <trkpt lat="40.59979464" lon="-4.79655024"><ele>2684</ele><speed>6.92</speed><time>2016-07-01T13:56:41Z</time><pdop>18.0</pdop><geoidheight>53.00</geoidheight><course>354.2</course><type>1</type></trkpt>
      <trkpt lat="40.59999321" lon="-4.79690445"><ele>2683</ele><speed>8.46</speed><time>2016-07-01T13:56:44Z</time><pdop>13.0</pdop><geoidheight>53.00</geoidheight><course>314.3</course><type>1</type></trkpt>
      <trkpt lat="40.60012717" lon="-4.79719027"><ele>2560</ele><speed>7.31</speed><time>2016-07-01T13:56:47Z</time><pdop>14.0</pdop><geoidheight>53.00</geoidheight><course>303.6</course><type>1</type></trkpt>
      <trkpt lat="40.59992482" lon="-4.79735927"><ele>2576</ele><speed>10.84</speed><time>2016-07-01T13:56:48Z</time><pdop>12.0</pdop><geoidheight>53.00</geoidheight><course>234.0</course><type>1</type></trkpt>
      <trkpt lat="40.59973355" lon="-4.79750275"><ele>2614</ele><speed>11.39</speed><time>2016-07-01T13:56:50Z</time><pdop>11.0</pdop><geoidheight>53.00</geoidheight><course>209.3</course><type>1</type></trkpt>
      <trkpt lat="40.59952544" lon="-4.79752287"><ele>2642</ele><speed>11.74</speed><time>2016-07-01T13:56:52Z</time><pdop>11.0</pdop><geoidheight>53.00</geoidheight><course>187.9</course><type>1</type></trkpt>
      <trkpt lat="40.59936051" lon="-4.79736647"><ele>2656</ele><speed>9.81</speed><time>2016-07-01T13:56:54Z</time><pdop>11.0</pdop><geoidheight>53.00</geoidheight><course>151.0</course><type>1</type></trkpt>
      <trkpt lat="40.59921251" lon="-4.79706177"><ele>2674</ele><speed>11.81</speed><time>2016-07-01T13:56:56Z</time><pdop>11.0</pdop><geoidheight>53.00</geoidheight><course>122.8</course><type>1</type></trkpt>
      <trkpt lat="40.59913896" lon="-4.79675832"><ele>2680</ele><speed>12.31</speed><time>2016-07-01T13:56:58Z</time><pdop>12.0</pdop><geoidheight>53.00</geoidheight><course>111.2</course><type>1</type></trkpt>
      <trkpt lat="40.59917384" lon="-4.79637953"><ele>2702</ele><speed>13.66</speed><time>2016-07-01T13:57:00Z</time><pdop>11.0</pdop><geoidheight>53.00</geoidheight><course>92.8</course><type>1</type></trkpt>
      <trkpt lat="40.59919163" lon="-4.79608363"><ele>2714</ele><speed>12.47</speed><time>2016-07-01T13:57:02Z</time><pdop>11.0</pdop><geoidheight>53.00</geoidheight><course>80.5</course><type>1</type></trkpt>
      <trkpt lat="40.59928791" lon="-4.79583112"><ele>2728</ele><speed>10.99</speed><time>2016-07-01T13:57:04Z</time><pdop>10.0</pdop><geoidheight>53.00</geoidheight><course>53.4</course><type>1</type></trkpt>
      <trkpt lat="40.59952696" lon="-4.79574545"><ele>2740</ele><speed>9.25</speed><time>2016-07-01T13:57:07Z</time><pdop>10.0</pdop><geoidheight>53.00</geoidheight><course>4.2</course><type>1</type></trkpt>
      <trkpt lat="40.59975191" lon="-4.79588435"><ele>2751</ele><speed>9.46</speed><time>2016-07-01T13:57:10Z</time><pdop>10.0</pdop><geoidheight>53.00</geoidheight><course>330.5</course><type>1</type></trkpt>
      <trkpt lat="40.59989079" lon="-4.79605447"><ele>2755</ele><speed>9.88</speed><time>2016-07-01T13:57:12Z</time><pdop>10.0</pdop><geoidheight>53.00</geoidheight><course>320.2</course><type>1</type></trkpt>
      <trkpt lat="40.60003978" lon="-4.79621872"><ele>2761</ele><speed>9.49</speed><time>2016-07-01T13:57:14Z</time><pdop>11.0</pdop><geoidheight>53.00</geoidheight><course>320.7</course><type>1</type></trkpt>
      <trkpt lat="40.59986253" lon="-4.7966056"><ele>2767</ele><speed>8.74</speed><time>2016-07-01T13:57:17Z</time><pdop>13.0</pdop><geoidheight>53.00</geoidheight><course>254.5</course><type>1</type></trkpt>
      <trkpt lat="40.59953163" lon="-4.79675296"><ele>2591</ele><speed>10.69</speed><time>2016-07-01T13:57:19Z</time><pdop>13.0</pdop><geoidheight>53.00</geoidheight><course>212.5</course><type>1</type></trkpt>
      <trkpt lat="40.59927103" lon="-4.79689054"><ele>2653</ele><speed>9.95</speed><time>2016-07-01T13:57:22Z</time><pdop>12.0</pdop><geoidheight>53.00</geoidheight><course>210.4</course><type>1</type></trkpt>
      <trkpt lat="40.59918455" lon="-4.79645516"><ele>2759</ele><speed>11.47</speed><time>2016-07-01T13:57:32Z</time><pdop>24.0</pdop><geoidheight>53.00</geoidheight><course>90.5</course><type>1</type></trkpt>
      <trkpt lat="40.59946611" lon="-4.79595205"><ele>2776</ele><speed>12.39</speed><time>2016-07-01T13:57:35Z</time><pdop>21.0</pdop><geoidheight>53.00</geoidheight><course>78.9</course><type>1</type></trkpt>
      <trkpt lat="40.59912656" lon="-4.79577884"><ele>2796</ele><speed>9.10</speed><time>2016-07-01T13:57:39Z</time><pdop>17.0</pdop><geoidheight>53.00</geoidheight><course>158.8</course><type>1</type></trkpt>
      <trkpt lat="40.59881093" lon="-4.79593406"><ele>2516</ele><speed>9.67</speed><time>2016-07-01T13:57:42Z</time><pdop>18.0</pdop><geoidheight>53.00</geoidheight><course>191.5</course><type>1</type></trkpt>
      <trkpt lat="40.59906859" lon="-4.79631839"><ele>3008</ele><speed>6.07</speed><time>2016-07-01T13:57:51Z</time><pdop>25.0</pdop><geoidheight>53.00</geoidheight><course>333.6</course><type>1</type></trkpt>
      <trkpt lat="40.59937075" lon="-4.79593073"><ele>2964</ele><speed>9.89</speed><time>2016-07-01T13:57:55Z</time><pdop>18.0</pdop><geoidheight>53.00</geoidheight><course>52.3</course><type>1</type></trkpt>
      <trkpt lat="40.59932006" lon="-4.79547568"><ele>2943</ele><speed>9.14</speed><time>2016-07-01T13:57:59Z</time><pdop>20.0</pdop><geoidheight>53.00</geoidheight><course>101.4</course><type>1</type></trkpt>
      <trkpt lat="40.59882226" lon="-4.7954828"><ele>2936</ele><speed>10.33</speed><time>2016-07-01T13:58:03Z</time><pdop>22.0</pdop><geoidheight>53.00</geoidheight><course>174.8</course><type>1</type></trkpt>
      <trkpt lat="40.59844044" lon="-4.79571984"><ele>2986</ele><speed>11.01</speed><time>2016-07-01T13:58:26Z</time><pdop>15.0</pdop><geoidheight>53.00</geoidheight><course>232.7</course><type>1</type></trkpt>
      <trkpt lat="40.59860892" lon="-4.79531693"><ele>3039</ele><speed>12.53</speed><time>2016-07-01T13:58:39Z</time><pdop>18.0</pdop><geoidheight>53.00</geoidheight><course>106.3</course><type>1</type></trkpt>
      <trkpt lat="40.59852629" lon="-4.79492893"><ele>3053</ele><speed>11.53</speed><time>2016-07-01T13:58:42Z</time><pdop>15.0</pdop><geoidheight>53.00</geoidheight><course>125.8</course><type>1</type></trkpt>
      <trkpt lat="40.59825659" lon="-4.79473908"><ele>3089</ele><speed>11.78</speed><time>2016-07-01T13:58:46Z</time><pdop>14.0</pdop><geoidheight>53.00</geoidheight><course>175.6</course><type>1</type></trkpt>
      <trkpt lat="40.59845375" lon="-4.79511307"><ele>3153</ele><speed>12.71</speed><time>2016-07-01T13:58:52Z</time><pdop>10.0</pdop><geoidheight>53.00</geoidheight><course>311.4</course><type>1</type></trkpt>
      <trkpt lat="40.59865839" lon="-4.79516672"><ele>3152</ele><speed>10.79</speed><time>2016-07-01T13:58:54Z</time><pdop>6.0</pdop><geoidheight>53.00</geoidheight><course>353.9</course><type>1</type></trkpt>
      <trkpt lat="40.59886141" lon="-4.79512348"><ele>3157</ele><speed>11.57</speed><time>2016-07-01T13:58:56Z</time><pdop>6.0</pdop><geoidheight>53.00</geoidheight><course>12.9</course><type>1</type></trkpt>
      <trkpt lat="40.59902379" lon="-4.79498334"><ele>3160</ele><speed>11.39</speed><time>2016-07-01T13:58:58Z</time><pdop>7.0</pdop><geoidheight>53.00</geoidheight><course>28.6</course><type>1</type></trkpt>
      <trkpt lat="40.59918136" lon="-4.79481017"><ele>3165</ele><speed>11.23</speed><time>2016-07-01T13:59:00Z</time><pdop>7.0</pdop><geoidheight>53.00</geoidheight><course>37.8</course><type>1</type></trkpt>
      <trkpt lat="40.59920048" lon="-4.79444651"><ele>3171</ele><speed>12.38</speed><time>2016-07-01T13:59:02Z</time><pdop>7.0</pdop><geoidheight>53.00</geoidheight><course>68.1</course><type>1</type></trkpt>
      <trkpt lat="40.59922711" lon="-4.79427295"><ele>3174</ele><speed>13.39</speed><time>2016-07-01T13:59:03Z</time><pdop>7.0</pdop><geoidheight>53.00</geoidheight><course>73.5</course><type>1</type></trkpt>
      <trkpt lat="40.59925767" lon="-4.79409918"><ele>3175</ele><speed>13.82</speed><time>2016-07-01T13:59:04Z</time><pdop>8.0</pdop><geoidheight>53.00</geoidheight><course>75.6</course><type>1</type></trkpt>
      <trkpt lat="40.59914437" lon="-4.79383671"><ele>3177</ele><speed>12.42</speed><time>2016-07-01T13:59:06Z</time><pdop>7.0</pdop><geoidheight>53.00</geoidheight><course>113.1</course><type>1</type></trkpt>
      <trkpt lat="40.59902798" lon="-4.79365582"><ele>3184</ele><speed>10.48</speed><time>2016-07-01T13:59:08Z</time><pdop>6.0</pdop><geoidheight>53.00</geoidheight><course>132.0</course><type>1</type></trkpt>
      <trkpt lat="40.59888651" lon="-4.79353841"><ele>3188</ele><speed>8.96</speed><time>2016-07-01T13:59:10Z</time><pdop>7.0</pdop><geoidheight>53.00</geoidheight><course>157.4</course><type>1</type></trkpt>
      <trkpt lat="40.59867594" lon="-4.79362222"><ele>3189</ele><speed>10.81</speed><time>2016-07-01T13:59:12Z</time><pdop>8.0</pdop><geoidheight>53.00</geoidheight><course>195.6</course><type>1</type></trkpt>
      <trkpt lat="40.59856016" lon="-4.79376881"><ele>3195</ele><speed>7.02</speed><time>2016-07-01T13:59:15Z</time><pdop>9.0</pdop><geoidheight>53.00</geoidheight><course>223.5</course><type>1</type></trkpt>
      <trkpt lat="40.59862566" lon="-4.79405409"><ele>3198</ele><speed>7.28</speed><time>2016-07-01T13:59:18Z</time><pdop>10.0</pdop><geoidheight>53.00</geoidheight><course>274.5</course><type>1</type></trkpt>
      <trkpt lat="40.59885123" lon="-4.79401969"><ele>3201</ele><speed>3.89</speed><time>2016-07-01T13:59:22Z</time><pdop>15.0</pdop><geoidheight>53.00</geoidheight><course>358.6</course><type>1</type></trkpt>
      <trkpt lat="40.59901664" lon="-4.79369902"><ele>3207</ele><speed>10.55</speed><time>2016-07-01T13:59:24Z</time><pdop>13.0</pdop><geoidheight>53.00</geoidheight><course>51.6</course><type>1</type></trkpt>
      <trkpt lat="40.59904006" lon="-4.79338865"><ele>3218</ele><speed>11.54</speed><time>2016-07-01T13:59:26Z</time><pdop>8.0</pdop><geoidheight>53.00</geoidheight><course>77.6</course><type>1</type></trkpt>
      <trkpt lat="40.59904266" lon="-4.79307151"><ele>3224</ele><speed>12.35</speed><time>2016-07-01T13:59:28Z</time><pdop>9.0</pdop><geoidheight>53.00</geoidheight><course>100.5</course><type>1</type></trkpt>
      <trkpt lat="40.59895619" lon="-4.79281607"><ele>3229</ele><speed>12.37</speed><time>2016-07-01T13:59:30Z</time><pdop>11.0</pdop><geoidheight>53.00</geoidheight><course>114.6</course><type>1</type></trkpt>
      <trkpt lat="40.59875034" lon="-4.79280578"><ele>3231</ele><speed>11.44</speed><time>2016-07-01T13:59:32Z</time><pdop>7.0</pdop><geoidheight>53.00</geoidheight><course>153.8</course><type>1</type></trkpt>
      <trkpt lat="40.59855908" lon="-4.79278006"><ele>3237</ele><speed>11.22</speed><time>2016-07-01T13:59:34Z</time><pdop>8.0</pdop><geoidheight>53.00</geoidheight><course>178.5</course><type>1</type></trkpt>
      <trkpt lat="40.59838507" lon="-4.79283217"><ele>3246</ele><speed>10.62</speed><time>2016-07-01T13:59:36Z</time><pdop>8.0</pdop><geoidheight>53.00</geoidheight><course>193.8</course><type>1</type></trkpt>
      <trkpt lat="40.598374" lon="-4.79315967"><ele>3253</ele><speed>6.61</speed><time>2016-07-01T13:59:40Z</time><pdop>13.0</pdop><geoidheight>53.00</geoidheight><course>256.6</course><type>1</type></trkpt>
      <trkpt lat="40.59870799" lon="-4.79316448"><ele>3257</ele><speed>4.05</speed><time>2016-07-01T13:59:45Z</time><pdop>22.0</pdop><geoidheight>53.00</geoidheight><course>0.9</course><type>1</type></trkpt>
      <trkpt lat="40.59904896" lon="-4.79274423"><ele>3265</ele><speed>12.47</speed><time>2016-07-01T13:59:48Z</time><pdop>16.0</pdop><geoidheight>53.00</geoidheight><course>45.5</course><type>1</type></trkpt>
      <trkpt lat="40.59929871" lon="-4.79242023"><ele>3269</ele><speed>16.66</speed><time>2016-07-01T13:59:50Z</time><pdop>13.0</pdop><geoidheight>53.00</geoidheight><course>48.7</course><type>1</type></trkpt>
      <trkpt lat="40.59956357" lon="-4.79209076"><ele>3275</ele><speed>17.44</speed><time>2016-07-01T13:59:52Z</time><pdop>12.0</pdop><geoidheight>53.00</geoidheight><course>47.8</course><type>1</type></trkpt>
      <trkpt lat="40.59976121" lon="-4.79170002"><ele>3283</ele><speed>16.76</speed><time>2016-07-01T13:59:54Z</time><pdop>13.0</pdop><geoidheight>53.00</geoidheight><course>48.2</course><type>1</type></trkpt>
      <trkpt lat="40.60000575" lon="-4.79141274"><ele>3288</ele><speed>15.35</speed><time>2016-07-01T13:59:56Z</time><pdop>14.0</pdop><geoidheight>53.00</geoidheight><course>43.3</course><type>1</type></trkpt>
      <trkpt lat="40.60014644" lon="-4.79117325"><ele>3299</ele><speed>12.56</speed><time>2016-07-01T13:59:58Z</time><pdop>9.0</pdop><geoidheight>53.00</geoidheight><course>50.7</course><type>1</type></trkpt>
      <trkpt lat="40.60033235" lon="-4.79091071"><ele>3304</ele><speed>14.43</speed><time>2016-07-01T14:00:00Z</time><pdop>9.0</pdop><geoidheight>53.00</geoidheight><course>51.2</course><type>1</type></trkpt>
      <trkpt lat="40.60046505" lon="-4.79059217"><ele>3309</ele><speed>14.66</speed><time>2016-07-01T14:00:02Z</time><pdop>8.0</pdop><geoidheight>53.00</geoidheight><course>54.3</course><type>1</type></trkpt>
      <trkpt lat="40.60059218" lon="-4.79030577"><ele>3317</ele><speed>12.67</speed><time>2016-07-01T14:00:04Z</time><pdop>8.0</pdop><geoidheight>53.00</geoidheight><course>48.9</course><type>1</type></trkpt>
      <trkpt lat="40.60077378" lon="-4.79014936"><ele>3323</ele><speed>11.70</speed><time>2016-07-01T14:00:06Z</time><pdop>6.0</pdop><geoidheight>53.00</geoidheight><course>41.6</course><type>1</type></trkpt>
      <trkpt lat="40.60084187" lon="-4.79002241"><ele>3326</ele><speed>12.68</speed><time>2016-07-01T14:00:07Z</time><pdop>7.0</pdop><geoidheight>53.00</geoidheight><course>47.1</course><type>1</type></trkpt>
      <trkpt lat="40.60097158" lon="-4.7897564"><ele>3326</ele><speed>13.17</speed><time>2016-07-01T14:00:09Z</time><pdop>11.0</pdop><geoidheight>53.00</geoidheight><course>52.3</course><type>1</type></trkpt>
      <trkpt lat="40.60114892" lon="-4.7895095"><ele>3331</ele><speed>12.93</speed><time>2016-07-01T14:00:11Z</time><pdop>10.0</pdop><geoidheight>53.00</geoidheight><course>46.5</course><type>1</type></trkpt>
      <trkpt lat="40.60124992" lon="-4.7892574"><ele>3330</ele><speed>12.13</speed><time>2016-07-01T14:00:13Z</time><pdop>10.0</pdop><geoidheight>53.00</geoidheight><course>59.9</course><type>1</type></trkpt>
      <trkpt lat="40.60134821" lon="-4.78898601"><ele>3329</ele><speed>13.32</speed><time>2016-07-01T14:00:15Z</time><pdop>9.0</pdop><geoidheight>53.00</geoidheight><course>66.3</course><type>1</type></trkpt>
      <trkpt lat="40.60146802" lon="-4.78866634"><ele>3329</ele><speed>14.71</speed><time>2016-07-01T14:00:17Z</time><pdop>10.0</pdop><geoidheight>53.00</geoidheight><course>63.9</course><type>1</type></trkpt>
      <trkpt lat="40.60164273" lon="-4.78840564"><ele>3328</ele><speed>15.30</speed><time>2016-07-01T14:00:19Z</time><pdop>10.0</pdop><geoidheight>53.00</geoidheight><course>54.8</course><type>1</type></trkpt>
      <trkpt lat="40.60183788" lon="-4.78814129"><ele>3325</ele><speed>15.26</speed><time>2016-07-01T14:00:21Z</time><pdop>10.0</pdop><geoidheight>53.00</geoidheight><course>51.1</course><type>1</type></trkpt>
      <trkpt lat="40.6020264" lon="-4.78788994"><ele>3325</ele><speed>14.31</speed><time>2016-07-01T14:00:23Z</time><pdop>10.0</pdop><geoidheight>53.00</geoidheight><course>49.9</course><type>1</type></trkpt>
      <trkpt lat="40.6021936" lon="-4.78761763"><ele>3324</ele><speed>14.43</speed><time>2016-07-01T14:00:25Z</time><pdop>10.0</pdop><geoidheight>53.00</geoidheight><course>50.2</course><type>1</type></trkpt>
      <trkpt lat="40.60232194" lon="-4.7873745"><ele>3321</ele><speed>14.01</speed><time>2016-07-01T14:00:27Z</time><pdop>10.0</pdop><geoidheight>53.00</geoidheight><course>50.4</course><type>1</type></trkpt>
      <trkpt lat="40.60249333" lon="-4.78712496"><ele>3316</ele><speed>13.91</speed><time>2016-07-01T14:00:29Z</time><pdop>10.0</pdop><geoidheight>53.00</geoidheight><course>45.9</course><type>1</type></trkpt>
      <trkpt lat="40.60263682" lon="-4.78688499"><ele>3312</ele><speed>13.61</speed><time>2016-07-01T14:00:31Z</time><pdop>10.0</pdop><geoidheight>53.00</geoidheight><course>47.1</course><type>1</type></trkpt>
      <trkpt lat="40.60281081" lon="-4.7866319"><ele>3309</ele><speed>13.92</speed><time>2016-07-01T14:00:33Z</time><pdop>10.0</pdop><geoidheight>53.00</geoidheight><course>49.2</course><type>1</type></trkpt>
      <trkpt lat="40.602963" lon="-4.78637346"><ele>3307</ele><speed>14.53</speed><time>2016-07-01T14:00:35Z</time><pdop>10.0</pdop><geoidheight>53.00</geoidheight><course>50.9</course><type>1</type></trkpt>
      <trkpt lat="40.60315126" lon="-4.78605717"><ele>3303</ele><speed>15.77</speed><time>2016-07-01T14:00:37Z</time><pdop>10.0</pdop><geoidheight>53.00</geoidheight><course>50.6</course><type>1</type></trkpt>
      <trkpt lat="40.60335706" lon="-4.78572962"><ele>3299</ele><speed>17.09</speed><time>2016-07-01T14:00:39Z</time><pdop>10.0</pdop><geoidheight>53.00</geoidheight><course>52.2</course><type>1</type></trkpt>
      <trkpt lat="40.60354172" lon="-4.78542039"><ele>3295</ele><speed>16.82</speed><time>2016-07-01T14:00:41Z</time><pdop>10.0</pdop><geoidheight>53.00</geoidheight><course>54.5</course><type>1</type></trkpt>
      <trkpt lat="40.60370203" lon="-4.78512019"><ele>3293</ele><speed>15.20</speed><time>2016-07-01T14:00:43Z</time><pdop>10.0</pdop><geoidheight>53.00</geoidheight><course>58.1</course><type>1</type></trkpt>
      <trkpt lat="40.60386954" lon="-4.78483648"><ele>3290</ele><speed>14.75</speed><time>2016-07-01T14:00:45Z</time><pdop>10.0</pdop><geoidheight>53.00</geoidheight><course>57.1</course><type>1</type></trkpt>
      <trkpt lat="40.60405207" lon="-4.78453259"><ele>3289</ele><speed>16.18</speed><time>2016-07-01T14:00:47Z</time><pdop>11.0</pdop><geoidheight>53.00</geoidheight><course>55.0</course><type>1</type></trkpt>
      <trkpt lat="40.60426097" lon="-4.7841962"><ele>3298</ele><speed>17.90</speed><time>2016-07-01T14:00:49Z</time><pdop>11.0</pdop><geoidheight>53.00</geoidheight><course>53.9</course><type>1</type></trkpt>
      <trkpt lat="40.60441746" lon="-4.78385665"><ele>3293</ele><speed>17.29</speed><time>2016-07-01T14:00:51Z</time><pdop>10.0</pdop><geoidheight>53.00</geoidheight><course>57.9</course><type>1</type></trkpt>
      <trkpt lat="40.60457041" lon="-4.78349818"><ele>3289</ele><speed>17.47</speed><time>2016-07-01T14:00:53Z</time><pdop>10.0</pdop><geoidheight>53.00</geoidheight><course>61.2</course><type>1</type></trkpt>
      <trkpt lat="40.6047167" lon="-4.78315127"><ele>3284</ele><speed>17.57</speed><time>2016-07-01T14:00:55Z</time><pdop>10.0</pdop><geoidheight>53.00</geoidheight><course>60.3</course><type>1</type></trkpt>
      <trkpt lat="40.60487175" lon="-4.78285007"><ele>3279</ele><speed>16.45</speed><time>2016-07-01T14:00:57Z</time><pdop>10.0</pdop><geoidheight>53.00</geoidheight><course>57.5</course><type>1</type></trkpt>
      <trkpt lat="40.60500202" lon="-4.78252716"><ele>3272</ele><speed>15.52</speed><time>2016-07-01T14:00:59Z</time><pdop>10.0</pdop><geoidheight>53.00</geoidheight><course>58.3</course><type>1</type></trkpt>
      <trkpt lat="40.6051679" lon="-4.78221893"><ele>3268</ele><speed>16.17</speed><time>2016-07-01T14:01:01Z</time><pdop>10.0</pdop><geoidheight>53.00</geoidheight><course>57.4</course><type>1</type></trkpt>
      <trkpt lat="40.6053529" lon="-4.78188507"><ele>3261</ele><speed>16.64</speed><time>2016-07-01T14:01:03Z</time><pdop>10.0</pdop><geoidheight>53.00</geoidheight><course>52.6</course><type>1</type></trkpt>
      <trkpt lat="40.60552853" lon="-4.78161645"><ele>3259</ele><speed>15.73</speed><time>2016-07-01T14:01:05Z</time><pdop>10.0</pdop><geoidheight>53.00</geoidheight><course>55.5</course><type>1</type></trkpt>
      <trkpt lat="40.60569401" lon="-4.78132383"><ele>3254</ele><speed>15.62</speed><time>2016-07-01T14:01:07Z</time><pdop>10.0</pdop><geoidheight>53.00</geoidheight><course>53.9</course><type>1</type></trkpt>
      <trkpt lat="40.60585041" lon="-4.78101068"><ele>3251</ele><speed>15.88</speed><time>2016-07-01T14:01:09Z</time><pdop>10.0</pdop><geoidheight>53.00</geoidheight><course>57.4</course><type>1</type></trkpt>
      <trkpt lat="40.60597628" lon="-4.78069004"><ele>3247</ele><speed>15.25</speed><time>2016-07-01T14:01:11Z</time><pdop>10.0</pdop><geoidheight>53.00</geoidheight><course>61.5</course><type>1</type></trkpt>
      <trkpt lat="40.60609308" lon="-4.78041538"><ele>3246</ele><speed>13.00</speed><time>2016-07-01T14:01:13Z</time><pdop>10.0</pdop><geoidheight>53.00</geoidheight><course>60.2</course><type>1</type></trkpt>
      <trkpt lat="40.60620893" lon="-4.78014773"><ele>3246</ele><speed>13.11</speed><time>2016-07-01T14:01:15Z</time><pdop>12.0</pdop><geoidheight>53.00</geoidheight><course>61.1</course><type>1</type></trkpt>
      <trkpt lat="40.60641862" lon="-4.77987212"><ele>3244</ele><speed>16.22</speed><time>2016-07-01T14:01:17Z</time><pdop>11.0</pdop><geoidheight>53.00</geoidheight><course>49.1</course><type>1</type></trkpt>
      <trkpt lat="40.60665314" lon="-4.77960583"><ele>3240</ele><speed>17.30</speed><time>2016-07-01T14:01:19Z</time><pdop>11.0</pdop><geoidheight>53.00</geoidheight><course>45.2</course><type>1</type></trkpt>
      <trkpt lat="40.60690191" lon="-4.779344"><ele>3236</ele><speed>16.97</speed><time>2016-07-01T14:01:21Z</time><pdop>11.0</pdop><geoidheight>53.00</geoidheight><course>42.8</course><type>1</type></trkpt>
      <trkpt lat="40.60709623" lon="-4.77905353"><ele>3235</ele><speed>16.34</speed><time>2016-07-01T14:01:23Z</time><pdop>12.0</pdop><geoidheight>53.00</geoidheight><course>46.9</course><type>1</type></trkpt>
      <trkpt lat="40.60730313" lon="-4.77877205"><ele>3241</ele><speed>16.87</speed><time>2016-07-01T14:01:25Z</time><pdop>13.0</pdop><geoidheight>53.00</geoidheight><course>47.8</course><type>1</type></trkpt>
      <trkpt lat="40.60750103" lon="-4.77846521"><ele>3237</ele><speed>16.90</speed><time>2016-07-01T14:01:27Z</time><pdop>13.0</pdop><geoidheight>53.00</geoidheight><course>49.0</course><type>1</type></trkpt>
      <trkpt lat="40.60773269" lon="-4.77818392"><ele>3233</ele><speed>16.88</speed><time>2016-07-01T14:01:29Z</time><pdop>14.0</pdop><geoidheight>53.00</geoidheight><course>46.5</course><type>1</type></trkpt>
      <trkpt lat="40.60791525" lon="-4.77787858"><ele>3231</ele><speed>16.88</speed><time>2016-07-01T14:01:31Z</time><pdop>13.0</pdop><geoidheight>53.00</geoidheight><course>50.9</course><type>1</type></trkpt>
      <trkpt lat="40.60809719" lon="-4.77752659"><ele>3224</ele><speed>17.81</speed><time>2016-07-01T14:01:33Z</time><pdop>12.0</pdop><geoidheight>53.00</geoidheight><course>55.4</course><type>1</type></trkpt>
      <trkpt lat="40.60827108" lon="-4.77719177"><ele>3221</ele><speed>15.10</speed><time>2016-07-01T14:01:35Z</time><pdop>11.0</pdop><geoidheight>53.00</geoidheight><course>52.6</course><type>1</type></trkpt>
      <trkpt lat="40.60839256" lon="-4.77697047"><ele>3217</ele><speed>13.04</speed><time>2016-07-01T14:01:37Z</time><pdop>11.0</pdop><geoidheight>53.00</geoidheight><course>50.8</course><type>1</type></trkpt>
      <trkpt lat="40.60852858" lon="-4.77671741"><ele>3213</ele><speed>13.44</speed><time>2016-07-01T14:01:39Z</time><pdop>12.0</pdop><geoidheight>53.00</geoidheight><course>55.1</course><type>1</type></trkpt>
      <trkpt lat="40.60869085" lon="-4.77643586"><ele>3207</ele><speed>15.26</speed><time>2016-07-01T14:01:41Z</time><pdop>12.0</pdop><geoidheight>53.00</geoidheight><course>54.7</course><type>1</type></trkpt>
      <trkpt lat="40.60885945" lon="-4.77616591"><ele>3201</ele><speed>14.32</speed><time>2016-07-01T14:01:43Z</time><pdop>7.0</pdop><geoidheight>53.00</geoidheight><course>51.6</course><type>1</type></trkpt>
      <trkpt lat="40.6090049" lon="-4.77591891"><ele>3198</ele><speed>13.07</speed><time>2016-07-01T14:01:45Z</time><pdop>8.0</pdop><geoidheight>53.00</geoidheight><course>51.1</course><type>1</type></trkpt>
      <trkpt lat="40.60916696" lon="-4.77571398"><ele>3193</ele><speed>12.96</speed><time>2016-07-01T14:01:47Z</time><pdop>7.0</pdop><geoidheight>53.00</geoidheight><course>47.9</course><type>1</type></trkpt>
      <trkpt lat="40.60932495" lon="-4.77547527"><ele>3190</ele><speed>13.56</speed><time>2016-07-01T14:01:49Z</time><pdop>7.0</pdop><geoidheight>53.00</geoidheight><course>49.2</course><type>1</type></trkpt>
      <trkpt lat="40.60940011" lon="-4.775339"><ele>3189</ele><speed>14.06</speed><time>2016-07-01T14:01:50Z</time><pdop>7.0</pdop><geoidheight>53.00</geoidheight><course>51.1</course><type>1</type></trkpt>
      <trkpt lat="40.60954783" lon="-4.77507369"><ele>3187</ele><speed>14.36</speed><time>2016-07-01T14:01:52Z</time><pdop>6.0</pdop><geoidheight>53.00</geoidheight><course>53.8</course><type>1</type></trkpt>
      <trkpt lat="40.60964072" lon="-4.77494687"><ele>3185</ele><speed>14.31</speed><time>2016-07-01T14:01:53Z</time><pdop>6.0</pdop><geoidheight>53.00</geoidheight><course>53.4</course><type>1</type></trkpt>
      <trkpt lat="40.60972347" lon="-4.77481685"><ele>3183</ele><speed>14.20</speed><time>2016-07-01T14:01:54Z</time><pdop>7.0</pdop><geoidheight>53.00</geoidheight><course>52.8</course><type>1</type></trkpt>
      <trkpt lat="40.60981363" lon="-4.77468082"><ele>3178</ele><speed>14.28</speed><time>2016-07-01T14:01:55Z</time><pdop>6.0</pdop><geoidheight>53.00</geoidheight><course>52.7</course><type>1</type></trkpt>
      <trkpt lat="40.60989846" lon="-4.77454321"><ele>3175</ele><speed>14.30</speed><time>2016-07-01T14:01:56Z</time><pdop>6.0</pdop><geoidheight>53.00</geoidheight><course>54.5</course><type>1</type></trkpt>
      <trkpt lat="40.60995258" lon="-4.77439847"><ele>3173</ele><speed>14.00</speed><time>2016-07-01T14:01:57Z</time><pdop>6.0</pdop><geoidheight>53.00</geoidheight><course>57.6</course><type>1</type></trkpt>
      <trkpt lat="40.61001673" lon="-4.77425952"><ele>3170</ele><speed>14.32</speed><time>2016-07-01T14:01:58Z</time><pdop>6.0</pdop><geoidheight>53.00</geoidheight><course>59.6</course><type>1</type></trkpt>
      <trkpt lat="40.61007544" lon="-4.77411406"><ele>3169</ele><speed>14.24</speed><time>2016-07-01T14:01:59Z</time><pdop>7.0</pdop><geoidheight>53.00</geoidheight><course>60.4</course><type>1</type></trkpt>
      <trkpt lat="40.6101707" lon="-4.77382716"><ele>3166</ele><speed>13.47</speed><time>2016-07-01T14:02:01Z</time><pdop>6.0</pdop><geoidheight>53.00</geoidheight><course>62.5</course><type>1</type></trkpt>
      <trkpt lat="40.61025707" lon="-4.77358866"><ele>3165</ele><speed>10.68</speed><time>2016-07-01T14:02:03Z</time><pdop>6.0</pdop><geoidheight>53.00</geoidheight><course>59.9</course><type>1</type></trkpt>
      <trkpt lat="40.61035918" lon="-4.77341289"><ele>3161</ele><speed>9.84</speed><time>2016-07-01T14:02:05Z</time><pdop>11.0</pdop><geoidheight>53.00</geoidheight><course>56.7</course><type>1</type></trkpt>
      <trkpt lat="40.61053691" lon="-4.77315096"><ele>3156</ele><speed>13.98</speed><time>2016-07-01T14:02:07Z</time><pdop>9.0</pdop><geoidheight>53.00</geoidheight><course>54.8</course><type>1</type></trkpt>
      <trkpt lat="40.61066684" lon="-4.77284313"><ele>3152</ele><speed>14.47</speed><time>2016-07-01T14:02:09Z</time><pdop>8.0</pdop><geoidheight>53.00</geoidheight><course>59.0</course><type>1</type></trkpt>
      <trkpt lat="40.61081603" lon="-4.77260806"><ele>3150</ele><speed>12.23</speed><time>2016-07-01T14:02:11Z</time><pdop>6.0</pdop><geoidheight>53.00</geoidheight><course>54.0</course><type>1</type></trkpt>
      <trkpt lat="40.61087882" lon="-4.77249112"><ele>3149</ele><speed>12.59</speed><time>2016-07-01T14:02:12Z</time><pdop>6.0</pdop><geoidheight>53.00</geoidheight><course>54.2</course><type>1</type></trkpt>
      <trkpt lat="40.61099949" lon="-4.7722455"><ele>3147</ele><speed>12.75</speed><time>2016-07-01T14:02:14Z</time><pdop>7.0</pdop><geoidheight>53.00</geoidheight><course>57.6</course><type>1</type></trkpt>
      <trkpt lat="40.61116858" lon="-4.77206293"><ele>3145</ele><speed>11.77</speed><time>2016-07-01T14:02:16Z</time><pdop>8.0</pdop><geoidheight>53.00</geoidheight><course>40.6</course><type>1</type></trkpt>
      <trkpt lat="40.61130125" lon="-4.77192576"><ele>3144</ele><speed>9.76</speed><time>2016-07-01T14:02:18Z</time><pdop>7.0</pdop><geoidheight>53.00</geoidheight><course>47.4</course><type>1</type></trkpt>
      <trkpt lat="40.61141766" lon="-4.7717523"><ele>3142</ele><speed>9.54</speed><time>2016-07-01T14:02:20Z</time><pdop>8.0</pdop><geoidheight>53.00</geoidheight><course>50.9</course><type>1</type></trkpt>
      <trkpt lat="40.61153339" lon="-4.77157563"><ele>3141</ele><speed>10.30</speed><time>2016-07-01T14:02:22Z</time><pdop>9.0</pdop><geoidheight>53.00</geoidheight><course>51.5</course><type>1</type></trkpt>
      <trkpt lat="40.61166677" lon="-4.77137234"><ele>3140</ele><speed>11.13</speed><time>2016-07-01T14:02:24Z</time><pdop>10.0</pdop><geoidheight>53.00</geoidheight><course>49.1</course><type>1</type></trkpt>
      <trkpt lat="40.61184269" lon="-4.77110596"><ele>3139</ele><speed>10.29</speed><time>2016-07-01T14:02:27Z</time><pdop>13.0</pdop><geoidheight>53.00</geoidheight><course>46.8</course><type>1</type></trkpt>
      <trkpt lat="40.61194845" lon="-4.77088566"><ele>3136</ele><speed>10.92</speed><time>2016-07-01T14:02:29Z</time><pdop>9.0</pdop><geoidheight>53.00</geoidheight><course>53.6</course><type>1</type></trkpt>
      <trkpt lat="40.6120709" lon="-4.77069625"><ele>3134</ele><speed>10.33</speed><time>2016-07-01T14:02:31Z</time><pdop>7.0</pdop><geoidheight>53.00</geoidheight><course>57.4</course><type>1</type></trkpt>
      <trkpt lat="40.61217054" lon="-4.77049966"><ele>3133</ele><speed>10.35</speed><time>2016-07-01T14:02:33Z</time><pdop>6.0</pdop><geoidheight>53.00</geoidheight><course>58.7</course><type>1</type></trkpt>
      <trkpt lat="40.61227903" lon="-4.77031722"><ele>3132</ele><speed>9.76</speed><time>2016-07-01T14:02:35Z</time><pdop>8.0</pdop><geoidheight>53.00</geoidheight><course>52.9</course><type>1</type></trkpt>
      <trkpt lat="40.61244854" lon="-4.77007873"><ele>3129</ele><speed>13.14</speed><time>2016-07-01T14:02:37Z</time><pdop>4.0</pdop><geoidheight>53.00</geoidheight><course>47.4</course><type>1</type></trkpt>
      <trkpt lat="40.61252175" lon="-4.76994765"><ele>3129</ele><speed>13.26</speed><time>2016-07-01T14:02:38Z</time><pdop>4.0</pdop><geoidheight>53.00</geoidheight><course>46.0</course><type>1</type></trkpt>
      <trkpt lat="40.61261153" lon="-4.76985212"><ele>3128</ele><speed>12.32</speed><time>2016-07-01T14:02:39Z</time><pdop>4.0</pdop><geoidheight>53.00</geoidheight><course>45.9</course><type>1</type></trkpt>
      <trkpt lat="40.61267914" lon="-4.76974334"><ele>3128</ele><speed>11.21</speed><time>2016-07-01T14:02:40Z</time><pdop>3.0</pdop><geoidheight>53.00</geoidheight><course>51.7</course><type>1</type></trkpt>
      <trkpt lat="40.61273595" lon="-4.76963393"><ele>3127</ele><speed>11.28</speed><time>2016-07-01T14:02:41Z</time><pdop>3.0</pdop><geoidheight>53.00</geoidheight><course>56.2</course><type>1</type></trkpt>
      <trkpt lat="40.61280006" lon="-4.7695187"><ele>3125</ele><speed>12.30</speed><time>2016-07-01T14:02:42Z</time><pdop>3.0</pdop><geoidheight>53.00</geoidheight><course>54.3</course><type>1</type></trkpt>
      <trkpt lat="40.61287681" lon="-4.76939903"><ele>3121</ele><speed>13.66</speed><time>2016-07-01T14:02:43Z</time><pdop>3.0</pdop><geoidheight>53.00</geoidheight><course>50.4</course><type>1</type></trkpt>
      <trkpt lat="40.61295887" lon="-4.76927778"><ele>3119</ele><speed>13.72</speed><time>2016-07-01T14:02:44Z</time><pdop>3.0</pdop><geoidheight>53.00</geoidheight><course>49.4</course><type>1</type></trkpt>
      <trkpt lat="40.61304079" lon="-4.76915565"><ele>3118</ele><speed>13.46</speed><time>2016-07-01T14:02:45Z</time><pdop>9.0</pdop><geoidheight>53.00</geoidheight><course>48.1</course><type>1</type></trkpt>
      <trkpt lat="40.61317815" lon="-4.76897442"><ele>3115</ele><speed>10.66</speed><time>2016-07-01T14:02:47Z</time><pdop>9.0</pdop><geoidheight>53.00</geoidheight><course>47.2</course><type>1</type></trkpt>
      <trkpt lat="40.61330559" lon="-4.76879417"><ele>3115</ele><speed>10.95</speed><time>2016-07-01T14:02:49Z</time><pdop>9.0</pdop><geoidheight>53.00</geoidheight><course>48.3</course><type>1</type></trkpt>
      <trkpt lat="40.613485" lon="-4.76852736"><ele>3114</ele><speed>14.50</speed><time>2016-07-01T14:02:51Z</time><pdop>9.0</pdop><geoidheight>53.00</geoidheight><course>50.0</course><type>1</type></trkpt>
      <trkpt lat="40.6136346" lon="-4.76826819"><ele>3112</ele><speed>13.90</speed><time>2016-07-01T14:02:53Z</time><pdop>9.0</pdop><geoidheight>53.00</geoidheight><course>51.7</course><type>1</type></trkpt>
      <trkpt lat="40.6137329" lon="-4.76801584"><ele>3115</ele><speed>12.14</speed><time>2016-07-01T14:02:55Z</time><pdop>9.0</pdop><geoidheight>53.00</geoidheight><course>56.8</course><type>1</type></trkpt>
      <trkpt lat="40.61383777" lon="-4.76776678"><ele>3114</ele><speed>12.02</speed><time>2016-07-01T14:02:57Z</time><pdop>9.0</pdop><geoidheight>53.00</geoidheight><course>59.9</course><type>1</type></trkpt>
      <trkpt lat="40.61392361" lon="-4.76753876"><ele>3113</ele><speed>11.38</speed><time>2016-07-01T14:02:59Z</time><pdop>9.0</pdop><geoidheight>53.00</geoidheight><course>61.5</course><type>1</type></trkpt>
      <trkpt lat="40.61403162" lon="-4.76732079"><ele>3112</ele><speed>11.13</speed><time>2016-07-01T14:03:01Z</time><pdop>4.0</pdop><geoidheight>53.00</geoidheight><course>58.8</course><type>1</type></trkpt>
      <trkpt lat="40.61409194" lon="-4.7672077"><ele>3113</ele><speed>12.06</speed><time>2016-07-01T14:03:02Z</time><pdop>4.0</pdop><geoidheight>53.00</geoidheight><course>55.3</course><type>1</type></trkpt>
      <trkpt lat="40.61415475" lon="-4.76708737"><ele>3113</ele><speed>12.27</speed><time>2016-07-01T14:03:03Z</time><pdop>5.0</pdop><geoidheight>53.00</geoidheight><course>55.5</course><type>1</type></trkpt>
      <trkpt lat="40.61433648" lon="-4.76688022"><ele>3112</ele><speed>12.77</speed><time>2016-07-01T14:03:05Z</time><pdop>7.0</pdop><geoidheight>53.00</geoidheight><course>43.9</course><type>1</type></trkpt>
      <trkpt lat="40.61443579" lon="-4.76678911"><ele>3111</ele><speed>12.80</speed><time>2016-07-01T14:03:06Z</time><pdop>5.0</pdop><geoidheight>53.00</geoidheight><course>38.6</course><type>1</type></trkpt>
      <trkpt lat="40.61453066" lon="-4.76669243"><ele>3110</ele><speed>12.73</speed><time>2016-07-01T14:03:07Z</time><pdop>5.0</pdop><geoidheight>53.00</geoidheight><course>38.9</course><type>1</type></trkpt>
      <trkpt lat="40.61463244" lon="-4.76660906"><ele>3109</ele><speed>13.06</speed><time>2016-07-01T14:03:08Z</time><pdop>5.0</pdop><geoidheight>53.00</geoidheight><course>38.7</course><type>1</type></trkpt>
      <trkpt lat="40.61473883" lon="-4.76652019"><ele>3108</ele><speed>13.31</speed><time>2016-07-01T14:03:09Z</time><pdop>5.0</pdop><geoidheight>53.00</geoidheight><course>37.7</course><type>1</type></trkpt>
      <trkpt lat="40.61482878" lon="-4.76636388"><ele>3107</ele><speed>14.63</speed><time>2016-07-01T14:03:10Z</time><pdop>4.0</pdop><geoidheight>53.00</geoidheight><course>47.4</course><type>1</type></trkpt>
      <trkpt lat="40.61492261" lon="-4.76622687"><ele>3106</ele><speed>14.64</speed><time>2016-07-01T14:03:11Z</time><pdop>4.0</pdop><geoidheight>53.00</geoidheight><course>50.8</course><type>1</type></trkpt>
      <trkpt lat="40.61499862" lon="-4.76610624"><ele>3105</ele><speed>13.57</speed><time>2016-07-01T14:03:12Z</time><pdop>4.0</pdop><geoidheight>53.00</geoidheight><course>51.1</course><type>1</type></trkpt>
      <trkpt lat="40.61506873" lon="-4.76600267"><ele>3104</ele><speed>12.44</speed><time>2016-07-01T14:03:13Z</time><pdop>4.0</pdop><geoidheight>53.00</geoidheight><course>49.5</course><type>1</type></trkpt>
      <trkpt lat="40.6151472" lon="-4.76589397"><ele>3104</ele><speed>11.98</speed><time>2016-07-01T14:03:14Z</time><pdop>4.0</pdop><geoidheight>53.00</geoidheight><course>48.9</course><type>1</type></trkpt>
      <trkpt lat="40.61521878" lon="-4.76577845"><ele>3104</ele><speed>12.07</speed><time>2016-07-01T14:03:15Z</time><pdop>4.0</pdop><geoidheight>53.00</geoidheight><course>51.8</course><type>1</type></trkpt>
      <trkpt lat="40.61528029" lon="-4.76566457"><ele>3103</ele><speed>11.88</speed><time>2016-07-01T14:03:16Z</time><pdop>4.0</pdop><geoidheight>53.00</geoidheight><course>53.6</course><type>1</type></trkpt>
      <trkpt lat="40.61533942" lon="-4.7655452"><ele>3102</ele><speed>12.10</speed><time>2016-07-01T14:03:17Z</time><pdop>4.0</pdop><geoidheight>53.00</geoidheight><course>57.0</course><type>1</type></trkpt>
      <trkpt lat="40.61540117" lon="-4.76542023"><ele>3103</ele><speed>12.39</speed><time>2016-07-01T14:03:18Z</time><pdop>4.0</pdop><geoidheight>53.00</geoidheight><course>57.9</course><type>1</type></trkpt>
      <trkpt lat="40.6154589" lon="-4.7652851"><ele>3103</ele><speed>13.35</speed><time>2016-07-01T14:03:19Z</time><pdop>5.0</pdop><geoidheight>53.00</geoidheight><course>58.5</course><type>1</type></trkpt>
      <trkpt lat="40.61553168" lon="-4.76512748"><ele>3102</ele><speed>14.95</speed><time>2016-07-01T14:03:20Z</time><pdop>5.0</pdop><geoidheight>53.00</geoidheight><course>60.6</course><type>1</type></trkpt>
      <trkpt lat="40.61562404" lon="-4.76498958"><ele>3098</ele><speed>15.63</speed><time>2016-07-01T14:03:21Z</time><pdop>4.0</pdop><geoidheight>53.00</geoidheight><course>56.6</course><type>1</type></trkpt>
      <trkpt lat="40.61571731" lon="-4.76485205"><ele>3096</ele><speed>15.62</speed><time>2016-07-01T14:03:22Z</time><pdop>4.0</pdop><geoidheight>53.00</geoidheight><course>53.8</course><type>1</type></trkpt>
      <trkpt lat="40.61580162" lon="-4.7647046"><ele>3094</ele><speed>15.48</speed><time>2016-07-01T14:03:23Z</time><pdop>4.0</pdop><geoidheight>53.00</geoidheight><course>54.5</course><type>1</type></trkpt>
      <trkpt lat="40.61588181" lon="-4.76457154"><ele>3092</ele><speed>15.09</speed><time>2016-07-01T14:03:24Z</time><pdop>5.0</pdop><geoidheight>53.00</geoidheight><course>53.7</course><type>1</type></trkpt>
      <trkpt lat="40.61595566" lon="-4.76443603"><ele>3091</ele><speed>14.09</speed><time>2016-07-01T14:03:25Z</time><pdop>4.0</pdop><geoidheight>53.00</geoidheight><course>54.1</course><type>1</type></trkpt>
      <trkpt lat="40.61602308" lon="-4.76430078"><ele>3092</ele><speed>13.60</speed><time>2016-07-01T14:03:26Z</time><pdop>4.0</pdop><geoidheight>53.00</geoidheight><course>54.0</course><type>1</type></trkpt>
      <trkpt lat="40.61609645" lon="-4.7641886"><ele>3091</ele><speed>13.14</speed><time>2016-07-01T14:03:27Z</time><pdop>6.0</pdop><geoidheight>53.00</geoidheight><course>52.7</course><type>1</type></trkpt>
      <trkpt lat="40.61614592" lon="-4.76405769"><ele>3086</ele><speed>13.07</speed><time>2016-07-01T14:03:28Z</time><pdop>4.0</pdop><geoidheight>53.00</geoidheight><course>57.5</course><type>1</type></trkpt>
      <trkpt lat="40.61619815" lon="-4.76391565"><ele>3083</ele><speed>13.84</speed><time>2016-07-01T14:03:29Z</time><pdop>4.0</pdop><geoidheight>53.00</geoidheight><course>59.1</course><type>1</type></trkpt>
      <trkpt lat="40.61626147" lon="-4.76376729"><ele>3082</ele><speed>14.31</speed><time>2016-07-01T14:03:30Z</time><pdop>5.0</pdop><geoidheight>53.00</geoidheight><course>59.5</course><type>1</type></trkpt>
      <trkpt lat="40.61633836" lon="-4.76361379"><ele>3078</ele><speed>14.79</speed><time>2016-07-01T14:03:31Z</time><pdop>4.0</pdop><geoidheight>53.00</geoidheight><course>57.7</course><type>1</type></trkpt>
      <trkpt lat="40.6164071" lon="-4.763468"><ele>3076</ele><speed>14.46</speed><time>2016-07-01T14:03:32Z</time><pdop>4.0</pdop><geoidheight>53.00</geoidheight><course>57.1</course><type>1</type></trkpt>
      <trkpt lat="40.61647693" lon="-4.76332834"><ele>3074</ele><speed>14.01</speed><time>2016-07-01T14:03:33Z</time><pdop>4.0</pdop><geoidheight>53.00</geoidheight><course>58.1</course><type>1</type></trkpt>
      <trkpt lat="40.61654133" lon="-4.76319412"><ele>3072</ele><speed>13.38</speed><time>2016-07-01T14:03:34Z</time><pdop>4.0</pdop><geoidheight>53.00</geoidheight><course>59.8</course><type>1</type></trkpt>
      <trkpt lat="40.61659755" lon="-4.76304628"><ele>3071</ele><speed>13.65</speed><time>2016-07-01T14:03:35Z</time><pdop>4.0</pdop><geoidheight>53.00</geoidheight><course>60.7</course><type>1</type></trkpt>
      <trkpt lat="40.61665498" lon="-4.76290757"><ele>3068</ele><speed>13.80</speed><time>2016-07-01T14:03:36Z</time><pdop>4.0</pdop><geoidheight>53.00</geoidheight><course>59.8</course><type>1</type></trkpt>
      <trkpt lat="40.6167228" lon="-4.76276192"><ele>3066</ele><speed>13.95</speed><time>2016-07-01T14:03:37Z</time><pdop>4.0</pdop><geoidheight>53.00</geoidheight><course>59.7</course><type>1</type></trkpt>
      <trkpt lat="40.61678961" lon="-4.76262372"><ele>3065</ele><speed>13.86</speed><time>2016-07-01T14:03:38Z</time><pdop>4.0</pdop><geoidheight>53.00</geoidheight><course>59.1</course><type>1</type></trkpt>
      <trkpt lat="40.6168536" lon="-4.76248299"><ele>3064</ele><speed>13.68</speed><time>2016-07-01T14:03:39Z</time><pdop>4.0</pdop><geoidheight>53.00</geoidheight><course>58.8</course><type>1</type></trkpt>
      <trkpt lat="40.61690874" lon="-4.76235621"><ele>3062</ele><speed>13.08</speed><time>2016-07-01T14:03:40Z</time><pdop>3.0</pdop><geoidheight>53.00</geoidheight><course>60.2</course><type>1</type></trkpt>
      <trkpt lat="40.61697041" lon="-4.76222461"><ele>3060</ele><speed>13.16</speed><time>2016-07-01T14:03:41Z</time><pdop>3.0</pdop><geoidheight>53.00</geoidheight><course>61.5</course><type>1</type></trkpt>
      <trkpt lat="40.6170327" lon="-4.7620914"><ele>3056</ele><speed>13.75</speed><time>2016-07-01T14:03:42Z</time><pdop>3.0</pdop><geoidheight>53.00</geoidheight><course>60.6</course><type>1</type></trkpt>
      <trkpt lat="40.61709635" lon="-4.76194153"><ele>3053</ele><speed>14.39</speed><time>2016-07-01T14:03:43Z</time><pdop>3.0</pdop><geoidheight>53.00</geoidheight><course>60.4</course><type>1</type></trkpt>
      <trkpt lat="40.61715774" lon="-4.76179694"><ele>3051</ele><speed>14.47</speed><time>2016-07-01T14:03:44Z</time><pdop>3.0</pdop><geoidheight>53.00</geoidheight><course>60.7</course><type>1</type></trkpt>
      <trkpt lat="40.61721466" lon="-4.76165421"><ele>3050</ele><speed>13.81</speed><time>2016-07-01T14:03:45Z</time><pdop>3.0</pdop><geoidheight>53.00</geoidheight><course>62.3</course><type>1</type></trkpt>
      <trkpt lat="40.61726812" lon="-4.76151599"><ele>3050</ele><speed>12.96</speed><time>2016-07-01T14:03:46Z</time><pdop>3.0</pdop><geoidheight>53.00</geoidheight><course>63.7</course><type>1</type></trkpt>
      <trkpt lat="40.61732282" lon="-4.76138208"><ele>3049</ele><speed>12.73</speed><time>2016-07-01T14:03:47Z</time><pdop>3.0</pdop><geoidheight>53.00</geoidheight><course>62.7</course><type>1</type></trkpt>
      <trkpt lat="40.61737368" lon="-4.76125353"><ele>3047</ele><speed>12.86</speed><time>2016-07-01T14:03:48Z</time><pdop>3.0</pdop><geoidheight>53.00</geoidheight><course>60.4</course><type>1</type></trkpt>
      <trkpt lat="40.61743602" lon="-4.76111959"><ele>3049</ele><speed>13.36</speed><time>2016-07-01T14:03:49Z</time><pdop>4.0</pdop><geoidheight>53.00</geoidheight><course>59.3</course><type>1</type></trkpt>
      <trkpt lat="40.61752629" lon="-4.76098414"><ele>3047</ele><speed>14.63</speed><time>2016-07-01T14:03:50Z</time><pdop>4.0</pdop><geoidheight>53.00</geoidheight><course>53.2</course><type>1</type></trkpt>
      <trkpt lat="40.61761995" lon="-4.76085284"><ele>3046</ele><speed>15.11</speed><time>2016-07-01T14:03:51Z</time><pdop>5.0</pdop><geoidheight>53.00</geoidheight><course>51.4</course><type>1</type></trkpt>
      <trkpt lat="40.61769781" lon="-4.76070885"><ele>3044</ele><speed>15.34</speed><time>2016-07-01T14:03:52Z</time><pdop>5.0</pdop><geoidheight>53.00</geoidheight><course>52.4</course><type>1</type></trkpt>
      <trkpt lat="40.6177657" lon="-4.76056624"><ele>3043</ele><speed>14.60</speed><time>2016-07-01T14:03:53Z</time><pdop>4.0</pdop><geoidheight>53.00</geoidheight><course>56.4</course><type>1</type></trkpt>
      <trkpt lat="40.61780854" lon="-4.76043224"><ele>3041</ele><speed>14.08</speed><time>2016-07-01T14:03:54Z</time><pdop>5.0</pdop><geoidheight>53.00</geoidheight><course>57.7</course><type>1</type></trkpt>
      <trkpt lat="40.61788739" lon="-4.76029896"><ele>3039</ele><speed>13.98</speed><time>2016-07-01T14:03:55Z</time><pdop>4.0</pdop><geoidheight>53.00</geoidheight><course>57.8</course><type>1</type></trkpt>
      <trkpt lat="40.61796719" lon="-4.76016097"><ele>3038</ele><speed>14.26</speed><time>2016-07-01T14:03:56Z</time><pdop>5.0</pdop><geoidheight>53.00</geoidheight><course>56.5</course><type>1</type></trkpt>
      <trkpt lat="40.61804943" lon="-4.76001552"><ele>3037</ele><speed>14.72</speed><time>2016-07-01T14:03:57Z</time><pdop>6.0</pdop><geoidheight>53.00</geoidheight><course>55.7</course><type>1</type></trkpt>
      <trkpt lat="40.61811908" lon="-4.7598636"><ele>3036</ele><speed>15.22</speed><time>2016-07-01T14:03:58Z</time><pdop>7.0</pdop><geoidheight>53.00</geoidheight><course>57.5</course><type>1</type></trkpt>
      <trkpt lat="40.61821873" lon="-4.75970586"><ele>3035</ele><speed>16.25</speed><time>2016-07-01T14:03:59Z</time><pdop>7.0</pdop><geoidheight>53.00</geoidheight><course>56.6</course><type>1</type></trkpt>
      <trkpt lat="40.61830713" lon="-4.75951369"><ele>3033</ele><speed>17.45</speed><time>2016-07-01T14:04:00Z</time><pdop>6.0</pdop><geoidheight>53.00</geoidheight><course>58.9</course><type>1</type></trkpt>
      <trkpt lat="40.61836652" lon="-4.75934414"><ele>3032</ele><speed>16.85</speed><time>2016-07-01T14:04:01Z</time><pdop>6.0</pdop><geoidheight>53.00</geoidheight><course>59.5</course><type>1</type></trkpt>
      <trkpt lat="40.61841483" lon="-4.75918701"><ele>3030</ele><speed>15.97</speed><time>2016-07-01T14:04:02Z</time><pdop>5.0</pdop><geoidheight>53.00</geoidheight><course>57.7</course><type>1</type></trkpt>
      <trkpt lat="40.61849007" lon="-4.75904012"><ele>3029</ele><speed>15.06</speed><time>2016-07-01T14:04:03Z</time><pdop>6.0</pdop><geoidheight>53.00</geoidheight><course>56.0</course><type>1</type></trkpt>
      <trkpt lat="40.61855451" lon="-4.75891971"><ele>3027</ele><speed>14.18</speed><time>2016-07-01T14:04:04Z</time><pdop>5.0</pdop><geoidheight>53.00</geoidheight><course>53.4</course><type>1</type></trkpt>
      <trkpt lat="40.61863856" lon="-4.7587846"><ele>3024</ele><speed>14.47</speed><time>2016-07-01T14:04:05Z</time><pdop>5.0</pdop><geoidheight>53.00</geoidheight><course>53.4</course><type>1</type></trkpt>
      <trkpt lat="40.61872322" lon="-4.75864011"><ele>3021</ele><speed>14.97</speed><time>2016-07-01T14:04:06Z</time><pdop>5.0</pdop><geoidheight>53.00</geoidheight><course>52.0</course><type>1</type></trkpt>
      <trkpt lat="40.61881536" lon="-4.75850164"><ele>3020</ele><speed>15.86</speed><time>2016-07-01T14:04:07Z</time><pdop>5.0</pdop><geoidheight>53.00</geoidheight><course>50.4</course><type>1</type></trkpt>
      <trkpt lat="40.61890291" lon="-4.75835142"><ele>3019</ele><speed>16.59</speed><time>2016-07-01T14:04:08Z</time><pdop>5.0</pdop><geoidheight>53.00</geoidheight><course>50.0</course><type>1</type></trkpt>
      <trkpt lat="40.61899693" lon="-4.75820433"><ele>3017</ele><speed>16.57</speed><time>2016-07-01T14:04:09Z</time><pdop>6.0</pdop><geoidheight>53.00</geoidheight><course>50.1</course><type>1</type></trkpt>
      <trkpt lat="40.61909852" lon="-4.75805176"><ele>3016</ele><speed>16.63</speed><time>2016-07-01T14:04:10Z</time><pdop>6.0</pdop><geoidheight>53.00</geoidheight><course>51.3</course><type>1</type></trkpt>
      <trkpt lat="40.6191653" lon="-4.75790429"><ele>3014</ele><speed>15.28</speed><time>2016-07-01T14:04:11Z</time><pdop>6.0</pdop><geoidheight>53.00</geoidheight><course>54.7</course><type>1</type></trkpt>
      <trkpt lat="40.61922286" lon="-4.75776875"><ele>3013</ele><speed>13.72</speed><time>2016-07-01T14:04:12Z</time><pdop>6.0</pdop><geoidheight>53.00</geoidheight><course>58.5</course><type>1</type></trkpt>
      <trkpt lat="40.61927421" lon="-4.75762871"><ele>3011</ele><speed>13.21</speed><time>2016-07-01T14:04:13Z</time><pdop>6.0</pdop><geoidheight>53.00</geoidheight><course>59.4</course><type>1</type></trkpt>
      <trkpt lat="40.61933367" lon="-4.75749645"><ele>3007</ele><speed>13.27</speed><time>2016-07-01T14:04:14Z</time><pdop>6.0</pdop><geoidheight>53.00</geoidheight><course>55.4</course><type>1</type></trkpt>
      <trkpt lat="40.619419" lon="-4.75736746"><ele>3005</ele><speed>14.06</speed><time>2016-07-01T14:04:15Z</time><pdop>7.0</pdop><geoidheight>53.00</geoidheight><course>54.0</course><type>1</type></trkpt>
      <trkpt lat="40.61952272" lon="-4.7572228"><ele>3003</ele><speed>15.94</speed><time>2016-07-01T14:04:16Z</time><pdop>7.0</pdop><geoidheight>53.00</geoidheight><course>50.7</course><type>1</type></trkpt>
      <trkpt lat="40.61961167" lon="-4.75703844"><ele>2996</ele><speed>17.98</speed><time>2016-07-01T14:04:17Z</time><pdop>6.0</pdop><geoidheight>53.00</geoidheight><course>56.6</course><type>1</type></trkpt>
      <trkpt lat="40.61968617" lon="-4.75687139"><ele>2990</ele><speed>17.91</speed><time>2016-07-01T14:04:18Z</time><pdop>6.0</pdop><geoidheight>53.00</geoidheight><course>56.9</course><type>1</type></trkpt>
      <trkpt lat="40.61976244" lon="-4.75669488"><ele>2987</ele><speed>17.88</speed><time>2016-07-01T14:04:19Z</time><pdop>6.0</pdop><geoidheight>53.00</geoidheight><course>57.5</course><type>1</type></trkpt>
      <trkpt lat="40.61983622" lon="-4.75652339"><ele>2981</ele><speed>17.42</speed><time>2016-07-01T14:04:20Z</time><pdop>5.0</pdop><geoidheight>53.00</geoidheight><course>56.5</course><type>1</type></trkpt>
      <trkpt lat="40.61992152" lon="-4.75636623"><ele>2978</ele><speed>16.60</speed><time>2016-07-01T14:04:21Z</time><pdop>5.0</pdop><geoidheight>53.00</geoidheight><course>56.1</course><type>1</type></trkpt>
      <trkpt lat="40.6199951" lon="-4.75620814"><ele>2976</ele><speed>16.15</speed><time>2016-07-01T14:04:22Z</time><pdop>4.0</pdop><geoidheight>53.00</geoidheight><course>56.8</course><type>1</type></trkpt>
      <trkpt lat="40.62006238" lon="-4.75605906"><ele>2972</ele><speed>15.99</speed><time>2016-07-01T14:04:23Z</time><pdop>4.0</pdop><geoidheight>53.00</geoidheight><course>58.1</course><type>1</type></trkpt>
      <trkpt lat="40.62014137" lon="-4.7558931"><ele>2968</ele><speed>16.37</speed><time>2016-07-01T14:04:24Z</time><pdop>4.0</pdop><geoidheight>53.00</geoidheight><course>58.4</course><type>1</type></trkpt>
      <trkpt lat="40.62022897" lon="-4.75573464"><ele>2964</ele><speed>17.17</speed><time>2016-07-01T14:04:25Z</time><pdop>4.0</pdop><geoidheight>53.00</geoidheight><course>57.7</course><type>1</type></trkpt>
      <trkpt lat="40.62031633" lon="-4.75556643"><ele>2959</ele><speed>17.72</speed><time>2016-07-01T14:04:26Z</time><pdop>4.0</pdop><geoidheight>53.00</geoidheight><course>57.5</course><type>1</type></trkpt>
      <trkpt lat="40.62040232" lon="-4.75539027"><ele>2952</ele><speed>17.67</speed><time>2016-07-01T14:04:27Z</time><pdop>5.0</pdop><geoidheight>53.00</geoidheight><course>57.3</course><type>1</type></trkpt>
      <trkpt lat="40.62049759" lon="-4.75521612"><ele>2951</ele><speed>17.70</speed><time>2016-07-01T14:04:28Z</time><pdop>4.0</pdop><geoidheight>53.00</geoidheight><course>56.6</course><type>1</type></trkpt>
      <trkpt lat="40.62058304" lon="-4.75505046"><ele>2948</ele><speed>17.28</speed><time>2016-07-01T14:04:29Z</time><pdop>3.0</pdop><geoidheight>53.00</geoidheight><course>58.0</course><type>1</type></trkpt>
      <trkpt lat="40.62065768" lon="-4.75488895"><ele>2947</ele><speed>16.72</speed><time>2016-07-01T14:04:30Z</time><pdop>3.0</pdop><geoidheight>53.00</geoidheight><course>59.2</course><type>1</type></trkpt>
      <trkpt lat="40.62073694" lon="-4.75471811"><ele>2945</ele><speed>16.49</speed><time>2016-07-01T14:04:31Z</time><pdop>4.0</pdop><geoidheight>53.00</geoidheight><course>58.8</course><type>1</type></trkpt>
      <trkpt lat="40.62081349" lon="-4.75455743"><ele>2944</ele><speed>16.18</speed><time>2016-07-01T14:04:32Z</time><pdop>5.0</pdop><geoidheight>53.00</geoidheight><course>57.1</course><type>1</type></trkpt>
      <trkpt lat="40.62088956" lon="-4.75440459"><ele>2942</ele><speed>15.79</speed><time>2016-07-01T14:04:33Z</time><pdop>4.0</pdop><geoidheight>53.00</geoidheight><course>56.8</course><type>1</type></trkpt>
      <trkpt lat="40.62097221" lon="-4.75423886"><ele>2941</ele><speed>16.41</speed><time>2016-07-01T14:04:34Z</time><pdop>4.0</pdop><geoidheight>53.00</geoidheight><course>55.8</course><type>1</type></trkpt>
      <trkpt lat="40.62105203" lon="-4.75406596"><ele>2939</ele><speed>17.34</speed><time>2016-07-01T14:04:35Z</time><pdop>4.0</pdop><geoidheight>53.00</geoidheight><course>56.9</course><type>1</type></trkpt>
      <trkpt lat="40.62112043" lon="-4.75390374"><ele>2934</ele><speed>16.60</speed><time>2016-07-01T14:04:36Z</time><pdop>4.0</pdop><geoidheight>53.00</geoidheight><course>58.5</course><type>1</type></trkpt>
      <trkpt lat="40.6211928" lon="-4.75375766"><ele>2930</ele><speed>16.02</speed><time>2016-07-01T14:04:37Z</time><pdop>4.0</pdop><geoidheight>53.00</geoidheight><course>58.6</course><type>1</type></trkpt>
      <trkpt lat="40.62126006" lon="-4.75360972"><ele>2927</ele><speed>15.55</speed><time>2016-07-01T14:04:38Z</time><pdop>4.0</pdop><geoidheight>53.00</geoidheight><course>60.1</course><type>1</type></trkpt>
      <trkpt lat="40.62131835" lon="-4.7534577"><ele>2924</ele><speed>15.01</speed><time>2016-07-01T14:04:39Z</time><pdop>4.0</pdop><geoidheight>53.00</geoidheight><course>60.8</course><type>1</type></trkpt>
      <trkpt lat="40.62137977" lon="-4.75330802"><ele>2922</ele><speed>14.73</speed><time>2016-07-01T14:04:40Z</time><pdop>5.0</pdop><geoidheight>53.00</geoidheight><course>60.5</course><type>1</type></trkpt>
      <trkpt lat="40.62145673" lon="-4.75316018"><ele>2920</ele><speed>14.59</speed><time>2016-07-01T14:04:41Z</time><pdop>5.0</pdop><geoidheight>53.00</geoidheight><course>58.7</course><type>1</type></trkpt>
      <trkpt lat="40.62153504" lon="-4.75302571"><ele>2917</ele><speed>14.89</speed><time>2016-07-01T14:04:42Z</time><pdop>4.0</pdop><geoidheight>53.00</geoidheight><course>55.6</course><type>1</type></trkpt>
      <trkpt lat="40.62161779" lon="-4.75288204"><ele>2913</ele><speed>15.25</speed><time>2016-07-01T14:04:43Z</time><pdop>4.0</pdop><geoidheight>53.00</geoidheight><course>54.5</course><type>1</type></trkpt>
      <trkpt lat="40.62170187" lon="-4.75272922"><ele>2912</ele><speed>15.35</speed><time>2016-07-01T14:04:44Z</time><pdop>4.0</pdop><geoidheight>53.00</geoidheight><course>55.5</course><type>1</type></trkpt>
      <trkpt lat="40.62178786" lon="-4.75259407"><ele>2910</ele><speed>15.75</speed><time>2016-07-01T14:04:45Z</time><pdop>6.0</pdop><geoidheight>53.00</geoidheight><course>54.0</course><type>1</type></trkpt>
      <trkpt lat="40.62186205" lon="-4.75244586"><ele>2908</ele><speed>16.12</speed><time>2016-07-01T14:04:46Z</time><pdop>7.0</pdop><geoidheight>53.00</geoidheight><course>55.6</course><type>1</type></trkpt>
      <trkpt lat="40.62192131" lon="-4.75228509"><ele>2906</ele><speed>15.92</speed><time>2016-07-01T14:04:47Z</time><pdop>7.0</pdop><geoidheight>53.00</geoidheight><course>58.7</course><type>1</type></trkpt>
      <trkpt lat="40.62198179" lon="-4.75212159"><ele>2902</ele><speed>15.83</speed><time>2016-07-01T14:04:48Z</time><pdop>5.0</pdop><geoidheight>53.00</geoidheight><course>62.0</course><type>1</type></trkpt>
      <trkpt lat="40.62205004" lon="-4.75195066"><ele>2901</ele><speed>16.54</speed><time>2016-07-01T14:04:49Z</time><pdop>5.0</pdop><geoidheight>53.00</geoidheight><course>63.4</course><type>1</type></trkpt>
      <trkpt lat="40.6221247" lon="-4.75179118"><ele>2895</ele><speed>16.44</speed><time>2016-07-01T14:04:50Z</time><pdop>5.0</pdop><geoidheight>53.00</geoidheight><course>59.9</course><type>1</type></trkpt>
      <trkpt lat="40.62219089" lon="-4.75163584"><ele>2892</ele><speed>16.21</speed><time>2016-07-01T14:04:51Z</time><pdop>5.0</pdop><geoidheight>53.00</geoidheight><course>59.4</course><type>1</type></trkpt>
      <trkpt lat="40.6222627" lon="-4.75146792"><ele>2889</ele><speed>16.11</speed><time>2016-07-01T14:04:52Z</time><pdop>4.0</pdop><geoidheight>53.00</geoidheight><course>58.9</course><type>1</type></trkpt>
      <trkpt lat="40.62233922" lon="-4.75131655"><ele>2886</ele><speed>15.56</speed><time>2016-07-01T14:04:53Z</time><pdop>4.0</pdop><geoidheight>53.00</geoidheight><course>59.2</course><type>1</type></trkpt>
      <trkpt lat="40.62241769" lon="-4.75117245"><ele>2883</ele><speed>15.35</speed><time>2016-07-01T14:04:54Z</time><pdop>4.0</pdop><geoidheight>53.00</geoidheight><course>58.6</course><type>1</type></trkpt>
      <trkpt lat="40.62249434" lon="-4.75101743"><ele>2881</ele><speed>15.37</speed><time>2016-07-01T14:04:55Z</time><pdop>5.0</pdop><geoidheight>53.00</geoidheight><course>58.1</course><type>1</type></trkpt>
      <trkpt lat="40.62257279" lon="-4.75088627"><ele>2877</ele><speed>15.23</speed><time>2016-07-01T14:04:56Z</time><pdop>5.0</pdop><geoidheight>53.00</geoidheight><course>54.5</course><type>1</type></trkpt>
      <trkpt lat="40.62265246" lon="-4.75073412"><ele>2876</ele><speed>15.41</speed><time>2016-07-01T14:04:57Z</time><pdop>5.0</pdop><geoidheight>53.00</geoidheight><course>54.8</course><type>1</type></trkpt>
      <trkpt lat="40.62272512" lon="-4.75059219"><ele>2871</ele><speed>15.50</speed><time>2016-07-01T14:04:58Z</time><pdop>4.0</pdop><geoidheight>53.00</geoidheight><course>56.2</course><type>1</type></trkpt>
      <trkpt lat="40.62279869" lon="-4.75043096"><ele>2870</ele><speed>15.71</speed><time>2016-07-01T14:04:59Z</time><pdop>4.0</pdop><geoidheight>53.00</geoidheight><course>56.4</course><type>1</type></trkpt>
      <trkpt lat="40.62286773" lon="-4.75027709"><ele>2867</ele><speed>15.37</speed><time>2016-07-01T14:05:00Z</time><pdop>4.0</pdop><geoidheight>53.00</geoidheight><course>57.8</course><type>1</type></trkpt>
      <trkpt lat="40.62294394" lon="-4.75012768"><ele>2863</ele><speed>15.67</speed><time>2016-07-01T14:05:01Z</time><pdop>4.0</pdop><geoidheight>53.00</geoidheight><course>58.2</course><type>1</type></trkpt>
      <trkpt lat="40.62301906" lon="-4.74996508"><ele>2860</ele><speed>15.83</speed><time>2016-07-01T14:05:02Z</time><pdop>4.0</pdop><geoidheight>53.00</geoidheight><course>58.9</course><type>1</type></trkpt>
      <trkpt lat="40.62309354" lon="-4.74981347"><ele>2856</ele><speed>15.90</speed><time>2016-07-01T14:05:03Z</time><pdop>4.0</pdop><geoidheight>53.00</geoidheight><course>58.4</course><type>1</type></trkpt>
      <trkpt lat="40.62316616" lon="-4.74966669"><ele>2853</ele><speed>15.64</speed><time>2016-07-01T14:05:04Z</time><pdop>4.0</pdop><geoidheight>53.00</geoidheight><course>57.5</course><type>1</type></trkpt>
      <trkpt lat="40.62324163" lon="-4.74950177"><ele>2850</ele><speed>15.98</speed><time>2016-07-01T14:05:05Z</time><pdop>4.0</pdop><geoidheight>53.00</geoidheight><course>57.6</course><type>1</type></trkpt>
      <trkpt lat="40.62331719" lon="-4.74933978"><ele>2847</ele><speed>15.94</speed><time>2016-07-01T14:05:06Z</time><pdop>4.0</pdop><geoidheight>53.00</geoidheight><course>57.7</course><type>1</type></trkpt>
      <trkpt lat="40.62339427" lon="-4.74919111"><ele>2843</ele><speed>16.01</speed><time>2016-07-01T14:05:07Z</time><pdop>4.0</pdop><geoidheight>53.00</geoidheight><course>58.5</course><type>1</type></trkpt>
      <trkpt lat="40.62346411" lon="-4.74903327"><ele>2841</ele><speed>15.78</speed><time>2016-07-01T14:05:08Z</time><pdop>4.0</pdop><geoidheight>53.00</geoidheight><course>58.8</course><type>1</type></trkpt>
      <trkpt lat="40.62353331" lon="-4.7488758"><ele>2837</ele><speed>15.81</speed><time>2016-07-01T14:05:09Z</time><pdop>3.0</pdop><geoidheight>53.00</geoidheight><course>59.2</course><type>1</type></trkpt>
      <trkpt lat="40.62360433" lon="-4.7487263"><ele>2833</ele><speed>15.66</speed><time>2016-07-01T14:05:10Z</time><pdop>3.0</pdop><geoidheight>53.00</geoidheight><course>58.4</course><type>1</type></trkpt>
      <trkpt lat="40.62367726" lon="-4.74857314"><ele>2831</ele><speed>15.52</speed><time>2016-07-01T14:05:11Z</time><pdop>4.0</pdop><geoidheight>53.00</geoidheight><course>58.3</course><type>1</type></trkpt>
      <trkpt lat="40.62375081" lon="-4.74840212"><ele>2830</ele><speed>16.12</speed><time>2016-07-01T14:05:12Z</time><pdop>3.0</pdop><geoidheight>53.00</geoidheight><course>60.0</course><type>1</type></trkpt>
      <trkpt lat="40.6238181" lon="-4.74823657"><ele>2828</ele><speed>16.23</speed><time>2016-07-01T14:05:13Z</time><pdop>3.0</pdop><geoidheight>53.00</geoidheight><course>60.3</course><type>1</type></trkpt>
      <trkpt lat="40.62389258" lon="-4.74807028"><ele>2825</ele><speed>16.32</speed><time>2016-07-01T14:05:14Z</time><pdop>3.0</pdop><geoidheight>53.00</geoidheight><course>60.0</course><type>1</type></trkpt>
      <trkpt lat="40.62396739" lon="-4.74790411"><ele>2823</ele><speed>16.33</speed><time>2016-07-01T14:05:15Z</time><pdop>3.0</pdop><geoidheight>53.00</geoidheight><course>59.5</course><type>1</type></trkpt>
      <trkpt lat="40.6240362" lon="-4.74774468"><ele>2821</ele><speed>16.13</speed><time>2016-07-01T14:05:16Z</time><pdop>3.0</pdop><geoidheight>53.00</geoidheight><course>59.4</course><type>1</type></trkpt>
      <trkpt lat="40.62410513" lon="-4.74758086"><ele>2818</ele><speed>15.98</speed><time>2016-07-01T14:05:17Z</time><pdop>3.0</pdop><geoidheight>53.00</geoidheight><course>60.8</course><type>1</type></trkpt>
      <trkpt lat="40.62417419" lon="-4.74741821"><ele>2815</ele><speed>15.70</speed><time>2016-07-01T14:05:18Z</time><pdop>3.0</pdop><geoidheight>53.00</geoidheight><course>61.2</course><type>1</type></trkpt>
      <trkpt lat="40.62424339" lon="-4.74725793"><ele>2814</ele><speed>15.56</speed><time>2016-07-01T14:05:19Z</time><pdop>3.0</pdop><geoidheight>53.00</geoidheight><course>60.3</course><type>1</type></trkpt>
      <trkpt lat="40.6243132" lon="-4.74710309"><ele>2812</ele><speed>15.28</speed><time>2016-07-01T14:05:20Z</time><pdop>3.0</pdop><geoidheight>53.00</geoidheight><course>59.1</course><type>1</type></trkpt>
      <trkpt lat="40.62439015" lon="-4.7469491"><ele>2811</ele><speed>15.45</speed><time>2016-07-01T14:05:21Z</time><pdop>3.0</pdop><geoidheight>53.00</geoidheight><course>58.1</course><type>1</type></trkpt>
      <trkpt lat="40.6244692" lon="-4.74678715"><ele>2809</ele><speed>15.68</speed><time>2016-07-01T14:05:22Z</time><pdop>3.0</pdop><geoidheight>53.00</geoidheight><course>57.0</course><type>1</type></trkpt>
      <trkpt lat="40.62454437" lon="-4.74663004"><ele>2807</ele><speed>15.68</speed><time>2016-07-01T14:05:23Z</time><pdop>4.0</pdop><geoidheight>53.00</geoidheight><course>57.8</course><type>1</type></trkpt>
      <trkpt lat="40.62461274" lon="-4.74646349"><ele>2804</ele><speed>15.77</speed><time>2016-07-01T14:05:24Z</time><pdop>4.0</pdop><geoidheight>53.00</geoidheight><course>57.7</course><type>1</type></trkpt>
      <trkpt lat="40.62469358" lon="-4.74634102"><ele>2801</ele><speed>15.65</speed><time>2016-07-01T14:05:25Z</time><pdop>4.0</pdop><geoidheight>53.00</geoidheight><course>55.8</course><type>1</type></trkpt>
      <trkpt lat="40.62478214" lon="-4.74618171"><ele>2800</ele><speed>16.30</speed><time>2016-07-01T14:05:26Z</time><pdop>3.0</pdop><geoidheight>53.00</geoidheight><course>55.0</course><type>1</type></trkpt>
      <trkpt lat="40.62486127" lon="-4.74602725"><ele>2797</ele><speed>16.57</speed><time>2016-07-01T14:05:27Z</time><pdop>3.0</pdop><geoidheight>53.00</geoidheight><course>55.6</course><type>1</type></trkpt>
      <trkpt lat="40.62494703" lon="-4.74586212"><ele>2796</ele><speed>16.59</speed><time>2016-07-01T14:05:28Z</time><pdop>4.0</pdop><geoidheight>53.00</geoidheight><course>56.5</course><type>1</type></trkpt>
      <trkpt lat="40.62502701" lon="-4.74569689"><ele>2795</ele><speed>16.36</speed><time>2016-07-01T14:05:29Z</time><pdop>4.0</pdop><geoidheight>53.00</geoidheight><course>56.9</course><type>1</type></trkpt>
      <trkpt lat="40.62510994" lon="-4.74553963"><ele>2796</ele><speed>15.93</speed><time>2016-07-01T14:05:30Z</time><pdop>5.0</pdop><geoidheight>53.00</geoidheight><course>56.9</course><type>1</type></trkpt>
      <trkpt lat="40.62519373" lon="-4.74537341"><ele>2795</ele><speed>16.26</speed><time>2016-07-01T14:05:31Z</time><pdop>6.0</pdop><geoidheight>53.00</geoidheight><course>57.9</course><type>1</type></trkpt>
      <trkpt lat="40.6252611" lon="-4.74523055"><ele>2790</ele><speed>15.90</speed><time>2016-07-01T14:05:32Z</time><pdop>5.0</pdop><geoidheight>53.00</geoidheight><course>58.6</course><type>1</type></trkpt>
      <trkpt lat="40.62534588" lon="-4.74507256"><ele>2787</ele><speed>16.16</speed><time>2016-07-01T14:05:33Z</time><pdop>4.0</pdop><geoidheight>53.00</geoidheight><course>59.0</course><type>1</type></trkpt>
      <trkpt lat="40.62542342" lon="-4.74491301"><ele>2783</ele><speed>16.16</speed><time>2016-07-01T14:05:34Z</time><pdop>3.0</pdop><geoidheight>53.00</geoidheight><course>59.3</course><type>1</type></trkpt>
      <trkpt lat="40.62550023" lon="-4.74474748"><ele>2781</ele><speed>15.89</speed><time>2016-07-01T14:05:35Z</time><pdop>3.0</pdop><geoidheight>53.00</geoidheight><course>59.2</course><type>1</type></trkpt>
      <trkpt lat="40.62557157" lon="-4.74458272"><ele>2780</ele><speed>15.69</speed><time>2016-07-01T14:05:36Z</time><pdop>3.0</pdop><geoidheight>53.00</geoidheight><course>60.2</course><type>1</type></trkpt>
      <trkpt lat="40.62563807" lon="-4.74442759"><ele>2779</ele><speed>15.10</speed><time>2016-07-01T14:05:37Z</time><pdop>4.0</pdop><geoidheight>53.00</geoidheight><course>61.2</course><type>1</type></trkpt>
      <trkpt lat="40.62570066" lon="-4.74428658"><ele>2778</ele><speed>14.19</speed><time>2016-07-01T14:05:38Z</time><pdop>4.0</pdop><geoidheight>53.00</geoidheight><course>59.9</course><type>1</type></trkpt>
      <trkpt lat="40.62576814" lon="-4.74415751"><ele>2775</ele><speed>14.49</speed><time>2016-07-01T14:05:39Z</time><pdop>3.0</pdop><geoidheight>53.00</geoidheight><course>58.4</course><type>1</type></trkpt>
      <trkpt lat="40.62583848" lon="-4.74401673"><ele>2772</ele><speed>14.92</speed><time>2016-07-01T14:05:40Z</time><pdop>3.0</pdop><geoidheight>53.00</geoidheight><course>56.0</course><type>1</type></trkpt>
      <trkpt lat="40.62591939" lon="-4.74388198"><ele>2768</ele><speed>15.42</speed><time>2016-07-01T14:05:41Z</time><pdop>3.0</pdop><geoidheight>53.00</geoidheight><course>52.4</course><type>1</type></trkpt>
      <trkpt lat="40.62601059" lon="-4.74373224"><ele>2767</ele><speed>15.49</speed><time>2016-07-01T14:05:42Z</time><pdop>3.0</pdop><geoidheight>53.00</geoidheight><course>52.2</course><type>1</type></trkpt>
      <trkpt lat="40.62610265" lon="-4.74357748"><ele>2767</ele><speed>15.82</speed><time>2016-07-01T14:05:43Z</time><pdop>5.0</pdop><geoidheight>53.00</geoidheight><course>52.0</course><type>1</type></trkpt>
      <trkpt lat="40.62618411" lon="-4.74343128"><ele>2765</ele><speed>15.38</speed><time>2016-07-01T14:05:44Z</time><pdop>5.0</pdop><geoidheight>53.00</geoidheight><course>52.5</course><type>1</type></trkpt>
      <trkpt lat="40.62626898" lon="-4.74329424"><ele>2763</ele><speed>15.05</speed><time>2016-07-01T14:05:45Z</time><pdop>4.0</pdop><geoidheight>53.00</geoidheight><course>50.3</course><type>1</type></trkpt>
      <trkpt lat="40.62635297" lon="-4.74316237"><ele>2761</ele><speed>15.15</speed><time>2016-07-01T14:05:46Z</time><pdop>4.0</pdop><geoidheight>53.00</geoidheight><course>49.2</course><type>1</type></trkpt>
      <trkpt lat="40.62644678" lon="-4.74304261"><ele>2759</ele><speed>15.04</speed><time>2016-07-01T14:05:47Z</time><pdop>4.0</pdop><geoidheight>53.00</geoidheight><course>48.1</course><type>1</type></trkpt>
      <trkpt lat="40.62653432" lon="-4.74292202"><ele>2757</ele><speed>14.81</speed><time>2016-07-01T14:05:48Z</time><pdop>3.0</pdop><geoidheight>53.00</geoidheight><course>46.4</course><type>1</type></trkpt>
      <trkpt lat="40.62663258" lon="-4.74279704"><ele>2756</ele><speed>14.86</speed><time>2016-07-01T14:05:49Z</time><pdop>3.0</pdop><geoidheight>53.00</geoidheight><course>44.3</course><type>1</type></trkpt>
      <trkpt lat="40.62672405" lon="-4.74267188"><ele>2756</ele><speed>14.89</speed><time>2016-07-01T14:05:50Z</time><pdop>4.0</pdop><geoidheight>53.00</geoidheight><course>44.3</course><type>1</type></trkpt>
      <trkpt lat="40.6268212" lon="-4.74255004"><ele>2754</ele><speed>15.20</speed><time>2016-07-01T14:05:51Z</time><pdop>4.0</pdop><geoidheight>53.00</geoidheight><course>43.0</course><type>1</type></trkpt>
      <trkpt lat="40.62690626" lon="-4.74242253"><ele>2752</ele><speed>14.95</speed><time>2016-07-01T14:05:52Z</time><pdop>4.0</pdop><geoidheight>53.00</geoidheight><course>45.4</course><type>1</type></trkpt>
      <trkpt lat="40.62699679" lon="-4.74228653"><ele>2751</ele><speed>15.33</speed><time>2016-07-01T14:05:53Z</time><pdop>3.0</pdop><geoidheight>53.00</geoidheight><course>47.8</course><type>1</type></trkpt>
      <trkpt lat="40.62709273" lon="-4.74215213"><ele>2750</ele><speed>15.26</speed><time>2016-07-01T14:05:54Z</time><pdop>4.0</pdop><geoidheight>53.00</geoidheight><course>49.6</course><type>1</type></trkpt>
      <trkpt lat="40.62718392" lon="-4.74201214"><ele>2750</ele><speed>15.35</speed><time>2016-07-01T14:05:55Z</time><pdop>3.0</pdop><geoidheight>53.00</geoidheight><course>51.6</course><type>1</type></trkpt>
      <trkpt lat="40.62726536" lon="-4.74187921"><ele>2749</ele><speed>14.82</speed><time>2016-07-01T14:05:56Z</time><pdop>3.0</pdop><geoidheight>53.00</geoidheight><course>51.7</course><type>1</type></trkpt>
      <trkpt lat="40.62736271" lon="-4.74175156"><ele>2749</ele><speed>15.07</speed><time>2016-07-01T14:05:57Z</time><pdop>3.0</pdop><geoidheight>53.00</geoidheight><course>48.1</course><type>1</type></trkpt>
      <trkpt lat="40.62745479" lon="-4.74162647"><ele>2748</ele><speed>14.84</speed><time>2016-07-01T14:05:58Z</time><pdop>3.0</pdop><geoidheight>53.00</geoidheight><course>47.3</course><type>1</type></trkpt>
      <trkpt lat="40.6275397" lon="-4.74150263"><ele>2746</ele><speed>14.44</speed><time>2016-07-01T14:05:59Z</time><pdop>3.0</pdop><geoidheight>53.00</geoidheight><course>48.3</course><type>1</type></trkpt>
      <trkpt lat="40.62763218" lon="-4.74136944"><ele>2745</ele><speed>14.61</speed><time>2016-07-01T14:06:00Z</time><pdop>3.0</pdop><geoidheight>53.00</geoidheight><course>48.1</course><type>1</type></trkpt>
      <trkpt lat="40.62770926" lon="-4.74123916"><ele>2744</ele><speed>14.53</speed><time>2016-07-01T14:06:01Z</time><pdop>4.0</pdop><geoidheight>53.00</geoidheight><course>50.5</course><type>1</type></trkpt>
      <trkpt lat="40.62779772" lon="-4.74110117"><ele>2742</ele><speed>15.07</speed><time>2016-07-01T14:06:02Z</time><pdop>3.0</pdop><geoidheight>53.00</geoidheight><course>48.6</course><type>1</type></trkpt>
      <trkpt lat="40.62788739" lon="-4.74096726"><ele>2740</ele><speed>15.32</speed><time>2016-07-01T14:06:03Z</time><pdop>3.0</pdop><geoidheight>53.00</geoidheight><course>48.5</course><type>1</type></trkpt>
      <trkpt lat="40.62797668" lon="-4.74083032"><ele>2738</ele><speed>15.47</speed><time>2016-07-01T14:06:04Z</time><pdop>3.0</pdop><geoidheight>53.00</geoidheight><course>50.2</course><type>1</type></trkpt>
      <trkpt lat="40.62806534" lon="-4.74068521"><ele>2738</ele><speed>15.59</speed><time>2016-07-01T14:06:05Z</time><pdop>4.0</pdop><geoidheight>53.00</geoidheight><course>50.8</course><type>1</type></trkpt>
      <trkpt lat="40.62815076" lon="-4.74055701"><ele>2735</ele><speed>15.76</speed><time>2016-07-01T14:06:06Z</time><pdop>4.0</pdop><geoidheight>53.00</geoidheight><course>50.6</course><type>1</type></trkpt>
      <trkpt lat="40.628241" lon="-4.74041435"><ele>2735</ele><speed>15.45</speed><time>2016-07-01T14:06:07Z</time><pdop>4.0</pdop><geoidheight>53.00</geoidheight><course>50.5</course><type>1</type></trkpt>
      <trkpt lat="40.62832732" lon="-4.74028426"><ele>2734</ele><speed>14.70</speed><time>2016-07-01T14:06:08Z</time><pdop>4.0</pdop><geoidheight>53.00</geoidheight><course>49.7</course><type>1</type></trkpt>
      <trkpt lat="40.62839923" lon="-4.74015408"><ele>2735</ele><speed>13.38</speed><time>2016-07-01T14:06:09Z</time><pdop>4.0</pdop><geoidheight>53.00</geoidheight><course>51.7</course><type>1</type></trkpt>
      <trkpt lat="40.62846879" lon="-4.7400433"><ele>2734</ele><speed>11.98</speed><time>2016-07-01T14:06:10Z</time><pdop>4.0</pdop><geoidheight>53.00</geoidheight><course>50.9</course><type>1</type></trkpt>
      <trkpt lat="40.62852387" lon="-4.73993876"><ele>2733</ele><speed>11.90</speed><time>2016-07-01T14:06:11Z</time><pdop>4.0</pdop><geoidheight>53.00</geoidheight><course>52.2</course><type>1</type></trkpt>
      <trkpt lat="40.62870482" lon="-4.7396792"><ele>2730</ele><speed>14.39</speed><time>2016-07-01T14:06:13Z</time><pdop>4.0</pdop><geoidheight>53.00</geoidheight><course>47.6</course><type>1</type></trkpt>
      <trkpt lat="40.62879686" lon="-4.73956318"><ele>2729</ele><speed>14.58</speed><time>2016-07-01T14:06:14Z</time><pdop>4.0</pdop><geoidheight>53.00</geoidheight><course>46.3</course><type>1</type></trkpt>
      <trkpt lat="40.6288864" lon="-4.73943705"><ele>2749</ele><speed>14.69</speed><time>2016-07-01T14:06:15Z</time><pdop>5.0</pdop><geoidheight>53.00</geoidheight><course>48.0</course><type>1</type></trkpt>
      <trkpt lat="40.62895045" lon="-4.73928485"><ele>2744</ele><speed>15.00</speed><time>2016-07-01T14:06:16Z</time><pdop>5.0</pdop><geoidheight>53.00</geoidheight><course>53.4</course><type>1</type></trkpt>
      <trkpt lat="40.62903635" lon="-4.73913816"><ele>2739</ele><speed>15.66</speed><time>2016-07-01T14:06:17Z</time><pdop>4.0</pdop><geoidheight>53.00</geoidheight><course>53.0</course><type>1</type></trkpt>
      <trkpt lat="40.62911554" lon="-4.73899833"><ele>2735</ele><speed>15.42</speed><time>2016-07-01T14:06:18Z</time><pdop>4.0</pdop><geoidheight>53.00</geoidheight><course>52.9</course><type>1</type></trkpt>
      <trkpt lat="40.62919846" lon="-4.73886646"><ele>2731</ele><speed>15.39</speed><time>2016-07-01T14:06:19Z</time><pdop>4.0</pdop><geoidheight>53.00</geoidheight><course>53.0</course><type>1</type></trkpt>
      <trkpt lat="40.62927866" lon="-4.73872827"><ele>2728</ele><speed>15.08</speed><time>2016-07-01T14:06:20Z</time><pdop>4.0</pdop><geoidheight>53.00</geoidheight><course>53.5</course><type>1</type></trkpt>
      <trkpt lat="40.62935316" lon="-4.73858718"><ele>2724</ele><speed>14.83</speed><time>2016-07-01T14:06:21Z</time><pdop>4.0</pdop><geoidheight>53.00</geoidheight><course>56.1</course><type>1</type></trkpt>
      <trkpt lat="40.62943049" lon="-4.73843442"><ele>2721</ele><speed>15.07</speed><time>2016-07-01T14:06:22Z</time><pdop>4.0</pdop><geoidheight>53.00</geoidheight><course>57.3</course><type>1</type></trkpt>
      <trkpt lat="40.62950301" lon="-4.73829777"><ele>2716</ele><speed>15.13</speed><time>2016-07-01T14:06:23Z</time><pdop>4.0</pdop><geoidheight>53.00</geoidheight><course>56.5</course><type>1</type></trkpt>
      <trkpt lat="40.62957618" lon="-4.73814786"><ele>2710</ele><speed>15.30</speed><time>2016-07-01T14:06:24Z</time><pdop>3.0</pdop><geoidheight>53.00</geoidheight><course>58.2</course><type>1</type></trkpt>
      <trkpt lat="40.62964725" lon="-4.73799526"><ele>2707</ele><speed>15.37</speed><time>2016-07-01T14:06:25Z</time><pdop>3.0</pdop><geoidheight>53.00</geoidheight><course>57.7</course><type>1</type></trkpt>
      <trkpt lat="40.62971809" lon="-4.73785476"><ele>2702</ele><speed>15.06</speed><time>2016-07-01T14:06:26Z</time><pdop>3.0</pdop><geoidheight>53.00</geoidheight><course>57.5</course><type>1</type></trkpt>
      <trkpt lat="40.62978789" lon="-4.73771942"><ele>2698</ele><speed>14.50</speed><time>2016-07-01T14:06:27Z</time><pdop>3.0</pdop><geoidheight>53.00</geoidheight><course>57.2</course><type>1</type></trkpt>
      <trkpt lat="40.62984834" lon="-4.7375939"><ele>2693</ele><speed>14.41</speed><time>2016-07-01T14:06:28Z</time><pdop>3.0</pdop><geoidheight>53.00</geoidheight><course>57.2</course><type>1</type></trkpt>
      <trkpt lat="40.62992041" lon="-4.73745485"><ele>2691</ele><speed>14.09</speed><time>2016-07-01T14:06:29Z</time><pdop>4.0</pdop><geoidheight>53.00</geoidheight><course>55.8</course><type>1</type></trkpt>
      <trkpt lat="40.62998699" lon="-4.73728444"><ele>2689</ele><speed>15.27</speed><time>2016-07-01T14:06:30Z</time><pdop>4.0</pdop><geoidheight>53.00</geoidheight><course>60.2</course><type>1</type></trkpt>
      <trkpt lat="40.63005915" lon="-4.73709866"><ele>2688</ele><speed>16.20</speed><time>2016-07-01T14:06:31Z</time><pdop>5.0</pdop><geoidheight>53.00</geoidheight><course>62.3</course><type>1</type></trkpt>
      <trkpt lat="40.63011911" lon="-4.73694195"><ele>2686</ele><speed>16.04</speed><time>2016-07-01T14:06:32Z</time><pdop>7.0</pdop><geoidheight>53.00</geoidheight><course>63.0</course><type>1</type></trkpt>
      <trkpt lat="40.63017164" lon="-4.73678043"><ele>2684</ele><speed>15.55</speed><time>2016-07-01T14:06:33Z</time><pdop>5.0</pdop><geoidheight>53.00</geoidheight><course>63.3</course><type>1</type></trkpt>
      <trkpt lat="40.63023271" lon="-4.73662171"><ele>2683</ele><speed>15.16</speed><time>2016-07-01T14:06:34Z</time><pdop>6.0</pdop><geoidheight>53.00</geoidheight><course>62.6</course><type>1</type></trkpt>
      <trkpt lat="40.63028465" lon="-4.7364842"><ele>2683</ele><speed>13.84</speed><time>2016-07-01T14:06:35Z</time><pdop>6.0</pdop><geoidheight>53.00</geoidheight><course>62.2</course><type>1</type></trkpt>
      <trkpt lat="40.63030877" lon="-4.73634412"><ele>2682</ele><speed>12.92</speed><time>2016-07-01T14:06:36Z</time><pdop>5.0</pdop><geoidheight>53.00</geoidheight><course>63.4</course><type>1</type></trkpt>
      <trkpt lat="40.630366" lon="-4.73623668"><ele>2681</ele><speed>11.72</speed><time>2016-07-01T14:06:37Z</time><pdop>5.0</pdop><geoidheight>53.00</geoidheight><course>64.7</course><type>1</type></trkpt>
      <trkpt lat="40.63040948" lon="-4.73609523"><ele>2680</ele><speed>11.97</speed><time>2016-07-01T14:06:38Z</time><pdop>6.0</pdop><geoidheight>53.00</geoidheight><course>65.2</course><type>1</type></trkpt>
      <trkpt lat="40.63045249" lon="-4.7359565"><ele>2680</ele><speed>11.99</speed><time>2016-07-01T14:06:39Z</time><pdop>6.0</pdop><geoidheight>53.00</geoidheight><course>67.0</course><type>1</type></trkpt>
      <trkpt lat="40.63051013" lon="-4.73584434"><ele>2672</ele><speed>12.92</speed><time>2016-07-01T14:06:40Z</time><pdop>4.0</pdop><geoidheight>53.00</geoidheight><course>63.5</course><type>1</type></trkpt>
      <trkpt lat="40.63056732" lon="-4.73570021"><ele>2667</ele><speed>13.65</speed><time>2016-07-01T14:06:41Z</time><pdop>4.0</pdop><geoidheight>53.00</geoidheight><course>64.6</course><type>1</type></trkpt>
      <trkpt lat="40.63060349" lon="-4.73555262"><ele>2661</ele><speed>14.77</speed><time>2016-07-01T14:06:42Z</time><pdop>4.0</pdop><geoidheight>53.00</geoidheight><course>66.7</course><type>1</type></trkpt>
      <trkpt lat="40.63066203" lon="-4.7353937"><ele>2656</ele><speed>15.75</speed><time>2016-07-01T14:06:43Z</time><pdop>3.0</pdop><geoidheight>53.00</geoidheight><course>67.2</course><type>1</type></trkpt>
      <trkpt lat="40.6307136" lon="-4.7352294"><ele>2653</ele><speed>15.66</speed><time>2016-07-01T14:06:44Z</time><pdop>4.0</pdop><geoidheight>53.00</geoidheight><course>68.8</course><type>1</type></trkpt>
      <trkpt lat="40.63075367" lon="-4.73507561"><ele>2651</ele><speed>14.65</speed><time>2016-07-01T14:06:45Z</time><pdop>4.0</pdop><geoidheight>53.00</geoidheight><course>70.8</course><type>1</type></trkpt>
      <trkpt lat="40.6307912" lon="-4.7349419"><ele>2650</ele><speed>12.91</speed><time>2016-07-01T14:06:46Z</time><pdop>4.0</pdop><geoidheight>53.00</geoidheight><course>72.1</course><type>1</type></trkpt>
      <trkpt lat="40.63081675" lon="-4.73480143"><ele>2650</ele><speed>12.41</speed><time>2016-07-01T14:06:47Z</time><pdop>4.0</pdop><geoidheight>53.00</geoidheight><course>74.7</course><type>1</type></trkpt>
      <trkpt lat="40.630846" lon="-4.73467086"><ele>2649</ele><speed>11.58</speed><time>2016-07-01T14:06:48Z</time><pdop>5.0</pdop><geoidheight>53.00</geoidheight><course>73.9</course><type>1</type></trkpt>
      <trkpt lat="40.63088772" lon="-4.73453617"><ele>2649</ele><speed>11.72</speed><time>2016-07-01T14:06:49Z</time><pdop>5.0</pdop><geoidheight>53.00</geoidheight><course>69.6</course><type>1</type></trkpt>
      <trkpt lat="40.63091609" lon="-4.73430917"><ele>2636</ele><speed>12.32</speed><time>2016-07-01T14:06:51Z</time><pdop>4.0</pdop><geoidheight>53.00</geoidheight><course>74.5</course><type>1</type></trkpt>
      <trkpt lat="40.63096476" lon="-4.73416456"><ele>2631</ele><speed>13.58</speed><time>2016-07-01T14:06:52Z</time><pdop>5.0</pdop><geoidheight>53.00</geoidheight><course>71.6</course><type>1</type></trkpt>
      <trkpt lat="40.63101308" lon="-4.7340169"><ele>2629</ele><speed>14.20</speed><time>2016-07-01T14:06:53Z</time><pdop>5.0</pdop><geoidheight>53.00</geoidheight><course>70.7</course><type>1</type></trkpt>
      <trkpt lat="40.63106106" lon="-4.73385267"><ele>2627</ele><speed>14.89</speed><time>2016-07-01T14:06:54Z</time><pdop>5.0</pdop><geoidheight>53.00</geoidheight><course>70.2</course><type>1</type></trkpt>
      <trkpt lat="40.63110608" lon="-4.73369226"><ele>2624</ele><speed>14.26</speed><time>2016-07-01T14:06:55Z</time><pdop>4.0</pdop><geoidheight>53.00</geoidheight><course>69.1</course><type>1</type></trkpt>
      <trkpt lat="40.63114405" lon="-4.73354631"><ele>2624</ele><speed>13.08</speed><time>2016-07-01T14:06:56Z</time><pdop>4.0</pdop><geoidheight>53.00</geoidheight><course>68.9</course><type>1</type></trkpt>
      <trkpt lat="40.63117076" lon="-4.73341782"><ele>2624</ele><speed>12.18</speed><time>2016-07-01T14:06:57Z</time><pdop>5.0</pdop><geoidheight>53.00</geoidheight><course>69.6</course><type>1</type></trkpt>
      <trkpt lat="40.63120563" lon="-4.73330228"><ele>2621</ele><speed>11.36</speed><time>2016-07-01T14:06:58Z</time><pdop>5.0</pdop><geoidheight>53.00</geoidheight><course>70.0</course><type>1</type></trkpt>
      <trkpt lat="40.63124243" lon="-4.73317713"><ele>2616</ele><speed>11.84</speed><time>2016-07-01T14:06:59Z</time><pdop>5.0</pdop><geoidheight>53.00</geoidheight><course>70.9</course><type>1</type></trkpt>
      <trkpt lat="40.63128501" lon="-4.73303538"><ele>2614</ele><speed>12.59</speed><time>2016-07-01T14:07:00Z</time><pdop>5.0</pdop><geoidheight>53.00</geoidheight><course>71.2</course><type>1</type></trkpt>
      <trkpt lat="40.63131869" lon="-4.73287934"><ele>2613</ele><speed>13.36</speed><time>2016-07-01T14:07:01Z</time><pdop>7.0</pdop><geoidheight>53.00</geoidheight><course>73.2</course><type>1</type></trkpt>
      <trkpt lat="40.63137741" lon="-4.73270694"><ele>2614</ele><speed>14.66</speed><time>2016-07-01T14:07:02Z</time><pdop>7.0</pdop><geoidheight>53.00</geoidheight><course>69.0</course><type>1</type></trkpt>
      <trkpt lat="40.6314493" lon="-4.73253493"><ele>2614</ele><speed>15.00</speed><time>2016-07-01T14:07:03Z</time><pdop>7.0</pdop><geoidheight>53.00</geoidheight><course>65.4</course><type>1</type></trkpt>
      <trkpt lat="40.63155785" lon="-4.73224851"><ele>2612</ele><speed>13.36</speed><time>2016-07-01T14:07:05Z</time><pdop>7.0</pdop><geoidheight>53.00</geoidheight><course>65.9</course><type>1</type></trkpt>
      <trkpt lat="40.63163789" lon="-4.73197957"><ele>2606</ele><speed>12.70</speed><time>2016-07-01T14:07:07Z</time><pdop>6.0</pdop><geoidheight>53.00</geoidheight><course>69.9</course><type>1</type></trkpt>
      <trkpt lat="40.6317447" lon="-4.73170408"><ele>2600</ele><speed>14.67</speed><time>2016-07-01T14:07:09Z</time><pdop>7.0</pdop><geoidheight>53.00</geoidheight><course>63.6</course><type>1</type></trkpt>
      <trkpt lat="40.6318141" lon="-4.73155016"><ele>2659</ele><speed>15.53</speed><time>2016-07-01T14:07:10Z</time><pdop>6.0</pdop><geoidheight>53.00</geoidheight><course>60.9</course><type>1</type></trkpt>
      <trkpt lat="40.63187228" lon="-4.73138942"><ele>2646</ele><speed>15.26</speed><time>2016-07-01T14:07:11Z</time><pdop>6.0</pdop><geoidheight>53.00</geoidheight><course>62.4</course><type>1</type></trkpt>
      <trkpt lat="40.63193199" lon="-4.73122487"><ele>2634</ele><speed>15.05</speed><time>2016-07-01T14:07:12Z</time><pdop>6.0</pdop><geoidheight>53.00</geoidheight><course>63.2</course><type>1</type></trkpt>
      <trkpt lat="40.63198554" lon="-4.73107643"><ele>2623</ele><speed>14.10</speed><time>2016-07-01T14:07:13Z</time><pdop>7.0</pdop><geoidheight>53.00</geoidheight><course>63.4</course><type>1</type></trkpt>
      <trkpt lat="40.6320563" lon="-4.73092691"><ele>2613</ele><speed>14.48</speed><time>2016-07-01T14:07:14Z</time><pdop>6.0</pdop><geoidheight>53.00</geoidheight><course>60.0</course><type>1</type></trkpt>
      <trkpt lat="40.63217068" lon="-4.7306564"><ele>2607</ele><speed>14.35</speed><time>2016-07-01T14:07:16Z</time><pdop>7.0</pdop><geoidheight>53.00</geoidheight><course>61.4</course><type>1</type></trkpt>
      <trkpt lat="40.63225148" lon="-4.73050508"><ele>2602</ele><speed>15.74</speed><time>2016-07-01T14:07:17Z</time><pdop>6.0</pdop><geoidheight>53.00</geoidheight><course>57.8</course><type>1</type></trkpt>
      <trkpt lat="40.63231852" lon="-4.73036369"><ele>2598</ele><speed>15.52</speed><time>2016-07-01T14:07:18Z</time><pdop>7.0</pdop><geoidheight>53.00</geoidheight><course>57.7</course><type>1</type></trkpt>
      <trkpt lat="40.63238333" lon="-4.73021853"><ele>2596</ele><speed>15.20</speed><time>2016-07-01T14:07:19Z</time><pdop>6.0</pdop><geoidheight>53.00</geoidheight><course>57.3</course><type>1</type></trkpt>
      <trkpt lat="40.63244097" lon="-4.73009812"><ele>2593</ele><speed>13.55</speed><time>2016-07-01T14:07:20Z</time><pdop>6.0</pdop><geoidheight>53.00</geoidheight><course>55.1</course><type>1</type></trkpt>
      <trkpt lat="40.63249384" lon="-4.72995958"><ele>2591</ele><speed>13.39</speed><time>2016-07-01T14:07:21Z</time><pdop>7.0</pdop><geoidheight>53.00</geoidheight><course>57.3</course><type>1</type></trkpt>
      <trkpt lat="40.63261821" lon="-4.72968172"><ele>2589</ele><speed>13.77</speed><time>2016-07-01T14:07:23Z</time><pdop>10.0</pdop><geoidheight>53.00</geoidheight><course>60.0</course><type>1</type></trkpt>
      <trkpt lat="40.63276182" lon="-4.7294008"><ele>2576</ele><speed>15.33</speed><time>2016-07-01T14:07:25Z</time><pdop>7.0</pdop><geoidheight>53.00</geoidheight><course>55.9</course><type>1</type></trkpt>
      <trkpt lat="40.63283377" lon="-4.72925606"><ele>2571</ele><speed>15.25</speed><time>2016-07-01T14:07:26Z</time><pdop>6.0</pdop><geoidheight>53.00</geoidheight><course>56.4</course><type>1</type></trkpt>
      <trkpt lat="40.63290492" lon="-4.72911172"><ele>2568</ele><speed>14.91</speed><time>2016-07-01T14:07:27Z</time><pdop>6.0</pdop><geoidheight>53.00</geoidheight><course>56.6</course><type>1</type></trkpt>
      <trkpt lat="40.63296442" lon="-4.72897534"><ele>2564</ele><speed>14.25</speed><time>2016-07-01T14:07:28Z</time><pdop>6.0</pdop><geoidheight>53.00</geoidheight><course>57.4</course><type>1</type></trkpt>
      <trkpt lat="40.63302516" lon="-4.72884404"><ele>2560</ele><speed>13.21</speed><time>2016-07-01T14:07:29Z</time><pdop>6.0</pdop><geoidheight>53.00</geoidheight><course>57.3</course><type>1</type></trkpt>
      <trkpt lat="40.63308478" lon="-4.72871715"><ele>2557</ele><speed>12.59</speed><time>2016-07-01T14:07:30Z</time><pdop>6.0</pdop><geoidheight>53.00</geoidheight><course>57.6</course><type>1</type></trkpt>
      <trkpt lat="40.63314862" lon="-4.72860195"><ele>2555</ele><speed>12.53</speed><time>2016-07-01T14:07:31Z</time><pdop>6.0</pdop><geoidheight>53.00</geoidheight><course>56.9</course><type>1</type></trkpt>
      <trkpt lat="40.63322185" lon="-4.728482"><ele>2553</ele><speed>12.93</speed><time>2016-07-01T14:07:32Z</time><pdop>7.0</pdop><geoidheight>53.00</geoidheight><course>55.3</course><type>1</type></trkpt>
      <trkpt lat="40.6333727" lon="-4.72822158"><ele>2541</ele><speed>14.89</speed><time>2016-07-01T14:07:34Z</time><pdop>6.0</pdop><geoidheight>53.00</geoidheight><course>56.2</course><type>1</type></trkpt>
      <trkpt lat="40.63345011" lon="-4.7280731"><ele>2537</ele><speed>14.91</speed><time>2016-07-01T14:07:35Z</time><pdop>7.0</pdop><geoidheight>53.00</geoidheight><course>56.3</course><type>1</type></trkpt>
      <trkpt lat="40.63352663" lon="-4.72792056"><ele>2534</ele><speed>15.20</speed><time>2016-07-01T14:07:36Z</time><pdop>6.0</pdop><geoidheight>53.00</geoidheight><course>55.4</course><type>1</type></trkpt>
      <trkpt lat="40.63360912" lon="-4.72778674"><ele>2532</ele><speed>14.85</speed><time>2016-07-01T14:07:37Z</time><pdop>6.0</pdop><geoidheight>53.00</geoidheight><course>54.6</course><type>1</type></trkpt>
      <trkpt lat="40.63368467" lon="-4.72765931"><ele>2529</ele><speed>13.91</speed><time>2016-07-01T14:07:38Z</time><pdop>6.0</pdop><geoidheight>53.00</geoidheight><course>53.1</course><type>1</type></trkpt>
      <trkpt lat="40.63375269" lon="-4.72753588"><ele>2526</ele><speed>13.18</speed><time>2016-07-01T14:07:39Z</time><pdop>6.0</pdop><geoidheight>53.00</geoidheight><course>53.1</course><type>1</type></trkpt>
      <trkpt lat="40.63382289" lon="-4.72741723"><ele>2522</ele><speed>12.64</speed><time>2016-07-01T14:07:40Z</time><pdop>6.0</pdop><geoidheight>53.00</geoidheight><course>53.8</course><type>1</type></trkpt>
      <trkpt lat="40.63388605" lon="-4.72727989"><ele>2518</ele><speed>13.44</speed><time>2016-07-01T14:07:41Z</time><pdop>6.0</pdop><geoidheight>53.00</geoidheight><course>56.1</course><type>1</type></trkpt>
      <trkpt lat="40.63396373" lon="-4.72714835"><ele>2516</ele><speed>14.10</speed><time>2016-07-01T14:07:42Z</time><pdop>6.0</pdop><geoidheight>53.00</geoidheight><course>52.7</course><type>1</type></trkpt>
      <trkpt lat="40.63404005" lon="-4.72700941"><ele>2514</ele><speed>14.24</speed><time>2016-07-01T14:07:43Z</time><pdop>6.0</pdop><geoidheight>53.00</geoidheight><course>52.3</course><type>1</type></trkpt>
      <trkpt lat="40.63412028" lon="-4.72689047"><ele>2510</ele><speed>14.26</speed><time>2016-07-01T14:07:44Z</time><pdop>7.0</pdop><geoidheight>53.00</geoidheight><course>51.3</course><type>1</type></trkpt>
      <trkpt lat="40.63420178" lon="-4.72676401"><ele>2508</ele><speed>14.05</speed><time>2016-07-01T14:07:45Z</time><pdop>6.0</pdop><geoidheight>53.00</geoidheight><course>51.4</course><type>1</type></trkpt>
      <trkpt lat="40.63434359" lon="-4.72652291"><ele>2506</ele><speed>13.01</speed><time>2016-07-01T14:07:47Z</time><pdop>7.0</pdop><geoidheight>53.00</geoidheight><course>52.3</course><type>1</type></trkpt>
      <trkpt lat="40.63448714" lon="-4.72625882"><ele>2504</ele><speed>13.81</speed><time>2016-07-01T14:07:49Z</time><pdop>8.0</pdop><geoidheight>53.00</geoidheight><course>55.6</course><type>1</type></trkpt>
      <trkpt lat="40.63459624" lon="-4.72596073"><ele>2495</ele><speed>14.52</speed><time>2016-07-01T14:07:51Z</time><pdop>7.0</pdop><geoidheight>53.00</geoidheight><course>62.2</course><type>1</type></trkpt>
      <trkpt lat="40.6346446" lon="-4.72581852"><ele>2490</ele><speed>14.28</speed><time>2016-07-01T14:07:52Z</time><pdop>6.0</pdop><geoidheight>53.00</geoidheight><course>61.9</course><type>1</type></trkpt>
      <trkpt lat="40.63470139" lon="-4.72569006"><ele>2487</ele><speed>13.94</speed><time>2016-07-01T14:07:53Z</time><pdop>6.0</pdop><geoidheight>53.00</geoidheight><course>61.5</course><type>1</type></trkpt>
      <trkpt lat="40.63476038" lon="-4.72555306"><ele>2483</ele><speed>13.94</speed><time>2016-07-01T14:07:54Z</time><pdop>5.0</pdop><geoidheight>53.00</geoidheight><course>60.8</course><type>1</type></trkpt>
      <trkpt lat="40.63481869" lon="-4.72540909"><ele>2478</ele><speed>14.11</speed><time>2016-07-01T14:07:55Z</time><pdop>5.0</pdop><geoidheight>53.00</geoidheight><course>59.6</course><type>1</type></trkpt>
      <trkpt lat="40.63487635" lon="-4.72526709"><ele>2474</ele><speed>14.25</speed><time>2016-07-01T14:07:56Z</time><pdop>5.0</pdop><geoidheight>53.00</geoidheight><course>59.1</course><type>1</type></trkpt>
      <trkpt lat="40.63494306" lon="-4.72512267"><ele>2471</ele><speed>14.25</speed><time>2016-07-01T14:07:57Z</time><pdop>5.0</pdop><geoidheight>53.00</geoidheight><course>58.5</course><type>1</type></trkpt>
      <trkpt lat="40.63500689" lon="-4.72497959"><ele>2467</ele><speed>14.41</speed><time>2016-07-01T14:07:58Z</time><pdop>5.0</pdop><geoidheight>53.00</geoidheight><course>59.7</course><type>1</type></trkpt>
      <trkpt lat="40.63505751" lon="-4.72484324"><ele>2465</ele><speed>14.04</speed><time>2016-07-01T14:07:59Z</time><pdop>5.0</pdop><geoidheight>53.00</geoidheight><course>60.2</course><type>1</type></trkpt>
      <trkpt lat="40.63511831" lon="-4.72472232"><ele>2463</ele><speed>13.40</speed><time>2016-07-01T14:08:00Z</time><pdop>6.0</pdop><geoidheight>53.00</geoidheight><course>59.3</course><type>1</type></trkpt>
      <trkpt lat="40.63516974" lon="-4.72458927"><ele>2460</ele><speed>13.11</speed><time>2016-07-01T14:08:01Z</time><pdop>5.0</pdop><geoidheight>53.00</geoidheight><course>60.2</course><type>1</type></trkpt>
      <trkpt lat="40.63522201" lon="-4.72444913"><ele>2456</ele><speed>13.21</speed><time>2016-07-01T14:08:02Z</time><pdop>5.0</pdop><geoidheight>53.00</geoidheight><course>61.9</course><type>1</type></trkpt>
      <trkpt lat="40.63527822" lon="-4.72431523"><ele>2454</ele><speed>13.38</speed><time>2016-07-01T14:08:03Z</time><pdop>6.0</pdop><geoidheight>53.00</geoidheight><course>62.4</course><type>1</type></trkpt>
      <trkpt lat="40.63533999" lon="-4.72417591"><ele>2451</ele><speed>13.71</speed><time>2016-07-01T14:08:04Z</time><pdop>5.0</pdop><geoidheight>53.00</geoidheight><course>61.9</course><type>1</type></trkpt>
      <trkpt lat="40.63540261" lon="-4.72402865"><ele>2448</ele><speed>13.87</speed><time>2016-07-01T14:08:05Z</time><pdop>6.0</pdop><geoidheight>53.00</geoidheight><course>60.7</course><type>1</type></trkpt>
      <trkpt lat="40.6354636" lon="-4.7238735"><ele>2449</ele><speed>14.02</speed><time>2016-07-01T14:08:06Z</time><pdop>7.0</pdop><geoidheight>53.00</geoidheight><course>61.3</course><type>1</type></trkpt>
      <trkpt lat="40.63552866" lon="-4.72373658"><ele>2446</ele><speed>13.64</speed><time>2016-07-01T14:08:07Z</time><pdop>6.0</pdop><geoidheight>53.00</geoidheight><course>59.3</course><type>1</type></trkpt>
      <trkpt lat="40.63559456" lon="-4.72359298"><ele>2443</ele><speed>14.19</speed><time>2016-07-01T14:08:08Z</time><pdop>6.0</pdop><geoidheight>53.00</geoidheight><course>59.2</course><type>1</type></trkpt>
      <trkpt lat="40.63566689" lon="-4.72344334"><ele>2441</ele><speed>14.67</speed><time>2016-07-01T14:08:09Z</time><pdop>6.0</pdop><geoidheight>53.00</geoidheight><course>58.3</course><type>1</type></trkpt>
      <trkpt lat="40.63572703" lon="-4.72330264"><ele>2438</ele><speed>14.34</speed><time>2016-07-01T14:08:10Z</time><pdop>5.0</pdop><geoidheight>53.00</geoidheight><course>58.5</course><type>1</type></trkpt>
      <trkpt lat="40.63579729" lon="-4.72315675"><ele>2438</ele><speed>14.04</speed><time>2016-07-01T14:08:11Z</time><pdop>6.0</pdop><geoidheight>53.00</geoidheight><course>59.1</course><type>1</type></trkpt>
      <trkpt lat="40.63585113" lon="-4.72301524"><ele>2436</ele><speed>13.37</speed><time>2016-07-01T14:08:12Z</time><pdop>5.0</pdop><geoidheight>53.00</geoidheight><course>60.3</course><type>1</type></trkpt>
      <trkpt lat="40.63590575" lon="-4.72288751"><ele>2434</ele><speed>12.84</speed><time>2016-07-01T14:08:13Z</time><pdop>5.0</pdop><geoidheight>53.00</geoidheight><course>62.2</course><type>1</type></trkpt>
      <trkpt lat="40.63595828" lon="-4.72275437"><ele>2433</ele><speed>12.65</speed><time>2016-07-01T14:08:14Z</time><pdop>5.0</pdop><geoidheight>53.00</geoidheight><course>62.2</course><type>1</type></trkpt>
      <trkpt lat="40.63600989" lon="-4.7226256"><ele>2430</ele><speed>12.89</speed><time>2016-07-01T14:08:15Z</time><pdop>5.0</pdop><geoidheight>53.00</geoidheight><course>62.7</course><type>1</type></trkpt>
      <trkpt lat="40.63606464" lon="-4.72247613"><ele>2430</ele><speed>13.70</speed><time>2016-07-01T14:08:16Z</time><pdop>5.0</pdop><geoidheight>53.00</geoidheight><course>63.1</course><type>1</type></trkpt>
      <trkpt lat="40.63611536" lon="-4.72232861"><ele>2428</ele><speed>14.26</speed><time>2016-07-01T14:08:17Z</time><pdop>5.0</pdop><geoidheight>53.00</geoidheight><course>61.7</course><type>1</type></trkpt>
      <trkpt lat="40.63617809" lon="-4.72216952"><ele>2426</ele><speed>14.90</speed><time>2016-07-01T14:08:18Z</time><pdop>5.0</pdop><geoidheight>53.00</geoidheight><course>60.7</course><type>1</type></trkpt>
      <trkpt lat="40.6362317" lon="-4.72202662"><ele>2424</ele><speed>14.86</speed><time>2016-07-01T14:08:19Z</time><pdop>5.0</pdop><geoidheight>53.00</geoidheight><course>61.2</course><type>1</type></trkpt>
      <trkpt lat="40.63629606" lon="-4.72186399"><ele>2424</ele><speed>15.15</speed><time>2016-07-01T14:08:20Z</time><pdop>6.0</pdop><geoidheight>53.00</geoidheight><course>61.6</course><type>1</type></trkpt>
      <trkpt lat="40.6363474" lon="-4.72170971"><ele>2422</ele><speed>15.03</speed><time>2016-07-01T14:08:21Z</time><pdop>6.0</pdop><geoidheight>53.00</geoidheight><course>63.2</course><type>1</type></trkpt>
      <trkpt lat="40.63641279" lon="-4.72154385"><ele>2421</ele><speed>15.03</speed><time>2016-07-01T14:08:22Z</time><pdop>5.0</pdop><geoidheight>53.00</geoidheight><course>63.6</course><type>1</type></trkpt>
      <trkpt lat="40.63648078" lon="-4.72139254"><ele>2419</ele><speed>15.36</speed><time>2016-07-01T14:08:23Z</time><pdop>5.0</pdop><geoidheight>53.00</geoidheight><course>62.6</course><type>1</type></trkpt>
      <trkpt lat="40.63655467" lon="-4.7212397"><ele>2418</ele><speed>15.69</speed><time>2016-07-01T14:08:24Z</time><pdop>4.0</pdop><geoidheight>53.00</geoidheight><course>59.8</course><type>1</type></trkpt>
      <trkpt lat="40.63662945" lon="-4.7210892"><ele>2418</ele><speed>15.67</speed><time>2016-07-01T14:08:25Z</time><pdop>4.0</pdop><geoidheight>53.00</geoidheight><course>58.9</course><type>1</type></trkpt>
      <trkpt lat="40.63669979" lon="-4.72092413"><ele>2418</ele><speed>15.39</speed><time>2016-07-01T14:08:26Z</time><pdop>4.0</pdop><geoidheight>53.00</geoidheight><course>59.4</course><type>1</type></trkpt>
      <trkpt lat="40.636767" lon="-4.72076577"><ele>2418</ele><speed>15.21</speed><time>2016-07-01T14:08:27Z</time><pdop>5.0</pdop><geoidheight>53.00</geoidheight><course>60.0</course><type>1</type></trkpt>
      <trkpt lat="40.636824" lon="-4.72061113"><ele>2417</ele><speed>14.87</speed><time>2016-07-01T14:08:28Z</time><pdop>4.0</pdop><geoidheight>53.00</geoidheight><course>61.4</course><type>1</type></trkpt>
      <trkpt lat="40.63688552" lon="-4.72046839"><ele>2418</ele><speed>13.80</speed><time>2016-07-01T14:08:29Z</time><pdop>5.0</pdop><geoidheight>53.00</geoidheight><course>61.8</course><type>1</type></trkpt>
      <trkpt lat="40.63692561" lon="-4.72033706"><ele>2421</ele><speed>12.48</speed><time>2016-07-01T14:08:30Z</time><pdop>4.0</pdop><geoidheight>53.00</geoidheight><course>66.9</course><type>1</type></trkpt>
      <trkpt lat="40.63696087" lon="-4.7202189"><ele>2426</ele><speed>11.46</speed><time>2016-07-01T14:08:31Z</time><pdop>5.0</pdop><geoidheight>53.00</geoidheight><course>67.0</course><type>1</type></trkpt>
      <trkpt lat="40.6370065" lon="-4.72003433"><ele>2425</ele><speed>8.86</speed><time>2016-07-01T14:08:33Z</time><pdop>4.0</pdop><geoidheight>53.00</geoidheight><course>69.7</course><type>1</type></trkpt>
      <trkpt lat="40.63703491" lon="-4.71992841"><ele>2424</ele><speed>9.71</speed><time>2016-07-01T14:08:34Z</time><pdop>4.0</pdop><geoidheight>53.00</geoidheight><course>69.5</course><type>1</type></trkpt>
      <trkpt lat="40.63707771" lon="-4.71982493"><ele>2423</ele><speed>11.24</speed><time>2016-07-01T14:08:35Z</time><pdop>4.0</pdop><geoidheight>53.00</geoidheight><course>65.7</course><type>1</type></trkpt>
      <trkpt lat="40.63711887" lon="-4.71969953"><ele>2423</ele><speed>12.03</speed><time>2016-07-01T14:08:36Z</time><pdop>4.0</pdop><geoidheight>53.00</geoidheight><course>68.0</course><type>1</type></trkpt>
      <trkpt lat="40.63715738" lon="-4.71955654"><ele>2424</ele><speed>12.26</speed><time>2016-07-01T14:08:37Z</time><pdop>4.0</pdop><geoidheight>53.00</geoidheight><course>69.9</course><type>1</type></trkpt>
      <trkpt lat="40.63719355" lon="-4.71942468"><ele>2425</ele><speed>11.77</speed><time>2016-07-01T14:08:38Z</time><pdop>4.0</pdop><geoidheight>53.00</geoidheight><course>71.1</course><type>1</type></trkpt>
      <trkpt lat="40.6372237" lon="-4.71929317"><ele>2426</ele><speed>11.63</speed><time>2016-07-01T14:08:39Z</time><pdop>4.0</pdop><geoidheight>53.00</geoidheight><course>72.1</course><type>1</type></trkpt>
      <trkpt lat="40.63725223" lon="-4.71916982"><ele>2425</ele><speed>10.72</speed><time>2016-07-01T14:08:40Z</time><pdop>4.0</pdop><geoidheight>53.00</geoidheight><course>71.6</course><type>1</type></trkpt>
      <trkpt lat="40.63728496" lon="-4.71904707"><ele>2425</ele><speed>10.70</speed><time>2016-07-01T14:08:41Z</time><pdop>4.0</pdop><geoidheight>53.00</geoidheight><course>70.8</course><type>1</type></trkpt>
      <trkpt lat="40.6373207" lon="-4.71892196"><ele>2424</ele><speed>10.83</speed><time>2016-07-01T14:08:42Z</time><pdop>4.0</pdop><geoidheight>53.00</geoidheight><course>70.7</course><type>1</type></trkpt>
      <trkpt lat="40.63735687" lon="-4.71879497"><ele>2424</ele><speed>11.21</speed><time>2016-07-01T14:08:43Z</time><pdop>4.0</pdop><geoidheight>53.00</geoidheight><course>71.2</course><type>1</type></trkpt>
      <trkpt lat="40.63739144" lon="-4.71865526"><ele>2424</ele><speed>11.69</speed><time>2016-07-01T14:08:44Z</time><pdop>4.0</pdop><geoidheight>53.00</geoidheight><course>70.9</course><type>1</type></trkpt>
      <trkpt lat="40.63742843" lon="-4.71853025"><ele>2424</ele><speed>11.85</speed><time>2016-07-01T14:08:45Z</time><pdop>4.0</pdop><geoidheight>53.00</geoidheight><course>67.4</course><type>1</type></trkpt>
      <trkpt lat="40.63747016" lon="-4.71840586"><ele>2424</ele><speed>11.38</speed><time>2016-07-01T14:08:46Z</time><pdop>5.0</pdop><geoidheight>53.00</geoidheight><course>66.2</course><type>1</type></trkpt>
      <trkpt lat="40.63753955" lon="-4.7181604"><ele>2425</ele><speed>11.12</speed><time>2016-07-01T14:08:48Z</time><pdop>6.0</pdop><geoidheight>53.00</geoidheight><course>67.8</course><type>1</type></trkpt>
      <trkpt lat="40.63758263" lon="-4.71801853"><ele>2425</ele><speed>11.92</speed><time>2016-07-01T14:08:49Z</time><pdop>5.0</pdop><geoidheight>53.00</geoidheight><course>68.6</course><type>1</type></trkpt>
      <trkpt lat="40.63762779" lon="-4.71788574"><ele>2425</ele><speed>12.06</speed><time>2016-07-01T14:08:50Z</time><pdop>5.0</pdop><geoidheight>53.00</geoidheight><course>67.7</course><type>1</type></trkpt>
      <trkpt lat="40.63767233" lon="-4.71774018"><ele>2426</ele><speed>12.19</speed><time>2016-07-01T14:08:51Z</time><pdop>6.0</pdop><geoidheight>53.00</geoidheight><course>67.6</course><type>1</type></trkpt>
      <trkpt lat="40.63772083" lon="-4.717599"><ele>2426</ele><speed>12.25</speed><time>2016-07-01T14:08:52Z</time><pdop>5.0</pdop><geoidheight>53.00</geoidheight><course>68.6</course><type>1</type></trkpt>
      <trkpt lat="40.63777039" lon="-4.71746943"><ele>2426</ele><speed>12.09</speed><time>2016-07-01T14:08:53Z</time><pdop>5.0</pdop><geoidheight>53.00</geoidheight><course>69.3</course><type>1</type></trkpt>
      <trkpt lat="40.63780225" lon="-4.71733524"><ele>2425</ele><speed>12.33</speed><time>2016-07-01T14:08:54Z</time><pdop>4.0</pdop><geoidheight>53.00</geoidheight><course>70.1</course><type>1</type></trkpt>
      <trkpt lat="40.63784188" lon="-4.71718866"><ele>2424</ele><speed>12.75</speed><time>2016-07-01T14:08:55Z</time><pdop>4.0</pdop><geoidheight>53.00</geoidheight><course>70.3</course><type>1</type></trkpt>
      <trkpt lat="40.63789184" lon="-4.71706386"><ele>2422</ele><speed>13.38</speed><time>2016-07-01T14:08:56Z</time><pdop>4.0</pdop><geoidheight>53.00</geoidheight><course>67.9</course><type>1</type></trkpt>
      <trkpt lat="40.63793237" lon="-4.71693186"><ele>2421</ele><speed>13.62</speed><time>2016-07-01T14:08:57Z</time><pdop>4.0</pdop><geoidheight>53.00</geoidheight><course>67.4</course><type>1</type></trkpt>
      <trkpt lat="40.63797632" lon="-4.71679686"><ele>2421</ele><speed>13.37</speed><time>2016-07-01T14:08:58Z</time><pdop>5.0</pdop><geoidheight>53.00</geoidheight><course>67.3</course><type>1</type></trkpt>
      <trkpt lat="40.63800824" lon="-4.71666271"><ele>2420</ele><speed>12.44</speed><time>2016-07-01T14:08:59Z</time><pdop>6.0</pdop><geoidheight>53.00</geoidheight><course>68.6</course><type>1</type></trkpt>
      <trkpt lat="40.63808118" lon="-4.71640703"><ele>2419</ele><speed>11.94</speed><time>2016-07-01T14:09:01Z</time><pdop>8.0</pdop><geoidheight>53.00</geoidheight><course>70.0</course><type>1</type></trkpt>
      <trkpt lat="40.63817033" lon="-4.71610938"><ele>2420</ele><speed>13.21</speed><time>2016-07-01T14:09:03Z</time><pdop>6.0</pdop><geoidheight>53.00</geoidheight><course>71.6</course><type>1</type></trkpt>
      <trkpt lat="40.63821617" lon="-4.71595904"><ele>2418</ele><speed>13.26</speed><time>2016-07-01T14:09:04Z</time><pdop>6.0</pdop><geoidheight>53.00</geoidheight><course>71.6</course><type>1</type></trkpt>
      <trkpt lat="40.63823395" lon="-4.71580646"><ele>2418</ele><speed>12.86</speed><time>2016-07-01T14:09:05Z</time><pdop>6.0</pdop><geoidheight>53.00</geoidheight><course>75.6</course><type>1</type></trkpt>
      <trkpt lat="40.63828899" lon="-4.71555721"><ele>2417</ele><speed>11.61</speed><time>2016-07-01T14:09:07Z</time><pdop>6.0</pdop><geoidheight>53.00</geoidheight><course>74.8</course><type>1</type></trkpt>
      <trkpt lat="40.63830687" lon="-4.71541605"><ele>2417</ele><speed>11.92</speed><time>2016-07-01T14:09:08Z</time><pdop>5.0</pdop><geoidheight>53.00</geoidheight><course>75.2</course><type>1</type></trkpt>
      <trkpt lat="40.63834305" lon="-4.71527186"><ele>2416</ele><speed>12.44</speed><time>2016-07-01T14:09:09Z</time><pdop>5.0</pdop><geoidheight>53.00</geoidheight><course>73.3</course><type>1</type></trkpt>
      <trkpt lat="40.63838125" lon="-4.71512013"><ele>2416</ele><speed>12.99</speed><time>2016-07-01T14:09:10Z</time><pdop>5.0</pdop><geoidheight>53.00</geoidheight><course>72.5</course><type>1</type></trkpt>
      <trkpt lat="40.63841667" lon="-4.71496648"><ele>2415</ele><speed>13.32</speed><time>2016-07-01T14:09:11Z</time><pdop>4.0</pdop><geoidheight>53.00</geoidheight><course>73.1</course><type>1</type></trkpt>
      <trkpt lat="40.63845415" lon="-4.71483047"><ele>2415</ele><speed>12.59</speed><time>2016-07-01T14:09:12Z</time><pdop>4.0</pdop><geoidheight>53.00</geoidheight><course>73.1</course><type>1</type></trkpt>
      <trkpt lat="40.63848674" lon="-4.71468836"><ele>2417</ele><speed>12.19</speed><time>2016-07-01T14:09:13Z</time><pdop>4.0</pdop><geoidheight>53.00</geoidheight><course>74.5</course><type>1</type></trkpt>
      <trkpt lat="40.63850864" lon="-4.71454784"><ele>2418</ele><speed>11.47</speed><time>2016-07-01T14:09:14Z</time><pdop>4.0</pdop><geoidheight>53.00</geoidheight><course>75.7</course><type>1</type></trkpt>
      <trkpt lat="40.63853683" lon="-4.71443206"><ele>2418</ele><speed>11.16</speed><time>2016-07-01T14:09:15Z</time><pdop>4.0</pdop><geoidheight>53.00</geoidheight><course>75.7</course><type>1</type></trkpt>
      <trkpt lat="40.6385543" lon="-4.71431038"><ele>2418</ele><speed>10.85</speed><time>2016-07-01T14:09:16Z</time><pdop>3.0</pdop><geoidheight>53.00</geoidheight><course>75.3</course><type>1</type></trkpt>
      <trkpt lat="40.63857945" lon="-4.71418702"><ele>2418</ele><speed>10.93</speed><time>2016-07-01T14:09:17Z</time><pdop>3.0</pdop><geoidheight>53.00</geoidheight><course>75.7</course><type>1</type></trkpt>
      <trkpt lat="40.63860634" lon="-4.71406945"><ele>2418</ele><speed>10.85</speed><time>2016-07-01T14:09:18Z</time><pdop>3.0</pdop><geoidheight>53.00</geoidheight><course>75.4</course><type>1</type></trkpt>
      <trkpt lat="40.63863044" lon="-4.71393496"><ele>2418</ele><speed>11.09</speed><time>2016-07-01T14:09:19Z</time><pdop>4.0</pdop><geoidheight>53.00</geoidheight><course>77.2</course><type>1</type></trkpt>
      <trkpt lat="40.6386565" lon="-4.713794"><ele>2418</ele><speed>11.38</speed><time>2016-07-01T14:09:20Z</time><pdop>4.0</pdop><geoidheight>53.00</geoidheight><course>75.7</course><type>1</type></trkpt>
      <trkpt lat="40.6386734" lon="-4.71367167"><ele>2419</ele><speed>11.22</speed><time>2016-07-01T14:09:21Z</time><pdop>4.0</pdop><geoidheight>53.00</geoidheight><course>75.6</course><type>1</type></trkpt>
      <trkpt lat="40.63870151" lon="-4.7135706"><ele>2420</ele><speed>10.49</speed><time>2016-07-01T14:09:22Z</time><pdop>4.0</pdop><geoidheight>53.00</geoidheight><course>71.8</course><type>1</type></trkpt>
      <trkpt lat="40.6387377" lon="-4.71346686"><ele>2420</ele><speed>9.97</speed><time>2016-07-01T14:09:23Z</time><pdop>4.0</pdop><geoidheight>53.00</geoidheight><course>70.1</course><type>1</type></trkpt>
      <trkpt lat="40.63876574" lon="-4.71334823"><ele>2421</ele><speed>10.03</speed><time>2016-07-01T14:09:24Z</time><pdop>3.0</pdop><geoidheight>53.00</geoidheight><course>69.2</course><type>1</type></trkpt>
      <trkpt lat="40.63879819" lon="-4.71324136"><ele>2421</ele><speed>9.99</speed><time>2016-07-01T14:09:25Z</time><pdop>3.0</pdop><geoidheight>53.00</geoidheight><course>66.7</course><type>1</type></trkpt>
      <trkpt lat="40.63883339" lon="-4.71311735"><ele>2421</ele><speed>10.25</speed><time>2016-07-01T14:09:26Z</time><pdop>4.0</pdop><geoidheight>53.00</geoidheight><course>67.5</course><type>1</type></trkpt>
      <trkpt lat="40.63886853" lon="-4.71299454"><ele>2422</ele><speed>10.55</speed><time>2016-07-01T14:09:27Z</time><pdop>5.0</pdop><geoidheight>53.00</geoidheight><course>68.0</course><type>1</type></trkpt>
      <trkpt lat="40.63895999" lon="-4.71276296"><ele>2422</ele><speed>11.24</speed><time>2016-07-01T14:09:29Z</time><pdop>7.0</pdop><geoidheight>53.00</geoidheight><course>65.4</course><type>1</type></trkpt>
      <trkpt lat="40.63897396" lon="-4.7126278"><ele>2424</ele><speed>11.59</speed><time>2016-07-01T14:09:30Z</time><pdop>4.0</pdop><geoidheight>53.00</geoidheight><course>72.9</course><type>1</type></trkpt>
      <trkpt lat="40.63899639" lon="-4.71248566"><ele>2425</ele><speed>11.70</speed><time>2016-07-01T14:09:31Z</time><pdop>4.0</pdop><geoidheight>53.00</geoidheight><course>74.3</course><type>1</type></trkpt>
      <trkpt lat="40.63903011" lon="-4.71236315"><ele>2425</ele><speed>11.73</speed><time>2016-07-01T14:09:32Z</time><pdop>5.0</pdop><geoidheight>53.00</geoidheight><course>73.7</course><type>1</type></trkpt>
      <trkpt lat="40.63907647" lon="-4.71222124"><ele>2426</ele><speed>12.14</speed><time>2016-07-01T14:09:33Z</time><pdop>5.0</pdop><geoidheight>53.00</geoidheight><course>71.8</course><type>1</type></trkpt>
      <trkpt lat="40.63910672" lon="-4.71208747"><ele>2425</ele><speed>12.16</speed><time>2016-07-01T14:09:34Z</time><pdop>5.0</pdop><geoidheight>53.00</geoidheight><course>72.5</course><type>1</type></trkpt>
      <trkpt lat="40.63909628" lon="-4.71194339"><ele>2426</ele><speed>11.97</speed><time>2016-07-01T14:09:35Z</time><pdop>5.0</pdop><geoidheight>53.00</geoidheight><course>76.5</course><type>1</type></trkpt>
      <trkpt lat="40.63913674" lon="-4.71180889"><ele>2426</ele><speed>11.89</speed><time>2016-07-01T14:09:36Z</time><pdop>4.0</pdop><geoidheight>53.00</geoidheight><course>73.1</course><type>1</type></trkpt>
      <trkpt lat="40.63917187" lon="-4.71166791"><ele>2427</ele><speed>11.91</speed><time>2016-07-01T14:09:37Z</time><pdop>4.0</pdop><geoidheight>53.00</geoidheight><course>72.8</course><type>1</type></trkpt>
      <trkpt lat="40.63921806" lon="-4.71153323"><ele>2429</ele><speed>12.10</speed><time>2016-07-01T14:09:38Z</time><pdop>4.0</pdop><geoidheight>53.00</geoidheight><course>71.5</course><type>1</type></trkpt>
      <trkpt lat="40.63924286" lon="-4.71140512"><ele>2429</ele><speed>11.26</speed><time>2016-07-01T14:09:39Z</time><pdop>4.0</pdop><geoidheight>53.00</geoidheight><course>75.4</course><type>1</type></trkpt>
      <trkpt lat="40.63925289" lon="-4.7112848"><ele>2429</ele><speed>10.62</speed><time>2016-07-01T14:09:40Z</time><pdop>4.0</pdop><geoidheight>53.00</geoidheight><course>76.5</course><type>1</type></trkpt>
      <trkpt lat="40.63927008" lon="-4.71114777"><ele>2430</ele><speed>10.95</speed><time>2016-07-01T14:09:41Z</time><pdop>4.0</pdop><geoidheight>53.00</geoidheight><course>77.4</course><type>1</type></trkpt>
      <trkpt lat="40.63930479" lon="-4.71101674"><ele>2431</ele><speed>10.85</speed><time>2016-07-01T14:09:42Z</time><pdop>5.0</pdop><geoidheight>53.00</geoidheight><course>75.3</course><type>1</type></trkpt>
      <trkpt lat="40.63932845" lon="-4.71090301"><ele>2431</ele><speed>10.13</speed><time>2016-07-01T14:09:43Z</time><pdop>4.0</pdop><geoidheight>53.00</geoidheight><course>77.4</course><type>1</type></trkpt>
      <trkpt lat="40.63934412" lon="-4.71077235"><ele>2433</ele><speed>10.59</speed><time>2016-07-01T14:09:44Z</time><pdop>4.0</pdop><geoidheight>53.00</geoidheight><course>78.7</course><type>1</type></trkpt>
      <trkpt lat="40.63934177" lon="-4.71064427"><ele>2434</ele><speed>10.55</speed><time>2016-07-01T14:09:45Z</time><pdop>4.0</pdop><geoidheight>53.00</geoidheight><course>86.5</course><type>1</type></trkpt>
      <trkpt lat="40.63933883" lon="-4.71051251"><ele>2437</ele><speed>10.80</speed><time>2016-07-01T14:09:46Z</time><pdop>4.0</pdop><geoidheight>53.00</geoidheight><course>87.6</course><type>1</type></trkpt>
      <trkpt lat="40.63932876" lon="-4.7103805"><ele>2441</ele><speed>10.44</speed><time>2016-07-01T14:09:47Z</time><pdop>4.0</pdop><geoidheight>53.00</geoidheight><course>88.7</course><type>1</type></trkpt>
      <trkpt lat="40.63932539" lon="-4.71014223"><ele>2442</ele><speed>10.32</speed><time>2016-07-01T14:09:49Z</time><pdop>10.0</pdop><geoidheight>53.00</geoidheight><course>89.5</course><type>1</type></trkpt>
      <trkpt lat="40.63940973" lon="-4.70982544"><ele>2447</ele><speed>8.66</speed><time>2016-07-01T14:09:52Z</time><pdop>11.0</pdop><geoidheight>53.00</geoidheight><course>77.4</course><type>1</type></trkpt>
      <trkpt lat="40.63945771" lon="-4.70952764"><ele>2452</ele><speed>8.37</speed><time>2016-07-01T14:09:55Z</time><pdop>12.0</pdop><geoidheight>53.00</geoidheight><course>74.9</course><type>1</type></trkpt>
      <trkpt lat="40.63955518" lon="-4.70922951"><ele>2458</ele><speed>8.94</speed><time>2016-07-01T14:09:58Z</time><pdop>13.0</pdop><geoidheight>53.00</geoidheight><course>69.6</course><type>1</type></trkpt>
      <trkpt lat="40.63971237" lon="-4.70884803"><ele>2468</ele><speed>12.02</speed><time>2016-07-01T14:10:01Z</time><pdop>10.0</pdop><geoidheight>53.00</geoidheight><course>74.8</course><type>1</type></trkpt>
      <trkpt lat="40.63975519" lon="-4.70854318"><ele>2475</ele><speed>13.06</speed><time>2016-07-01T14:10:03Z</time><pdop>10.0</pdop><geoidheight>53.00</geoidheight><course>80.1</course><type>1</type></trkpt>
      <trkpt lat="40.63979615" lon="-4.70827227"><ele>2482</ele><speed>11.19</speed><time>2016-07-01T14:10:05Z</time><pdop>11.0</pdop><geoidheight>53.00</geoidheight><course>79.7</course><type>1</type></trkpt>
      <trkpt lat="40.63980231" lon="-4.70789299"><ele>2489</ele><speed>10.65</speed><time>2016-07-01T14:10:08Z</time><pdop>10.0</pdop><geoidheight>53.00</geoidheight><course>88.8</course><type>1</type></trkpt>
      <trkpt lat="40.63982776" lon="-4.70760061"><ele>2494</ele><speed>11.17</speed><time>2016-07-01T14:10:10Z</time><pdop>10.0</pdop><geoidheight>53.00</geoidheight><course>83.7</course><type>1</type></trkpt>
      <trkpt lat="40.63986625" lon="-4.70736034"><ele>2498</ele><speed>9.94</speed><time>2016-07-01T14:10:12Z</time><pdop>10.0</pdop><geoidheight>53.00</geoidheight><course>79.6</course><type>1</type></trkpt>
      <trkpt lat="40.63990239" lon="-4.70701038"><ele>2510</ele><speed>8.98</speed><time>2016-07-01T14:10:15Z</time><pdop>10.0</pdop><geoidheight>53.00</geoidheight><course>85.6</course><type>1</type></trkpt>
      <trkpt lat="40.63990096" lon="-4.70676023"><ele>2527</ele><speed>10.07</speed><time>2016-07-01T14:10:17Z</time><pdop>10.0</pdop><geoidheight>53.00</geoidheight><course>91.1</course><type>1</type></trkpt>
      <trkpt lat="40.63991017" lon="-4.70651489"><ele>2534</ele><speed>10.09</speed><time>2016-07-01T14:10:19Z</time><pdop>10.0</pdop><geoidheight>53.00</geoidheight><course>86.6</course><type>1</type></trkpt>
      <trkpt lat="40.63993091" lon="-4.7062557"><ele>2540</ele><speed>10.60</speed><time>2016-07-01T14:10:21Z</time><pdop>10.0</pdop><geoidheight>53.00</geoidheight><course>82.7</course><type>1</type></trkpt>
      <trkpt lat="40.63996492" lon="-4.70601357"><ele>2547</ele><speed>10.58</speed><time>2016-07-01T14:10:23Z</time><pdop>9.0</pdop><geoidheight>53.00</geoidheight><course>79.8</course><type>1</type></trkpt>
      <trkpt lat="40.64002763" lon="-4.70574558"><ele>2553</ele><speed>11.67</speed><time>2016-07-01T14:10:25Z</time><pdop>10.0</pdop><geoidheight>53.00</geoidheight><course>72.2</course><type>1</type></trkpt>
      <trkpt lat="40.64010579" lon="-4.70548365"><ele>2556</ele><speed>11.34</speed><time>2016-07-01T14:10:27Z</time><pdop>11.0</pdop><geoidheight>53.00</geoidheight><course>72.5</course><type>1</type></trkpt>
      <trkpt lat="40.64024422" lon="-4.70519136"><ele>2564</ele><speed>7.11</speed><time>2016-07-01T14:10:31Z</time><pdop>13.0</pdop><geoidheight>53.00</geoidheight><course>59.7</course><type>1</type></trkpt>
      <trkpt lat="40.6404992" lon="-4.70495082"><ele>2573</ele><speed>8.56</speed><time>2016-07-01T14:10:35Z</time><pdop>12.0</pdop><geoidheight>53.00</geoidheight><course>30.8</course><type>1</type></trkpt>
      <trkpt lat="40.64069114" lon="-4.70469851"><ele>2587</ele><speed>9.92</speed><time>2016-07-01T14:10:38Z</time><pdop>13.0</pdop><geoidheight>53.00</geoidheight><course>42.9</course><type>1</type></trkpt>
      <trkpt lat="40.64074134" lon="-4.70435117"><ele>2600</ele><speed>9.87</speed><time>2016-07-01T14:10:41Z</time><pdop>13.0</pdop><geoidheight>53.00</geoidheight><course>73.7</course><type>1</type></trkpt>
      <trkpt lat="40.6404489" lon="-4.70411963"><ele>2613</ele><speed>9.05</speed><time>2016-07-01T14:10:44Z</time><pdop>14.0</pdop><geoidheight>53.00</geoidheight><course>136.6</course><type>1</type></trkpt>
      <trkpt lat="40.64011449" lon="-4.7041959"><ele>2619</ele><speed>8.24</speed><time>2016-07-01T14:10:48Z</time><pdop>18.0</pdop><geoidheight>53.00</geoidheight><course>184.1</course><type>1</type></trkpt>
      <trkpt lat="40.63983957" lon="-4.70401324"><ele>2680</ele><speed>12.87</speed><time>2016-07-01T14:11:03Z</time><pdop>14.0</pdop><geoidheight>53.00</geoidheight><course>141.4</course><type>1</type></trkpt>
      <trkpt lat="40.63955563" lon="-4.70391867"><ele>2707</ele><speed>12.74</speed><time>2016-07-01T14:11:06Z</time><pdop>15.0</pdop><geoidheight>53.00</geoidheight><course>171.5</course><type>1</type></trkpt>
      <trkpt lat="40.63930652" lon="-4.70406547"><ele>2758</ele><speed>14.04</speed><time>2016-07-01T14:11:10Z</time><pdop>15.0</pdop><geoidheight>53.00</geoidheight><course>202.2</course><type>1</type></trkpt>
      <trkpt lat="40.63938513" lon="-4.70440633"><ele>2775</ele><speed>14.27</speed><time>2016-07-01T14:11:12Z</time><pdop>13.0</pdop><geoidheight>53.00</geoidheight><course>253.0</course><type>1</type></trkpt>
      <trkpt lat="40.63945634" lon="-4.70470914"><ele>2794</ele><speed>14.59</speed><time>2016-07-01T14:11:14Z</time><pdop>13.0</pdop><geoidheight>53.00</geoidheight><course>269.3</course><type>1</type></trkpt>
      <trkpt lat="40.63957465" lon="-4.7050023"><ele>2819</ele><speed>12.69</speed><time>2016-07-01T14:11:17Z</time><pdop>13.0</pdop><geoidheight>53.00</geoidheight><course>292.3</course><type>1</type></trkpt>
      <trkpt lat="40.63983457" lon="-4.70499223"><ele>2815</ele><speed>7.47</speed><time>2016-07-01T14:11:21Z</time><pdop>12.0</pdop><geoidheight>53.00</geoidheight><course>8.5</course><type>1</type></trkpt>
      <trkpt lat="40.64000624" lon="-4.70477977"><ele>2806</ele><speed>8.82</speed><time>2016-07-01T14:11:23Z</time><pdop>12.0</pdop><geoidheight>53.00</geoidheight><course>27.7</course><type>1</type></trkpt>
      <trkpt lat="40.64016982" lon="-4.70453501"><ele>2811</ele><speed>11.63</speed><time>2016-07-01T14:11:25Z</time><pdop>12.0</pdop><geoidheight>53.00</geoidheight><course>41.5</course><type>1</type></trkpt>
      <trkpt lat="40.64035385" lon="-4.70434049"><ele>2814</ele><speed>12.06</speed><time>2016-07-01T14:11:27Z</time><pdop>14.0</pdop><geoidheight>53.00</geoidheight><course>39.5</course><type>1</type></trkpt>
      <trkpt lat="40.64049484" lon="-4.70397011"><ele>2823</ele><speed>9.15</speed><time>2016-07-01T14:11:31Z</time><pdop>14.0</pdop><geoidheight>53.00</geoidheight><course>49.2</course><type>1</type></trkpt>
      <trkpt lat="40.64052538" lon="-4.7036006"><ele>2832</ele><speed>10.33</speed><time>2016-07-01T14:11:34Z</time><pdop>13.0</pdop><geoidheight>53.00</geoidheight><course>77.8</course><type>1</type></trkpt>
      <trkpt lat="40.64029877" lon="-4.70325173"><ele>2839</ele><speed>11.77</speed><time>2016-07-01T14:11:37Z</time><pdop>9.0</pdop><geoidheight>53.00</geoidheight><course>131.9</course><type>1</type></trkpt>
      <trkpt lat="40.63999301" lon="-4.70322485"><ele>2844</ele><speed>11.06</speed><time>2016-07-01T14:11:40Z</time><pdop>11.0</pdop><geoidheight>53.00</geoidheight><course>172.2</course><type>1</type></trkpt>
      <trkpt lat="40.63990984" lon="-4.70353839"><ele>2845</ele><speed>7.94</speed><time>2016-07-01T14:11:43Z</time><pdop>13.0</pdop><geoidheight>53.00</geoidheight><course>234.8</course><type>1</type></trkpt>
      <trkpt lat="40.6400806" lon="-4.70393512"><ele>2851</ele><speed>8.68</speed><time>2016-07-01T14:11:47Z</time><pdop>13.0</pdop><geoidheight>53.00</geoidheight><course>294.1</course><type>1</type></trkpt>
      <trkpt lat="40.6402798" lon="-4.70413103"><ele>2855</ele><speed>7.82</speed><time>2016-07-01T14:11:50Z</time><pdop>13.0</pdop><geoidheight>53.00</geoidheight><course>316.5</course><type>1</type></trkpt>
      <trkpt lat="40.64029139" lon="-4.70373998"><ele>2865</ele><speed>7.65</speed><time>2016-07-01T14:11:52Z</time><pdop>12.0</pdop><geoidheight>53.00</geoidheight><course>65.8</course><type>1</type></trkpt>
      <trkpt lat="40.64035957" lon="-4.70345545"><ele>2872</ele><speed>10.87</speed><time>2016-07-01T14:11:54Z</time><pdop>9.0</pdop><geoidheight>53.00</geoidheight><course>75.6</course><type>1</type></trkpt>
      <trkpt lat="40.6403658" lon="-4.70317039"><ele>2878</ele><speed>11.56</speed><time>2016-07-01T14:11:56Z</time><pdop>10.0</pdop><geoidheight>53.00</geoidheight><course>87.3</course><type>1</type></trkpt>
      <trkpt lat="40.6403607" lon="-4.70284185"><ele>2886</ele><speed>8.70</speed><time>2016-07-01T14:11:59Z</time><pdop>10.0</pdop><geoidheight>53.00</geoidheight><course>95.8</course><type>1</type></trkpt>
      <trkpt lat="40.6403462" lon="-4.70256179"><ele>2892</ele><speed>10.08</speed><time>2016-07-01T14:12:01Z</time><pdop>10.0</pdop><geoidheight>53.00</geoidheight><course>91.2</course><type>1</type></trkpt>
      <trkpt lat="40.64036921" lon="-4.70230157"><ele>2897</ele><speed>9.76</speed><time>2016-07-01T14:12:03Z</time><pdop>9.0</pdop><geoidheight>53.00</geoidheight><course>82.2</course><type>1</type></trkpt>
      <trkpt lat="40.64045813" lon="-4.70198638"><ele>2908</ele><speed>8.72</speed><time>2016-07-01T14:12:06Z</time><pdop>16.0</pdop><geoidheight>53.00</geoidheight><course>67.9</course><type>1</type></trkpt>
      <trkpt lat="40.64081646" lon="-4.70175135"><ele>2920</ele><speed>9.81</speed><time>2016-07-01T14:12:10Z</time><pdop>14.0</pdop><geoidheight>53.00</geoidheight><course>26.5</course><type>1</type></trkpt>
      <trkpt lat="40.6411269" lon="-4.70165157"><ele>2932</ele><speed>10.08</speed><time>2016-07-01T14:12:13Z</time><pdop>11.0</pdop><geoidheight>53.00</geoidheight><course>17.9</course><type>1</type></trkpt>
      <trkpt lat="40.64131835" lon="-4.70157417"><ele>2938</ele><speed>9.90</speed><time>2016-07-01T14:12:15Z</time><pdop>8.0</pdop><geoidheight>53.00</geoidheight><course>18.4</course><type>1</type></trkpt>
      <trkpt lat="40.64150019" lon="-4.7014917"><ele>2942</ele><speed>9.83</speed><time>2016-07-01T14:12:17Z</time><pdop>7.0</pdop><geoidheight>53.00</geoidheight><course>21.8</course><type>1</type></trkpt>
      <trkpt lat="40.64166265" lon="-4.70139577"><ele>2944</ele><speed>9.66</speed><time>2016-07-01T14:12:19Z</time><pdop>8.0</pdop><geoidheight>53.00</geoidheight><course>22.5</course><type>1</type></trkpt>
      <trkpt lat="40.64184617" lon="-4.70131345"><ele>2947</ele><speed>10.07</speed><time>2016-07-01T14:12:21Z</time><pdop>8.0</pdop><geoidheight>53.00</geoidheight><course>17.9</course><type>1</type></trkpt>
      <trkpt lat="40.64205639" lon="-4.70118982"><ele>2947</ele><speed>11.51</speed><time>2016-07-01T14:12:23Z</time><pdop>8.0</pdop><geoidheight>53.00</geoidheight><course>17.1</course><type>1</type></trkpt>
      <trkpt lat="40.64224824" lon="-4.70113684"><ele>2952</ele><speed>11.00</speed><time>2016-07-01T14:12:25Z</time><pdop>6.0</pdop><geoidheight>53.00</geoidheight><course>12.6</course><type>1</type></trkpt>
      <trkpt lat="40.64234981" lon="-4.70113518"><ele>2951</ele><speed>11.14</speed><time>2016-07-01T14:12:26Z</time><pdop>5.0</pdop><geoidheight>53.00</geoidheight><course>7.4</course><type>1</type></trkpt>
      <trkpt lat="40.64246003" lon="-4.70113222"><ele>2951</ele><speed>11.17</speed><time>2016-07-01T14:12:27Z</time><pdop>5.0</pdop><geoidheight>53.00</geoidheight><course>3.3</course><type>1</type></trkpt>
      <trkpt lat="40.6425654" lon="-4.70113039"><ele>2952</ele><speed>10.91</speed><time>2016-07-01T14:12:28Z</time><pdop>4.0</pdop><geoidheight>53.00</geoidheight><course>0.4</course><type>1</type></trkpt>
      <trkpt lat="40.64266106" lon="-4.70113941"><ele>2952</ele><speed>10.73</speed><time>2016-07-01T14:12:29Z</time><pdop>3.0</pdop><geoidheight>53.00</geoidheight><course>357.6</course><type>1</type></trkpt>
      <trkpt lat="40.64275402" lon="-4.70115348"><ele>2951</ele><speed>10.67</speed><time>2016-07-01T14:12:30Z</time><pdop>3.0</pdop><geoidheight>53.00</geoidheight><course>356.2</course><type>1</type></trkpt>
      <trkpt lat="40.64285173" lon="-4.70115656"><ele>2950</ele><speed>10.75</speed><time>2016-07-01T14:12:31Z</time><pdop>3.0</pdop><geoidheight>53.00</geoidheight><course>356.8</course><type>1</type></trkpt>
      <trkpt lat="40.64295486" lon="-4.70116759"><ele>2949</ele><speed>10.61</speed><time>2016-07-01T14:12:32Z</time><pdop>3.0</pdop><geoidheight>53.00</geoidheight><course>355.2</course><type>1</type></trkpt>
      <trkpt lat="40.64305085" lon="-4.7011879"><ele>2947</ele><speed>11.12</speed><time>2016-07-01T14:12:33Z</time><pdop>3.0</pdop><geoidheight>53.00</geoidheight><course>352.9</course><type>1</type></trkpt>
      <trkpt lat="40.64316113" lon="-4.7012152"><ele>2947</ele><speed>11.49</speed><time>2016-07-01T14:12:34Z</time><pdop>3.0</pdop><geoidheight>53.00</geoidheight><course>351.1</course><type>1</type></trkpt>
      <trkpt lat="40.64329288" lon="-4.70121826"><ele>2946</ele><speed>13.00</speed><time>2016-07-01T14:12:35Z</time><pdop>4.0</pdop><geoidheight>53.00</geoidheight><course>355.6</course><type>1</type></trkpt>
      <trkpt lat="40.64342024" lon="-4.70120135"><ele>2946</ele><speed>13.53</speed><time>2016-07-01T14:12:36Z</time><pdop>4.0</pdop><geoidheight>53.00</geoidheight><course>2.2</course><type>1</type></trkpt>
      <trkpt lat="40.64351607" lon="-4.70116888"><ele>2944</ele><speed>11.84</speed><time>2016-07-01T14:12:37Z</time><pdop>4.0</pdop><geoidheight>53.00</geoidheight><course>5.3</course><type>1</type></trkpt>
      <trkpt lat="40.64362512" lon="-4.70115548"><ele>2944</ele><speed>11.30</speed><time>2016-07-01T14:12:38Z</time><pdop>4.0</pdop><geoidheight>53.00</geoidheight><course>2.2</course><type>1</type></trkpt>
      <trkpt lat="40.64370312" lon="-4.70115766"><ele>2943</ele><speed>10.43</speed><time>2016-07-01T14:12:39Z</time><pdop>3.0</pdop><geoidheight>53.00</geoidheight><course>357.7</course><type>1</type></trkpt>
      <trkpt lat="40.64381282" lon="-4.70116292"><ele>2942</ele><speed>11.18</speed><time>2016-07-01T14:12:40Z</time><pdop>3.0</pdop><geoidheight>53.00</geoidheight><course>0.9</course><type>1</type></trkpt>
      <trkpt lat="40.6439198" lon="-4.70113482"><ele>2940</ele><speed>12.08</speed><time>2016-07-01T14:12:41Z</time><pdop>3.0</pdop><geoidheight>53.00</geoidheight><course>6.2</course><type>1</type></trkpt>
      <trkpt lat="40.64402982" lon="-4.70110856"><ele>2943</ele><speed>12.05</speed><time>2016-07-01T14:12:42Z</time><pdop>3.0</pdop><geoidheight>53.00</geoidheight><course>9.2</course><type>1</type></trkpt>
      <trkpt lat="40.64413007" lon="-4.70108812"><ele>2941</ele><speed>11.87</speed><time>2016-07-01T14:12:43Z</time><pdop>3.0</pdop><geoidheight>53.00</geoidheight><course>7.9</course><type>1</type></trkpt>
      <trkpt lat="40.64423415" lon="-4.70107526"><ele>2941</ele><speed>11.62</speed><time>2016-07-01T14:12:44Z</time><pdop>4.0</pdop><geoidheight>53.00</geoidheight><course>3.9</course><type>1</type></trkpt>
      <trkpt lat="40.64436156" lon="-4.70108182"><ele>2938</ele><speed>12.28</speed><time>2016-07-01T14:12:45Z</time><pdop>5.0</pdop><geoidheight>53.00</geoidheight><course>359.9</course><type>1</type></trkpt>
      <trkpt lat="40.64447103" lon="-4.7010728"><ele>2938</ele><speed>11.58</speed><time>2016-07-01T14:12:46Z</time><pdop>4.0</pdop><geoidheight>53.00</geoidheight><course>1.5</course><type>1</type></trkpt>
      <trkpt lat="40.64455626" lon="-4.70105745"><ele>2938</ele><speed>11.20</speed><time>2016-07-01T14:12:47Z</time><pdop>5.0</pdop><geoidheight>53.00</geoidheight><course>2.5</course><type>1</type></trkpt>
      <trkpt lat="40.64466333" lon="-4.70102241"><ele>2938</ele><speed>12.12</speed><time>2016-07-01T14:12:48Z</time><pdop>4.0</pdop><geoidheight>53.00</geoidheight><course>6.0</course><type>1</type></trkpt>
      <trkpt lat="40.64475821" lon="-4.70103176"><ele>2938</ele><speed>11.73</speed><time>2016-07-01T14:12:49Z</time><pdop>4.0</pdop><geoidheight>53.00</geoidheight><course>0.0</course><type>1</type></trkpt>
      <trkpt lat="40.64485872" lon="-4.70106624"><ele>2938</ele><speed>11.68</speed><time>2016-07-01T14:12:50Z</time><pdop>3.0</pdop><geoidheight>53.00</geoidheight><course>347.2</course><type>1</type></trkpt>
      <trkpt lat="40.64493643" lon="-4.70110576"><ele>2941</ele><speed>10.77</speed><time>2016-07-01T14:12:51Z</time><pdop>3.0</pdop><geoidheight>53.00</geoidheight><course>339.9</course><type>1</type></trkpt>
      <trkpt lat="40.64502267" lon="-4.70115874"><ele>2942</ele><speed>9.90</speed><time>2016-07-01T14:12:52Z</time><pdop>3.0</pdop><geoidheight>53.00</geoidheight><course>338.1</course><type>1</type></trkpt>
      <trkpt lat="40.64510129" lon="-4.70119532"><ele>2942</ele><speed>9.86</speed><time>2016-07-01T14:12:53Z</time><pdop>3.0</pdop><geoidheight>53.00</geoidheight><course>338.8</course><type>1</type></trkpt>
      <trkpt lat="40.64517694" lon="-4.70123752"><ele>2943</ele><speed>9.73</speed><time>2016-07-01T14:12:54Z</time><pdop>3.0</pdop><geoidheight>53.00</geoidheight><course>339.1</course><type>1</type></trkpt>
      <trkpt lat="40.64526257" lon="-4.70127515"><ele>2943</ele><speed>9.51</speed><time>2016-07-01T14:12:55Z</time><pdop>3.0</pdop><geoidheight>53.00</geoidheight><course>342.7</course><type>1</type></trkpt>
      <trkpt lat="40.64533711" lon="-4.70130309"><ele>2943</ele><speed>8.67</speed><time>2016-07-01T14:12:56Z</time><pdop>3.0</pdop><geoidheight>53.00</geoidheight><course>345.8</course><type>1</type></trkpt>
      <trkpt lat="40.64540497" lon="-4.70132837"><ele>2943</ele><speed>8.45</speed><time>2016-07-01T14:12:57Z</time><pdop>3.0</pdop><geoidheight>53.00</geoidheight><course>345.5</course><type>1</type></trkpt>
      <trkpt lat="40.645487" lon="-4.70136147"><ele>2943</ele><speed>9.37</speed><time>2016-07-01T14:12:58Z</time><pdop>3.0</pdop><geoidheight>53.00</geoidheight><course>345.0</course><type>1</type></trkpt>
      <trkpt lat="40.64558812" lon="-4.70138606"><ele>2942</ele><speed>10.56</speed><time>2016-07-01T14:12:59Z</time><pdop>3.0</pdop><geoidheight>53.00</geoidheight><course>348.1</course><type>1</type></trkpt>
      <trkpt lat="40.6457904" lon="-4.70142737"><ele>2943</ele><speed>11.76</speed><time>2016-07-01T14:13:01Z</time><pdop>9.0</pdop><geoidheight>53.00</geoidheight><course>351.4</course><type>1</type></trkpt>
      <trkpt lat="40.64598548" lon="-4.70148513"><ele>2943</ele><speed>11.09</speed><time>2016-07-01T14:13:03Z</time><pdop>9.0</pdop><geoidheight>53.00</geoidheight><course>348.7</course><type>1</type></trkpt>
      <trkpt lat="40.64619037" lon="-4.70154289"><ele>2946</ele><speed>11.49</speed><time>2016-07-01T14:13:05Z</time><pdop>9.0</pdop><geoidheight>53.00</geoidheight><course>349.5</course><type>1</type></trkpt>
      <trkpt lat="40.64639437" lon="-4.7016217"><ele>2947</ele><speed>11.80</speed><time>2016-07-01T14:13:07Z</time><pdop>9.0</pdop><geoidheight>53.00</geoidheight><course>342.3</course><type>1</type></trkpt>
      <trkpt lat="40.64658723" lon="-4.70171654"><ele>2949</ele><speed>11.25</speed><time>2016-07-01T14:13:09Z</time><pdop>9.0</pdop><geoidheight>53.00</geoidheight><course>339.2</course><type>1</type></trkpt>
      <trkpt lat="40.64676569" lon="-4.70182334"><ele>2949</ele><speed>10.88</speed><time>2016-07-01T14:13:11Z</time><pdop>9.0</pdop><geoidheight>53.00</geoidheight><course>334.1</course><type>1</type></trkpt>
      <trkpt lat="40.64695875" lon="-4.70195362"><ele>2949</ele><speed>12.35</speed><time>2016-07-01T14:13:13Z</time><pdop>9.0</pdop><geoidheight>53.00</geoidheight><course>331.8</course><type>1</type></trkpt>
      <trkpt lat="40.64716264" lon="-4.70210447"><ele>2947</ele><speed>13.15</speed><time>2016-07-01T14:13:15Z</time><pdop>3.0</pdop><geoidheight>53.00</geoidheight><course>330.0</course><type>1</type></trkpt>
      <trkpt lat="40.64726993" lon="-4.70218196"><ele>2946</ele><speed>13.66</speed><time>2016-07-01T14:13:16Z</time><pdop>3.0</pdop><geoidheight>53.00</geoidheight><course>330.1</course><type>1</type></trkpt>
      <trkpt lat="40.64738173" lon="-4.70225367"><ele>2946</ele><speed>13.75</speed><time>2016-07-01T14:13:17Z</time><pdop>3.0</pdop><geoidheight>53.00</geoidheight><course>331.8</course><type>1</type></trkpt>
      <trkpt lat="40.64748931" lon="-4.70232348"><ele>2946</ele><speed>13.28</speed><time>2016-07-01T14:13:18Z</time><pdop>3.0</pdop><geoidheight>53.00</geoidheight><course>333.6</course><type>1</type></trkpt>
      <trkpt lat="40.64759262" lon="-4.70238857"><ele>2946</ele><speed>12.66</speed><time>2016-07-01T14:13:19Z</time><pdop>3.0</pdop><geoidheight>53.00</geoidheight><course>335.8</course><type>1</type></trkpt>
      <trkpt lat="40.64769211" lon="-4.70243256"><ele>2947</ele><speed>12.17</speed><time>2016-07-01T14:13:20Z</time><pdop>3.0</pdop><geoidheight>53.00</geoidheight><course>338.1</course><type>1</type></trkpt>
      <trkpt lat="40.64778895" lon="-4.70248572"><ele>2947</ele><speed>12.01</speed><time>2016-07-01T14:13:21Z</time><pdop>3.0</pdop><geoidheight>53.00</geoidheight><course>337.5</course><type>1</type></trkpt>
      <trkpt lat="40.64788569" lon="-4.70254876"><ele>2947</ele><speed>12.21</speed><time>2016-07-01T14:13:22Z</time><pdop>3.0</pdop><geoidheight>53.00</geoidheight><course>334.6</course><type>1</type></trkpt>
      <trkpt lat="40.64798502" lon="-4.70263115"><ele>2947</ele><speed>12.57</speed><time>2016-07-01T14:13:23Z</time><pdop>3.0</pdop><geoidheight>53.00</geoidheight><course>331.8</course><type>1</type></trkpt>
      <trkpt lat="40.64807316" lon="-4.70269831"><ele>2950</ele><speed>11.82</speed><time>2016-07-01T14:13:24Z</time><pdop>3.0</pdop><geoidheight>53.00</geoidheight><course>331.2</course><type>1</type></trkpt>
      <trkpt lat="40.64816003" lon="-4.70276652"><ele>2950</ele><speed>11.47</speed><time>2016-07-01T14:13:25Z</time><pdop>3.0</pdop><geoidheight>53.00</geoidheight><course>331.0</course><type>1</type></trkpt>
      <trkpt lat="40.6482523" lon="-4.70283501"><ele>2952</ele><speed>11.60</speed><time>2016-07-01T14:13:26Z</time><pdop>3.0</pdop><geoidheight>53.00</geoidheight><course>329.5</course><type>1</type></trkpt>
      <trkpt lat="40.64834192" lon="-4.70290748"><ele>2952</ele><speed>11.82</speed><time>2016-07-01T14:13:27Z</time><pdop>3.0</pdop><geoidheight>53.00</geoidheight><course>329.3</course><type>1</type></trkpt>
      <trkpt lat="40.64843599" lon="-4.70297069"><ele>2953</ele><speed>11.93</speed><time>2016-07-01T14:13:28Z</time><pdop>3.0</pdop><geoidheight>53.00</geoidheight><course>330.3</course><type>1</type></trkpt>
      <trkpt lat="40.64853306" lon="-4.7030332"><ele>2953</ele><speed>11.97</speed><time>2016-07-01T14:13:29Z</time><pdop>3.0</pdop><geoidheight>53.00</geoidheight><course>332.0</course><type>1</type></trkpt>
      <trkpt lat="40.64862143" lon="-4.70310424"><ele>2953</ele><speed>11.38</speed><time>2016-07-01T14:13:30Z</time><pdop>4.0</pdop><geoidheight>53.00</geoidheight><course>329.4</course><type>1</type></trkpt>
      <trkpt lat="40.64870373" lon="-4.70319017"><ele>2952</ele><speed>11.55</speed><time>2016-07-01T14:13:31Z</time><pdop>6.0</pdop><geoidheight>53.00</geoidheight><course>324.6</course><type>1</type></trkpt>
      <trkpt lat="40.64879796" lon="-4.70328471"><ele>2953</ele><speed>12.11</speed><time>2016-07-01T14:13:32Z</time><pdop>7.0</pdop><geoidheight>53.00</geoidheight><course>323.8</course><type>1</type></trkpt>
      <trkpt lat="40.6488617" lon="-4.70349941"><ele>2955</ele><speed>8.90</speed><time>2016-07-01T14:13:34Z</time><pdop>6.0</pdop><geoidheight>53.00</geoidheight><course>308.1</course><type>1</type></trkpt>
      <trkpt lat="40.64890527" lon="-4.70368141"><ele>2958</ele><speed>8.02</speed><time>2016-07-01T14:13:36Z</time><pdop>9.0</pdop><geoidheight>53.00</geoidheight><course>299.7</course><type>1</type></trkpt>
      <trkpt lat="40.64890437" lon="-4.70390333"><ele>2960</ele><speed>8.68</speed><time>2016-07-01T14:13:38Z</time><pdop>9.0</pdop><geoidheight>53.00</geoidheight><course>280.3</course><type>1</type></trkpt>
      <trkpt lat="40.64874642" lon="-4.70406172"><ele>2961</ele><speed>10.11</speed><time>2016-07-01T14:13:39Z</time><pdop>7.0</pdop><geoidheight>53.00</geoidheight><course>250.4</course><type>1</type></trkpt>
      <trkpt lat="40.64858387" lon="-4.70423531"><ele>2961</ele><speed>10.34</speed><time>2016-07-01T14:13:41Z</time><pdop>6.0</pdop><geoidheight>53.00</geoidheight><course>226.0</course><type>1</type></trkpt>
      <trkpt lat="40.64839792" lon="-4.70429125"><ele>2961</ele><speed>9.79</speed><time>2016-07-01T14:13:43Z</time><pdop>7.0</pdop><geoidheight>53.00</geoidheight><course>202.5</course><type>1</type></trkpt>
      <trkpt lat="40.64823849" lon="-4.70433031"><ele>2964</ele><speed>9.01</speed><time>2016-07-01T14:13:45Z</time><pdop>8.0</pdop><geoidheight>53.00</geoidheight><course>191.4</course><type>1</type></trkpt>
      <trkpt lat="40.6480516" lon="-4.70432177"><ele>2966</ele><speed>9.64</speed><time>2016-07-01T14:13:47Z</time><pdop>9.0</pdop><geoidheight>53.00</geoidheight><course>183.2</course><type>1</type></trkpt>
      <trkpt lat="40.64788958" lon="-4.70420068"><ele>2965</ele><speed>9.39</speed><time>2016-07-01T14:13:49Z</time><pdop>9.0</pdop><geoidheight>53.00</geoidheight><course>152.8</course><type>1</type></trkpt>
      <trkpt lat="40.64773039" lon="-4.70397295"><ele>2966</ele><speed>10.12</speed><time>2016-07-01T14:13:51Z</time><pdop>8.0</pdop><geoidheight>53.00</geoidheight><course>133.2</course><type>1</type></trkpt>
      <trkpt lat="40.6476669" lon="-4.70378681"><ele>2970</ele><speed>11.83</speed><time>2016-07-01T14:13:52Z</time><pdop>6.0</pdop><geoidheight>53.00</geoidheight><course>120.0</course><type>1</type></trkpt>
      <trkpt lat="40.64761644" lon="-4.70363924"><ele>2971</ele><speed>11.95</speed><time>2016-07-01T14:13:53Z</time><pdop>6.0</pdop><geoidheight>53.00</geoidheight><course>116.6</course><type>1</type></trkpt>
      <trkpt lat="40.64757098" lon="-4.70350067"><ele>2972</ele><speed>11.64</speed><time>2016-07-01T14:13:54Z</time><pdop>5.0</pdop><geoidheight>53.00</geoidheight><course>114.6</course><type>1</type></trkpt>
      <trkpt lat="40.64754822" lon="-4.70338267"><ele>2974</ele><speed>9.49</speed><time>2016-07-01T14:13:55Z</time><pdop>5.0</pdop><geoidheight>53.00</geoidheight><course>107.9</course><type>1</type></trkpt>
      <trkpt lat="40.6475352" lon="-4.70326482"><ele>2976</ele><speed>9.40</speed><time>2016-07-01T14:13:56Z</time><pdop>5.0</pdop><geoidheight>53.00</geoidheight><course>99.1</course><type>1</type></trkpt>
      <trkpt lat="40.6474937" lon="-4.70307029"><ele>2978</ele><speed>8.47</speed><time>2016-07-01T14:13:58Z</time><pdop>4.0</pdop><geoidheight>53.00</geoidheight><course>104.7</course><type>1</type></trkpt>
      <trkpt lat="40.64743144" lon="-4.70298607"><ele>2979</ele><speed>8.64</speed><time>2016-07-01T14:13:59Z</time><pdop>4.0</pdop><geoidheight>53.00</geoidheight><course>124.0</course><type>1</type></trkpt>
      <trkpt lat="40.64738703" lon="-4.70288905"><ele>2980</ele><speed>8.97</speed><time>2016-07-01T14:14:00Z</time><pdop>4.0</pdop><geoidheight>53.00</geoidheight><course>126.2</course><type>1</type></trkpt>
      <trkpt lat="40.64733437" lon="-4.70279262"><ele>2980</ele><speed>9.52</speed><time>2016-07-01T14:14:01Z</time><pdop>5.0</pdop><geoidheight>53.00</geoidheight><course>130.4</course><type>1</type></trkpt>
      <trkpt lat="40.64714109" lon="-4.70278488"><ele>2980</ele><speed>10.10</speed><time>2016-07-01T14:14:03Z</time><pdop>7.0</pdop><geoidheight>53.00</geoidheight><course>166.0</course><type>1</type></trkpt>
      <trkpt lat="40.64691489" lon="-4.70277317"><ele>2980</ele><speed>11.63</speed><time>2016-07-01T14:14:05Z</time><pdop>8.0</pdop><geoidheight>53.00</geoidheight><course>173.7</course><type>1</type></trkpt>
      <trkpt lat="40.64669773" lon="-4.70299106"><ele>2984</ele><speed>12.70</speed><time>2016-07-01T14:14:07Z</time><pdop>8.0</pdop><geoidheight>53.00</geoidheight><course>199.2</course><type>1</type></trkpt>
      <trkpt lat="40.64651293" lon="-4.70311242"><ele>2986</ele><speed>11.50</speed><time>2016-07-01T14:14:09Z</time><pdop>7.0</pdop><geoidheight>53.00</geoidheight><course>195.9</course><type>1</type></trkpt>
      <trkpt lat="40.64629932" lon="-4.70314789"><ele>2987</ele><speed>11.95</speed><time>2016-07-01T14:14:11Z</time><pdop>7.0</pdop><geoidheight>53.00</geoidheight><course>188.4</course><type>1</type></trkpt>
      <trkpt lat="40.64610486" lon="-4.70318188"><ele>2988</ele><speed>11.46</speed><time>2016-07-01T14:14:13Z</time><pdop>8.0</pdop><geoidheight>53.00</geoidheight><course>188.0</course><type>1</type></trkpt>
      <trkpt lat="40.64593356" lon="-4.70315661"><ele>2989</ele><speed>10.61</speed><time>2016-07-01T14:14:15Z</time><pdop>7.0</pdop><geoidheight>53.00</geoidheight><course>176.4</course><type>1</type></trkpt>
      <trkpt lat="40.64578641" lon="-4.70307412"><ele>2989</ele><speed>8.28</speed><time>2016-07-01T14:14:17Z</time><pdop>7.0</pdop><geoidheight>53.00</geoidheight><course>163.4</course><type>1</type></trkpt>
      <trkpt lat="40.64574864" lon="-4.70269945"><ele>2990</ele><speed>12.02</speed><time>2016-07-01T14:14:19Z</time><pdop>11.0</pdop><geoidheight>53.00</geoidheight><course>95.9</course><type>1</type></trkpt>
      <trkpt lat="40.64584776" lon="-4.70240611"><ele>2995</ele><speed>12.75</speed><time>2016-07-01T14:14:21Z</time><pdop>10.0</pdop><geoidheight>53.00</geoidheight><course>72.1</course><type>1</type></trkpt>
      <trkpt lat="40.64590973" lon="-4.70215784"><ele>2997</ele><speed>10.58</speed><time>2016-07-01T14:14:23Z</time><pdop>11.0</pdop><geoidheight>53.00</geoidheight><course>68.0</course><type>1</type></trkpt>
      <trkpt lat="40.64622429" lon="-4.70195727"><ele>3002</ele><speed>11.45</speed><time>2016-07-01T14:14:26Z</time><pdop>11.0</pdop><geoidheight>53.00</geoidheight><course>25.9</course><type>1</type></trkpt>
      <trkpt lat="40.64646552" lon="-4.70186888"><ele>3010</ele><speed>11.49</speed><time>2016-07-01T14:14:28Z</time><pdop>11.0</pdop><geoidheight>53.00</geoidheight><course>19.5</course><type>1</type></trkpt>
      <trkpt lat="40.64664659" lon="-4.70168792"><ele>3025</ele><speed>8.54</speed><time>2016-07-01T14:14:32Z</time><pdop>10.0</pdop><geoidheight>53.00</geoidheight><course>58.2</course><type>1</type></trkpt>
      <trkpt lat="40.64644452" lon="-4.70150921"><ele>3023</ele><speed>6.07</speed><time>2016-07-01T14:14:36Z</time><pdop>7.0</pdop><geoidheight>53.00</geoidheight><course>145.7</course><type>1</type></trkpt>
      <trkpt lat="40.64635969" lon="-4.70165562"><ele>3023</ele><speed>6.24</speed><time>2016-07-01T14:14:37Z</time><pdop>7.0</pdop><geoidheight>53.00</geoidheight><course>199.1</course><type>1</type></trkpt>
      <trkpt lat="40.64624357" lon="-4.7018613"><ele>3023</ele><speed>11.64</speed><time>2016-07-01T14:14:38Z</time><pdop>7.0</pdop><geoidheight>53.00</geoidheight><course>223.6</course><type>1</type></trkpt>
      <trkpt lat="40.64622268" lon="-4.70200141"><ele>3027</ele><speed>12.16</speed><time>2016-07-01T14:14:39Z</time><pdop>5.0</pdop><geoidheight>53.00</geoidheight><course>246.4</course><type>1</type></trkpt>
      <trkpt lat="40.64618301" lon="-4.70214527"><ele>3029</ele><speed>11.89</speed><time>2016-07-01T14:14:40Z</time><pdop>5.0</pdop><geoidheight>53.00</geoidheight><course>250.1</course><type>1</type></trkpt>
      <trkpt lat="40.6461483" lon="-4.70228899"><ele>3031</ele><speed>11.77</speed><time>2016-07-01T14:14:41Z</time><pdop>5.0</pdop><geoidheight>53.00</geoidheight><course>252.7</course><type>1</type></trkpt>
      <trkpt lat="40.64612329" lon="-4.70250067"><ele>3035</ele><speed>10.59</speed><time>2016-07-01T14:14:43Z</time><pdop>5.0</pdop><geoidheight>53.00</geoidheight><course>257.5</course><type>1</type></trkpt>
      <trkpt lat="40.64609194" lon="-4.70262408"><ele>3036</ele><speed>10.45</speed><time>2016-07-01T14:14:44Z</time><pdop>4.0</pdop><geoidheight>53.00</geoidheight><course>254.9</course><type>1</type></trkpt>
      <trkpt lat="40.6460679" lon="-4.70273655"><ele>3037</ele><speed>10.02</speed><time>2016-07-01T14:14:45Z</time><pdop>4.0</pdop><geoidheight>53.00</geoidheight><course>258.0</course><type>1</type></trkpt>
      <trkpt lat="40.64607284" lon="-4.70284939"><ele>3038</ele><speed>9.70</speed><time>2016-07-01T14:14:46Z</time><pdop>5.0</pdop><geoidheight>53.00</geoidheight><course>269.1</course><type>1</type></trkpt>
      <trkpt lat="40.64614077" lon="-4.70302513"><ele>3043</ele><speed>8.25</speed><time>2016-07-01T14:14:48Z</time><pdop>6.0</pdop><geoidheight>53.00</geoidheight><course>290.2</course><type>1</type></trkpt>
      <trkpt lat="40.64625504" lon="-4.70305043"><ele>3046</ele><speed>4.68</speed><time>2016-07-01T14:14:50Z</time><pdop>5.0</pdop><geoidheight>53.00</geoidheight><course>334.7</course><type>1</type></trkpt>
      <trkpt lat="40.64637675" lon="-4.7030497"><ele>3049</ele><speed>5.78</speed><time>2016-07-01T14:14:52Z</time><pdop>7.0</pdop><geoidheight>53.00</geoidheight><course>1.3</course><type>1</type></trkpt>
      <trkpt lat="40.64639172" lon="-4.7027878"><ele>3052</ele><speed>9.56</speed><time>2016-07-01T14:14:54Z</time><pdop>5.0</pdop><geoidheight>53.00</geoidheight><course>88.6</course><type>1</type></trkpt>
      <trkpt lat="40.64641277" lon="-4.7026655"><ele>3052</ele><speed>9.72</speed><time>2016-07-01T14:14:55Z</time><pdop>5.0</pdop><geoidheight>53.00</geoidheight><course>87.3</course><type>1</type></trkpt>
      <trkpt lat="40.64634964" lon="-4.70245747"><ele>3055</ele><speed>9.45</speed><time>2016-07-01T14:14:57Z</time><pdop>6.0</pdop><geoidheight>53.00</geoidheight><course>105.1</course><type>1</type></trkpt>
      <trkpt lat="40.64629445" lon="-4.70222725"><ele>3055</ele><speed>9.46</speed><time>2016-07-01T14:14:59Z</time><pdop>8.0</pdop><geoidheight>53.00</geoidheight><course>106.0</course><type>1</type></trkpt>
      <trkpt lat="40.64614573" lon="-4.70215023"><ele>3055</ele><speed>7.81</speed><time>2016-07-01T14:15:01Z</time><pdop>9.0</pdop><geoidheight>53.00</geoidheight><course>129.2</course><type>1</type></trkpt>
      <trkpt lat="40.64592917" lon="-4.70222452"><ele>3055</ele><speed>8.38</speed><time>2016-07-01T14:15:03Z</time><pdop>10.0</pdop><geoidheight>53.00</geoidheight><course>167.8</course><type>1</type></trkpt>
      <trkpt lat="40.64573525" lon="-4.70225347"><ele>3056</ele><speed>7.97</speed><time>2016-07-01T14:15:05Z</time><pdop>9.0</pdop><geoidheight>53.00</geoidheight><course>177.1</course><type>1</type></trkpt>
      <trkpt lat="40.64566291" lon="-4.70251674"><ele>3057</ele><speed>8.40</speed><time>2016-07-01T14:15:07Z</time><pdop>9.0</pdop><geoidheight>53.00</geoidheight><course>220.9</course><type>1</type></trkpt>
      <trkpt lat="40.64561722" lon="-4.70278732"><ele>3060</ele><speed>9.66</speed><time>2016-07-01T14:15:09Z</time><pdop>6.0</pdop><geoidheight>53.00</geoidheight><course>238.6</course><type>1</type></trkpt>
      <trkpt lat="40.6455331" lon="-4.70292421"><ele>3065</ele><speed>8.23</speed><time>2016-07-01T14:15:11Z</time><pdop>7.0</pdop><geoidheight>53.00</geoidheight><course>233.5</course><type>1</type></trkpt>
      <trkpt lat="40.64544255" lon="-4.70314523"><ele>3065</ele><speed>9.16</speed><time>2016-07-01T14:15:13Z</time><pdop>9.0</pdop><geoidheight>53.00</geoidheight><course>240.9</course><type>1</type></trkpt>
      <trkpt lat="40.64535578" lon="-4.70345764"><ele>3065</ele><speed>11.94</speed><time>2016-07-01T14:15:15Z</time><pdop>8.0</pdop><geoidheight>53.00</geoidheight><course>250.8</course><type>1</type></trkpt>
      <trkpt lat="40.64535521" lon="-4.70369146"><ele>3062</ele><speed>12.71</speed><time>2016-07-01T14:15:17Z</time><pdop>7.0</pdop><geoidheight>53.00</geoidheight><course>256.8</course><type>1</type></trkpt>
      <trkpt lat="40.64520952" lon="-4.70399225"><ele>3064</ele><speed>12.36</speed><time>2016-07-01T14:15:19Z</time><pdop>6.0</pdop><geoidheight>53.00</geoidheight><course>240.0</course><type>1</type></trkpt>
      <trkpt lat="40.64515191" lon="-4.70411437"><ele>3065</ele><speed>11.77</speed><time>2016-07-01T14:15:20Z</time><pdop>6.0</pdop><geoidheight>53.00</geoidheight><course>239.7</course><type>1</type></trkpt>
      <trkpt lat="40.64504903" lon="-4.70432584"><ele>3064</ele><speed>9.91</speed><time>2016-07-01T14:15:22Z</time><pdop>6.0</pdop><geoidheight>53.00</geoidheight><course>239.3</course><type>1</type></trkpt>
      <trkpt lat="40.64498951" lon="-4.7044945"><ele>3063</ele><speed>8.65</speed><time>2016-07-01T14:15:24Z</time><pdop>4.0</pdop><geoidheight>53.00</geoidheight><course>247.0</course><type>1</type></trkpt>
      <trkpt lat="40.64495129" lon="-4.70458886"><ele>3064</ele><speed>8.70</speed><time>2016-07-01T14:15:25Z</time><pdop>4.0</pdop><geoidheight>53.00</geoidheight><course>247.7</course><type>1</type></trkpt>
      <trkpt lat="40.64491967" lon="-4.70468345"><ele>3049</ele><speed>8.84</speed><time>2016-07-01T14:15:26Z</time><pdop>4.0</pdop><geoidheight>53.00</geoidheight><course>248.4</course><type>1</type></trkpt>
      <trkpt lat="40.644892" lon="-4.70479678"><ele>3053</ele><speed>9.75</speed><time>2016-07-01T14:15:27Z</time><pdop>4.0</pdop><geoidheight>53.00</geoidheight><course>249.4</course><type>1</type></trkpt>
      <trkpt lat="40.64485887" lon="-4.70491716"><ele>3057</ele><speed>10.28</speed><time>2016-07-01T14:15:28Z</time><pdop>4.0</pdop><geoidheight>53.00</geoidheight><course>249.2</course><type>1</type></trkpt>
      <trkpt lat="40.64482269" lon="-4.70504148"><ele>3060</ele><speed>11.23</speed><time>2016-07-01T14:15:29Z</time><pdop>4.0</pdop><geoidheight>53.00</geoidheight><course>245.9</course><type>1</type></trkpt>
      <trkpt lat="40.64476991" lon="-4.70516074"><ele>3061</ele><speed>11.39</speed><time>2016-07-01T14:15:30Z</time><pdop>5.0</pdop><geoidheight>53.00</geoidheight><course>242.2</course><type>1</type></trkpt>
      <trkpt lat="40.6447216" lon="-4.70526156"><ele>3063</ele><speed>10.77</speed><time>2016-07-01T14:15:31Z</time><pdop>4.0</pdop><geoidheight>53.00</geoidheight><course>239.5</course><type>1</type></trkpt>
      <trkpt lat="40.6446581" lon="-4.7053846"><ele>3063</ele><speed>11.29</speed><time>2016-07-01T14:15:32Z</time><pdop>5.0</pdop><geoidheight>53.00</geoidheight><course>236.8</course><type>1</type></trkpt>
      <trkpt lat="40.64460146" lon="-4.70548672"><ele>3066</ele><speed>11.08</speed><time>2016-07-01T14:15:33Z</time><pdop>5.0</pdop><geoidheight>53.00</geoidheight><course>235.2</course><type>1</type></trkpt>
      <trkpt lat="40.64453594" lon="-4.70560611"><ele>3067</ele><speed>11.37</speed><time>2016-07-01T14:15:34Z</time><pdop>4.0</pdop><geoidheight>53.00</geoidheight><course>234.2</course><type>1</type></trkpt>
      <trkpt lat="40.64447869" lon="-4.70571367"><ele>3069</ele><speed>11.39</speed><time>2016-07-01T14:15:35Z</time><pdop>4.0</pdop><geoidheight>53.00</geoidheight><course>233.9</course><type>1</type></trkpt>
      <trkpt lat="40.64442028" lon="-4.70582398"><ele>3069</ele><speed>11.26</speed><time>2016-07-01T14:15:36Z</time><pdop>4.0</pdop><geoidheight>53.00</geoidheight><course>234.0</course><type>1</type></trkpt>
      <trkpt lat="40.64435818" lon="-4.70594198"><ele>3069</ele><speed>11.32</speed><time>2016-07-01T14:15:37Z</time><pdop>4.0</pdop><geoidheight>53.00</geoidheight><course>233.8</course><type>1</type></trkpt>
      <trkpt lat="40.64422499" lon="-4.70614996"><ele>3067</ele><speed>11.89</speed><time>2016-07-01T14:15:39Z</time><pdop>10.0</pdop><geoidheight>53.00</geoidheight><course>231.3</course><type>1</type></trkpt>
      <trkpt lat="40.64410208" lon="-4.70638732"><ele>3067</ele><speed>12.10</speed><time>2016-07-01T14:15:41Z</time><pdop>10.0</pdop><geoidheight>53.00</geoidheight><course>235.7</course><type>1</type></trkpt>
      <trkpt lat="40.64398439" lon="-4.70662683"><ele>3067</ele><speed>11.56</speed><time>2016-07-01T14:15:43Z</time><pdop>10.0</pdop><geoidheight>53.00</geoidheight><course>238.0</course><type>1</type></trkpt>
      <trkpt lat="40.64388374" lon="-4.70684926"><ele>3067</ele><speed>11.11</speed><time>2016-07-01T14:15:45Z</time><pdop>10.0</pdop><geoidheight>53.00</geoidheight><course>239.6</course><type>1</type></trkpt>
      <trkpt lat="40.64379636" lon="-4.7070591"><ele>3067</ele><speed>10.52</speed><time>2016-07-01T14:15:47Z</time><pdop>10.0</pdop><geoidheight>53.00</geoidheight><course>240.2</course><type>1</type></trkpt>
      <trkpt lat="40.64369735" lon="-4.70727476"><ele>3066</ele><speed>10.59</speed><time>2016-07-01T14:15:49Z</time><pdop>9.0</pdop><geoidheight>53.00</geoidheight><course>239.7</course><type>1</type></trkpt>
      <trkpt lat="40.64361061" lon="-4.70752769"><ele>3067</ele><speed>11.55</speed><time>2016-07-01T14:15:51Z</time><pdop>9.0</pdop><geoidheight>53.00</geoidheight><course>246.2</course><type>1</type></trkpt>
      <trkpt lat="40.64353153" lon="-4.70776907"><ele>3067</ele><speed>10.96</speed><time>2016-07-01T14:15:53Z</time><pdop>10.0</pdop><geoidheight>53.00</geoidheight><course>247.9</course><type>1</type></trkpt>
      <trkpt lat="40.64345657" lon="-4.70799474"><ele>3065</ele><speed>9.77</speed><time>2016-07-01T14:15:55Z</time><pdop>9.0</pdop><geoidheight>53.00</geoidheight><course>247.0</course><type>1</type></trkpt>
      <trkpt lat="40.64337371" lon="-4.70821251"><ele>3062</ele><speed>10.31</speed><time>2016-07-01T14:15:57Z</time><pdop>9.0</pdop><geoidheight>53.00</geoidheight><course>243.1</course><type>1</type></trkpt>
      <trkpt lat="40.64328592" lon="-4.708459"><ele>3062</ele><speed>11.45</speed><time>2016-07-01T14:15:59Z</time><pdop>9.0</pdop><geoidheight>53.00</geoidheight><course>247.1</course><type>1</type></trkpt>
      <trkpt lat="40.6432052" lon="-4.70878089"><ele>3058</ele><speed>13.49</speed><time>2016-07-01T14:16:01Z</time><pdop>10.0</pdop><geoidheight>53.00</geoidheight><course>252.3</course><type>1</type></trkpt>
      <trkpt lat="40.64315383" lon="-4.70902359"><ele>3056</ele><speed>11.23</speed><time>2016-07-01T14:16:03Z</time><pdop>10.0</pdop><geoidheight>53.00</geoidheight><course>254.2</course><type>1</type></trkpt>
      <trkpt lat="40.64310213" lon="-4.7093378"><ele>3057</ele><speed>9.45</speed><time>2016-07-01T14:16:06Z</time><pdop>9.0</pdop><geoidheight>53.00</geoidheight><course>256.6</course><type>1</type></trkpt>
      <trkpt lat="40.64305653" lon="-4.70954293"><ele>3056</ele><speed>8.66</speed><time>2016-07-01T14:16:08Z</time><pdop>9.0</pdop><geoidheight>53.00</geoidheight><course>257.5</course><type>1</type></trkpt>
      <trkpt lat="40.6430274" lon="-4.70980987"><ele>3056</ele><speed>7.75</speed><time>2016-07-01T14:16:11Z</time><pdop>9.0</pdop><geoidheight>53.00</geoidheight><course>259.6</course><type>1</type></trkpt>
      <trkpt lat="40.64300084" lon="-4.71008801"><ele>3056</ele><speed>8.52</speed><time>2016-07-01T14:16:14Z</time><pdop>9.0</pdop><geoidheight>53.00</geoidheight><course>265.5</course><type>1</type></trkpt>
      <trkpt lat="40.64299689" lon="-4.71031403"><ele>3054</ele><speed>9.80</speed><time>2016-07-01T14:16:16Z</time><pdop>10.0</pdop><geoidheight>53.00</geoidheight><course>264.0</course><type>1</type></trkpt>
      <trkpt lat="40.6428949" lon="-4.71054685"><ele>3050</ele><speed>11.03</speed><time>2016-07-01T14:16:18Z</time><pdop>10.0</pdop><geoidheight>53.00</geoidheight><course>247.0</course><type>1</type></trkpt>
      <trkpt lat="40.64280965" lon="-4.71076697"><ele>3048</ele><speed>10.01</speed><time>2016-07-01T14:16:20Z</time><pdop>9.0</pdop><geoidheight>53.00</geoidheight><course>247.6</course><type>1</type></trkpt>
      <trkpt lat="40.64274705" lon="-4.7109988"><ele>3046</ele><speed>9.52</speed><time>2016-07-01T14:16:22Z</time><pdop>9.0</pdop><geoidheight>53.00</geoidheight><course>249.6</course><type>1</type></trkpt>
      <trkpt lat="40.64270323" lon="-4.71121183"><ele>3045</ele><speed>9.26</speed><time>2016-07-01T14:16:24Z</time><pdop>9.0</pdop><geoidheight>53.00</geoidheight><course>254.8</course><type>1</type></trkpt>
      <trkpt lat="40.64266031" lon="-4.71143134"><ele>3045</ele><speed>9.33</speed><time>2016-07-01T14:16:26Z</time><pdop>10.0</pdop><geoidheight>53.00</geoidheight><course>254.3</course><type>1</type></trkpt>
      <trkpt lat="40.6425889" lon="-4.7117291"><ele>3045</ele><speed>8.90</speed><time>2016-07-01T14:16:29Z</time><pdop>10.0</pdop><geoidheight>53.00</geoidheight><course>252.1</course><type>1</type></trkpt>
      <trkpt lat="40.64247628" lon="-4.71203031"><ele>3043</ele><speed>9.32</speed><time>2016-07-01T14:16:32Z</time><pdop>9.0</pdop><geoidheight>53.00</geoidheight><course>250.1</course><type>1</type></trkpt>
      <trkpt lat="40.64242825" lon="-4.71223477"><ele>3043</ele><speed>9.18</speed><time>2016-07-01T14:16:34Z</time><pdop>9.0</pdop><geoidheight>53.00</geoidheight><course>250.2</course><type>1</type></trkpt>
      <trkpt lat="40.6423501" lon="-4.71244864"><ele>3041</ele><speed>9.86</speed><time>2016-07-01T14:16:36Z</time><pdop>9.0</pdop><geoidheight>53.00</geoidheight><course>246.9</course><type>1</type></trkpt>
      <trkpt lat="40.64225201" lon="-4.71267554"><ele>3039</ele><speed>10.93</speed><time>2016-07-01T14:16:38Z</time><pdop>10.0</pdop><geoidheight>53.00</geoidheight><course>243.4</course><type>1</type></trkpt>
      <trkpt lat="40.64211635" lon="-4.71301936"><ele>3035</ele><speed>10.77</speed><time>2016-07-01T14:16:41Z</time><pdop>10.0</pdop><geoidheight>53.00</geoidheight><course>236.8</course><type>1</type></trkpt>
      <trkpt lat="40.64201533" lon="-4.71328757"><ele>3028</ele><speed>12.30</speed><time>2016-07-01T14:16:43Z</time><pdop>10.0</pdop><geoidheight>53.00</geoidheight><course>241.5</course><type>1</type></trkpt>
      <trkpt lat="40.64192255" lon="-4.71359202"><ele>3024</ele><speed>13.12</speed><time>2016-07-01T14:16:45Z</time><pdop>10.0</pdop><geoidheight>53.00</geoidheight><course>246.5</course><type>1</type></trkpt>
      <trkpt lat="40.64186033" lon="-4.71390528"><ele>3023</ele><speed>12.53</speed><time>2016-07-01T14:16:47Z</time><pdop>10.0</pdop><geoidheight>53.00</geoidheight><course>253.2</course><type>1</type></trkpt>
      <trkpt lat="40.64178001" lon="-4.7141816"><ele>3021</ele><speed>11.85</speed><time>2016-07-01T14:16:49Z</time><pdop>9.0</pdop><geoidheight>53.00</geoidheight><course>250.9</course><type>1</type></trkpt>
      <trkpt lat="40.64170513" lon="-4.71445664"><ele>3013</ele><speed>13.14</speed><time>2016-07-01T14:16:51Z</time><pdop>10.0</pdop><geoidheight>53.00</geoidheight><course>245.6</course><type>1</type></trkpt>
      <trkpt lat="40.64159579" lon="-4.71474552"><ele>3010</ele><speed>13.54</speed><time>2016-07-01T14:16:53Z</time><pdop>11.0</pdop><geoidheight>53.00</geoidheight><course>243.1</course><type>1</type></trkpt>
      <trkpt lat="40.64146313" lon="-4.71502783"><ele>3005</ele><speed>13.00</speed><time>2016-07-01T14:16:55Z</time><pdop>10.0</pdop><geoidheight>53.00</geoidheight><course>239.1</course><type>1</type></trkpt>
      <trkpt lat="40.64137109" lon="-4.71535"><ele>3001</ele><speed>13.05</speed><time>2016-07-01T14:16:57Z</time><pdop>11.0</pdop><geoidheight>53.00</geoidheight><course>243.5</course><type>1</type></trkpt>
      <trkpt lat="40.64123281" lon="-4.71565183"><ele>2998</ele><speed>14.39</speed><time>2016-07-01T14:16:59Z</time><pdop>12.0</pdop><geoidheight>53.00</geoidheight><course>240.9</course><type>1</type></trkpt>
      <trkpt lat="40.64113058" lon="-4.71596735"><ele>2992</ele><speed>14.11</speed><time>2016-07-01T14:17:01Z</time><pdop>10.0</pdop><geoidheight>53.00</geoidheight><course>244.0</course><type>1</type></trkpt>
      <trkpt lat="40.64102363" lon="-4.71626322"><ele>2990</ele><speed>13.51</speed><time>2016-07-01T14:17:03Z</time><pdop>11.0</pdop><geoidheight>53.00</geoidheight><course>243.6</course><type>1</type></trkpt>
      <trkpt lat="40.64090961" lon="-4.71654166"><ele>2988</ele><speed>13.07</speed><time>2016-07-01T14:17:05Z</time><pdop>10.0</pdop><geoidheight>53.00</geoidheight><course>240.0</course><type>1</type></trkpt>
      <trkpt lat="40.64080779" lon="-4.71681288"><ele>2983</ele><speed>12.96</speed><time>2016-07-01T14:17:07Z</time><pdop>9.0</pdop><geoidheight>53.00</geoidheight><course>240.7</course><type>1</type></trkpt>
      <trkpt lat="40.64069359" lon="-4.71708863"><ele>2980</ele><speed>13.33</speed><time>2016-07-01T14:17:09Z</time><pdop>9.0</pdop><geoidheight>53.00</geoidheight><course>242.7</course><type>1</type></trkpt>
      <trkpt lat="40.64057075" lon="-4.71740521"><ele>2976</ele><speed>13.80</speed><time>2016-07-01T14:17:11Z</time><pdop>9.0</pdop><geoidheight>53.00</geoidheight><course>241.4</course><type>1</type></trkpt>
      <trkpt lat="40.64047757" lon="-4.71767768"><ele>2973</ele><speed>12.49</speed><time>2016-07-01T14:17:13Z</time><pdop>10.0</pdop><geoidheight>53.00</geoidheight><course>245.9</course><type>1</type></trkpt>
      <trkpt lat="40.64037643" lon="-4.7179664"><ele>2969</ele><speed>13.74</speed><time>2016-07-01T14:17:15Z</time><pdop>10.0</pdop><geoidheight>53.00</geoidheight><course>241.8</course><type>1</type></trkpt>
      <trkpt lat="40.6402815" lon="-4.71828526"><ele>2965</ele><speed>14.35</speed><time>2016-07-01T14:17:17Z</time><pdop>10.0</pdop><geoidheight>53.00</geoidheight><course>244.3</course><type>1</type></trkpt>
      <trkpt lat="40.64020122" lon="-4.71861741"><ele>2962</ele><speed>14.18</speed><time>2016-07-01T14:17:19Z</time><pdop>10.0</pdop><geoidheight>53.00</geoidheight><course>249.0</course><type>1</type></trkpt>
      <trkpt lat="40.6401506" lon="-4.71897834"><ele>2959</ele><speed>14.67</speed><time>2016-07-01T14:17:21Z</time><pdop>11.0</pdop><geoidheight>53.00</geoidheight><course>255.5</course><type>1</type></trkpt>
      <trkpt lat="40.64011589" lon="-4.71929344"><ele>2956</ele><speed>13.54</speed><time>2016-07-01T14:17:23Z</time><pdop>11.0</pdop><geoidheight>53.00</geoidheight><course>257.1</course><type>1</type></trkpt>
      <trkpt lat="40.64009317" lon="-4.71959298"><ele>2952</ele><speed>12.99</speed><time>2016-07-01T14:17:25Z</time><pdop>11.0</pdop><geoidheight>53.00</geoidheight><course>259.0</course><type>1</type></trkpt>
      <trkpt lat="40.64002345" lon="-4.71988498"><ele>2950</ele><speed>12.86</speed><time>2016-07-01T14:17:27Z</time><pdop>10.0</pdop><geoidheight>53.00</geoidheight><course>258.5</course><type>1</type></trkpt>
      <trkpt lat="40.63999469" lon="-4.72017935"><ele>2946</ele><speed>11.45</speed><time>2016-07-01T14:17:29Z</time><pdop>10.0</pdop><geoidheight>53.00</geoidheight><course>259.4</course><type>1</type></trkpt>
      <trkpt lat="40.63994957" lon="-4.72042399"><ele>2945</ele><speed>10.40</speed><time>2016-07-01T14:17:31Z</time><pdop>10.0</pdop><geoidheight>53.00</geoidheight><course>259.0</course><type>1</type></trkpt>
      <trkpt lat="40.63988839" lon="-4.72077891"><ele>2945</ele><speed>10.53</speed><time>2016-07-01T14:17:34Z</time><pdop>9.0</pdop><geoidheight>53.00</geoidheight><course>256.9</course><type>1</type></trkpt>
      <trkpt lat="40.63983937" lon="-4.72100258"><ele>2947</ele><speed>10.69</speed><time>2016-07-01T14:17:36Z</time><pdop>9.0</pdop><geoidheight>53.00</geoidheight><course>249.0</course><type>1</type></trkpt>
      <trkpt lat="40.63975326" lon="-4.72120872"><ele>2942</ele><speed>10.20</speed><time>2016-07-01T14:17:38Z</time><pdop>9.0</pdop><geoidheight>53.00</geoidheight><course>244.9</course><type>1</type></trkpt>
      <trkpt lat="40.63967769" lon="-4.72142855"><ele>2939</ele><speed>9.63</speed><time>2016-07-01T14:17:40Z</time><pdop>10.0</pdop><geoidheight>53.00</geoidheight><course>244.4</course><type>1</type></trkpt>
      <trkpt lat="40.63963721" lon="-4.72166163"><ele>2936</ele><speed>10.39</speed><time>2016-07-01T14:17:42Z</time><pdop>10.0</pdop><geoidheight>53.00</geoidheight><course>254.9</course><type>1</type></trkpt>
      <trkpt lat="40.6395274" lon="-4.7219332"><ele>2934</ele><speed>12.03</speed><time>2016-07-01T14:17:44Z</time><pdop>10.0</pdop><geoidheight>53.00</geoidheight><course>242.9</course><type>1</type></trkpt>
      <trkpt lat="40.63944557" lon="-4.72220377"><ele>2932</ele><speed>12.85</speed><time>2016-07-01T14:17:46Z</time><pdop>10.0</pdop><geoidheight>53.00</geoidheight><course>245.7</course><type>1</type></trkpt>
      <trkpt lat="40.63933754" lon="-4.72250045"><ele>2930</ele><speed>13.00</speed><time>2016-07-01T14:17:48Z</time><pdop>11.0</pdop><geoidheight>53.00</geoidheight><course>245.7</course><type>1</type></trkpt>
      <trkpt lat="40.63925636" lon="-4.72280325"><ele>2926</ele><speed>12.83</speed><time>2016-07-01T14:17:50Z</time><pdop>10.0</pdop><geoidheight>53.00</geoidheight><course>244.7</course><type>1</type></trkpt>
      <trkpt lat="40.63916403" lon="-4.72309055"><ele>2922</ele><speed>12.47</speed><time>2016-07-01T14:17:52Z</time><pdop>10.0</pdop><geoidheight>53.00</geoidheight><course>242.7</course><type>1</type></trkpt>
      <trkpt lat="40.63904268" lon="-4.7233879"><ele>2918</ele><speed>13.92</speed><time>2016-07-01T14:17:54Z</time><pdop>11.0</pdop><geoidheight>53.00</geoidheight><course>242.6</course><type>1</type></trkpt>
      <trkpt lat="40.63896603" lon="-4.72374067"><ele>2911</ele><speed>14.11</speed><time>2016-07-01T14:17:56Z</time><pdop>11.0</pdop><geoidheight>53.00</geoidheight><course>245.8</course><type>1</type></trkpt>
      <trkpt lat="40.63894345" lon="-4.72414127"><ele>3006</ele><speed>15.10</speed><time>2016-07-01T14:17:58Z</time><pdop>13.0</pdop><geoidheight>53.00</geoidheight><course>256.0</course><type>1</type></trkpt>
      <trkpt lat="40.63892118" lon="-4.72446039"><ele>2976</ele><speed>13.46</speed><time>2016-07-01T14:18:00Z</time><pdop>12.0</pdop><geoidheight>53.00</geoidheight><course>258.9</course><type>1</type></trkpt>
      <trkpt lat="40.63892613" lon="-4.72477104"><ele>2944</ele><speed>12.88</speed><time>2016-07-01T14:18:02Z</time><pdop>11.0</pdop><geoidheight>53.00</geoidheight><course>263.2</course><type>1</type></trkpt>
      <trkpt lat="40.63891534" lon="-4.72504841"><ele>2929</ele><speed>12.44</speed><time>2016-07-01T14:18:04Z</time><pdop>10.0</pdop><geoidheight>53.00</geoidheight><course>262.1</course><type>1</type></trkpt>
      <trkpt lat="40.638892" lon="-4.72533878"><ele>2918</ele><speed>11.59</speed><time>2016-07-01T14:18:06Z</time><pdop>10.0</pdop><geoidheight>53.00</geoidheight><course>261.2</course><type>1</type></trkpt>
      <trkpt lat="40.63885027" lon="-4.72557674"><ele>2911</ele><speed>9.57</speed><time>2016-07-01T14:18:08Z</time><pdop>9.0</pdop><geoidheight>53.00</geoidheight><course>259.2</course><type>1</type></trkpt>
      <trkpt lat="40.63881015" lon="-4.72580209"><ele>2906</ele><speed>9.31</speed><time>2016-07-01T14:18:10Z</time><pdop>9.0</pdop><geoidheight>53.00</geoidheight><course>256.1</course><type>1</type></trkpt>
      <trkpt lat="40.63876464" lon="-4.72603436"><ele>2899</ele><speed>9.89</speed><time>2016-07-01T14:18:12Z</time><pdop>9.0</pdop><geoidheight>53.00</geoidheight><course>253.5</course><type>1</type></trkpt>
      <trkpt lat="40.63870687" lon="-4.7262941"><ele>2897</ele><speed>11.30</speed><time>2016-07-01T14:18:14Z</time><pdop>10.0</pdop><geoidheight>53.00</geoidheight><course>255.6</course><type>1</type></trkpt>
      <trkpt lat="40.63866842" lon="-4.72655979"><ele>2890</ele><speed>11.13</speed><time>2016-07-01T14:18:16Z</time><pdop>9.0</pdop><geoidheight>53.00</geoidheight><course>256.5</course><type>1</type></trkpt>
      <trkpt lat="40.63860318" lon="-4.72679758"><ele>2887</ele><speed>10.34</speed><time>2016-07-01T14:18:18Z</time><pdop>9.0</pdop><geoidheight>53.00</geoidheight><course>249.6</course><type>1</type></trkpt>
      <trkpt lat="40.63854025" lon="-4.72705715"><ele>2885</ele><speed>11.47</speed><time>2016-07-01T14:18:20Z</time><pdop>10.0</pdop><geoidheight>53.00</geoidheight><course>251.5</course><type>1</type></trkpt>
      <trkpt lat="40.63848323" lon="-4.72733018"><ele>2883</ele><speed>12.11</speed><time>2016-07-01T14:18:22Z</time><pdop>10.0</pdop><geoidheight>53.00</geoidheight><course>253.3</course><type>1</type></trkpt>
      <trkpt lat="40.63839866" lon="-4.72761556"><ele>2881</ele><speed>11.41</speed><time>2016-07-01T14:18:24Z</time><pdop>10.0</pdop><geoidheight>53.00</geoidheight><course>246.4</course><type>1</type></trkpt>
      <trkpt lat="40.63830647" lon="-4.72784095"><ele>2880</ele><speed>11.08</speed><time>2016-07-01T14:18:26Z</time><pdop>11.0</pdop><geoidheight>53.00</geoidheight><course>242.7</course><type>1</type></trkpt>
      <trkpt lat="40.63815806" lon="-4.72815628"><ele>2876</ele><speed>8.69</speed><time>2016-07-01T14:18:30Z</time><pdop>13.0</pdop><geoidheight>53.00</geoidheight><course>239.0</course><type>1</type></trkpt>
      <trkpt lat="40.63797107" lon="-4.72834324"><ele>2873</ele><speed>10.56</speed><time>2016-07-01T14:18:32Z</time><pdop>11.0</pdop><geoidheight>53.00</geoidheight><course>229.3</course><type>1</type></trkpt>
      <trkpt lat="40.63782726" lon="-4.72860852"><ele>2868</ele><speed>13.71</speed><time>2016-07-01T14:18:34Z</time><pdop>11.0</pdop><geoidheight>53.00</geoidheight><course>231.8</course><type>1</type></trkpt>
      <trkpt lat="40.63770171" lon="-4.72888512"><ele>2866</ele><speed>14.13</speed><time>2016-07-01T14:18:36Z</time><pdop>11.0</pdop><geoidheight>53.00</geoidheight><course>236.8</course><type>1</type></trkpt>
      <trkpt lat="40.63761145" lon="-4.72913093"><ele>2862</ele><speed>11.46</speed><time>2016-07-01T14:18:38Z</time><pdop>11.0</pdop><geoidheight>53.00</geoidheight><course>240.3</course><type>1</type></trkpt>
      <trkpt lat="40.63753777" lon="-4.7293667"><ele>2858</ele><speed>9.48</speed><time>2016-07-01T14:18:40Z</time><pdop>10.0</pdop><geoidheight>53.00</geoidheight><course>236.5</course><type>1</type></trkpt>
      <trkpt lat="40.63745341" lon="-4.72958084"><ele>2855</ele><speed>9.57</speed><time>2016-07-01T14:18:42Z</time><pdop>10.0</pdop><geoidheight>53.00</geoidheight><course>236.1</course><type>1</type></trkpt>
      <trkpt lat="40.6373246" lon="-4.72976612"><ele>2952</ele><speed>10.47</speed><time>2016-07-01T14:18:44Z</time><pdop>11.0</pdop><geoidheight>53.00</geoidheight><course>230.0</course><type>1</type></trkpt>
      <trkpt lat="40.6371456" lon="-4.72998943"><ele>2923</ele><speed>12.64</speed><time>2016-07-01T14:18:46Z</time><pdop>12.0</pdop><geoidheight>53.00</geoidheight><course>227.8</course><type>1</type></trkpt>
      <trkpt lat="40.63704168" lon="-4.73031271"><ele>2898</ele><speed>13.10</speed><time>2016-07-01T14:18:48Z</time><pdop>11.0</pdop><geoidheight>53.00</geoidheight><course>235.6</course><type>1</type></trkpt>
      <trkpt lat="40.63687237" lon="-4.73060658"><ele>2882</ele><speed>11.48</speed><time>2016-07-01T14:18:51Z</time><pdop>11.0</pdop><geoidheight>53.00</geoidheight><course>231.4</course><type>1</type></trkpt>
      <trkpt lat="40.63675662" lon="-4.7308277"><ele>2863</ele><speed>11.23</speed><time>2016-07-01T14:18:53Z</time><pdop>11.0</pdop><geoidheight>53.00</geoidheight><course>230.9</course><type>1</type></trkpt>
      <trkpt lat="40.63660853" lon="-4.73115068"><ele>2855</ele><speed>11.59</speed><time>2016-07-01T14:18:56Z</time><pdop>12.0</pdop><geoidheight>53.00</geoidheight><course>230.5</course><type>1</type></trkpt>
      <trkpt lat="40.63644904" lon="-4.73151566"><ele>2846</ele><speed>11.31</speed><time>2016-07-01T14:18:59Z</time><pdop>12.0</pdop><geoidheight>53.00</geoidheight><course>230.5</course><type>1</type></trkpt>
      <trkpt lat="40.6363381" lon="-4.73178413"><ele>2838</ele><speed>11.55</speed><time>2016-07-01T14:19:01Z</time><pdop>11.0</pdop><geoidheight>53.00</geoidheight><course>233.7</course><type>1</type></trkpt>
      <trkpt lat="40.63622092" lon="-4.73202399"><ele>2829</ele><speed>11.12</speed><time>2016-07-01T14:19:03Z</time><pdop>13.0</pdop><geoidheight>53.00</geoidheight><course>228.3</course><type>1</type></trkpt>
      <trkpt lat="40.63591321" lon="-4.73223029"><ele>2821</ele><speed>12.10</speed><time>2016-07-01T14:19:06Z</time><pdop>13.0</pdop><geoidheight>53.00</geoidheight><course>214.5</course><type>1</type></trkpt>
      <trkpt lat="40.63573804" lon="-4.73243038"><ele>2812</ele><speed>12.44</speed><time>2016-07-01T14:19:08Z</time><pdop>12.0</pdop><geoidheight>53.00</geoidheight><course>220.6</course><type>1</type></trkpt>
      <trkpt lat="40.63559549" lon="-4.73272604"><ele>2801</ele><speed>10.50</speed><time>2016-07-01T14:19:11Z</time><pdop>12.0</pdop><geoidheight>53.00</geoidheight><course>223.5</course><type>1</type></trkpt>
      <trkpt lat="40.63550404" lon="-4.73297213"><ele>2792</ele><speed>10.71</speed><time>2016-07-01T14:19:13Z</time><pdop>11.0</pdop><geoidheight>53.00</geoidheight><course>229.2</course><type>1</type></trkpt>
      <trkpt lat="40.63538701" lon="-4.73320263"><ele>2787</ele><speed>11.70</speed><time>2016-07-01T14:19:15Z</time><pdop>11.0</pdop><geoidheight>53.00</geoidheight><course>233.1</course><type>1</type></trkpt>
      <trkpt lat="40.6353094" lon="-4.73346261"><ele>2783</ele><speed>11.39</speed><time>2016-07-01T14:19:17Z</time><pdop>11.0</pdop><geoidheight>53.00</geoidheight><course>237.4</course><type>1</type></trkpt>
      <trkpt lat="40.63520472" lon="-4.73369891"><ele>2778</ele><speed>11.00</speed><time>2016-07-01T14:19:19Z</time><pdop>11.0</pdop><geoidheight>53.00</geoidheight><course>234.5</course><type>1</type></trkpt>
      <trkpt lat="40.63508302" lon="-4.73392877"><ele>2773</ele><speed>10.86</speed><time>2016-07-01T14:19:21Z</time><pdop>11.0</pdop><geoidheight>53.00</geoidheight><course>232.6</course><type>1</type></trkpt>
      <trkpt lat="40.63495371" lon="-4.73420153"><ele>2769</ele><speed>8.75</speed><time>2016-07-01T14:19:24Z</time><pdop>13.0</pdop><geoidheight>53.00</geoidheight><course>234.8</course><type>1</type></trkpt>
      <trkpt lat="40.63477484" lon="-4.73448706"><ele>2762</ele><speed>10.29</speed><time>2016-07-01T14:19:27Z</time><pdop>12.0</pdop><geoidheight>53.00</geoidheight><course>223.0</course><type>1</type></trkpt>
      <trkpt lat="40.63461166" lon="-4.73474449"><ele>2757</ele><speed>10.05</speed><time>2016-07-01T14:19:30Z</time><pdop>13.0</pdop><geoidheight>53.00</geoidheight><course>225.4</course><type>1</type></trkpt>
      <trkpt lat="40.63447091" lon="-4.7349987"><ele>2753</ele><speed>9.53</speed><time>2016-07-01T14:19:33Z</time><pdop>13.0</pdop><geoidheight>53.00</geoidheight><course>232.0</course><type>1</type></trkpt>
      <trkpt lat="40.63426255" lon="-4.73529521"><ele>2746</ele><speed>10.51</speed><time>2016-07-01T14:19:36Z</time><pdop>14.0</pdop><geoidheight>53.00</geoidheight><course>225.9</course><type>1</type></trkpt>
      <trkpt lat="40.63411687" lon="-4.73555855"><ele>2744</ele><speed>9.26</speed><time>2016-07-01T14:19:39Z</time><pdop>13.0</pdop><geoidheight>53.00</geoidheight><course>229.3</course><type>1</type></trkpt>
      <trkpt lat="40.63401683" lon="-4.73586704"><ele>2738</ele><speed>8.62</speed><time>2016-07-01T14:19:42Z</time><pdop>12.0</pdop><geoidheight>53.00</geoidheight><course>238.4</course><type>1</type></trkpt>
      <trkpt lat="40.63391452" lon="-4.7361566"><ele>2735</ele><speed>7.30</speed><time>2016-07-01T14:19:46Z</time><pdop>12.0</pdop><geoidheight>53.00</geoidheight><course>239.9</course><type>1</type></trkpt>
      <trkpt lat="40.63371303" lon="-4.73629837"><ele>2730</ele><speed>9.26</speed><time>2016-07-01T14:19:48Z</time><pdop>12.0</pdop><geoidheight>53.00</geoidheight><course>223.2</course><type>1</type></trkpt>
      <trkpt lat="40.63356993" lon="-4.73654459"><ele>2728</ele><speed>12.19</speed><time>2016-07-01T14:19:50Z</time><pdop>11.0</pdop><geoidheight>53.00</geoidheight><course>228.5</course><type>1</type></trkpt>
      <trkpt lat="40.63343323" lon="-4.73679614"><ele>2724</ele><speed>12.89</speed><time>2016-07-01T14:19:52Z</time><pdop>11.0</pdop><geoidheight>53.00</geoidheight><course>231.3</course><type>1</type></trkpt>
      <trkpt lat="40.63333235" lon="-4.73705428"><ele>2720</ele><speed>12.54</speed><time>2016-07-01T14:19:54Z</time><pdop>11.0</pdop><geoidheight>53.00</geoidheight><course>234.6</course><type>1</type></trkpt>
      <trkpt lat="40.63329891" lon="-4.73732791"><ele>2715</ele><speed>11.74</speed><time>2016-07-01T14:19:56Z</time><pdop>12.0</pdop><geoidheight>53.00</geoidheight><course>242.4</course><type>1</type></trkpt>
      <trkpt lat="40.63315889" lon="-4.73757503"><ele>2711</ele><speed>12.06</speed><time>2016-07-01T14:19:58Z</time><pdop>12.0</pdop><geoidheight>53.00</geoidheight><course>236.0</course><type>1</type></trkpt>
      <trkpt lat="40.63295152" lon="-4.73787023"><ele>2710</ele><speed>11.59</speed><time>2016-07-01T14:20:01Z</time><pdop>14.0</pdop><geoidheight>53.00</geoidheight><course>229.8</course><type>1</type></trkpt>
      <trkpt lat="40.63275492" lon="-4.73804871"><ele>2706</ele><speed>12.30</speed><time>2016-07-01T14:20:03Z</time><pdop>12.0</pdop><geoidheight>53.00</geoidheight><course>224.3</course><type>1</type></trkpt>
      <trkpt lat="40.63259706" lon="-4.73827573"><ele>2702</ele><speed>12.02</speed><time>2016-07-01T14:20:05Z</time><pdop>12.0</pdop><geoidheight>53.00</geoidheight><course>224.9</course><type>1</type></trkpt>
      <trkpt lat="40.63244927" lon="-4.73860937"><ele>2696</ele><speed>13.49</speed><time>2016-07-01T14:20:07Z</time><pdop>11.0</pdop><geoidheight>53.00</geoidheight><course>234.1</course><type>1</type></trkpt>
      <trkpt lat="40.63234089" lon="-4.73884078"><ele>2689</ele><speed>12.92</speed><time>2016-07-01T14:20:09Z</time><pdop>11.0</pdop><geoidheight>53.00</geoidheight><course>233.1</course><type>1</type></trkpt>
      <trkpt lat="40.63222538" lon="-4.73907265"><ele>2683</ele><speed>12.76</speed><time>2016-07-01T14:20:11Z</time><pdop>11.0</pdop><geoidheight>53.00</geoidheight><course>232.2</course><type>1</type></trkpt>
      <trkpt lat="40.63212585" lon="-4.73937605"><ele>2679</ele><speed>12.91</speed><time>2016-07-01T14:20:13Z</time><pdop>11.0</pdop><geoidheight>53.00</geoidheight><course>235.8</course><type>1</type></trkpt>
      <trkpt lat="40.63196411" lon="-4.73965712"><ele>2675</ele><speed>14.44</speed><time>2016-07-01T14:20:15Z</time><pdop>12.0</pdop><geoidheight>53.00</geoidheight><course>234.2</course><type>1</type></trkpt>
      <trkpt lat="40.63183746" lon="-4.73993038"><ele>2672</ele><speed>13.94</speed><time>2016-07-01T14:20:17Z</time><pdop>12.0</pdop><geoidheight>53.00</geoidheight><course>238.3</course><type>1</type></trkpt>
      <trkpt lat="40.6316902" lon="-4.74016912"><ele>2670</ele><speed>12.29</speed><time>2016-07-01T14:20:19Z</time><pdop>11.0</pdop><geoidheight>53.00</geoidheight><course>233.8</course><type>1</type></trkpt>
      <trkpt lat="40.63157975" lon="-4.74046749"><ele>2665</ele><speed>13.14</speed><time>2016-07-01T14:20:21Z</time><pdop>12.0</pdop><geoidheight>53.00</geoidheight><course>234.6</course><type>1</type></trkpt>
      <trkpt lat="40.63146156" lon="-4.74073525"><ele>2661</ele><speed>13.17</speed><time>2016-07-01T14:20:23Z</time><pdop>14.0</pdop><geoidheight>53.00</geoidheight><course>234.9</course><type>1</type></trkpt>
      <trkpt lat="40.63128964" lon="-4.74098871"><ele>2656</ele><speed>13.99</speed><time>2016-07-01T14:20:25Z</time><pdop>13.0</pdop><geoidheight>53.00</geoidheight><course>230.7</course><type>1</type></trkpt>
      <trkpt lat="40.63117483" lon="-4.74131606"><ele>2651</ele><speed>14.86</speed><time>2016-07-01T14:20:27Z</time><pdop>13.0</pdop><geoidheight>53.00</geoidheight><course>238.0</course><type>1</type></trkpt>
      <trkpt lat="40.63105435" lon="-4.74166457"><ele>2645</ele><speed>14.25</speed><time>2016-07-01T14:20:29Z</time><pdop>12.0</pdop><geoidheight>53.00</geoidheight><course>241.5</course><type>1</type></trkpt>
      <trkpt lat="40.63095762" lon="-4.74198564"><ele>2637</ele><speed>13.18</speed><time>2016-07-01T14:20:31Z</time><pdop>12.0</pdop><geoidheight>53.00</geoidheight><course>240.2</course><type>1</type></trkpt>
      <trkpt lat="40.63084083" lon="-4.74227636"><ele>2632</ele><speed>13.39</speed><time>2016-07-01T14:20:33Z</time><pdop>14.0</pdop><geoidheight>53.00</geoidheight><course>239.9</course><type>1</type></trkpt>
      <trkpt lat="40.63065788" lon="-4.74273458"><ele>2627</ele><speed>14.51</speed><time>2016-07-01T14:20:36Z</time><pdop>16.0</pdop><geoidheight>53.00</geoidheight><course>239.6</course><type>1</type></trkpt>
      <trkpt lat="40.63061408" lon="-4.74309146"><ele>2622</ele><speed>13.81</speed><time>2016-07-01T14:20:38Z</time><pdop>14.0</pdop><geoidheight>53.00</geoidheight><course>247.9</course><type>1</type></trkpt>
      <trkpt lat="40.63049645" lon="-4.74351239"><ele>2619</ele><speed>12.35</speed><time>2016-07-01T14:20:41Z</time><pdop>17.0</pdop><geoidheight>53.00</geoidheight><course>248.3</course><type>1</type></trkpt>
      <trkpt lat="40.63025585" lon="-4.74379319"><ele>2612</ele><speed>15.25</speed><time>2016-07-01T14:20:43Z</time><pdop>12.0</pdop><geoidheight>53.00</geoidheight><course>232.8</course><type>1</type></trkpt>
      <trkpt lat="40.63011417" lon="-4.74415986"><ele>2606</ele><speed>16.65</speed><time>2016-07-01T14:20:45Z</time><pdop>12.0</pdop><geoidheight>53.00</geoidheight><course>236.4</course><type>1</type></trkpt>
      <trkpt lat="40.62997866" lon="-4.74441846"><ele>2601</ele><speed>14.24</speed><time>2016-07-01T14:20:47Z</time><pdop>13.0</pdop><geoidheight>53.00</geoidheight><course>233.2</course><type>1</type></trkpt>
      <trkpt lat="40.62982768" lon="-4.7448273"><ele>2595</ele><speed>12.73</speed><time>2016-07-01T14:20:50Z</time><pdop>14.0</pdop><geoidheight>53.00</geoidheight><course>240.4</course><type>1</type></trkpt>
      <trkpt lat="40.62964405" lon="-4.74514797"><ele>2589</ele><speed>15.17</speed><time>2016-07-01T14:20:52Z</time><pdop>13.0</pdop><geoidheight>53.00</geoidheight><course>234.6</course><type>1</type></trkpt>
      <trkpt lat="40.62945563" lon="-4.74541709"><ele>2584</ele><speed>15.23</speed><time>2016-07-01T14:20:54Z</time><pdop>13.0</pdop><geoidheight>53.00</geoidheight><course>234.2</course><type>1</type></trkpt>
      <trkpt lat="40.62941343" lon="-4.74574445"><ele>2575</ele><speed>14.08</speed><time>2016-07-01T14:20:56Z</time><pdop>13.0</pdop><geoidheight>53.00</geoidheight><course>242.0</course><type>1</type></trkpt>
      <trkpt lat="40.62924834" lon="-4.74601092"><ele>2572</ele><speed>13.98</speed><time>2016-07-01T14:20:58Z</time><pdop>16.0</pdop><geoidheight>53.00</geoidheight><course>233.9</course><type>1</type></trkpt>
      <trkpt lat="40.62900664" lon="-4.74647053"><ele>2564</ele><speed>15.91</speed><time>2016-07-01T14:21:01Z</time><pdop>14.0</pdop><geoidheight>53.00</geoidheight><course>232.6</course><type>1</type></trkpt>
      <trkpt lat="40.62891782" lon="-4.7467882"><ele>2557</ele><speed>15.13</speed><time>2016-07-01T14:21:03Z</time><pdop>13.0</pdop><geoidheight>53.00</geoidheight><course>238.1</course><type>1</type></trkpt>
      <trkpt lat="40.62878854" lon="-4.74714229"><ele>2550</ele><speed>15.02</speed><time>2016-07-01T14:21:05Z</time><pdop>13.0</pdop><geoidheight>53.00</geoidheight><course>238.6</course><type>1</type></trkpt>
      <trkpt lat="40.62865502" lon="-4.7474366"><ele>2544</ele><speed>14.00</speed><time>2016-07-01T14:21:07Z</time><pdop>13.0</pdop><geoidheight>53.00</geoidheight><course>233.5</course><type>1</type></trkpt>
      <trkpt lat="40.62853415" lon="-4.74772242"><ele>2537</ele><speed>13.93</speed><time>2016-07-01T14:21:09Z</time><pdop>13.0</pdop><geoidheight>53.00</geoidheight><course>235.6</course><type>1</type></trkpt>
      <trkpt lat="40.62846037" lon="-4.74808035"><ele>2528</ele><speed>14.37</speed><time>2016-07-01T14:21:11Z</time><pdop>14.0</pdop><geoidheight>53.00</geoidheight><course>240.9</course><type>1</type></trkpt>
      <trkpt lat="40.62836615" lon="-4.74854779"><ele>2519</ele><speed>17.33</speed><time>2016-07-01T14:21:13Z</time><pdop>13.0</pdop><geoidheight>53.00</geoidheight><course>248.6</course><type>1</type></trkpt>
      <trkpt lat="40.6282479" lon="-4.74896062"><ele>2514</ele><speed>16.66</speed><time>2016-07-01T14:21:15Z</time><pdop>12.0</pdop><geoidheight>53.00</geoidheight><course>248.0</course><type>1</type></trkpt>
      <trkpt lat="40.62812783" lon="-4.74927567"><ele>2510</ele><speed>14.59</speed><time>2016-07-01T14:21:17Z</time><pdop>13.0</pdop><geoidheight>53.00</geoidheight><course>240.4</course><type>1</type></trkpt>
      <trkpt lat="40.62792768" lon="-4.7496381"><ele>2503</ele><speed>12.17</speed><time>2016-07-01T14:21:20Z</time><pdop>13.0</pdop><geoidheight>53.00</geoidheight><course>231.0</course><type>1</type></trkpt>
      <trkpt lat="40.62769624" lon="-4.74997422"><ele>2496</ele><speed>12.43</speed><time>2016-07-01T14:21:23Z</time><pdop>14.0</pdop><geoidheight>53.00</geoidheight><course>227.8</course><type>1</type></trkpt>
      <trkpt lat="40.62719587" lon="-4.7510376"><ele>2689</ele><speed>13.49</speed><time>2016-07-01T14:21:30Z</time><pdop>14.0</pdop><geoidheight>53.00</geoidheight><course>241.0</course><type>1</type></trkpt>
      <trkpt lat="40.62713477" lon="-4.75136146"><ele>2615</ele><speed>12.93</speed><time>2016-07-01T14:21:32Z</time><pdop>14.0</pdop><geoidheight>53.00</geoidheight><course>246.4</course><type>1</type></trkpt>
      <trkpt lat="40.62700951" lon="-4.75171218"><ele>2556</ele><speed>11.26</speed><time>2016-07-01T14:21:35Z</time><pdop>14.0</pdop><geoidheight>53.00</geoidheight><course>242.7</course><type>1</type></trkpt>
      <trkpt lat="40.62691435" lon="-4.75215101"><ele>2528</ele><speed>12.49</speed><time>2016-07-01T14:21:38Z</time><pdop>14.0</pdop><geoidheight>53.00</geoidheight><course>246.1</course><type>1</type></trkpt>
      <trkpt lat="40.62678996" lon="-4.75249732"><ele>2514</ele><speed>14.18</speed><time>2016-07-01T14:21:40Z</time><pdop>13.0</pdop><geoidheight>53.00</geoidheight><course>246.5</course><type>1</type></trkpt>
      <trkpt lat="40.62668882" lon="-4.75282533"><ele>2504</ele><speed>13.77</speed><time>2016-07-01T14:21:42Z</time><pdop>13.0</pdop><geoidheight>53.00</geoidheight><course>246.8</course><type>1</type></trkpt>
      <trkpt lat="40.62655477" lon="-4.75310818"><ele>2480</ele><speed>12.83</speed><time>2016-07-01T14:21:44Z</time><pdop>13.0</pdop><geoidheight>53.00</geoidheight><course>240.1</course><type>1</type></trkpt>
      <trkpt lat="40.62642457" lon="-4.7534324"><ele>2461</ele><speed>10.59</speed><time>2016-07-01T14:21:47Z</time><pdop>12.0</pdop><geoidheight>53.00</geoidheight><course>234.9</course><type>1</type></trkpt>
      <trkpt lat="40.62623557" lon="-4.75375765"><ele>2451</ele><speed>11.47</speed><time>2016-07-01T14:21:50Z</time><pdop>12.0</pdop><geoidheight>53.00</geoidheight><course>234.5</course><type>1</type></trkpt>
      <trkpt lat="40.62616028" lon="-4.75410251"><ele>2440</ele><speed>9.84</speed><time>2016-07-01T14:21:53Z</time><pdop>11.0</pdop><geoidheight>53.00</geoidheight><course>241.6</course><type>1</type></trkpt>
      <trkpt lat="40.62601279" lon="-4.75441976"><ele>2434</ele><speed>10.10</speed><time>2016-07-01T14:21:56Z</time><pdop>12.0</pdop><geoidheight>53.00</geoidheight><course>231.7</course><type>1</type></trkpt>
      <trkpt lat="40.6259124" lon="-4.75479481"><ele>2424</ele><speed>10.52</speed><time>2016-07-01T14:21:59Z</time><pdop>13.0</pdop><geoidheight>53.00</geoidheight><course>242.5</course><type>1</type></trkpt>
      <trkpt lat="40.62583398" lon="-4.75510743"><ele>2423</ele><speed>11.88</speed><time>2016-07-01T14:22:01Z</time><pdop>14.0</pdop><geoidheight>53.00</geoidheight><course>254.0</course><type>1</type></trkpt>
      <trkpt lat="40.62582685" lon="-4.75546579"><ele>2417</ele><speed>12.80</speed><time>2016-07-01T14:22:03Z</time><pdop>12.0</pdop><geoidheight>53.00</geoidheight><course>260.3</course><type>1</type></trkpt>
      <trkpt lat="40.62580325" lon="-4.75573688"><ele>2403</ele><speed>8.21</speed><time>2016-07-01T14:22:06Z</time><pdop>11.0</pdop><geoidheight>53.00</geoidheight><course>253.0</course><type>1</type></trkpt>
      <trkpt lat="40.62575785" lon="-4.75600299"><ele>2394</ele><speed>7.75</speed><time>2016-07-01T14:22:09Z</time><pdop>10.0</pdop><geoidheight>53.00</geoidheight><course>252.0</course><type>1</type></trkpt>
      <trkpt lat="40.62558439" lon="-4.75629378"><ele>2390</ele><speed>10.45</speed><time>2016-07-01T14:22:12Z</time><pdop>11.0</pdop><geoidheight>53.00</geoidheight><course>231.7</course><type>1</type></trkpt>
      <trkpt lat="40.62538678" lon="-4.75652221"><ele>2385</ele><speed>12.37</speed><time>2016-07-01T14:22:14Z</time><pdop>10.0</pdop><geoidheight>53.00</geoidheight><course>227.5</course><type>1</type></trkpt>
      <trkpt lat="40.62527821" lon="-4.75674159"><ele>2383</ele><speed>11.19</speed><time>2016-07-01T14:22:16Z</time><pdop>11.0</pdop><geoidheight>53.00</geoidheight><course>237.3</course><type>1</type></trkpt>
      <trkpt lat="40.62513079" lon="-4.75704837"><ele>2376</ele><speed>10.03</speed><time>2016-07-01T14:22:19Z</time><pdop>11.0</pdop><geoidheight>53.00</geoidheight><course>234.7</course><type>1</type></trkpt>
      <trkpt lat="40.6250847" lon="-4.75731284"><ele>2368</ele><speed>10.37</speed><time>2016-07-01T14:22:21Z</time><pdop>11.0</pdop><geoidheight>53.00</geoidheight><course>241.8</course><type>1</type></trkpt>
      <trkpt lat="40.62485268" lon="-4.75766952"><ele>2362</ele><speed>12.17</speed><time>2016-07-01T14:22:24Z</time><pdop>14.0</pdop><geoidheight>53.00</geoidheight><course>231.6</course><type>1</type></trkpt>
      <trkpt lat="40.62482735" lon="-4.75800405"><ele>2354</ele><speed>12.21</speed><time>2016-07-01T14:22:26Z</time><pdop>11.0</pdop><geoidheight>53.00</geoidheight><course>245.8</course><type>1</type></trkpt>
      <trkpt lat="40.62461524" lon="-4.75857883"><ele>2526</ele><speed>7.01</speed><time>2016-07-01T14:22:32Z</time><pdop>10.0</pdop><geoidheight>53.00</geoidheight><course>224.3</course><type>1</type></trkpt>
      <trkpt lat="40.62445357" lon="-4.75884748"><ele>2575</ele><speed>9.58</speed><time>2016-07-01T14:22:35Z</time><pdop>11.0</pdop><geoidheight>53.00</geoidheight><course>231.7</course><type>1</type></trkpt>
      <trkpt lat="40.62434118" lon="-4.75911559"><ele>2484</ele><speed>12.70</speed><time>2016-07-01T14:22:37Z</time><pdop>11.0</pdop><geoidheight>53.00</geoidheight><course>237.7</course><type>1</type></trkpt>
      <trkpt lat="40.62424717" lon="-4.759452"><ele>2453</ele><speed>14.60</speed><time>2016-07-01T14:22:39Z</time><pdop>11.0</pdop><geoidheight>53.00</geoidheight><course>245.4</course><type>1</type></trkpt>
      <trkpt lat="40.62416964" lon="-4.75975255"><ele>2412</ele><speed>13.44</speed><time>2016-07-01T14:22:41Z</time><pdop>10.0</pdop><geoidheight>53.00</geoidheight><course>250.7</course><type>1</type></trkpt>
      <trkpt lat="40.62417828" lon="-4.76001958"><ele>2389</ele><speed>11.26</speed><time>2016-07-01T14:22:43Z</time><pdop>10.0</pdop><geoidheight>53.00</geoidheight><course>261.4</course><type>1</type></trkpt>
      <trkpt lat="40.62417399" lon="-4.76028057"><ele>2366</ele><speed>7.33</speed><time>2016-07-01T14:22:46Z</time><pdop>11.0</pdop><geoidheight>53.00</geoidheight><course>268.5</course><type>1</type></trkpt>
      <trkpt lat="40.62415428" lon="-4.76057968"><ele>2340</ele><speed>5.49</speed><time>2016-07-01T14:22:51Z</time><pdop>12.0</pdop><geoidheight>53.00</geoidheight><course>268.2</course><type>1</type></trkpt>
      <trkpt lat="40.62444773" lon="-4.76062361"><ele>2332</ele><speed>7.14</speed><time>2016-07-01T14:22:55Z</time><pdop>11.0</pdop><geoidheight>53.00</geoidheight><course>348.3</course><type>1</type></trkpt>
      <trkpt lat="40.62465927" lon="-4.76038575"><ele>2327</ele><speed>12.00</speed><time>2016-07-01T14:22:57Z</time><pdop>10.0</pdop><geoidheight>53.00</geoidheight><course>35.9</course><type>1</type></trkpt>
      <trkpt lat="40.62474337" lon="-4.76013008"><ele>2323</ele><speed>12.44</speed><time>2016-07-01T14:22:59Z</time><pdop>9.0</pdop><geoidheight>53.00</geoidheight><course>66.6</course><type>1</type></trkpt>
      <trkpt lat="40.62477291" lon="-4.75985537"><ele>2325</ele><speed>11.73</speed><time>2016-07-01T14:23:01Z</time><pdop>9.0</pdop><geoidheight>53.00</geoidheight><course>89.4</course><type>1</type></trkpt>
      <trkpt lat="40.62473104" lon="-4.75961236"><ele>2326</ele><speed>11.12</speed><time>2016-07-01T14:23:03Z</time><pdop>9.0</pdop><geoidheight>53.00</geoidheight><course>105.2</course><type>1</type></trkpt>
      <trkpt lat="40.6245828" lon="-4.75950108"><ele>2324</ele><speed>8.97</speed><time>2016-07-01T14:23:05Z</time><pdop>3.0</pdop><geoidheight>53.00</geoidheight><course>148.7</course><type>1</type></trkpt>
      <trkpt lat="40.6245069" lon="-4.75948302"><ele>2323</ele><speed>8.92</speed><time>2016-07-01T14:23:06Z</time><pdop>3.0</pdop><geoidheight>53.00</geoidheight><course>170.6</course><type>1</type></trkpt>
      <trkpt lat="40.62441979" lon="-4.75949891"><ele>2321</ele><speed>9.01</speed><time>2016-07-01T14:23:07Z</time><pdop>3.0</pdop><geoidheight>53.00</geoidheight><course>186.8</course><type>1</type></trkpt>
      <trkpt lat="40.62433381" lon="-4.75951281"><ele>2320</ele><speed>8.98</speed><time>2016-07-01T14:23:08Z</time><pdop>3.0</pdop><geoidheight>53.00</geoidheight><course>189.1</course><type>1</type></trkpt>
      <trkpt lat="40.62425675" lon="-4.75954987"><ele>2320</ele><speed>8.92</speed><time>2016-07-01T14:23:09Z</time><pdop>4.0</pdop><geoidheight>53.00</geoidheight><course>197.3</course><type>1</type></trkpt>
      <trkpt lat="40.62418894" lon="-4.75962807"><ele>2320</ele><speed>9.24</speed><time>2016-07-01T14:23:10Z</time><pdop>5.0</pdop><geoidheight>53.00</geoidheight><course>209.6</course><type>1</type></trkpt>
      <trkpt lat="40.62419938" lon="-4.75978631"><ele>2319</ele><speed>9.22</speed><time>2016-07-01T14:23:11Z</time><pdop>4.0</pdop><geoidheight>53.00</geoidheight><course>240.5</course><type>1</type></trkpt>
      <trkpt lat="40.6241821" lon="-4.75989401"><ele>2319</ele><speed>8.92</speed><time>2016-07-01T14:23:12Z</time><pdop>3.0</pdop><geoidheight>53.00</geoidheight><course>244.7</course><type>1</type></trkpt>
      <trkpt lat="40.62414458" lon="-4.75999102"><ele>2320</ele><speed>8.96</speed><time>2016-07-01T14:23:13Z</time><pdop>4.0</pdop><geoidheight>53.00</geoidheight><course>245.1</course><type>1</type></trkpt>
      <trkpt lat="40.62411572" lon="-4.76009782"><ele>2318</ele><speed>9.22</speed><time>2016-07-01T14:23:14Z</time><pdop>4.0</pdop><geoidheight>53.00</geoidheight><course>245.2</course><type>1</type></trkpt>
      <trkpt lat="40.62408823" lon="-4.76019832"><ele>2319</ele><speed>9.35</speed><time>2016-07-01T14:23:15Z</time><pdop>3.0</pdop><geoidheight>53.00</geoidheight><course>247.2</course><type>1</type></trkpt>
      <trkpt lat="40.6240546" lon="-4.76030339"><ele>2320</ele><speed>9.45</speed><time>2016-07-01T14:23:16Z</time><pdop>3.0</pdop><geoidheight>53.00</geoidheight><course>248.3</course><type>1</type></trkpt>
      <trkpt lat="40.62402201" lon="-4.7604203"><ele>2321</ele><speed>9.68</speed><time>2016-07-01T14:23:17Z</time><pdop>5.0</pdop><geoidheight>53.00</geoidheight><course>249.0</course><type>1</type></trkpt>
      <trkpt lat="40.62400312" lon="-4.76054551"><ele>2320</ele><speed>9.96</speed><time>2016-07-01T14:23:18Z</time><pdop>5.0</pdop><geoidheight>53.00</geoidheight><course>252.6</course><type>1</type></trkpt>
      <trkpt lat="40.62395684" lon="-4.76071498"><ele>2322</ele><speed>8.13</speed><time>2016-07-01T14:23:20Z</time><pdop>4.0</pdop><geoidheight>53.00</geoidheight><course>250.1</course><type>1</type></trkpt>
      <trkpt lat="40.62391555" lon="-4.76081726"><ele>2323</ele><speed>8.78</speed><time>2016-07-01T14:23:21Z</time><pdop>4.0</pdop><geoidheight>53.00</geoidheight><course>244.9</course><type>1</type></trkpt>
      <trkpt lat="40.62382797" lon="-4.76095878"><ele>2320</ele><speed>8.12</speed><time>2016-07-01T14:23:23Z</time><pdop>5.0</pdop><geoidheight>53.00</geoidheight><course>225.4</course><type>1</type></trkpt>
      <trkpt lat="40.62374202" lon="-4.76100103"><ele>2322</ele><speed>8.90</speed><time>2016-07-01T14:23:24Z</time><pdop>4.0</pdop><geoidheight>53.00</geoidheight><course>207.5</course><type>1</type></trkpt>
      <trkpt lat="40.62361089" lon="-4.76109412"><ele>2324</ele><speed>8.29</speed><time>2016-07-01T14:23:26Z</time><pdop>7.0</pdop><geoidheight>53.00</geoidheight><course>204.6</course><type>1</type></trkpt>
      <trkpt lat="40.62342631" lon="-4.76100527"><ele>2325</ele><speed>6.71</speed><time>2016-07-01T14:23:29Z</time><pdop>8.0</pdop><geoidheight>53.00</geoidheight><course>169.1</course><type>1</type></trkpt>
      <trkpt lat="40.62327807" lon="-4.76097371"><ele>2325</ele><speed>7.59</speed><time>2016-07-01T14:23:31Z</time><pdop>5.0</pdop><geoidheight>53.00</geoidheight><course>182.0</course><type>1</type></trkpt>
      <trkpt lat="40.62314001" lon="-4.76096882"><ele>2327</ele><speed>7.51</speed><time>2016-07-01T14:23:33Z</time><pdop>5.0</pdop><geoidheight>53.00</geoidheight><course>190.1</course><type>1</type></trkpt>
      <trkpt lat="40.62300144" lon="-4.76101407"><ele>2328</ele><speed>7.62</speed><time>2016-07-01T14:23:35Z</time><pdop>5.0</pdop><geoidheight>53.00</geoidheight><course>198.7</course><type>1</type></trkpt>
      <trkpt lat="40.62287254" lon="-4.761057"><ele>2330</ele><speed>7.69</speed><time>2016-07-01T14:23:37Z</time><pdop>5.0</pdop><geoidheight>53.00</geoidheight><course>199.2</course><type>1</type></trkpt>
      <trkpt lat="40.62273595" lon="-4.7611055"><ele>2324</ele><speed>7.86</speed><time>2016-07-01T14:23:39Z</time><pdop>5.0</pdop><geoidheight>53.00</geoidheight><course>202.9</course><type>1</type></trkpt>
      <trkpt lat="40.62256536" lon="-4.76118547"><ele>2328</ele><speed>9.66</speed><time>2016-07-01T14:23:41Z</time><pdop>4.0</pdop><geoidheight>53.00</geoidheight><course>203.1</course><type>1</type></trkpt>
      <trkpt lat="40.62247992" lon="-4.76123209"><ele>2331</ele><speed>9.76</speed><time>2016-07-01T14:23:42Z</time><pdop>4.0</pdop><geoidheight>53.00</geoidheight><course>208.4</course><type>1</type></trkpt>
      <trkpt lat="40.62241122" lon="-4.76129961"><ele>2333</ele><speed>9.74</speed><time>2016-07-01T14:23:43Z</time><pdop>4.0</pdop><geoidheight>53.00</geoidheight><course>216.3</course><type>1</type></trkpt>
      <trkpt lat="40.62234702" lon="-4.76137827"><ele>2334</ele><speed>9.62</speed><time>2016-07-01T14:23:44Z</time><pdop>4.0</pdop><geoidheight>53.00</geoidheight><course>224.6</course><type>1</type></trkpt>
      <trkpt lat="40.6222866" lon="-4.76151997"><ele>2338</ele><speed>7.44</speed><time>2016-07-01T14:23:46Z</time><pdop>4.0</pdop><geoidheight>53.00</geoidheight><course>245.1</course><type>1</type></trkpt>
      <trkpt lat="40.62232096" lon="-4.76164369"><ele>2342</ele><speed>4.01</speed><time>2016-07-01T14:23:49Z</time><pdop>7.0</pdop><geoidheight>53.00</geoidheight><course>287.0</course><type>1</type></trkpt>
      <trkpt lat="40.62246233" lon="-4.76164076"><ele>2343</ele><speed>5.49</speed><time>2016-07-01T14:23:51Z</time><pdop>8.0</pdop><geoidheight>53.00</geoidheight><course>350.8</course><type>1</type></trkpt>
      <trkpt lat="40.62262957" lon="-4.76151083"><ele>2346</ele><speed>8.22</speed><time>2016-07-01T14:23:53Z</time><pdop>7.0</pdop><geoidheight>53.00</geoidheight><course>17.7</course><type>1</type></trkpt>
      <trkpt lat="40.62268591" lon="-4.76129428"><ele>2346</ele><speed>12.48</speed><time>2016-07-01T14:23:54Z</time><pdop>7.0</pdop><geoidheight>53.00</geoidheight><course>50.7</course><type>1</type></trkpt>
      <trkpt lat="40.62271556" lon="-4.76113846"><ele>2537</ele><speed>11.40</speed><time>2016-07-01T14:23:55Z</time><pdop>6.0</pdop><geoidheight>53.00</geoidheight><course>59.5</course><type>1</type></trkpt>
      <trkpt lat="40.62266467" lon="-4.76090553"><ele>2467</ele><speed>7.44</speed><time>2016-07-01T14:23:57Z</time><pdop>6.0</pdop><geoidheight>53.00</geoidheight><course>96.0</course><type>1</type></trkpt>
      <trkpt lat="40.62254347" lon="-4.76077752"><ele>2450</ele><speed>10.17</speed><time>2016-07-01T14:23:58Z</time><pdop>6.0</pdop><geoidheight>53.00</geoidheight><course>126.9</course><type>1</type></trkpt>
      <trkpt lat="40.62241486" lon="-4.76066166"><ele>2415</ele><speed>12.57</speed><time>2016-07-01T14:23:59Z</time><pdop>5.0</pdop><geoidheight>53.00</geoidheight><course>144.3</course><type>1</type></trkpt>
      <trkpt lat="40.6223186" lon="-4.76064565"><ele>2404</ele><speed>11.15</speed><time>2016-07-01T14:24:00Z</time><pdop>5.0</pdop><geoidheight>53.00</geoidheight><course>160.9</course><type>1</type></trkpt>
      <trkpt lat="40.62222119" lon="-4.76062029"><ele>2395</ele><speed>10.91</speed><time>2016-07-01T14:24:01Z</time><pdop>4.0</pdop><geoidheight>53.00</geoidheight><course>170.1</course><type>1</type></trkpt>
      <trkpt lat="40.62211776" lon="-4.76060882"><ele>2392</ele><speed>10.74</speed><time>2016-07-01T14:24:02Z</time><pdop>4.0</pdop><geoidheight>53.00</geoidheight><course>177.2</course><type>1</type></trkpt>
      <trkpt lat="40.62202752" lon="-4.76062761"><ele>2390</ele><speed>10.68</speed><time>2016-07-01T14:24:03Z</time><pdop>4.0</pdop><geoidheight>53.00</geoidheight><course>183.5</course><type>1</type></trkpt>
      <trkpt lat="40.62192608" lon="-4.76063412"><ele>2389</ele><speed>10.34</speed><time>2016-07-01T14:24:04Z</time><pdop>4.0</pdop><geoidheight>53.00</geoidheight><course>189.3</course><type>1</type></trkpt>
      <trkpt lat="40.62183597" lon="-4.76065717"><ele>2389</ele><speed>9.76</speed><time>2016-07-01T14:24:05Z</time><pdop>4.0</pdop><geoidheight>53.00</geoidheight><course>197.6</course><type>1</type></trkpt>
      <trkpt lat="40.6217738" lon="-4.76072521"><ele>2389</ele><speed>9.18</speed><time>2016-07-01T14:24:06Z</time><pdop>4.0</pdop><geoidheight>53.00</geoidheight><course>207.3</course><type>1</type></trkpt>
      <trkpt lat="40.6217157" lon="-4.76079652"><ele>2389</ele><speed>8.96</speed><time>2016-07-01T14:24:07Z</time><pdop>4.0</pdop><geoidheight>53.00</geoidheight><course>220.5</course><type>1</type></trkpt>
      <trkpt lat="40.62168181" lon="-4.76092717"><ele>2390</ele><speed>6.59</speed><time>2016-07-01T14:24:09Z</time><pdop>6.0</pdop><geoidheight>53.00</geoidheight><course>249.3</course><type>1</type></trkpt>
      <trkpt lat="40.62181551" lon="-4.76100531"><ele>2391</ele><speed>4.47</speed><time>2016-07-01T14:24:12Z</time><pdop>8.0</pdop><geoidheight>53.00</geoidheight><course>330.1</course><type>1</type></trkpt>
      <trkpt lat="40.62205221" lon="-4.76097831"><ele>2391</ele><speed>6.29</speed><time>2016-07-01T14:24:15Z</time><pdop>9.0</pdop><geoidheight>53.00</geoidheight><course>4.4</course><type>1</type></trkpt>
      <trkpt lat="40.62208062" lon="-4.76067844"><ele>2395</ele><speed>12.82</speed><time>2016-07-01T14:24:16Z</time><pdop>5.0</pdop><geoidheight>53.00</geoidheight><course>66.3</course><type>1</type></trkpt>
      <trkpt lat="40.62211476" lon="-4.76049123"><ele>2401</ele><speed>13.45</speed><time>2016-07-01T14:24:17Z</time><pdop>6.0</pdop><geoidheight>53.00</geoidheight><course>72.4</course><type>1</type></trkpt>
      <trkpt lat="40.62212919" lon="-4.76032179"><ele>2402</ele><speed>14.41</speed><time>2016-07-01T14:24:18Z</time><pdop>6.0</pdop><geoidheight>53.00</geoidheight><course>76.6</course><type>1</type></trkpt>
      <trkpt lat="40.62208741" lon="-4.76014432"><ele>2404</ele><speed>15.18</speed><time>2016-07-01T14:24:19Z</time><pdop>6.0</pdop><geoidheight>53.00</geoidheight><course>97.1</course><type>1</type></trkpt>
      <trkpt lat="40.6220561" lon="-4.75995968"><ele>2405</ele><speed>15.57</speed><time>2016-07-01T14:24:20Z</time><pdop>6.0</pdop><geoidheight>53.00</geoidheight><course>102.5</course><type>1</type></trkpt>
      <trkpt lat="40.62200907" lon="-4.75979476"><ele>2409</ele><speed>14.65</speed><time>2016-07-01T14:24:21Z</time><pdop>6.0</pdop><geoidheight>53.00</geoidheight><course>114.8</course><type>1</type></trkpt>
      <trkpt lat="40.62193729" lon="-4.75968069"><ele>2411</ele><speed>13.24</speed><time>2016-07-01T14:24:22Z</time><pdop>6.0</pdop><geoidheight>53.00</geoidheight><course>127.5</course><type>1</type></trkpt>
      <trkpt lat="40.62180851" lon="-4.75958103"><ele>2416</ele><speed>9.33</speed><time>2016-07-01T14:24:24Z</time><pdop>4.0</pdop><geoidheight>53.00</geoidheight><course>149.0</course><type>1</type></trkpt>
      <trkpt lat="40.62167716" lon="-4.75954377"><ele>2418</ele><speed>8.68</speed><time>2016-07-01T14:24:26Z</time><pdop>5.0</pdop><geoidheight>53.00</geoidheight><course>165.9</course><type>1</type></trkpt>
      <trkpt lat="40.62153501" lon="-4.75962258"><ele>2419</ele><speed>8.41</speed><time>2016-07-01T14:24:28Z</time><pdop>7.0</pdop><geoidheight>53.00</geoidheight><course>193.3</course><type>1</type></trkpt>
      <trkpt lat="40.62145896" lon="-4.75977732"><ele>2418</ele><speed>7.80</speed><time>2016-07-01T14:24:30Z</time><pdop>6.0</pdop><geoidheight>53.00</geoidheight><course>222.5</course><type>1</type></trkpt>
      <trkpt lat="40.62133939" lon="-4.75991994"><ele>2419</ele><speed>8.49</speed><time>2016-07-01T14:24:32Z</time><pdop>6.0</pdop><geoidheight>53.00</geoidheight><course>223.4</course><type>1</type></trkpt>
      <trkpt lat="40.62124603" lon="-4.76008274"><ele>2418</ele><speed>9.28</speed><time>2016-07-01T14:24:34Z</time><pdop>7.0</pdop><geoidheight>53.00</geoidheight><course>223.2</course><type>1</type></trkpt>
      <trkpt lat="40.62111428" lon="-4.76023485"><ele>2697</ele><speed>9.37</speed><time>2016-07-01T14:24:36Z</time><pdop>7.0</pdop><geoidheight>53.00</geoidheight><course>226.2</course><type>1</type></trkpt>
      <trkpt lat="40.62102402" lon="-4.76043008"><ele>2676</ele><speed>5.69</speed><time>2016-07-01T14:24:40Z</time><pdop>9.0</pdop><geoidheight>53.00</geoidheight><course>242.2</course><type>1</type></trkpt>
      <trkpt lat="40.62127895" lon="-4.7603979"><ele>2563</ele><speed>5.01</speed><time>2016-07-01T14:24:43Z</time><pdop>10.0</pdop><geoidheight>53.00</geoidheight><course>350.8</course><type>1</type></trkpt>
      <trkpt lat="40.62147586" lon="-4.76007442"><ele>2512</ele><speed>12.22</speed><time>2016-07-01T14:24:45Z</time><pdop>8.0</pdop><geoidheight>53.00</geoidheight><course>47.4</course><type>1</type></trkpt>
      <trkpt lat="40.62147974" lon="-4.75987167"><ele>2506</ele><speed>13.79</speed><time>2016-07-01T14:24:46Z</time><pdop>7.0</pdop><geoidheight>53.00</geoidheight><course>69.5</course><type>1</type></trkpt>
      <trkpt lat="40.62151881" lon="-4.75968541"><ele>2486</ele><speed>14.50</speed><time>2016-07-01T14:24:47Z</time><pdop>6.0</pdop><geoidheight>53.00</geoidheight><course>72.6</course><type>1</type></trkpt>
      <trkpt lat="40.62157497" lon="-4.7595192"><ele>2480</ele><speed>14.53</speed><time>2016-07-01T14:24:48Z</time><pdop>6.0</pdop><geoidheight>53.00</geoidheight><course>71.5</course><type>1</type></trkpt>
      <trkpt lat="40.62164843" lon="-4.75936733"><ele>2474</ele><speed>13.86</speed><time>2016-07-01T14:24:49Z</time><pdop>6.0</pdop><geoidheight>53.00</geoidheight><course>62.8</course><type>1</type></trkpt>
      <trkpt lat="40.62170359" lon="-4.75924078"><ele>2463</ele><speed>13.31</speed><time>2016-07-01T14:24:50Z</time><pdop>5.0</pdop><geoidheight>53.00</geoidheight><course>60.0</course><type>1</type></trkpt>
      <trkpt lat="40.62176782" lon="-4.75913407"><ele>2459</ele><speed>12.32</speed><time>2016-07-01T14:24:51Z</time><pdop>6.0</pdop><geoidheight>53.00</geoidheight><course>57.5</course><type>1</type></trkpt>
      <trkpt lat="40.62191974" lon="-4.75915502"><ele>2459</ele><speed>7.42</speed><time>2016-07-01T14:24:53Z</time><pdop>6.0</pdop><geoidheight>53.00</geoidheight><course>2.3</course><type>1</type></trkpt>
      <trkpt lat="40.62209648" lon="-4.75924719"><ele>2453</ele><speed>8.25</speed><time>2016-07-01T14:24:55Z</time><pdop>6.0</pdop><geoidheight>53.00</geoidheight><course>343.5</course><type>1</type></trkpt>
      <trkpt lat="40.62210294" lon="-4.75941976"><ele>2450</ele><speed>5.67</speed><time>2016-07-01T14:24:57Z</time><pdop>5.0</pdop><geoidheight>53.00</geoidheight><course>288.6</course><type>1</type></trkpt>
      <trkpt lat="40.62200485" lon="-4.75958132"><ele>2450</ele><speed>6.98</speed><time>2016-07-01T14:24:59Z</time><pdop>6.0</pdop><geoidheight>53.00</geoidheight><course>240.5</course><type>1</type></trkpt>
      <trkpt lat="40.62182105" lon="-4.75963698"><ele>2449</ele><speed>8.26</speed><time>2016-07-01T14:25:01Z</time><pdop>10.0</pdop><geoidheight>53.00</geoidheight><course>204.2</course><type>1</type></trkpt>
      <trkpt lat="40.62163343" lon="-4.75938012"><ele>2448</ele><speed>9.76</speed><time>2016-07-01T14:25:03Z</time><pdop>10.0</pdop><geoidheight>53.00</geoidheight><course>145.5</course><type>1</type></trkpt>
      <trkpt lat="40.62154169" lon="-4.75912784"><ele>2451</ele><speed>12.90</speed><time>2016-07-01T14:25:04Z</time><pdop>10.0</pdop><geoidheight>53.00</geoidheight><course>119.1</course><type>1</type></trkpt>
      <trkpt lat="40.62148293" lon="-4.75879244"><ele>2455</ele><speed>13.37</speed><time>2016-07-01T14:25:06Z</time><pdop>10.0</pdop><geoidheight>53.00</geoidheight><course>100.5</course><type>1</type></trkpt>
      <trkpt lat="40.62144826" lon="-4.75847483"><ele>2458</ele><speed>12.33</speed><time>2016-07-01T14:25:08Z</time><pdop>9.0</pdop><geoidheight>53.00</geoidheight><course>87.9</course><type>1</type></trkpt>
      <trkpt lat="40.62148965" lon="-4.75815899"><ele>2461</ele><speed>12.54</speed><time>2016-07-01T14:25:10Z</time><pdop>9.0</pdop><geoidheight>53.00</geoidheight><course>74.3</course><type>1</type></trkpt>
      <trkpt lat="40.62157635" lon="-4.75790238"><ele>2463</ele><speed>11.30</speed><time>2016-07-01T14:25:12Z</time><pdop>9.0</pdop><geoidheight>53.00</geoidheight><course>63.6</course><type>1</type></trkpt>
      <trkpt lat="40.62173173" lon="-4.75768886"><ele>2467</ele><speed>7.79</speed><time>2016-07-01T14:25:15Z</time><pdop>12.0</pdop><geoidheight>53.00</geoidheight><course>46.0</course><type>1</type></trkpt>
      <trkpt lat="40.62205969" lon="-4.75774543"><ele>2468</ele><speed>10.56</speed><time>2016-07-01T14:25:18Z</time><pdop>11.0</pdop><geoidheight>53.00</geoidheight><course>353.0</course><type>1</type></trkpt>
      <trkpt lat="40.62230425" lon="-4.75786528"><ele>2469</ele><speed>11.30</speed><time>2016-07-01T14:25:20Z</time><pdop>11.0</pdop><geoidheight>53.00</geoidheight><course>341.4</course><type>1</type></trkpt>
      <trkpt lat="40.62253831" lon="-4.75792167"><ele>2469</ele><speed>11.14</speed><time>2016-07-01T14:25:22Z</time><pdop>11.0</pdop><geoidheight>53.00</geoidheight><course>347.7</course><type>1</type></trkpt>
      <trkpt lat="40.62276284" lon="-4.75812278"><ele>2470</ele><speed>8.86</speed><time>2016-07-01T14:25:25Z</time><pdop>11.0</pdop><geoidheight>53.00</geoidheight><course>328.0</course><type>1</type></trkpt>
      <trkpt lat="40.62265669" lon="-4.75847092"><ele>2470</ele><speed>7.83</speed><time>2016-07-01T14:25:28Z</time><pdop>11.0</pdop><geoidheight>53.00</geoidheight><course>252.0</course><type>1</type></trkpt>
      <trkpt lat="40.62241047" lon="-4.75864308"><ele>2470</ele><speed>8.74</speed><time>2016-07-01T14:25:31Z</time><pdop>12.0</pdop><geoidheight>53.00</geoidheight><course>212.3</course><type>1</type></trkpt>
      <trkpt lat="40.6221709" lon="-4.75834258"><ele>2427</ele><speed>7.87</speed><time>2016-07-01T14:25:34Z</time><pdop>12.0</pdop><geoidheight>53.00</geoidheight><course>142.7</course><type>1</type></trkpt>
      <trkpt lat="40.62206548" lon="-4.75793499"><ele>2445</ele><speed>9.74</speed><time>2016-07-01T14:25:36Z</time><pdop>12.0</pdop><geoidheight>53.00</geoidheight><course>111.0</course><type>1</type></trkpt>
      <trkpt lat="40.62208574" lon="-4.75751828"><ele>2455</ele><speed>10.59</speed><time>2016-07-01T14:25:38Z</time><pdop>13.0</pdop><geoidheight>53.00</geoidheight><course>89.7</course><type>1</type></trkpt>
      <trkpt lat="40.62230752" lon="-4.75720762"><ele>2468</ele><speed>11.20</speed><time>2016-07-01T14:25:40Z</time><pdop>11.0</pdop><geoidheight>53.00</geoidheight><course>43.6</course><type>1</type></trkpt>
      <trkpt lat="40.62250237" lon="-4.75707594"><ele>2478</ele><speed>10.31</speed><time>2016-07-01T14:25:42Z</time><pdop>11.0</pdop><geoidheight>53.00</geoidheight><course>30.0</course><type>1</type></trkpt>
      <trkpt lat="40.62271053" lon="-4.75702618"><ele>2484</ele><speed>10.88</speed><time>2016-07-01T14:25:44Z</time><pdop>10.0</pdop><geoidheight>53.00</geoidheight><course>13.0</course><type>1</type></trkpt>
      <trkpt lat="40.62291974" lon="-4.7571196"><ele>2491</ele><speed>11.21</speed><time>2016-07-01T14:25:46Z</time><pdop>10.0</pdop><geoidheight>53.00</geoidheight><course>347.3</course><type>1</type></trkpt>
      <trkpt lat="40.62311225" lon="-4.75729831"><ele>2490</ele><speed>11.56</speed><time>2016-07-01T14:25:48Z</time><pdop>10.0</pdop><geoidheight>53.00</geoidheight><course>327.9</course><type>1</type></trkpt>
      <trkpt lat="40.6231345" lon="-4.75763654"><ele>2496</ele><speed>8.30</speed><time>2016-07-01T14:25:51Z</time><pdop>9.0</pdop><geoidheight>53.00</geoidheight><course>281.1</course><type>1</type></trkpt>
      <trkpt lat="40.62314132" lon="-4.7579449"><ele>2499</ele><speed>8.58</speed><time>2016-07-01T14:25:54Z</time><pdop>9.0</pdop><geoidheight>53.00</geoidheight><course>270.2</course><type>1</type></trkpt>
      <trkpt lat="40.62306025" lon="-4.75812988"><ele>2501</ele><speed>8.32</speed><time>2016-07-01T14:25:56Z</time><pdop>9.0</pdop><geoidheight>53.00</geoidheight><course>245.1</course><type>1</type></trkpt>
      <trkpt lat="40.62289684" lon="-4.75822635"><ele>2502</ele><speed>8.66</speed><time>2016-07-01T14:25:58Z</time><pdop>10.0</pdop><geoidheight>53.00</geoidheight><course>212.4</course><type>1</type></trkpt>
      <trkpt lat="40.62271244" lon="-4.75803208"><ele>2506</ele><speed>6.90</speed><time>2016-07-01T14:26:01Z</time><pdop>11.0</pdop><geoidheight>53.00</geoidheight><course>150.5</course><type>1</type></trkpt>
      <trkpt lat="40.62265637" lon="-4.75765411"><ele>2506</ele><speed>10.62</speed><time>2016-07-01T14:26:03Z</time><pdop>11.0</pdop><geoidheight>53.00</geoidheight><course>105.7</course><type>1</type></trkpt>
      <trkpt lat="40.62275146" lon="-4.75725813"><ele>2514</ele><speed>12.92</speed><time>2016-07-01T14:26:05Z</time><pdop>10.0</pdop><geoidheight>53.00</geoidheight><course>67.6</course><type>1</type></trkpt>
      <trkpt lat="40.62285009" lon="-4.7569227"><ele>2520</ele><speed>13.54</speed><time>2016-07-01T14:26:07Z</time><pdop>11.0</pdop><geoidheight>53.00</geoidheight><course>61.7</course><type>1</type></trkpt>
      <trkpt lat="40.62299055" lon="-4.75673154"><ele>2523</ele><speed>11.07</speed><time>2016-07-01T14:26:09Z</time><pdop>11.0</pdop><geoidheight>53.00</geoidheight><course>39.1</course><type>1</type></trkpt>
      <trkpt lat="40.62328551" lon="-4.75669973"><ele>2525</ele><speed>10.28</speed><time>2016-07-01T14:26:12Z</time><pdop>11.0</pdop><geoidheight>53.00</geoidheight><course>5.3</course><type>1</type></trkpt>
      <trkpt lat="40.62347704" lon="-4.7567662"><ele>2527</ele><speed>10.39</speed><time>2016-07-01T14:26:14Z</time><pdop>11.0</pdop><geoidheight>53.00</geoidheight><course>353.4</course><type>1</type></trkpt>
      <trkpt lat="40.62359036" lon="-4.75705249"><ele>2529</ele><speed>7.14</speed><time>2016-07-01T14:26:17Z</time><pdop>9.0</pdop><geoidheight>53.00</geoidheight><course>298.9</course><type>1</type></trkpt>
      <trkpt lat="40.62353131" lon="-4.75734379"><ele>2531</ele><speed>7.58</speed><time>2016-07-01T14:26:20Z</time><pdop>9.0</pdop><geoidheight>53.00</geoidheight><course>251.4</course><type>1</type></trkpt>
      <trkpt lat="40.62340653" lon="-4.75750678"><ele>2532</ele><speed>8.71</speed><time>2016-07-01T14:26:22Z</time><pdop>9.0</pdop><geoidheight>53.00</geoidheight><course>217.9</course><type>1</type></trkpt>
      <trkpt lat="40.62320974" lon="-4.75758374"><ele>2539</ele><speed>9.73</speed><time>2016-07-01T14:26:24Z</time><pdop>9.0</pdop><geoidheight>53.00</geoidheight><course>196.2</course><type>1</type></trkpt>
      <trkpt lat="40.62304984" lon="-4.75771824"><ele>2547</ele><speed>7.24</speed><time>2016-07-01T14:26:27Z</time><pdop>9.0</pdop><geoidheight>53.00</geoidheight><course>231.1</course><type>1</type></trkpt>
      <trkpt lat="40.62308235" lon="-4.75801384"><ele>2546</ele><speed>5.46</speed><time>2016-07-01T14:26:31Z</time><pdop>11.0</pdop><geoidheight>53.00</geoidheight><course>275.0</course><type>1</type></trkpt>
      <trkpt lat="40.62338254" lon="-4.758036"><ele>2546</ele><speed>7.16</speed><time>2016-07-01T14:26:34Z</time><pdop>12.0</pdop><geoidheight>53.00</geoidheight><course>346.5</course><type>1</type></trkpt>
      <trkpt lat="40.62370264" lon="-4.75782965"><ele>2548</ele><speed>12.07</speed><time>2016-07-01T14:26:36Z</time><pdop>10.0</pdop><geoidheight>53.00</geoidheight><course>25.5</course><type>1</type></trkpt>
      <trkpt lat="40.62387751" lon="-4.7576424"><ele>2549</ele><speed>11.88</speed><time>2016-07-01T14:26:38Z</time><pdop>10.0</pdop><geoidheight>53.00</geoidheight><course>33.5</course><type>1</type></trkpt>
      <trkpt lat="40.6239321" lon="-4.75740757"><ele>2553</ele><speed>9.94</speed><time>2016-07-01T14:26:40Z</time><pdop>9.0</pdop><geoidheight>53.00</geoidheight><course>67.6</course><type>1</type></trkpt>
      <trkpt lat="40.62391589" lon="-4.75710764"><ele>2554</ele><speed>8.05</speed><time>2016-07-01T14:26:43Z</time><pdop>10.0</pdop><geoidheight>53.00</geoidheight><course>93.0</course><type>1</type></trkpt>
      <trkpt lat="40.62371169" lon="-4.75703557"><ele>2555</ele><speed>7.91</speed><time>2016-07-01T14:26:45Z</time><pdop>10.0</pdop><geoidheight>53.00</geoidheight><course>150.3</course><type>1</type></trkpt>
      <trkpt lat="40.62357475" lon="-4.7571968"><ele>2558</ele><speed>10.76</speed><time>2016-07-01T14:26:46Z</time><pdop>9.0</pdop><geoidheight>53.00</geoidheight><course>203.8</course><type>1</type></trkpt>
      <trkpt lat="40.62340461" lon="-4.75735008"><ele>2557</ele><speed>11.08</speed><time>2016-07-01T14:26:48Z</time><pdop>9.0</pdop><geoidheight>53.00</geoidheight><course>219.3</course><type>1</type></trkpt>
      <trkpt lat="40.62323376" lon="-4.75750369"><ele>2558</ele><speed>10.73</speed><time>2016-07-01T14:26:50Z</time><pdop>10.0</pdop><geoidheight>53.00</geoidheight><course>216.5</course><type>1</type></trkpt>
      <trkpt lat="40.62307485" lon="-4.75768508"><ele>2561</ele><speed>7.05</speed><time>2016-07-01T14:26:53Z</time><pdop>9.0</pdop><geoidheight>53.00</geoidheight><course>223.6</course><type>1</type></trkpt>
      <trkpt lat="40.6232243" lon="-4.7579342"><ele>2566</ele><speed>4.50</speed><time>2016-07-01T14:26:59Z</time><pdop>13.0</pdop><geoidheight>53.00</geoidheight><course>327.7</course><type>1</type></trkpt>
      <trkpt lat="40.62360257" lon="-4.75789762"><ele>2566</ele><speed>8.81</speed><time>2016-07-01T14:27:02Z</time><pdop>12.0</pdop><geoidheight>53.00</geoidheight><course>357.1</course><type>1</type></trkpt>
      <trkpt lat="40.62376384" lon="-4.75764314"><ele>2572</ele><speed>9.48</speed><time>2016-07-01T14:27:04Z</time><pdop>10.0</pdop><geoidheight>53.00</geoidheight><course>54.1</course><type>1</type></trkpt>
      <trkpt lat="40.62380982" lon="-4.75739311"><ele>2576</ele><speed>9.99</speed><time>2016-07-01T14:27:06Z</time><pdop>9.0</pdop><geoidheight>53.00</geoidheight><course>82.5</course><type>1</type></trkpt>
      <trkpt lat="40.62369528" lon="-4.75715346"><ele>2577</ele><speed>10.77</speed><time>2016-07-01T14:27:08Z</time><pdop>10.0</pdop><geoidheight>53.00</geoidheight><course>115.3</course><type>1</type></trkpt>
      <trkpt lat="40.62346612" lon="-4.75713656"><ele>2577</ele><speed>10.75</speed><time>2016-07-01T14:27:10Z</time><pdop>9.0</pdop><geoidheight>53.00</geoidheight><course>161.7</course><type>1</type></trkpt>
      <trkpt lat="40.62327267" lon="-4.75723718"><ele>2580</ele><speed>11.33</speed><time>2016-07-01T14:27:12Z</time><pdop>9.0</pdop><geoidheight>53.00</geoidheight><course>202.6</course><type>1</type></trkpt>
      <trkpt lat="40.6231226" lon="-4.75737144"><ele>2582</ele><speed>10.06</speed><time>2016-07-01T14:27:14Z</time><pdop>9.0</pdop><geoidheight>53.00</geoidheight><course>216.0</course><type>1</type></trkpt>
      <trkpt lat="40.62296139" lon="-4.75759416"><ele>2582</ele><speed>9.53</speed><time>2016-07-01T14:27:17Z</time><pdop>9.0</pdop><geoidheight>53.00</geoidheight><course>226.0</course><type>1</type></trkpt>
      <trkpt lat="40.62283434" lon="-4.75778229"><ele>2583</ele><speed>10.42</speed><time>2016-07-01T14:27:19Z</time><pdop>10.0</pdop><geoidheight>53.00</geoidheight><course>227.1</course><type>1</type></trkpt>
      <trkpt lat="40.62265036" lon="-4.75792356"><ele>2587</ele><speed>7.41</speed><time>2016-07-01T14:27:22Z</time><pdop>9.0</pdop><geoidheight>53.00</geoidheight><course>212.5</course><type>1</type></trkpt>
      <trkpt lat="40.62250452" lon="-4.75808066"><ele>2588</ele><speed>4.66</speed><time>2016-07-01T14:27:26Z</time><pdop>9.0</pdop><geoidheight>53.00</geoidheight><course>240.5</course><type>1</type></trkpt>
      <trkpt lat="40.62243357" lon="-4.75829837"><ele>2594</ele><speed>5.44</speed><time>2016-07-01T14:27:30Z</time><pdop>9.0</pdop><geoidheight>53.00</geoidheight><course>238.7</course><type>1</type></trkpt>
      <trkpt lat="40.62239369" lon="-4.75854245"><ele>2600</ele><speed>5.51</speed><time>2016-07-01T14:27:34Z</time><pdop>10.0</pdop><geoidheight>53.00</geoidheight><course>260.0</course><type>1</type></trkpt>
      <trkpt lat="40.62241529" lon="-4.75880116"><ele>2609</ele><speed>4.79</speed><time>2016-07-01T14:27:38Z</time><pdop>9.0</pdop><geoidheight>53.00</geoidheight><course>285.7</course><type>1</type></trkpt>
      <trkpt lat="40.62234775" lon="-4.7590493"><ele>2614</ele><speed>6.48</speed><time>2016-07-01T14:27:42Z</time><pdop>9.0</pdop><geoidheight>53.00</geoidheight><course>232.8</course><type>1</type></trkpt>
      <trkpt lat="40.62213358" lon="-4.75911211"><ele>2618</ele><speed>9.09</speed><time>2016-07-01T14:27:45Z</time><pdop>9.0</pdop><geoidheight>53.00</geoidheight><course>178.6</course><type>1</type></trkpt>
      <trkpt lat="40.62194497" lon="-4.75904821"><ele>2708</ele><speed>11.11</speed><time>2016-07-01T14:27:47Z</time><pdop>9.0</pdop><geoidheight>53.00</geoidheight><course>162.5</course><type>1</type></trkpt>
      <trkpt lat="40.62173974" lon="-4.75886804"><ele>2668</ele><speed>13.62</speed><time>2016-07-01T14:27:49Z</time><pdop>9.0</pdop><geoidheight>53.00</geoidheight><course>144.2</course><type>1</type></trkpt>
      <trkpt lat="40.62156217" lon="-4.75860106"><ele>2646</ele><speed>15.08</speed><time>2016-07-01T14:27:51Z</time><pdop>9.0</pdop><geoidheight>53.00</geoidheight><course>127.3</course><type>1</type></trkpt>
      <trkpt lat="40.621449" lon="-4.75830053"><ele>2641</ele><speed>14.23</speed><time>2016-07-01T14:27:53Z</time><pdop>9.0</pdop><geoidheight>53.00</geoidheight><course>113.8</course><type>1</type></trkpt>
      <trkpt lat="40.62138884" lon="-4.75796319"><ele>2638</ele><speed>14.41</speed><time>2016-07-01T14:27:55Z</time><pdop>9.0</pdop><geoidheight>53.00</geoidheight><course>102.8</course><type>1</type></trkpt>
      <trkpt lat="40.62141268" lon="-4.75765157"><ele>2638</ele><speed>12.99</speed><time>2016-07-01T14:27:57Z</time><pdop>9.0</pdop><geoidheight>53.00</geoidheight><course>83.5</course><type>1</type></trkpt>
      <trkpt lat="40.62148016" lon="-4.75740261"><ele>2638</ele><speed>11.40</speed><time>2016-07-01T14:27:59Z</time><pdop>9.0</pdop><geoidheight>53.00</geoidheight><course>64.1</course><type>1</type></trkpt>
      <trkpt lat="40.62160914" lon="-4.75718727"><ele>2638</ele><speed>10.93</speed><time>2016-07-01T14:28:01Z</time><pdop>9.0</pdop><geoidheight>53.00</geoidheight><course>52.3</course><type>1</type></trkpt>
      <trkpt lat="40.62174528" lon="-4.75701667"><ele>2638</ele><speed>10.18</speed><time>2016-07-01T14:28:03Z</time><pdop>10.0</pdop><geoidheight>53.00</geoidheight><course>43.0</course><type>1</type></trkpt>
      <trkpt lat="40.62193308" lon="-4.75691983"><ele>2636</ele><speed>7.93</speed><time>2016-07-01T14:28:06Z</time><pdop>11.0</pdop><geoidheight>53.00</geoidheight><course>27.5</course><type>1</type></trkpt>
      <trkpt lat="40.62213681" lon="-4.75692469"><ele>2636</ele><speed>8.34</speed><time>2016-07-01T14:28:08Z</time><pdop>9.0</pdop><geoidheight>53.00</geoidheight><course>15.4</course><type>1</type></trkpt>
      <trkpt lat="40.62234967" lon="-4.75688508"><ele>2636</ele><speed>6.92</speed><time>2016-07-01T14:28:11Z</time><pdop>9.0</pdop><geoidheight>53.00</geoidheight><course>4.0</course><type>1</type></trkpt>
      <trkpt lat="40.62255119" lon="-4.75697567"><ele>2638</ele><speed>6.17</speed><time>2016-07-01T14:28:15Z</time><pdop>9.0</pdop><geoidheight>53.00</geoidheight><course>334.1</course><type>1</type></trkpt>
      <trkpt lat="40.62255046" lon="-4.75722448"><ele>2641</ele><speed>5.08</speed><time>2016-07-01T14:28:20Z</time><pdop>9.0</pdop><geoidheight>53.00</geoidheight><course>242.8</course><type>1</type></trkpt>
      <trkpt lat="40.62239655" lon="-4.75745134"><ele>2643</ele><speed>8.04</speed><time>2016-07-01T14:28:23Z</time><pdop>11.0</pdop><geoidheight>53.00</geoidheight><course>231.4</course><type>1</type></trkpt>
      <trkpt lat="40.62219383" lon="-4.75749097"><ele>2644</ele><speed>8.69</speed><time>2016-07-01T14:28:25Z</time><pdop>11.0</pdop><geoidheight>53.00</geoidheight><course>202.2</course><type>1</type></trkpt>
      <trkpt lat="40.62195751" lon="-4.75753983"><ele>2643</ele><speed>8.55</speed><time>2016-07-01T14:28:28Z</time><pdop>9.0</pdop><geoidheight>53.00</geoidheight><course>189.4</course><type>1</type></trkpt>
      <trkpt lat="40.62174648" lon="-4.75748709"><ele>2646</ele><speed>10.90</speed><time>2016-07-01T14:28:30Z</time><pdop>9.0</pdop><geoidheight>53.00</geoidheight><course>165.6</course><type>1</type></trkpt>
      <trkpt lat="40.62157333" lon="-4.75731164"><ele>2645</ele><speed>12.52</speed><time>2016-07-01T14:28:32Z</time><pdop>9.0</pdop><geoidheight>53.00</geoidheight><course>141.7</course><type>1</type></trkpt>
      <trkpt lat="40.62144559" lon="-4.75697367"><ele>2645</ele><speed>15.42</speed><time>2016-07-01T14:28:34Z</time><pdop>9.0</pdop><geoidheight>53.00</geoidheight><course>113.6</course><type>1</type></trkpt>
      <trkpt lat="40.62142098" lon="-4.75660375"><ele>2645</ele><speed>15.42</speed><time>2016-07-01T14:28:36Z</time><pdop>9.0</pdop><geoidheight>53.00</geoidheight><course>91.3</course><type>1</type></trkpt>
      <trkpt lat="40.621478" lon="-4.75624739"><ele>2647</ele><speed>14.58</speed><time>2016-07-01T14:28:38Z</time><pdop>9.0</pdop><geoidheight>53.00</geoidheight><course>71.4</course><type>1</type></trkpt>
      <trkpt lat="40.62158477" lon="-4.75597743"><ele>2651</ele><speed>13.04</speed><time>2016-07-01T14:28:40Z</time><pdop>9.0</pdop><geoidheight>53.00</geoidheight><course>61.9</course><type>1</type></trkpt>
      <trkpt lat="40.62171754" lon="-4.7557676"><ele>2652</ele><speed>11.18</speed><time>2016-07-01T14:28:42Z</time><pdop>9.0</pdop><geoidheight>53.00</geoidheight><course>50.5</course><type>1</type></trkpt>
      <trkpt lat="40.62193587" lon="-4.75569194"><ele>2653</ele><speed>8.33</speed><time>2016-07-01T14:28:45Z</time><pdop>11.0</pdop><geoidheight>53.00</geoidheight><course>21.0</course><type>1</type></trkpt>
      <trkpt lat="40.62215499" lon="-4.75575848"><ele>2654</ele><speed>6.83</speed><time>2016-07-01T14:28:48Z</time><pdop>10.0</pdop><geoidheight>53.00</geoidheight><course>354.2</course><type>1</type></trkpt>
      <trkpt lat="40.62223246" lon="-4.75597897"><ele>2653</ele><speed>5.04</speed><time>2016-07-01T14:28:53Z</time><pdop>9.0</pdop><geoidheight>53.00</geoidheight><course>265.1</course><type>1</type></trkpt>
      <trkpt lat="40.62209661" lon="-4.75622058"><ele>2652</ele><speed>8.62</speed><time>2016-07-01T14:28:56Z</time><pdop>9.0</pdop><geoidheight>53.00</geoidheight><course>231.3</course><type>1</type></trkpt>
      <trkpt lat="40.62191329" lon="-4.7563606"><ele>2653</ele><speed>10.26</speed><time>2016-07-01T14:28:58Z</time><pdop>9.0</pdop><geoidheight>53.00</geoidheight><course>216.9</course><type>1</type></trkpt>
      <trkpt lat="40.62175928" lon="-4.75643235"><ele>2653</ele><speed>8.72</speed><time>2016-07-01T14:29:00Z</time><pdop>9.0</pdop><geoidheight>53.00</geoidheight><course>205.5</course><type>1</type></trkpt>
      <trkpt lat="40.62160183" lon="-4.75651989"><ele>2655</ele><speed>9.31</speed><time>2016-07-01T14:29:02Z</time><pdop>10.0</pdop><geoidheight>53.00</geoidheight><course>207.8</course><type>1</type></trkpt>
      <trkpt lat="40.62138525" lon="-4.75663735"><ele>2657</ele><speed>7.98</speed><time>2016-07-01T14:29:05Z</time><pdop>9.0</pdop><geoidheight>53.00</geoidheight><course>194.1</course><type>1</type></trkpt>
      <trkpt lat="40.62115606" lon="-4.75664604"><ele>2659</ele><speed>9.58</speed><time>2016-07-01T14:29:08Z</time><pdop>9.0</pdop><geoidheight>53.00</geoidheight><course>182.0</course><type>1</type></trkpt>
      <trkpt lat="40.62098192" lon="-4.75668822"><ele>2658</ele><speed>10.10</speed><time>2016-07-01T14:29:10Z</time><pdop>9.0</pdop><geoidheight>53.00</geoidheight><course>194.8</course><type>1</type></trkpt>
      <trkpt lat="40.62082599" lon="-4.75682991"><ele>2656</ele><speed>10.29</speed><time>2016-07-01T14:29:12Z</time><pdop>9.0</pdop><geoidheight>53.00</geoidheight><course>209.6</course><type>1</type></trkpt>
      <trkpt lat="40.6206842" lon="-4.7569748"><ele>2658</ele><speed>9.17</speed><time>2016-07-01T14:29:14Z</time><pdop>9.0</pdop><geoidheight>53.00</geoidheight><course>216.0</course><type>1</type></trkpt>
      <trkpt lat="40.62054158" lon="-4.75712668"><ele>2664</ele><speed>7.89</speed><time>2016-07-01T14:29:17Z</time><pdop>10.0</pdop><geoidheight>53.00</geoidheight><course>215.6</course><type>1</type></trkpt>
      <trkpt lat="40.62036384" lon="-4.75725445"><ele>2664</ele><speed>7.15</speed><time>2016-07-01T14:29:20Z</time><pdop>11.0</pdop><geoidheight>53.00</geoidheight><course>203.7</course><type>1</type></trkpt>
      <trkpt lat="40.62014536" lon="-4.75732748"><ele>2664</ele><speed>7.82</speed><time>2016-07-01T14:29:23Z</time><pdop>10.0</pdop><geoidheight>53.00</geoidheight><course>201.0</course><type>1</type></trkpt>
      <trkpt lat="40.61994388" lon="-4.75743122"><ele>2665</ele><speed>8.17</speed><time>2016-07-01T14:29:26Z</time><pdop>9.0</pdop><geoidheight>53.00</geoidheight><course>210.8</course><type>1</type></trkpt>
      <trkpt lat="40.61980369" lon="-4.75754962"><ele>2665</ele><speed>9.56</speed><time>2016-07-01T14:29:28Z</time><pdop>9.0</pdop><geoidheight>53.00</geoidheight><course>212.3</course><type>1</type></trkpt>
      <trkpt lat="40.61965755" lon="-4.75767254"><ele>2663</ele><speed>10.08</speed><time>2016-07-01T14:29:30Z</time><pdop>9.0</pdop><geoidheight>53.00</geoidheight><course>211.4</course><type>1</type></trkpt>
      <trkpt lat="40.61950562" lon="-4.7578123"><ele>2662</ele><speed>10.27</speed><time>2016-07-01T14:29:32Z</time><pdop>9.0</pdop><geoidheight>53.00</geoidheight><course>217.0</course><type>1</type></trkpt>
      <trkpt lat="40.61932611" lon="-4.75797217"><ele>2657</ele><speed>11.95</speed><time>2016-07-01T14:29:34Z</time><pdop>9.0</pdop><geoidheight>53.00</geoidheight><course>215.2</course><type>1</type></trkpt>
      <trkpt lat="40.61914669" lon="-4.75816225"><ele>2654</ele><speed>12.86</speed><time>2016-07-01T14:29:36Z</time><pdop>9.0</pdop><geoidheight>53.00</geoidheight><course>217.6</course><type>1</type></trkpt>
      <trkpt lat="40.61897485" lon="-4.75835459"><ele>2654</ele><speed>12.52</speed><time>2016-07-01T14:29:38Z</time><pdop>9.0</pdop><geoidheight>53.00</geoidheight><course>221.1</course><type>1</type></trkpt>
      <trkpt lat="40.61884567" lon="-4.7585539"><ele>2653</ele><speed>11.33</speed><time>2016-07-01T14:29:40Z</time><pdop>9.0</pdop><geoidheight>53.00</geoidheight><course>223.8</course><type>1</type></trkpt>
      <trkpt lat="40.61867157" lon="-4.75874338"><ele>2655</ele><speed>11.81</speed><time>2016-07-01T14:29:42Z</time><pdop>9.0</pdop><geoidheight>53.00</geoidheight><course>224.6</course><type>1</type></trkpt>
      <trkpt lat="40.6185667" lon="-4.7589717"><ele>2653</ele><speed>11.41</speed><time>2016-07-01T14:29:44Z</time><pdop>10.0</pdop><geoidheight>53.00</geoidheight><course>232.0</course><type>1</type></trkpt>
      <trkpt lat="40.61847011" lon="-4.75917256"><ele>2652</ele><speed>9.45</speed><time>2016-07-01T14:29:46Z</time><pdop>10.0</pdop><geoidheight>53.00</geoidheight><course>234.3</course><type>1</type></trkpt>
      <trkpt lat="40.61831034" lon="-4.75939349"><ele>2649</ele><speed>8.88</speed><time>2016-07-01T14:29:49Z</time><pdop>10.0</pdop><geoidheight>53.00</geoidheight><course>224.7</course><type>1</type></trkpt>
      <trkpt lat="40.61811463" lon="-4.75958523"><ele>2648</ele><speed>9.12</speed><time>2016-07-01T14:29:52Z</time><pdop>9.0</pdop><geoidheight>53.00</geoidheight><course>216.7</course><type>1</type></trkpt>
      <trkpt lat="40.61797316" lon="-4.75971151"><ele>2644</ele><speed>9.95</speed><time>2016-07-01T14:29:54Z</time><pdop>10.0</pdop><geoidheight>53.00</geoidheight><course>217.4</course><type>1</type></trkpt>
      <trkpt lat="40.61781251" lon="-4.75992453"><ele>2642</ele><speed>11.53</speed><time>2016-07-01T14:29:56Z</time><pdop>9.0</pdop><geoidheight>53.00</geoidheight><course>226.6</course><type>1</type></trkpt>
      <trkpt lat="40.61767429" lon="-4.76012862"><ele>2638</ele><speed>11.35</speed><time>2016-07-01T14:29:58Z</time><pdop>9.0</pdop><geoidheight>53.00</geoidheight><course>226.9</course><type>1</type></trkpt>
      <trkpt lat="40.61755169" lon="-4.76034717"><ele>2634</ele><speed>11.72</speed><time>2016-07-01T14:30:00Z</time><pdop>9.0</pdop><geoidheight>53.00</geoidheight><course>222.7</course><type>1</type></trkpt>
      <trkpt lat="40.61734151" lon="-4.7605271"><ele>2631</ele><speed>12.50</speed><time>2016-07-01T14:30:02Z</time><pdop>9.0</pdop><geoidheight>53.00</geoidheight><course>211.4</course><type>1</type></trkpt>
      <trkpt lat="40.61712295" lon="-4.76062856"><ele>2630</ele><speed>12.40</speed><time>2016-07-01T14:30:04Z</time><pdop>9.0</pdop><geoidheight>53.00</geoidheight><course>198.2</course><type>1</type></trkpt>
      <trkpt lat="40.61689938" lon="-4.76072081"><ele>2630</ele><speed>12.96</speed><time>2016-07-01T14:30:06Z</time><pdop>9.0</pdop><geoidheight>53.00</geoidheight><course>197.8</course><type>1</type></trkpt>
      <trkpt lat="40.61672973" lon="-4.76090043"><ele>2626</ele><speed>12.51</speed><time>2016-07-01T14:30:08Z</time><pdop>9.0</pdop><geoidheight>53.00</geoidheight><course>217.7</course><type>1</type></trkpt>
      <trkpt lat="40.61651634" lon="-4.76111987"><ele>2623</ele><speed>13.93</speed><time>2016-07-01T14:30:10Z</time><pdop>9.0</pdop><geoidheight>53.00</geoidheight><course>217.7</course><type>1</type></trkpt>
      <trkpt lat="40.61632075" lon="-4.76129732"><ele>2620</ele><speed>13.32</speed><time>2016-07-01T14:30:12Z</time><pdop>9.0</pdop><geoidheight>53.00</geoidheight><course>211.3</course><type>1</type></trkpt>
      <trkpt lat="40.616115" lon="-4.76145456"><ele>2618</ele><speed>12.33</speed><time>2016-07-01T14:30:14Z</time><pdop>9.0</pdop><geoidheight>53.00</geoidheight><course>210.1</course><type>1</type></trkpt>
      <trkpt lat="40.61592559" lon="-4.76159702"><ele>2616</ele><speed>12.12</speed><time>2016-07-01T14:30:16Z</time><pdop>10.0</pdop><geoidheight>53.00</geoidheight><course>208.8</course><type>1</type></trkpt>
      <trkpt lat="40.61568667" lon="-4.76175984"><ele>2613</ele><speed>14.22</speed><time>2016-07-01T14:30:18Z</time><pdop>10.0</pdop><geoidheight>53.00</geoidheight><course>208.5</course><type>1</type></trkpt>
      <trkpt lat="40.61548073" lon="-4.76194358"><ele>2611</ele><speed>14.00</speed><time>2016-07-01T14:30:20Z</time><pdop>10.0</pdop><geoidheight>53.00</geoidheight><course>213.8</course><type>1</type></trkpt>
      <trkpt lat="40.6152578" lon="-4.76212651"><ele>2610</ele><speed>14.00</speed><time>2016-07-01T14:30:22Z</time><pdop>11.0</pdop><geoidheight>53.00</geoidheight><course>213.4</course><type>1</type></trkpt>
      <trkpt lat="40.61505119" lon="-4.76230526"><ele>2608</ele><speed>13.89</speed><time>2016-07-01T14:30:24Z</time><pdop>11.0</pdop><geoidheight>53.00</geoidheight><course>211.9</course><type>1</type></trkpt>
      <trkpt lat="40.61485948" lon="-4.76250661"><ele>2604</ele><speed>13.31</speed><time>2016-07-01T14:30:26Z</time><pdop>11.0</pdop><geoidheight>53.00</geoidheight><course>211.5</course><type>1</type></trkpt>
      <trkpt lat="40.61469194" lon="-4.7626384"><ele>2601</ele><speed>11.64</speed><time>2016-07-01T14:30:28Z</time><pdop>10.0</pdop><geoidheight>53.00</geoidheight><course>206.2</course><type>1</type></trkpt>
      <trkpt lat="40.61448464" lon="-4.76273785"><ele>2600</ele><speed>11.88</speed><time>2016-07-01T14:30:30Z</time><pdop>12.0</pdop><geoidheight>53.00</geoidheight><course>204.7</course><type>1</type></trkpt>
      <trkpt lat="40.61431308" lon="-4.76293744"><ele>2597</ele><speed>12.52</speed><time>2016-07-01T14:30:32Z</time><pdop>11.0</pdop><geoidheight>53.00</geoidheight><course>213.2</course><type>1</type></trkpt>
      <trkpt lat="40.61411404" lon="-4.76314896"><ele>2595</ele><speed>13.80</speed><time>2016-07-01T14:30:34Z</time><pdop>10.0</pdop><geoidheight>53.00</geoidheight><course>217.5</course><type>1</type></trkpt>
      <trkpt lat="40.61392189" lon="-4.76336019"><ele>2592</ele><speed>12.91</speed><time>2016-07-01T14:30:36Z</time><pdop>10.0</pdop><geoidheight>53.00</geoidheight><course>219.2</course><type>1</type></trkpt>
      <trkpt lat="40.61372685" lon="-4.76352843"><ele>2591</ele><speed>12.63</speed><time>2016-07-01T14:30:38Z</time><pdop>11.0</pdop><geoidheight>53.00</geoidheight><course>215.7</course><type>1</type></trkpt>
      <trkpt lat="40.61351249" lon="-4.76368591"><ele>2587</ele><speed>13.00</speed><time>2016-07-01T14:30:40Z</time><pdop>10.0</pdop><geoidheight>53.00</geoidheight><course>208.9</course><type>1</type></trkpt>
      <trkpt lat="40.61329873" lon="-4.76381255"><ele>2581</ele><speed>13.40</speed><time>2016-07-01T14:30:42Z</time><pdop>10.0</pdop><geoidheight>53.00</geoidheight><course>206.3</course><type>1</type></trkpt>
      <trkpt lat="40.61307455" lon="-4.76399612"><ele>2579</ele><speed>13.95</speed><time>2016-07-01T14:30:44Z</time><pdop>10.0</pdop><geoidheight>53.00</geoidheight><course>214.8</course><type>1</type></trkpt>
      <trkpt lat="40.61277877" lon="-4.76429517"><ele>2577</ele><speed>13.80</speed><time>2016-07-01T14:30:47Z</time><pdop>12.0</pdop><geoidheight>53.00</geoidheight><course>217.9</course><type>1</type></trkpt>
      <trkpt lat="40.61256116" lon="-4.76449243"><ele>2576</ele><speed>13.01</speed><time>2016-07-01T14:30:49Z</time><pdop>11.0</pdop><geoidheight>53.00</geoidheight><course>214.3</course><type>1</type></trkpt>
      <trkpt lat="40.61235114" lon="-4.76467066"><ele>2574</ele><speed>13.57</speed><time>2016-07-01T14:30:51Z</time><pdop>10.0</pdop><geoidheight>53.00</geoidheight><course>214.1</course><type>1</type></trkpt>
      <trkpt lat="40.6122192" lon="-4.76493866"><ele>2564</ele><speed>13.57</speed><time>2016-07-01T14:30:53Z</time><pdop>10.0</pdop><geoidheight>53.00</geoidheight><course>220.4</course><type>1</type></trkpt>
      <trkpt lat="40.61201821" lon="-4.76517775"><ele>2562</ele><speed>14.24</speed><time>2016-07-01T14:30:55Z</time><pdop>10.0</pdop><geoidheight>53.00</geoidheight><course>223.5</course><type>1</type></trkpt>
      <trkpt lat="40.61184719" lon="-4.76541008"><ele>2559</ele><speed>13.46</speed><time>2016-07-01T14:30:57Z</time><pdop>10.0</pdop><geoidheight>53.00</geoidheight><course>227.8</course><type>1</type></trkpt>
      <trkpt lat="40.61171632" lon="-4.76560889"><ele>2559</ele><speed>10.89</speed><time>2016-07-01T14:30:59Z</time><pdop>10.0</pdop><geoidheight>53.00</geoidheight><course>228.5</course><type>1</type></trkpt>
      <trkpt lat="40.6116115" lon="-4.76580735"><ele>2556</ele><speed>9.76</speed><time>2016-07-01T14:31:01Z</time><pdop>9.0</pdop><geoidheight>53.00</geoidheight><course>233.6</course><type>1</type></trkpt>
      <trkpt lat="40.61150682" lon="-4.76597201"><ele>2558</ele><speed>9.28</speed><time>2016-07-01T14:31:03Z</time><pdop>9.0</pdop><geoidheight>53.00</geoidheight><course>233.2</course><type>1</type></trkpt>
      <trkpt lat="40.61139745" lon="-4.76614292"><ele>2558</ele><speed>9.28</speed><time>2016-07-01T14:31:05Z</time><pdop>9.0</pdop><geoidheight>53.00</geoidheight><course>230.6</course><type>1</type></trkpt>
      <trkpt lat="40.61129172" lon="-4.76633195"><ele>2556</ele><speed>9.92</speed><time>2016-07-01T14:31:07Z</time><pdop>9.0</pdop><geoidheight>53.00</geoidheight><course>235.8</course><type>1</type></trkpt>
      <trkpt lat="40.61119817" lon="-4.76653524"><ele>2555</ele><speed>10.58</speed><time>2016-07-01T14:31:09Z</time><pdop>10.0</pdop><geoidheight>53.00</geoidheight><course>240.5</course><type>1</type></trkpt>
      <trkpt lat="40.61110361" lon="-4.76687889"><ele>2552</ele><speed>10.70</speed><time>2016-07-01T14:31:12Z</time><pdop>12.0</pdop><geoidheight>53.00</geoidheight><course>248.2</course><type>1</type></trkpt>
      <trkpt lat="40.61099976" lon="-4.76713362"><ele>2550</ele><speed>10.42</speed><time>2016-07-01T14:31:14Z</time><pdop>10.0</pdop><geoidheight>53.00</geoidheight><course>246.7</course><type>1</type></trkpt>
      <trkpt lat="40.61095401" lon="-4.76735844"><ele>2549</ele><speed>10.01</speed><time>2016-07-01T14:31:16Z</time><pdop>9.0</pdop><geoidheight>53.00</geoidheight><course>256.3</course><type>1</type></trkpt>
      <trkpt lat="40.61096069" lon="-4.76758616"><ele>2543</ele><speed>9.54</speed><time>2016-07-01T14:31:18Z</time><pdop>9.0</pdop><geoidheight>53.00</geoidheight><course>266.3</course><type>1</type></trkpt>
      <trkpt lat="40.6109163" lon="-4.76784327"><ele>2541</ele><speed>11.04</speed><time>2016-07-01T14:31:20Z</time><pdop>9.0</pdop><geoidheight>53.00</geoidheight><course>254.0</course><type>1</type></trkpt>
      <trkpt lat="40.61089049" lon="-4.76805664"><ele>2540</ele><speed>10.04</speed><time>2016-07-01T14:31:22Z</time><pdop>9.0</pdop><geoidheight>53.00</geoidheight><course>257.1</course><type>1</type></trkpt>
      <trkpt lat="40.6108404" lon="-4.76828004"><ele>2540</ele><speed>9.84</speed><time>2016-07-01T14:31:24Z</time><pdop>10.0</pdop><geoidheight>53.00</geoidheight><course>252.6</course><type>1</type></trkpt>
      <trkpt lat="40.61076361" lon="-4.76852584"><ele>2538</ele><speed>10.09</speed><time>2016-07-01T14:31:26Z</time><pdop>11.0</pdop><geoidheight>53.00</geoidheight><course>248.6</course><type>1</type></trkpt>
      <trkpt lat="40.61067456" lon="-4.76879093"><ele>2535</ele><speed>11.63</speed><time>2016-07-01T14:31:28Z</time><pdop>11.0</pdop><geoidheight>53.00</geoidheight><course>249.7</course><type>1</type></trkpt>
      <trkpt lat="40.61061194" lon="-4.76907152"><ele>2534</ele><speed>12.66</speed><time>2016-07-01T14:31:30Z</time><pdop>11.0</pdop><geoidheight>53.00</geoidheight><course>253.5</course><type>1</type></trkpt>
      <trkpt lat="40.61052092" lon="-4.76940387"><ele>2531</ele><speed>13.62</speed><time>2016-07-01T14:31:32Z</time><pdop>11.0</pdop><geoidheight>53.00</geoidheight><course>253.5</course><type>1</type></trkpt>
      <trkpt lat="40.6104909" lon="-4.76972675"><ele>2524</ele><speed>11.52</speed><time>2016-07-01T14:31:35Z</time><pdop>10.0</pdop><geoidheight>53.00</geoidheight><course>259.5</course><type>1</type></trkpt>
      <trkpt lat="40.61044655" lon="-4.77007113"><ele>2517</ele><speed>11.25</speed><time>2016-07-01T14:31:38Z</time><pdop>11.0</pdop><geoidheight>53.00</geoidheight><course>257.9</course><type>1</type></trkpt>
      <trkpt lat="40.61032882" lon="-4.77043006"><ele>2513</ele><speed>11.26</speed><time>2016-07-01T14:31:41Z</time><pdop>12.0</pdop><geoidheight>53.00</geoidheight><course>247.1</course><type>1</type></trkpt>
      <trkpt lat="40.61006048" lon="-4.77050793"><ele>2509</ele><speed>11.01</speed><time>2016-07-01T14:31:43Z</time><pdop>11.0</pdop><geoidheight>53.00</geoidheight><course>208.6</course><type>1</type></trkpt>
      <trkpt lat="40.60984372" lon="-4.77060247"><ele>2505</ele><speed>12.16</speed><time>2016-07-01T14:31:45Z</time><pdop>10.0</pdop><geoidheight>53.00</geoidheight><course>199.0</course><type>1</type></trkpt>
      <trkpt lat="40.6096145" lon="-4.77074398"><ele>2498</ele><speed>13.99</speed><time>2016-07-01T14:31:47Z</time><pdop>9.0</pdop><geoidheight>53.00</geoidheight><course>205.6</course><type>1</type></trkpt>
      <trkpt lat="40.60939256" lon="-4.7708824"><ele>2496</ele><speed>13.44</speed><time>2016-07-01T14:31:49Z</time><pdop>9.0</pdop><geoidheight>53.00</geoidheight><course>205.2</course><type>1</type></trkpt>
      <trkpt lat="40.60918076" lon="-4.77100998"><ele>2490</ele><speed>12.41</speed><time>2016-07-01T14:31:51Z</time><pdop>9.0</pdop><geoidheight>53.00</geoidheight><course>202.8</course><type>1</type></trkpt>
      <trkpt lat="40.60895674" lon="-4.77110711"><ele>2485</ele><speed>13.25</speed><time>2016-07-01T14:31:53Z</time><pdop>9.0</pdop><geoidheight>53.00</geoidheight><course>197.6</course><type>1</type></trkpt>
      <trkpt lat="40.60871601" lon="-4.77118951"><ele>2480</ele><speed>14.21</speed><time>2016-07-01T14:31:55Z</time><pdop>9.0</pdop><geoidheight>53.00</geoidheight><course>192.7</course><type>1</type></trkpt>
      <trkpt lat="40.60848636" lon="-4.77122488"><ele>2473</ele><speed>14.01</speed><time>2016-07-01T14:31:57Z</time><pdop>9.0</pdop><geoidheight>53.00</geoidheight><course>189.9</course><type>1</type></trkpt>
      <trkpt lat="40.60822997" lon="-4.77128272"><ele>2472</ele><speed>14.18</speed><time>2016-07-01T14:31:59Z</time><pdop>10.0</pdop><geoidheight>53.00</geoidheight><course>190.1</course><type>1</type></trkpt>
      <trkpt lat="40.6080012" lon="-4.77133724"><ele>2469</ele><speed>13.67</speed><time>2016-07-01T14:32:01Z</time><pdop>9.0</pdop><geoidheight>53.00</geoidheight><course>192.9</course><type>1</type></trkpt>
      <trkpt lat="40.60775907" lon="-4.77142353"><ele>2467</ele><speed>14.53</speed><time>2016-07-01T14:32:03Z</time><pdop>9.0</pdop><geoidheight>53.00</geoidheight><course>194.1</course><type>1</type></trkpt>
      <trkpt lat="40.60749735" lon="-4.77151903"><ele>2465</ele><speed>14.80</speed><time>2016-07-01T14:32:05Z</time><pdop>9.0</pdop><geoidheight>53.00</geoidheight><course>196.2</course><type>1</type></trkpt>
      <trkpt lat="40.60724142" lon="-4.77165694"><ele>2460</ele><speed>15.72</speed><time>2016-07-01T14:32:07Z</time><pdop>9.0</pdop><geoidheight>53.00</geoidheight><course>198.0</course><type>1</type></trkpt>
      <trkpt lat="40.60706501" lon="-4.77173229"><ele>2454</ele><speed>18.27</speed><time>2016-07-01T14:32:08Z</time><pdop>9.0</pdop><geoidheight>53.00</geoidheight><course>196.9</course><type>1</type></trkpt>
      <trkpt lat="40.60690713" lon="-4.77180331"><ele>2450</ele><speed>18.54</speed><time>2016-07-01T14:32:09Z</time><pdop>9.0</pdop><geoidheight>53.00</geoidheight><course>197.2</course><type>1</type></trkpt>
      <trkpt lat="40.60662288" lon="-4.7719302"><ele>2447</ele><speed>16.76</speed><time>2016-07-01T14:32:11Z</time><pdop>9.0</pdop><geoidheight>53.00</geoidheight><course>198.5</course><type>1</type></trkpt>
      <trkpt lat="40.60636377" lon="-4.77205393"><ele>2444</ele><speed>15.50</speed><time>2016-07-01T14:32:13Z</time><pdop>9.0</pdop><geoidheight>53.00</geoidheight><course>198.8</course><type>1</type></trkpt>
      <trkpt lat="40.6060932" lon="-4.77216899"><ele>2438</ele><speed>16.07</speed><time>2016-07-01T14:32:15Z</time><pdop>9.0</pdop><geoidheight>53.00</geoidheight><course>198.2</course><type>1</type></trkpt>
      <trkpt lat="40.60580702" lon="-4.77231792"><ele>2432</ele><speed>17.57</speed><time>2016-07-01T14:32:17Z</time><pdop>9.0</pdop><geoidheight>53.00</geoidheight><course>200.7</course><type>1</type></trkpt>
      <trkpt lat="40.60565328" lon="-4.77239676"><ele>2429</ele><speed>17.98</speed><time>2016-07-01T14:32:18Z</time><pdop>9.0</pdop><geoidheight>53.00</geoidheight><course>202.2</course><type>1</type></trkpt>
      <trkpt lat="40.60536207" lon="-4.77255568"><ele>2426</ele><speed>17.39</speed><time>2016-07-01T14:32:20Z</time><pdop>9.0</pdop><geoidheight>53.00</geoidheight><course>201.5</course><type>1</type></trkpt>
      <trkpt lat="40.60506693" lon="-4.77269024"><ele>2424</ele><speed>17.16</speed><time>2016-07-01T14:32:22Z</time><pdop>9.0</pdop><geoidheight>53.00</geoidheight><course>199.5</course><type>1</type></trkpt>
      <trkpt lat="40.60480781" lon="-4.77285588"><ele>2421</ele><speed>16.80</speed><time>2016-07-01T14:32:24Z</time><pdop>10.0</pdop><geoidheight>53.00</geoidheight><course>203.3</course><type>1</type></trkpt>
      <trkpt lat="40.60452324" lon="-4.77301165"><ele>2419</ele><speed>16.67</speed><time>2016-07-01T14:32:26Z</time><pdop>10.0</pdop><geoidheight>53.00</geoidheight><course>202.1</course><type>1</type></trkpt>
      <trkpt lat="40.604232" lon="-4.77313195"><ele>2417</ele><speed>16.52</speed><time>2016-07-01T14:32:28Z</time><pdop>9.0</pdop><geoidheight>53.00</geoidheight><course>199.0</course><type>1</type></trkpt>
      <trkpt lat="40.60392733" lon="-4.77327639"><ele>2408</ele><speed>17.76</speed><time>2016-07-01T14:32:30Z</time><pdop>9.0</pdop><geoidheight>53.00</geoidheight><course>199.2</course><type>1</type></trkpt>
      <trkpt lat="40.60376122" lon="-4.77334665"><ele>2408</ele><speed>18.97</speed><time>2016-07-01T14:32:31Z</time><pdop>9.0</pdop><geoidheight>53.00</geoidheight><course>200.2</course><type>1</type></trkpt>
      <trkpt lat="40.60360794" lon="-4.77345013"><ele>2405</ele><speed>19.24</speed><time>2016-07-01T14:32:32Z</time><pdop>9.0</pdop><geoidheight>53.00</geoidheight><course>202.2</course><type>1</type></trkpt>
      <trkpt lat="40.60336048" lon="-4.77361649"><ele>2402</ele><speed>15.84</speed><time>2016-07-01T14:32:34Z</time><pdop>9.0</pdop><geoidheight>53.00</geoidheight><course>203.5</course><type>1</type></trkpt>
      <trkpt lat="40.60315193" lon="-4.77374772"><ele>2400</ele><speed>13.44</speed><time>2016-07-01T14:32:36Z</time><pdop>9.0</pdop><geoidheight>53.00</geoidheight><course>202.2</course><type>1</type></trkpt>
      <trkpt lat="40.60288695" lon="-4.77387351"><ele>2398</ele><speed>15.24</speed><time>2016-07-01T14:32:38Z</time><pdop>10.0</pdop><geoidheight>53.00</geoidheight><course>200.9</course><type>1</type></trkpt>
      <trkpt lat="40.60260297" lon="-4.77406237"><ele>2395</ele><speed>17.28</speed><time>2016-07-01T14:32:40Z</time><pdop>10.0</pdop><geoidheight>53.00</geoidheight><course>203.1</course><type>1</type></trkpt>
      <trkpt lat="40.60233239" lon="-4.77423763"><ele>2389</ele><speed>15.61</speed><time>2016-07-01T14:32:42Z</time><pdop>9.0</pdop><geoidheight>53.00</geoidheight><course>201.1</course><type>1</type></trkpt>
      <trkpt lat="40.60208516" lon="-4.77434128"><ele>2384</ele><speed>14.18</speed><time>2016-07-01T14:32:44Z</time><pdop>9.0</pdop><geoidheight>53.00</geoidheight><course>195.4</course><type>1</type></trkpt>
      <trkpt lat="40.60184281" lon="-4.77440941"><ele>2379</ele><speed>13.80</speed><time>2016-07-01T14:32:46Z</time><pdop>9.0</pdop><geoidheight>53.00</geoidheight><course>190.1</course><type>1</type></trkpt>
      <trkpt lat="40.60158705" lon="-4.7744417"><ele>2378</ele><speed>13.95</speed><time>2016-07-01T14:32:48Z</time><pdop>9.0</pdop><geoidheight>53.00</geoidheight><course>185.0</course><type>1</type></trkpt>
      <trkpt lat="40.60131258" lon="-4.77448327"><ele>2374</ele><speed>15.65</speed><time>2016-07-01T14:32:50Z</time><pdop>9.0</pdop><geoidheight>53.00</geoidheight><course>187.2</course><type>1</type></trkpt>
      <trkpt lat="40.60102381" lon="-4.77458364"><ele>2372</ele><speed>16.67</speed><time>2016-07-01T14:32:52Z</time><pdop>9.0</pdop><geoidheight>53.00</geoidheight><course>190.9</course><type>1</type></trkpt>
      <trkpt lat="40.60077955" lon="-4.77464003"><ele>2372</ele><speed>14.13</speed><time>2016-07-01T14:32:54Z</time><pdop>10.0</pdop><geoidheight>53.00</geoidheight><course>189.4</course><type>1</type></trkpt>
      <trkpt lat="40.60054241" lon="-4.77468504"><ele>2374</ele><speed>10.89</speed><time>2016-07-01T14:32:57Z</time><pdop>10.0</pdop><geoidheight>53.00</geoidheight><course>184.0</course><type>1</type></trkpt>
      <trkpt lat="40.60034922" lon="-4.77460949"><ele>2376</ele><speed>11.60</speed><time>2016-07-01T14:32:59Z</time><pdop>9.0</pdop><geoidheight>53.00</geoidheight><course>166.4</course><type>1</type></trkpt>
      <trkpt lat="40.60011115" lon="-4.77446607"><ele>2376</ele><speed>14.42</speed><time>2016-07-01T14:33:01Z</time><pdop>10.0</pdop><geoidheight>53.00</geoidheight><course>158.5</course><type>1</type></trkpt>
      <trkpt lat="40.59986599" lon="-4.77416859"><ele>2380</ele><speed>16.04</speed><time>2016-07-01T14:33:03Z</time><pdop>10.0</pdop><geoidheight>53.00</geoidheight><course>140.6</course><type>1</type></trkpt>
      <trkpt lat="40.59971696" lon="-4.77394785"><ele>2385</ele><speed>11.79</speed><time>2016-07-01T14:33:05Z</time><pdop>11.0</pdop><geoidheight>53.00</geoidheight><course>126.6</course><type>1</type></trkpt>
      <trkpt lat="40.59963601" lon="-4.77362883"><ele>2390</ele><speed>12.19</speed><time>2016-07-01T14:33:07Z</time><pdop>12.0</pdop><geoidheight>53.00</geoidheight><course>111.6</course><type>1</type></trkpt>
      <trkpt lat="40.59972173" lon="-4.77322136"><ele>2399</ele><speed>13.36</speed><time>2016-07-01T14:33:09Z</time><pdop>11.0</pdop><geoidheight>53.00</geoidheight><course>81.0</course><type>1</type></trkpt>
      <trkpt lat="40.59979134" lon="-4.77289315"><ele>2407</ele><speed>12.58</speed><time>2016-07-01T14:33:11Z</time><pdop>11.0</pdop><geoidheight>53.00</geoidheight><course>76.1</course><type>1</type></trkpt>
      <trkpt lat="40.60006575" lon="-4.77282423"><ele>2420</ele><speed>7.02</speed><time>2016-07-01T14:33:15Z</time><pdop>11.0</pdop><geoidheight>53.00</geoidheight><course>16.0</course><type>1</type></trkpt>
      <trkpt lat="40.60003842" lon="-4.77310343"><ele>2440</ele><speed>5.56</speed><time>2016-07-01T14:33:24Z</time><pdop>12.0</pdop><geoidheight>53.00</geoidheight><course>213.4</course><type>1</type></trkpt>
      <trkpt lat="40.59979434" lon="-4.7731542"><ele>2442</ele><speed>10.06</speed><time>2016-07-01T14:33:26Z</time><pdop>13.0</pdop><geoidheight>53.00</geoidheight><course>188.6</course><type>1</type></trkpt>
      <trkpt lat="40.59948777" lon="-4.77319677"><ele>2448</ele><speed>13.02</speed><time>2016-07-01T14:33:28Z</time><pdop>12.0</pdop><geoidheight>53.00</geoidheight><course>175.9</course><type>1</type></trkpt>
      <trkpt lat="40.59924344" lon="-4.77319345"><ele>2452</ele><speed>12.84</speed><time>2016-07-01T14:33:30Z</time><pdop>12.0</pdop><geoidheight>53.00</geoidheight><course>173.0</course><type>1</type></trkpt>
      <trkpt lat="40.59897736" lon="-4.77313663"><ele>2455</ele><speed>13.82</speed><time>2016-07-01T14:33:32Z</time><pdop>11.0</pdop><geoidheight>53.00</geoidheight><course>167.3</course><type>1</type></trkpt>
      <trkpt lat="40.5987665" lon="-4.77309237"><ele>2466</ele><speed>12.08</speed><time>2016-07-01T14:33:34Z</time><pdop>10.0</pdop><geoidheight>53.00</geoidheight><course>173.1</course><type>1</type></trkpt>
      <trkpt lat="40.59853575" lon="-4.77305936"><ele>2474</ele><speed>12.90</speed><time>2016-07-01T14:33:36Z</time><pdop>9.0</pdop><geoidheight>53.00</geoidheight><course>173.5</course><type>1</type></trkpt>
      <trkpt lat="40.59833547" lon="-4.77307374"><ele>2482</ele><speed>10.52</speed><time>2016-07-01T14:33:38Z</time><pdop>9.0</pdop><geoidheight>53.00</geoidheight><course>185.2</course><type>1</type></trkpt>
      <trkpt lat="40.5981448" lon="-4.77319367"><ele>2492</ele><speed>5.49</speed><time>2016-07-01T14:33:42Z</time><pdop>12.0</pdop><geoidheight>53.00</geoidheight><course>216.1</course><type>1</type></trkpt>
      <trkpt lat="40.59840184" lon="-4.77316727"><ele>2500</ele><speed>3.93</speed><time>2016-07-01T14:33:46Z</time><pdop>14.0</pdop><geoidheight>53.00</geoidheight><course>13.4</course><type>1</type></trkpt>
      <trkpt lat="40.59845604" lon="-4.77282764"><ele>2509</ele><speed>11.23</speed><time>2016-07-01T14:33:48Z</time><pdop>12.0</pdop><geoidheight>53.00</geoidheight><course>70.5</course><type>1</type></trkpt>
      <trkpt lat="40.59846176" lon="-4.77245298"><ele>2514</ele><speed>13.23</speed><time>2016-07-01T14:33:50Z</time><pdop>12.0</pdop><geoidheight>53.00</geoidheight><course>85.5</course><type>1</type></trkpt>
      <trkpt lat="40.59835168" lon="-4.77210929"><ele>2527</ele><speed>13.59</speed><time>2016-07-01T14:33:52Z</time><pdop>11.0</pdop><geoidheight>53.00</geoidheight><course>114.9</course><type>1</type></trkpt>
      <trkpt lat="40.59817734" lon="-4.77184077"><ele>2532</ele><speed>14.45</speed><time>2016-07-01T14:33:54Z</time><pdop>7.0</pdop><geoidheight>53.00</geoidheight><course>129.7</course><type>1</type></trkpt>
      <trkpt lat="40.59807922" lon="-4.77173313"><ele>2535</ele><speed>13.85</speed><time>2016-07-01T14:33:55Z</time><pdop>7.0</pdop><geoidheight>53.00</geoidheight><course>132.5</course><type>1</type></trkpt>
      <trkpt lat="40.59789991" lon="-4.77162733"><ele>2538</ele><speed>12.05</speed><time>2016-07-01T14:33:57Z</time><pdop>8.0</pdop><geoidheight>53.00</geoidheight><course>142.1</course><type>1</type></trkpt>
      <trkpt lat="40.59787306" lon="-4.77184654"><ele>2548</ele><speed>2.80</speed><time>2016-07-01T14:34:01Z</time><pdop>8.0</pdop><geoidheight>53.00</geoidheight><course>283.2</course><type>1</type></trkpt>
      <trkpt lat="40.59788978" lon="-4.77202366"><ele>2554</ele><speed>4.03</speed><time>2016-07-01T14:34:03Z</time><pdop>7.0</pdop><geoidheight>53.00</geoidheight><course>290.5</course><type>1</type></trkpt>
      <trkpt lat="40.59801084" lon="-4.77210188"><ele>2563</ele><speed>5.16</speed><time>2016-07-01T14:34:05Z</time><pdop>7.0</pdop><geoidheight>53.00</geoidheight><course>333.0</course><type>1</type></trkpt>
      <trkpt lat="40.59799562" lon="-4.77187154"><ele>2568</ele><speed>5.09</speed><time>2016-07-01T14:34:07Z</time><pdop>8.0</pdop><geoidheight>53.00</geoidheight><course>70.0</course><type>1</type></trkpt>
      <trkpt lat="40.5979338" lon="-4.77162207"><ele>2571</ele><speed>11.18</speed><time>2016-07-01T14:34:08Z</time><pdop>7.0</pdop><geoidheight>53.00</geoidheight><course>94.8</course><type>1</type></trkpt>
      <trkpt lat="40.59793966" lon="-4.77137416"><ele>2575</ele><speed>14.34</speed><time>2016-07-01T14:34:09Z</time><pdop>7.0</pdop><geoidheight>53.00</geoidheight><course>92.4</course><type>1</type></trkpt>
      <trkpt lat="40.59790389" lon="-4.77118179"><ele>2577</ele><speed>14.96</speed><time>2016-07-01T14:34:10Z</time><pdop>7.0</pdop><geoidheight>53.00</geoidheight><course>95.8</course><type>1</type></trkpt>
      <trkpt lat="40.59787275" lon="-4.77099057"><ele>2582</ele><speed>14.83</speed><time>2016-07-01T14:34:11Z</time><pdop>7.0</pdop><geoidheight>53.00</geoidheight><course>103.7</course><type>1</type></trkpt>
      <trkpt lat="40.59780831" lon="-4.77081011"><ele>2588</ele><speed>15.11</speed><time>2016-07-01T14:34:12Z</time><pdop>7.0</pdop><geoidheight>53.00</geoidheight><course>113.3</course><type>1</type></trkpt>
      <trkpt lat="40.59775474" lon="-4.77063971"><ele>2593</ele><speed>15.16</speed><time>2016-07-01T14:34:13Z</time><pdop>7.0</pdop><geoidheight>53.00</geoidheight><course>116.8</course><type>1</type></trkpt>
      <trkpt lat="40.59770157" lon="-4.77046343"><ele>2600</ele><speed>14.84</speed><time>2016-07-01T14:34:14Z</time><pdop>8.0</pdop><geoidheight>53.00</geoidheight><course>119.9</course><type>1</type></trkpt>
      <trkpt lat="40.59755543" lon="-4.77021349"><ele>2604</ele><speed>13.29</speed><time>2016-07-01T14:34:16Z</time><pdop>9.0</pdop><geoidheight>53.00</geoidheight><course>127.0</course><type>1</type></trkpt>
      <trkpt lat="40.5973834" lon="-4.77010091"><ele>2607</ele><speed>11.37</speed><time>2016-07-01T14:34:18Z</time><pdop>10.0</pdop><geoidheight>53.00</geoidheight><course>139.4</course><type>1</type></trkpt>
      <trkpt lat="40.59764947" lon="-4.77037148"><ele>2629</ele><speed>6.97</speed><time>2016-07-01T14:34:25Z</time><pdop>17.0</pdop><geoidheight>53.00</geoidheight><course>352.6</course><type>1</type></trkpt>
      <trkpt lat="40.59768712" lon="-4.76995572"><ele>2654</ele><speed>11.79</speed><time>2016-07-01T14:34:30Z</time><pdop>10.0</pdop><geoidheight>53.00</geoidheight><course>94.1</course><type>1</type></trkpt>
      <trkpt lat="40.59758227" lon="-4.7695532"><ele>2664</ele><speed>14.08</speed><time>2016-07-01T14:34:32Z</time><pdop>12.0</pdop><geoidheight>53.00</geoidheight><course>108.8</course><type>1</type></trkpt>
      <trkpt lat="40.59745093" lon="-4.76932831"><ele>2676</ele><speed>17.79</speed><time>2016-07-01T14:34:33Z</time><pdop>9.0</pdop><geoidheight>53.00</geoidheight><course>125.8</course><type>1</type></trkpt>
      <trkpt lat="40.59725288" lon="-4.76903547"><ele>2691</ele><speed>16.17</speed><time>2016-07-01T14:34:35Z</time><pdop>10.0</pdop><geoidheight>53.00</geoidheight><course>138.3</course><type>1</type></trkpt>
      <trkpt lat="40.59702984" lon="-4.7689168"><ele>2707</ele><speed>13.32</speed><time>2016-07-01T14:34:37Z</time><pdop>8.0</pdop><geoidheight>53.00</geoidheight><course>164.8</course><type>1</type></trkpt>
      <trkpt lat="40.59682891" lon="-4.76883124"><ele>2720</ele><speed>12.56</speed><time>2016-07-01T14:34:39Z</time><pdop>9.0</pdop><geoidheight>53.00</geoidheight><course>169.8</course><type>1</type></trkpt>
      <trkpt lat="40.59669016" lon="-4.76904556"><ele>2754</ele><speed>8.88</speed><time>2016-07-01T14:34:43Z</time><pdop>7.0</pdop><geoidheight>53.00</geoidheight><course>254.6</course><type>1</type></trkpt>
      <trkpt lat="40.59681122" lon="-4.76909607"><ele>2768</ele><speed>6.48</speed><time>2016-07-01T14:34:46Z</time><pdop>7.0</pdop><geoidheight>53.00</geoidheight><course>324.2</course><type>1</type></trkpt>
      <trkpt lat="40.59699342" lon="-4.76896878"><ele>2763</ele><speed>6.99</speed><time>2016-07-01T14:34:48Z</time><pdop>8.0</pdop><geoidheight>53.00</geoidheight><course>19.5</course><type>1</type></trkpt>
      <trkpt lat="40.59708566" lon="-4.76881545"><ele>2763</ele><speed>9.91</speed><time>2016-07-01T14:34:49Z</time><pdop>7.0</pdop><geoidheight>53.00</geoidheight><course>38.1</course><type>1</type></trkpt>
      <trkpt lat="40.59712453" lon="-4.76853866"><ele>2764</ele><speed>10.31</speed><time>2016-07-01T14:34:51Z</time><pdop>8.0</pdop><geoidheight>53.00</geoidheight><course>62.2</course><type>1</type></trkpt>
      <trkpt lat="40.59698841" lon="-4.7682256"><ele>2770</ele><speed>15.03</speed><time>2016-07-01T14:34:52Z</time><pdop>6.0</pdop><geoidheight>53.00</geoidheight><course>102.7</course><type>1</type></trkpt>
      <trkpt lat="40.59694881" lon="-4.76804686"><ele>2773</ele><speed>14.12</speed><time>2016-07-01T14:34:53Z</time><pdop>6.0</pdop><geoidheight>53.00</geoidheight><course>104.8</course><type>1</type></trkpt>
      <trkpt lat="40.59689262" lon="-4.76786337"><ele>2777</ele><speed>14.35</speed><time>2016-07-01T14:34:54Z</time><pdop>6.0</pdop><geoidheight>53.00</geoidheight><course>110.4</course><type>1</type></trkpt>
      <trkpt lat="40.59679738" lon="-4.7677215"><ele>2784</ele><speed>14.39</speed><time>2016-07-01T14:34:55Z</time><pdop>5.0</pdop><geoidheight>53.00</geoidheight><course>127.0</course><type>1</type></trkpt>
      <trkpt lat="40.59670598" lon="-4.76756963"><ele>2786</ele><speed>14.86</speed><time>2016-07-01T14:34:56Z</time><pdop>4.0</pdop><geoidheight>53.00</geoidheight><course>135.1</course><type>1</type></trkpt>
      <trkpt lat="40.59658258" lon="-4.76744243"><ele>2788</ele><speed>15.78</speed><time>2016-07-01T14:34:57Z</time><pdop>4.0</pdop><geoidheight>53.00</geoidheight><course>142.4</course><type>1</type></trkpt>
      <trkpt lat="40.59645736" lon="-4.76732718"><ele>2789</ele><speed>15.79</speed><time>2016-07-01T14:34:58Z</time><pdop>4.0</pdop><geoidheight>53.00</geoidheight><course>148.6</course><type>1</type></trkpt>
      <trkpt lat="40.59631542" lon="-4.76724125"><ele>2789</ele><speed>16.39</speed><time>2016-07-01T14:34:59Z</time><pdop>5.0</pdop><geoidheight>53.00</geoidheight><course>153.2</course><type>1</type></trkpt>
      <trkpt lat="40.59616416" lon="-4.76720397"><ele>2790</ele><speed>16.37</speed><time>2016-07-01T14:35:00Z</time><pdop>6.0</pdop><geoidheight>53.00</geoidheight><course>162.5</course><type>1</type></trkpt>
      <trkpt lat="40.59603517" lon="-4.76720997"><ele>2797</ele><speed>14.85</speed><time>2016-07-01T14:35:01Z</time><pdop>4.0</pdop><geoidheight>53.00</geoidheight><course>171.7</course><type>1</type></trkpt>
      <trkpt lat="40.59591584" lon="-4.76717558"><ele>2802</ele><speed>14.94</speed><time>2016-07-01T14:35:02Z</time><pdop>3.0</pdop><geoidheight>53.00</geoidheight><course>167.2</course><type>1</type></trkpt>
      <trkpt lat="40.59579608" lon="-4.76713636"><ele>2808</ele><speed>15.02</speed><time>2016-07-01T14:35:03Z</time><pdop>3.0</pdop><geoidheight>53.00</geoidheight><course>166.0</course><type>1</type></trkpt>
      <trkpt lat="40.59567168" lon="-4.76710338"><ele>2814</ele><speed>14.77</speed><time>2016-07-01T14:35:04Z</time><pdop>4.0</pdop><geoidheight>53.00</geoidheight><course>169.9</course><type>1</type></trkpt>
      <trkpt lat="40.59558195" lon="-4.76712122"><ele>2816</ele><speed>12.10</speed><time>2016-07-01T14:35:05Z</time><pdop>3.0</pdop><geoidheight>53.00</geoidheight><course>180.2</course><type>1</type></trkpt>
      <trkpt lat="40.59548969" lon="-4.76715578"><ele>2818</ele><speed>10.45</speed><time>2016-07-01T14:35:06Z</time><pdop>3.0</pdop><geoidheight>53.00</geoidheight><course>196.3</course><type>1</type></trkpt>
      <trkpt lat="40.59542166" lon="-4.76721507"><ele>2820</ele><speed>9.37</speed><time>2016-07-01T14:35:07Z</time><pdop>3.0</pdop><geoidheight>53.00</geoidheight><course>214.8</course><type>1</type></trkpt>
      <trkpt lat="40.59538107" lon="-4.76728202"><ele>2823</ele><speed>8.24</speed><time>2016-07-01T14:35:08Z</time><pdop>3.0</pdop><geoidheight>53.00</geoidheight><course>231.5</course><type>1</type></trkpt>
      <trkpt lat="40.59533939" lon="-4.76735321"><ele>2825</ele><speed>8.16</speed><time>2016-07-01T14:35:09Z</time><pdop>4.0</pdop><geoidheight>53.00</geoidheight><course>236.2</course><type>1</type></trkpt>
      <trkpt lat="40.59530293" lon="-4.76747816"><ele>2828</ele><speed>6.16</speed><time>2016-07-01T14:35:11Z</time><pdop>7.0</pdop><geoidheight>53.00</geoidheight><course>245.6</course><type>1</type></trkpt>
      <trkpt lat="40.59528565" lon="-4.76762126"><ele>2835</ele><speed>4.25</speed><time>2016-07-01T14:35:14Z</time><pdop>5.0</pdop><geoidheight>53.00</geoidheight><course>263.0</course><type>1</type></trkpt>
      <trkpt lat="40.59542341" lon="-4.76769188"><ele>2841</ele><speed>5.13</speed><time>2016-07-01T14:35:17Z</time><pdop>7.0</pdop><geoidheight>53.00</geoidheight><course>338.7</course><type>1</type></trkpt>
      <trkpt lat="40.59557078" lon="-4.76758023"><ele>2843</ele><speed>7.09</speed><time>2016-07-01T14:35:19Z</time><pdop>8.0</pdop><geoidheight>53.00</geoidheight><course>19.1</course><type>1</type></trkpt>
      <trkpt lat="40.59564953" lon="-4.76739761"><ele>2847</ele><speed>9.18</speed><time>2016-07-01T14:35:21Z</time><pdop>8.0</pdop><geoidheight>53.00</geoidheight><course>46.8</course><type>1</type></trkpt>
      <trkpt lat="40.59567988" lon="-4.76709338"><ele>2852</ele><speed>10.41</speed><time>2016-07-01T14:35:23Z</time><pdop>8.0</pdop><geoidheight>53.00</geoidheight><course>69.7</course><type>1</type></trkpt>
      <trkpt lat="40.5955142" lon="-4.76675018"><ele>2856</ele><speed>12.56</speed><time>2016-07-01T14:35:25Z</time><pdop>8.0</pdop><geoidheight>53.00</geoidheight><course>112.2</course><type>1</type></trkpt>
      <trkpt lat="40.59532881" lon="-4.76654369"><ele>2859</ele><speed>11.04</speed><time>2016-07-01T14:35:27Z</time><pdop>9.0</pdop><geoidheight>53.00</geoidheight><course>138.4</course><type>1</type></trkpt>
      <trkpt lat="40.59509179" lon="-4.766402"><ele>2862</ele><speed>11.04</speed><time>2016-07-01T14:35:29Z</time><pdop>9.0</pdop><geoidheight>53.00</geoidheight><course>157.8</course><type>1</type></trkpt>
      <trkpt lat="40.59490149" lon="-4.76653833"><ele>2864</ele><speed>9.53</speed><time>2016-07-01T14:35:31Z</time><pdop>6.0</pdop><geoidheight>53.00</geoidheight><course>207.3</course><type>1</type></trkpt>
      <trkpt lat="40.59476352" lon="-4.76665307"><ele>2867</ele><speed>9.95</speed><time>2016-07-01T14:35:33Z</time><pdop>5.0</pdop><geoidheight>53.00</geoidheight><course>214.0</course><type>1</type></trkpt>
      <trkpt lat="40.59465807" lon="-4.76677523"><ele>2875</ele><speed>8.27</speed><time>2016-07-01T14:35:35Z</time><pdop>5.0</pdop><geoidheight>53.00</geoidheight><course>226.5</course><type>1</type></trkpt>
      <trkpt lat="40.5946179" lon="-4.76692613"><ele>2881</ele><speed>6.68</speed><time>2016-07-01T14:35:37Z</time><pdop>5.0</pdop><geoidheight>53.00</geoidheight><course>258.9</course><type>1</type></trkpt>
      <trkpt lat="40.59460625" lon="-4.76710677"><ele>2889</ele><speed>4.67</speed><time>2016-07-01T14:35:40Z</time><pdop>10.0</pdop><geoidheight>53.00</geoidheight><course>269.7</course><type>1</type></trkpt>
      <trkpt lat="40.59480693" lon="-4.76715091"><ele>2894</ele><speed>5.45</speed><time>2016-07-01T14:35:43Z</time><pdop>11.0</pdop><geoidheight>53.00</geoidheight><course>344.5</course><type>1</type></trkpt>
      <trkpt lat="40.59496976" lon="-4.76693979"><ele>2901</ele><speed>8.26</speed><time>2016-07-01T14:35:45Z</time><pdop>11.0</pdop><geoidheight>53.00</geoidheight><course>32.0</course><type>1</type></trkpt>
      <trkpt lat="40.59491993" lon="-4.76669836"><ele>2909</ele><speed>11.52</speed><time>2016-07-01T14:35:46Z</time><pdop>8.0</pdop><geoidheight>53.00</geoidheight><course>77.9</course><type>1</type></trkpt>
      <trkpt lat="40.5948714" lon="-4.76633973"><ele>2917</ele><speed>12.68</speed><time>2016-07-01T14:35:48Z</time><pdop>8.0</pdop><geoidheight>53.00</geoidheight><course>100.7</course><type>1</type></trkpt>
      <trkpt lat="40.5948233" lon="-4.76613537"><ele>2921</ele><speed>14.55</speed><time>2016-07-01T14:35:49Z</time><pdop>8.0</pdop><geoidheight>53.00</geoidheight><course>106.4</course><type>1</type></trkpt>
      <trkpt lat="40.59466334" lon="-4.76587197"><ele>2925</ele><speed>13.76</speed><time>2016-07-01T14:35:51Z</time><pdop>10.0</pdop><geoidheight>53.00</geoidheight><course>123.7</course><type>1</type></trkpt>
      <trkpt lat="40.59437105" lon="-4.76591424"><ele>2930</ele><speed>11.75</speed><time>2016-07-01T14:35:53Z</time><pdop>7.0</pdop><geoidheight>53.00</geoidheight><course>174.7</course><type>1</type></trkpt>
      <trkpt lat="40.59415968" lon="-4.76598202"><ele>2935</ele><speed>10.76</speed><time>2016-07-01T14:35:55Z</time><pdop>5.0</pdop><geoidheight>53.00</geoidheight><course>195.4</course><type>1</type></trkpt>
      <trkpt lat="40.59398321" lon="-4.7660603"><ele>2940</ele><speed>10.24</speed><time>2016-07-01T14:35:57Z</time><pdop>6.0</pdop><geoidheight>53.00</geoidheight><course>210.6</course><type>1</type></trkpt>
      <trkpt lat="40.59388604" lon="-4.76622606"><ele>2944</ele><speed>8.92</speed><time>2016-07-01T14:35:59Z</time><pdop>7.0</pdop><geoidheight>53.00</geoidheight><course>228.5</course><type>1</type></trkpt>
      <trkpt lat="40.59418497" lon="-4.7662497"><ele>2953</ele><speed>6.00</speed><time>2016-07-01T14:36:04Z</time><pdop>13.0</pdop><geoidheight>53.00</geoidheight><course>5.4</course><type>1</type></trkpt>
      <trkpt lat="40.59440739" lon="-4.76613145"><ele>2961</ele><speed>8.59</speed><time>2016-07-01T14:36:06Z</time><pdop>10.0</pdop><geoidheight>53.00</geoidheight><course>22.6</course><type>1</type></trkpt>
      <trkpt lat="40.59447804" lon="-4.76578176"><ele>2978</ele><speed>12.35</speed><time>2016-07-01T14:36:08Z</time><pdop>12.0</pdop><geoidheight>53.00</geoidheight><course>54.1</course><type>1</type></trkpt>
      <trkpt lat="40.59440934" lon="-4.76543058"><ele>2990</ele><speed>12.29</speed><time>2016-07-01T14:36:10Z</time><pdop>10.0</pdop><geoidheight>53.00</geoidheight><course>93.7</course><type>1</type></trkpt>
      <trkpt lat="40.59430419" lon="-4.76509302"><ele>2997</ele><speed>14.39</speed><time>2016-07-01T14:36:12Z</time><pdop>10.0</pdop><geoidheight>53.00</geoidheight><course>112.2</course><type>1</type></trkpt>
      <trkpt lat="40.59415355" lon="-4.76480407"><ele>3004</ele><speed>14.93</speed><time>2016-07-01T14:36:14Z</time><pdop>10.0</pdop><geoidheight>53.00</geoidheight><course>130.9</course><type>1</type></trkpt>
      <trkpt lat="40.59393635" lon="-4.76454511"><ele>3007</ele><speed>16.69</speed><time>2016-07-01T14:36:16Z</time><pdop>10.0</pdop><geoidheight>53.00</geoidheight><course>142.1</course><type>1</type></trkpt>
      <trkpt lat="40.59369692" lon="-4.76454072"><ele>3010</ele><speed>14.08</speed><time>2016-07-01T14:36:18Z</time><pdop>10.0</pdop><geoidheight>53.00</geoidheight><course>169.2</course><type>1</type></trkpt>
      <trkpt lat="40.59351821" lon="-4.76465935"><ele>3014</ele><speed>11.32</speed><time>2016-07-01T14:36:20Z</time><pdop>9.0</pdop><geoidheight>53.00</geoidheight><course>194.9</course><type>1</type></trkpt>
      <trkpt lat="40.59334683" lon="-4.76471192"><ele>3020</ele><speed>10.59</speed><time>2016-07-01T14:36:22Z</time><pdop>9.0</pdop><geoidheight>53.00</geoidheight><course>198.9</course><type>1</type></trkpt>
      <trkpt lat="40.59319016" lon="-4.76481384"><ele>3025</ele><speed>9.61</speed><time>2016-07-01T14:36:24Z</time><pdop>9.0</pdop><geoidheight>53.00</geoidheight><course>208.2</course><type>1</type></trkpt>
      <trkpt lat="40.59302786" lon="-4.76500045"><ele>3034</ele><speed>7.90</speed><time>2016-07-01T14:36:27Z</time><pdop>9.0</pdop><geoidheight>53.00</geoidheight><course>224.8</course><type>1</type></trkpt>
      <trkpt lat="40.59282784" lon="-4.76514194"><ele>3041</ele><speed>9.21</speed><time>2016-07-01T14:36:30Z</time><pdop>9.0</pdop><geoidheight>53.00</geoidheight><course>204.2</course><type>1</type></trkpt>
      <trkpt lat="40.59265098" lon="-4.76521006"><ele>3045</ele><speed>10.29</speed><time>2016-07-01T14:36:32Z</time><pdop>10.0</pdop><geoidheight>53.00</geoidheight><course>197.7</course><type>1</type></trkpt>
      <trkpt lat="40.59246443" lon="-4.76528011"><ele>3049</ele><speed>10.39</speed><time>2016-07-01T14:36:34Z</time><pdop>9.0</pdop><geoidheight>53.00</geoidheight><course>199.9</course><type>1</type></trkpt>
      <trkpt lat="40.59231738" lon="-4.76536946"><ele>3054</ele><speed>8.09</speed><time>2016-07-01T14:36:36Z</time><pdop>9.0</pdop><geoidheight>53.00</geoidheight><course>207.9</course><type>1</type></trkpt>
      <trkpt lat="40.59222391" lon="-4.76557151"><ele>3065</ele><speed>4.83</speed><time>2016-07-01T14:36:41Z</time><pdop>10.0</pdop><geoidheight>53.00</geoidheight><course>283.9</course><type>1</type></trkpt>
      <trkpt lat="40.59244699" lon="-4.76556017"><ele>3075</ele><speed>4.87</speed><time>2016-07-01T14:36:45Z</time><pdop>14.0</pdop><geoidheight>53.00</geoidheight><course>359.2</course><type>1</type></trkpt>
      <trkpt lat="40.59256353" lon="-4.76526828"><ele>3080</ele><speed>9.36</speed><time>2016-07-01T14:36:47Z</time><pdop>13.0</pdop><geoidheight>53.00</geoidheight><course>49.7</course><type>1</type></trkpt>
      <trkpt lat="40.59251507" lon="-4.76492548"><ele>3087</ele><speed>10.43</speed><time>2016-07-01T14:36:49Z</time><pdop>12.0</pdop><geoidheight>53.00</geoidheight><course>89.8</course><type>1</type></trkpt>
      <trkpt lat="40.59236195" lon="-4.76460821"><ele>3095</ele><speed>13.03</speed><time>2016-07-01T14:36:51Z</time><pdop>11.0</pdop><geoidheight>53.00</geoidheight><course>120.9</course><type>1</type></trkpt>
      <trkpt lat="40.59219492" lon="-4.76434418"><ele>3100</ele><speed>12.82</speed><time>2016-07-01T14:36:53Z</time><pdop>10.0</pdop><geoidheight>53.00</geoidheight><course>131.5</course><type>1</type></trkpt>
      <trkpt lat="40.59194957" lon="-4.76426481"><ele>3104</ele><speed>11.78</speed><time>2016-07-01T14:36:55Z</time><pdop>8.0</pdop><geoidheight>53.00</geoidheight><course>158.7</course><type>1</type></trkpt>
      <trkpt lat="40.5917815" lon="-4.76424761"><ele>3107</ele><speed>9.93</speed><time>2016-07-01T14:36:57Z</time><pdop>10.0</pdop><geoidheight>53.00</geoidheight><course>173.4</course><type>1</type></trkpt>
      <trkpt lat="40.59160772" lon="-4.76435103"><ele>3112</ele><speed>9.67</speed><time>2016-07-01T14:36:59Z</time><pdop>7.0</pdop><geoidheight>53.00</geoidheight><course>195.7</course><type>1</type></trkpt>
      <trkpt lat="40.59158046" lon="-4.76458514"><ele>3126</ele><speed>6.18</speed><time>2016-07-01T14:37:02Z</time><pdop>8.0</pdop><geoidheight>53.00</geoidheight><course>246.4</course><type>1</type></trkpt>
      <trkpt lat="40.59152373" lon="-4.76483343"><ele>3134</ele><speed>6.21</speed><time>2016-07-01T14:37:05Z</time><pdop>8.0</pdop><geoidheight>53.00</geoidheight><course>251.9</course><type>1</type></trkpt>
      <trkpt lat="40.59149921" lon="-4.7650226"><ele>3144</ele><speed>5.84</speed><time>2016-07-01T14:37:08Z</time><pdop>5.0</pdop><geoidheight>53.00</geoidheight><course>255.4</course><type>1</type></trkpt>
      <trkpt lat="40.59150307" lon="-4.76514332"><ele>3156</ele><speed>5.28</speed><time>2016-07-01T14:37:10Z</time><pdop>5.0</pdop><geoidheight>53.00</geoidheight><course>277.4</course><type>1</type></trkpt>
      <trkpt lat="40.59163735" lon="-4.76517842"><ele>3165</ele><speed>6.54</speed><time>2016-07-01T14:37:13Z</time><pdop>6.0</pdop><geoidheight>53.00</geoidheight><course>7.7</course><type>1</type></trkpt>
      <trkpt lat="40.5917851" lon="-4.7650295"><ele>3171</ele><speed>10.12</speed><time>2016-07-01T14:37:15Z</time><pdop>6.0</pdop><geoidheight>53.00</geoidheight><course>40.9</course><type>1</type></trkpt>
      <trkpt lat="40.59188195" lon="-4.76476703"><ele>3178</ele><speed>13.39</speed><time>2016-07-01T14:37:17Z</time><pdop>7.0</pdop><geoidheight>53.00</geoidheight><course>59.1</course><type>1</type></trkpt>
      <trkpt lat="40.59182882" lon="-4.76460444"><ele>3181</ele><speed>12.61</speed><time>2016-07-01T14:37:18Z</time><pdop>7.0</pdop><geoidheight>53.00</geoidheight><course>80.4</course><type>1</type></trkpt>
      <trkpt lat="40.59175791" lon="-4.76445971"><ele>3183</ele><speed>12.13</speed><time>2016-07-01T14:37:19Z</time><pdop>7.0</pdop><geoidheight>53.00</geoidheight><course>99.4</course><type>1</type></trkpt>
      <trkpt lat="40.5916302" lon="-4.76433932"><ele>3188</ele><speed>13.69</speed><time>2016-07-01T14:37:20Z</time><pdop>5.0</pdop><geoidheight>53.00</geoidheight><course>128.4</course><type>1</type></trkpt>
      <trkpt lat="40.59153398" lon="-4.76424131"><ele>3192</ele><speed>13.57</speed><time>2016-07-01T14:37:21Z</time><pdop>5.0</pdop><geoidheight>53.00</geoidheight><course>142.3</course><type>1</type></trkpt>
      <trkpt lat="40.59141908" lon="-4.76417464"><ele>3195</ele><speed>13.83</speed><time>2016-07-01T14:37:22Z</time><pdop>5.0</pdop><geoidheight>53.00</geoidheight><course>154.1</course><type>1</type></trkpt>
      <trkpt lat="40.5913017" lon="-4.76410993"><ele>3196</ele><speed>13.71</speed><time>2016-07-01T14:37:23Z</time><pdop>5.0</pdop><geoidheight>53.00</geoidheight><course>157.6</course><type>1</type></trkpt>
      <trkpt lat="40.59120581" lon="-4.76413517"><ele>3204</ele><speed>12.28</speed><time>2016-07-01T14:37:24Z</time><pdop>5.0</pdop><geoidheight>53.00</geoidheight><course>177.6</course><type>1</type></trkpt>
      <trkpt lat="40.59108969" lon="-4.76413959"><ele>3205</ele><speed>12.73</speed><time>2016-07-01T14:37:25Z</time><pdop>5.0</pdop><geoidheight>53.00</geoidheight><course>182.1</course><type>1</type></trkpt>
      <trkpt lat="40.5909705" lon="-4.76414694"><ele>3209</ele><speed>12.70</speed><time>2016-07-01T14:37:26Z</time><pdop>4.0</pdop><geoidheight>53.00</geoidheight><course>186.3</course><type>1</type></trkpt>
      <trkpt lat="40.59084737" lon="-4.76416531"><ele>3211</ele><speed>12.96</speed><time>2016-07-01T14:37:27Z</time><pdop>4.0</pdop><geoidheight>53.00</geoidheight><course>188.9</course><type>1</type></trkpt>
      <trkpt lat="40.59073621" lon="-4.7641983"><ele>3214</ele><speed>12.69</speed><time>2016-07-01T14:37:28Z</time><pdop>4.0</pdop><geoidheight>53.00</geoidheight><course>192.2</course><type>1</type></trkpt>
      <trkpt lat="40.59065" lon="-4.76424322"><ele>3216</ele><speed>11.50</speed><time>2016-07-01T14:37:29Z</time><pdop>4.0</pdop><geoidheight>53.00</geoidheight><course>199.2</course><type>1</type></trkpt>
      <trkpt lat="40.59057867" lon="-4.76431827"><ele>3218</ele><speed>10.53</speed><time>2016-07-01T14:37:30Z</time><pdop>4.0</pdop><geoidheight>53.00</geoidheight><course>212.3</course><type>1</type></trkpt>
      <trkpt lat="40.59050827" lon="-4.76444688"><ele>3226</ele><speed>7.68</speed><time>2016-07-01T14:37:32Z</time><pdop>4.0</pdop><geoidheight>53.00</geoidheight><course>229.3</course><type>1</type></trkpt>
      <trkpt lat="40.59042496" lon="-4.76460562"><ele>3233</ele><speed>8.57</speed><time>2016-07-01T14:37:34Z</time><pdop>3.0</pdop><geoidheight>53.00</geoidheight><course>234.9</course><type>1</type></trkpt>
      <trkpt lat="40.59038057" lon="-4.7646908"><ele>3235</ele><speed>9.14</speed><time>2016-07-01T14:37:35Z</time><pdop>3.0</pdop><geoidheight>53.00</geoidheight><course>235.8</course><type>1</type></trkpt>
      <trkpt lat="40.59033287" lon="-4.76477633"><ele>3237</ele><speed>9.09</speed><time>2016-07-01T14:37:36Z</time><pdop>4.0</pdop><geoidheight>53.00</geoidheight><course>237.0</course><type>1</type></trkpt>
      <trkpt lat="40.59029111" lon="-4.76493366"><ele>3243</ele><speed>7.53</speed><time>2016-07-01T14:37:38Z</time><pdop>6.0</pdop><geoidheight>53.00</geoidheight><course>250.6</course><type>1</type></trkpt>
      <trkpt lat="40.59032126" lon="-4.76512744"><ele>3252</ele><speed>6.19</speed><time>2016-07-01T14:37:41Z</time><pdop>5.0</pdop><geoidheight>53.00</geoidheight><course>277.8</course><type>1</type></trkpt>
      <trkpt lat="40.59030817" lon="-4.76531464"><ele>3257</ele><speed>8.27</speed><time>2016-07-01T14:37:43Z</time><pdop>4.0</pdop><geoidheight>53.00</geoidheight><course>261.8</course><type>1</type></trkpt>
      <trkpt lat="40.59029171" lon="-4.76541623"><ele>3260</ele><speed>8.15</speed><time>2016-07-01T14:37:44Z</time><pdop>4.0</pdop><geoidheight>53.00</geoidheight><course>263.8</course><type>1</type></trkpt>
      <trkpt lat="40.59028276" lon="-4.7655289"><ele>3263</ele><speed>8.53</speed><time>2016-07-01T14:37:45Z</time><pdop>4.0</pdop><geoidheight>53.00</geoidheight><course>265.9</course><type>1</type></trkpt>
      <trkpt lat="40.590269" lon="-4.76572538"><ele>3271</ele><speed>8.02</speed><time>2016-07-01T14:37:47Z</time><pdop>4.0</pdop><geoidheight>53.00</geoidheight><course>267.8</course><type>1</type></trkpt>
      <trkpt lat="40.59026392" lon="-4.76583201"><ele>3273</ele><speed>8.44</speed><time>2016-07-01T14:37:48Z</time><pdop>4.0</pdop><geoidheight>53.00</geoidheight><course>267.0</course><type>1</type></trkpt>
      <trkpt lat="40.59025024" lon="-4.76594447"><ele>3276</ele><speed>9.14</speed><time>2016-07-01T14:37:49Z</time><pdop>4.0</pdop><geoidheight>53.00</geoidheight><course>267.9</course><type>1</type></trkpt>
      <trkpt lat="40.59025328" lon="-4.76606153"><ele>3277</ele><speed>9.78</speed><time>2016-07-01T14:37:50Z</time><pdop>4.0</pdop><geoidheight>53.00</geoidheight><course>270.4</course><type>1</type></trkpt>
      <trkpt lat="40.59025468" lon="-4.76617613"><ele>3278</ele><speed>9.84</speed><time>2016-07-01T14:37:51Z</time><pdop>3.0</pdop><geoidheight>53.00</geoidheight><course>271.5</course><type>1</type></trkpt>
      <trkpt lat="40.59024358" lon="-4.76629797"><ele>3281</ele><speed>9.50</speed><time>2016-07-01T14:37:52Z</time><pdop>3.0</pdop><geoidheight>53.00</geoidheight><course>270.8</course><type>1</type></trkpt>
      <trkpt lat="40.59023657" lon="-4.76640844"><ele>3284</ele><speed>9.13</speed><time>2016-07-01T14:37:53Z</time><pdop>3.0</pdop><geoidheight>53.00</geoidheight><course>269.9</course><type>1</type></trkpt>
      <trkpt lat="40.59023046" lon="-4.76651583"><ele>3286</ele><speed>8.90</speed><time>2016-07-01T14:37:54Z</time><pdop>3.0</pdop><geoidheight>53.00</geoidheight><course>270.1</course><type>1</type></trkpt>
      <trkpt lat="40.59023145" lon="-4.7666252"><ele>3289</ele><speed>8.97</speed><time>2016-07-01T14:37:55Z</time><pdop>3.0</pdop><geoidheight>53.00</geoidheight><course>271.1</course><type>1</type></trkpt>
      <trkpt lat="40.590236" lon="-4.76673575"><ele>3290</ele><speed>9.43</speed><time>2016-07-01T14:37:56Z</time><pdop>3.0</pdop><geoidheight>53.00</geoidheight><course>271.8</course><type>1</type></trkpt>
      <trkpt lat="40.59023501" lon="-4.76686202"><ele>3292</ele><speed>10.26</speed><time>2016-07-01T14:37:57Z</time><pdop>3.0</pdop><geoidheight>53.00</geoidheight><course>271.0</course><type>1</type></trkpt>
      <trkpt lat="40.59023924" lon="-4.76699259"><ele>3295</ele><speed>10.75</speed><time>2016-07-01T14:37:58Z</time><pdop>3.0</pdop><geoidheight>53.00</geoidheight><course>269.7</course><type>1</type></trkpt>
      <trkpt lat="40.59024516" lon="-4.76711559"><ele>3296</ele><speed>10.65</speed><time>2016-07-01T14:37:59Z</time><pdop>3.0</pdop><geoidheight>53.00</geoidheight><course>269.8</course><type>1</type></trkpt>
      <trkpt lat="40.59023811" lon="-4.76724277"><ele>3298</ele><speed>10.75</speed><time>2016-07-01T14:38:00Z</time><pdop>3.0</pdop><geoidheight>53.00</geoidheight><course>267.2</course><type>1</type></trkpt>
      <trkpt lat="40.59023153" lon="-4.76736535"><ele>3301</ele><speed>10.76</speed><time>2016-07-01T14:38:01Z</time><pdop>3.0</pdop><geoidheight>53.00</geoidheight><course>265.2</course><type>1</type></trkpt>
      <trkpt lat="40.59022035" lon="-4.76749195"><ele>3305</ele><speed>10.59</speed><time>2016-07-01T14:38:02Z</time><pdop>3.0</pdop><geoidheight>53.00</geoidheight><course>264.6</course><type>1</type></trkpt>
      <trkpt lat="40.59022581" lon="-4.76759458"><ele>3308</ele><speed>9.68</speed><time>2016-07-01T14:38:03Z</time><pdop>3.0</pdop><geoidheight>53.00</geoidheight><course>268.6</course><type>1</type></trkpt>
      <trkpt lat="40.59023889" lon="-4.76770087"><ele>3310</ele><speed>9.24</speed><time>2016-07-01T14:38:04Z</time><pdop>3.0</pdop><geoidheight>53.00</geoidheight><course>274.7</course><type>1</type></trkpt>
      <trkpt lat="40.59025213" lon="-4.76781163"><ele>3312</ele><speed>9.45</speed><time>2016-07-01T14:38:05Z</time><pdop>4.0</pdop><geoidheight>53.00</geoidheight><course>279.3</course><type>1</type></trkpt>
      <trkpt lat="40.59025426" lon="-4.76794502"><ele>3315</ele><speed>10.44</speed><time>2016-07-01T14:38:06Z</time><pdop>3.0</pdop><geoidheight>53.00</geoidheight><course>277.6</course><type>1</type></trkpt>
      <trkpt lat="40.59025933" lon="-4.7680651"><ele>3317</ele><speed>10.15</speed><time>2016-07-01T14:38:07Z</time><pdop>3.0</pdop><geoidheight>53.00</geoidheight><course>276.7</course><type>1</type></trkpt>
      <trkpt lat="40.5902624" lon="-4.76819013"><ele>3320</ele><speed>10.22</speed><time>2016-07-01T14:38:08Z</time><pdop>3.0</pdop><geoidheight>53.00</geoidheight><course>276.6</course><type>1</type></trkpt>
      <trkpt lat="40.59027345" lon="-4.76831455"><ele>3322</ele><speed>10.08</speed><time>2016-07-01T14:38:09Z</time><pdop>3.0</pdop><geoidheight>53.00</geoidheight><course>278.6</course><type>1</type></trkpt>
      <trkpt lat="40.59029839" lon="-4.76842576"><ele>3323</ele><speed>9.97</speed><time>2016-07-01T14:38:10Z</time><pdop>3.0</pdop><geoidheight>53.00</geoidheight><course>283.2</course><type>1</type></trkpt>
      <trkpt lat="40.59030864" lon="-4.76853628"><ele>3326</ele><speed>9.57</speed><time>2016-07-01T14:38:11Z</time><pdop>3.0</pdop><geoidheight>53.00</geoidheight><course>286.7</course><type>1</type></trkpt>
      <trkpt lat="40.59032679" lon="-4.76864983"><ele>3328</ele><speed>9.62</speed><time>2016-07-01T14:38:12Z</time><pdop>4.0</pdop><geoidheight>53.00</geoidheight><course>286.4</course><type>1</type></trkpt>
      <trkpt lat="40.59035506" lon="-4.76876843"><ele>3331</ele><speed>9.70</speed><time>2016-07-01T14:38:13Z</time><pdop>4.0</pdop><geoidheight>53.00</geoidheight><course>290.1</course><type>1</type></trkpt>
      <trkpt lat="40.59038022" lon="-4.76887485"><ele>3333</ele><speed>9.32</speed><time>2016-07-01T14:38:14Z</time><pdop>4.0</pdop><geoidheight>53.00</geoidheight><course>293.2</course><type>1</type></trkpt>
      <trkpt lat="40.59042202" lon="-4.76897182"><ele>3335</ele><speed>9.25</speed><time>2016-07-01T14:38:15Z</time><pdop>5.0</pdop><geoidheight>53.00</geoidheight><course>296.7</course><type>1</type></trkpt>
      <trkpt lat="40.59045597" lon="-4.76909021"><ele>3337</ele><speed>9.51</speed><time>2016-07-01T14:38:16Z</time><pdop>5.0</pdop><geoidheight>53.00</geoidheight><course>296.5</course><type>1</type></trkpt>
      <trkpt lat="40.59055222" lon="-4.7692772"><ele>3340</ele><speed>9.12</speed><time>2016-07-01T14:38:18Z</time><pdop>6.0</pdop><geoidheight>53.00</geoidheight><course>302.1</course><type>1</type></trkpt>
      <trkpt lat="40.59060896" lon="-4.76948093"><ele>3342</ele><speed>9.60</speed><time>2016-07-01T14:38:20Z</time><pdop>7.0</pdop><geoidheight>53.00</geoidheight><course>296.5</course><type>1</type></trkpt>
      <trkpt lat="40.59066402" lon="-4.76973223"><ele>3346</ele><speed>10.61</speed><time>2016-07-01T14:38:22Z</time><pdop>10.0</pdop><geoidheight>53.00</geoidheight><course>295.3</course><type>1</type></trkpt>
      <trkpt lat="40.59079068" lon="-4.76991279"><ele>3351</ele><speed>10.28</speed><time>2016-07-01T14:38:24Z</time><pdop>10.0</pdop><geoidheight>53.00</geoidheight><course>313.2</course><type>1</type></trkpt>
      <trkpt lat="40.59090227" lon="-4.77013202"><ele>3351</ele><speed>11.13</speed><time>2016-07-01T14:38:26Z</time><pdop>10.0</pdop><geoidheight>53.00</geoidheight><course>304.5</course><type>1</type></trkpt>
      <trkpt lat="40.59100129" lon="-4.77038307"><ele>3352</ele><speed>11.63</speed><time>2016-07-01T14:38:28Z</time><pdop>9.0</pdop><geoidheight>53.00</geoidheight><course>293.6</course><type>1</type></trkpt>
      <trkpt lat="40.59107824" lon="-4.77064518"><ele>3349</ele><speed>12.26</speed><time>2016-07-01T14:38:30Z</time><pdop>9.0</pdop><geoidheight>53.00</geoidheight><course>289.6</course><type>1</type></trkpt>
      <trkpt lat="40.59113881" lon="-4.77091506"><ele>3351</ele><speed>11.71</speed><time>2016-07-01T14:38:32Z</time><pdop>9.0</pdop><geoidheight>53.00</geoidheight><course>296.1</course><type>1</type></trkpt>
      <trkpt lat="40.59119073" lon="-4.77114591"><ele>3352</ele><speed>10.21</speed><time>2016-07-01T14:38:34Z</time><pdop>9.0</pdop><geoidheight>53.00</geoidheight><course>290.2</course><type>1</type></trkpt>
      <trkpt lat="40.59121135" lon="-4.77140555"><ele>3349</ele><speed>11.65</speed><time>2016-07-01T14:38:36Z</time><pdop>9.0</pdop><geoidheight>53.00</geoidheight><course>272.0</course><type>1</type></trkpt>
      <trkpt lat="40.59118881" lon="-4.77173515"><ele>3345</ele><speed>14.28</speed><time>2016-07-01T14:38:38Z</time><pdop>9.0</pdop><geoidheight>53.00</geoidheight><course>265.8</course><type>1</type></trkpt>
      <trkpt lat="40.59119349" lon="-4.7720481"><ele>3346</ele><speed>12.87</speed><time>2016-07-01T14:38:40Z</time><pdop>9.0</pdop><geoidheight>53.00</geoidheight><course>270.9</course><type>1</type></trkpt>
      <trkpt lat="40.59119252" lon="-4.77232309"><ele>3345</ele><speed>11.68</speed><time>2016-07-01T14:38:42Z</time><pdop>9.0</pdop><geoidheight>53.00</geoidheight><course>269.5</course><type>1</type></trkpt>
      <trkpt lat="40.59121009" lon="-4.77262326"><ele>3342</ele><speed>13.15</speed><time>2016-07-01T14:38:44Z</time><pdop>9.0</pdop><geoidheight>53.00</geoidheight><course>274.7</course><type>1</type></trkpt>
      <trkpt lat="40.5912446" lon="-4.772946"><ele>3341</ele><speed>14.03</speed><time>2016-07-01T14:38:46Z</time><pdop>9.0</pdop><geoidheight>53.00</geoidheight><course>278.4</course><type>1</type></trkpt>
      <trkpt lat="40.59128122" lon="-4.77324003"><ele>3343</ele><speed>12.21</speed><time>2016-07-01T14:38:48Z</time><pdop>9.0</pdop><geoidheight>53.00</geoidheight><course>280.3</course><type>1</type></trkpt>
      <trkpt lat="40.5912992" lon="-4.77350105"><ele>3341</ele><speed>10.98</speed><time>2016-07-01T14:38:50Z</time><pdop>9.0</pdop><geoidheight>53.00</geoidheight><course>275.7</course><type>1</type></trkpt>
      <trkpt lat="40.59130109" lon="-4.77378204"><ele>3340</ele><speed>12.34</speed><time>2016-07-01T14:38:52Z</time><pdop>9.0</pdop><geoidheight>53.00</geoidheight><course>267.7</course><type>1</type></trkpt>
      <trkpt lat="40.59125868" lon="-4.77409037"><ele>3338</ele><speed>13.02</speed><time>2016-07-01T14:38:54Z</time><pdop>10.0</pdop><geoidheight>53.00</geoidheight><course>261.1</course><type>1</type></trkpt>
      <trkpt lat="40.59118173" lon="-4.77440213"><ele>3339</ele><speed>13.34</speed><time>2016-07-01T14:38:56Z</time><pdop>10.0</pdop><geoidheight>53.00</geoidheight><course>254.5</course><type>1</type></trkpt>
      <trkpt lat="40.59111367" lon="-4.77473823"><ele>3340</ele><speed>13.61</speed><time>2016-07-01T14:38:58Z</time><pdop>11.0</pdop><geoidheight>53.00</geoidheight><course>252.3</course><type>1</type></trkpt>
      <trkpt lat="40.5909754" lon="-4.77505241"><ele>3338</ele><speed>14.38</speed><time>2016-07-01T14:39:00Z</time><pdop>11.0</pdop><geoidheight>53.00</geoidheight><course>246.5</course><type>1</type></trkpt>
      <trkpt lat="40.59082646" lon="-4.7753517"><ele>3336</ele><speed>14.53</speed><time>2016-07-01T14:39:02Z</time><pdop>10.0</pdop><geoidheight>53.00</geoidheight><course>236.8</course><type>1</type></trkpt>
      <trkpt lat="40.5906512" lon="-4.77560544"><ele>3332</ele><speed>14.33</speed><time>2016-07-01T14:39:04Z</time><pdop>10.0</pdop><geoidheight>53.00</geoidheight><course>229.8</course><type>1</type></trkpt>
      <trkpt lat="40.59047583" lon="-4.77584902"><ele>3327</ele><speed>14.57</speed><time>2016-07-01T14:39:06Z</time><pdop>9.0</pdop><geoidheight>53.00</geoidheight><course>229.4</course><type>1</type></trkpt>
      <trkpt lat="40.59029068" lon="-4.77614422"><ele>3323</ele><speed>15.68</speed><time>2016-07-01T14:39:08Z</time><pdop>9.0</pdop><geoidheight>53.00</geoidheight><course>228.0</course><type>1</type></trkpt>
      <trkpt lat="40.59011672" lon="-4.77641809"><ele>3319</ele><speed>15.61</speed><time>2016-07-01T14:39:10Z</time><pdop>9.0</pdop><geoidheight>53.00</geoidheight><course>229.9</course><type>1</type></trkpt>
      <trkpt lat="40.58994193" lon="-4.7766975"><ele>3316</ele><speed>15.49</speed><time>2016-07-01T14:39:12Z</time><pdop>9.0</pdop><geoidheight>53.00</geoidheight><course>229.7</course><type>1</type></trkpt>
      <trkpt lat="40.58977203" lon="-4.7769802"><ele>3314</ele><speed>15.14</speed><time>2016-07-01T14:39:14Z</time><pdop>9.0</pdop><geoidheight>53.00</geoidheight><course>230.9</course><type>1</type></trkpt>
      <trkpt lat="40.58961141" lon="-4.77727716"><ele>3311</ele><speed>15.53</speed><time>2016-07-01T14:39:16Z</time><pdop>9.0</pdop><geoidheight>53.00</geoidheight><course>231.2</course><type>1</type></trkpt>
      <trkpt lat="40.58943474" lon="-4.7775653"><ele>3307</ele><speed>15.54</speed><time>2016-07-01T14:39:18Z</time><pdop>10.0</pdop><geoidheight>53.00</geoidheight><course>230.1</course><type>1</type></trkpt>
      <trkpt lat="40.5892723" lon="-4.77784232"><ele>3306</ele><speed>15.28</speed><time>2016-07-01T14:39:20Z</time><pdop>9.0</pdop><geoidheight>53.00</geoidheight><course>231.7</course><type>1</type></trkpt>
      <trkpt lat="40.5891208" lon="-4.77811743"><ele>3302</ele><speed>14.78</speed><time>2016-07-01T14:39:22Z</time><pdop>9.0</pdop><geoidheight>53.00</geoidheight><course>232.0</course><type>1</type></trkpt>
      <trkpt lat="40.58897277" lon="-4.77838344"><ele>3299</ele><speed>14.05</speed><time>2016-07-01T14:39:24Z</time><pdop>9.0</pdop><geoidheight>53.00</geoidheight><course>232.2</course><type>1</type></trkpt>
      <trkpt lat="40.58883491" lon="-4.77864396"><ele>3298</ele><speed>13.05</speed><time>2016-07-01T14:39:26Z</time><pdop>10.0</pdop><geoidheight>53.00</geoidheight><course>234.7</course><type>1</type></trkpt>
      <trkpt lat="40.58870802" lon="-4.77890919"><ele>3297</ele><speed>12.82</speed><time>2016-07-01T14:39:28Z</time><pdop>9.0</pdop><geoidheight>53.00</geoidheight><course>236.3</course><type>1</type></trkpt>
      <trkpt lat="40.58859659" lon="-4.77913251"><ele>3296</ele><speed>11.14</speed><time>2016-07-01T14:39:30Z</time><pdop>9.0</pdop><geoidheight>53.00</geoidheight><course>232.3</course><type>1</type></trkpt>
      <trkpt lat="40.588467" lon="-4.77931553"><ele>3295</ele><speed>10.78</speed><time>2016-07-01T14:39:32Z</time><pdop>9.0</pdop><geoidheight>53.00</geoidheight><course>227.3</course><type>1</type></trkpt>
      <trkpt lat="40.58833169" lon="-4.77950957"><ele>3292</ele><speed>11.51</speed><time>2016-07-01T14:39:34Z</time><pdop>9.0</pdop><geoidheight>53.00</geoidheight><course>227.1</course><type>1</type></trkpt>
      <trkpt lat="40.58818145" lon="-4.77971418"><ele>3290</ele><speed>13.48</speed><time>2016-07-01T14:39:36Z</time><pdop>9.0</pdop><geoidheight>53.00</geoidheight><course>230.5</course><type>1</type></trkpt>
      <trkpt lat="40.58802744" lon="-4.77993513"><ele>3288</ele><speed>12.89</speed><time>2016-07-01T14:39:38Z</time><pdop>9.0</pdop><geoidheight>53.00</geoidheight><course>227.7</course><type>1</type></trkpt>
      <trkpt lat="40.58787778" lon="-4.78013458"><ele>3288</ele><speed>10.93</speed><time>2016-07-01T14:39:40Z</time><pdop>9.0</pdop><geoidheight>53.00</geoidheight><course>225.7</course><type>1</type></trkpt>
      <trkpt lat="40.58778042" lon="-4.78031668"><ele>3285</ele><speed>9.36</speed><time>2016-07-01T14:39:42Z</time><pdop>9.0</pdop><geoidheight>53.00</geoidheight><course>236.1</course><type>1</type></trkpt>
      <trkpt lat="40.58768364" lon="-4.78051808"><ele>3283</ele><speed>9.63</speed><time>2016-07-01T14:39:44Z</time><pdop>9.0</pdop><geoidheight>53.00</geoidheight><course>240.7</course><type>1</type></trkpt>
      <trkpt lat="40.58757122" lon="-4.78081695"><ele>3282</ele><speed>9.92</speed><time>2016-07-01T14:39:47Z</time><pdop>10.0</pdop><geoidheight>53.00</geoidheight><course>246.2</course><type>1</type></trkpt>
      <trkpt lat="40.58753578" lon="-4.78105026"><ele>3280</ele><speed>9.93</speed><time>2016-07-01T14:39:49Z</time><pdop>10.0</pdop><geoidheight>53.00</geoidheight><course>251.7</course><type>1</type></trkpt>
      <trkpt lat="40.58746341" lon="-4.78134631"><ele>3279</ele><speed>11.86</speed><time>2016-07-01T14:39:51Z</time><pdop>9.0</pdop><geoidheight>53.00</geoidheight><course>250.6</course><type>1</type></trkpt>
      <trkpt lat="40.58739997" lon="-4.78159612"><ele>3277</ele><speed>11.03</speed><time>2016-07-01T14:39:53Z</time><pdop>9.0</pdop><geoidheight>53.00</geoidheight><course>254.2</course><type>1</type></trkpt>
      <trkpt lat="40.58735868" lon="-4.78181986"><ele>3278</ele><speed>9.72</speed><time>2016-07-01T14:39:55Z</time><pdop>9.0</pdop><geoidheight>53.00</geoidheight><course>254.9</course><type>1</type></trkpt>
      <trkpt lat="40.58730608" lon="-4.78203877"><ele>3278</ele><speed>9.19</speed><time>2016-07-01T14:39:57Z</time><pdop>9.0</pdop><geoidheight>53.00</geoidheight><course>251.9</course><type>1</type></trkpt>
      <trkpt lat="40.58724876" lon="-4.78225804"><ele>3280</ele><speed>9.71</speed><time>2016-07-01T14:39:59Z</time><pdop>9.0</pdop><geoidheight>53.00</geoidheight><course>249.1</course><type>1</type></trkpt>
      <trkpt lat="40.58715417" lon="-4.78246947"><ele>3279</ele><speed>10.06</speed><time>2016-07-01T14:40:01Z</time><pdop>10.0</pdop><geoidheight>53.00</geoidheight><course>242.4</course><type>1</type></trkpt>
      <trkpt lat="40.58713039" lon="-4.78271115"><ele>3280</ele><speed>10.03</speed><time>2016-07-01T14:40:03Z</time><pdop>10.0</pdop><geoidheight>53.00</geoidheight><course>253.4</course><type>1</type></trkpt>
      <trkpt lat="40.58701878" lon="-4.78299171"><ele>3282</ele><speed>9.34</speed><time>2016-07-01T14:40:06Z</time><pdop>10.0</pdop><geoidheight>53.00</geoidheight><course>245.8</course><type>1</type></trkpt>
      <trkpt lat="40.58700399" lon="-4.78325032"><ele>3283</ele><speed>9.99</speed><time>2016-07-01T14:40:08Z</time><pdop>10.0</pdop><geoidheight>53.00</geoidheight><course>255.9</course><type>1</type></trkpt>
      <trkpt lat="40.58689241" lon="-4.78350132"><ele>3284</ele><speed>8.61</speed><time>2016-07-01T14:40:11Z</time><pdop>11.0</pdop><geoidheight>53.00</geoidheight><course>247.8</course><type>1</type></trkpt>
      <trkpt lat="40.58677781" lon="-4.78369897"><ele>3284</ele><speed>9.15</speed><time>2016-07-01T14:40:13Z</time><pdop>10.0</pdop><geoidheight>53.00</geoidheight><course>240.4</course><type>1</type></trkpt>
      <trkpt lat="40.5866612" lon="-4.78396994"><ele>3287</ele><speed>9.08</speed><time>2016-07-01T14:40:16Z</time><pdop>11.0</pdop><geoidheight>53.00</geoidheight><course>240.6</course><type>1</type></trkpt>
      <trkpt lat="40.58651155" lon="-4.78418477"><ele>3289</ele><speed>8.64</speed><time>2016-07-01T14:40:19Z</time><pdop>12.0</pdop><geoidheight>53.00</geoidheight><course>232.7</course><type>1</type></trkpt>
      <trkpt lat="40.58640689" lon="-4.78451828"><ele>3289</ele><speed>10.45</speed><time>2016-07-01T14:40:22Z</time><pdop>10.0</pdop><geoidheight>53.00</geoidheight><course>237.5</course><type>1</type></trkpt>
      <trkpt lat="40.58628971" lon="-4.78473343"><ele>3291</ele><speed>11.38</speed><time>2016-07-01T14:40:24Z</time><pdop>9.0</pdop><geoidheight>53.00</geoidheight><course>237.9</course><type>1</type></trkpt>
      <trkpt lat="40.58619148" lon="-4.78494353"><ele>3292</ele><speed>10.20</speed><time>2016-07-01T14:40:26Z</time><pdop>9.0</pdop><geoidheight>53.00</geoidheight><course>238.9</course><type>1</type></trkpt>
      <trkpt lat="40.58607564" lon="-4.78513092"><ele>3293</ele><speed>9.66</speed><time>2016-07-01T14:40:28Z</time><pdop>10.0</pdop><geoidheight>53.00</geoidheight><course>234.3</course><type>1</type></trkpt>
      <trkpt lat="40.58596828" lon="-4.78532414"><ele>3291</ele><speed>10.35</speed><time>2016-07-01T14:40:30Z</time><pdop>10.0</pdop><geoidheight>53.00</geoidheight><course>233.0</course><type>1</type></trkpt>
      <trkpt lat="40.58587159" lon="-4.78553533"><ele>3295</ele><speed>9.79</speed><time>2016-07-01T14:40:32Z</time><pdop>9.0</pdop><geoidheight>53.00</geoidheight><course>234.8</course><type>1</type></trkpt>
      <trkpt lat="40.58578084" lon="-4.78573408"><ele>3294</ele><speed>9.66</speed><time>2016-07-01T14:40:34Z</time><pdop>9.0</pdop><geoidheight>53.00</geoidheight><course>236.4</course><type>1</type></trkpt>
      <trkpt lat="40.58567102" lon="-4.78593153"><ele>3291</ele><speed>10.07</speed><time>2016-07-01T14:40:36Z</time><pdop>9.0</pdop><geoidheight>53.00</geoidheight><course>235.4</course><type>1</type></trkpt>
      <trkpt lat="40.58559991" lon="-4.78619207"><ele>3291</ele><speed>10.93</speed><time>2016-07-01T14:40:38Z</time><pdop>10.0</pdop><geoidheight>53.00</geoidheight><course>245.3</course><type>1</type></trkpt>
      <trkpt lat="40.58553282" lon="-4.78642799"><ele>3293</ele><speed>11.44</speed><time>2016-07-01T14:40:40Z</time><pdop>10.0</pdop><geoidheight>53.00</geoidheight><course>247.6</course><type>1</type></trkpt>
      <trkpt lat="40.58544147" lon="-4.78667869"><ele>3291</ele><speed>12.04</speed><time>2016-07-01T14:40:42Z</time><pdop>10.0</pdop><geoidheight>53.00</geoidheight><course>249.3</course><type>1</type></trkpt>
      <trkpt lat="40.58534104" lon="-4.78695068"><ele>3292</ele><speed>11.83</speed><time>2016-07-01T14:40:44Z</time><pdop>10.0</pdop><geoidheight>53.00</geoidheight><course>249.4</course><type>1</type></trkpt>
      <trkpt lat="40.58524464" lon="-4.7871718"><ele>3293</ele><speed>10.91</speed><time>2016-07-01T14:40:46Z</time><pdop>10.0</pdop><geoidheight>53.00</geoidheight><course>245.7</course><type>1</type></trkpt>
      <trkpt lat="40.58521046" lon="-4.78740791"><ele>3293</ele><speed>10.37</speed><time>2016-07-01T14:40:48Z</time><pdop>10.0</pdop><geoidheight>53.00</geoidheight><course>251.4</course><type>1</type></trkpt>
      <trkpt lat="40.58508038" lon="-4.78759441"><ele>3292</ele><speed>10.69</speed><time>2016-07-01T14:40:50Z</time><pdop>11.0</pdop><geoidheight>53.00</geoidheight><course>239.7</course><type>1</type></trkpt>
      <trkpt lat="40.58499222" lon="-4.78785972"><ele>3292</ele><speed>12.16</speed><time>2016-07-01T14:40:52Z</time><pdop>10.0</pdop><geoidheight>53.00</geoidheight><course>240.7</course><type>1</type></trkpt>
      <trkpt lat="40.58490358" lon="-4.78812244"><ele>3292</ele><speed>13.18</speed><time>2016-07-01T14:40:54Z</time><pdop>10.0</pdop><geoidheight>53.00</geoidheight><course>244.1</course><type>1</type></trkpt>
      <trkpt lat="40.58483164" lon="-4.78840637"><ele>3293</ele><speed>12.83</speed><time>2016-07-01T14:40:56Z</time><pdop>9.0</pdop><geoidheight>53.00</geoidheight><course>246.5</course><type>1</type></trkpt>
      <trkpt lat="40.5847346" lon="-4.78867087"><ele>3292</ele><speed>12.44</speed><time>2016-07-01T14:40:58Z</time><pdop>9.0</pdop><geoidheight>53.00</geoidheight><course>244.2</course><type>1</type></trkpt>
      <trkpt lat="40.58463149" lon="-4.78894559"><ele>3291</ele><speed>12.50</speed><time>2016-07-01T14:41:00Z</time><pdop>9.0</pdop><geoidheight>53.00</geoidheight><course>247.5</course><type>1</type></trkpt>
      <trkpt lat="40.58455709" lon="-4.78922257"><ele>3291</ele><speed>12.01</speed><time>2016-07-01T14:41:02Z</time><pdop>9.0</pdop><geoidheight>53.00</geoidheight><course>250.6</course><type>1</type></trkpt>
      <trkpt lat="40.58445849" lon="-4.78950754"><ele>3288</ele><speed>13.22</speed><time>2016-07-01T14:41:04Z</time><pdop>9.0</pdop><geoidheight>53.00</geoidheight><course>247.2</course><type>1</type></trkpt>
      <trkpt lat="40.58437924" lon="-4.78980803"><ele>3285</ele><speed>13.53</speed><time>2016-07-01T14:41:06Z</time><pdop>9.0</pdop><geoidheight>53.00</geoidheight><course>248.8</course><type>1</type></trkpt>
      <trkpt lat="40.58427718" lon="-4.79006556"><ele>3284</ele><speed>11.90</speed><time>2016-07-01T14:41:08Z</time><pdop>9.0</pdop><geoidheight>53.00</geoidheight><course>245.1</course><type>1</type></trkpt>
      <trkpt lat="40.58421962" lon="-4.79034677"><ele>3283</ele><speed>11.89</speed><time>2016-07-01T14:41:10Z</time><pdop>9.0</pdop><geoidheight>53.00</geoidheight><course>248.3</course><type>1</type></trkpt>
      <trkpt lat="40.58410633" lon="-4.79059284"><ele>3279</ele><speed>12.37</speed><time>2016-07-01T14:41:12Z</time><pdop>9.0</pdop><geoidheight>53.00</geoidheight><course>237.0</course><type>1</type></trkpt>
      <trkpt lat="40.58393662" lon="-4.79086688"><ele>3277</ele><speed>14.76</speed><time>2016-07-01T14:41:14Z</time><pdop>10.0</pdop><geoidheight>53.00</geoidheight><course>232.0</course><type>1</type></trkpt>
      <trkpt lat="40.58384648" lon="-4.79119941"><ele>3270</ele><speed>14.99</speed><time>2016-07-01T14:41:16Z</time><pdop>10.0</pdop><geoidheight>53.00</geoidheight><course>244.5</course><type>1</type></trkpt>
      <trkpt lat="40.58377707" lon="-4.79149111"><ele>3263</ele><speed>13.39</speed><time>2016-07-01T14:41:18Z</time><pdop>9.0</pdop><geoidheight>53.00</geoidheight><course>241.7</course><type>1</type></trkpt>
      <trkpt lat="40.58367442" lon="-4.79178536"><ele>3258</ele><speed>13.49</speed><time>2016-07-01T14:41:20Z</time><pdop>9.0</pdop><geoidheight>53.00</geoidheight><course>241.9</course><type>1</type></trkpt>
      <trkpt lat="40.58353568" lon="-4.79209627"><ele>3254</ele><speed>15.75</speed><time>2016-07-01T14:41:22Z</time><pdop>9.0</pdop><geoidheight>53.00</geoidheight><course>240.8</course><type>1</type></trkpt>
      <trkpt lat="40.58342704" lon="-4.79245617"><ele>3249</ele><speed>15.89</speed><time>2016-07-01T14:41:24Z</time><pdop>9.0</pdop><geoidheight>53.00</geoidheight><course>247.2</course><type>1</type></trkpt>
      <trkpt lat="40.5833269" lon="-4.79274858"><ele>3247</ele><speed>12.77</speed><time>2016-07-01T14:41:26Z</time><pdop>9.0</pdop><geoidheight>53.00</geoidheight><course>244.9</course><type>1</type></trkpt>
      <trkpt lat="40.58324068" lon="-4.79299154"><ele>3246</ele><speed>11.42</speed><time>2016-07-01T14:41:28Z</time><pdop>9.0</pdop><geoidheight>53.00</geoidheight><course>248.2</course><type>1</type></trkpt>
      <trkpt lat="40.58314321" lon="-4.79327872"><ele>3240</ele><speed>13.55</speed><time>2016-07-01T14:41:30Z</time><pdop>9.0</pdop><geoidheight>53.00</geoidheight><course>240.6</course><type>1</type></trkpt>
      <trkpt lat="40.5829947" lon="-4.79358101"><ele>3233</ele><speed>14.58</speed><time>2016-07-01T14:41:32Z</time><pdop>9.0</pdop><geoidheight>53.00</geoidheight><course>235.6</course><type>1</type></trkpt>
      <trkpt lat="40.58287136" lon="-4.79386905"><ele>3230</ele><speed>13.17</speed><time>2016-07-01T14:41:34Z</time><pdop>9.0</pdop><geoidheight>53.00</geoidheight><course>239.3</course><type>1</type></trkpt>
      <trkpt lat="40.5827571" lon="-4.79415273"><ele>3226</ele><speed>13.89</speed><time>2016-07-01T14:41:36Z</time><pdop>9.0</pdop><geoidheight>53.00</geoidheight><course>240.4</course><type>1</type></trkpt>
      <trkpt lat="40.58264996" lon="-4.79442179"><ele>3224</ele><speed>13.61</speed><time>2016-07-01T14:41:38Z</time><pdop>9.0</pdop><geoidheight>53.00</geoidheight><course>242.7</course><type>1</type></trkpt>
      <trkpt lat="40.58253081" lon="-4.79468177"><ele>3221</ele><speed>12.94</speed><time>2016-07-01T14:41:40Z</time><pdop>9.0</pdop><geoidheight>53.00</geoidheight><course>238.2</course><type>1</type></trkpt>
      <trkpt lat="40.58239461" lon="-4.79493809"><ele>3219</ele><speed>13.09</speed><time>2016-07-01T14:41:42Z</time><pdop>9.0</pdop><geoidheight>53.00</geoidheight><course>233.8</course><type>1</type></trkpt>
      <trkpt lat="40.58224076" lon="-4.79520179"><ele>3216</ele><speed>14.50</speed><time>2016-07-01T14:41:44Z</time><pdop>9.0</pdop><geoidheight>53.00</geoidheight><course>234.4</course><type>1</type></trkpt>
      <trkpt lat="40.58210167" lon="-4.79550712"><ele>3215</ele><speed>14.70</speed><time>2016-07-01T14:41:46Z</time><pdop>9.0</pdop><geoidheight>53.00</geoidheight><course>239.1</course><type>1</type></trkpt>
      <trkpt lat="40.58198138" lon="-4.7957915"><ele>3214</ele><speed>12.92</speed><time>2016-07-01T14:41:48Z</time><pdop>9.0</pdop><geoidheight>53.00</geoidheight><course>242.9</course><type>1</type></trkpt>
      <trkpt lat="40.58190598" lon="-4.79603401"><ele>3211</ele><speed>11.32</speed><time>2016-07-01T14:41:50Z</time><pdop>9.0</pdop><geoidheight>53.00</geoidheight><course>246.8</course><type>1</type></trkpt>
      <trkpt lat="40.5818096" lon="-4.7962928"><ele>3210</ele><speed>12.03</speed><time>2016-07-01T14:41:52Z</time><pdop>10.0</pdop><geoidheight>53.00</geoidheight><course>245.4</course><type>1</type></trkpt>
      <trkpt lat="40.58168787" lon="-4.79661425"><ele>3207</ele><speed>14.15</speed><time>2016-07-01T14:41:54Z</time><pdop>10.0</pdop><geoidheight>53.00</geoidheight><course>242.8</course><type>1</type></trkpt>
      <trkpt lat="40.58156711" lon="-4.7969333"><ele>3206</ele><speed>15.08</speed><time>2016-07-01T14:41:56Z</time><pdop>10.0</pdop><geoidheight>53.00</geoidheight><course>244.0</course><type>1</type></trkpt>
      <trkpt lat="40.58148948" lon="-4.79725229"><ele>3200</ele><speed>14.54</speed><time>2016-07-01T14:41:58Z</time><pdop>9.0</pdop><geoidheight>53.00</geoidheight><course>250.2</course><type>1</type></trkpt>
      <trkpt lat="40.58141046" lon="-4.79757614"><ele>3198</ele><speed>14.27</speed><time>2016-07-01T14:42:00Z</time><pdop>9.0</pdop><geoidheight>53.00</geoidheight><course>250.9</course><type>1</type></trkpt>
      <trkpt lat="40.58133408" lon="-4.79786797"><ele>3195</ele><speed>13.25</speed><time>2016-07-01T14:42:02Z</time><pdop>10.0</pdop><geoidheight>53.00</geoidheight><course>248.4</course><type>1</type></trkpt>
      <trkpt lat="40.58123698" lon="-4.798141"><ele>3191</ele><speed>14.15</speed><time>2016-07-01T14:42:04Z</time><pdop>10.0</pdop><geoidheight>53.00</geoidheight><course>243.9</course><type>1</type></trkpt>
      <trkpt lat="40.58112228" lon="-4.79843721"><ele>3188</ele><speed>14.27</speed><time>2016-07-01T14:42:06Z</time><pdop>9.0</pdop><geoidheight>53.00</geoidheight><course>246.7</course><type>1</type></trkpt>
      <trkpt lat="40.58101953" lon="-4.79874439"><ele>3186</ele><speed>13.67</speed><time>2016-07-01T14:42:08Z</time><pdop>10.0</pdop><geoidheight>53.00</geoidheight><course>245.1</course><type>1</type></trkpt>
      <trkpt lat="40.58091051" lon="-4.79897162"><ele>3183</ele><speed>11.72</speed><time>2016-07-01T14:42:10Z</time><pdop>11.0</pdop><geoidheight>53.00</geoidheight><course>240.5</course><type>1</type></trkpt>
      <trkpt lat="40.5809416" lon="-4.79923499"><ele>3182</ele><speed>9.97</speed><time>2016-07-01T14:42:12Z</time><pdop>11.0</pdop><geoidheight>53.00</geoidheight><course>256.5</course><type>1</type></trkpt>
      <trkpt lat="40.58078314" lon="-4.79947011"><ele>3178</ele><speed>10.23</speed><time>2016-07-01T14:42:15Z</time><pdop>11.0</pdop><geoidheight>53.00</geoidheight><course>239.9</course><type>1</type></trkpt>
      <trkpt lat="40.58072766" lon="-4.79973685"><ele>3173</ele><speed>12.67</speed><time>2016-07-01T14:42:17Z</time><pdop>10.0</pdop><geoidheight>53.00</geoidheight><course>247.6</course><type>1</type></trkpt>
      <trkpt lat="40.58062965" lon="-4.80002152"><ele>3171</ele><speed>13.47</speed><time>2016-07-01T14:42:19Z</time><pdop>10.0</pdop><geoidheight>53.00</geoidheight><course>245.8</course><type>1</type></trkpt>
      <trkpt lat="40.58053321" lon="-4.80027577"><ele>3169</ele><speed>11.38</speed><time>2016-07-01T14:42:21Z</time><pdop>10.0</pdop><geoidheight>53.00</geoidheight><course>246.7</course><type>1</type></trkpt>
      <trkpt lat="40.58043962" lon="-4.80051888"><ele>3168</ele><speed>11.37</speed><time>2016-07-01T14:42:23Z</time><pdop>10.0</pdop><geoidheight>53.00</geoidheight><course>246.4</course><type>1</type></trkpt>
      <trkpt lat="40.5803732" lon="-4.8008241"><ele>3163</ele><speed>12.93</speed><time>2016-07-01T14:42:25Z</time><pdop>10.0</pdop><geoidheight>53.00</geoidheight><course>249.9</course><type>1</type></trkpt>
      <trkpt lat="40.58026272" lon="-4.80113162"><ele>3159</ele><speed>13.17</speed><time>2016-07-01T14:42:27Z</time><pdop>10.0</pdop><geoidheight>53.00</geoidheight><course>244.2</course><type>1</type></trkpt>
      <trkpt lat="40.58016545" lon="-4.80138945"><ele>3156</ele><speed>11.61</speed><time>2016-07-01T14:42:29Z</time><pdop>10.0</pdop><geoidheight>53.00</geoidheight><course>241.9</course><type>1</type></trkpt>
      <trkpt lat="40.58006532" lon="-4.80163358"><ele>3150</ele><speed>12.25</speed><time>2016-07-01T14:42:31Z</time><pdop>9.0</pdop><geoidheight>53.00</geoidheight><course>241.0</course><type>1</type></trkpt>
      <trkpt lat="40.5799508" lon="-4.8019078"><ele>3146</ele><speed>13.35</speed><time>2016-07-01T14:42:33Z</time><pdop>9.0</pdop><geoidheight>53.00</geoidheight><course>240.0</course><type>1</type></trkpt>
      <trkpt lat="40.57981035" lon="-4.80214512"><ele>3143</ele><speed>12.73</speed><time>2016-07-01T14:42:35Z</time><pdop>9.0</pdop><geoidheight>53.00</geoidheight><course>231.3</course><type>1</type></trkpt>
      <trkpt lat="40.57966586" lon="-4.80235661"><ele>3142</ele><speed>11.93</speed><time>2016-07-01T14:42:37Z</time><pdop>9.0</pdop><geoidheight>53.00</geoidheight><course>227.6</course><type>1</type></trkpt>
      <trkpt lat="40.57953272" lon="-4.80256234"><ele>3139</ele><speed>11.60</speed><time>2016-07-01T14:42:39Z</time><pdop>9.0</pdop><geoidheight>53.00</geoidheight><course>227.7</course><type>1</type></trkpt>
      <trkpt lat="40.5793856" lon="-4.8027779"><ele>3134</ele><speed>12.25</speed><time>2016-07-01T14:42:41Z</time><pdop>9.0</pdop><geoidheight>53.00</geoidheight><course>227.0</course><type>1</type></trkpt>
      <trkpt lat="40.57922436" lon="-4.80298309"><ele>3131</ele><speed>12.30</speed><time>2016-07-01T14:42:43Z</time><pdop>9.0</pdop><geoidheight>53.00</geoidheight><course>219.9</course><type>1</type></trkpt>
      <trkpt lat="40.57902889" lon="-4.80315927"><ele>3128</ele><speed>12.77</speed><time>2016-07-01T14:42:45Z</time><pdop>9.0</pdop><geoidheight>53.00</geoidheight><course>215.7</course><type>1</type></trkpt>
      <trkpt lat="40.57882978" lon="-4.80336124"><ele>3124</ele><speed>13.96</speed><time>2016-07-01T14:42:47Z</time><pdop>9.0</pdop><geoidheight>53.00</geoidheight><course>219.3</course><type>1</type></trkpt>
      <trkpt lat="40.57859794" lon="-4.80359858"><ele>3122</ele><speed>16.22</speed><time>2016-07-01T14:42:49Z</time><pdop>9.0</pdop><geoidheight>53.00</geoidheight><course>220.6</course><type>1</type></trkpt>
      <trkpt lat="40.57841159" lon="-4.80387201"><ele>3119</ele><speed>15.24</speed><time>2016-07-01T14:42:51Z</time><pdop>9.0</pdop><geoidheight>53.00</geoidheight><course>225.9</course><type>1</type></trkpt>
      <trkpt lat="40.57826054" lon="-4.8040956"><ele>3118</ele><speed>13.41</speed><time>2016-07-01T14:42:53Z</time><pdop>9.0</pdop><geoidheight>53.00</geoidheight><course>226.6</course><type>1</type></trkpt>
      <trkpt lat="40.57809308" lon="-4.80430901"><ele>3115</ele><speed>13.01</speed><time>2016-07-01T14:42:55Z</time><pdop>9.0</pdop><geoidheight>53.00</geoidheight><course>224.4</course><type>1</type></trkpt>
      <trkpt lat="40.57790504" lon="-4.80453391"><ele>3112</ele><speed>14.16</speed><time>2016-07-01T14:42:57Z</time><pdop>9.0</pdop><geoidheight>53.00</geoidheight><course>223.1</course><type>1</type></trkpt>
      <trkpt lat="40.57774284" lon="-4.80479082"><ele>3109</ele><speed>14.69</speed><time>2016-07-01T14:42:59Z</time><pdop>9.0</pdop><geoidheight>53.00</geoidheight><course>228.4</course><type>1</type></trkpt>
      <trkpt lat="40.57758785" lon="-4.80503218"><ele>3104</ele><speed>13.67</speed><time>2016-07-01T14:43:01Z</time><pdop>9.0</pdop><geoidheight>53.00</geoidheight><course>224.3</course><type>1</type></trkpt>
      <trkpt lat="40.57741391" lon="-4.80524399"><ele>3102</ele><speed>13.34</speed><time>2016-07-01T14:43:03Z</time><pdop>9.0</pdop><geoidheight>53.00</geoidheight><course>223.5</course><type>1</type></trkpt>
      <trkpt lat="40.57724305" lon="-4.80549995"><ele>3099</ele><speed>14.14</speed><time>2016-07-01T14:43:05Z</time><pdop>9.0</pdop><geoidheight>53.00</geoidheight><course>227.5</course><type>1</type></trkpt>
      <trkpt lat="40.577061" lon="-4.80574328"><ele>3095</ele><speed>14.28</speed><time>2016-07-01T14:43:07Z</time><pdop>9.0</pdop><geoidheight>53.00</geoidheight><course>226.1</course><type>1</type></trkpt>
      <trkpt lat="40.5769141" lon="-4.80597508"><ele>3091</ele><speed>13.25</speed><time>2016-07-01T14:43:09Z</time><pdop>9.0</pdop><geoidheight>53.00</geoidheight><course>229.9</course><type>1</type></trkpt>
      <trkpt lat="40.57675026" lon="-4.80620097"><ele>3089</ele><speed>12.67</speed><time>2016-07-01T14:43:11Z</time><pdop>9.0</pdop><geoidheight>53.00</geoidheight><course>226.8</course><type>1</type></trkpt>
      <trkpt lat="40.57655519" lon="-4.8064097"><ele>3087</ele><speed>13.65</speed><time>2016-07-01T14:43:13Z</time><pdop>9.0</pdop><geoidheight>53.00</geoidheight><course>218.9</course><type>1</type></trkpt>
      <trkpt lat="40.57636277" lon="-4.8066132"><ele>3080</ele><speed>13.95</speed><time>2016-07-01T14:43:15Z</time><pdop>9.0</pdop><geoidheight>53.00</geoidheight><course>217.3</course><type>1</type></trkpt>
      <trkpt lat="40.57618125" lon="-4.80682174"><ele>3076</ele><speed>13.65</speed><time>2016-07-01T14:43:17Z</time><pdop>10.0</pdop><geoidheight>53.00</geoidheight><course>219.6</course><type>1</type></trkpt>
      <trkpt lat="40.57598211" lon="-4.80702129"><ele>3077</ele><speed>13.97</speed><time>2016-07-01T14:43:19Z</time><pdop>10.0</pdop><geoidheight>53.00</geoidheight><course>217.8</course><type>1</type></trkpt>
      <trkpt lat="40.57582329" lon="-4.80722048"><ele>3072</ele><speed>13.18</speed><time>2016-07-01T14:43:21Z</time><pdop>10.0</pdop><geoidheight>53.00</geoidheight><course>217.7</course><type>1</type></trkpt>
      <trkpt lat="40.57560081" lon="-4.80742145"><ele>3069</ele><speed>13.23</speed><time>2016-07-01T14:43:23Z</time><pdop>10.0</pdop><geoidheight>53.00</geoidheight><course>215.3</course><type>1</type></trkpt>
      <trkpt lat="40.57539869" lon="-4.80760274"><ele>3064</ele><speed>13.39</speed><time>2016-07-01T14:43:25Z</time><pdop>9.0</pdop><geoidheight>53.00</geoidheight><course>214.1</course><type>1</type></trkpt>
      <trkpt lat="40.57516092" lon="-4.80777764"><ele>3058</ele><speed>14.02</speed><time>2016-07-01T14:43:27Z</time><pdop>9.0</pdop><geoidheight>53.00</geoidheight><course>210.7</course><type>1</type></trkpt>
      <trkpt lat="40.57495944" lon="-4.8079511"><ele>3055</ele><speed>13.90</speed><time>2016-07-01T14:43:29Z</time><pdop>9.0</pdop><geoidheight>53.00</geoidheight><course>212.8</course><type>1</type></trkpt>
      <trkpt lat="40.57474604" lon="-4.80813272"><ele>3050</ele><speed>13.89</speed><time>2016-07-01T14:43:31Z</time><pdop>9.0</pdop><geoidheight>53.00</geoidheight><course>211.8</course><type>1</type></trkpt>
      <trkpt lat="40.57453311" lon="-4.80831967"><ele>3048</ele><speed>14.44</speed><time>2016-07-01T14:43:33Z</time><pdop>9.0</pdop><geoidheight>53.00</geoidheight><course>214.3</course><type>1</type></trkpt>
      <trkpt lat="40.57431183" lon="-4.80849021"><ele>3045</ele><speed>14.89</speed><time>2016-07-01T14:43:35Z</time><pdop>9.0</pdop><geoidheight>53.00</geoidheight><course>211.7</course><type>1</type></trkpt>
      <trkpt lat="40.57407426" lon="-4.80866917"><ele>3042</ele><speed>15.06</speed><time>2016-07-01T14:43:37Z</time><pdop>9.0</pdop><geoidheight>53.00</geoidheight><course>211.5</course><type>1</type></trkpt>
      <trkpt lat="40.57384222" lon="-4.80886168"><ele>3041</ele><speed>14.52</speed><time>2016-07-01T14:43:39Z</time><pdop>9.0</pdop><geoidheight>53.00</geoidheight><course>213.0</course><type>1</type></trkpt>
      <trkpt lat="40.57363907" lon="-4.80901902"><ele>3039</ele><speed>12.95</speed><time>2016-07-01T14:43:41Z</time><pdop>9.0</pdop><geoidheight>53.00</geoidheight><course>208.0</course><type>1</type></trkpt>
      <trkpt lat="40.57340763" lon="-4.80918203"><ele>3036</ele><speed>15.06</speed><time>2016-07-01T14:43:43Z</time><pdop>9.0</pdop><geoidheight>53.00</geoidheight><course>209.8</course><type>1</type></trkpt>
      <trkpt lat="40.57319705" lon="-4.8094273"><ele>3031</ele><speed>15.60</speed><time>2016-07-01T14:43:45Z</time><pdop>9.0</pdop><geoidheight>53.00</geoidheight><course>220.4</course><type>1</type></trkpt>
      <trkpt lat="40.57299712" lon="-4.8096586"><ele>3028</ele><speed>14.98</speed><time>2016-07-01T14:43:47Z</time><pdop>10.0</pdop><geoidheight>53.00</geoidheight><course>220.2</course><type>1</type></trkpt>
      <trkpt lat="40.57280588" lon="-4.80985588"><ele>3070</ele><speed>13.63</speed><time>2016-07-01T14:43:49Z</time><pdop>9.0</pdop><geoidheight>53.00</geoidheight><course>216.4</course><type>1</type></trkpt>
      <trkpt lat="40.57262316" lon="-4.81004555"><ele>3049</ele><speed>13.46</speed><time>2016-07-01T14:43:51Z</time><pdop>9.0</pdop><geoidheight>53.00</geoidheight><course>218.1</course><type>1</type></trkpt>
      <trkpt lat="40.57242914" lon="-4.81027564"><ele>3037</ele><speed>14.62</speed><time>2016-07-01T14:43:53Z</time><pdop>10.0</pdop><geoidheight>54.00</geoidheight><course>222.3</course><type>1</type></trkpt>
      <trkpt lat="40.57225813" lon="-4.81050965"><ele>3029</ele><speed>13.96</speed><time>2016-07-01T14:43:55Z</time><pdop>10.0</pdop><geoidheight>54.00</geoidheight><course>222.7</course><type>1</type></trkpt>
      <trkpt lat="40.57207077" lon="-4.81071616"><ele>3025</ele><speed>13.57</speed><time>2016-07-01T14:43:57Z</time><pdop>10.0</pdop><geoidheight>54.00</geoidheight><course>219.9</course><type>1</type></trkpt>
      <trkpt lat="40.57186082" lon="-4.81091401"><ele>3019</ele><speed>14.05</speed><time>2016-07-01T14:43:59Z</time><pdop>11.0</pdop><geoidheight>54.00</geoidheight><course>214.4</course><type>1</type></trkpt>
      <trkpt lat="40.57164971" lon="-4.81109628"><ele>3013</ele><speed>13.72</speed><time>2016-07-01T14:44:01Z</time><pdop>11.0</pdop><geoidheight>54.00</geoidheight><course>213.8</course><type>1</type></trkpt>
      <trkpt lat="40.57143822" lon="-4.81128225"><ele>3006</ele><speed>13.68</speed><time>2016-07-01T14:44:03Z</time><pdop>10.0</pdop><geoidheight>54.00</geoidheight><course>211.2</course><type>1</type></trkpt>
      <trkpt lat="40.57126515" lon="-4.81145358"><ele>3002</ele><speed>12.81</speed><time>2016-07-01T14:44:05Z</time><pdop>10.0</pdop><geoidheight>54.00</geoidheight><course>213.0</course><type>1</type></trkpt>
      <trkpt lat="40.57106311" lon="-4.81164082"><ele>2999</ele><speed>13.58</speed><time>2016-07-01T14:44:07Z</time><pdop>11.0</pdop><geoidheight>54.00</geoidheight><course>216.3</course><type>1</type></trkpt>
      <trkpt lat="40.57082436" lon="-4.81186119"><ele>2994</ele><speed>15.25</speed><time>2016-07-01T14:44:09Z</time><pdop>11.0</pdop><geoidheight>54.00</geoidheight><course>215.0</course><type>1</type></trkpt>
      <trkpt lat="40.57058991" lon="-4.81206293"><ele>2989</ele><speed>14.58</speed><time>2016-07-01T14:44:11Z</time><pdop>11.0</pdop><geoidheight>54.00</geoidheight><course>212.5</course><type>1</type></trkpt>
      <trkpt lat="40.57035773" lon="-4.81222438"><ele>2984</ele><speed>13.45</speed><time>2016-07-01T14:44:13Z</time><pdop>11.0</pdop><geoidheight>54.00</geoidheight><course>207.0</course><type>1</type></trkpt>
      <trkpt lat="40.57012998" lon="-4.81234481"><ele>2982</ele><speed>13.67</speed><time>2016-07-01T14:44:15Z</time><pdop>11.0</pdop><geoidheight>54.00</geoidheight><course>201.9</course><type>1</type></trkpt>
      <trkpt lat="40.56988231" lon="-4.8124997"><ele>2975</ele><speed>14.77</speed><time>2016-07-01T14:44:17Z</time><pdop>10.0</pdop><geoidheight>54.00</geoidheight><course>206.0</course><type>1</type></trkpt>
      <trkpt lat="40.56967039" lon="-4.81269707"><ele>2970</ele><speed>14.83</speed><time>2016-07-01T14:44:19Z</time><pdop>10.0</pdop><geoidheight>54.00</geoidheight><course>213.3</course><type>1</type></trkpt>
      <trkpt lat="40.56948605" lon="-4.81287909"><ele>2967</ele><speed>13.67</speed><time>2016-07-01T14:44:21Z</time><pdop>10.0</pdop><geoidheight>54.00</geoidheight><course>211.9</course><type>1</type></trkpt>
      <trkpt lat="40.56924855" lon="-4.81303304"><ele>2964</ele><speed>13.86</speed><time>2016-07-01T14:44:23Z</time><pdop>10.0</pdop><geoidheight>54.00</geoidheight><course>207.8</course><type>1</type></trkpt>
      <trkpt lat="40.56900555" lon="-4.81319445"><ele>2961</ele><speed>15.25</speed><time>2016-07-01T14:44:25Z</time><pdop>11.0</pdop><geoidheight>54.00</geoidheight><course>208.7</course><type>1</type></trkpt>
      <trkpt lat="40.56877526" lon="-4.81338765"><ele>2956</ele><speed>15.38</speed><time>2016-07-01T14:44:27Z</time><pdop>11.0</pdop><geoidheight>54.00</geoidheight><course>207.9</course><type>1</type></trkpt>
      <trkpt lat="40.56851915" lon="-4.81355319"><ele>2954</ele><speed>14.86</speed><time>2016-07-01T14:44:29Z</time><pdop>11.0</pdop><geoidheight>54.00</geoidheight><course>205.9</course><type>1</type></trkpt>
      <trkpt lat="40.56828218" lon="-4.81369116"><ele>2949</ele><speed>14.22</speed><time>2016-07-01T14:44:31Z</time><pdop>11.0</pdop><geoidheight>54.00</geoidheight><course>204.6</course><type>1</type></trkpt>
      <trkpt lat="40.56811331" lon="-4.81384471"><ele>2943</ele><speed>13.43</speed><time>2016-07-01T14:44:33Z</time><pdop>11.0</pdop><geoidheight>54.00</geoidheight><course>207.0</course><type>1</type></trkpt>
      <trkpt lat="40.56785934" lon="-4.81397563"><ele>2942</ele><speed>14.51</speed><time>2016-07-01T14:44:35Z</time><pdop>11.0</pdop><geoidheight>54.00</geoidheight><course>204.4</course><type>1</type></trkpt>
      <trkpt lat="40.56759766" lon="-4.81410265"><ele>2940</ele><speed>14.56</speed><time>2016-07-01T14:44:37Z</time><pdop>11.0</pdop><geoidheight>54.00</geoidheight><course>201.8</course><type>1</type></trkpt>
      <trkpt lat="40.56733144" lon="-4.81421798"><ele>2936</ele><speed>14.61</speed><time>2016-07-01T14:44:39Z</time><pdop>11.0</pdop><geoidheight>54.00</geoidheight><course>200.6</course><type>1</type></trkpt>
      <trkpt lat="40.56710605" lon="-4.81435272"><ele>2934</ele><speed>14.53</speed><time>2016-07-01T14:44:41Z</time><pdop>11.0</pdop><geoidheight>54.00</geoidheight><course>201.7</course><type>1</type></trkpt>
      <trkpt lat="40.56691636" lon="-4.81452269"><ele>2929</ele><speed>14.18</speed><time>2016-07-01T14:44:43Z</time><pdop>11.0</pdop><geoidheight>54.00</geoidheight><course>207.5</course><type>1</type></trkpt>
      <trkpt lat="40.56670652" lon="-4.81466137"><ele>2921</ele><speed>13.68</speed><time>2016-07-01T14:44:45Z</time><pdop>10.0</pdop><geoidheight>54.00</geoidheight><course>202.7</course><type>1</type></trkpt>
      <trkpt lat="40.56647605" lon="-4.81478448"><ele>2916</ele><speed>12.96</speed><time>2016-07-01T14:44:47Z</time><pdop>10.0</pdop><geoidheight>54.00</geoidheight><course>200.5</course><type>1</type></trkpt>
      <trkpt lat="40.56625523" lon="-4.81490522"><ele>2909</ele><speed>13.09</speed><time>2016-07-01T14:44:49Z</time><pdop>9.0</pdop><geoidheight>54.00</geoidheight><course>199.7</course><type>1</type></trkpt>
      <trkpt lat="40.56602625" lon="-4.8150053"><ele>2906</ele><speed>13.79</speed><time>2016-07-01T14:44:51Z</time><pdop>10.0</pdop><geoidheight>54.00</geoidheight><course>199.0</course><type>1</type></trkpt>
      <trkpt lat="40.56578606" lon="-4.81513291"><ele>2902</ele><speed>13.87</speed><time>2016-07-01T14:44:53Z</time><pdop>10.0</pdop><geoidheight>54.00</geoidheight><course>201.4</course><type>1</type></trkpt>
      <trkpt lat="40.56559997" lon="-4.81526608"><ele>2897</ele><speed>12.79</speed><time>2016-07-01T14:44:55Z</time><pdop>10.0</pdop><geoidheight>54.00</geoidheight><course>203.1</course><type>1</type></trkpt>
      <trkpt lat="40.56537548" lon="-4.81539044"><ele>2893</ele><speed>13.10</speed><time>2016-07-01T14:44:57Z</time><pdop>10.0</pdop><geoidheight>54.00</geoidheight><course>201.9</course><type>1</type></trkpt>
      <trkpt lat="40.56515176" lon="-4.81550061"><ele>2887</ele><speed>13.07</speed><time>2016-07-01T14:44:59Z</time><pdop>10.0</pdop><geoidheight>54.00</geoidheight><course>201.6</course><type>1</type></trkpt>
      <trkpt lat="40.56493221" lon="-4.81559095"><ele>2880</ele><speed>13.57</speed><time>2016-07-01T14:45:01Z</time><pdop>9.0</pdop><geoidheight>54.00</geoidheight><course>196.4</course><type>1</type></trkpt>
      <trkpt lat="40.56470452" lon="-4.81566693"><ele>2874</ele><speed>13.76</speed><time>2016-07-01T14:45:03Z</time><pdop>10.0</pdop><geoidheight>54.00</geoidheight><course>195.8</course><type>1</type></trkpt>
      <trkpt lat="40.56449009" lon="-4.81577064"><ele>2868</ele><speed>12.94</speed><time>2016-07-01T14:45:05Z</time><pdop>9.0</pdop><geoidheight>54.00</geoidheight><course>200.4</course><type>1</type></trkpt>
      <trkpt lat="40.5642543" lon="-4.81585918"><ele>2863</ele><speed>13.31</speed><time>2016-07-01T14:45:07Z</time><pdop>9.0</pdop><geoidheight>54.00</geoidheight><course>192.5</course><type>1</type></trkpt>
      <trkpt lat="40.56400456" lon="-4.81588407"><ele>2858</ele><speed>13.87</speed><time>2016-07-01T14:45:09Z</time><pdop>9.0</pdop><geoidheight>54.00</geoidheight><course>182.9</course><type>1</type></trkpt>
      <trkpt lat="40.56374978" lon="-4.81591618"><ele>2856</ele><speed>14.46</speed><time>2016-07-01T14:45:11Z</time><pdop>9.0</pdop><geoidheight>54.00</geoidheight><course>187.7</course><type>1</type></trkpt>
      <trkpt lat="40.5635087" lon="-4.81601195"><ele>2850</ele><speed>14.50</speed><time>2016-07-01T14:45:13Z</time><pdop>9.0</pdop><geoidheight>54.00</geoidheight><course>193.9</course><type>1</type></trkpt>
      <trkpt lat="40.56324368" lon="-4.81609467"><ele>2847</ele><speed>15.24</speed><time>2016-07-01T14:45:15Z</time><pdop>10.0</pdop><geoidheight>54.00</geoidheight><course>192.8</course><type>1</type></trkpt>
      <trkpt lat="40.56300135" lon="-4.81617828"><ele>2847</ele><speed>14.06</speed><time>2016-07-01T14:45:17Z</time><pdop>10.0</pdop><geoidheight>54.00</geoidheight><course>197.5</course><type>1</type></trkpt>
      <trkpt lat="40.56276269" lon="-4.81631396"><ele>2845</ele><speed>14.81</speed><time>2016-07-01T14:45:19Z</time><pdop>10.0</pdop><geoidheight>54.00</geoidheight><course>201.4</course><type>1</type></trkpt>
      <trkpt lat="40.56250349" lon="-4.8164693"><ele>2842</ele><speed>16.05</speed><time>2016-07-01T14:45:21Z</time><pdop>10.0</pdop><geoidheight>54.00</geoidheight><course>205.4</course><type>1</type></trkpt>
      <trkpt lat="40.56227856" lon="-4.81666506"><ele>2839</ele><speed>15.37</speed><time>2016-07-01T14:45:23Z</time><pdop>10.0</pdop><geoidheight>54.00</geoidheight><course>210.9</course><type>1</type></trkpt>
      <trkpt lat="40.56209663" lon="-4.81682546"><ele>2836</ele><speed>13.46</speed><time>2016-07-01T14:45:25Z</time><pdop>10.0</pdop><geoidheight>54.00</geoidheight><course>210.4</course><type>1</type></trkpt>
      <trkpt lat="40.56186474" lon="-4.81700102"><ele>2831</ele><speed>14.58</speed><time>2016-07-01T14:45:27Z</time><pdop>10.0</pdop><geoidheight>54.00</geoidheight><course>208.1</course><type>1</type></trkpt>
      <trkpt lat="40.5616445" lon="-4.81719381"><ele>2826</ele><speed>15.11</speed><time>2016-07-01T14:45:29Z</time><pdop>10.0</pdop><geoidheight>54.00</geoidheight><course>212.0</course><type>1</type></trkpt>
      <trkpt lat="40.56144113" lon="-4.81738638"><ele>2821</ele><speed>14.38</speed><time>2016-07-01T14:45:31Z</time><pdop>10.0</pdop><geoidheight>54.00</geoidheight><course>212.9</course><type>1</type></trkpt>
      <trkpt lat="40.56123773" lon="-4.81756495"><ele>2817</ele><speed>13.60</speed><time>2016-07-01T14:45:33Z</time><pdop>10.0</pdop><geoidheight>54.00</geoidheight><course>212.0</course><type>1</type></trkpt>
      <trkpt lat="40.5610584" lon="-4.81774809"><ele>2814</ele><speed>12.85</speed><time>2016-07-01T14:45:35Z</time><pdop>11.0</pdop><geoidheight>54.00</geoidheight><course>214.8</course><type>1</type></trkpt>
      <trkpt lat="40.56089135" lon="-4.81794856"><ele>2810</ele><speed>12.82</speed><time>2016-07-01T14:45:37Z</time><pdop>11.0</pdop><geoidheight>54.00</geoidheight><course>218.5</course><type>1</type></trkpt>
      <trkpt lat="40.56071338" lon="-4.81815917"><ele>2806</ele><speed>13.22</speed><time>2016-07-01T14:45:39Z</time><pdop>10.0</pdop><geoidheight>54.00</geoidheight><course>220.4</course><type>1</type></trkpt>
      <trkpt lat="40.56052319" lon="-4.81834917"><ele>2802</ele><speed>13.22</speed><time>2016-07-01T14:45:41Z</time><pdop>10.0</pdop><geoidheight>54.00</geoidheight><course>215.5</course><type>1</type></trkpt>
      <trkpt lat="40.56034157" lon="-4.8185089"><ele>2798</ele><speed>12.45</speed><time>2016-07-01T14:45:43Z</time><pdop>10.0</pdop><geoidheight>54.00</geoidheight><course>213.0</course><type>1</type></trkpt>
      <trkpt lat="40.56017109" lon="-4.81868391"><ele>2794</ele><speed>11.76</speed><time>2016-07-01T14:45:45Z</time><pdop>10.0</pdop><geoidheight>54.00</geoidheight><course>222.4</course><type>1</type></trkpt>
      <trkpt lat="40.56001985" lon="-4.81886818"><ele>2789</ele><speed>11.24</speed><time>2016-07-01T14:45:47Z</time><pdop>10.0</pdop><geoidheight>54.00</geoidheight><course>221.9</course><type>1</type></trkpt>
      <trkpt lat="40.55986881" lon="-4.81903229"><ele>2785</ele><speed>11.00</speed><time>2016-07-01T14:45:49Z</time><pdop>10.0</pdop><geoidheight>54.00</geoidheight><course>217.9</course><type>1</type></trkpt>
      <trkpt lat="40.55968559" lon="-4.81918559"><ele>2781</ele><speed>12.06</speed><time>2016-07-01T14:45:51Z</time><pdop>10.0</pdop><geoidheight>54.00</geoidheight><course>214.6</course><type>1</type></trkpt>
      <trkpt lat="40.55952159" lon="-4.81937568"><ele>2775</ele><speed>12.70</speed><time>2016-07-01T14:45:53Z</time><pdop>10.0</pdop><geoidheight>54.00</geoidheight><course>217.7</course><type>1</type></trkpt>
      <trkpt lat="40.55934668" lon="-4.81956673"><ele>2771</ele><speed>12.68</speed><time>2016-07-01T14:45:55Z</time><pdop>11.0</pdop><geoidheight>54.00</geoidheight><course>219.2</course><type>1</type></trkpt>
      <trkpt lat="40.55912049" lon="-4.81981357"><ele>2764</ele><speed>10.93</speed><time>2016-07-01T14:45:58Z</time><pdop>11.0</pdop><geoidheight>54.00</geoidheight><course>215.2</course><type>1</type></trkpt>
      <trkpt lat="40.55883713" lon="-4.82007097"><ele>2756</ele><speed>14.01</speed><time>2016-07-01T14:46:01Z</time><pdop>12.0</pdop><geoidheight>54.00</geoidheight><course>210.3</course><type>1</type></trkpt>
      <trkpt lat="40.55862053" lon="-4.82023948"><ele>2750</ele><speed>14.55</speed><time>2016-07-01T14:46:03Z</time><pdop>12.0</pdop><geoidheight>54.00</geoidheight><course>209.1</course><type>1</type></trkpt>
      <trkpt lat="40.55842036" lon="-4.82040361"><ele>2746</ele><speed>12.64</speed><time>2016-07-01T14:46:05Z</time><pdop>11.0</pdop><geoidheight>54.00</geoidheight><course>213.0</course><type>1</type></trkpt>
      <trkpt lat="40.55824935" lon="-4.82055883"><ele>2741</ele><speed>12.33</speed><time>2016-07-01T14:46:07Z</time><pdop>12.0</pdop><geoidheight>54.00</geoidheight><course>211.1</course><type>1</type></trkpt>
      <trkpt lat="40.55805399" lon="-4.82072063"><ele>2734</ele><speed>12.47</speed><time>2016-07-01T14:46:09Z</time><pdop>11.0</pdop><geoidheight>54.00</geoidheight><course>210.4</course><type>1</type></trkpt>
      <trkpt lat="40.55785592" lon="-4.82087606"><ele>2730</ele><speed>12.15</speed><time>2016-07-01T14:46:11Z</time><pdop>12.0</pdop><geoidheight>54.00</geoidheight><course>209.6</course><type>1</type></trkpt>
      <trkpt lat="40.55768464" lon="-4.82103407"><ele>2719</ele><speed>12.58</speed><time>2016-07-01T14:46:13Z</time><pdop>11.0</pdop><geoidheight>54.00</geoidheight><course>208.4</course><type>1</type></trkpt>
      <trkpt lat="40.5574737" lon="-4.82116585"><ele>2715</ele><speed>12.76</speed><time>2016-07-01T14:46:15Z</time><pdop>11.0</pdop><geoidheight>54.00</geoidheight><course>207.5</course><type>1</type></trkpt>
      <trkpt lat="40.55728669" lon="-4.82133579"><ele>2711</ele><speed>12.73</speed><time>2016-07-01T14:46:17Z</time><pdop>11.0</pdop><geoidheight>54.00</geoidheight><course>210.6</course><type>1</type></trkpt>
      <trkpt lat="40.55706669" lon="-4.82148204"><ele>2708</ele><speed>13.27</speed><time>2016-07-01T14:46:19Z</time><pdop>12.0</pdop><geoidheight>54.00</geoidheight><course>210.7</course><type>1</type></trkpt>
      <trkpt lat="40.55688341" lon="-4.82167322"><ele>2703</ele><speed>12.91</speed><time>2016-07-01T14:46:21Z</time><pdop>12.0</pdop><geoidheight>54.00</geoidheight><course>212.8</course><type>1</type></trkpt>
      <trkpt lat="40.55666811" lon="-4.82196006"><ele>2695</ele><speed>12.13</speed><time>2016-07-01T14:46:24Z</time><pdop>11.0</pdop><geoidheight>54.00</geoidheight><course>216.9</course><type>1</type></trkpt>
      <trkpt lat="40.55647997" lon="-4.82212626"><ele>2691</ele><speed>12.16</speed><time>2016-07-01T14:46:26Z</time><pdop>11.0</pdop><geoidheight>54.00</geoidheight><course>213.9</course><type>1</type></trkpt>
      <trkpt lat="40.55624732" lon="-4.82230435"><ele>2685</ele><speed>9.17</speed><time>2016-07-01T14:46:29Z</time><pdop>11.0</pdop><geoidheight>54.00</geoidheight><course>208.1</course><type>1</type></trkpt>
      <trkpt lat="40.55597231" lon="-4.82244644"><ele>2678</ele><speed>12.11</speed><time>2016-07-01T14:46:32Z</time><pdop>12.0</pdop><geoidheight>54.00</geoidheight><course>200.0</course><type>1</type></trkpt>
      <trkpt lat="40.55573381" lon="-4.82258917"><ele>2672</ele><speed>14.20</speed><time>2016-07-01T14:46:34Z</time><pdop>13.0</pdop><geoidheight>54.00</geoidheight><course>207.0</course><type>1</type></trkpt>
      <trkpt lat="40.55553128" lon="-4.82276865"><ele>2666</ele><speed>13.72</speed><time>2016-07-01T14:46:36Z</time><pdop>13.0</pdop><geoidheight>54.00</geoidheight><course>209.6</course><type>1</type></trkpt>
      <trkpt lat="40.55521694" lon="-4.82295515"><ele>2656</ele><speed>12.90</speed><time>2016-07-01T14:46:39Z</time><pdop>12.0</pdop><geoidheight>54.00</geoidheight><course>204.0</course><type>1</type></trkpt>
      <trkpt lat="40.55497741" lon="-4.82308171"><ele>2651</ele><speed>13.32</speed><time>2016-07-01T14:46:41Z</time><pdop>12.0</pdop><geoidheight>54.00</geoidheight><course>203.2</course><type>1</type></trkpt>
      <trkpt lat="40.55476478" lon="-4.82322319"><ele>2644</ele><speed>13.78</speed><time>2016-07-01T14:46:43Z</time><pdop>12.0</pdop><geoidheight>54.00</geoidheight><course>204.3</course><type>1</type></trkpt>
      <trkpt lat="40.55455729" lon="-4.82336839"><ele>2639</ele><speed>13.44</speed><time>2016-07-01T14:46:45Z</time><pdop>13.0</pdop><geoidheight>54.00</geoidheight><course>206.5</course><type>1</type></trkpt>
      <trkpt lat="40.55427434" lon="-4.82359492"><ele>2629</ele><speed>13.28</speed><time>2016-07-01T14:46:48Z</time><pdop>13.0</pdop><geoidheight>54.00</geoidheight><course>207.9</course><type>1</type></trkpt>
      <trkpt lat="40.55407743" lon="-4.82377259"><ele>2624</ele><speed>13.62</speed><time>2016-07-01T14:46:50Z</time><pdop>13.0</pdop><geoidheight>54.00</geoidheight><course>211.9</course><type>1</type></trkpt>
      <trkpt lat="40.55380027" lon="-4.82404604"><ele>2616</ele><speed>12.88</speed><time>2016-07-01T14:46:53Z</time><pdop>15.0</pdop><geoidheight>54.00</geoidheight><course>215.8</course><type>1</type></trkpt>
      <trkpt lat="40.55353911" lon="-4.82432595"><ele>2603</ele><speed>13.07</speed><time>2016-07-01T14:46:56Z</time><pdop>12.0</pdop><geoidheight>54.00</geoidheight><course>217.3</course><type>1</type></trkpt>
      <trkpt lat="40.55336784" lon="-4.82450869"><ele>2598</ele><speed>13.30</speed><time>2016-07-01T14:46:58Z</time><pdop>12.0</pdop><geoidheight>54.00</geoidheight><course>216.1</course><type>1</type></trkpt>
      <trkpt lat="40.55316324" lon="-4.82469586"><ele>2590</ele><speed>13.78</speed><time>2016-07-01T14:47:00Z</time><pdop>12.0</pdop><geoidheight>54.00</geoidheight><course>213.2</course><type>1</type></trkpt>
      <trkpt lat="40.55293649" lon="-4.82486725"><ele>2583</ele><speed>14.45</speed><time>2016-07-01T14:47:02Z</time><pdop>12.0</pdop><geoidheight>54.00</geoidheight><course>210.6</course><type>1</type></trkpt>
      <trkpt lat="40.55277692" lon="-4.82506574"><ele>2576</ele><speed>13.58</speed><time>2016-07-01T14:47:04Z</time><pdop>12.0</pdop><geoidheight>54.00</geoidheight><course>217.8</course><type>1</type></trkpt>
      <trkpt lat="40.55258331" lon="-4.82524906"><ele>2572</ele><speed>13.60</speed><time>2016-07-01T14:47:06Z</time><pdop>11.0</pdop><geoidheight>54.00</geoidheight><course>216.2</course><type>1</type></trkpt>
      <trkpt lat="40.55239094" lon="-4.82543769"><ele>2568</ele><speed>13.16</speed><time>2016-07-01T14:47:08Z</time><pdop>11.0</pdop><geoidheight>54.00</geoidheight><course>215.2</course><type>1</type></trkpt>
      <trkpt lat="40.55218918" lon="-4.82561102"><ele>2564</ele><speed>13.23</speed><time>2016-07-01T14:47:10Z</time><pdop>11.0</pdop><geoidheight>54.00</geoidheight><course>212.4</course><type>1</type></trkpt>
      <trkpt lat="40.5520252" lon="-4.82580753"><ele>2557</ele><speed>13.72</speed><time>2016-07-01T14:47:12Z</time><pdop>12.0</pdop><geoidheight>54.00</geoidheight><course>217.0</course><type>1</type></trkpt>
      <trkpt lat="40.55180053" lon="-4.82601584"><ele>2553</ele><speed>15.01</speed><time>2016-07-01T14:47:14Z</time><pdop>12.0</pdop><geoidheight>54.00</geoidheight><course>216.7</course><type>1</type></trkpt>
      <trkpt lat="40.55162419" lon="-4.82622996"><ele>2546</ele><speed>14.36</speed><time>2016-07-01T14:47:16Z</time><pdop>11.0</pdop><geoidheight>54.00</geoidheight><course>215.6</course><type>1</type></trkpt>
      <trkpt lat="40.55144317" lon="-4.82640339"><ele>2543</ele><speed>13.39</speed><time>2016-07-01T14:47:18Z</time><pdop>11.0</pdop><geoidheight>54.00</geoidheight><course>214.6</course><type>1</type></trkpt>
      <trkpt lat="40.55126903" lon="-4.82657513"><ele>2541</ele><speed>10.98</speed><time>2016-07-01T14:47:20Z</time><pdop>10.0</pdop><geoidheight>54.00</geoidheight><course>222.2</course><type>1</type></trkpt>
      <trkpt lat="40.55109047" lon="-4.82677224"><ele>2535</ele><speed>8.60</speed><time>2016-07-01T14:47:23Z</time><pdop>9.0</pdop><geoidheight>54.00</geoidheight><course>221.8</course><type>1</type></trkpt>
      <trkpt lat="40.55087665" lon="-4.82700137"><ele>2533</ele><speed>11.07</speed><time>2016-07-01T14:47:26Z</time><pdop>10.0</pdop><geoidheight>54.00</geoidheight><course>219.9</course><type>1</type></trkpt>
      <trkpt lat="40.55072732" lon="-4.82718039"><ele>2527</ele><speed>11.45</speed><time>2016-07-01T14:47:28Z</time><pdop>9.0</pdop><geoidheight>54.00</geoidheight><course>222.8</course><type>1</type></trkpt>
      <trkpt lat="40.55058267" lon="-4.82735701"><ele>2523</ele><speed>10.33</speed><time>2016-07-01T14:47:30Z</time><pdop>10.0</pdop><geoidheight>54.00</geoidheight><course>224.8</course><type>1</type></trkpt>
      <trkpt lat="40.55046005" lon="-4.82754135"><ele>2521</ele><speed>10.30</speed><time>2016-07-01T14:47:32Z</time><pdop>10.0</pdop><geoidheight>54.00</geoidheight><course>229.2</course><type>1</type></trkpt>
      <trkpt lat="40.55030829" lon="-4.82779257"><ele>2520</ele><speed>9.78</speed><time>2016-07-01T14:47:35Z</time><pdop>9.0</pdop><geoidheight>54.00</geoidheight><course>226.0</course><type>1</type></trkpt>
      <trkpt lat="40.55016852" lon="-4.82794906"><ele>2519</ele><speed>9.83</speed><time>2016-07-01T14:47:37Z</time><pdop>9.0</pdop><geoidheight>54.00</geoidheight><course>221.8</course><type>1</type></trkpt>
      <trkpt lat="40.55003291" lon="-4.82808863"><ele>2520</ele><speed>9.44</speed><time>2016-07-01T14:47:39Z</time><pdop>9.0</pdop><geoidheight>54.00</geoidheight><course>218.7</course><type>1</type></trkpt>
      <trkpt lat="40.54984333" lon="-4.82828978"><ele>2517</ele><speed>9.03</speed><time>2016-07-01T14:47:42Z</time><pdop>9.0</pdop><geoidheight>54.00</geoidheight><course>219.2</course><type>1</type></trkpt>
      <trkpt lat="40.5496897" lon="-4.82845322"><ele>2512</ele><speed>11.47</speed><time>2016-07-01T14:47:44Z</time><pdop>9.0</pdop><geoidheight>54.00</geoidheight><course>218.3</course><type>1</type></trkpt>
      <trkpt lat="40.54952438" lon="-4.82865849"><ele>2510</ele><speed>12.79</speed><time>2016-07-01T14:47:46Z</time><pdop>9.0</pdop><geoidheight>54.00</geoidheight><course>221.5</course><type>1</type></trkpt>
      <trkpt lat="40.54937062" lon="-4.82885291"><ele>2508</ele><speed>11.39</speed><time>2016-07-01T14:47:48Z</time><pdop>9.0</pdop><geoidheight>54.00</geoidheight><course>221.5</course><type>1</type></trkpt>
      <trkpt lat="40.54925175" lon="-4.82903586"><ele>2503</ele><speed>10.36</speed><time>2016-07-01T14:47:50Z</time><pdop>9.0</pdop><geoidheight>54.00</geoidheight><course>226.9</course><type>1</type></trkpt>
      <trkpt lat="40.54911388" lon="-4.82921047"><ele>2502</ele><speed>11.14</speed><time>2016-07-01T14:47:52Z</time><pdop>9.0</pdop><geoidheight>54.00</geoidheight><course>224.2</course><type>1</type></trkpt>
      <trkpt lat="40.54896998" lon="-4.82940583"><ele>2498</ele><speed>12.21</speed><time>2016-07-01T14:47:54Z</time><pdop>9.0</pdop><geoidheight>54.00</geoidheight><course>223.7</course><type>1</type></trkpt>
      <trkpt lat="40.54880449" lon="-4.82958568"><ele>2495</ele><speed>11.97</speed><time>2016-07-01T14:47:56Z</time><pdop>9.0</pdop><geoidheight>54.00</geoidheight><course>217.8</course><type>1</type></trkpt>
      <trkpt lat="40.54862199" lon="-4.82970499"><ele>2494</ele><speed>11.38</speed><time>2016-07-01T14:47:58Z</time><pdop>9.0</pdop><geoidheight>54.00</geoidheight><course>208.0</course><type>1</type></trkpt>
      <trkpt lat="40.54844069" lon="-4.8297998"><ele>2494</ele><speed>11.42</speed><time>2016-07-01T14:48:00Z</time><pdop>9.0</pdop><geoidheight>54.00</geoidheight><course>201.7</course><type>1</type></trkpt>
      <trkpt lat="40.54825724" lon="-4.82985538"><ele>2493</ele><speed>11.19</speed><time>2016-07-01T14:48:02Z</time><pdop>9.0</pdop><geoidheight>54.00</geoidheight><course>196.7</course><type>1</type></trkpt>
      <trkpt lat="40.54805934" lon="-4.82993517"><ele>2494</ele><speed>11.16</speed><time>2016-07-01T14:48:04Z</time><pdop>9.0</pdop><geoidheight>54.00</geoidheight><course>194.6</course><type>1</type></trkpt>
      <trkpt lat="40.54785831" lon="-4.82998347"><ele>2493</ele><speed>11.28</speed><time>2016-07-01T14:48:06Z</time><pdop>9.0</pdop><geoidheight>54.00</geoidheight><course>187.6</course><type>1</type></trkpt>
      <trkpt lat="40.54764165" lon="-4.83001687"><ele>2493</ele><speed>11.81</speed><time>2016-07-01T14:48:08Z</time><pdop>9.0</pdop><geoidheight>54.00</geoidheight><course>187.4</course><type>1</type></trkpt>
      <trkpt lat="40.54743617" lon="-4.83006304"><ele>2493</ele><speed>11.66</speed><time>2016-07-01T14:48:10Z</time><pdop>9.0</pdop><geoidheight>54.00</geoidheight><course>190.3</course><type>1</type></trkpt>
      <trkpt lat="40.54723602" lon="-4.83011806"><ele>2491</ele><speed>11.44</speed><time>2016-07-01T14:48:12Z</time><pdop>9.0</pdop><geoidheight>54.00</geoidheight><course>192.7</course><type>1</type></trkpt>
      <trkpt lat="40.54705182" lon="-4.8301993"><ele>2494</ele><speed>10.67</speed><time>2016-07-01T14:48:14Z</time><pdop>9.0</pdop><geoidheight>54.00</geoidheight><course>200.5</course><type>1</type></trkpt>
      <trkpt lat="40.54684605" lon="-4.83035992"><ele>2495</ele><speed>8.96</speed><time>2016-07-01T14:48:17Z</time><pdop>9.0</pdop><geoidheight>54.00</geoidheight><course>212.6</course><type>1</type></trkpt>
      <trkpt lat="40.54670577" lon="-4.83046797"><ele>2496</ele><speed>8.92</speed><time>2016-07-01T14:48:19Z</time><pdop>9.0</pdop><geoidheight>54.00</geoidheight><course>208.4</course><type>1</type></trkpt>
      <trkpt lat="40.54654436" lon="-4.8305717"><ele>2495</ele><speed>9.72</speed><time>2016-07-01T14:48:21Z</time><pdop>9.0</pdop><geoidheight>54.00</geoidheight><course>207.1</course><type>1</type></trkpt>
      <trkpt lat="40.54640577" lon="-4.83068694"><ele>2493</ele><speed>9.91</speed><time>2016-07-01T14:48:23Z</time><pdop>9.0</pdop><geoidheight>54.00</geoidheight><course>210.2</course><type>1</type></trkpt>
      <trkpt lat="40.54625966" lon="-4.83081013"><ele>2493</ele><speed>9.54</speed><time>2016-07-01T14:48:25Z</time><pdop>9.0</pdop><geoidheight>54.00</geoidheight><course>212.6</course><type>1</type></trkpt>
      <trkpt lat="40.54605847" lon="-4.83091211"><ele>2497</ele><speed>8.46</speed><time>2016-07-01T14:48:28Z</time><pdop>9.0</pdop><geoidheight>54.00</geoidheight><course>203.1</course><type>1</type></trkpt>
      <trkpt lat="40.54589126" lon="-4.83099026"><ele>2498</ele><speed>10.16</speed><time>2016-07-01T14:48:30Z</time><pdop>9.0</pdop><geoidheight>54.00</geoidheight><course>200.1</course><type>1</type></trkpt>
      <trkpt lat="40.54569824" lon="-4.83103776"><ele>2498</ele><speed>11.49</speed><time>2016-07-01T14:48:32Z</time><pdop>9.0</pdop><geoidheight>54.00</geoidheight><course>191.2</course><type>1</type></trkpt>
      <trkpt lat="40.54549113" lon="-4.83106212"><ele>2500</ele><speed>11.78</speed><time>2016-07-01T14:48:34Z</time><pdop>9.0</pdop><geoidheight>54.00</geoidheight><course>184.8</course><type>1</type></trkpt>
      <trkpt lat="40.54530385" lon="-4.83108368"><ele>2504</ele><speed>10.36</speed><time>2016-07-01T14:48:36Z</time><pdop>9.0</pdop><geoidheight>54.00</geoidheight><course>182.3</course><type>1</type></trkpt>
      <trkpt lat="40.54512054" lon="-4.83107664"><ele>2504</ele><speed>10.24</speed><time>2016-07-01T14:48:38Z</time><pdop>9.0</pdop><geoidheight>54.00</geoidheight><course>177.9</course><type>1</type></trkpt>
      <trkpt lat="40.54493528" lon="-4.83106015"><ele>2506</ele><speed>9.79</speed><time>2016-07-01T14:48:40Z</time><pdop>9.0</pdop><geoidheight>54.00</geoidheight><course>175.7</course><type>1</type></trkpt>
      <trkpt lat="40.5447631" lon="-4.83106929"><ele>2518</ele><speed>9.97</speed><time>2016-07-01T14:48:42Z</time><pdop>9.0</pdop><geoidheight>54.00</geoidheight><course>180.5</course><type>1</type></trkpt>
      <trkpt lat="40.54459549" lon="-4.83121835"><ele>2530</ele><speed>5.36</speed><time>2016-07-01T14:48:46Z</time><pdop>10.0</pdop><geoidheight>54.00</geoidheight><course>253.3</course><type>1</type></trkpt>
      <trkpt lat="40.54480928" lon="-4.83128245"><ele>2537</ele><speed>7.28</speed><time>2016-07-01T14:48:50Z</time><pdop>13.0</pdop><geoidheight>54.00</geoidheight><course>344.1</course><type>1</type></trkpt>
      <trkpt lat="40.54507287" lon="-4.8313116"><ele>2548</ele><speed>8.93</speed><time>2016-07-01T14:48:53Z</time><pdop>13.0</pdop><geoidheight>54.00</geoidheight><course>0.6</course><type>1</type></trkpt>
      <trkpt lat="40.54536229" lon="-4.83108769"><ele>2556</ele><speed>12.66</speed><time>2016-07-01T14:48:56Z</time><pdop>15.0</pdop><geoidheight>54.00</geoidheight><course>33.0</course><type>1</type></trkpt>
      <trkpt lat="40.54523452" lon="-4.83051079"><ele>2564</ele><speed>12.73</speed><time>2016-07-01T14:49:00Z</time><pdop>20.0</pdop><geoidheight>54.00</geoidheight><course>102.2</course><type>1</type></trkpt>
      <trkpt lat="40.54478094" lon="-4.8303474"><ele>2570</ele><speed>14.08</speed><time>2016-07-01T14:49:03Z</time><pdop>13.0</pdop><geoidheight>54.00</geoidheight><course>159.9</course><type>1</type></trkpt>
      <trkpt lat="40.54452951" lon="-4.83026184"><ele>2572</ele><speed>13.92</speed><time>2016-07-01T14:49:05Z</time><pdop>14.0</pdop><geoidheight>54.00</geoidheight><course>166.8</course><type>1</type></trkpt>
      <trkpt lat="40.54426549" lon="-4.83031645"><ele>2579</ele><speed>9.92</speed><time>2016-07-01T14:49:08Z</time><pdop>15.0</pdop><geoidheight>54.00</geoidheight><course>189.7</course><type>1</type></trkpt>
      <trkpt lat="40.54459515" lon="-4.83038442"><ele>2610</ele><speed>9.76</speed><time>2016-07-01T14:49:14Z</time><pdop>19.0</pdop><geoidheight>54.00</geoidheight><course>358.8</course><type>1</type></trkpt>
      <trkpt lat="40.54482995" lon="-4.82979392"><ele>2635</ele><speed>8.41</speed><time>2016-07-01T14:49:20Z</time><pdop>30.0</pdop><geoidheight>54.00</geoidheight><course>66.4</course><type>1</type></trkpt>
      <trkpt lat="40.5445827" lon="-4.82909358"><ele>2641</ele><speed>14.53</speed><time>2016-07-01T14:49:23Z</time><pdop>25.0</pdop><geoidheight>54.00</geoidheight><course>115.9</course><type>1</type></trkpt>
      <trkpt lat="40.54421277" lon="-4.82876237"><ele>2646</ele><speed>15.48</speed><time>2016-07-01T14:49:26Z</time><pdop>17.0</pdop><geoidheight>54.00</geoidheight><course>147.7</course><type>1</type></trkpt>
      <trkpt lat="40.54388787" lon="-4.82868417"><ele>2650</ele><speed>12.85</speed><time>2016-07-01T14:49:29Z</time><pdop>19.0</pdop><geoidheight>54.00</geoidheight><course>167.5</course><type>1</type></trkpt>
      <trkpt lat="40.54362389" lon="-4.82898158"><ele>2656</ele><speed>9.95</speed><time>2016-07-01T14:49:33Z</time><pdop>12.0</pdop><geoidheight>54.00</geoidheight><course>223.9</course><type>1</type></trkpt>
      <trkpt lat="40.54344731" lon="-4.829212"><ele>2663</ele><speed>8.48</speed><time>2016-07-01T14:49:36Z</time><pdop>11.0</pdop><geoidheight>54.00</geoidheight><course>224.9</course><type>1</type></trkpt>
      <trkpt lat="40.54325489" lon="-4.82940253"><ele>2667</ele><speed>8.56</speed><time>2016-07-01T14:49:39Z</time><pdop>11.0</pdop><geoidheight>54.00</geoidheight><course>218.8</course><type>1</type></trkpt>
      <trkpt lat="40.5430841" lon="-4.82951002"><ele>2671</ele><speed>9.60</speed><time>2016-07-01T14:49:41Z</time><pdop>8.0</pdop><geoidheight>54.00</geoidheight><course>206.1</course><type>1</type></trkpt>
      <trkpt lat="40.54290308" lon="-4.82958829"><ele>2673</ele><speed>9.85</speed><time>2016-07-01T14:49:43Z</time><pdop>9.0</pdop><geoidheight>54.00</geoidheight><course>197.1</course><type>1</type></trkpt>
      <trkpt lat="40.54272098" lon="-4.82963872"><ele>2677</ele><speed>9.51</speed><time>2016-07-01T14:49:45Z</time><pdop>8.0</pdop><geoidheight>54.00</geoidheight><course>194.5</course><type>1</type></trkpt>
      <trkpt lat="40.54254396" lon="-4.82969018"><ele>2694</ele><speed>8.92</speed><time>2016-07-01T14:49:47Z</time><pdop>9.0</pdop><geoidheight>54.00</geoidheight><course>200.1</course><type>1</type></trkpt>
      <trkpt lat="40.54237268" lon="-4.82987595"><ele>2709</ele><speed>7.90</speed><time>2016-07-01T14:49:50Z</time><pdop>12.0</pdop><geoidheight>54.00</geoidheight><course>246.6</course><type>1</type></trkpt>
      <trkpt lat="40.54257737" lon="-4.83007641"><ele>2724</ele><speed>8.83</speed><time>2016-07-01T14:49:54Z</time><pdop>10.0</pdop><geoidheight>54.00</geoidheight><course>334.2</course><type>1</type></trkpt>
      <trkpt lat="40.54277088" lon="-4.83014097"><ele>2734</ele><speed>4.88</speed><time>2016-07-01T14:49:58Z</time><pdop>11.0</pdop><geoidheight>54.00</geoidheight><course>347.5</course><type>1</type></trkpt>
      <trkpt lat="40.54297739" lon="-4.83019317"><ele>2748</ele><speed>6.75</speed><time>2016-07-01T14:50:03Z</time><pdop>11.0</pdop><geoidheight>54.00</geoidheight><course>350.9</course><type>1</type></trkpt>
      <trkpt lat="40.54317874" lon="-4.83042304"><ele>2759</ele><speed>6.82</speed><time>2016-07-01T14:50:08Z</time><pdop>12.0</pdop><geoidheight>54.00</geoidheight><course>328.1</course><type>1</type></trkpt>
      <trkpt lat="40.54334793" lon="-4.83064887"><ele>2767</ele><speed>8.02</speed><time>2016-07-01T14:50:11Z</time><pdop>12.0</pdop><geoidheight>54.00</geoidheight><course>328.0</course><type>1</type></trkpt>
      <trkpt lat="40.54362715" lon="-4.83055135"><ele>2780</ele><speed>9.02</speed><time>2016-07-01T14:50:15Z</time><pdop>13.0</pdop><geoidheight>54.00</geoidheight><course>20.3</course><type>1</type></trkpt>
      <trkpt lat="40.5435277" lon="-4.83014513"><ele>2792</ele><speed>7.31</speed><time>2016-07-01T14:50:18Z</time><pdop>13.0</pdop><geoidheight>54.00</geoidheight><course>89.0</course><type>1</type></trkpt>
      <trkpt lat="40.54338315" lon="-4.82977971"><ele>2795</ele><speed>11.84</speed><time>2016-07-01T14:50:20Z</time><pdop>14.0</pdop><geoidheight>54.00</geoidheight><course>111.8</course><type>1</type></trkpt>
      <trkpt lat="40.54320624" lon="-4.82953504"><ele>2798</ele><speed>11.98</speed><time>2016-07-01T14:50:22Z</time><pdop>14.0</pdop><geoidheight>54.00</geoidheight><course>123.9</course><type>1</type></trkpt>
      <trkpt lat="40.5428849" lon="-4.82955363"><ele>2803</ele><speed>10.01</speed><time>2016-07-01T14:50:25Z</time><pdop>15.0</pdop><geoidheight>54.00</geoidheight><course>162.4</course><type>1</type></trkpt>
      <trkpt lat="40.5432174" lon="-4.82960472"><ele>2827</ele><speed>9.19</speed><time>2016-07-01T14:50:34Z</time><pdop>16.0</pdop><geoidheight>54.00</geoidheight><course>42.2</course><type>1</type></trkpt>
      <trkpt lat="40.5429729" lon="-4.82919492"><ele>2834</ele><speed>9.64</speed><time>2016-07-01T14:50:40Z</time><pdop>21.0</pdop><geoidheight>54.00</geoidheight><course>143.3</course><type>1</type></trkpt>
      <trkpt lat="40.54256082" lon="-4.82891595"><ele>2848</ele><speed>10.19</speed><time>2016-07-01T14:50:44Z</time><pdop>27.0</pdop><geoidheight>54.00</geoidheight><course>147.7</course><type>1</type></trkpt>
      <trkpt lat="40.54285487" lon="-4.82947336"><ele>2870</ele><speed>7.54</speed><time>2016-07-01T14:50:52Z</time><pdop>26.0</pdop><geoidheight>54.00</geoidheight><course>337.4</course><type>1</type></trkpt>
      <trkpt lat="40.54334261" lon="-4.82962265"><ele>2880</ele><speed>14.17</speed><time>2016-07-01T14:50:55Z</time><pdop>20.0</pdop><geoidheight>54.00</geoidheight><course>359.6</course><type>1</type></trkpt>
      <trkpt lat="40.54373373" lon="-4.829608"><ele>2905</ele><speed>11.33</speed><time>2016-07-01T14:50:59Z</time><pdop>20.0</pdop><geoidheight>54.00</geoidheight><course>9.9</course><type>1</type></trkpt>
      <trkpt lat="40.54425959" lon="-4.82927083"><ele>2993</ele><speed>7.85</speed><time>2016-07-01T14:51:25Z</time><pdop>41.0</pdop><geoidheight>54.00</geoidheight><course>340.6</course><type>1</type></trkpt>
      <trkpt lat="40.54364708" lon="-4.82934221"><ele>3020</ele><speed>14.17</speed><time>2016-07-01T14:51:32Z</time><pdop>22.0</pdop><geoidheight>54.00</geoidheight><course>148.9</course><type>1</type></trkpt>
      <trkpt lat="40.54336269" lon="-4.8288587"><ele>3026</ele><speed>9.98</speed><time>2016-07-01T14:51:37Z</time><pdop>28.0</pdop><geoidheight>54.00</geoidheight><course>121.5</course><type>1</type></trkpt>
      <trkpt lat="40.54329619" lon="-4.82811758"><ele>3037</ele><speed>13.12</speed><time>2016-07-01T14:51:41Z</time><pdop>30.0</pdop><geoidheight>54.00</geoidheight><course>95.9</course><type>1</type></trkpt>
      <trkpt lat="40.54387832" lon="-4.82778661"><ele>3058</ele><speed>9.90</speed><time>2016-07-01T14:51:47Z</time><pdop>27.0</pdop><geoidheight>54.00</geoidheight><course>16.6</course><type>1</type></trkpt>
      <trkpt lat="40.54365353" lon="-4.82849182"><ele>3085</ele><speed>11.54</speed><time>2016-07-01T14:51:59Z</time><pdop>26.0</pdop><geoidheight>54.00</geoidheight><course>197.4</course><type>1</type></trkpt>
      <trkpt lat="40.54319701" lon="-4.82862928"><ele>3114</ele><speed>11.75</speed><time>2016-07-01T14:52:03Z</time><pdop>17.0</pdop><geoidheight>54.00</geoidheight><course>170.7</course><type>1</type></trkpt>
      <trkpt lat="40.54284476" lon="-4.8283584"><ele>3137</ele><speed>12.92</speed><time>2016-07-01T14:52:06Z</time><pdop>19.0</pdop><geoidheight>54.00</geoidheight><course>144.4</course><type>1</type></trkpt>
      <trkpt lat="40.54254332" lon="-4.82746227"><ele>3166</ele><speed>13.09</speed><time>2016-07-01T14:52:12Z</time><pdop>47.0</pdop><geoidheight>54.00</geoidheight><course>103.7</course><type>1</type></trkpt>
      <trkpt lat="40.54328759" lon="-4.82716486"><ele>3215</ele><speed>9.38</speed><time>2016-07-01T14:52:19Z</time><pdop>32.0</pdop><geoidheight>54.00</geoidheight><course>16.8</course><type>1</type></trkpt>
      <trkpt lat="40.54270685" lon="-4.82745377"><ele>3249</ele><speed>12.10</speed><time>2016-07-01T14:52:28Z</time><pdop>25.0</pdop><geoidheight>54.00</geoidheight><course>164.1</course><type>1</type></trkpt>
      <trkpt lat="40.54229042" lon="-4.82711467"><ele>3274</ele><speed>10.84</speed><time>2016-07-01T14:52:33Z</time><pdop>25.0</pdop><geoidheight>54.00</geoidheight><course>113.6</course><type>1</type></trkpt>
      <trkpt lat="40.54237271" lon="-4.82582177"><ele>3110</ele><speed>8.81</speed><time>2016-07-01T14:52:44Z</time><pdop>14.0</pdop><geoidheight>54.00</geoidheight><course>53.0</course><type>1</type></trkpt>
      <trkpt lat="40.54260872" lon="-4.82595514"><ele>3219</ele><speed>7.98</speed><time>2016-07-01T14:52:47Z</time><pdop>12.0</pdop><geoidheight>54.00</geoidheight><course>351.7</course><type>1</type></trkpt>
      <trkpt lat="40.54280987" lon="-4.82608669"><ele>3280</ele><speed>8.47</speed><time>2016-07-01T14:52:50Z</time><pdop>13.0</pdop><geoidheight>54.00</geoidheight><course>338.7</course><type>1</type></trkpt>
      <trkpt lat="40.54304738" lon="-4.82630659"><ele>3326</ele><speed>9.21</speed><time>2016-07-01T14:52:53Z</time><pdop>10.0</pdop><geoidheight>54.00</geoidheight><course>327.3</course><type>1</type></trkpt>
      <trkpt lat="40.54322941" lon="-4.82654601"><ele>3342</ele><speed>10.54</speed><time>2016-07-01T14:52:56Z</time><pdop>11.0</pdop><geoidheight>54.00</geoidheight><course>319.3</course><type>1</type></trkpt>
      <trkpt lat="40.54340859" lon="-4.82670336"><ele>3353</ele><speed>10.96</speed><time>2016-07-01T14:52:58Z</time><pdop>10.0</pdop><geoidheight>54.00</geoidheight><course>325.0</course><type>1</type></trkpt>
      <trkpt lat="40.54361851" lon="-4.82693608"><ele>3367</ele><speed>10.32</speed><time>2016-07-01T14:53:01Z</time><pdop>10.0</pdop><geoidheight>54.00</geoidheight><course>325.1</course><type>1</type></trkpt>
      <trkpt lat="40.54375388" lon="-4.8271055"><ele>3372</ele><speed>10.95</speed><time>2016-07-01T14:53:03Z</time><pdop>10.0</pdop><geoidheight>54.00</geoidheight><course>317.9</course><type>1</type></trkpt>
      <trkpt lat="40.54390382" lon="-4.82731278"><ele>3375</ele><speed>12.63</speed><time>2016-07-01T14:53:05Z</time><pdop>10.0</pdop><geoidheight>54.00</geoidheight><course>315.0</course><type>1</type></trkpt>
      <trkpt lat="40.54401063" lon="-4.82752008"><ele>3389</ele><speed>11.69</speed><time>2016-07-01T14:53:07Z</time><pdop>9.0</pdop><geoidheight>54.00</geoidheight><course>309.1</course><type>1</type></trkpt>
      <trkpt lat="40.54409483" lon="-4.82772532"><ele>3403</ele><speed>11.58</speed><time>2016-07-01T14:53:09Z</time><pdop>9.0</pdop><geoidheight>54.00</geoidheight><course>299.6</course><type>1</type></trkpt>
      <trkpt lat="40.54414901" lon="-4.82797661"><ele>3423</ele><speed>8.90</speed><time>2016-07-01T14:53:12Z</time><pdop>9.0</pdop><geoidheight>54.00</geoidheight><course>278.7</course><type>1</type></trkpt>
      <trkpt lat="40.54421201" lon="-4.82825734"><ele>3427</ele><speed>9.81</speed><time>2016-07-01T14:53:15Z</time><pdop>9.0</pdop><geoidheight>54.00</geoidheight><course>282.4</course><type>1</type></trkpt>
      <trkpt lat="40.54421957" lon="-4.82850412"><ele>3427</ele><speed>9.92</speed><time>2016-07-01T14:53:17Z</time><pdop>11.0</pdop><geoidheight>54.00</geoidheight><course>270.5</course><type>1</type></trkpt>
      <trkpt lat="40.54415842" lon="-4.82880779"><ele>3429</ele><speed>11.24</speed><time>2016-07-01T14:53:19Z</time><pdop>11.0</pdop><geoidheight>54.00</geoidheight><course>257.5</course><type>1</type></trkpt>
      <trkpt lat="40.54410414" lon="-4.82905967"><ele>3434</ele><speed>8.61</speed><time>2016-07-01T14:53:22Z</time><pdop>10.0</pdop><geoidheight>54.00</geoidheight><course>257.5</course><type>1</type></trkpt>
      <trkpt lat="40.54404717" lon="-4.8293315"><ele>3440</ele><speed>7.82</speed><time>2016-07-01T14:53:25Z</time><pdop>11.0</pdop><geoidheight>54.00</geoidheight><course>262.7</course><type>1</type></trkpt>
      <trkpt lat="40.54402799" lon="-4.82960564"><ele>3448</ele><speed>7.68</speed><time>2016-07-01T14:53:28Z</time><pdop>10.0</pdop><geoidheight>54.00</geoidheight><course>271.5</course><type>1</type></trkpt>
      <trkpt lat="40.54398034" lon="-4.82991462"><ele>3454</ele><speed>9.35</speed><time>2016-07-01T14:53:31Z</time><pdop>10.0</pdop><geoidheight>54.00</geoidheight><course>253.5</course><type>1</type></trkpt>
      <trkpt lat="40.54393576" lon="-4.83022672"><ele>3462</ele><speed>8.44</speed><time>2016-07-01T14:53:34Z</time><pdop>10.0</pdop><geoidheight>54.00</geoidheight><course>264.9</course><type>1</type></trkpt>
      <trkpt lat="40.5438663" lon="-4.83044579"><ele>3466</ele><speed>9.51</speed><time>2016-07-01T14:53:36Z</time><pdop>10.0</pdop><geoidheight>54.00</geoidheight><course>249.2</course><type>1</type></trkpt>
      <trkpt lat="40.54384671" lon="-4.83073162"><ele>3473</ele><speed>8.12</speed><time>2016-07-01T14:53:39Z</time><pdop>9.0</pdop><geoidheight>54.00</geoidheight><course>285.3</course><type>1</type></trkpt>
      <trkpt lat="40.54386562" lon="-4.83094866"><ele>3475</ele><speed>9.57</speed><time>2016-07-01T14:53:41Z</time><pdop>9.0</pdop><geoidheight>54.00</geoidheight><course>276.1</course><type>1</type></trkpt>
      <trkpt lat="40.54382641" lon="-4.83119435"><ele>3479</ele><speed>9.84</speed><time>2016-07-01T14:53:43Z</time><pdop>9.0</pdop><geoidheight>54.00</geoidheight><course>261.3</course><type>1</type></trkpt>
      <trkpt lat="40.54385551" lon="-4.83140742"><ele>3479</ele><speed>9.11</speed><time>2016-07-01T14:53:45Z</time><pdop>9.0</pdop><geoidheight>54.00</geoidheight><course>286.6</course><type>1</type></trkpt>
      <trkpt lat="40.54393843" lon="-4.83163202"><ele>3480</ele><speed>10.69</speed><time>2016-07-01T14:53:47Z</time><pdop>9.0</pdop><geoidheight>54.00</geoidheight><course>285.3</course><type>1</type></trkpt>
      <trkpt lat="40.54392746" lon="-4.83184628"><ele>3483</ele><speed>8.14</speed><time>2016-07-01T14:53:49Z</time><pdop>9.0</pdop><geoidheight>54.00</geoidheight><course>267.8</course><type>1</type></trkpt>
      <trkpt lat="40.54408393" lon="-4.83215181"><ele>3485</ele><speed>9.26</speed><time>2016-07-01T14:53:54Z</time><pdop>11.0</pdop><geoidheight>54.00</geoidheight><course>302.6</course><type>1</type></trkpt>
      <trkpt lat="40.54432698" lon="-4.83236236"><ele>3487</ele><speed>12.68</speed><time>2016-07-01T14:53:56Z</time><pdop>10.0</pdop><geoidheight>54.00</geoidheight><course>313.4</course><type>1</type></trkpt>
      <trkpt lat="40.54453862" lon="-4.832608"><ele>3491</ele><speed>14.00</speed><time>2016-07-01T14:53:58Z</time><pdop>10.0</pdop><geoidheight>54.00</geoidheight><course>319.7</course><type>1</type></trkpt>
      <trkpt lat="40.54471624" lon="-4.83269021"><ele>3494</ele><speed>10.45</speed><time>2016-07-01T14:54:00Z</time><pdop>10.0</pdop><geoidheight>54.00</geoidheight><course>332.8</course><type>1</type></trkpt>
      <trkpt lat="40.5449564" lon="-4.83290402"><ele>3496</ele><speed>11.36</speed><time>2016-07-01T14:54:03Z</time><pdop>11.0</pdop><geoidheight>54.00</geoidheight><course>321.9</course><type>1</type></trkpt>
      <trkpt lat="40.54518201" lon="-4.83307633"><ele>3509</ele><speed>10.50</speed><time>2016-07-01T14:54:06Z</time><pdop>11.0</pdop><geoidheight>54.00</geoidheight><course>332.1</course><type>1</type></trkpt>
      <trkpt lat="40.54489531" lon="-4.83268099"><ele>3495</ele><speed>5.46</speed><time>2016-07-01T14:54:17Z</time><pdop>21.0</pdop><geoidheight>54.00</geoidheight><course>131.9</course><type>1</type></trkpt>
      <trkpt lat="40.54453544" lon="-4.83290915"><ele>3485</ele><speed>9.44</speed><time>2016-07-01T14:54:20Z</time><pdop>22.0</pdop><geoidheight>54.00</geoidheight><course>201.0</course><type>1</type></trkpt>
      <trkpt lat="40.54462142" lon="-4.83332771"><ele>3475</ele><speed>6.20</speed><time>2016-07-01T14:54:32Z</time><pdop>12.0</pdop><geoidheight>54.00</geoidheight><course>246.3</course><type>1</type></trkpt>
      <trkpt lat="40.54453962" lon="-4.83374461"><ele>3475</ele><speed>12.63</speed><time>2016-07-01T14:54:35Z</time><pdop>11.0</pdop><geoidheight>54.00</geoidheight><course>257.1</course><type>1</type></trkpt>
      <trkpt lat="40.54451228" lon="-4.83405565"><ele>3479</ele><speed>12.02</speed><time>2016-07-01T14:54:37Z</time><pdop>10.0</pdop><geoidheight>54.00</geoidheight><course>261.6</course><type>1</type></trkpt>
      <trkpt lat="40.5445146" lon="-4.83431149"><ele>3487</ele><speed>10.76</speed><time>2016-07-01T14:54:39Z</time><pdop>10.0</pdop><geoidheight>54.00</geoidheight><course>275.2</course><type>1</type></trkpt>
      <trkpt lat="40.54454415" lon="-4.83456184"><ele>3489</ele><speed>11.05</speed><time>2016-07-01T14:54:41Z</time><pdop>10.0</pdop><geoidheight>54.00</geoidheight><course>279.3</course><type>1</type></trkpt>
      <trkpt lat="40.54460653" lon="-4.83483799"><ele>3492</ele><speed>11.38</speed><time>2016-07-01T14:54:43Z</time><pdop>10.0</pdop><geoidheight>54.00</geoidheight><course>284.8</course><type>1</type></trkpt>
      <trkpt lat="40.54465194" lon="-4.83510269"><ele>3495</ele><speed>11.19</speed><time>2016-07-01T14:54:45Z</time><pdop>10.0</pdop><geoidheight>54.00</geoidheight><course>284.1</course><type>1</type></trkpt>
      <trkpt lat="40.54475437" lon="-4.83537769"><ele>3496</ele><speed>12.84</speed><time>2016-07-01T14:54:47Z</time><pdop>10.0</pdop><geoidheight>54.00</geoidheight><course>293.4</course><type>1</type></trkpt>
      <trkpt lat="40.54487396" lon="-4.83567605"><ele>3498</ele><speed>13.80</speed><time>2016-07-01T14:54:49Z</time><pdop>10.0</pdop><geoidheight>54.00</geoidheight><course>300.7</course><type>1</type></trkpt>
      <trkpt lat="40.54500563" lon="-4.83594579"><ele>3501</ele><speed>13.37</speed><time>2016-07-01T14:54:51Z</time><pdop>10.0</pdop><geoidheight>54.00</geoidheight><course>304.4</course><type>1</type></trkpt>
      <trkpt lat="40.54511278" lon="-4.83619354"><ele>3502</ele><speed>12.57</speed><time>2016-07-01T14:54:53Z</time><pdop>10.0</pdop><geoidheight>54.00</geoidheight><course>307.4</course><type>1</type></trkpt>
      <trkpt lat="40.54526545" lon="-4.83643097"><ele>3501</ele><speed>12.50</speed><time>2016-07-01T14:54:55Z</time><pdop>10.0</pdop><geoidheight>54.00</geoidheight><course>305.6</course><type>1</type></trkpt>
      <trkpt lat="40.5453596" lon="-4.83669459"><ele>3500</ele><speed>12.58</speed><time>2016-07-01T14:54:57Z</time><pdop>10.0</pdop><geoidheight>54.00</geoidheight><course>294.8</course><type>1</type></trkpt>
      <trkpt lat="40.54542513" lon="-4.8369559"><ele>3498</ele><speed>12.50</speed><time>2016-07-01T14:54:59Z</time><pdop>10.0</pdop><geoidheight>54.00</geoidheight><course>288.3</course><type>1</type></trkpt>
      <trkpt lat="40.5455152" lon="-4.83722792"><ele>3495</ele><speed>12.54</speed><time>2016-07-01T14:55:01Z</time><pdop>10.0</pdop><geoidheight>54.00</geoidheight><course>288.6</course><type>1</type></trkpt>
      <trkpt lat="40.54573296" lon="-4.83738781"><ele>3486</ele><speed>12.16</speed><time>2016-07-01T14:55:03Z</time><pdop>10.0</pdop><geoidheight>54.00</geoidheight><course>304.2</course><type>1</type></trkpt>
      <trkpt lat="40.54590749" lon="-4.83760257"><ele>3485</ele><speed>12.37</speed><time>2016-07-01T14:55:05Z</time><pdop>9.0</pdop><geoidheight>54.00</geoidheight><course>309.5</course><type>1</type></trkpt>
      <trkpt lat="40.54607326" lon="-4.837811"><ele>3485</ele><speed>12.99</speed><time>2016-07-01T14:55:07Z</time><pdop>10.0</pdop><geoidheight>54.00</geoidheight><course>311.4</course><type>1</type></trkpt>
      <trkpt lat="40.54628269" lon="-4.83807969"><ele>3485</ele><speed>14.95</speed><time>2016-07-01T14:55:09Z</time><pdop>10.0</pdop><geoidheight>54.00</geoidheight><course>314.6</course><type>1</type></trkpt>
      <trkpt lat="40.54644511" lon="-4.83827651"><ele>3483</ele><speed>12.64</speed><time>2016-07-01T14:55:11Z</time><pdop>11.0</pdop><geoidheight>54.00</geoidheight><course>314.9</course><type>1</type></trkpt>
      <trkpt lat="40.54666994" lon="-4.83850248"><ele>3480</ele><speed>10.30</speed><time>2016-07-01T14:55:14Z</time><pdop>12.0</pdop><geoidheight>54.00</geoidheight><course>317.0</course><type>1</type></trkpt>
      <trkpt lat="40.54682727" lon="-4.83870965"><ele>3479</ele><speed>11.86</speed><time>2016-07-01T14:55:16Z</time><pdop>12.0</pdop><geoidheight>54.00</geoidheight><course>313.7</course><type>1</type></trkpt>
      <trkpt lat="40.54699073" lon="-4.83896114"><ele>3476</ele><speed>13.99</speed><time>2016-07-01T14:55:18Z</time><pdop>12.0</pdop><geoidheight>54.00</geoidheight><course>309.9</course><type>1</type></trkpt>
      <trkpt lat="40.54714792" lon="-4.83917373"><ele>3473</ele><speed>13.23</speed><time>2016-07-01T14:55:20Z</time><pdop>10.0</pdop><geoidheight>54.00</geoidheight><course>316.0</course><type>1</type></trkpt>
      <trkpt lat="40.54726806" lon="-4.83937528"><ele>3470</ele><speed>10.99</speed><time>2016-07-01T14:55:22Z</time><pdop>11.0</pdop><geoidheight>54.00</geoidheight><course>309.3</course><type>1</type></trkpt>
      <trkpt lat="40.54744038" lon="-4.83952649"><ele>3465</ele><speed>11.43</speed><time>2016-07-01T14:55:24Z</time><pdop>12.0</pdop><geoidheight>54.00</geoidheight><course>314.8</course><type>1</type></trkpt>
      <trkpt lat="40.54753388" lon="-4.83979224"><ele>3460</ele><speed>12.58</speed><time>2016-07-01T14:55:26Z</time><pdop>11.0</pdop><geoidheight>54.00</geoidheight><course>303.4</course><type>1</type></trkpt>
      <trkpt lat="40.54771936" lon="-4.84000934"><ele>3453</ele><speed>12.95</speed><time>2016-07-01T14:55:28Z</time><pdop>11.0</pdop><geoidheight>54.00</geoidheight><course>311.5</course><type>1</type></trkpt>
      <trkpt lat="40.54788284" lon="-4.84020171"><ele>3446</ele><speed>11.58</speed><time>2016-07-01T14:55:30Z</time><pdop>10.0</pdop><geoidheight>54.00</geoidheight><course>313.9</course><type>1</type></trkpt>
      <trkpt lat="40.54803832" lon="-4.84037865"><ele>3441</ele><speed>11.55</speed><time>2016-07-01T14:55:32Z</time><pdop>10.0</pdop><geoidheight>54.00</geoidheight><course>315.1</course><type>1</type></trkpt>
      <trkpt lat="40.54822823" lon="-4.84071078"><ele>3436</ele><speed>12.44</speed><time>2016-07-01T14:55:35Z</time><pdop>12.0</pdop><geoidheight>54.00</geoidheight><course>306.4</course><type>1</type></trkpt>
      <trkpt lat="40.54841751" lon="-4.84096158"><ele>3433</ele><speed>13.31</speed><time>2016-07-01T14:55:37Z</time><pdop>12.0</pdop><geoidheight>54.00</geoidheight><course>309.7</course><type>1</type></trkpt>
      <trkpt lat="40.54861814" lon="-4.8410817"><ele>3427</ele><speed>11.91</speed><time>2016-07-01T14:55:39Z</time><pdop>10.0</pdop><geoidheight>54.00</geoidheight><course>323.3</course><type>1</type></trkpt>
      <trkpt lat="40.54876889" lon="-4.84123477"><ele>3425</ele><speed>11.17</speed><time>2016-07-01T14:55:41Z</time><pdop>10.0</pdop><geoidheight>54.00</geoidheight><course>323.6</course><type>1</type></trkpt>
      <trkpt lat="40.54895709" lon="-4.84143528"><ele>3417</ele><speed>12.86</speed><time>2016-07-01T14:55:43Z</time><pdop>10.0</pdop><geoidheight>54.00</geoidheight><course>318.1</course><type>1</type></trkpt>
      <trkpt lat="40.54914543" lon="-4.8416043"><ele>3412</ele><speed>12.50</speed><time>2016-07-01T14:55:45Z</time><pdop>10.0</pdop><geoidheight>54.00</geoidheight><course>325.3</course><type>1</type></trkpt>
      <trkpt lat="40.54934811" lon="-4.84173973"><ele>3408</ele><speed>11.62</speed><time>2016-07-01T14:55:47Z</time><pdop>10.0</pdop><geoidheight>54.00</geoidheight><course>328.0</course><type>1</type></trkpt>
      <trkpt lat="40.54950725" lon="-4.8420084"><ele>3404</ele><speed>10.09</speed><time>2016-07-01T14:55:50Z</time><pdop>10.0</pdop><geoidheight>54.00</geoidheight><course>303.5</course><type>1</type></trkpt>
      <trkpt lat="40.54959217" lon="-4.84226226"><ele>3402</ele><speed>11.78</speed><time>2016-07-01T14:55:52Z</time><pdop>10.0</pdop><geoidheight>54.00</geoidheight><course>294.3</course><type>1</type></trkpt>
      <trkpt lat="40.54970216" lon="-4.84253574"><ele>3399</ele><speed>12.28</speed><time>2016-07-01T14:55:54Z</time><pdop>10.0</pdop><geoidheight>54.00</geoidheight><course>300.7</course><type>1</type></trkpt>
      <trkpt lat="40.54983531" lon="-4.84273529"><ele>3399</ele><speed>11.25</speed><time>2016-07-01T14:55:56Z</time><pdop>10.0</pdop><geoidheight>54.00</geoidheight><course>312.9</course><type>1</type></trkpt>
      <trkpt lat="40.54997907" lon="-4.8428878"><ele>3398</ele><speed>10.17</speed><time>2016-07-01T14:55:58Z</time><pdop>10.0</pdop><geoidheight>54.00</geoidheight><course>316.8</course><type>1</type></trkpt>
      <trkpt lat="40.55009698" lon="-4.84309703"><ele>3393</ele><speed>11.54</speed><time>2016-07-01T14:56:00Z</time><pdop>9.0</pdop><geoidheight>54.00</geoidheight><course>304.6</course><type>1</type></trkpt>
      <trkpt lat="40.5502392" lon="-4.84333487"><ele>3391</ele><speed>12.53</speed><time>2016-07-01T14:56:02Z</time><pdop>10.0</pdop><geoidheight>54.00</geoidheight><course>304.3</course><type>1</type></trkpt>
      <trkpt lat="40.55042265" lon="-4.84349629"><ele>3386</ele><speed>12.27</speed><time>2016-07-01T14:56:04Z</time><pdop>9.0</pdop><geoidheight>54.00</geoidheight><course>312.1</course><type>1</type></trkpt>
      <trkpt lat="40.55056235" lon="-4.84368132"><ele>3383</ele><speed>10.70</speed><time>2016-07-01T14:56:06Z</time><pdop>9.0</pdop><geoidheight>54.00</geoidheight><course>311.2</course><type>1</type></trkpt>
      <trkpt lat="40.55068696" lon="-4.84389051"><ele>3383</ele><speed>10.92</speed><time>2016-07-01T14:56:08Z</time><pdop>9.0</pdop><geoidheight>54.00</geoidheight><course>309.9</course><type>1</type></trkpt>
      <trkpt lat="40.55083813" lon="-4.8441071"><ele>3382</ele><speed>12.19</speed><time>2016-07-01T14:56:10Z</time><pdop>11.0</pdop><geoidheight>54.00</geoidheight><course>310.2</course><type>1</type></trkpt>
      <trkpt lat="40.55107167" lon="-4.84431461"><ele>3378</ele><speed>14.57</speed><time>2016-07-01T14:56:12Z</time><pdop>10.0</pdop><geoidheight>54.00</geoidheight><course>319.3</course><type>1</type></trkpt>
      <trkpt lat="40.55128236" lon="-4.84450552"><ele>3377</ele><speed>13.65</speed><time>2016-07-01T14:56:14Z</time><pdop>10.0</pdop><geoidheight>54.00</geoidheight><course>322.3</course><type>1</type></trkpt>
      <trkpt lat="40.55147272" lon="-4.84467471"><ele>3374</ele><speed>13.18</speed><time>2016-07-01T14:56:16Z</time><pdop>11.0</pdop><geoidheight>54.00</geoidheight><course>323.5</course><type>1</type></trkpt>
      <trkpt lat="40.55170179" lon="-4.84485706"><ele>3371</ele><speed>13.93</speed><time>2016-07-01T14:56:18Z</time><pdop>12.0</pdop><geoidheight>54.00</geoidheight><course>325.6</course><type>1</type></trkpt>
      <trkpt lat="40.55192417" lon="-4.84499138"><ele>3366</ele><speed>13.20</speed><time>2016-07-01T14:56:20Z</time><pdop>11.0</pdop><geoidheight>54.00</geoidheight><course>326.2</course><type>1</type></trkpt>
      <trkpt lat="40.55211669" lon="-4.84515476"><ele>3361</ele><speed>12.68</speed><time>2016-07-01T14:56:22Z</time><pdop>10.0</pdop><geoidheight>54.00</geoidheight><course>327.9</course><type>1</type></trkpt>
      <trkpt lat="40.55236085" lon="-4.8453148"><ele>3358</ele><speed>13.78</speed><time>2016-07-01T14:56:24Z</time><pdop>10.0</pdop><geoidheight>54.00</geoidheight><course>328.5</course><type>1</type></trkpt>
      <trkpt lat="40.55254536" lon="-4.84547667"><ele>3354</ele><speed>12.97</speed><time>2016-07-01T14:56:26Z</time><pdop>10.0</pdop><geoidheight>54.00</geoidheight><course>326.8</course><type>1</type></trkpt>
      <trkpt lat="40.55270718" lon="-4.84567558"><ele>3353</ele><speed>12.28</speed><time>2016-07-01T14:56:28Z</time><pdop>11.0</pdop><geoidheight>54.00</geoidheight><course>319.4</course><type>1</type></trkpt>
      <trkpt lat="40.55295364" lon="-4.84594722"><ele>3347</ele><speed>13.82</speed><time>2016-07-01T14:56:31Z</time><pdop>10.0</pdop><geoidheight>54.00</geoidheight><course>319.6</course><type>1</type></trkpt>
      <trkpt lat="40.55314016" lon="-4.84613261"><ele>3345</ele><speed>13.22</speed><time>2016-07-01T14:56:33Z</time><pdop>11.0</pdop><geoidheight>54.00</geoidheight><course>322.8</course><type>1</type></trkpt>
      <trkpt lat="40.55335748" lon="-4.84629558"><ele>3342</ele><speed>13.29</speed><time>2016-07-01T14:56:35Z</time><pdop>10.0</pdop><geoidheight>54.00</geoidheight><course>324.0</course><type>1</type></trkpt>
      <trkpt lat="40.55354815" lon="-4.84649389"><ele>3340</ele><speed>11.86</speed><time>2016-07-01T14:56:37Z</time><pdop>10.0</pdop><geoidheight>54.00</geoidheight><course>320.6</course><type>1</type></trkpt>
      <trkpt lat="40.55370455" lon="-4.84666213"><ele>3336</ele><speed>11.18</speed><time>2016-07-01T14:56:39Z</time><pdop>10.0</pdop><geoidheight>54.00</geoidheight><course>320.8</course><type>1</type></trkpt>
      <trkpt lat="40.55386694" lon="-4.84680022"><ele>3331</ele><speed>10.42</speed><time>2016-07-01T14:56:41Z</time><pdop>9.0</pdop><geoidheight>54.00</geoidheight><course>326.5</course><type>1</type></trkpt>
      <trkpt lat="40.55405465" lon="-4.84690074"><ele>3327</ele><speed>10.79</speed><time>2016-07-01T14:56:43Z</time><pdop>10.0</pdop><geoidheight>54.00</geoidheight><course>330.0</course><type>1</type></trkpt>
      <trkpt lat="40.55425684" lon="-4.84716976"><ele>3323</ele><speed>14.48</speed><time>2016-07-01T14:56:45Z</time><pdop>10.0</pdop><geoidheight>54.00</geoidheight><course>317.4</course><type>1</type></trkpt>
      <trkpt lat="40.55442291" lon="-4.8474047"><ele>3322</ele><speed>13.73</speed><time>2016-07-01T14:56:47Z</time><pdop>10.0</pdop><geoidheight>54.00</geoidheight><course>315.3</course><type>1</type></trkpt>
      <trkpt lat="40.55460977" lon="-4.84757476"><ele>3317</ele><speed>13.52</speed><time>2016-07-01T14:56:49Z</time><pdop>10.0</pdop><geoidheight>54.00</geoidheight><course>322.3</course><type>1</type></trkpt>
      <trkpt lat="40.55482027" lon="-4.84776999"><ele>3312</ele><speed>13.26</speed><time>2016-07-01T14:56:51Z</time><pdop>10.0</pdop><geoidheight>54.00</geoidheight><course>324.8</course><type>1</type></trkpt>
      <trkpt lat="40.55500115" lon="-4.84798118"><ele>3309</ele><speed>13.03</speed><time>2016-07-01T14:56:53Z</time><pdop>11.0</pdop><geoidheight>54.00</geoidheight><course>319.6</course><type>1</type></trkpt>
      <trkpt lat="40.5551923" lon="-4.84814181"><ele>3303</ele><speed>13.05</speed><time>2016-07-01T14:56:55Z</time><pdop>10.0</pdop><geoidheight>54.00</geoidheight><course>322.4</course><type>1</type></trkpt>
      <trkpt lat="40.55537612" lon="-4.84832643"><ele>3298</ele><speed>13.57</speed><time>2016-07-01T14:56:57Z</time><pdop>10.0</pdop><geoidheight>54.00</geoidheight><course>323.8</course><type>1</type></trkpt>
      <trkpt lat="40.55559217" lon="-4.84856682"><ele>3295</ele><speed>15.11</speed><time>2016-07-01T14:56:59Z</time><pdop>10.0</pdop><geoidheight>54.00</geoidheight><course>318.6</course><type>1</type></trkpt>
      <trkpt lat="40.55579112" lon="-4.84879326"><ele>3290</ele><speed>13.69</speed><time>2016-07-01T14:57:01Z</time><pdop>10.0</pdop><geoidheight>54.00</geoidheight><course>318.7</course><type>1</type></trkpt>
      <trkpt lat="40.55596316" lon="-4.84895682"><ele>3283</ele><speed>11.42</speed><time>2016-07-01T14:57:03Z</time><pdop>10.0</pdop><geoidheight>54.00</geoidheight><course>320.3</course><type>1</type></trkpt>
      <trkpt lat="40.55613017" lon="-4.84915288"><ele>3276</ele><speed>12.09</speed><time>2016-07-01T14:57:05Z</time><pdop>10.0</pdop><geoidheight>54.00</geoidheight><course>315.0</course><type>1</type></trkpt>
      <trkpt lat="40.55630773" lon="-4.84944682"><ele>3272</ele><speed>15.32</speed><time>2016-07-01T14:57:07Z</time><pdop>11.0</pdop><geoidheight>54.00</geoidheight><course>311.2</course><type>1</type></trkpt>
      <trkpt lat="40.55653184" lon="-4.84968931"><ele>3265</ele><speed>15.96</speed><time>2016-07-01T14:57:09Z</time><pdop>11.0</pdop><geoidheight>54.00</geoidheight><course>317.9</course><type>1</type></trkpt>
      <trkpt lat="40.55673205" lon="-4.84985835"><ele>3260</ele><speed>13.77</speed><time>2016-07-01T14:57:11Z</time><pdop>12.0</pdop><geoidheight>54.00</geoidheight><course>323.2</course><type>1</type></trkpt>
      <trkpt lat="40.55693197" lon="-4.84997937"><ele>3254</ele><speed>12.57</speed><time>2016-07-01T14:57:13Z</time><pdop>11.0</pdop><geoidheight>54.00</geoidheight><course>330.6</course><type>1</type></trkpt>
      <trkpt lat="40.55712764" lon="-4.8501502"><ele>3249</ele><speed>13.10</speed><time>2016-07-01T14:57:15Z</time><pdop>11.0</pdop><geoidheight>54.00</geoidheight><course>324.2</course><type>1</type></trkpt>
      <trkpt lat="40.55732504" lon="-4.85034164"><ele>3245</ele><speed>13.13</speed><time>2016-07-01T14:57:17Z</time><pdop>11.0</pdop><geoidheight>54.00</geoidheight><course>323.6</course><type>1</type></trkpt>
      <trkpt lat="40.55751804" lon="-4.85053579"><ele>3243</ele><speed>13.09</speed><time>2016-07-01T14:57:19Z</time><pdop>11.0</pdop><geoidheight>54.00</geoidheight><course>324.7</course><type>1</type></trkpt>
      <trkpt lat="40.55774022" lon="-4.85068399"><ele>3237</ele><speed>13.54</speed><time>2016-07-01T14:57:21Z</time><pdop>11.0</pdop><geoidheight>54.00</geoidheight><course>327.7</course><type>1</type></trkpt>
      <trkpt lat="40.55792986" lon="-4.85085957"><ele>3234</ele><speed>13.21</speed><time>2016-07-01T14:57:23Z</time><pdop>11.0</pdop><geoidheight>54.00</geoidheight><course>323.7</course><type>1</type></trkpt>
      <trkpt lat="40.55826831" lon="-4.85106405"><ele>2947</ele><speed>13.18</speed><time>2016-07-01T14:57:26Z</time><pdop>13.0</pdop><geoidheight>54.00</geoidheight><course>331.3</course><type>1</type></trkpt>
      <trkpt lat="40.55850522" lon="-4.85121357"><ele>3011</ele><speed>13.92</speed><time>2016-07-01T14:57:28Z</time><pdop>11.0</pdop><geoidheight>54.00</geoidheight><course>332.7</course><type>1</type></trkpt>
      <trkpt lat="40.55874103" lon="-4.85134872"><ele>3084</ele><speed>13.18</speed><time>2016-07-01T14:57:30Z</time><pdop>11.0</pdop><geoidheight>54.00</geoidheight><course>334.1</course><type>1</type></trkpt>
      <trkpt lat="40.55896476" lon="-4.85149352"><ele>3143</ele><speed>12.94</speed><time>2016-07-01T14:57:32Z</time><pdop>10.0</pdop><geoidheight>54.00</geoidheight><course>330.2</course><type>1</type></trkpt>
      <trkpt lat="40.55916241" lon="-4.85163416"><ele>3165</ele><speed>12.29</speed><time>2016-07-01T14:57:34Z</time><pdop>12.0</pdop><geoidheight>54.00</geoidheight><course>332.0</course><type>1</type></trkpt>
      <trkpt lat="40.5594379" lon="-4.85178064"><ele>3172</ele><speed>13.55</speed><time>2016-07-01T14:57:36Z</time><pdop>10.0</pdop><geoidheight>54.00</geoidheight><course>337.6</course><type>1</type></trkpt>
      <trkpt lat="40.55964272" lon="-4.85190467"><ele>3180</ele><speed>13.64</speed><time>2016-07-01T14:57:38Z</time><pdop>10.0</pdop><geoidheight>54.00</geoidheight><course>332.1</course><type>1</type></trkpt>
      <trkpt lat="40.55986857" lon="-4.85207749"><ele>3180</ele><speed>13.53</speed><time>2016-07-01T14:57:40Z</time><pdop>11.0</pdop><geoidheight>54.00</geoidheight><course>330.1</course><type>1</type></trkpt>
      <trkpt lat="40.56001821" lon="-4.85227049"><ele>3178</ele><speed>13.12</speed><time>2016-07-01T14:57:42Z</time><pdop>11.0</pdop><geoidheight>54.00</geoidheight><course>322.6</course><type>1</type></trkpt>
      <trkpt lat="40.56016442" lon="-4.85254797"><ele>3176</ele><speed>13.71</speed><time>2016-07-01T14:57:44Z</time><pdop>11.0</pdop><geoidheight>54.00</geoidheight><course>312.6</course><type>1</type></trkpt>
      <trkpt lat="40.5603146" lon="-4.85277924"><ele>3178</ele><speed>12.26</speed><time>2016-07-01T14:57:46Z</time><pdop>10.0</pdop><geoidheight>54.00</geoidheight><course>312.2</course><type>1</type></trkpt>
      <trkpt lat="40.56047083" lon="-4.85301358"><ele>3178</ele><speed>12.87</speed><time>2016-07-01T14:57:48Z</time><pdop>10.0</pdop><geoidheight>54.00</geoidheight><course>310.5</course><type>1</type></trkpt>
      <trkpt lat="40.56065341" lon="-4.853213"><ele>3173</ele><speed>13.42</speed><time>2016-07-01T14:57:50Z</time><pdop>9.0</pdop><geoidheight>54.00</geoidheight><course>312.0</course><type>1</type></trkpt>
      <trkpt lat="40.56083153" lon="-4.85344544"><ele>3170</ele><speed>13.79</speed><time>2016-07-01T14:57:52Z</time><pdop>9.0</pdop><geoidheight>54.00</geoidheight><course>312.3</course><type>1</type></trkpt>
      <trkpt lat="40.56101271" lon="-4.85366098"><ele>3166</ele><speed>13.48</speed><time>2016-07-01T14:57:54Z</time><pdop>9.0</pdop><geoidheight>54.00</geoidheight><course>315.2</course><type>1</type></trkpt>
      <trkpt lat="40.56118479" lon="-4.85388729"><ele>3160</ele><speed>13.43</speed><time>2016-07-01T14:57:56Z</time><pdop>9.0</pdop><geoidheight>54.00</geoidheight><course>312.4</course><type>1</type></trkpt>
      <trkpt lat="40.561333" lon="-4.85413877"><ele>3153</ele><speed>13.35</speed><time>2016-07-01T14:57:58Z</time><pdop>10.0</pdop><geoidheight>54.00</geoidheight><course>305.9</course><type>1</type></trkpt>
      <trkpt lat="40.56149439" lon="-4.85439424"><ele>3150</ele><speed>13.53</speed><time>2016-07-01T14:58:00Z</time><pdop>10.0</pdop><geoidheight>54.00</geoidheight><course>308.0</course><type>1</type></trkpt>
      <trkpt lat="40.56161565" lon="-4.85465602"><ele>3148</ele><speed>13.36</speed><time>2016-07-01T14:58:02Z</time><pdop>11.0</pdop><geoidheight>54.00</geoidheight><course>302.8</course><type>1</type></trkpt>
      <trkpt lat="40.56175996" lon="-4.85490168"><ele>3145</ele><speed>14.01</speed><time>2016-07-01T14:58:04Z</time><pdop>10.0</pdop><geoidheight>54.00</geoidheight><course>304.8</course><type>1</type></trkpt>
      <trkpt lat="40.56193365" lon="-4.85512182"><ele>3142</ele><speed>13.31</speed><time>2016-07-01T14:58:06Z</time><pdop>11.0</pdop><geoidheight>54.00</geoidheight><course>308.8</course><type>1</type></trkpt>
      <trkpt lat="40.56211507" lon="-4.85535052"><ele>3141</ele><speed>13.82</speed><time>2016-07-01T14:58:08Z</time><pdop>11.0</pdop><geoidheight>54.00</geoidheight><course>314.6</course><type>1</type></trkpt>
      <trkpt lat="40.56240875" lon="-4.85542014"><ele>3132</ele><speed>13.00</speed><time>2016-07-01T14:58:10Z</time><pdop>10.0</pdop><geoidheight>54.00</geoidheight><course>325.7</course><type>1</type></trkpt>
      <trkpt lat="40.56258753" lon="-4.85560663"><ele>3129</ele><speed>12.21</speed><time>2016-07-01T14:58:12Z</time><pdop>10.0</pdop><geoidheight>54.00</geoidheight><course>322.8</course><type>1</type></trkpt>
      <trkpt lat="40.56269044" lon="-4.85586561"><ele>3126</ele><speed>11.72</speed><time>2016-07-01T14:58:14Z</time><pdop>10.0</pdop><geoidheight>54.00</geoidheight><course>304.3</course><type>1</type></trkpt>
      <trkpt lat="40.56278658" lon="-4.85609709"><ele>3123</ele><speed>11.96</speed><time>2016-07-01T14:58:16Z</time><pdop>10.0</pdop><geoidheight>54.00</geoidheight><course>296.3</course><type>1</type></trkpt>
      <trkpt lat="40.56297589" lon="-4.85633642"><ele>3120</ele><speed>13.61</speed><time>2016-07-01T14:58:18Z</time><pdop>10.0</pdop><geoidheight>54.00</geoidheight><course>307.2</course><type>1</type></trkpt>
      <trkpt lat="40.56314312" lon="-4.85659683"><ele>3117</ele><speed>13.21</speed><time>2016-07-01T14:58:20Z</time><pdop>10.0</pdop><geoidheight>54.00</geoidheight><course>308.2</course><type>1</type></trkpt>
      <trkpt lat="40.56326354" lon="-4.85684507"><ele>3116</ele><speed>11.84</speed><time>2016-07-01T14:58:22Z</time><pdop>10.0</pdop><geoidheight>54.00</geoidheight><course>303.1</course><type>1</type></trkpt>
      <trkpt lat="40.56336936" lon="-4.85708089"><ele>3114</ele><speed>11.77</speed><time>2016-07-01T14:58:24Z</time><pdop>10.0</pdop><geoidheight>54.00</geoidheight><course>297.9</course><type>1</type></trkpt>
      <trkpt lat="40.56350468" lon="-4.85734186"><ele>3111</ele><speed>12.72</speed><time>2016-07-01T14:58:26Z</time><pdop>10.0</pdop><geoidheight>54.00</geoidheight><course>303.2</course><type>1</type></trkpt>
      <trkpt lat="40.56367064" lon="-4.85754756"><ele>3110</ele><speed>12.57</speed><time>2016-07-01T14:58:28Z</time><pdop>10.0</pdop><geoidheight>54.00</geoidheight><course>315.2</course><type>1</type></trkpt>
      <trkpt lat="40.56386727" lon="-4.85769774"><ele>3106</ele><speed>11.81</speed><time>2016-07-01T14:58:30Z</time><pdop>10.0</pdop><geoidheight>54.00</geoidheight><course>316.1</course><type>1</type></trkpt>
      <trkpt lat="40.56403031" lon="-4.85784324"><ele>3105</ele><speed>10.36</speed><time>2016-07-01T14:58:32Z</time><pdop>10.0</pdop><geoidheight>54.00</geoidheight><course>323.7</course><type>1</type></trkpt>
      <trkpt lat="40.56418792" lon="-4.8580182"><ele>3106</ele><speed>7.70</speed><time>2016-07-01T14:58:35Z</time><pdop>9.0</pdop><geoidheight>54.00</geoidheight><course>324.9</course><type>1</type></trkpt>
      <trkpt lat="40.56433229" lon="-4.85814225"><ele>3104</ele><speed>6.73</speed><time>2016-07-01T14:58:38Z</time><pdop>9.0</pdop><geoidheight>54.00</geoidheight><course>318.9</course><type>1</type></trkpt>
      <trkpt lat="40.56444715" lon="-4.85836049"><ele>3104</ele><speed>7.94</speed><time>2016-07-01T14:58:41Z</time><pdop>9.0</pdop><geoidheight>54.00</geoidheight><course>308.9</course><type>1</type></trkpt>
      <trkpt lat="40.56454178" lon="-4.85855129"><ele>3105</ele><speed>8.87</speed><time>2016-07-01T14:58:43Z</time><pdop>10.0</pdop><geoidheight>54.00</geoidheight><course>308.7</course><type>1</type></trkpt>
      <trkpt lat="40.56471382" lon="-4.85871094"><ele>3106</ele><speed>8.52</speed><time>2016-07-01T14:58:46Z</time><pdop>9.0</pdop><geoidheight>54.00</geoidheight><course>313.1</course><type>1</type></trkpt>
      <trkpt lat="40.56484653" lon="-4.85900805"><ele>3104</ele><speed>9.80</speed><time>2016-07-01T14:58:49Z</time><pdop>10.0</pdop><geoidheight>54.00</geoidheight><course>297.6</course><type>1</type></trkpt>
      <trkpt lat="40.56494648" lon="-4.85921492"><ele>3103</ele><speed>10.84</speed><time>2016-07-01T14:58:51Z</time><pdop>9.0</pdop><geoidheight>54.00</geoidheight><course>300.7</course><type>1</type></trkpt>
      <trkpt lat="40.56508595" lon="-4.85942286"><ele>3101</ele><speed>11.90</speed><time>2016-07-01T14:58:53Z</time><pdop>9.0</pdop><geoidheight>54.00</geoidheight><course>311.7</course><type>1</type></trkpt>
      <trkpt lat="40.56522196" lon="-4.85963317"><ele>3100</ele><speed>11.06</speed><time>2016-07-01T14:58:55Z</time><pdop>9.0</pdop><geoidheight>54.00</geoidheight><course>311.5</course><type>1</type></trkpt>
      <trkpt lat="40.56532016" lon="-4.85981671"><ele>3097</ele><speed>10.13</speed><time>2016-07-01T14:58:57Z</time><pdop>9.0</pdop><geoidheight>54.00</geoidheight><course>305.5</course><type>1</type></trkpt>
      <trkpt lat="40.56544546" lon="-4.86005546"><ele>3093</ele><speed>11.72</speed><time>2016-07-01T14:58:59Z</time><pdop>9.0</pdop><geoidheight>54.00</geoidheight><course>302.7</course><type>1</type></trkpt>
      <trkpt lat="40.56559614" lon="-4.86028208"><ele>3092</ele><speed>12.44</speed><time>2016-07-01T14:59:01Z</time><pdop>9.0</pdop><geoidheight>54.00</geoidheight><course>309.6</course><type>1</type></trkpt>
      <trkpt lat="40.56575318" lon="-4.86045421"><ele>3089</ele><speed>11.06</speed><time>2016-07-01T14:59:03Z</time><pdop>9.0</pdop><geoidheight>54.00</geoidheight><course>311.1</course><type>1</type></trkpt>
      <trkpt lat="40.56587747" lon="-4.86065994"><ele>3087</ele><speed>10.69</speed><time>2016-07-01T14:59:05Z</time><pdop>9.0</pdop><geoidheight>54.00</geoidheight><course>307.8</course><type>1</type></trkpt>
      <trkpt lat="40.56598334" lon="-4.8608657"><ele>3085</ele><speed>10.89</speed><time>2016-07-01T14:59:07Z</time><pdop>9.0</pdop><geoidheight>54.00</geoidheight><course>303.6</course><type>1</type></trkpt>
      <trkpt lat="40.56610481" lon="-4.86107797"><ele>3082</ele><speed>11.58</speed><time>2016-07-01T14:59:09Z</time><pdop>9.0</pdop><geoidheight>54.00</geoidheight><course>303.5</course><type>1</type></trkpt>
      <trkpt lat="40.56622089" lon="-4.86128314"><ele>3081</ele><speed>11.30</speed><time>2016-07-01T14:59:11Z</time><pdop>10.0</pdop><geoidheight>54.00</geoidheight><course>306.1</course><type>1</type></trkpt>
      <trkpt lat="40.56641501" lon="-4.86146025"><ele>3075</ele><speed>11.05</speed><time>2016-07-01T14:59:13Z</time><pdop>10.0</pdop><geoidheight>54.00</geoidheight><course>318.1</course><type>1</type></trkpt>
      <trkpt lat="40.56656627" lon="-4.8616425"><ele>3073</ele><speed>10.75</speed><time>2016-07-01T14:59:15Z</time><pdop>10.0</pdop><geoidheight>54.00</geoidheight><course>318.5</course><type>1</type></trkpt>
      <trkpt lat="40.56672553" lon="-4.86182468"><ele>3071</ele><speed>11.05</speed><time>2016-07-01T14:59:17Z</time><pdop>9.0</pdop><geoidheight>54.00</geoidheight><course>315.4</course><type>1</type></trkpt>
      <trkpt lat="40.56690318" lon="-4.86198295"><ele>3067</ele><speed>11.15</speed><time>2016-07-01T14:59:19Z</time><pdop>9.0</pdop><geoidheight>54.00</geoidheight><course>319.4</course><type>1</type></trkpt>
      <trkpt lat="40.56702918" lon="-4.86215106"><ele>3064</ele><speed>10.82</speed><time>2016-07-01T14:59:21Z</time><pdop>9.0</pdop><geoidheight>54.00</geoidheight><course>316.2</course><type>1</type></trkpt>
      <trkpt lat="40.56717429" lon="-4.86234415"><ele>3060</ele><speed>12.64</speed><time>2016-07-01T14:59:23Z</time><pdop>9.0</pdop><geoidheight>54.00</geoidheight><course>313.4</course><type>1</type></trkpt>
      <trkpt lat="40.56738355" lon="-4.86252651"><ele>3058</ele><speed>14.08</speed><time>2016-07-01T14:59:25Z</time><pdop>9.0</pdop><geoidheight>54.00</geoidheight><course>321.6</course><type>1</type></trkpt>
      <trkpt lat="40.56761268" lon="-4.86270182"><ele>3057</ele><speed>14.26</speed><time>2016-07-01T14:59:27Z</time><pdop>10.0</pdop><geoidheight>54.00</geoidheight><course>325.5</course><type>1</type></trkpt>
      <trkpt lat="40.5678238" lon="-4.86291215"><ele>3054</ele><speed>13.70</speed><time>2016-07-01T14:59:29Z</time><pdop>10.0</pdop><geoidheight>54.00</geoidheight><course>322.4</course><type>1</type></trkpt>
      <trkpt lat="40.56799176" lon="-4.86311454"><ele>3051</ele><speed>13.08</speed><time>2016-07-01T14:59:31Z</time><pdop>9.0</pdop><geoidheight>54.00</geoidheight><course>316.9</course><type>1</type></trkpt>
      <trkpt lat="40.56819906" lon="-4.86331428"><ele>3050</ele><speed>13.20</speed><time>2016-07-01T14:59:33Z</time><pdop>10.0</pdop><geoidheight>54.00</geoidheight><course>321.0</course><type>1</type></trkpt>
      <trkpt lat="40.56829232" lon="-4.86362849"><ele>3047</ele><speed>12.56</speed><time>2016-07-01T14:59:35Z</time><pdop>10.0</pdop><geoidheight>54.00</geoidheight><course>303.5</course><type>1</type></trkpt>
      <trkpt lat="40.56842994" lon="-4.86386203"><ele>3080</ele><speed>13.51</speed><time>2016-07-01T14:59:37Z</time><pdop>10.0</pdop><geoidheight>54.00</geoidheight><course>302.8</course><type>1</type></trkpt>
      <trkpt lat="40.56858599" lon="-4.86418317"><ele>3064</ele><speed>15.57</speed><time>2016-07-01T14:59:39Z</time><pdop>10.0</pdop><geoidheight>54.00</geoidheight><course>302.4</course><type>1</type></trkpt>
      <trkpt lat="40.56876467" lon="-4.86443586"><ele>3058</ele><speed>15.52</speed><time>2016-07-01T14:59:41Z</time><pdop>11.0</pdop><geoidheight>54.00</geoidheight><course>308.1</course><type>1</type></trkpt>
      <trkpt lat="40.56892315" lon="-4.86473544"><ele>3050</ele><speed>15.55</speed><time>2016-07-01T14:59:43Z</time><pdop>11.0</pdop><geoidheight>54.00</geoidheight><course>307.7</course><type>1</type></trkpt>
      <trkpt lat="40.5691362" lon="-4.86492327"><ele>3043</ele><speed>14.73</speed><time>2016-07-01T14:59:45Z</time><pdop>10.0</pdop><geoidheight>54.00</geoidheight><course>313.7</course><type>1</type></trkpt>
      <trkpt lat="40.56934473" lon="-4.86512151"><ele>3038</ele><speed>14.81</speed><time>2016-07-01T14:59:47Z</time><pdop>10.0</pdop><geoidheight>54.00</geoidheight><course>314.6</course><type>1</type></trkpt>
      <trkpt lat="40.56953699" lon="-4.8653403"><ele>3033</ele><speed>14.71</speed><time>2016-07-01T14:59:49Z</time><pdop>9.0</pdop><geoidheight>54.00</geoidheight><course>315.1</course><type>1</type></trkpt>
      <trkpt lat="40.56974385" lon="-4.86557105"><ele>3030</ele><speed>14.21</speed><time>2016-07-01T14:59:51Z</time><pdop>9.0</pdop><geoidheight>54.00</geoidheight><course>317.5</course><type>1</type></trkpt>
      <trkpt lat="40.56994419" lon="-4.86580813"><ele>3026</ele><speed>14.81</speed><time>2016-07-01T14:59:53Z</time><pdop>9.0</pdop><geoidheight>54.00</geoidheight><course>315.3</course><type>1</type></trkpt>
      <trkpt lat="40.5701553" lon="-4.86603183"><ele>3022</ele><speed>15.79</speed><time>2016-07-01T14:59:55Z</time><pdop>10.0</pdop><geoidheight>54.00</geoidheight><course>316.4</course><type>1</type></trkpt>
      <trkpt lat="40.57037264" lon="-4.8662808"><ele>3019</ele><speed>15.25</speed><time>2016-07-01T14:59:57Z</time><pdop>9.0</pdop><geoidheight>54.00</geoidheight><course>318.7</course><type>1</type></trkpt>
      <trkpt lat="40.57055244" lon="-4.86649918"><ele>3017</ele><speed>14.10</speed><time>2016-07-01T14:59:59Z</time><pdop>9.0</pdop><geoidheight>54.00</geoidheight><course>316.2</course><type>1</type></trkpt>
      <trkpt lat="40.57073717" lon="-4.86675626"><ele>3016</ele><speed>15.06</speed><time>2016-07-01T15:00:01Z</time><pdop>9.0</pdop><geoidheight>54.00</geoidheight><course>312.1</course><type>1</type></trkpt>
      <trkpt lat="40.57093445" lon="-4.86703161"><ele>3014</ele><speed>15.86</speed><time>2016-07-01T15:00:03Z</time><pdop>9.0</pdop><geoidheight>54.00</geoidheight><course>313.4</course><type>1</type></trkpt>
      <trkpt lat="40.57118997" lon="-4.86728156"><ele>3009</ele><speed>16.52</speed><time>2016-07-01T15:00:05Z</time><pdop>10.0</pdop><geoidheight>54.00</geoidheight><course>317.0</course><type>1</type></trkpt>
      <trkpt lat="40.57138324" lon="-4.86750807"><ele>3007</ele><speed>15.14</speed><time>2016-07-01T15:00:07Z</time><pdop>10.0</pdop><geoidheight>54.00</geoidheight><course>318.1</course><type>1</type></trkpt>
      <trkpt lat="40.57156326" lon="-4.86776557"><ele>3005</ele><speed>14.95</speed><time>2016-07-01T15:00:09Z</time><pdop>10.0</pdop><geoidheight>54.00</geoidheight><course>311.4</course><type>1</type></trkpt>
      <trkpt lat="40.57173563" lon="-4.86804228"><ele>3003</ele><speed>15.89</speed><time>2016-07-01T15:00:11Z</time><pdop>10.0</pdop><geoidheight>54.00</geoidheight><course>309.3</course><type>1</type></trkpt>
      <trkpt lat="40.57194389" lon="-4.86833915"><ele>3002</ele><speed>17.57</speed><time>2016-07-01T15:00:13Z</time><pdop>10.0</pdop><geoidheight>54.00</geoidheight><course>312.0</course><type>1</type></trkpt>
      <trkpt lat="40.57217819" lon="-4.86860317"><ele>2998</ele><speed>16.67</speed><time>2016-07-01T15:00:15Z</time><pdop>10.0</pdop><geoidheight>54.00</geoidheight><course>316.5</course><type>1</type></trkpt>
      <trkpt lat="40.57237176" lon="-4.86886581"><ele>2994</ele><speed>15.61</speed><time>2016-07-01T15:00:17Z</time><pdop>9.0</pdop><geoidheight>54.00</geoidheight><course>315.9</course><type>1</type></trkpt>
      <trkpt lat="40.57258673" lon="-4.86911766"><ele>2992</ele><speed>15.84</speed><time>2016-07-01T15:00:19Z</time><pdop>9.0</pdop><geoidheight>54.00</geoidheight><course>317.2</course><type>1</type></trkpt>
      <trkpt lat="40.5728101" lon="-4.86934292"><ele>2991</ele><speed>15.53</speed><time>2016-07-01T15:00:21Z</time><pdop>10.0</pdop><geoidheight>54.00</geoidheight><course>319.0</course><type>1</type></trkpt>
      <trkpt lat="40.57297829" lon="-4.86957096"><ele>2993</ele><speed>10.46</speed><time>2016-07-01T15:00:24Z</time><pdop>10.0</pdop><geoidheight>54.00</geoidheight><course>314.0</course><type>1</type></trkpt>
      <trkpt lat="40.57308105" lon="-4.86977883"><ele>2987</ele><speed>11.04</speed><time>2016-07-01T15:00:26Z</time><pdop>9.0</pdop><geoidheight>54.00</geoidheight><course>307.7</course><type>1</type></trkpt>
      <trkpt lat="40.57319503" lon="-4.8700156"><ele>2983</ele><speed>12.62</speed><time>2016-07-01T15:00:28Z</time><pdop>9.0</pdop><geoidheight>54.00</geoidheight><course>303.6</course><type>1</type></trkpt>
      <trkpt lat="40.57333724" lon="-4.87031659"><ele>2982</ele><speed>14.52</speed><time>2016-07-01T15:00:30Z</time><pdop>10.0</pdop><geoidheight>54.00</geoidheight><course>301.5</course><type>1</type></trkpt>
      <trkpt lat="40.57348375" lon="-4.8705781"><ele>2979</ele><speed>13.72</speed><time>2016-07-01T15:00:32Z</time><pdop>9.0</pdop><geoidheight>54.00</geoidheight><course>304.6</course><type>1</type></trkpt>
      <trkpt lat="40.57361614" lon="-4.87083305"><ele>2978</ele><speed>12.59</speed><time>2016-07-01T15:00:34Z</time><pdop>9.0</pdop><geoidheight>54.00</geoidheight><course>302.7</course><type>1</type></trkpt>
      <trkpt lat="40.57374311" lon="-4.87111387"><ele>2977</ele><speed>13.39</speed><time>2016-07-01T15:00:36Z</time><pdop>9.0</pdop><geoidheight>54.00</geoidheight><course>300.9</course><type>1</type></trkpt>
      <trkpt lat="40.57388238" lon="-4.87139919"><ele>2975</ele><speed>14.35</speed><time>2016-07-01T15:00:38Z</time><pdop>9.0</pdop><geoidheight>54.00</geoidheight><course>301.7</course><type>1</type></trkpt>
      <trkpt lat="40.57402825" lon="-4.87168157"><ele>2975</ele><speed>13.82</speed><time>2016-07-01T15:00:40Z</time><pdop>9.0</pdop><geoidheight>54.00</geoidheight><course>304.2</course><type>1</type></trkpt>
      <trkpt lat="40.57417192" lon="-4.8719319"><ele>2974</ele><speed>13.39</speed><time>2016-07-01T15:00:42Z</time><pdop>9.0</pdop><geoidheight>54.00</geoidheight><course>306.4</course><type>1</type></trkpt>
      <trkpt lat="40.57434767" lon="-4.87218883"><ele>2972</ele><speed>15.06</speed><time>2016-07-01T15:00:44Z</time><pdop>10.0</pdop><geoidheight>54.00</geoidheight><course>309.5</course><type>1</type></trkpt>
      <trkpt lat="40.57455303" lon="-4.87250522"><ele>2969</ele><speed>16.24</speed><time>2016-07-01T15:00:46Z</time><pdop>9.0</pdop><geoidheight>54.00</geoidheight><course>310.7</course><type>1</type></trkpt>
      <trkpt lat="40.57477491" lon="-4.87273821"><ele>2968</ele><speed>15.00</speed><time>2016-07-01T15:00:48Z</time><pdop>9.0</pdop><geoidheight>54.00</geoidheight><course>316.4</course><type>1</type></trkpt>
      <trkpt lat="40.57495024" lon="-4.87296172"><ele>2966</ele><speed>14.01</speed><time>2016-07-01T15:00:50Z</time><pdop>10.0</pdop><geoidheight>54.00</geoidheight><course>316.7</course><type>1</type></trkpt>
      <trkpt lat="40.57516326" lon="-4.87317326"><ele>2963</ele><speed>14.29</speed><time>2016-07-01T15:00:52Z</time><pdop>9.0</pdop><geoidheight>54.00</geoidheight><course>316.6</course><type>1</type></trkpt>
      <trkpt lat="40.57533931" lon="-4.87338755"><ele>2961</ele><speed>13.98</speed><time>2016-07-01T15:00:54Z</time><pdop>10.0</pdop><geoidheight>54.00</geoidheight><course>317.0</course><type>1</type></trkpt>
      <trkpt lat="40.57549465" lon="-4.87375117"><ele>2960</ele><speed>12.90</speed><time>2016-07-01T15:00:57Z</time><pdop>11.0</pdop><geoidheight>54.00</geoidheight><course>302.2</course><type>1</type></trkpt>
      <trkpt lat="40.57565484" lon="-4.87412845"><ele>2957</ele><speed>14.16</speed><time>2016-07-01T15:01:00Z</time><pdop>12.0</pdop><geoidheight>54.00</geoidheight><course>303.8</course><type>1</type></trkpt>
      <trkpt lat="40.57582546" lon="-4.87448569"><ele>2952</ele><speed>15.43</speed><time>2016-07-01T15:01:02Z</time><pdop>11.0</pdop><geoidheight>54.00</geoidheight><course>303.7</course><type>1</type></trkpt>
      <trkpt lat="40.57597823" lon="-4.87480405"><ele>2947</ele><speed>14.09</speed><time>2016-07-01T15:01:04Z</time><pdop>11.0</pdop><geoidheight>54.00</geoidheight><course>303.1</course><type>1</type></trkpt>
      <trkpt lat="40.57613651" lon="-4.87509044"><ele>2940</ele><speed>14.47</speed><time>2016-07-01T15:01:06Z</time><pdop>11.0</pdop><geoidheight>54.00</geoidheight><course>299.2</course><type>1</type></trkpt>
      <trkpt lat="40.57630296" lon="-4.87539941"><ele>2935</ele><speed>15.56</speed><time>2016-07-01T15:01:08Z</time><pdop>11.0</pdop><geoidheight>54.00</geoidheight><course>299.7</course><type>1</type></trkpt>
      <trkpt lat="40.57644969" lon="-4.87573028"><ele>2933</ele><speed>15.14</speed><time>2016-07-01T15:01:10Z</time><pdop>12.0</pdop><geoidheight>54.00</geoidheight><course>299.3</course><type>1</type></trkpt>
      <trkpt lat="40.57662991" lon="-4.87594029"><ele>2927</ele><speed>14.15</speed><time>2016-07-01T15:01:12Z</time><pdop>11.0</pdop><geoidheight>54.00</geoidheight><course>305.6</course><type>1</type></trkpt>
      <trkpt lat="40.57683978" lon="-4.87616598"><ele>2924</ele><speed>14.90</speed><time>2016-07-01T15:01:14Z</time><pdop>12.0</pdop><geoidheight>54.00</geoidheight><course>313.5</course><type>1</type></trkpt>
      <trkpt lat="40.57705433" lon="-4.87641678"><ele>2918</ele><speed>15.21</speed><time>2016-07-01T15:01:16Z</time><pdop>11.0</pdop><geoidheight>54.00</geoidheight><course>310.2</course><type>1</type></trkpt>
      <trkpt lat="40.57725843" lon="-4.87664925"><ele>2914</ele><speed>14.85</speed><time>2016-07-01T15:01:18Z</time><pdop>11.0</pdop><geoidheight>54.00</geoidheight><course>313.0</course><type>1</type></trkpt>
      <trkpt lat="40.5774501" lon="-4.87692677"><ele>2909</ele><speed>15.25</speed><time>2016-07-01T15:01:20Z</time><pdop>12.0</pdop><geoidheight>54.00</geoidheight><course>311.1</course><type>1</type></trkpt>
      <trkpt lat="40.577658" lon="-4.87713819"><ele>2902</ele><speed>15.12</speed><time>2016-07-01T15:01:22Z</time><pdop>12.0</pdop><geoidheight>54.00</geoidheight><course>313.0</course><type>1</type></trkpt>
      <trkpt lat="40.5778639" lon="-4.87740076"><ele>2897</ele><speed>15.71</speed><time>2016-07-01T15:01:24Z</time><pdop>11.0</pdop><geoidheight>54.00</geoidheight><course>312.8</course><type>1</type></trkpt>
      <trkpt lat="40.578066" lon="-4.87768928"><ele>2893</ele><speed>15.44</speed><time>2016-07-01T15:01:26Z</time><pdop>11.0</pdop><geoidheight>54.00</geoidheight><course>312.1</course><type>1</type></trkpt>
      <trkpt lat="40.57826909" lon="-4.87796253"><ele>2888</ele><speed>14.99</speed><time>2016-07-01T15:01:28Z</time><pdop>11.0</pdop><geoidheight>54.00</geoidheight><course>311.1</course><type>1</type></trkpt>
      <trkpt lat="40.57847159" lon="-4.87819915"><ele>2884</ele><speed>14.98</speed><time>2016-07-01T15:01:30Z</time><pdop>13.0</pdop><geoidheight>54.00</geoidheight><course>312.0</course><type>1</type></trkpt>
      <trkpt lat="40.57860309" lon="-4.87849037"><ele>2877</ele><speed>14.77</speed><time>2016-07-01T15:01:32Z</time><pdop>14.0</pdop><geoidheight>54.00</geoidheight><course>304.2</course><type>1</type></trkpt>
      <trkpt lat="40.5788227" lon="-4.87873726"><ele>2870</ele><speed>14.78</speed><time>2016-07-01T15:01:34Z</time><pdop>12.0</pdop><geoidheight>54.00</geoidheight><course>309.3</course><type>1</type></trkpt>
      <trkpt lat="40.57901127" lon="-4.87902488"><ele>2865</ele><speed>15.07</speed><time>2016-07-01T15:01:36Z</time><pdop>12.0</pdop><geoidheight>54.00</geoidheight><course>306.9</course><type>1</type></trkpt>
      <trkpt lat="40.57919352" lon="-4.87929091"><ele>2861</ele><speed>15.45</speed><time>2016-07-01T15:01:38Z</time><pdop>11.0</pdop><geoidheight>54.00</geoidheight><course>310.4</course><type>1</type></trkpt>
      <trkpt lat="40.5793703" lon="-4.87950937"><ele>2857</ele><speed>13.99</speed><time>2016-07-01T15:01:40Z</time><pdop>10.0</pdop><geoidheight>54.00</geoidheight><course>312.2</course><type>1</type></trkpt>
      <trkpt lat="40.5795622" lon="-4.87969137"><ele>2856</ele><speed>12.45</speed><time>2016-07-01T15:01:42Z</time><pdop>10.0</pdop><geoidheight>54.00</geoidheight><course>321.2</course><type>1</type></trkpt>
      <trkpt lat="40.57974487" lon="-4.87985092"><ele>2851</ele><speed>11.86</speed><time>2016-07-01T15:01:44Z</time><pdop>10.0</pdop><geoidheight>54.00</geoidheight><course>322.4</course><type>1</type></trkpt>
      <trkpt lat="40.5799357" lon="-4.88002934"><ele>2847</ele><speed>12.82</speed><time>2016-07-01T15:01:46Z</time><pdop>11.0</pdop><geoidheight>54.00</geoidheight><course>319.6</course><type>1</type></trkpt>
      <trkpt lat="40.58018921" lon="-4.88025161"><ele>2843</ele><speed>15.41</speed><time>2016-07-01T15:01:48Z</time><pdop>10.0</pdop><geoidheight>54.00</geoidheight><course>323.0</course><type>1</type></trkpt>
      <trkpt lat="40.58044501" lon="-4.88043193"><ele>2839</ele><speed>15.46</speed><time>2016-07-01T15:01:50Z</time><pdop>11.0</pdop><geoidheight>54.00</geoidheight><course>326.4</course><type>1</type></trkpt>
      <trkpt lat="40.58065738" lon="-4.88063054"><ele>2836</ele><speed>13.34</speed><time>2016-07-01T15:01:52Z</time><pdop>10.0</pdop><geoidheight>54.00</geoidheight><course>325.8</course><type>1</type></trkpt>
      <trkpt lat="40.58084527" lon="-4.88074442"><ele>2831</ele><speed>11.43</speed><time>2016-07-01T15:01:54Z</time><pdop>10.0</pdop><geoidheight>54.00</geoidheight><course>327.4</course><type>1</type></trkpt>
      <trkpt lat="40.58103716" lon="-4.8808891"><ele>2828</ele><speed>12.22</speed><time>2016-07-01T15:01:56Z</time><pdop>10.0</pdop><geoidheight>54.00</geoidheight><course>327.3</course><type>1</type></trkpt>
      <trkpt lat="40.58125389" lon="-4.88105636"><ele>2825</ele><speed>13.31</speed><time>2016-07-01T15:01:58Z</time><pdop>11.0</pdop><geoidheight>54.00</geoidheight><course>327.0</course><type>1</type></trkpt>
      <trkpt lat="40.58146702" lon="-4.88122"><ele>2821</ele><speed>12.81</speed><time>2016-07-01T15:02:00Z</time><pdop>11.0</pdop><geoidheight>54.00</geoidheight><course>328.5</course><type>1</type></trkpt>
      <trkpt lat="40.58170646" lon="-4.88124663"><ele>2817</ele><speed>12.22</speed><time>2016-07-01T15:02:02Z</time><pdop>11.0</pdop><geoidheight>54.00</geoidheight><course>340.8</course><type>1</type></trkpt>
      <trkpt lat="40.5819097" lon="-4.88136602"><ele>2812</ele><speed>11.76</speed><time>2016-07-01T15:02:04Z</time><pdop>11.0</pdop><geoidheight>54.00</geoidheight><course>335.9</course><type>1</type></trkpt>
      <trkpt lat="40.58213184" lon="-4.88155101"><ele>2810</ele><speed>13.76</speed><time>2016-07-01T15:02:06Z</time><pdop>11.0</pdop><geoidheight>54.00</geoidheight><course>329.0</course><type>1</type></trkpt>
      <trkpt lat="40.58234043" lon="-4.88173088"><ele>2805</ele><speed>14.01</speed><time>2016-07-01T15:02:08Z</time><pdop>12.0</pdop><geoidheight>54.00</geoidheight><course>326.8</course><type>1</type></trkpt>
      <trkpt lat="40.58254783" lon="-4.88198077"><ele>2801</ele><speed>12.82</speed><time>2016-07-01T15:02:10Z</time><pdop>11.0</pdop><geoidheight>54.00</geoidheight><course>323.5</course><type>1</type></trkpt>
      <trkpt lat="40.58278454" lon="-4.88213136"><ele>2794</ele><speed>10.02</speed><time>2016-07-01T15:02:13Z</time><pdop>12.0</pdop><geoidheight>54.00</geoidheight><course>327.3</course><type>1</type></trkpt>
      <trkpt lat="40.58298752" lon="-4.88232328"><ele>2790</ele><speed>12.29</speed><time>2016-07-01T15:02:15Z</time><pdop>12.0</pdop><geoidheight>54.00</geoidheight><course>323.6</course><type>1</type></trkpt>
      <trkpt lat="40.58322587" lon="-4.88247485"><ele>2784</ele><speed>13.33</speed><time>2016-07-01T15:02:17Z</time><pdop>13.0</pdop><geoidheight>54.00</geoidheight><course>325.8</course><type>1</type></trkpt>
      <trkpt lat="40.58342363" lon="-4.88261711"><ele>2780</ele><speed>12.73</speed><time>2016-07-01T15:02:19Z</time><pdop>12.0</pdop><geoidheight>54.00</geoidheight><course>328.9</course><type>1</type></trkpt>
      <trkpt lat="40.58362501" lon="-4.88277909"><ele>2776</ele><speed>12.17</speed><time>2016-07-01T15:02:21Z</time><pdop>13.0</pdop><geoidheight>54.00</geoidheight><course>328.3</course><type>1</type></trkpt>
      <trkpt lat="40.5838491" lon="-4.88296319"><ele>2772</ele><speed>12.84</speed><time>2016-07-01T15:02:23Z</time><pdop>15.0</pdop><geoidheight>54.00</geoidheight><course>328.2</course><type>1</type></trkpt>
      <trkpt lat="40.58407972" lon="-4.88319962"><ele>2765</ele><speed>11.81</speed><time>2016-07-01T15:02:26Z</time><pdop>14.0</pdop><geoidheight>54.00</geoidheight><course>318.7</course><type>1</type></trkpt>
      <trkpt lat="40.58427162" lon="-4.88353218"><ele>2756</ele><speed>10.97</speed><time>2016-07-01T15:02:29Z</time><pdop>14.0</pdop><geoidheight>54.00</geoidheight><course>312.0</course><type>1</type></trkpt>
      <trkpt lat="40.5843573" lon="-4.88385488"><ele>2738</ele><speed>5.83</speed><time>2016-07-01T15:02:35Z</time><pdop>13.0</pdop><geoidheight>54.00</geoidheight><course>304.4</course><type>1</type></trkpt>
      <trkpt lat="40.58453251" lon="-4.88409517"><ele>2721</ele><speed>6.57</speed><time>2016-07-01T15:02:41Z</time><pdop>14.0</pdop><geoidheight>54.00</geoidheight><course>312.4</course><type>1</type></trkpt>
      <trkpt lat="40.5848601" lon="-4.88430919"><ele>2712</ele><speed>8.80</speed><time>2016-07-01T15:02:45Z</time><pdop>17.0</pdop><geoidheight>54.00</geoidheight><course>326.6</course><type>1</type></trkpt>
      <trkpt lat="40.58524091" lon="-4.88450895"><ele>2702</ele><speed>9.88</speed><time>2016-07-01T15:02:50Z</time><pdop>22.0</pdop><geoidheight>54.00</geoidheight><course>347.8</course><type>1</type></trkpt>
      <trkpt lat="40.58567113" lon="-4.88456412"><ele>2694</ele><speed>10.14</speed><time>2016-07-01T15:02:55Z</time><pdop>21.0</pdop><geoidheight>54.00</geoidheight><course>345.5</course><type>1</type></trkpt>
      <trkpt lat="40.58597916" lon="-4.88498382"><ele>2681</ele><speed>10.80</speed><time>2016-07-01T15:03:00Z</time><pdop>24.0</pdop><geoidheight>54.00</geoidheight><course>321.0</course><type>1</type></trkpt>
      <trkpt lat="40.58635065" lon="-4.88516801"><ele>2670</ele><speed>11.47</speed><time>2016-07-01T15:03:03Z</time><pdop>19.0</pdop><geoidheight>54.00</geoidheight><course>333.0</course><type>1</type></trkpt>
      <trkpt lat="40.58675016" lon="-4.88533356"><ele>2658</ele><speed>9.71</speed><time>2016-07-01T15:03:07Z</time><pdop>20.0</pdop><geoidheight>54.00</geoidheight><course>339.3</course><type>1</type></trkpt>
      <trkpt lat="40.58704814" lon="-4.88548706"><ele>2645</ele><speed>9.62</speed><time>2016-07-01T15:03:11Z</time><pdop>15.0</pdop><geoidheight>54.00</geoidheight><course>333.9</course><type>1</type></trkpt>
      <trkpt lat="40.58731372" lon="-4.88563632"><ele>2640</ele><speed>10.56</speed><time>2016-07-01T15:03:14Z</time><pdop>15.0</pdop><geoidheight>54.00</geoidheight><course>344.6</course><type>1</type></trkpt>
      <trkpt lat="40.58761196" lon="-4.88578413"><ele>2630</ele><speed>8.52</speed><time>2016-07-01T15:03:18Z</time><pdop>19.0</pdop><geoidheight>54.00</geoidheight><course>337.1</course><type>1</type></trkpt>
      <trkpt lat="40.58795846" lon="-4.88594232"><ele>2618</ele><speed>12.47</speed><time>2016-07-01T15:03:21Z</time><pdop>18.0</pdop><geoidheight>54.00</geoidheight><course>336.9</course><type>1</type></trkpt>
      <trkpt lat="40.58828683" lon="-4.88608754"><ele>2607</ele><speed>10.11</speed><time>2016-07-01T15:03:25Z</time><pdop>14.0</pdop><geoidheight>54.00</geoidheight><course>346.6</course><type>1</type></trkpt>
      <trkpt lat="40.58859804" lon="-4.88617225"><ele>2599</ele><speed>10.58</speed><time>2016-07-01T15:03:28Z</time><pdop>14.0</pdop><geoidheight>54.00</geoidheight><course>345.9</course><type>1</type></trkpt>
      <trkpt lat="40.58886525" lon="-4.88639858"><ele>2585</ele><speed>9.41</speed><time>2016-07-01T15:03:32Z</time><pdop>12.0</pdop><geoidheight>54.00</geoidheight><course>337.5</course><type>1</type></trkpt>
      <trkpt lat="40.5891052" lon="-4.88653861"><ele>2575</ele><speed>9.20</speed><time>2016-07-01T15:03:35Z</time><pdop>12.0</pdop><geoidheight>54.00</geoidheight><course>334.2</course><type>1</type></trkpt>
      <trkpt lat="40.58936169" lon="-4.88669054"><ele>2567</ele><speed>9.86</speed><time>2016-07-01T15:03:38Z</time><pdop>12.0</pdop><geoidheight>54.00</geoidheight><course>335.4</course><type>1</type></trkpt>
      <trkpt lat="40.58957103" lon="-4.88672611"><ele>2560</ele><speed>9.77</speed><time>2016-07-01T15:03:40Z</time><pdop>11.0</pdop><geoidheight>54.00</geoidheight><course>344.6</course><type>1</type></trkpt>
      <trkpt lat="40.58978919" lon="-4.88673411"><ele>2555</ele><speed>8.86</speed><time>2016-07-01T15:03:43Z</time><pdop>11.0</pdop><geoidheight>54.00</geoidheight><course>355.1</course><type>1</type></trkpt>
      <trkpt lat="40.59011967" lon="-4.88680395"><ele>2552</ele><speed>12.24</speed><time>2016-07-01T15:03:46Z</time><pdop>13.0</pdop><geoidheight>54.00</geoidheight><course>345.3</course><type>1</type></trkpt>
      <trkpt lat="40.59033444" lon="-4.88698917"><ele>2549</ele><speed>12.93</speed><time>2016-07-01T15:03:48Z</time><pdop>13.0</pdop><geoidheight>54.00</geoidheight><course>335.9</course><type>1</type></trkpt>
      <trkpt lat="40.59055024" lon="-4.88707433"><ele>2549</ele><speed>6.36</speed><time>2016-07-01T15:03:52Z</time><pdop>10.0</pdop><geoidheight>54.00</geoidheight><course>0.3</course><type>1</type></trkpt>
      <trkpt lat="40.59073817" lon="-4.88706383"><ele>2548</ele><speed>8.18</speed><time>2016-07-01T15:03:55Z</time><pdop>10.0</pdop><geoidheight>54.00</geoidheight><course>353.7</course><type>1</type></trkpt>
      <trkpt lat="40.59099524" lon="-4.88704095"><ele>2552</ele><speed>10.27</speed><time>2016-07-01T15:03:58Z</time><pdop>10.0</pdop><geoidheight>54.00</geoidheight><course>8.3</course><type>1</type></trkpt>
      <trkpt lat="40.59124665" lon="-4.88692824"><ele>2553</ele><speed>10.56</speed><time>2016-07-01T15:04:01Z</time><pdop>13.0</pdop><geoidheight>54.00</geoidheight><course>20.3</course><type>1</type></trkpt>
      <trkpt lat="40.59144639" lon="-4.88677963"><ele>2556</ele><speed>11.96</speed><time>2016-07-01T15:04:03Z</time><pdop>11.0</pdop><geoidheight>54.00</geoidheight><course>28.9</course><type>1</type></trkpt>
      <trkpt lat="40.59162116" lon="-4.88661189"><ele>2555</ele><speed>12.07</speed><time>2016-07-01T15:04:05Z</time><pdop>11.0</pdop><geoidheight>54.00</geoidheight><course>33.2</course><type>1</type></trkpt>
      <trkpt lat="40.59178212" lon="-4.88646348"><ele>2555</ele><speed>15.73</speed><time>2016-07-01T15:04:06Z</time><pdop>10.0</pdop><geoidheight>54.00</geoidheight><course>33.9</course><type>1</type></trkpt>
      <trkpt lat="40.59199907" lon="-4.88619518"><ele>2555</ele><speed>15.47</speed><time>2016-07-01T15:04:08Z</time><pdop>10.0</pdop><geoidheight>54.00</geoidheight><course>40.1</course><type>1</type></trkpt>
      <trkpt lat="40.59207164" lon="-4.88593298"><ele>2560</ele><speed>12.29</speed><time>2016-07-01T15:04:10Z</time><pdop>10.0</pdop><geoidheight>54.00</geoidheight><course>60.7</course><type>1</type></trkpt>
      <trkpt lat="40.59209473" lon="-4.885635"><ele>2560</ele><speed>12.24</speed><time>2016-07-01T15:04:12Z</time><pdop>11.0</pdop><geoidheight>54.00</geoidheight><course>75.3</course><type>1</type></trkpt>
      <trkpt lat="40.59193061" lon="-4.88536477"><ele>2560</ele><speed>9.14</speed><time>2016-07-01T15:04:15Z</time><pdop>12.0</pdop><geoidheight>54.00</geoidheight><course>114.2</course><type>1</type></trkpt>
      <trkpt lat="40.5917968" lon="-4.88565389"><ele>2567</ele><speed>8.04</speed><time>2016-07-01T15:04:18Z</time><pdop>11.0</pdop><geoidheight>54.00</geoidheight><course>269.1</course><type>1</type></trkpt>
      <trkpt lat="40.59190533" lon="-4.88588011"><ele>2576</ele><speed>7.82</speed><time>2016-07-01T15:04:21Z</time><pdop>5.0</pdop><geoidheight>54.00</geoidheight><course>320.0</course><type>1</type></trkpt>
      <trkpt lat="40.59202602" lon="-4.88598775"><ele>2580</ele><speed>8.89</speed><time>2016-07-01T15:04:23Z</time><pdop>5.0</pdop><geoidheight>54.00</geoidheight><course>333.2</course><type>1</type></trkpt>
      <trkpt lat="40.59212848" lon="-4.88597884"><ele>2583</ele><speed>10.83</speed><time>2016-07-01T15:04:24Z</time><pdop>5.0</pdop><geoidheight>54.00</geoidheight><course>356.2</course><type>1</type></trkpt>
      <trkpt lat="40.59223849" lon="-4.88596924"><ele>2582</ele><speed>11.29</speed><time>2016-07-01T15:04:25Z</time><pdop>5.0</pdop><geoidheight>54.00</geoidheight><course>1.8</course><type>1</type></trkpt>
      <trkpt lat="40.59236756" lon="-4.88584334"><ele>2585</ele><speed>15.33</speed><time>2016-07-01T15:04:26Z</time><pdop>4.0</pdop><geoidheight>54.00</geoidheight><course>28.0</course><type>1</type></trkpt>
      <trkpt lat="40.5924765" lon="-4.88573228"><ele>2589</ele><speed>17.08</speed><time>2016-07-01T15:04:27Z</time><pdop>4.0</pdop><geoidheight>54.00</geoidheight><course>38.0</course><type>1</type></trkpt>
      <trkpt lat="40.59254197" lon="-4.88559035"><ele>2592</ele><speed>16.00</speed><time>2016-07-01T15:04:28Z</time><pdop>5.0</pdop><geoidheight>54.00</geoidheight><course>47.9</course><type>1</type></trkpt>
      <trkpt lat="40.59249456" lon="-4.88539537"><ele>2595</ele><speed>14.61</speed><time>2016-07-01T15:04:29Z</time><pdop>4.0</pdop><geoidheight>54.00</geoidheight><course>83.8</course><type>1</type></trkpt>
      <trkpt lat="40.59248102" lon="-4.88524159"><ele>2597</ele><speed>13.78</speed><time>2016-07-01T15:04:30Z</time><pdop>3.0</pdop><geoidheight>54.00</geoidheight><course>97.7</course><type>1</type></trkpt>
      <trkpt lat="40.59243674" lon="-4.88509918"><ele>2598</ele><speed>13.17</speed><time>2016-07-01T15:04:31Z</time><pdop>3.0</pdop><geoidheight>54.00</geoidheight><course>110.2</course><type>1</type></trkpt>
      <trkpt lat="40.59236682" lon="-4.88502769"><ele>2598</ele><speed>11.36</speed><time>2016-07-01T15:04:32Z</time><pdop>3.0</pdop><geoidheight>54.00</geoidheight><course>132.5</course><type>1</type></trkpt>
      <trkpt lat="40.59229319" lon="-4.88495219"><ele>2599</ele><speed>11.02</speed><time>2016-07-01T15:04:33Z</time><pdop>3.0</pdop><geoidheight>54.00</geoidheight><course>138.7</course><type>1</type></trkpt>
      <trkpt lat="40.59220869" lon="-4.88492457"><ele>2599</ele><speed>9.76</speed><time>2016-07-01T15:04:34Z</time><pdop>4.0</pdop><geoidheight>54.00</geoidheight><course>153.5</course><type>1</type></trkpt>
      <trkpt lat="40.59214902" lon="-4.88510752"><ele>2600</ele><speed>4.03</speed><time>2016-07-01T15:04:37Z</time><pdop>7.0</pdop><geoidheight>54.00</geoidheight><course>224.3</course><type>1</type></trkpt>
      <trkpt lat="40.59217414" lon="-4.88534478"><ele>2603</ele><speed>5.71</speed><time>2016-07-01T15:04:39Z</time><pdop>8.0</pdop><geoidheight>54.00</geoidheight><course>268.8</course><type>1</type></trkpt>
      <trkpt lat="40.59237111" lon="-4.88548134"><ele>2605</ele><speed>7.18</speed><time>2016-07-01T15:04:41Z</time><pdop>10.0</pdop><geoidheight>54.00</geoidheight><course>318.6</course><type>1</type></trkpt>
      <trkpt lat="40.59262031" lon="-4.88552769"><ele>2612</ele><speed>9.09</speed><time>2016-07-01T15:04:43Z</time><pdop>8.0</pdop><geoidheight>54.00</geoidheight><course>348.7</course><type>1</type></trkpt>
      <trkpt lat="40.59275905" lon="-4.88543064"><ele>2613</ele><speed>11.19</speed><time>2016-07-01T15:04:44Z</time><pdop>8.0</pdop><geoidheight>54.00</geoidheight><course>14.7</course><type>1</type></trkpt>
      <trkpt lat="40.59296772" lon="-4.88517629"><ele>2619</ele><speed>14.14</speed><time>2016-07-01T15:04:46Z</time><pdop>6.0</pdop><geoidheight>54.00</geoidheight><course>42.6</course><type>1</type></trkpt>
      <trkpt lat="40.59305726" lon="-4.885046"><ele>2621</ele><speed>14.86</speed><time>2016-07-01T15:04:47Z</time><pdop>6.0</pdop><geoidheight>54.00</geoidheight><course>45.1</course><type>1</type></trkpt>
      <trkpt lat="40.59316508" lon="-4.88494685"><ele>2624</ele><speed>15.01</speed><time>2016-07-01T15:04:48Z</time><pdop>6.0</pdop><geoidheight>54.00</geoidheight><course>46.1</course><type>1</type></trkpt>
      <trkpt lat="40.59324801" lon="-4.88480053"><ele>2626</ele><speed>15.00</speed><time>2016-07-01T15:04:49Z</time><pdop>7.0</pdop><geoidheight>54.00</geoidheight><course>48.6</course><type>1</type></trkpt>
      <trkpt lat="40.59319382" lon="-4.88460787"><ele>2625</ele><speed>13.79</speed><time>2016-07-01T15:04:50Z</time><pdop>7.0</pdop><geoidheight>54.00</geoidheight><course>72.6</course><type>1</type></trkpt>
      <trkpt lat="40.59310079" lon="-4.8843525"><ele>2628</ele><speed>11.65</speed><time>2016-07-01T15:04:52Z</time><pdop>5.0</pdop><geoidheight>54.00</geoidheight><course>109.4</course><type>1</type></trkpt>
      <trkpt lat="40.59305173" lon="-4.88423612"><ele>2629</ele><speed>10.83</speed><time>2016-07-01T15:04:53Z</time><pdop>5.0</pdop><geoidheight>54.00</geoidheight><course>122.1</course><type>1</type></trkpt>
      <trkpt lat="40.59298223" lon="-4.88414502"><ele>2630</ele><speed>10.55</speed><time>2016-07-01T15:04:54Z</time><pdop>5.0</pdop><geoidheight>54.00</geoidheight><course>133.5</course><type>1</type></trkpt>
      <trkpt lat="40.59290421" lon="-4.88408257"><ele>2631</ele><speed>9.69</speed><time>2016-07-01T15:04:55Z</time><pdop>4.0</pdop><geoidheight>54.00</geoidheight><course>145.7</course><type>1</type></trkpt>
      <trkpt lat="40.59283984" lon="-4.88403015"><ele>2632</ele><speed>8.76</speed><time>2016-07-01T15:04:56Z</time><pdop>4.0</pdop><geoidheight>54.00</geoidheight><course>159.9</course><type>1</type></trkpt>
      <trkpt lat="40.59276569" lon="-4.88400302"><ele>2632</ele><speed>8.77</speed><time>2016-07-01T15:04:57Z</time><pdop>4.0</pdop><geoidheight>54.00</geoidheight><course>164.4</course><type>1</type></trkpt>
      <trkpt lat="40.59265381" lon="-4.88412515"><ele>2632</ele><speed>8.29</speed><time>2016-07-01T15:04:59Z</time><pdop>3.0</pdop><geoidheight>54.00</geoidheight><course>219.3</course><type>1</type></trkpt>
      <trkpt lat="40.59262625" lon="-4.88422633"><ele>2632</ele><speed>8.33</speed><time>2016-07-01T15:05:00Z</time><pdop>4.0</pdop><geoidheight>54.00</geoidheight><course>240.2</course><type>1</type></trkpt>
      <trkpt lat="40.59263798" lon="-4.88440469"><ele>2635</ele><speed>8.66</speed><time>2016-07-01T15:05:02Z</time><pdop>3.0</pdop><geoidheight>54.00</geoidheight><course>279.6</course><type>1</type></trkpt>
      <trkpt lat="40.5926575" lon="-4.88449066"><ele>2636</ele><speed>7.77</speed><time>2016-07-01T15:05:03Z</time><pdop>3.0</pdop><geoidheight>54.00</geoidheight><course>286.2</course><type>1</type></trkpt>
      <trkpt lat="40.59270657" lon="-4.88456531"><ele>2636</ele><speed>7.54</speed><time>2016-07-01T15:05:04Z</time><pdop>4.0</pdop><geoidheight>54.00</geoidheight><course>302.2</course><type>1</type></trkpt>
      <trkpt lat="40.59275498" lon="-4.88464186"><ele>2638</ele><speed>7.91</speed><time>2016-07-01T15:05:05Z</time><pdop>4.0</pdop><geoidheight>54.00</geoidheight><course>310.0</course><type>1</type></trkpt>
      <trkpt lat="40.59282454" lon="-4.88469804"><ele>2637</ele><speed>8.28</speed><time>2016-07-01T15:05:06Z</time><pdop>4.0</pdop><geoidheight>54.00</geoidheight><course>316.2</course><type>1</type></trkpt>
      <trkpt lat="40.59291049" lon="-4.88472556"><ele>2637</ele><speed>8.31</speed><time>2016-07-01T15:05:07Z</time><pdop>5.0</pdop><geoidheight>54.00</geoidheight><course>337.1</course><type>1</type></trkpt>
      <trkpt lat="40.59308021" lon="-4.88470888"><ele>2637</ele><speed>8.83</speed><time>2016-07-01T15:05:09Z</time><pdop>6.0</pdop><geoidheight>54.00</geoidheight><course>3.8</course><type>1</type></trkpt>
      <trkpt lat="40.59331576" lon="-4.88458106"><ele>2636</ele><speed>11.14</speed><time>2016-07-01T15:05:11Z</time><pdop>8.0</pdop><geoidheight>54.00</geoidheight><course>20.9</course><type>1</type></trkpt>
      <trkpt lat="40.59338937" lon="-4.88442862"><ele>2639</ele><speed>13.33</speed><time>2016-07-01T15:05:12Z</time><pdop>6.0</pdop><geoidheight>54.00</geoidheight><course>37.1</course><type>1</type></trkpt>
      <trkpt lat="40.59345584" lon="-4.88427594"><ele>2642</ele><speed>13.63</speed><time>2016-07-01T15:05:13Z</time><pdop>6.0</pdop><geoidheight>54.00</geoidheight><course>47.0</course><type>1</type></trkpt>
      <trkpt lat="40.59351057" lon="-4.88413771"><ele>2643</ele><speed>13.04</speed><time>2016-07-01T15:05:14Z</time><pdop>6.0</pdop><geoidheight>54.00</geoidheight><course>52.1</course><type>1</type></trkpt>
      <trkpt lat="40.59351641" lon="-4.88387414"><ele>2646</ele><speed>10.69</speed><time>2016-07-01T15:05:16Z</time><pdop>6.0</pdop><geoidheight>54.00</geoidheight><course>71.8</course><type>1</type></trkpt>
      <trkpt lat="40.59346932" lon="-4.88370844"><ele>2645</ele><speed>11.46</speed><time>2016-07-01T15:05:17Z</time><pdop>6.0</pdop><geoidheight>54.00</geoidheight><course>85.6</course><type>1</type></trkpt>
      <trkpt lat="40.59344623" lon="-4.8835536"><ele>2645</ele><speed>12.20</speed><time>2016-07-01T15:05:18Z</time><pdop>6.0</pdop><geoidheight>54.00</geoidheight><course>93.4</course><type>1</type></trkpt>
      <trkpt lat="40.5934126" lon="-4.88339376"><ele>2646</ele><speed>12.93</speed><time>2016-07-01T15:05:19Z</time><pdop>6.0</pdop><geoidheight>54.00</geoidheight><course>102.6</course><type>1</type></trkpt>
      <trkpt lat="40.59330595" lon="-4.88338033"><ele>2644</ele><speed>12.47</speed><time>2016-07-01T15:05:20Z</time><pdop>5.0</pdop><geoidheight>54.00</geoidheight><course>132.7</course><type>1</type></trkpt>
      <trkpt lat="40.59321011" lon="-4.88328988"><ele>2644</ele><speed>12.20</speed><time>2016-07-01T15:05:21Z</time><pdop>5.0</pdop><geoidheight>54.00</geoidheight><course>141.4</course><type>1</type></trkpt>
      <trkpt lat="40.593118" lon="-4.8831937"><ele>2644</ele><speed>11.87</speed><time>2016-07-01T15:05:22Z</time><pdop>4.0</pdop><geoidheight>54.00</geoidheight><course>145.6</course><type>1</type></trkpt>
      <trkpt lat="40.59304062" lon="-4.88313147"><ele>2644</ele><speed>10.64</speed><time>2016-07-01T15:05:23Z</time><pdop>4.0</pdop><geoidheight>54.00</geoidheight><course>149.8</course><type>1</type></trkpt>
      <trkpt lat="40.59295933" lon="-4.88306398"><ele>2645</ele><speed>10.46</speed><time>2016-07-01T15:05:24Z</time><pdop>3.0</pdop><geoidheight>54.00</geoidheight><course>147.9</course><type>1</type></trkpt>
      <trkpt lat="40.59287351" lon="-4.88298156"><ele>2646</ele><speed>10.85</speed><time>2016-07-01T15:05:25Z</time><pdop>3.0</pdop><geoidheight>54.00</geoidheight><course>147.8</course><type>1</type></trkpt>
      <trkpt lat="40.59279018" lon="-4.88292022"><ele>2647</ele><speed>11.33</speed><time>2016-07-01T15:05:26Z</time><pdop>3.0</pdop><geoidheight>54.00</geoidheight><course>151.0</course><type>1</type></trkpt>
      <trkpt lat="40.5926988" lon="-4.88285952"><ele>2649</ele><speed>11.40</speed><time>2016-07-01T15:05:27Z</time><pdop>3.0</pdop><geoidheight>54.00</geoidheight><course>154.9</course><type>1</type></trkpt>
      <trkpt lat="40.59260096" lon="-4.88279561"><ele>2777</ele><speed>11.43</speed><time>2016-07-01T15:05:28Z</time><pdop>3.0</pdop><geoidheight>54.00</geoidheight><course>155.9</course><type>1</type></trkpt>
      <trkpt lat="40.59251412" lon="-4.88274523"><ele>2742</ele><speed>10.76</speed><time>2016-07-01T15:05:29Z</time><pdop>3.0</pdop><geoidheight>54.00</geoidheight><course>159.1</course><type>1</type></trkpt>
      <trkpt lat="40.59241785" lon="-4.88271487"><ele>2718</ele><speed>10.55</speed><time>2016-07-01T15:05:30Z</time><pdop>3.0</pdop><geoidheight>54.00</geoidheight><course>167.0</course><type>1</type></trkpt>
      <trkpt lat="40.59231449" lon="-4.88269768"><ele>2708</ele><speed>10.92</speed><time>2016-07-01T15:05:31Z</time><pdop>3.0</pdop><geoidheight>54.00</geoidheight><course>172.7</course><type>1</type></trkpt>
      <trkpt lat="40.59222639" lon="-4.88269577"><ele>2699</ele><speed>10.49</speed><time>2016-07-01T15:05:32Z</time><pdop>3.0</pdop><geoidheight>54.00</geoidheight><course>177.5</course><type>1</type></trkpt>
      <trkpt lat="40.59213729" lon="-4.88270892"><ele>2690</ele><speed>9.96</speed><time>2016-07-01T15:05:33Z</time><pdop>4.0</pdop><geoidheight>54.00</geoidheight><course>185.7</course><type>1</type></trkpt>
      <trkpt lat="40.59202137" lon="-4.88280688"><ele>2683</ele><speed>7.97</speed><time>2016-07-01T15:05:35Z</time><pdop>4.0</pdop><geoidheight>54.00</geoidheight><course>206.2</course><type>1</type></trkpt>
      <trkpt lat="40.59197545" lon="-4.88298016"><ele>2678</ele><speed>7.32</speed><time>2016-07-01T15:05:37Z</time><pdop>6.0</pdop><geoidheight>54.00</geoidheight><course>234.2</course><type>1</type></trkpt>
      <trkpt lat="40.59231109" lon="-4.88295675"><ele>2675</ele><speed>5.42</speed><time>2016-07-01T15:05:42Z</time><pdop>15.0</pdop><geoidheight>54.00</geoidheight><course>11.9</course><type>1</type></trkpt>
      <trkpt lat="40.59262775" lon="-4.8827822"><ele>2671</ele><speed>10.41</speed><time>2016-07-01T15:05:44Z</time><pdop>11.0</pdop><geoidheight>54.00</geoidheight><course>36.8</course><type>1</type></trkpt>
      <trkpt lat="40.59270202" lon="-4.88251302"><ele>2673</ele><speed>10.17</speed><time>2016-07-01T15:05:46Z</time><pdop>12.0</pdop><geoidheight>54.00</geoidheight><course>64.1</course><type>1</type></trkpt>
      <trkpt lat="40.59272878" lon="-4.88222507"><ele>2673</ele><speed>10.86</speed><time>2016-07-01T15:05:48Z</time><pdop>12.0</pdop><geoidheight>54.00</geoidheight><course>79.7</course><type>1</type></trkpt>
      <trkpt lat="40.59269789" lon="-4.88184169"><ele>2669</ele><speed>13.29</speed><time>2016-07-01T15:05:50Z</time><pdop>12.0</pdop><geoidheight>54.00</geoidheight><course>95.4</course><type>1</type></trkpt>
      <trkpt lat="40.59258269" lon="-4.88154739"><ele>2666</ele><speed>13.25</speed><time>2016-07-01T15:05:52Z</time><pdop>12.0</pdop><geoidheight>54.00</geoidheight><course>114.8</course><type>1</type></trkpt>
      <trkpt lat="40.59245613" lon="-4.88129373"><ele>2664</ele><speed>12.22</speed><time>2016-07-01T15:05:54Z</time><pdop>11.0</pdop><geoidheight>54.00</geoidheight><course>118.7</course><type>1</type></trkpt>
      <trkpt lat="40.59232014" lon="-4.8815343"><ele>2663</ele><speed>3.93</speed><time>2016-07-01T15:05:58Z</time><pdop>12.0</pdop><geoidheight>54.00</geoidheight><course>224.4</course><type>1</type></trkpt>
      <trkpt lat="40.5923696" lon="-4.8818348"><ele>2664</ele><speed>3.29</speed><time>2016-07-01T15:06:02Z</time><pdop>13.0</pdop><geoidheight>54.00</geoidheight><course>278.4</course><type>1</type></trkpt>
      <trkpt lat="40.59268428" lon="-4.88160329"><ele>2664</ele><speed>9.58</speed><time>2016-07-01T15:06:05Z</time><pdop>11.0</pdop><geoidheight>54.00</geoidheight><course>41.3</course><type>1</type></trkpt>
      <trkpt lat="40.59277891" lon="-4.88133214"><ele>2668</ele><speed>10.51</speed><time>2016-07-01T15:06:07Z</time><pdop>10.0</pdop><geoidheight>54.00</geoidheight><course>72.6</course><type>1</type></trkpt>
      <trkpt lat="40.59291984" lon="-4.88102774"><ele>2670</ele><speed>10.10</speed><time>2016-07-01T15:06:10Z</time><pdop>10.0</pdop><geoidheight>54.00</geoidheight><course>62.7</course><type>1</type></trkpt>
      <trkpt lat="40.59303373" lon="-4.88073816"><ele>2667</ele><speed>13.15</speed><time>2016-07-01T15:06:12Z</time><pdop>9.0</pdop><geoidheight>54.00</geoidheight><course>65.6</course><type>1</type></trkpt>
      <trkpt lat="40.59307624" lon="-4.88047495"><ele>2670</ele><speed>10.54</speed><time>2016-07-01T15:06:14Z</time><pdop>9.0</pdop><geoidheight>54.00</geoidheight><course>79.9</course><type>1</type></trkpt>
      <trkpt lat="40.59305087" lon="-4.88022959"><ele>2670</ele><speed>10.38</speed><time>2016-07-01T15:06:16Z</time><pdop>10.0</pdop><geoidheight>54.00</geoidheight><course>98.2</course><type>1</type></trkpt>
      <trkpt lat="40.59289806" lon="-4.88003657"><ele>2669</ele><speed>11.81</speed><time>2016-07-01T15:06:18Z</time><pdop>11.0</pdop><geoidheight>54.00</geoidheight><course>126.8</course><type>1</type></trkpt>
      <trkpt lat="40.5926509" lon="-4.88006215"><ele>2665</ele><speed>12.59</speed><time>2016-07-01T15:06:20Z</time><pdop>10.0</pdop><geoidheight>54.00</geoidheight><course>175.5</course><type>1</type></trkpt>
      <trkpt lat="40.59244018" lon="-4.8800789"><ele>2663</ele><speed>11.51</speed><time>2016-07-01T15:06:22Z</time><pdop>10.0</pdop><geoidheight>54.00</geoidheight><course>180.0</course><type>1</type></trkpt>
      <trkpt lat="40.59234334" lon="-4.8804423"><ele>2661</ele><speed>9.97</speed><time>2016-07-01T15:06:25Z</time><pdop>11.0</pdop><geoidheight>54.00</geoidheight><course>245.4</course><type>1</type></trkpt>
      <trkpt lat="40.59233175" lon="-4.88074224"><ele>2660</ele><speed>8.12</speed><time>2016-07-01T15:06:28Z</time><pdop>10.0</pdop><geoidheight>54.00</geoidheight><course>258.4</course><type>1</type></trkpt>
      <trkpt lat="40.59221558" lon="-4.8809089"><ele>2661</ele><speed>6.71</speed><time>2016-07-01T15:06:32Z</time><pdop>9.0</pdop><geoidheight>54.00</geoidheight><course>210.1</course><type>1</type></trkpt>
      <trkpt lat="40.59211478" lon="-4.88109901"><ele>2662</ele><speed>6.40</speed><time>2016-07-01T15:06:35Z</time><pdop>9.0</pdop><geoidheight>54.00</geoidheight><course>248.3</course><type>1</type></trkpt>
      <trkpt lat="40.5921839" lon="-4.88135772"><ele>2664</ele><speed>7.90</speed><time>2016-07-01T15:06:38Z</time><pdop>9.0</pdop><geoidheight>54.00</geoidheight><course>287.6</course><type>1</type></trkpt>
      <trkpt lat="40.59224939" lon="-4.88161424"><ele>2667</ele><speed>7.53</speed><time>2016-07-01T15:06:41Z</time><pdop>9.0</pdop><geoidheight>54.00</geoidheight><course>289.0</course><type>1</type></trkpt>
      <trkpt lat="40.59239196" lon="-4.88177789"><ele>2671</ele><speed>6.55</speed><time>2016-07-01T15:06:44Z</time><pdop>9.0</pdop><geoidheight>54.00</geoidheight><course>328.1</course><type>1</type></trkpt>
      <trkpt lat="40.5925724" lon="-4.88157722"><ele>2671</ele><speed>8.85</speed><time>2016-07-01T15:06:47Z</time><pdop>9.0</pdop><geoidheight>54.00</geoidheight><course>51.9</course><type>1</type></trkpt>
      <trkpt lat="40.59265282" lon="-4.88120155"><ele>2673</ele><speed>15.46</speed><time>2016-07-01T15:06:49Z</time><pdop>9.0</pdop><geoidheight>54.00</geoidheight><course>80.9</course><type>1</type></trkpt>
      <trkpt lat="40.59258156" lon="-4.88089398"><ele>2673</ele><speed>13.69</speed><time>2016-07-01T15:06:51Z</time><pdop>10.0</pdop><geoidheight>54.00</geoidheight><course>100.9</course><type>1</type></trkpt>
      <trkpt lat="40.59245749" lon="-4.88065884"><ele>2672</ele><speed>12.03</speed><time>2016-07-01T15:06:53Z</time><pdop>9.0</pdop><geoidheight>54.00</geoidheight><course>114.4</course><type>1</type></trkpt>
      <trkpt lat="40.59221777" lon="-4.88070591"><ele>2671</ele><speed>10.81</speed><time>2016-07-01T15:06:55Z</time><pdop>8.0</pdop><geoidheight>54.00</geoidheight><course>164.4</course><type>1</type></trkpt>
      <trkpt lat="40.59201866" lon="-4.88072035"><ele>2672</ele><speed>10.47</speed><time>2016-07-01T15:06:57Z</time><pdop>7.0</pdop><geoidheight>54.00</geoidheight><course>180.0</course><type>1</type></trkpt>
      <trkpt lat="40.59189783" lon="-4.88089876"><ele>2673</ele><speed>8.25</speed><time>2016-07-01T15:06:59Z</time><pdop>5.0</pdop><geoidheight>54.00</geoidheight><course>217.6</course><type>1</type></trkpt>
      <trkpt lat="40.59178945" lon="-4.88104484"><ele>2674</ele><speed>7.94</speed><time>2016-07-01T15:07:01Z</time><pdop>8.0</pdop><geoidheight>54.00</geoidheight><course>223.3</course><type>1</type></trkpt>
      <trkpt lat="40.59167077" lon="-4.88121193"><ele>2675</ele><speed>8.59</speed><time>2016-07-01T15:07:03Z</time><pdop>7.0</pdop><geoidheight>54.00</geoidheight><course>223.6</course><type>1</type></trkpt>
      <trkpt lat="40.59156492" lon="-4.8813745"><ele>2675</ele><speed>8.91</speed><time>2016-07-01T15:07:05Z</time><pdop>8.0</pdop><geoidheight>54.00</geoidheight><course>225.6</course><type>1</type></trkpt>
      <trkpt lat="40.59141842" lon="-4.8815359"><ele>2675</ele><speed>9.43</speed><time>2016-07-01T15:07:07Z</time><pdop>11.0</pdop><geoidheight>54.00</geoidheight><course>223.3</course><type>1</type></trkpt>
      <trkpt lat="40.59105735" lon="-4.88177442"><ele>2678</ele><speed>10.20</speed><time>2016-07-01T15:07:12Z</time><pdop>7.0</pdop><geoidheight>54.00</geoidheight><course>187.3</course><type>1</type></trkpt>
      <trkpt lat="40.59090427" lon="-4.88174908"><ele>2680</ele><speed>12.31</speed><time>2016-07-01T15:07:13Z</time><pdop>5.0</pdop><geoidheight>54.00</geoidheight><course>178.1</course><type>1</type></trkpt>
      <trkpt lat="40.59082234" lon="-4.8817739"><ele>2682</ele><speed>11.50</speed><time>2016-07-01T15:07:14Z</time><pdop>4.0</pdop><geoidheight>54.00</geoidheight><course>181.0</course><type>1</type></trkpt>
      <trkpt lat="40.59074772" lon="-4.8817761"><ele>2685</ele><speed>9.82</speed><time>2016-07-01T15:07:15Z</time><pdop>4.0</pdop><geoidheight>54.00</geoidheight><course>191.2</course><type>1</type></trkpt>
      <trkpt lat="40.59067727" lon="-4.88182469"><ele>2688</ele><speed>8.59</speed><time>2016-07-01T15:07:16Z</time><pdop>4.0</pdop><geoidheight>54.00</geoidheight><course>205.4</course><type>1</type></trkpt>
      <trkpt lat="40.59061292" lon="-4.8818877"><ele>2691</ele><speed>8.23</speed><time>2016-07-01T15:07:17Z</time><pdop>4.0</pdop><geoidheight>54.00</geoidheight><course>217.5</course><type>1</type></trkpt>
      <trkpt lat="40.59056264" lon="-4.88197257"><ele>2694</ele><speed>7.98</speed><time>2016-07-01T15:07:18Z</time><pdop>4.0</pdop><geoidheight>54.00</geoidheight><course>230.2</course><type>1</type></trkpt>
      <trkpt lat="40.59055143" lon="-4.8821515"><ele>2696</ele><speed>7.73</speed><time>2016-07-01T15:07:20Z</time><pdop>5.0</pdop><geoidheight>54.00</geoidheight><course>265.1</course><type>1</type></trkpt>
      <trkpt lat="40.59064867" lon="-4.88225457"><ele>2698</ele><speed>5.03</speed><time>2016-07-01T15:07:23Z</time><pdop>6.0</pdop><geoidheight>54.00</geoidheight><course>305.0</course><type>1</type></trkpt>
      <trkpt lat="40.59075199" lon="-4.88233969"><ele>2696</ele><speed>6.52</speed><time>2016-07-01T15:07:25Z</time><pdop>5.0</pdop><geoidheight>54.00</geoidheight><course>319.5</course><type>1</type></trkpt>
      <trkpt lat="40.5908792" lon="-4.88245735"><ele>2693</ele><speed>7.32</speed><time>2016-07-01T15:07:27Z</time><pdop>4.0</pdop><geoidheight>54.00</geoidheight><course>314.3</course><type>1</type></trkpt>
      <trkpt lat="40.5909574" lon="-4.88258092"><ele>2691</ele><speed>6.38</speed><time>2016-07-01T15:07:29Z</time><pdop>3.0</pdop><geoidheight>54.00</geoidheight><course>300.9</course><type>1</type></trkpt>
      <trkpt lat="40.59102297" lon="-4.88269137"><ele>2691</ele><speed>5.93</speed><time>2016-07-01T15:07:31Z</time><pdop>5.0</pdop><geoidheight>54.00</geoidheight><course>303.4</course><type>1</type></trkpt>
      <trkpt lat="40.5910571" lon="-4.88289849"><ele>2689</ele><speed>8.06</speed><time>2016-07-01T15:07:33Z</time><pdop>5.0</pdop><geoidheight>54.00</geoidheight><course>288.0</course><type>1</type></trkpt>
      <trkpt lat="40.59112946" lon="-4.88308765"><ele>2686</ele><speed>8.11</speed><time>2016-07-01T15:07:35Z</time><pdop>4.0</pdop><geoidheight>54.00</geoidheight><course>289.8</course><type>1</type></trkpt>
      <trkpt lat="40.59118788" lon="-4.88324748"><ele>2684</ele><speed>7.47</speed><time>2016-07-01T15:07:37Z</time><pdop>4.0</pdop><geoidheight>54.00</geoidheight><course>291.7</course><type>1</type></trkpt>
      <trkpt lat="40.59119303" lon="-4.88339992"><ele>2681</ele><speed>7.19</speed><time>2016-07-01T15:07:39Z</time><pdop>4.0</pdop><geoidheight>54.00</geoidheight><course>283.0</course><type>1</type></trkpt>
      <trkpt lat="40.59119564" lon="-4.88351364"><ele>2680</ele><speed>9.08</speed><time>2016-07-01T15:07:40Z</time><pdop>5.0</pdop><geoidheight>54.00</geoidheight><course>276.3</course><type>1</type></trkpt>
      <trkpt lat="40.5912299" lon="-4.88373762"><ele>2677</ele><speed>9.30</speed><time>2016-07-01T15:07:42Z</time><pdop>6.0</pdop><geoidheight>54.00</geoidheight><course>278.0</course><type>1</type></trkpt>
      <trkpt lat="40.59131622" lon="-4.88383001"><ele>2671</ele><speed>9.48</speed><time>2016-07-01T15:07:43Z</time><pdop>5.0</pdop><geoidheight>54.00</geoidheight><course>280.3</course><type>1</type></trkpt>
      <trkpt lat="40.59136129" lon="-4.88404834"><ele>2668</ele><speed>9.69</speed><time>2016-07-01T15:07:45Z</time><pdop>5.0</pdop><geoidheight>54.00</geoidheight><course>277.9</course><type>1</type></trkpt>
      <trkpt lat="40.5913894" lon="-4.884324"><ele>2665</ele><speed>11.81</speed><time>2016-07-01T15:07:47Z</time><pdop>6.0</pdop><geoidheight>54.00</geoidheight><course>275.8</course><type>1</type></trkpt>
      <trkpt lat="40.59134815" lon="-4.88450981"><ele>2664</ele><speed>13.27</speed><time>2016-07-01T15:07:48Z</time><pdop>6.0</pdop><geoidheight>54.00</geoidheight><course>268.1</course><type>1</type></trkpt>
      <trkpt lat="40.59139903" lon="-4.88463109"><ele>2662</ele><speed>12.25</speed><time>2016-07-01T15:07:49Z</time><pdop>5.0</pdop><geoidheight>54.00</geoidheight><course>273.5</course><type>1</type></trkpt>
      <trkpt lat="40.59140124" lon="-4.88476024"><ele>2661</ele><speed>11.07</speed><time>2016-07-01T15:07:50Z</time><pdop>5.0</pdop><geoidheight>54.00</geoidheight><course>276.2</course><type>1</type></trkpt>
      <trkpt lat="40.59140615" lon="-4.88487879"><ele>2661</ele><speed>10.19</speed><time>2016-07-01T15:07:51Z</time><pdop>4.0</pdop><geoidheight>54.00</geoidheight><course>276.3</course><type>1</type></trkpt>
      <trkpt lat="40.5914084" lon="-4.88500354"><ele>2658</ele><speed>10.53</speed><time>2016-07-01T15:07:52Z</time><pdop>5.0</pdop><geoidheight>54.00</geoidheight><course>272.2</course><type>1</type></trkpt>
      <trkpt lat="40.59141022" lon="-4.88515237"><ele>2657</ele><speed>11.59</speed><time>2016-07-01T15:07:53Z</time><pdop>5.0</pdop><geoidheight>54.00</geoidheight><course>270.7</course><type>1</type></trkpt>
      <trkpt lat="40.59141222" lon="-4.88530341"><ele>2656</ele><speed>12.29</speed><time>2016-07-01T15:07:54Z</time><pdop>5.0</pdop><geoidheight>54.00</geoidheight><course>270.7</course><type>1</type></trkpt>
      <trkpt lat="40.59145275" lon="-4.88556535"><ele>2654</ele><speed>11.57</speed><time>2016-07-01T15:07:56Z</time><pdop>9.0</pdop><geoidheight>54.00</geoidheight><course>272.6</course><type>1</type></trkpt>
      <trkpt lat="40.59146321" lon="-4.88587851"><ele>2650</ele><speed>9.41</speed><time>2016-07-01T15:07:59Z</time><pdop>9.0</pdop><geoidheight>54.00</geoidheight><course>268.7</course><type>1</type></trkpt>
      <trkpt lat="40.5914999" lon="-4.88620243"><ele>2646</ele><speed>10.02</speed><time>2016-07-01T15:08:02Z</time><pdop>11.0</pdop><geoidheight>54.00</geoidheight><course>273.3</course><type>1</type></trkpt>
      <trkpt lat="40.5915578" lon="-4.88651537"><ele>2642</ele><speed>12.55</speed><time>2016-07-01T15:08:04Z</time><pdop>11.0</pdop><geoidheight>54.00</geoidheight><course>280.1</course><type>1</type></trkpt>
      <trkpt lat="40.59157879" lon="-4.88677094"><ele>2642</ele><speed>10.06</speed><time>2016-07-01T15:08:06Z</time><pdop>10.0</pdop><geoidheight>54.00</geoidheight><course>282.5</course><type>1</type></trkpt>
      <trkpt lat="40.59165793" lon="-4.8870609"><ele>2637</ele><speed>8.91</speed><time>2016-07-01T15:08:09Z</time><pdop>11.0</pdop><geoidheight>54.00</geoidheight><course>286.0</course><type>1</type></trkpt>
      <trkpt lat="40.591712" lon="-4.88733275"><ele>2633</ele><speed>11.65</speed><time>2016-07-01T15:08:11Z</time><pdop>12.0</pdop><geoidheight>54.00</geoidheight><course>281.8</course><type>1</type></trkpt>
      <trkpt lat="40.59175994" lon="-4.88763321"><ele>2629</ele><speed>11.96</speed><time>2016-07-01T15:08:13Z</time><pdop>11.0</pdop><geoidheight>54.00</geoidheight><course>281.1</course><type>1</type></trkpt>
      <trkpt lat="40.59184336" lon="-4.88794152"><ele>2621</ele><speed>9.50</speed><time>2016-07-01T15:08:16Z</time><pdop>10.0</pdop><geoidheight>54.00</geoidheight><course>286.2</course><type>1</type></trkpt>
      <trkpt lat="40.59194587" lon="-4.88829978"><ele>2615</ele><speed>11.13</speed><time>2016-07-01T15:08:19Z</time><pdop>13.0</pdop><geoidheight>54.00</geoidheight><course>286.5</course><type>1</type></trkpt>
      <trkpt lat="40.59202816" lon="-4.88862864"><ele>2611</ele><speed>12.56</speed><time>2016-07-01T15:08:21Z</time><pdop>13.0</pdop><geoidheight>54.00</geoidheight><course>284.8</course><type>1</type></trkpt>
      <trkpt lat="40.59210558" lon="-4.88890257"><ele>2601</ele><speed>7.71</speed><time>2016-07-01T15:08:24Z</time><pdop>10.0</pdop><geoidheight>54.00</geoidheight><course>277.6</course><type>1</type></trkpt>
      <trkpt lat="40.59215238" lon="-4.88921296"><ele>2594</ele><speed>6.58</speed><time>2016-07-01T15:08:28Z</time><pdop>12.0</pdop><geoidheight>54.00</geoidheight><course>278.5</course><type>1</type></trkpt>
      <trkpt lat="40.59223683" lon="-4.88956221"><ele>2589</ele><speed>14.47</speed><time>2016-07-01T15:08:30Z</time><pdop>11.0</pdop><geoidheight>54.00</geoidheight><course>284.4</course><type>1</type></trkpt>
      <trkpt lat="40.59231317" lon="-4.88986878"><ele>2585</ele><speed>12.50</speed><time>2016-07-01T15:08:32Z</time><pdop>10.0</pdop><geoidheight>54.00</geoidheight><course>286.8</course><type>1</type></trkpt>
      <trkpt lat="40.59235262" lon="-4.89010639"><ele>2581</ele><speed>10.24</speed><time>2016-07-01T15:08:34Z</time><pdop>10.0</pdop><geoidheight>54.00</geoidheight><course>283.6</course><type>1</type></trkpt>
      <trkpt lat="40.59240134" lon="-4.89035264"><ele>2575</ele><speed>11.40</speed><time>2016-07-01T15:08:36Z</time><pdop>11.0</pdop><geoidheight>54.00</geoidheight><course>280.4</course><type>1</type></trkpt>
      <trkpt lat="40.59247299" lon="-4.89064976"><ele>2561</ele><speed>14.73</speed><time>2016-07-01T15:08:38Z</time><pdop>10.0</pdop><geoidheight>54.00</geoidheight><course>282.5</course><type>1</type></trkpt>
      <trkpt lat="40.59253293" lon="-4.89098217"><ele>2559</ele><speed>14.26</speed><time>2016-07-01T15:08:40Z</time><pdop>10.0</pdop><geoidheight>54.00</geoidheight><course>285.5</course><type>1</type></trkpt>
      <trkpt lat="40.59263149" lon="-4.8912143"><ele>2554</ele><speed>11.54</speed><time>2016-07-01T15:08:42Z</time><pdop>10.0</pdop><geoidheight>54.00</geoidheight><course>290.5</course><type>1</type></trkpt>
      <trkpt lat="40.59271086" lon="-4.89149699"><ele>2551</ele><speed>8.13</speed><time>2016-07-01T15:08:45Z</time><pdop>11.0</pdop><geoidheight>54.00</geoidheight><course>290.1</course><type>1</type></trkpt>
      <trkpt lat="40.59278673" lon="-4.89181036"><ele>2544</ele><speed>7.75</speed><time>2016-07-01T15:08:49Z</time><pdop>11.0</pdop><geoidheight>54.00</geoidheight><course>284.7</course><type>1</type></trkpt>
      <trkpt lat="40.59285199" lon="-4.8921751"><ele>2538</ele><speed>10.27</speed><time>2016-07-01T15:08:52Z</time><pdop>11.0</pdop><geoidheight>54.00</geoidheight><course>289.6</course><type>1</type></trkpt>
      <trkpt lat="40.59290492" lon="-4.89242156"><ele>2533</ele><speed>6.50</speed><time>2016-07-01T15:08:55Z</time><pdop>10.0</pdop><geoidheight>54.00</geoidheight><course>283.6</course><type>1</type></trkpt>
      <trkpt lat="40.59290615" lon="-4.89269678"><ele>2527</ele><speed>6.29</speed><time>2016-07-01T15:08:59Z</time><pdop>10.0</pdop><geoidheight>54.00</geoidheight><course>260.8</course><type>1</type></trkpt>
      <trkpt lat="40.59295861" lon="-4.89293836"><ele>2524</ele><speed>7.70</speed><time>2016-07-01T15:09:02Z</time><pdop>10.0</pdop><geoidheight>54.00</geoidheight><course>281.3</course><type>1</type></trkpt>
      <trkpt lat="40.59307493" lon="-4.89319071"><ele>2520</ele><speed>6.42</speed><time>2016-07-01T15:09:05Z</time><pdop>9.0</pdop><geoidheight>54.00</geoidheight><course>299.5</course><type>1</type></trkpt>
      <trkpt lat="40.59314784" lon="-4.8934152"><ele>2518</ele><speed>4.04</speed><time>2016-07-01T15:09:10Z</time><pdop>9.0</pdop><geoidheight>54.00</geoidheight><course>271.1</course><type>1</type></trkpt>
      <trkpt lat="40.59312923" lon="-4.89364137"><ele>2519</ele><speed>4.81</speed><time>2016-07-01T15:09:14Z</time><pdop>10.0</pdop><geoidheight>54.00</geoidheight><course>265.8</course><type>1</type></trkpt>
      <trkpt lat="40.59321151" lon="-4.89386586"><ele>2518</ele><speed>4.33</speed><time>2016-07-01T15:09:18Z</time><pdop>9.0</pdop><geoidheight>54.00</geoidheight><course>294.6</course><type>1</type></trkpt>
      <trkpt lat="40.59331646" lon="-4.89408081"><ele>2516</ele><speed>5.29</speed><time>2016-07-01T15:09:22Z</time><pdop>9.0</pdop><geoidheight>54.00</geoidheight><course>303.8</course><type>1</type></trkpt>
      <trkpt lat="40.5933554" lon="-4.89432032"><ele>2513</ele><speed>5.57</speed><time>2016-07-01T15:09:26Z</time><pdop>10.0</pdop><geoidheight>54.00</geoidheight><course>286.6</course><type>1</type></trkpt>
      <trkpt lat="40.59343695" lon="-4.89453139"><ele>2510</ele><speed>6.84</speed><time>2016-07-01T15:09:29Z</time><pdop>9.0</pdop><geoidheight>54.00</geoidheight><course>298.7</course><type>1</type></trkpt>
      <trkpt lat="40.59352781" lon="-4.89475694"><ele>2510</ele><speed>7.23</speed><time>2016-07-01T15:09:32Z</time><pdop>9.0</pdop><geoidheight>54.00</geoidheight><course>302.5</course><type>1</type></trkpt>
      <trkpt lat="40.59363681" lon="-4.89494199"><ele>2508</ele><speed>6.62</speed><time>2016-07-01T15:09:35Z</time><pdop>9.0</pdop><geoidheight>54.00</geoidheight><course>308.6</course><type>1</type></trkpt>
      <trkpt lat="40.59376192" lon="-4.89513429"><ele>2504</ele><speed>7.50</speed><time>2016-07-01T15:09:38Z</time><pdop>10.0</pdop><geoidheight>54.00</geoidheight><course>307.9</course><type>1</type></trkpt>
      <trkpt lat="40.59385101" lon="-4.89535917"><ele>2498</ele><speed>5.57</speed><time>2016-07-01T15:09:42Z</time><pdop>10.0</pdop><geoidheight>54.00</geoidheight><course>287.6</course><type>1</type></trkpt>
      <trkpt lat="40.59390764" lon="-4.8955974"><ele>2496</ele><speed>9.78</speed><time>2016-07-01T15:09:44Z</time><pdop>9.0</pdop><geoidheight>54.00</geoidheight><course>289.1</course><type>1</type></trkpt>
      <trkpt lat="40.5940503" lon="-4.89585119"><ele>2491</ele><speed>8.93</speed><time>2016-07-01T15:09:47Z</time><pdop>9.0</pdop><geoidheight>54.00</geoidheight><course>302.5</course><type>1</type></trkpt>
      <trkpt lat="40.5941929" lon="-4.89610408"><ele>2487</ele><speed>8.48</speed><time>2016-07-01T15:09:50Z</time><pdop>9.0</pdop><geoidheight>54.00</geoidheight><course>305.6</course><type>1</type></trkpt>
      <trkpt lat="40.59435884" lon="-4.8963566"><ele>2484</ele><speed>10.04</speed><time>2016-07-01T15:09:53Z</time><pdop>10.0</pdop><geoidheight>54.00</geoidheight><course>310.2</course><type>1</type></trkpt>
      <trkpt lat="40.59446392" lon="-4.89654969"><ele>2482</ele><speed>9.70</speed><time>2016-07-01T15:09:55Z</time><pdop>10.0</pdop><geoidheight>54.00</geoidheight><course>310.4</course><type>1</type></trkpt>
      <trkpt lat="40.59466614" lon="-4.89676514"><ele>2480</ele><speed>9.60</speed><time>2016-07-01T15:09:58Z</time><pdop>10.0</pdop><geoidheight>54.00</geoidheight><course>317.3</course><type>1</type></trkpt>
      <trkpt lat="40.59477076" lon="-4.89699248"><ele>2477</ele><speed>10.66</speed><time>2016-07-01T15:10:00Z</time><pdop>11.0</pdop><geoidheight>54.00</geoidheight><course>306.7</course><type>1</type></trkpt>
      <trkpt lat="40.59492629" lon="-4.89718483"><ele>2475</ele><speed>11.31</speed><time>2016-07-01T15:10:02Z</time><pdop>10.0</pdop><geoidheight>54.00</geoidheight><course>317.7</course><type>1</type></trkpt>
      <trkpt lat="40.5951079" lon="-4.89732974"><ele>2473</ele><speed>10.56</speed><time>2016-07-01T15:10:04Z</time><pdop>9.0</pdop><geoidheight>54.00</geoidheight><course>322.1</course><type>1</type></trkpt>
      <trkpt lat="40.59521412" lon="-4.89751022"><ele>2471</ele><speed>10.00</speed><time>2016-07-01T15:10:06Z</time><pdop>10.0</pdop><geoidheight>54.00</geoidheight><course>307.9</course><type>1</type></trkpt>
      <trkpt lat="40.59533632" lon="-4.89771825"><ele>2466</ele><speed>11.24</speed><time>2016-07-01T15:10:08Z</time><pdop>10.0</pdop><geoidheight>54.00</geoidheight><course>303.5</course><type>1</type></trkpt>
      <trkpt lat="40.59549513" lon="-4.89791224"><ele>2463</ele><speed>11.34</speed><time>2016-07-01T15:10:10Z</time><pdop>10.0</pdop><geoidheight>54.00</geoidheight><course>310.8</course><type>1</type></trkpt>
      <trkpt lat="40.59564235" lon="-4.8980859"><ele>2459</ele><speed>10.22</speed><time>2016-07-01T15:10:12Z</time><pdop>10.0</pdop><geoidheight>54.00</geoidheight><course>313.3</course><type>1</type></trkpt>
      <trkpt lat="40.59576948" lon="-4.89837157"><ele>2455</ele><speed>9.47</speed><time>2016-07-01T15:10:15Z</time><pdop>10.0</pdop><geoidheight>54.00</geoidheight><course>296.1</course><type>1</type></trkpt>
      <trkpt lat="40.59591014" lon="-4.89862478"><ele>2450</ele><speed>13.43</speed><time>2016-07-01T15:10:17Z</time><pdop>10.0</pdop><geoidheight>54.00</geoidheight><course>296.6</course><type>1</type></trkpt>
      <trkpt lat="40.59606041" lon="-4.89885674"><ele>2449</ele><speed>12.81</speed><time>2016-07-01T15:10:19Z</time><pdop>10.0</pdop><geoidheight>54.00</geoidheight><course>308.0</course><type>1</type></trkpt>
      <trkpt lat="40.59630141" lon="-4.89902552"><ele>2443</ele><speed>9.41</speed><time>2016-07-01T15:10:22Z</time><pdop>11.0</pdop><geoidheight>54.00</geoidheight><course>328.4</course><type>1</type></trkpt>
      <trkpt lat="40.59651072" lon="-4.89910929"><ele>2442</ele><speed>8.54</speed><time>2016-07-01T15:10:25Z</time><pdop>10.0</pdop><geoidheight>54.00</geoidheight><course>338.0</course><type>1</type></trkpt>
      <trkpt lat="40.59668656" lon="-4.89910943"><ele>2442</ele><speed>7.06</speed><time>2016-07-01T15:10:28Z</time><pdop>9.0</pdop><geoidheight>54.00</geoidheight><course>10.2</course><type>1</type></trkpt>
      <trkpt lat="40.59675819" lon="-4.89885052"><ele>2671</ele><speed>8.51</speed><time>2016-07-01T15:10:31Z</time><pdop>11.0</pdop><geoidheight>54.00</geoidheight><course>67.9</course><type>1</type></trkpt>
      <trkpt lat="40.59670609" lon="-4.89854699"><ele>2559</ele><speed>10.70</speed><time>2016-07-01T15:10:33Z</time><pdop>11.0</pdop><geoidheight>54.00</geoidheight><course>98.2</course><type>1</type></trkpt>
      <trkpt lat="40.59649511" lon="-4.89834024"><ele>2494</ele><speed>11.92</speed><time>2016-07-01T15:10:35Z</time><pdop>9.0</pdop><geoidheight>54.00</geoidheight><course>143.6</course><type>1</type></trkpt>
      <trkpt lat="40.59632266" lon="-4.89818513"><ele>2477</ele><speed>11.63</speed><time>2016-07-01T15:10:37Z</time><pdop>9.0</pdop><geoidheight>54.00</geoidheight><course>148.4</course><type>1</type></trkpt>
      <trkpt lat="40.59612784" lon="-4.89801257"><ele>2469</ele><speed>12.59</speed><time>2016-07-01T15:10:39Z</time><pdop>9.0</pdop><geoidheight>54.00</geoidheight><course>148.5</course><type>1</type></trkpt>
      <trkpt lat="40.59594048" lon="-4.89799321"><ele>2467</ele><speed>10.16</speed><time>2016-07-01T15:10:41Z</time><pdop>9.0</pdop><geoidheight>54.00</geoidheight><course>177.9</course><type>1</type></trkpt>
      <trkpt lat="40.59575134" lon="-4.89802349"><ele>2461</ele><speed>10.55</speed><time>2016-07-01T15:10:43Z</time><pdop>9.0</pdop><geoidheight>54.00</geoidheight><course>189.7</course><type>1</type></trkpt>
      <trkpt lat="40.5956587" lon="-4.89831047"><ele>2458</ele><speed>8.38</speed><time>2016-07-01T15:10:46Z</time><pdop>10.0</pdop><geoidheight>54.00</geoidheight><course>234.6</course><type>1</type></trkpt>
      <trkpt lat="40.59574477" lon="-4.89856176"><ele>2460</ele><speed>8.82</speed><time>2016-07-01T15:10:48Z</time><pdop>10.0</pdop><geoidheight>54.00</geoidheight><course>280.0</course><type>1</type></trkpt>
      <trkpt lat="40.59581219" lon="-4.89879275"><ele>2457</ele><speed>9.26</speed><time>2016-07-01T15:10:50Z</time><pdop>10.0</pdop><geoidheight>54.00</geoidheight><course>283.5</course><type>1</type></trkpt>
      <trkpt lat="40.5959033" lon="-4.89905777"><ele>2463</ele><speed>8.30</speed><time>2016-07-01T15:10:53Z</time><pdop>10.0</pdop><geoidheight>54.00</geoidheight><course>302.5</course><type>1</type></trkpt>
      <trkpt lat="40.59613084" lon="-4.89907411"><ele>2460</ele><speed>8.16</speed><time>2016-07-01T15:10:56Z</time><pdop>11.0</pdop><geoidheight>54.00</geoidheight><course>5.7</course><type>1</type></trkpt>
      <trkpt lat="40.59640588" lon="-4.89886795"><ele>2460</ele><speed>11.27</speed><time>2016-07-01T15:10:59Z</time><pdop>11.0</pdop><geoidheight>54.00</geoidheight><course>35.4</course><type>1</type></trkpt>
      <trkpt lat="40.59642672" lon="-4.89858375"><ele>2461</ele><speed>10.04</speed><time>2016-07-01T15:11:01Z</time><pdop>11.0</pdop><geoidheight>54.00</geoidheight><course>73.9</course><type>1</type></trkpt>
      <trkpt lat="40.59622106" lon="-4.8982565"><ele>2458</ele><speed>11.22</speed><time>2016-07-01T15:11:04Z</time><pdop>11.0</pdop><geoidheight>54.00</geoidheight><course>124.7</course><type>1</type></trkpt>
      <trkpt lat="40.59593552" lon="-4.89820275"><ele>2456</ele><speed>12.79</speed><time>2016-07-01T15:11:06Z</time><pdop>10.0</pdop><geoidheight>54.00</geoidheight><course>169.1</course><type>1</type></trkpt>
      <trkpt lat="40.59570066" lon="-4.89820982"><ele>2456</ele><speed>12.60</speed><time>2016-07-01T15:11:08Z</time><pdop>9.0</pdop><geoidheight>54.00</geoidheight><course>184.4</course><type>1</type></trkpt>
      <trkpt lat="40.59547448" lon="-4.89823137"><ele>2529</ele><speed>12.38</speed><time>2016-07-01T15:11:10Z</time><pdop>10.0</pdop><geoidheight>54.00</geoidheight><course>189.3</course><type>1</type></trkpt>
      <trkpt lat="40.59532765" lon="-4.89839852"><ele>2498</ele><speed>10.55</speed><time>2016-07-01T15:11:12Z</time><pdop>10.0</pdop><geoidheight>54.00</geoidheight><course>213.2</course><type>1</type></trkpt>
      <trkpt lat="40.59529534" lon="-4.89867093"><ele>2464</ele><speed>7.41</speed><time>2016-07-01T15:11:15Z</time><pdop>9.0</pdop><geoidheight>54.00</geoidheight><course>265.6</course><type>1</type></trkpt>
      <trkpt lat="40.59535553" lon="-4.89893013"><ele>2456</ele><speed>7.82</speed><time>2016-07-01T15:11:18Z</time><pdop>10.0</pdop><geoidheight>54.00</geoidheight><course>290.0</course><type>1</type></trkpt>
      <trkpt lat="40.59559113" lon="-4.89899986"><ele>2454</ele><speed>9.59</speed><time>2016-07-01T15:11:20Z</time><pdop>10.0</pdop><geoidheight>54.00</geoidheight><course>339.0</course><type>1</type></trkpt>
      <trkpt lat="40.59583266" lon="-4.89904797"><ele>2450</ele><speed>8.98</speed><time>2016-07-01T15:11:23Z</time><pdop>10.0</pdop><geoidheight>54.00</geoidheight><course>350.1</course><type>1</type></trkpt>
      <trkpt lat="40.59601463" lon="-4.89912401"><ele>2449</ele><speed>10.08</speed><time>2016-07-01T15:11:25Z</time><pdop>10.0</pdop><geoidheight>54.00</geoidheight><course>343.0</course><type>1</type></trkpt>
      <trkpt lat="40.59623715" lon="-4.89919241"><ele>2449</ele><speed>7.72</speed><time>2016-07-01T15:11:28Z</time><pdop>10.0</pdop><geoidheight>54.00</geoidheight><course>349.1</course><type>1</type></trkpt>
      <trkpt lat="40.59643086" lon="-4.8992682"><ele>2446</ele><speed>7.29</speed><time>2016-07-01T15:11:31Z</time><pdop>9.0</pdop><geoidheight>54.00</geoidheight><course>338.5</course><type>1</type></trkpt>
      <trkpt lat="40.59657935" lon="-4.89945405"><ele>2444</ele><speed>7.97</speed><time>2016-07-01T15:11:34Z</time><pdop>10.0</pdop><geoidheight>54.00</geoidheight><course>315.6</course><type>1</type></trkpt>
      <trkpt lat="40.59670916" lon="-4.89965208"><ele>2443</ele><speed>9.89</speed><time>2016-07-01T15:11:36Z</time><pdop>11.0</pdop><geoidheight>54.00</geoidheight><course>310.5</course><type>1</type></trkpt>
      <trkpt lat="40.59685245" lon="-4.89997426"><ele>2440</ele><speed>10.48</speed><time>2016-07-01T15:11:39Z</time><pdop>10.0</pdop><geoidheight>54.00</geoidheight><course>304.0</course><type>1</type></trkpt>
      <trkpt lat="40.5969532" lon="-4.90021977"><ele>2439</ele><speed>11.94</speed><time>2016-07-01T15:11:41Z</time><pdop>10.0</pdop><geoidheight>54.00</geoidheight><course>301.3</course><type>1</type></trkpt>
      <trkpt lat="40.59707115" lon="-4.90046957"><ele>2434</ele><speed>11.82</speed><time>2016-07-01T15:11:43Z</time><pdop>10.0</pdop><geoidheight>54.00</geoidheight><course>299.7</course><type>1</type></trkpt>
      <trkpt lat="40.59719574" lon="-4.90066892"><ele>2427</ele><speed>11.64</speed><time>2016-07-01T15:11:45Z</time><pdop>9.0</pdop><geoidheight>54.00</geoidheight><course>300.6</course><type>1</type></trkpt>
      <trkpt lat="40.59730863" lon="-4.90091203"><ele>2421</ele><speed>12.29</speed><time>2016-07-01T15:11:47Z</time><pdop>10.0</pdop><geoidheight>54.00</geoidheight><course>298.4</course><type>1</type></trkpt>
      <trkpt lat="40.59747795" lon="-4.90116117"><ele>2413</ele><speed>13.55</speed><time>2016-07-01T15:11:49Z</time><pdop>10.0</pdop><geoidheight>54.00</geoidheight><course>307.5</course><type>1</type></trkpt>
      <trkpt lat="40.59759718" lon="-4.90142929"><ele>2408</ele><speed>13.41</speed><time>2016-07-01T15:11:51Z</time><pdop>10.0</pdop><geoidheight>54.00</geoidheight><course>301.8</course><type>1</type></trkpt>
      <trkpt lat="40.59780278" lon="-4.90164482"><ele>2400</ele><speed>13.02</speed><time>2016-07-01T15:11:53Z</time><pdop>9.0</pdop><geoidheight>54.00</geoidheight><course>317.0</course><type>1</type></trkpt>
      <trkpt lat="40.59796058" lon="-4.90183381"><ele>2397</ele><speed>12.12</speed><time>2016-07-01T15:11:55Z</time><pdop>10.0</pdop><geoidheight>54.00</geoidheight><course>314.5</course><type>1</type></trkpt>
      <trkpt lat="40.59811404" lon="-4.9020355"><ele>2391</ele><speed>12.69</speed><time>2016-07-01T15:11:57Z</time><pdop>10.0</pdop><geoidheight>54.00</geoidheight><course>316.7</course><type>1</type></trkpt>
      <trkpt lat="40.59829979" lon="-4.90222004"><ele>2387</ele><speed>13.30</speed><time>2016-07-01T15:11:59Z</time><pdop>9.0</pdop><geoidheight>54.00</geoidheight><course>321.1</course><type>1</type></trkpt>
      <trkpt lat="40.59849209" lon="-4.90239448"><ele>2380</ele><speed>12.65</speed><time>2016-07-01T15:12:01Z</time><pdop>9.0</pdop><geoidheight>54.00</geoidheight><course>320.9</course><type>1</type></trkpt>
      <trkpt lat="40.59867812" lon="-4.90258659"><ele>2373</ele><speed>13.68</speed><time>2016-07-01T15:12:03Z</time><pdop>9.0</pdop><geoidheight>54.00</geoidheight><course>322.5</course><type>1</type></trkpt>
      <trkpt lat="40.59888552" lon="-4.90278201"><ele>2367</ele><speed>13.52</speed><time>2016-07-01T15:12:05Z</time><pdop>9.0</pdop><geoidheight>54.00</geoidheight><course>323.1</course><type>1</type></trkpt>
      <trkpt lat="40.59906233" lon="-4.90297198"><ele>2365</ele><speed>12.97</speed><time>2016-07-01T15:12:07Z</time><pdop>9.0</pdop><geoidheight>54.00</geoidheight><course>320.0</course><type>1</type></trkpt>
      <trkpt lat="40.59925254" lon="-4.90315635"><ele>2362</ele><speed>13.51</speed><time>2016-07-01T15:12:09Z</time><pdop>9.0</pdop><geoidheight>54.00</geoidheight><course>324.3</course><type>1</type></trkpt>
      <trkpt lat="40.59945735" lon="-4.9033935"><ele>2356</ele><speed>15.20</speed><time>2016-07-01T15:12:11Z</time><pdop>9.0</pdop><geoidheight>54.00</geoidheight><course>317.9</course><type>1</type></trkpt>
      <trkpt lat="40.59964091" lon="-4.90362751"><ele>2352</ele><speed>14.69</speed><time>2016-07-01T15:12:13Z</time><pdop>9.0</pdop><geoidheight>54.00</geoidheight><course>314.7</course><type>1</type></trkpt>
      <trkpt lat="40.59973727" lon="-4.90387615"><ele>2351</ele><speed>12.19</speed><time>2016-07-01T15:12:15Z</time><pdop>10.0</pdop><geoidheight>54.00</geoidheight><course>303.1</course><type>1</type></trkpt>
      <trkpt lat="40.59985147" lon="-4.90408114"><ele>2346</ele><speed>11.10</speed><time>2016-07-01T15:12:17Z</time><pdop>10.0</pdop><geoidheight>54.00</geoidheight><course>301.9</course><type>1</type></trkpt>
      <trkpt lat="40.60000436" lon="-4.90431274"><ele>2342</ele><speed>13.32</speed><time>2016-07-01T15:12:19Z</time><pdop>10.0</pdop><geoidheight>54.00</geoidheight><course>308.2</course><type>1</type></trkpt>
      <trkpt lat="40.60014231" lon="-4.9045947"><ele>2335</ele><speed>13.62</speed><time>2016-07-01T15:12:21Z</time><pdop>9.0</pdop><geoidheight>54.00</geoidheight><course>308.5</course><type>1</type></trkpt>
      <trkpt lat="40.60029886" lon="-4.90481211"><ele>2333</ele><speed>13.11</speed><time>2016-07-01T15:12:23Z</time><pdop>9.0</pdop><geoidheight>54.00</geoidheight><course>318.2</course><type>1</type></trkpt>
      <trkpt lat="40.60049126" lon="-4.90500344"><ele>2327</ele><speed>13.02</speed><time>2016-07-01T15:12:25Z</time><pdop>9.0</pdop><geoidheight>54.00</geoidheight><course>319.8</course><type>1</type></trkpt>
      <trkpt lat="40.60065141" lon="-4.90523353"><ele>2322</ele><speed>13.44</speed><time>2016-07-01T15:12:27Z</time><pdop>9.0</pdop><geoidheight>54.00</geoidheight><course>309.6</course><type>1</type></trkpt>
      <trkpt lat="40.60081446" lon="-4.90548243"><ele>2321</ele><speed>13.71</speed><time>2016-07-01T15:12:29Z</time><pdop>9.0</pdop><geoidheight>54.00</geoidheight><course>311.1</course><type>1</type></trkpt>
      <trkpt lat="40.60097921" lon="-4.90569313"><ele>2319</ele><speed>13.09</speed><time>2016-07-01T15:12:31Z</time><pdop>9.0</pdop><geoidheight>54.00</geoidheight><course>313.0</course><type>1</type></trkpt>
      <trkpt lat="40.60113021" lon="-4.90591297"><ele>2317</ele><speed>12.77</speed><time>2016-07-01T15:12:33Z</time><pdop>9.0</pdop><geoidheight>54.00</geoidheight><course>309.9</course><type>1</type></trkpt>
      <trkpt lat="40.60126588" lon="-4.90614361"><ele>2313</ele><speed>12.55</speed><time>2016-07-01T15:12:35Z</time><pdop>10.0</pdop><geoidheight>54.00</geoidheight><course>306.9</course><type>1</type></trkpt>
      <trkpt lat="40.60141902" lon="-4.90638275"><ele>2308</ele><speed>12.73</speed><time>2016-07-01T15:12:37Z</time><pdop>10.0</pdop><geoidheight>54.00</geoidheight><course>303.5</course><type>1</type></trkpt>
      <trkpt lat="40.60153032" lon="-4.90662365"><ele>2305</ele><speed>12.62</speed><time>2016-07-01T15:12:39Z</time><pdop>10.0</pdop><geoidheight>54.00</geoidheight><course>301.1</course><type>1</type></trkpt>
      <trkpt lat="40.60173191" lon="-4.90682961"><ele>2298</ele><speed>12.73</speed><time>2016-07-01T15:12:41Z</time><pdop>10.0</pdop><geoidheight>54.00</geoidheight><course>306.7</course><type>1</type></trkpt>
      <trkpt lat="40.60190002" lon="-4.90703895"><ele>2294</ele><speed>12.16</speed><time>2016-07-01T15:12:43Z</time><pdop>10.0</pdop><geoidheight>54.00</geoidheight><course>307.3</course><type>1</type></trkpt>
      <trkpt lat="40.60206582" lon="-4.90722536"><ele>2288</ele><speed>11.98</speed><time>2016-07-01T15:12:45Z</time><pdop>10.0</pdop><geoidheight>54.00</geoidheight><course>311.7</course><type>1</type></trkpt>
      <trkpt lat="40.60226854" lon="-4.90741239"><ele>2280</ele><speed>13.00</speed><time>2016-07-01T15:12:47Z</time><pdop>11.0</pdop><geoidheight>54.00</geoidheight><course>314.0</course><type>1</type></trkpt>
      <trkpt lat="40.60239416" lon="-4.90763368"><ele>2277</ele><speed>12.11</speed><time>2016-07-01T15:12:49Z</time><pdop>10.0</pdop><geoidheight>54.00</geoidheight><course>309.2</course><type>1</type></trkpt>
      <trkpt lat="40.6026091" lon="-4.9078201"><ele>2269</ele><speed>12.72</speed><time>2016-07-01T15:12:51Z</time><pdop>10.0</pdop><geoidheight>54.00</geoidheight><course>314.8</course><type>1</type></trkpt>
      <trkpt lat="40.602779" lon="-4.90803434"><ele>2264</ele><speed>13.09</speed><time>2016-07-01T15:12:53Z</time><pdop>11.0</pdop><geoidheight>54.00</geoidheight><course>312.0</course><type>1</type></trkpt>
      <trkpt lat="40.60297535" lon="-4.90835286"><ele>2257</ele><speed>12.48</speed><time>2016-07-01T15:12:56Z</time><pdop>12.0</pdop><geoidheight>54.00</geoidheight><course>307.7</course><type>1</type></trkpt>
      <trkpt lat="40.60302362" lon="-4.90864154"><ele>2255</ele><speed>11.32</speed><time>2016-07-01T15:12:58Z</time><pdop>12.0</pdop><geoidheight>54.00</geoidheight><course>297.6</course><type>1</type></trkpt>
      <trkpt lat="40.60324164" lon="-4.90882562"><ele>2245</ele><speed>11.67</speed><time>2016-07-01T15:13:00Z</time><pdop>11.0</pdop><geoidheight>54.00</geoidheight><course>311.2</course><type>1</type></trkpt>
      <trkpt lat="40.60339215" lon="-4.90901316"><ele>2239</ele><speed>11.50</speed><time>2016-07-01T15:13:02Z</time><pdop>11.0</pdop><geoidheight>54.00</geoidheight><course>310.1</course><type>1</type></trkpt>
      <trkpt lat="40.603617" lon="-4.90928478"><ele>2231</ele><speed>11.07</speed><time>2016-07-01T15:13:05Z</time><pdop>13.0</pdop><geoidheight>54.00</geoidheight><course>314.2</course><type>1</type></trkpt>
      <trkpt lat="40.60363894" lon="-4.90967394"><ele>2221</ele><speed>10.00</speed><time>2016-07-01T15:13:08Z</time><pdop>10.0</pdop><geoidheight>54.00</geoidheight><course>295.4</course><type>1</type></trkpt>
      <trkpt lat="40.60381482" lon="-4.90986569"><ele>2821</ele><speed>8.39</speed><time>2016-07-01T15:13:11Z</time><pdop>10.0</pdop><geoidheight>54.00</geoidheight><course>323.9</course><type>1</type></trkpt>
      <trkpt lat="40.60421541" lon="-4.9103259"><ele>2410</ele><speed>14.42</speed><time>2016-07-01T15:13:16Z</time><pdop>11.0</pdop><geoidheight>54.00</geoidheight><course>313.3</course><type>1</type></trkpt>
      <trkpt lat="40.60441124" lon="-4.91056416"><ele>2341</ele><speed>14.24</speed><time>2016-07-01T15:13:18Z</time><pdop>10.0</pdop><geoidheight>54.00</geoidheight><course>317.5</course><type>1</type></trkpt>
      <trkpt lat="40.60462542" lon="-4.91078258"><ele>2311</ele><speed>14.12</speed><time>2016-07-01T15:13:20Z</time><pdop>10.0</pdop><geoidheight>54.00</geoidheight><course>323.8</course><type>1</type></trkpt>
      <trkpt lat="40.60485683" lon="-4.91096637"><ele>2286</ele><speed>14.72</speed><time>2016-07-01T15:13:22Z</time><pdop>10.0</pdop><geoidheight>54.00</geoidheight><course>327.3</course><type>1</type></trkpt>
      <trkpt lat="40.60508103" lon="-4.91112222"><ele>2249</ele><speed>13.60</speed><time>2016-07-01T15:13:24Z</time><pdop>10.0</pdop><geoidheight>54.00</geoidheight><course>334.4</course><type>1</type></trkpt>
      <trkpt lat="40.60526361" lon="-4.91120557"><ele>2225</ele><speed>11.24</speed><time>2016-07-01T15:13:26Z</time><pdop>10.0</pdop><geoidheight>54.00</geoidheight><course>344.3</course><type>1</type></trkpt>
      <trkpt lat="40.60552301" lon="-4.91127752"><ele>2207</ele><speed>10.58</speed><time>2016-07-01T15:13:29Z</time><pdop>11.0</pdop><geoidheight>54.00</geoidheight><course>348.1</course><type>1</type></trkpt>
      <trkpt lat="40.60579689" lon="-4.91145889"><ele>2207</ele><speed>11.48</speed><time>2016-07-01T15:13:32Z</time><pdop>13.0</pdop><geoidheight>54.00</geoidheight><course>335.2</course><type>1</type></trkpt>
      <trkpt lat="40.60597751" lon="-4.91171632"><ele>2206</ele><speed>10.60</speed><time>2016-07-01T15:13:35Z</time><pdop>14.0</pdop><geoidheight>54.00</geoidheight><course>317.1</course><type>1</type></trkpt>
      <trkpt lat="40.60610886" lon="-4.91206827"><ele>2200</ele><speed>10.19</speed><time>2016-07-01T15:13:38Z</time><pdop>13.0</pdop><geoidheight>54.00</geoidheight><course>296.7</course><type>1</type></trkpt>
      <trkpt lat="40.60620747" lon="-4.91238196"><ele>2190</ele><speed>9.46</speed><time>2016-07-01T15:13:41Z</time><pdop>12.0</pdop><geoidheight>54.00</geoidheight><course>285.7</course><type>1</type></trkpt>
      <trkpt lat="40.60622131" lon="-4.9127305"><ele>2174</ele><speed>9.79</speed><time>2016-07-01T15:13:44Z</time><pdop>13.0</pdop><geoidheight>54.00</geoidheight><course>274.6</course><type>1</type></trkpt>
      <trkpt lat="40.60632559" lon="-4.91317557"><ele>2166</ele><speed>12.48</speed><time>2016-07-01T15:13:47Z</time><pdop>12.0</pdop><geoidheight>54.00</geoidheight><course>284.0</course><type>1</type></trkpt>
      <trkpt lat="40.6064221" lon="-4.91350063"><ele>2139</ele><speed>10.03</speed><time>2016-07-01T15:13:50Z</time><pdop>11.0</pdop><geoidheight>54.00</geoidheight><course>290.8</course><type>1</type></trkpt>
      <trkpt lat="40.60652671" lon="-4.91386604"><ele>2127</ele><speed>12.93</speed><time>2016-07-01T15:13:53Z</time><pdop>13.0</pdop><geoidheight>54.00</geoidheight><course>290.7</course><type>1</type></trkpt>
      <trkpt lat="40.60655463" lon="-4.91416171"><ele>2099</ele><speed>12.15</speed><time>2016-07-01T15:13:55Z</time><pdop>11.0</pdop><geoidheight>54.00</geoidheight><course>283.1</course><type>1</type></trkpt>
      <trkpt lat="40.60661309" lon="-4.91441452"><ele>2086</ele><speed>10.55</speed><time>2016-07-01T15:13:57Z</time><pdop>11.0</pdop><geoidheight>54.00</geoidheight><course>285.3</course><type>1</type></trkpt>
      <trkpt lat="40.60664736" lon="-4.91478472"><ele>2072</ele><speed>10.42</speed><time>2016-07-01T15:14:00Z</time><pdop>11.0</pdop><geoidheight>54.00</geoidheight><course>275.0</course><type>1</type></trkpt>
      <trkpt lat="40.60669962" lon="-4.91514793"><ele>2057</ele><speed>10.28</speed><time>2016-07-01T15:14:03Z</time><pdop>11.0</pdop><geoidheight>54.00</geoidheight><course>281.4</course><type>1</type></trkpt>
      <trkpt lat="40.60681606" lon="-4.91542354"><ele>2044</ele><speed>8.03</speed><time>2016-07-01T15:14:06Z</time><pdop>11.0</pdop><geoidheight>54.00</geoidheight><course>291.8</course><type>1</type></trkpt>
      <trkpt lat="40.60680327" lon="-4.91573758"><ele>2040</ele><speed>8.80</speed><time>2016-07-01T15:14:09Z</time><pdop>14.0</pdop><geoidheight>54.00</geoidheight><course>269.6</course><type>1</type></trkpt>
      <trkpt lat="40.60689075" lon="-4.9160707"><ele>2033</ele><speed>9.53</speed><time>2016-07-01T15:14:12Z</time><pdop>13.0</pdop><geoidheight>54.00</geoidheight><course>286.6</course><type>1</type></trkpt>
      <trkpt lat="40.60691488" lon="-4.9164142"><ele>2009</ele><speed>8.92</speed><time>2016-07-01T15:14:16Z</time><pdop>11.0</pdop><geoidheight>54.00</geoidheight><course>275.4</course><type>1</type></trkpt>
      <trkpt lat="40.60687362" lon="-4.916701"><ele>2001</ele><speed>9.94</speed><time>2016-07-01T15:14:19Z</time><pdop>12.0</pdop><geoidheight>54.00</geoidheight><course>261.1</course><type>1</type></trkpt>
      <trkpt lat="40.60687018" lon="-4.91700209"><ele>1980</ele><speed>12.35</speed><time>2016-07-01T15:14:22Z</time><pdop>13.0</pdop><geoidheight>54.00</geoidheight><course>274.2</course><type>1</type></trkpt>
      <trkpt lat="40.60693424" lon="-4.91732378"><ele>1947</ele><speed>9.15</speed><time>2016-07-01T15:14:25Z</time><pdop>11.0</pdop><geoidheight>54.00</geoidheight><course>279.8</course><type>1</type></trkpt>
      <trkpt lat="40.60689546" lon="-4.91761725"><ele>1939</ele><speed>8.82</speed><time>2016-07-01T15:14:28Z</time><pdop>11.0</pdop><geoidheight>54.00</geoidheight><course>251.6</course><type>1</type></trkpt>
      <trkpt lat="40.60679928" lon="-4.91793829"><ele>1932</ele><speed>9.89</speed><time>2016-07-01T15:14:31Z</time><pdop>14.0</pdop><geoidheight>54.00</geoidheight><course>244.5</course><type>1</type></trkpt>
      <trkpt lat="40.60661427" lon="-4.91842681"><ele>1925</ele><speed>11.82</speed><time>2016-07-01T15:14:35Z</time><pdop>18.0</pdop><geoidheight>54.00</geoidheight><course>245.0</course><type>1</type></trkpt>
      <trkpt lat="40.60659437" lon="-4.91884642"><ele>1922</ele><speed>6.02</speed><time>2016-07-01T15:14:39Z</time><pdop>12.0</pdop><geoidheight>54.00</geoidheight><course>256.7</course><type>1</type></trkpt>
      <trkpt lat="40.60653964" lon="-4.91916846"><ele>1909</ele><speed>8.32</speed><time>2016-07-01T15:14:43Z</time><pdop>13.0</pdop><geoidheight>54.00</geoidheight><course>250.2</course><type>1</type></trkpt>
      <trkpt lat="40.60650066" lon="-4.91956566"><ele>1907</ele><speed>9.88</speed><time>2016-07-01T15:14:46Z</time><pdop>13.0</pdop><geoidheight>54.00</geoidheight><course>260.1</course><type>1</type></trkpt>
      <trkpt lat="40.60644664" lon="-4.9198833"><ele>1901</ele><speed>5.59</speed><time>2016-07-01T15:14:50Z</time><pdop>13.0</pdop><geoidheight>54.00</geoidheight><course>262.6</course><type>1</type></trkpt>
      <trkpt lat="40.60633699" lon="-4.92025421"><ele>1897</ele><speed>9.33</speed><time>2016-07-01T15:14:54Z</time><pdop>12.0</pdop><geoidheight>54.00</geoidheight><course>252.2</course><type>1</type></trkpt>
      <trkpt lat="40.60619285" lon="-4.92051689"><ele>1894</ele><speed>8.52</speed><time>2016-07-01T15:14:57Z</time><pdop>12.0</pdop><geoidheight>54.00</geoidheight><course>234.0</course><type>1</type></trkpt>
      <trkpt lat="40.60636394" lon="-4.9202767"><ele>1898</ele><speed>8.88</speed><time>2016-07-01T15:15:06Z</time><pdop>12.0</pdop><geoidheight>54.00</geoidheight><course>57.7</course><type>1</type></trkpt>
      <trkpt lat="40.60624748" lon="-4.91990302"><ele>1897</ele><speed>12.07</speed><time>2016-07-01T15:15:08Z</time><pdop>12.0</pdop><geoidheight>54.00</geoidheight><course>105.2</course><type>1</type></trkpt>
      <trkpt lat="40.6060504" lon="-4.91956723"><ele>1899</ele><speed>13.32</speed><time>2016-07-01T15:15:10Z</time><pdop>11.0</pdop><geoidheight>54.00</geoidheight><course>131.6</course><type>1</type></trkpt>
      <trkpt lat="40.60580812" lon="-4.91932175"><ele>1901</ele><speed>14.48</speed><time>2016-07-01T15:15:12Z</time><pdop>12.0</pdop><geoidheight>54.00</geoidheight><course>144.2</course><type>1</type></trkpt>
      <trkpt lat="40.60566196" lon="-4.91958589"><ele>1912</ele><speed>4.31</speed><time>2016-07-01T15:15:18Z</time><pdop>13.0</pdop><geoidheight>54.00</geoidheight><course>283.9</course><type>1</type></trkpt>
      <trkpt lat="40.60577468" lon="-4.91931455"><ele>1922</ele><speed>7.90</speed><time>2016-07-01T15:15:23Z</time><pdop>12.0</pdop><geoidheight>54.00</geoidheight><course>76.7</course><type>1</type></trkpt>
      <trkpt lat="40.60566982" lon="-4.91886067"><ele>1925</ele><speed>16.95</speed><time>2016-07-01T15:15:25Z</time><pdop>10.0</pdop><geoidheight>54.00</geoidheight><course>113.2</course><type>1</type></trkpt>
      <trkpt lat="40.60547344" lon="-4.91854849"><ele>1929</ele><speed>17.41</speed><time>2016-07-01T15:15:27Z</time><pdop>10.0</pdop><geoidheight>54.00</geoidheight><course>135.5</course><type>1</type></trkpt>
      <trkpt lat="40.60526183" lon="-4.91836273"><ele>1934</ele><speed>14.57</speed><time>2016-07-01T15:15:29Z</time><pdop>10.0</pdop><geoidheight>54.00</geoidheight><course>147.4</course><type>1</type></trkpt>
      <trkpt lat="40.60504554" lon="-4.91822458"><ele>1938</ele><speed>13.84</speed><time>2016-07-01T15:15:31Z</time><pdop>12.0</pdop><geoidheight>54.00</geoidheight><course>151.3</course><type>1</type></trkpt>
      <trkpt lat="40.6049364" lon="-4.91860093"><ele>1945</ele><speed>6.41</speed><time>2016-07-01T15:15:35Z</time><pdop>13.0</pdop><geoidheight>54.00</geoidheight><course>242.5</course><type>1</type></trkpt>
      <trkpt lat="40.6052319" lon="-4.91839689"><ele>1960</ele><speed>10.82</speed><time>2016-07-01T15:15:41Z</time><pdop>12.0</pdop><geoidheight>54.00</geoidheight><course>51.9</course><type>1</type></trkpt>
      <trkpt lat="40.60533532" lon="-4.91814529"><ele>1965</ele><speed>10.52</speed><time>2016-07-01T15:15:43Z</time><pdop>12.0</pdop><geoidheight>54.00</geoidheight><course>64.4</course><type>1</type></trkpt>
      <trkpt lat="40.6053247" lon="-4.91775444"><ele>1970</ele><speed>13.23</speed><time>2016-07-01T15:15:45Z</time><pdop>12.0</pdop><geoidheight>54.00</geoidheight><course>89.6</course><type>1</type></trkpt>
      <trkpt lat="40.6052079" lon="-4.91737983"><ele>1974</ele><speed>15.30</speed><time>2016-07-01T15:15:47Z</time><pdop>12.0</pdop><geoidheight>54.00</geoidheight><course>109.4</course><type>1</type></trkpt>
      <trkpt lat="40.60502273" lon="-4.91708995"><ele>1981</ele><speed>15.25</speed><time>2016-07-01T15:15:49Z</time><pdop>10.0</pdop><geoidheight>54.00</geoidheight><course>128.1</course><type>1</type></trkpt>
      <trkpt lat="40.60482521" lon="-4.91683352"><ele>1983</ele><speed>14.85</speed><time>2016-07-01T15:15:51Z</time><pdop>10.0</pdop><geoidheight>54.00</geoidheight><course>141.3</course><type>1</type></trkpt>
      <trkpt lat="40.60459453" lon="-4.91669359"><ele>1988</ele><speed>13.65</speed><time>2016-07-01T15:15:53Z</time><pdop>4.0</pdop><geoidheight>54.00</geoidheight><course>161.6</course><type>1</type></trkpt>
      <trkpt lat="40.60448767" lon="-4.9166718"><ele>1990</ele><speed>12.45</speed><time>2016-07-01T15:15:54Z</time><pdop>4.0</pdop><geoidheight>54.00</geoidheight><course>172.3</course><type>1</type></trkpt>
      <trkpt lat="40.60438374" lon="-4.91665479"><ele>1992</ele><speed>11.84</speed><time>2016-07-01T15:15:55Z</time><pdop>5.0</pdop><geoidheight>54.00</geoidheight><course>175.3</course><type>1</type></trkpt>
      <trkpt lat="40.60428774" lon="-4.91664589"><ele>1995</ele><speed>10.94</speed><time>2016-07-01T15:15:56Z</time><pdop>5.0</pdop><geoidheight>54.00</geoidheight><course>179.3</course><type>1</type></trkpt>
      <trkpt lat="40.60424292" lon="-4.9168116"><ele>2006</ele><speed>5.16</speed><time>2016-07-01T15:15:59Z</time><pdop>5.0</pdop><geoidheight>54.00</geoidheight><course>232.7</course><type>1</type></trkpt>
      <trkpt lat="40.60425164" lon="-4.91692002"><ele>2014</ele><speed>3.46</speed><time>2016-07-01T15:16:02Z</time><pdop>4.0</pdop><geoidheight>54.00</geoidheight><course>304.2</course><type>1</type></trkpt>
      <trkpt lat="40.60433704" lon="-4.91694882"><ele>2018</ele><speed>5.85</speed><time>2016-07-01T15:16:04Z</time><pdop>3.0</pdop><geoidheight>54.00</geoidheight><course>350.5</course><type>1</type></trkpt>
      <trkpt lat="40.60443172" lon="-4.91689529"><ele>2023</ele><speed>5.94</speed><time>2016-07-01T15:16:06Z</time><pdop>6.0</pdop><geoidheight>54.00</geoidheight><course>25.9</course><type>1</type></trkpt>
      <trkpt lat="40.60449884" lon="-4.91664915"><ele>2026</ele><speed>10.76</speed><time>2016-07-01T15:16:08Z</time><pdop>5.0</pdop><geoidheight>54.00</geoidheight><course>69.2</course><type>1</type></trkpt>
      <trkpt lat="40.604529" lon="-4.91651088"><ele>2028</ele><speed>12.43</speed><time>2016-07-01T15:16:09Z</time><pdop>4.0</pdop><geoidheight>54.00</geoidheight><course>73.3</course><type>1</type></trkpt>
      <trkpt lat="40.60455473" lon="-4.91635329"><ele>2031</ele><speed>13.93</speed><time>2016-07-01T15:16:10Z</time><pdop>4.0</pdop><geoidheight>54.00</geoidheight><course>78.9</course><type>1</type></trkpt>
      <trkpt lat="40.60456345" lon="-4.9161741"><ele>2034</ele><speed>15.47</speed><time>2016-07-01T15:16:11Z</time><pdop>4.0</pdop><geoidheight>54.00</geoidheight><course>90.0</course><type>1</type></trkpt>
      <trkpt lat="40.60455485" lon="-4.91599271"><ele>2036</ele><speed>15.61</speed><time>2016-07-01T15:16:12Z</time><pdop>4.0</pdop><geoidheight>54.00</geoidheight><course>94.8</course><type>1</type></trkpt>
      <trkpt lat="40.60451793" lon="-4.91582891"><ele>2038</ele><speed>15.14</speed><time>2016-07-01T15:16:13Z</time><pdop>5.0</pdop><geoidheight>54.00</geoidheight><course>103.1</course><type>1</type></trkpt>
      <trkpt lat="40.60444476" lon="-4.91566227"><ele>2039</ele><speed>15.42</speed><time>2016-07-01T15:16:14Z</time><pdop>6.0</pdop><geoidheight>54.00</geoidheight><course>112.4</course><type>1</type></trkpt>
      <trkpt lat="40.60438576" lon="-4.91550652"><ele>2040</ele><speed>15.27</speed><time>2016-07-01T15:16:15Z</time><pdop>8.0</pdop><geoidheight>54.00</geoidheight><course>114.0</course><type>1</type></trkpt>
      <trkpt lat="40.60419442" lon="-4.91523349"><ele>2040</ele><speed>14.63</speed><time>2016-07-01T15:16:17Z</time><pdop>10.0</pdop><geoidheight>54.00</geoidheight><course>123.4</course><type>1</type></trkpt>
      <trkpt lat="40.60399493" lon="-4.91518028"><ele>2044</ele><speed>12.29</speed><time>2016-07-01T15:16:19Z</time><pdop>11.0</pdop><geoidheight>54.00</geoidheight><course>143.6</course><type>1</type></trkpt>
      <trkpt lat="40.60376984" lon="-4.91537804"><ele>2046</ele><speed>7.46</speed><time>2016-07-01T15:16:22Z</time><pdop>11.0</pdop><geoidheight>54.00</geoidheight><course>184.9</course><type>1</type></trkpt>
      <trkpt lat="40.60376389" lon="-4.91565002"><ele>2049</ele><speed>5.59</speed><time>2016-07-01T15:16:24Z</time><pdop>7.0</pdop><geoidheight>54.00</geoidheight><course>248.9</course><type>1</type></trkpt>
      <trkpt lat="40.60381441" lon="-4.91578462"><ele>2060</ele><speed>4.93</speed><time>2016-07-01T15:16:27Z</time><pdop>5.0</pdop><geoidheight>54.00</geoidheight><course>340.9</course><type>1</type></trkpt>
      <trkpt lat="40.60392574" lon="-4.91580558"><ele>2068</ele><speed>5.13</speed><time>2016-07-01T15:16:30Z</time><pdop>3.0</pdop><geoidheight>54.00</geoidheight><course>9.2</course><type>1</type></trkpt>
      <trkpt lat="40.60397653" lon="-4.91577943"><ele>2071</ele><speed>5.73</speed><time>2016-07-01T15:16:31Z</time><pdop>3.0</pdop><geoidheight>54.00</geoidheight><course>15.4</course><type>1</type></trkpt>
      <trkpt lat="40.60406667" lon="-4.91571549"><ele>2074</ele><speed>5.98</speed><time>2016-07-01T15:16:33Z</time><pdop>6.0</pdop><geoidheight>54.00</geoidheight><course>29.1</course><type>1</type></trkpt>
      <trkpt lat="40.60411544" lon="-4.91555114"><ele>2075</ele><speed>9.18</speed><time>2016-07-01T15:16:34Z</time><pdop>6.0</pdop><geoidheight>54.00</geoidheight><course>58.0</course><type>1</type></trkpt>
      <trkpt lat="40.60416138" lon="-4.91541591"><ele>2076</ele><speed>11.42</speed><time>2016-07-01T15:16:35Z</time><pdop>5.0</pdop><geoidheight>54.00</geoidheight><course>60.5</course><type>1</type></trkpt>
      <trkpt lat="40.60420136" lon="-4.91527897"><ele>2076</ele><speed>11.49</speed><time>2016-07-01T15:16:36Z</time><pdop>7.0</pdop><geoidheight>54.00</geoidheight><course>64.3</course><type>1</type></trkpt>
      <trkpt lat="40.60413664" lon="-4.91487709"><ele>2078</ele><speed>14.36</speed><time>2016-07-01T15:16:38Z</time><pdop>11.0</pdop><geoidheight>54.00</geoidheight><course>96.6</course><type>1</type></trkpt>
      <trkpt lat="40.60398187" lon="-4.91470859"><ele>2078</ele><speed>16.16</speed><time>2016-07-01T15:16:39Z</time><pdop>11.0</pdop><geoidheight>54.00</geoidheight><course>120.9</course><type>1</type></trkpt>
      <trkpt lat="40.60370231" lon="-4.91439216"><ele>2080</ele><speed>18.27</speed><time>2016-07-01T15:16:41Z</time><pdop>10.0</pdop><geoidheight>54.00</geoidheight><course>135.6</course><type>1</type></trkpt>
      <trkpt lat="40.60343295" lon="-4.91417089"><ele>2083</ele><speed>17.95</speed><time>2016-07-01T15:16:43Z</time><pdop>8.0</pdop><geoidheight>54.00</geoidheight><course>145.6</course><type>1</type></trkpt>
      <trkpt lat="40.60319997" lon="-4.91413651"><ele>2086</ele><speed>14.54</speed><time>2016-07-01T15:16:45Z</time><pdop>9.0</pdop><geoidheight>54.00</geoidheight><course>158.5</course><type>1</type></trkpt>
      <trkpt lat="40.6030169" lon="-4.91403073"><ele>2089</ele><speed>11.76</speed><time>2016-07-01T15:16:47Z</time><pdop>12.0</pdop><geoidheight>54.00</geoidheight><course>155.1</course><type>1</type></trkpt>
      <trkpt lat="40.60299491" lon="-4.9143024"><ele>2092</ele><speed>4.92</speed><time>2016-07-01T15:16:49Z</time><pdop>8.0</pdop><geoidheight>54.00</geoidheight><course>213.2</course><type>1</type></trkpt>
      <trkpt lat="40.60306563" lon="-4.91447905"><ele>2097</ele><speed>5.02</speed><time>2016-07-01T15:16:52Z</time><pdop>6.0</pdop><geoidheight>54.00</geoidheight><course>311.6</course><type>1</type></trkpt>
      <trkpt lat="40.6031944" lon="-4.91430313"><ele>2106</ele><speed>9.70</speed><time>2016-07-01T15:16:55Z</time><pdop>7.0</pdop><geoidheight>54.00</geoidheight><course>56.0</course><type>1</type></trkpt>
      <trkpt lat="40.60326965" lon="-4.91409866"><ele>2112</ele><speed>10.22</speed><time>2016-07-01T15:16:57Z</time><pdop>8.0</pdop><geoidheight>54.00</geoidheight><course>60.9</course><type>1</type></trkpt>
      <trkpt lat="40.60316916" lon="-4.91372761"><ele>2114</ele><speed>13.20</speed><time>2016-07-01T15:16:59Z</time><pdop>7.0</pdop><geoidheight>54.00</geoidheight><course>97.9</course><type>1</type></trkpt>
      <trkpt lat="40.60305497" lon="-4.91352576"><ele>2117</ele><speed>16.47</speed><time>2016-07-01T15:17:00Z</time><pdop>7.0</pdop><geoidheight>54.00</geoidheight><course>113.8</course><type>1</type></trkpt>
      <trkpt lat="40.6028898" lon="-4.91325695"><ele>2118</ele><speed>14.96</speed><time>2016-07-01T15:17:02Z</time><pdop>10.0</pdop><geoidheight>54.00</geoidheight><course>120.5</course><type>1</type></trkpt>
      <trkpt lat="40.60269702" lon="-4.91339334"><ele>2122</ele><speed>6.09</speed><time>2016-07-01T15:17:05Z</time><pdop>11.0</pdop><geoidheight>54.00</geoidheight><course>177.2</course><type>1</type></trkpt>
      <trkpt lat="40.60263497" lon="-4.91364062"><ele>2128</ele><speed>4.91</speed><time>2016-07-01T15:17:07Z</time><pdop>10.0</pdop><geoidheight>54.00</geoidheight><course>238.8</course><type>1</type></trkpt>
      <trkpt lat="40.60282327" lon="-4.91343796"><ele>2134</ele><speed>7.21</speed><time>2016-07-01T15:17:11Z</time><pdop>10.0</pdop><geoidheight>54.00</geoidheight><course>55.4</course><type>1</type></trkpt>
      <trkpt lat="40.60285018" lon="-4.91313088"><ele>2137</ele><speed>10.39</speed><time>2016-07-01T15:17:13Z</time><pdop>10.0</pdop><geoidheight>54.00</geoidheight><course>84.7</course><type>1</type></trkpt>
      <trkpt lat="40.60275324" lon="-4.91278919"><ele>2141</ele><speed>11.57</speed><time>2016-07-01T15:17:15Z</time><pdop>11.0</pdop><geoidheight>54.00</geoidheight><course>107.9</course><type>1</type></trkpt>
      <trkpt lat="40.6025502" lon="-4.91254136"><ele>2147</ele><speed>11.07</speed><time>2016-07-01T15:17:17Z</time><pdop>11.0</pdop><geoidheight>54.00</geoidheight><course>130.4</course><type>1</type></trkpt>
      <trkpt lat="40.60231802" lon="-4.91265801"><ele>2428</ele><speed>3.40</speed><time>2016-07-01T15:17:23Z</time><pdop>12.0</pdop><geoidheight>54.00</geoidheight><course>243.7</course><type>1</type></trkpt>
      <trkpt lat="40.60250405" lon="-4.9125034"><ele>2228</ele><speed>6.99</speed><time>2016-07-01T15:17:28Z</time><pdop>7.0</pdop><geoidheight>54.00</geoidheight><course>63.0</course><type>1</type></trkpt>
      <trkpt lat="40.60247504" lon="-4.91213101"><ele>2228</ele><speed>11.98</speed><time>2016-07-01T15:17:30Z</time><pdop>9.0</pdop><geoidheight>54.00</geoidheight><course>95.7</course><type>1</type></trkpt>
      <trkpt lat="40.602393" lon="-4.91191327"><ele>2219</ele><speed>14.47</speed><time>2016-07-01T15:17:31Z</time><pdop>9.0</pdop><geoidheight>54.00</geoidheight><course>107.9</course><type>1</type></trkpt>
      <trkpt lat="40.60220723" lon="-4.91157694"><ele>2211</ele><speed>15.86</speed><time>2016-07-01T15:17:33Z</time><pdop>9.0</pdop><geoidheight>54.00</geoidheight><course>124.1</course><type>1</type></trkpt>
      <trkpt lat="40.60201457" lon="-4.91142903"><ele>2212</ele><speed>18.14</speed><time>2016-07-01T15:17:34Z</time><pdop>7.0</pdop><geoidheight>54.00</geoidheight><course>141.3</course><type>1</type></trkpt>
      <trkpt lat="40.60188153" lon="-4.91131807"><ele>2206</ele><speed>16.40</speed><time>2016-07-01T15:17:35Z</time><pdop>6.0</pdop><geoidheight>54.00</geoidheight><course>144.3</course><type>1</type></trkpt>
      <trkpt lat="40.60176759" lon="-4.91121731"><ele>2204</ele><speed>14.03</speed><time>2016-07-01T15:17:36Z</time><pdop>5.0</pdop><geoidheight>54.00</geoidheight><course>147.5</course><type>1</type></trkpt>
      <trkpt lat="40.60166007" lon="-4.91114139"><ele>2200</ele><speed>13.68</speed><time>2016-07-01T15:17:37Z</time><pdop>5.0</pdop><geoidheight>54.00</geoidheight><course>150.9</course><type>1</type></trkpt>
      <trkpt lat="40.6015533" lon="-4.91109606"><ele>2200</ele><speed>13.52</speed><time>2016-07-01T15:17:38Z</time><pdop>6.0</pdop><geoidheight>54.00</geoidheight><course>155.5</course><type>1</type></trkpt>
      <trkpt lat="40.60139536" lon="-4.91119888"><ele>2199</ele><speed>10.59</speed><time>2016-07-01T15:17:40Z</time><pdop>7.0</pdop><geoidheight>54.00</geoidheight><course>181.3</course><type>1</type></trkpt>
      <trkpt lat="40.60141391" lon="-4.91144165"><ele>2202</ele><speed>7.35</speed><time>2016-07-01T15:17:42Z</time><pdop>7.0</pdop><geoidheight>54.00</geoidheight><course>251.4</course><type>1</type></trkpt>
      <trkpt lat="40.60151017" lon="-4.91156771"><ele>2199</ele><speed>5.87</speed><time>2016-07-01T15:17:44Z</time><pdop>4.0</pdop><geoidheight>54.00</geoidheight><course>302.9</course><type>1</type></trkpt>
      <trkpt lat="40.60156527" lon="-4.91169841"><ele>2198</ele><speed>5.78</speed><time>2016-07-01T15:17:46Z</time><pdop>4.0</pdop><geoidheight>54.00</geoidheight><course>301.6</course><type>1</type></trkpt>
      <trkpt lat="40.60163819" lon="-4.9117359"><ele>2196</ele><speed>4.11</speed><time>2016-07-01T15:17:48Z</time><pdop>4.0</pdop><geoidheight>54.00</geoidheight><course>345.9</course><type>1</type></trkpt>
      <trkpt lat="40.6017162" lon="-4.91164017"><ele>2195</ele><speed>4.48</speed><time>2016-07-01T15:17:50Z</time><pdop>6.0</pdop><geoidheight>54.00</geoidheight><course>31.2</course><type>1</type></trkpt>
      <trkpt lat="40.60174199" lon="-4.91144042"><ele>2195</ele><speed>9.67</speed><time>2016-07-01T15:17:51Z</time><pdop>6.0</pdop><geoidheight>54.00</geoidheight><course>63.7</course><type>1</type></trkpt>
      <trkpt lat="40.60176021" lon="-4.911154"><ele>2196</ele><speed>9.99</speed><time>2016-07-01T15:17:53Z</time><pdop>8.0</pdop><geoidheight>54.00</geoidheight><course>80.5</course><type>1</type></trkpt>
      <trkpt lat="40.60163814" lon="-4.91095984"><ele>2194</ele><speed>12.88</speed><time>2016-07-01T15:17:54Z</time><pdop>8.0</pdop><geoidheight>54.00</geoidheight><course>106.4</course><type>1</type></trkpt>
      <trkpt lat="40.60151165" lon="-4.91082506"><ele>2193</ele><speed>13.95</speed><time>2016-07-01T15:17:55Z</time><pdop>9.0</pdop><geoidheight>54.00</geoidheight><course>122.4</course><type>1</type></trkpt>
      <trkpt lat="40.60137044" lon="-4.9106409"><ele>2192</ele><speed>15.92</speed><time>2016-07-01T15:17:56Z</time><pdop>8.0</pdop><geoidheight>54.00</geoidheight><course>130.7</course><type>1</type></trkpt>
      <trkpt lat="40.60123478" lon="-4.91067541"><ele>2195</ele><speed>12.99</speed><time>2016-07-01T15:17:57Z</time><pdop>6.0</pdop><geoidheight>54.00</geoidheight><course>162.0</course><type>1</type></trkpt>
      <trkpt lat="40.60112197" lon="-4.91062367"><ele>2197</ele><speed>12.28</speed><time>2016-07-01T15:17:58Z</time><pdop>6.0</pdop><geoidheight>54.00</geoidheight><course>163.6</course><type>1</type></trkpt>
      <trkpt lat="40.60093378" lon="-4.9105314"><ele>2196</ele><speed>11.37</speed><time>2016-07-01T15:18:00Z</time><pdop>7.0</pdop><geoidheight>54.00</geoidheight><course>166.1</course><type>1</type></trkpt>
      <trkpt lat="40.60086593" lon="-4.91075784"><ele>2196</ele><speed>8.15</speed><time>2016-07-01T15:18:02Z</time><pdop>10.0</pdop><geoidheight>54.00</geoidheight><course>225.1</course><type>1</type></trkpt>
      <trkpt lat="40.60102248" lon="-4.91089995"><ele>2193</ele><speed>4.31</speed><time>2016-07-01T15:18:08Z</time><pdop>11.0</pdop><geoidheight>54.00</geoidheight><course>12.3</course><type>1</type></trkpt>
      <trkpt lat="40.60116019" lon="-4.91067197"><ele>2194</ele><speed>9.60</speed><time>2016-07-01T15:18:10Z</time><pdop>11.0</pdop><geoidheight>54.00</geoidheight><course>52.2</course><type>1</type></trkpt>
      <trkpt lat="40.601155" lon="-4.91035953"><ele>2193</ele><speed>13.82</speed><time>2016-07-01T15:18:12Z</time><pdop>10.0</pdop><geoidheight>54.00</geoidheight><course>89.4</course><type>1</type></trkpt>
      <trkpt lat="40.6010878" lon="-4.91003455"><ele>2191</ele><speed>14.68</speed><time>2016-07-01T15:18:14Z</time><pdop>9.0</pdop><geoidheight>54.00</geoidheight><course>105.9</course><type>1</type></trkpt>
      <trkpt lat="40.60099036" lon="-4.90972606"><ele>2191</ele><speed>13.85</speed><time>2016-07-01T15:18:16Z</time><pdop>9.0</pdop><geoidheight>54.00</geoidheight><course>118.5</course><type>1</type></trkpt>
      <trkpt lat="40.60084304" lon="-4.90947553"><ele>2191</ele><speed>12.88</speed><time>2016-07-01T15:18:18Z</time><pdop>9.0</pdop><geoidheight>54.00</geoidheight><course>132.9</course><type>1</type></trkpt>
      <trkpt lat="40.60068859" lon="-4.90926797"><ele>2192</ele><speed>11.89</speed><time>2016-07-01T15:18:20Z</time><pdop>9.0</pdop><geoidheight>54.00</geoidheight><course>136.8</course><type>1</type></trkpt>
      <trkpt lat="40.60052984" lon="-4.90912885"><ele>2191</ele><speed>10.64</speed><time>2016-07-01T15:18:22Z</time><pdop>9.0</pdop><geoidheight>54.00</geoidheight><course>151.4</course><type>1</type></trkpt>
      <trkpt lat="40.60035631" lon="-4.90909935"><ele>2191</ele><speed>9.99</speed><time>2016-07-01T15:18:24Z</time><pdop>9.0</pdop><geoidheight>54.00</geoidheight><course>172.8</course><type>1</type></trkpt>
      <trkpt lat="40.60016221" lon="-4.90913002"><ele>2191</ele><speed>10.25</speed><time>2016-07-01T15:18:26Z</time><pdop>10.0</pdop><geoidheight>54.00</geoidheight><course>184.7</course><type>1</type></trkpt>
      <trkpt lat="40.60032252" lon="-4.90947241"><ele>2187</ele><speed>7.07</speed><time>2016-07-01T15:18:28Z</time><pdop>9.0</pdop><geoidheight>54.00</geoidheight><course>287.8</course><type>1</type></trkpt>
      <trkpt lat="40.60044185" lon="-4.90966695"><ele>2184</ele><speed>4.31</speed><time>2016-07-01T15:18:32Z</time><pdop>9.0</pdop><geoidheight>54.00</geoidheight><course>306.8</course><type>1</type></trkpt>
      <trkpt lat="40.60054376" lon="-4.90985025"><ele>2183</ele><speed>5.04</speed><time>2016-07-01T15:18:36Z</time><pdop>9.0</pdop><geoidheight>54.00</geoidheight><course>313.4</course><type>1</type></trkpt>
      <trkpt lat="40.60069089" lon="-4.90997922"><ele>2185</ele><speed>4.78</speed><time>2016-07-01T15:18:40Z</time><pdop>9.0</pdop><geoidheight>54.00</geoidheight><course>328.4</course><type>1</type></trkpt>
      <trkpt lat="40.60084197" lon="-4.91007071"><ele>2190</ele><speed>4.92</speed><time>2016-07-01T15:18:44Z</time><pdop>9.0</pdop><geoidheight>54.00</geoidheight><course>349.6</course><type>1</type></trkpt>
      <trkpt lat="40.60100886" lon="-4.9101434"><ele>2193</ele><speed>3.82</speed><time>2016-07-01T15:18:48Z</time><pdop>9.0</pdop><geoidheight>54.00</geoidheight><course>325.2</course><type>1</type></trkpt>
      <trkpt lat="40.60091642" lon="-4.91039317"><ele>2352</ele><speed>4.88</speed><time>2016-07-01T15:18:54Z</time><pdop>10.0</pdop><geoidheight>54.00</geoidheight><course>241.7</course><type>1</type></trkpt>
      <trkpt lat="40.60095847" lon="-4.91068808"><ele>2268</ele><speed>6.52</speed><time>2016-07-01T15:18:58Z</time><pdop>10.0</pdop><geoidheight>54.00</geoidheight><course>292.4</course><type>1</type></trkpt>
      <trkpt lat="40.60105434" lon="-4.91089932"><ele>2223</ele><speed>4.01</speed><time>2016-07-01T15:19:02Z</time><pdop>9.0</pdop><geoidheight>54.00</geoidheight><course>312.6</course><type>1</type></trkpt>
      <trkpt lat="40.60122044" lon="-4.91104358"><ele>2210</ele><speed>6.86</speed><time>2016-07-01T15:19:06Z</time><pdop>9.0</pdop><geoidheight>54.00</geoidheight><course>330.6</course><type>1</type></trkpt>
      <trkpt lat="40.60141335" lon="-4.91110881"><ele>2207</ele><speed>7.31</speed><time>2016-07-01T15:19:09Z</time><pdop>9.0</pdop><geoidheight>54.00</geoidheight><course>351.6</course><type>1</type></trkpt>
      <trkpt lat="40.60157892" lon="-4.91111951"><ele>2209</ele><speed>6.13</speed><time>2016-07-01T15:19:12Z</time><pdop>9.0</pdop><geoidheight>54.00</geoidheight><course>0.9</course><type>1</type></trkpt>
      <trkpt lat="40.60176887" lon="-4.91110107"><ele>2213</ele><speed>7.67</speed><time>2016-07-01T15:19:15Z</time><pdop>9.0</pdop><geoidheight>54.00</geoidheight><course>354.1</course><type>1</type></trkpt>
      <trkpt lat="40.60191069" lon="-4.91122244"><ele>2207</ele><speed>10.01</speed><time>2016-07-01T15:19:17Z</time><pdop>9.0</pdop><geoidheight>54.00</geoidheight><course>329.5</course><type>1</type></trkpt>
      <trkpt lat="40.60212209" lon="-4.9113401"><ele>2198</ele><speed>7.19</speed><time>2016-07-01T15:19:20Z</time><pdop>10.0</pdop><geoidheight>54.00</geoidheight><course>340.7</course><type>1</type></trkpt>
      <trkpt lat="40.60229033" lon="-4.91143861"><ele>2197</ele><speed>7.16</speed><time>2016-07-01T15:19:23Z</time><pdop>10.0</pdop><geoidheight>54.00</geoidheight><course>336.7</course><type>1</type></trkpt>
      <trkpt lat="40.60245614" lon="-4.91159402"><ele>2189</ele><speed>8.31</speed><time>2016-07-01T15:19:26Z</time><pdop>11.0</pdop><geoidheight>54.00</geoidheight><course>327.6</course><type>1</type></trkpt>
      <trkpt lat="40.6026465" lon="-4.91173051"><ele>2188</ele><speed>7.71</speed><time>2016-07-01T15:19:29Z</time><pdop>10.0</pdop><geoidheight>54.00</geoidheight><course>336.2</course><type>1</type></trkpt>
      <trkpt lat="40.6028514" lon="-4.91193268"><ele>2179</ele><speed>9.97</speed><time>2016-07-01T15:19:32Z</time><pdop>10.0</pdop><geoidheight>54.00</geoidheight><course>322.0</course><type>1</type></trkpt>
      <trkpt lat="40.60304919" lon="-4.91213144"><ele>2172</ele><speed>8.42</speed><time>2016-07-01T15:19:35Z</time><pdop>10.0</pdop><geoidheight>54.00</geoidheight><course>328.9</course><type>1</type></trkpt>
      <trkpt lat="40.60325584" lon="-4.91222243"><ele>2169</ele><speed>8.94</speed><time>2016-07-01T15:19:38Z</time><pdop>10.0</pdop><geoidheight>54.00</geoidheight><course>339.9</course><type>1</type></trkpt>
      <trkpt lat="40.60344966" lon="-4.91234316"><ele>2156</ele><speed>8.27</speed><time>2016-07-01T15:19:41Z</time><pdop>10.0</pdop><geoidheight>54.00</geoidheight><course>331.0</course><type>1</type></trkpt>
      <trkpt lat="40.60362358" lon="-4.91253399"><ele>2142</ele><speed>6.24</speed><time>2016-07-01T15:19:46Z</time><pdop>11.0</pdop><geoidheight>54.00</geoidheight><course>319.6</course><type>1</type></trkpt>
      <trkpt lat="40.60376051" lon="-4.91278252"><ele>2128</ele><speed>7.95</speed><time>2016-07-01T15:19:49Z</time><pdop>10.0</pdop><geoidheight>54.00</geoidheight><course>316.9</course><type>1</type></trkpt>
      <trkpt lat="40.60384568" lon="-4.91299804"><ele>2111</ele><speed>8.35</speed><time>2016-07-01T15:19:52Z</time><pdop>10.0</pdop><geoidheight>54.00</geoidheight><course>297.4</course><type>1</type></trkpt>
      <trkpt lat="40.60395605" lon="-4.91323309"><ele>2090</ele><speed>10.54</speed><time>2016-07-01T15:19:55Z</time><pdop>11.0</pdop><geoidheight>54.00</geoidheight><course>297.7</course><type>1</type></trkpt>
      <trkpt lat="40.60408625" lon="-4.91344974"><ele>2076</ele><speed>13.42</speed><time>2016-07-01T15:19:57Z</time><pdop>11.0</pdop><geoidheight>54.00</geoidheight><course>306.2</course><type>1</type></trkpt>
      <trkpt lat="40.60426873" lon="-4.91364032"><ele>2061</ele><speed>11.92</speed><time>2016-07-01T15:19:59Z</time><pdop>10.0</pdop><geoidheight>54.00</geoidheight><course>316.8</course><type>1</type></trkpt>
      <trkpt lat="40.60442238" lon="-4.91380108"><ele>2052</ele><speed>10.60</speed><time>2016-07-01T15:20:01Z</time><pdop>10.0</pdop><geoidheight>54.00</geoidheight><course>319.7</course><type>1</type></trkpt>
      <trkpt lat="40.60455827" lon="-4.91396385"><ele>2045</ele><speed>10.57</speed><time>2016-07-01T15:20:03Z</time><pdop>9.0</pdop><geoidheight>54.00</geoidheight><course>323.6</course><type>1</type></trkpt>
      <trkpt lat="40.60471811" lon="-4.91409723"><ele>2039</ele><speed>10.74</speed><time>2016-07-01T15:20:05Z</time><pdop>10.0</pdop><geoidheight>54.00</geoidheight><course>325.9</course><type>1</type></trkpt>
      <trkpt lat="40.60488764" lon="-4.91422581"><ele>2031</ele><speed>10.75</speed><time>2016-07-01T15:20:07Z</time><pdop>9.0</pdop><geoidheight>54.00</geoidheight><course>325.7</course><type>1</type></trkpt>
      <trkpt lat="40.60508873" lon="-4.91439679"><ele>2020</ele><speed>8.82</speed><time>2016-07-01T15:20:10Z</time><pdop>9.0</pdop><geoidheight>54.00</geoidheight><course>329.3</course><type>1</type></trkpt>
      <trkpt lat="40.60522889" lon="-4.91455845"><ele>2016</ele><speed>10.56</speed><time>2016-07-01T15:20:12Z</time><pdop>9.0</pdop><geoidheight>54.00</geoidheight><course>322.5</course><type>1</type></trkpt>
      <trkpt lat="40.60537882" lon="-4.9147061"><ele>2011</ele><speed>10.84</speed><time>2016-07-01T15:20:14Z</time><pdop>9.0</pdop><geoidheight>54.00</geoidheight><course>327.5</course><type>1</type></trkpt>
      <trkpt lat="40.60555125" lon="-4.91479398"><ele>2008</ele><speed>9.99</speed><time>2016-07-01T15:20:16Z</time><pdop>9.0</pdop><geoidheight>54.00</geoidheight><course>336.0</course><type>1</type></trkpt>
      <trkpt lat="40.60574237" lon="-4.91483532"><ele>2005</ele><speed>4.93</speed><time>2016-07-01T15:20:20Z</time><pdop>10.0</pdop><geoidheight>54.00</geoidheight><course>352.6</course><type>1</type></trkpt>
      <trkpt lat="40.60591731" lon="-4.91504111"><ele>2001</ele><speed>9.29</speed><time>2016-07-01T15:20:23Z</time><pdop>10.0</pdop><geoidheight>54.00</geoidheight><course>324.3</course><type>1</type></trkpt>
      <trkpt lat="40.60607264" lon="-4.91517086"><ele>1995</ele><speed>10.92</speed><time>2016-07-01T15:20:25Z</time><pdop>10.0</pdop><geoidheight>54.00</geoidheight><course>333.7</course><type>1</type></trkpt>
      <trkpt lat="40.60624288" lon="-4.91525322"><ele>1993</ele><speed>10.03</speed><time>2016-07-01T15:20:27Z</time><pdop>9.0</pdop><geoidheight>54.00</geoidheight><course>336.2</course><type>1</type></trkpt>
      <trkpt lat="40.60641317" lon="-4.91532956"><ele>1988</ele><speed>9.77</speed><time>2016-07-01T15:20:29Z</time><pdop>9.0</pdop><geoidheight>54.00</geoidheight><course>337.7</course><type>1</type></trkpt>
      <trkpt lat="40.60659125" lon="-4.91542638"><ele>1986</ele><speed>10.58</speed><time>2016-07-01T15:20:31Z</time><pdop>9.0</pdop><geoidheight>54.00</geoidheight><course>335.6</course><type>1</type></trkpt>
      <trkpt lat="40.60676216" lon="-4.91552706"><ele>1985</ele><speed>10.55</speed><time>2016-07-01T15:20:33Z</time><pdop>11.0</pdop><geoidheight>54.00</geoidheight><course>336.3</course><type>1</type></trkpt>
      <trkpt lat="40.60695005" lon="-4.91566384"><ele>1981</ele><speed>12.17</speed><time>2016-07-01T15:20:35Z</time><pdop>10.0</pdop><geoidheight>54.00</geoidheight><course>331.4</course><type>1</type></trkpt>
      <trkpt lat="40.60715247" lon="-4.9157723"><ele>1976</ele><speed>11.26</speed><time>2016-07-01T15:20:37Z</time><pdop>10.0</pdop><geoidheight>54.00</geoidheight><course>339.7</course><type>1</type></trkpt>
      <trkpt lat="40.60738615" lon="-4.91589792"><ele>1969</ele><speed>9.02</speed><time>2016-07-01T15:20:40Z</time><pdop>11.0</pdop><geoidheight>54.00</geoidheight><course>339.8</course><type>1</type></trkpt>
      <trkpt lat="40.60759151" lon="-4.9159937"><ele>1964</ele><speed>9.05</speed><time>2016-07-01T15:20:43Z</time><pdop>13.0</pdop><geoidheight>54.00</geoidheight><course>336.1</course><type>1</type></trkpt>
      <trkpt lat="40.60788431" lon="-4.91617145"><ele>1959</ele><speed>11.28</speed><time>2016-07-01T15:20:46Z</time><pdop>11.0</pdop><geoidheight>54.00</geoidheight><course>339.0</course><type>1</type></trkpt>
      <trkpt lat="40.60807823" lon="-4.91626392"><ele>1949</ele><speed>8.91</speed><time>2016-07-01T15:20:49Z</time><pdop>10.0</pdop><geoidheight>54.00</geoidheight><course>340.0</course><type>1</type></trkpt>
      <trkpt lat="40.6082923" lon="-4.91637165"><ele>1941</ele><speed>9.00</speed><time>2016-07-01T15:20:52Z</time><pdop>12.0</pdop><geoidheight>54.00</geoidheight><course>341.7</course><type>1</type></trkpt>
      <trkpt lat="40.60848177" lon="-4.91651838"><ele>1938</ele><speed>11.08</speed><time>2016-07-01T15:20:54Z</time><pdop>12.0</pdop><geoidheight>54.00</geoidheight><course>332.3</course><type>1</type></trkpt>
      <trkpt lat="40.60867337" lon="-4.91678484"><ele>1930</ele><speed>10.18</speed><time>2016-07-01T15:20:57Z</time><pdop>13.0</pdop><geoidheight>54.00</geoidheight><course>314.8</course><type>1</type></trkpt>
      <trkpt lat="40.6087403" lon="-4.91711111"><ele>1921</ele><speed>9.87</speed><time>2016-07-01T15:21:00Z</time><pdop>13.0</pdop><geoidheight>54.00</geoidheight><course>292.5</course><type>1</type></trkpt>
      <trkpt lat="40.60870517" lon="-4.91753915"><ele>1909</ele><speed>9.69</speed><time>2016-07-01T15:21:04Z</time><pdop>15.0</pdop><geoidheight>54.00</geoidheight><course>268.5</course><type>1</type></trkpt>
      <trkpt lat="40.60868784" lon="-4.91793206"><ele>1900</ele><speed>10.51</speed><time>2016-07-01T15:21:07Z</time><pdop>16.0</pdop><geoidheight>54.00</geoidheight><course>268.1</course><type>1</type></trkpt>
      <trkpt lat="40.60868443" lon="-4.91840416"><ele>1887</ele><speed>8.31</speed><time>2016-07-01T15:21:12Z</time><pdop>17.0</pdop><geoidheight>54.00</geoidheight><course>264.0</course><type>1</type></trkpt>
      <trkpt lat="40.60867113" lon="-4.91894227"><ele>1878</ele><speed>11.28</speed><time>2016-07-01T15:21:16Z</time><pdop>20.0</pdop><geoidheight>54.00</geoidheight><course>258.4</course><type>1</type></trkpt>
      <trkpt lat="40.60868031" lon="-4.91956696"><ele>1867</ele><speed>12.00</speed><time>2016-07-01T15:21:20Z</time><pdop>23.0</pdop><geoidheight>54.00</geoidheight><course>273.0</course><type>1</type></trkpt>
      <trkpt lat="40.60889819" lon="-4.92022204"><ele>2093</ele><speed>6.14</speed><time>2016-07-01T15:21:33Z</time><pdop>12.0</pdop><geoidheight>54.00</geoidheight><course>341.2</course><type>1</type></trkpt>
      <trkpt lat="40.6091281" lon="-4.91999882"><ele>1975</ele><speed>8.93</speed><time>2016-07-01T15:21:36Z</time><pdop>13.0</pdop><geoidheight>54.00</geoidheight><course>41.7</course><type>1</type></trkpt>
      <trkpt lat="40.60921719" lon="-4.91964204"><ele>1946</ele><speed>11.83</speed><time>2016-07-01T15:21:38Z</time><pdop>14.0</pdop><geoidheight>54.00</geoidheight><course>63.2</course><type>1</type></trkpt>
      <trkpt lat="40.60910211" lon="-4.91919202"><ele>1931</ele><speed>14.78</speed><time>2016-07-01T15:21:40Z</time><pdop>15.0</pdop><geoidheight>54.00</geoidheight><course>95.3</course><type>1</type></trkpt>
      <trkpt lat="40.60886168" lon="-4.91888249"><ele>1895</ele><speed>16.57</speed><time>2016-07-01T15:21:42Z</time><pdop>14.0</pdop><geoidheight>54.00</geoidheight><course>122.8</course><type>1</type></trkpt>
      <trkpt lat="40.60861864" lon="-4.91862971"><ele>1876</ele><speed>15.74</speed><time>2016-07-01T15:21:44Z</time><pdop>13.0</pdop><geoidheight>54.00</geoidheight><course>134.6</course><type>1</type></trkpt>
      <trkpt lat="40.6085521" lon="-4.91907548"><ele>1865</ele><speed>6.10</speed><time>2016-07-01T15:21:48Z</time><pdop>14.0</pdop><geoidheight>54.00</geoidheight><course>245.3</course><type>1</type></trkpt>
      <trkpt lat="40.6088252" lon="-4.91883748"><ele>1852</ele><speed>13.54</speed><time>2016-07-01T15:21:51Z</time><pdop>11.0</pdop><geoidheight>54.00</geoidheight><course>56.6</course><type>1</type></trkpt>
      <trkpt lat="40.60887907" lon="-4.91852346"><ele>1846</ele><speed>13.42</speed><time>2016-07-01T15:21:53Z</time><pdop>11.0</pdop><geoidheight>54.00</geoidheight><course>76.9</course><type>1</type></trkpt>
      <trkpt lat="40.60875175" lon="-4.91820901"><ele>1845</ele><speed>14.64</speed><time>2016-07-01T15:21:55Z</time><pdop>12.0</pdop><geoidheight>54.00</geoidheight><course>110.8</course><type>1</type></trkpt>
      <trkpt lat="40.60862501" lon="-4.91788019"><ele>1839</ele><speed>14.88</speed><time>2016-07-01T15:21:57Z</time><pdop>12.0</pdop><geoidheight>54.00</geoidheight><course>121.5</course><type>1</type></trkpt>
      <trkpt lat="40.60837178" lon="-4.91769984"><ele>1838</ele><speed>14.41</speed><time>2016-07-01T15:21:59Z</time><pdop>11.0</pdop><geoidheight>54.00</geoidheight><course>147.9</course><type>1</type></trkpt>
      <trkpt lat="40.60813546" lon="-4.91771215"><ele>1841</ele><speed>8.95</speed><time>2016-07-01T15:22:02Z</time><pdop>11.0</pdop><geoidheight>54.00</geoidheight><course>163.2</course><type>1</type></trkpt>
      <trkpt lat="40.60812069" lon="-4.91798824"><ele>1845</ele><speed>6.55</speed><time>2016-07-01T15:22:04Z</time><pdop>12.0</pdop><geoidheight>54.00</geoidheight><course>240.6</course><type>1</type></trkpt>
      <trkpt lat="40.6083581" lon="-4.91782888"><ele>1851</ele><speed>7.16</speed><time>2016-07-01T15:22:10Z</time><pdop>11.0</pdop><geoidheight>54.00</geoidheight><course>60.6</course><type>1</type></trkpt>
      <trkpt lat="40.60834098" lon="-4.91747179"><ele>1853</ele><speed>11.58</speed><time>2016-07-01T15:22:12Z</time><pdop>12.0</pdop><geoidheight>54.00</geoidheight><course>96.4</course><type>1</type></trkpt>
      <trkpt lat="40.60823339" lon="-4.91704438"><ele>1856</ele><speed>16.23</speed><time>2016-07-01T15:22:14Z</time><pdop>12.0</pdop><geoidheight>54.00</geoidheight><course>113.9</course><type>1</type></trkpt>
      <trkpt lat="40.60804109" lon="-4.91666436"><ele>1859</ele><speed>16.65</speed><time>2016-07-01T15:22:16Z</time><pdop>11.0</pdop><geoidheight>54.00</geoidheight><course>129.6</course><type>1</type></trkpt>
      <trkpt lat="40.6078326" lon="-4.91648534"><ele>1865</ele><speed>13.85</speed><time>2016-07-01T15:22:18Z</time><pdop>11.0</pdop><geoidheight>54.00</geoidheight><course>146.5</course><type>1</type></trkpt>
      <trkpt lat="40.60765804" lon="-4.91665132"><ele>1869</ele><speed>8.26</speed><time>2016-07-01T15:22:21Z</time><pdop>12.0</pdop><geoidheight>54.00</geoidheight><course>204.1</course><type>1</type></trkpt>
      <trkpt lat="40.60793856" lon="-4.9166278"><ele>1874</ele><speed>6.47</speed><time>2016-07-01T15:22:27Z</time><pdop>11.0</pdop><geoidheight>54.00</geoidheight><course>30.5</course><type>1</type></trkpt>
      <trkpt lat="40.60803436" lon="-4.91632958"><ele>1877</ele><speed>6.19</speed><time>2016-07-01T15:22:30Z</time><pdop>12.0</pdop><geoidheight>54.00</geoidheight><course>82.1</course><type>1</type></trkpt>
      <trkpt lat="40.60792032" lon="-4.91572844"><ele>1881</ele><speed>11.82</speed><time>2016-07-01T15:22:33Z</time><pdop>13.0</pdop><geoidheight>54.00</geoidheight><course>110.5</course><type>1</type></trkpt>
      <trkpt lat="40.6077188" lon="-4.91539826"><ele>1884</ele><speed>12.85</speed><time>2016-07-01T15:22:35Z</time><pdop>11.0</pdop><geoidheight>54.00</geoidheight><course>124.6</course><type>1</type></trkpt>
      <trkpt lat="40.60750221" lon="-4.91541283"><ele>1895</ele><speed>4.56</speed><time>2016-07-01T15:22:39Z</time><pdop>11.0</pdop><geoidheight>54.00</geoidheight><course>184.9</course><type>1</type></trkpt>
      <trkpt lat="40.60767959" lon="-4.91511837"><ele>1906</ele><speed>9.13</speed><time>2016-07-01T15:22:45Z</time><pdop>13.0</pdop><geoidheight>54.00</geoidheight><course>60.8</course><type>1</type></trkpt>
      <trkpt lat="40.60762439" lon="-4.91458422"><ele>1910</ele><speed>12.73</speed><time>2016-07-01T15:22:48Z</time><pdop>15.0</pdop><geoidheight>54.00</geoidheight><course>98.2</course><type>1</type></trkpt>
      <trkpt lat="40.60746475" lon="-4.91416047"><ele>1917</ele><speed>15.35</speed><time>2016-07-01T15:22:50Z</time><pdop>18.0</pdop><geoidheight>54.00</geoidheight><course>111.1</course><type>1</type></trkpt>
      <trkpt lat="40.60717399" lon="-4.91425022"><ele>1927</ele><speed>2.97</speed><time>2016-07-01T15:22:55Z</time><pdop>9.0</pdop><geoidheight>54.00</geoidheight><course>227.0</course><type>1</type></trkpt>
      <trkpt lat="40.60731241" lon="-4.91411549"><ele>1932</ele><speed>6.96</speed><time>2016-07-01T15:23:02Z</time><pdop>10.0</pdop><geoidheight>54.00</geoidheight><course>66.4</course><type>1</type></trkpt>
      <trkpt lat="40.60734483" lon="-4.91374364"><ele>1936</ele><speed>11.32</speed><time>2016-07-01T15:23:04Z</time><pdop>11.0</pdop><geoidheight>54.00</geoidheight><course>80.1</course><type>1</type></trkpt>
      <trkpt lat="40.60729738" lon="-4.91327792"><ele>1941</ele><speed>15.70</speed><time>2016-07-01T15:23:06Z</time><pdop>9.0</pdop><geoidheight>54.00</geoidheight><course>98.9</course><type>1</type></trkpt>
      <trkpt lat="40.60722939" lon="-4.91309746"><ele>1943</ele><speed>15.94</speed><time>2016-07-01T15:23:07Z</time><pdop>7.0</pdop><geoidheight>54.00</geoidheight><course>110.4</course><type>1</type></trkpt>
      <trkpt lat="40.60716022" lon="-4.91293299"><ele>1947</ele><speed>16.29</speed><time>2016-07-01T15:23:08Z</time><pdop>6.0</pdop><geoidheight>54.00</geoidheight><course>117.5</course><type>1</type></trkpt>
      <trkpt lat="40.6070725" lon="-4.91279864"><ele>1951</ele><speed>15.45</speed><time>2016-07-01T15:23:09Z</time><pdop>6.0</pdop><geoidheight>54.00</geoidheight><course>130.5</course><type>1</type></trkpt>
      <trkpt lat="40.60696469" lon="-4.91268163"><ele>1952</ele><speed>15.09</speed><time>2016-07-01T15:23:10Z</time><pdop>5.0</pdop><geoidheight>54.00</geoidheight><course>147.0</course><type>1</type></trkpt>
      <trkpt lat="40.60684608" lon="-4.91262118"><ele>1954</ele><speed>14.47</speed><time>2016-07-01T15:23:11Z</time><pdop>5.0</pdop><geoidheight>54.00</geoidheight><course>164.3</course><type>1</type></trkpt>
      <trkpt lat="40.60672674" lon="-4.91260528"><ele>1955</ele><speed>13.89</speed><time>2016-07-01T15:23:12Z</time><pdop>4.0</pdop><geoidheight>54.00</geoidheight><course>174.0</course><type>1</type></trkpt>
      <trkpt lat="40.60661261" lon="-4.91260574"><ele>1957</ele><speed>13.02</speed><time>2016-07-01T15:23:13Z</time><pdop>5.0</pdop><geoidheight>54.00</geoidheight><course>179.1</course><type>1</type></trkpt>
      <trkpt lat="40.60650474" lon="-4.91260184"><ele>1959</ele><speed>12.28</speed><time>2016-07-01T15:23:14Z</time><pdop>6.0</pdop><geoidheight>54.00</geoidheight><course>178.5</course><type>1</type></trkpt>
      <trkpt lat="40.60640514" lon="-4.9127694"><ele>1963</ele><speed>6.04</speed><time>2016-07-01T15:23:17Z</time><pdop>9.0</pdop><geoidheight>54.00</geoidheight><course>217.6</course><type>1</type></trkpt>
      <trkpt lat="40.6065233" lon="-4.91253866"><ele>1971</ele><speed>5.94</speed><time>2016-07-01T15:23:21Z</time><pdop>10.0</pdop><geoidheight>54.00</geoidheight><course>74.8</course><type>1</type></trkpt>
      <trkpt lat="40.60663909" lon="-4.91225327"><ele>1974</ele><speed>11.34</speed><time>2016-07-01T15:23:23Z</time><pdop>8.0</pdop><geoidheight>54.00</geoidheight><course>70.9</course><type>1</type></trkpt>
      <trkpt lat="40.60660246" lon="-4.91205595"><ele>1976</ele><speed>13.02</speed><time>2016-07-01T15:23:24Z</time><pdop>8.0</pdop><geoidheight>54.00</geoidheight><course>93.5</course><type>1</type></trkpt>
      <trkpt lat="40.60658787" lon="-4.91185449"><ele>1977</ele><speed>14.39</speed><time>2016-07-01T15:23:25Z</time><pdop>7.0</pdop><geoidheight>54.00</geoidheight><course>94.8</course><type>1</type></trkpt>
      <trkpt lat="40.60650298" lon="-4.91155181"><ele>1981</ele><speed>13.77</speed><time>2016-07-01T15:23:27Z</time><pdop>9.0</pdop><geoidheight>54.00</geoidheight><course>106.5</course><type>1</type></trkpt>
      <trkpt lat="40.60632811" lon="-4.9113066"><ele>1983</ele><speed>13.65</speed><time>2016-07-01T15:23:29Z</time><pdop>13.0</pdop><geoidheight>54.00</geoidheight><course>120.2</course><type>1</type></trkpt>
      <trkpt lat="40.60610267" lon="-4.91127654"><ele>1983</ele><speed>11.63</speed><time>2016-07-01T15:23:31Z</time><pdop>12.0</pdop><geoidheight>54.00</geoidheight><course>146.5</course><type>1</type></trkpt>
      <trkpt lat="40.60597399" lon="-4.91152402"><ele>1988</ele><speed>4.14</speed><time>2016-07-01T15:23:34Z</time><pdop>12.0</pdop><geoidheight>54.00</geoidheight><course>207.0</course><type>1</type></trkpt>
      <trkpt lat="40.60615727" lon="-4.91108681"><ele>1992</ele><speed>14.56</speed><time>2016-07-01T15:23:40Z</time><pdop>6.0</pdop><geoidheight>54.00</geoidheight><course>68.9</course><type>1</type></trkpt>
      <trkpt lat="40.60619151" lon="-4.91091281"><ele>1995</ele><speed>15.70</speed><time>2016-07-01T15:23:41Z</time><pdop>5.0</pdop><geoidheight>54.00</geoidheight><course>79.9</course><type>1</type></trkpt>
      <trkpt lat="40.60618003" lon="-4.91071636"><ele>1998</ele><speed>16.19</speed><time>2016-07-01T15:23:42Z</time><pdop>4.0</pdop><geoidheight>54.00</geoidheight><course>90.1</course><type>1</type></trkpt>
      <trkpt lat="40.60616222" lon="-4.91052859"><ele>2002</ele><speed>15.85</speed><time>2016-07-01T15:23:43Z</time><pdop>4.0</pdop><geoidheight>54.00</geoidheight><course>95.0</course><type>1</type></trkpt>
      <trkpt lat="40.60613524" lon="-4.91036605"><ele>2004</ele><speed>14.29</speed><time>2016-07-01T15:23:44Z</time><pdop>4.0</pdop><geoidheight>54.00</geoidheight><course>101.1</course><type>1</type></trkpt>
      <trkpt lat="40.60608912" lon="-4.91022513"><ele>2006</ele><speed>13.44</speed><time>2016-07-01T15:23:45Z</time><pdop>3.0</pdop><geoidheight>54.00</geoidheight><course>113.8</course><type>1</type></trkpt>
      <trkpt lat="40.60603104" lon="-4.91009148"><ele>2006</ele><speed>13.41</speed><time>2016-07-01T15:23:46Z</time><pdop>4.0</pdop><geoidheight>54.00</geoidheight><course>119.6</course><type>1</type></trkpt>
      <trkpt lat="40.60596395" lon="-4.9099585"><ele>2006</ele><speed>13.67</speed><time>2016-07-01T15:23:47Z</time><pdop>5.0</pdop><geoidheight>54.00</geoidheight><course>123.9</course><type>1</type></trkpt>
      <trkpt lat="40.60587659" lon="-4.90981135"><ele>2007</ele><speed>14.65</speed><time>2016-07-01T15:23:48Z</time><pdop>6.0</pdop><geoidheight>54.00</geoidheight><course>126.9</course><type>1</type></trkpt>
      <trkpt lat="40.6057446" lon="-4.9097224"><ele>2008</ele><speed>15.99</speed><time>2016-07-01T15:23:49Z</time><pdop>5.0</pdop><geoidheight>54.00</geoidheight><course>139.0</course><type>1</type></trkpt>
      <trkpt lat="40.60559453" lon="-4.90969271"><ele>2008</ele><speed>15.69</speed><time>2016-07-01T15:23:50Z</time><pdop>5.0</pdop><geoidheight>54.00</geoidheight><course>152.4</course><type>1</type></trkpt>
      <trkpt lat="40.6054721" lon="-4.90967367"><ele>2011</ele><speed>14.27</speed><time>2016-07-01T15:23:51Z</time><pdop>5.0</pdop><geoidheight>54.00</geoidheight><course>159.0</course><type>1</type></trkpt>
      <trkpt lat="40.60539129" lon="-4.90976114"><ele>2010</ele><speed>10.59</speed><time>2016-07-01T15:23:52Z</time><pdop>4.0</pdop><geoidheight>54.00</geoidheight><course>181.8</course><type>1</type></trkpt>
      <trkpt lat="40.60531079" lon="-4.90979895"><ele>2010</ele><speed>9.62</speed><time>2016-07-01T15:23:53Z</time><pdop>4.0</pdop><geoidheight>54.00</geoidheight><course>185.9</course><type>1</type></trkpt>
      <trkpt lat="40.60515845" lon="-4.90983004"><ele>2010</ele><speed>8.32</speed><time>2016-07-01T15:23:55Z</time><pdop>7.0</pdop><geoidheight>54.00</geoidheight><course>186.9</course><type>1</type></trkpt>
      <trkpt lat="40.60512581" lon="-4.90999052"><ele>2010</ele><speed>3.61</speed><time>2016-07-01T15:23:58Z</time><pdop>5.0</pdop><geoidheight>54.00</geoidheight><course>245.9</course><type>1</type></trkpt>
      <trkpt lat="40.60520126" lon="-4.91006771"><ele>2009</ele><speed>3.65</speed><time>2016-07-01T15:24:01Z</time><pdop>5.0</pdop><geoidheight>54.00</geoidheight><course>323.1</course><type>1</type></trkpt>
      <trkpt lat="40.60527769" lon="-4.91011439"><ele>2008</ele><speed>4.27</speed><time>2016-07-01T15:24:03Z</time><pdop>4.0</pdop><geoidheight>54.00</geoidheight><course>332.4</course><type>1</type></trkpt>
      <trkpt lat="40.60535544" lon="-4.91016669"><ele>2005</ele><speed>4.74</speed><time>2016-07-01T15:24:05Z</time><pdop>5.0</pdop><geoidheight>54.00</geoidheight><course>329.8</course><type>1</type></trkpt>
      <trkpt lat="40.60545723" lon="-4.91019256"><ele>2003</ele><speed>4.98</speed><time>2016-07-01T15:24:07Z</time><pdop>5.0</pdop><geoidheight>54.00</geoidheight><course>352.4</course><type>1</type></trkpt>
      <trkpt lat="40.60558901" lon="-4.91005323"><ele>2001</ele><speed>8.77</speed><time>2016-07-01T15:24:09Z</time><pdop>5.0</pdop><geoidheight>54.00</geoidheight><course>34.4</course><type>1</type></trkpt>
      <trkpt lat="40.60566022" lon="-4.90998475"><ele>1999</ele><speed>8.84</speed><time>2016-07-01T15:24:10Z</time><pdop>4.0</pdop><geoidheight>54.00</geoidheight><course>35.6</course><type>1</type></trkpt>
      <trkpt lat="40.60572353" lon="-4.90992387"><ele>1998</ele><speed>9.06</speed><time>2016-07-01T15:24:11Z</time><pdop>4.0</pdop><geoidheight>54.00</geoidheight><course>29.0</course><type>1</type></trkpt>
      <trkpt lat="40.60579887" lon="-4.90991942"><ele>1998</ele><speed>9.20</speed><time>2016-07-01T15:24:12Z</time><pdop>4.0</pdop><geoidheight>54.00</geoidheight><course>11.5</course><type>1</type></trkpt>
      <trkpt lat="40.60590168" lon="-4.90990945"><ele>1996</ele><speed>9.37</speed><time>2016-07-01T15:24:13Z</time><pdop>4.0</pdop><geoidheight>54.00</geoidheight><course>2.9</course><type>1</type></trkpt>
      <trkpt lat="40.60598113" lon="-4.90988861"><ele>1995</ele><speed>8.97</speed><time>2016-07-01T15:24:14Z</time><pdop>4.0</pdop><geoidheight>54.00</geoidheight><course>0.5</course><type>1</type></trkpt>
      <trkpt lat="40.60605392" lon="-4.90987787"><ele>1996</ele><speed>8.54</speed><time>2016-07-01T15:24:15Z</time><pdop>4.0</pdop><geoidheight>54.00</geoidheight><course>1.7</course><type>1</type></trkpt>
      <trkpt lat="40.60618676" lon="-4.90986467"><ele>1999</ele><speed>7.35</speed><time>2016-07-01T15:24:17Z</time><pdop>5.0</pdop><geoidheight>54.00</geoidheight><course>11.0</course><type>1</type></trkpt>
      <trkpt lat="40.60631298" lon="-4.90978765"><ele>1999</ele><speed>7.89</speed><time>2016-07-01T15:24:19Z</time><pdop>4.0</pdop><geoidheight>54.00</geoidheight><course>24.2</course><type>1</type></trkpt>
      <trkpt lat="40.60643516" lon="-4.9096668"><ele>1999</ele><speed>8.43</speed><time>2016-07-01T15:24:21Z</time><pdop>4.0</pdop><geoidheight>54.00</geoidheight><course>33.5</course><type>1</type></trkpt>
      <trkpt lat="40.60658669" lon="-4.90956711"><ele>1998</ele><speed>10.07</speed><time>2016-07-01T15:24:23Z</time><pdop>4.0</pdop><geoidheight>54.00</geoidheight><course>25.8</course><type>1</type></trkpt>
      <trkpt lat="40.60666949" lon="-4.90950731"><ele>1997</ele><speed>10.39</speed><time>2016-07-01T15:24:24Z</time><pdop>5.0</pdop><geoidheight>54.00</geoidheight><course>24.1</course><type>1</type></trkpt>
      <trkpt lat="40.60677692" lon="-4.9094991"><ele>1997</ele><speed>10.99</speed><time>2016-07-01T15:24:25Z</time><pdop>5.0</pdop><geoidheight>54.00</geoidheight><course>13.7</course><type>1</type></trkpt>
      <trkpt lat="40.60686119" lon="-4.90947612"><ele>1996</ele><speed>11.04</speed><time>2016-07-01T15:24:26Z</time><pdop>4.0</pdop><geoidheight>54.00</geoidheight><course>15.3</course><type>1</type></trkpt>
      <trkpt lat="40.60695154" lon="-4.90942787"><ele>1995</ele><speed>11.15</speed><time>2016-07-01T15:24:27Z</time><pdop>4.0</pdop><geoidheight>54.00</geoidheight><course>22.3</course><type>1</type></trkpt>
      <trkpt lat="40.60703546" lon="-4.90935568"><ele>1994</ele><speed>11.22</speed><time>2016-07-01T15:24:28Z</time><pdop>4.0</pdop><geoidheight>54.00</geoidheight><course>32.2</course><type>1</type></trkpt>
      <trkpt lat="40.60710766" lon="-4.90927501"><ele>1993</ele><speed>9.97</speed><time>2016-07-01T15:24:29Z</time><pdop>4.0</pdop><geoidheight>54.00</geoidheight><course>40.2</course><type>1</type></trkpt>
      <trkpt lat="40.6071698" lon="-4.90918205"><ele>1994</ele><speed>9.38</speed><time>2016-07-01T15:24:30Z</time><pdop>4.0</pdop><geoidheight>54.00</geoidheight><course>46.2</course><type>1</type></trkpt>
      <trkpt lat="40.60722931" lon="-4.90909491"><ele>1994</ele><speed>9.56</speed><time>2016-07-01T15:24:31Z</time><pdop>4.0</pdop><geoidheight>54.00</geoidheight><course>47.7</course><type>1</type></trkpt>
      <trkpt lat="40.60728903" lon="-4.90900477"><ele>1993</ele><speed>10.11</speed><time>2016-07-01T15:24:32Z</time><pdop>5.0</pdop><geoidheight>54.00</geoidheight><course>47.8</course><type>1</type></trkpt>
      <trkpt lat="40.60742372" lon="-4.90882325"><ele>1992</ele><speed>11.16</speed><time>2016-07-01T15:24:34Z</time><pdop>4.0</pdop><geoidheight>54.00</geoidheight><course>50.0</course><type>1</type></trkpt>
      <trkpt lat="40.60748896" lon="-4.90872868"><ele>1991</ele><speed>11.07</speed><time>2016-07-01T15:24:35Z</time><pdop>4.0</pdop><geoidheight>54.00</geoidheight><course>48.4</course><type>1</type></trkpt>
      <trkpt lat="40.60754981" lon="-4.90862286"><ele>1991</ele><speed>11.16</speed><time>2016-07-01T15:24:36Z</time><pdop>6.0</pdop><geoidheight>54.00</geoidheight><course>48.6</course><type>1</type></trkpt>
      <trkpt lat="40.60763794" lon="-4.90850548"><ele>1990</ele><speed>12.30</speed><time>2016-07-01T15:24:37Z</time><pdop>6.0</pdop><geoidheight>54.00</geoidheight><course>46.7</course><type>1</type></trkpt>
      <trkpt lat="40.60766229" lon="-4.90836895"><ele>1988</ele><speed>12.27</speed><time>2016-07-01T15:24:38Z</time><pdop>5.0</pdop><geoidheight>54.00</geoidheight><course>57.4</course><type>1</type></trkpt>
      <trkpt lat="40.6077051" lon="-4.90823388"><ele>1987</ele><speed>12.41</speed><time>2016-07-01T15:24:39Z</time><pdop>4.0</pdop><geoidheight>54.00</geoidheight><course>61.7</course><type>1</type></trkpt>
      <trkpt lat="40.60773515" lon="-4.90807585"><ele>1986</ele><speed>13.23</speed><time>2016-07-01T15:24:40Z</time><pdop>3.0</pdop><geoidheight>54.00</geoidheight><course>76.1</course><type>1</type></trkpt>
      <trkpt lat="40.60774964" lon="-4.90791365"><ele>1984</ele><speed>13.59</speed><time>2016-07-01T15:24:41Z</time><pdop>4.0</pdop><geoidheight>54.00</geoidheight><course>78.4</course><type>1</type></trkpt>
      <trkpt lat="40.60775882" lon="-4.90772555"><ele>1982</ele><speed>14.85</speed><time>2016-07-01T15:24:42Z</time><pdop>9.0</pdop><geoidheight>54.00</geoidheight><course>86.0</course><type>1</type></trkpt>
      <trkpt lat="40.60770215" lon="-4.90736963"><ele>1982</ele><speed>14.96</speed><time>2016-07-01T15:24:44Z</time><pdop>10.0</pdop><geoidheight>54.00</geoidheight><course>97.7</course><type>1</type></trkpt>
      <trkpt lat="40.60751516" lon="-4.90710343"><ele>1978</ele><speed>15.39</speed><time>2016-07-01T15:24:46Z</time><pdop>10.0</pdop><geoidheight>54.00</geoidheight><course>125.4</course><type>1</type></trkpt>
      <trkpt lat="40.60734158" lon="-4.90685902"><ele>1977</ele><speed>13.55</speed><time>2016-07-01T15:24:48Z</time><pdop>9.0</pdop><geoidheight>54.00</geoidheight><course>137.3</course><type>1</type></trkpt>
      <trkpt lat="40.60716371" lon="-4.90670966"><ele>1977</ele><speed>11.22</speed><time>2016-07-01T15:24:50Z</time><pdop>9.0</pdop><geoidheight>54.00</geoidheight><course>147.2</course><type>1</type></trkpt>
      <trkpt lat="40.60698565" lon="-4.90659956"><ele>1975</ele><speed>11.16</speed><time>2016-07-01T15:24:52Z</time><pdop>9.0</pdop><geoidheight>54.00</geoidheight><course>158.8</course><type>1</type></trkpt>
      <trkpt lat="40.60678743" lon="-4.90653641"><ele>1972</ele><speed>11.72</speed><time>2016-07-01T15:24:54Z</time><pdop>9.0</pdop><geoidheight>54.00</geoidheight><course>167.4</course><type>1</type></trkpt>
      <trkpt lat="40.60660096" lon="-4.9064976"><ele>1970</ele><speed>10.10</speed><time>2016-07-01T15:24:56Z</time><pdop>9.0</pdop><geoidheight>54.00</geoidheight><course>172.3</course><type>1</type></trkpt>
      <trkpt lat="40.60637906" lon="-4.90649567"><ele>1965</ele><speed>8.58</speed><time>2016-07-01T15:24:59Z</time><pdop>10.0</pdop><geoidheight>54.00</geoidheight><course>183.7</course><type>1</type></trkpt>
      <trkpt lat="40.60636066" lon="-4.90676006"><ele>1957</ele><speed>5.72</speed><time>2016-07-01T15:25:03Z</time><pdop>12.0</pdop><geoidheight>54.00</geoidheight><course>269.3</course><type>1</type></trkpt>
      <trkpt lat="40.60662637" lon="-4.90674149"><ele>1956</ele><speed>7.80</speed><time>2016-07-01T15:25:05Z</time><pdop>12.0</pdop><geoidheight>54.00</geoidheight><course>345.5</course><type>1</type></trkpt>
      <trkpt lat="40.60681693" lon="-4.90659615"><ele>1954</ele><speed>9.34</speed><time>2016-07-01T15:25:07Z</time><pdop>11.0</pdop><geoidheight>54.00</geoidheight><course>21.7</course><type>1</type></trkpt>
      <trkpt lat="40.60702749" lon="-4.90644427"><ele>1944</ele><speed>9.43</speed><time>2016-07-01T15:25:10Z</time><pdop>9.0</pdop><geoidheight>54.00</geoidheight><course>14.5</course><type>1</type></trkpt>
      <trkpt lat="40.607194" lon="-4.90641865"><ele>1940</ele><speed>8.30</speed><time>2016-07-01T15:25:12Z</time><pdop>9.0</pdop><geoidheight>54.00</geoidheight><course>6.3</course><type>1</type></trkpt>
      <trkpt lat="40.60738363" lon="-4.9064388"><ele>1933</ele><speed>7.90</speed><time>2016-07-01T15:25:15Z</time><pdop>9.0</pdop><geoidheight>54.00</geoidheight><course>354.3</course><type>1</type></trkpt>
      <trkpt lat="40.60755428" lon="-4.90647689"><ele>1931</ele><speed>9.48</speed><time>2016-07-01T15:25:17Z</time><pdop>9.0</pdop><geoidheight>54.00</geoidheight><course>346.7</course><type>1</type></trkpt>
      <trkpt lat="40.60776514" lon="-4.9065655"><ele>1924</ele><speed>7.75</speed><time>2016-07-01T15:25:20Z</time><pdop>9.0</pdop><geoidheight>54.00</geoidheight><course>345.2</course><type>1</type></trkpt>
      <trkpt lat="40.60798067" lon="-4.90660944"><ele>1921</ele><speed>8.93</speed><time>2016-07-01T15:25:23Z</time><pdop>9.0</pdop><geoidheight>54.00</geoidheight><course>357.9</course><type>1</type></trkpt>
      <trkpt lat="40.60816835" lon="-4.90665761"><ele>1919</ele><speed>10.28</speed><time>2016-07-01T15:25:25Z</time><pdop>10.0</pdop><geoidheight>54.00</geoidheight><course>351.2</course><type>1</type></trkpt>
      <trkpt lat="40.60836495" lon="-4.90669248"><ele>1910</ele><speed>7.62</speed><time>2016-07-01T15:25:28Z</time><pdop>9.0</pdop><geoidheight>54.00</geoidheight><course>357.0</course><type>1</type></trkpt>
      <trkpt lat="40.60853307" lon="-4.90669392"><ele>1905</ele><speed>6.38</speed><time>2016-07-01T15:25:31Z</time><pdop>9.0</pdop><geoidheight>54.00</geoidheight><course>354.9</course><type>1</type></trkpt>
      <trkpt lat="40.60871843" lon="-4.90669613"><ele>1904</ele><speed>7.09</speed><time>2016-07-01T15:25:34Z</time><pdop>9.0</pdop><geoidheight>54.00</geoidheight><course>10.6</course><type>1</type></trkpt>
      <trkpt lat="40.60887758" lon="-4.90658313"><ele>1905</ele><speed>6.72</speed><time>2016-07-01T15:25:37Z</time><pdop>9.0</pdop><geoidheight>54.00</geoidheight><course>31.0</course><type>1</type></trkpt>
      <trkpt lat="40.60904704" lon="-4.90650149"><ele>1903</ele><speed>7.14</speed><time>2016-07-01T15:25:40Z</time><pdop>10.0</pdop><geoidheight>54.00</geoidheight><course>11.7</course><type>1</type></trkpt>
      <trkpt lat="40.60926748" lon="-4.90653651"><ele>1900</ele><speed>8.75</speed><time>2016-07-01T15:25:43Z</time><pdop>9.0</pdop><geoidheight>54.00</geoidheight><course>354.8</course><type>1</type></trkpt>
      <trkpt lat="40.60944156" lon="-4.90661254"><ele>1892</ele><speed>6.40</speed><time>2016-07-01T15:25:46Z</time><pdop>10.0</pdop><geoidheight>54.00</geoidheight><course>338.3</course><type>1</type></trkpt>
      <trkpt lat="40.60965352" lon="-4.90668517"><ele>1884</ele><speed>7.12</speed><time>2016-07-01T15:25:51Z</time><pdop>10.0</pdop><geoidheight>54.00</geoidheight><course>340.8</course><type>1</type></trkpt>
      <trkpt lat="40.60983698" lon="-4.90680127"><ele>1876</ele><speed>5.39</speed><time>2016-07-01T15:25:55Z</time><pdop>9.0</pdop><geoidheight>54.00</geoidheight><course>335.3</course><type>1</type></trkpt>
      <trkpt lat="40.6100325" lon="-4.90687469"><ele>1867</ele><speed>7.25</speed><time>2016-07-01T15:25:59Z</time><pdop>11.0</pdop><geoidheight>54.00</geoidheight><course>343.6</course><type>1</type></trkpt>
      <trkpt lat="40.61020697" lon="-4.90698404"><ele>1857</ele><speed>5.76</speed><time>2016-07-01T15:26:03Z</time><pdop>10.0</pdop><geoidheight>54.00</geoidheight><course>334.4</course><type>1</type></trkpt>
      <trkpt lat="40.61037155" lon="-4.90718974"><ele>1849</ele><speed>7.34</speed><time>2016-07-01T15:26:07Z</time><pdop>10.0</pdop><geoidheight>54.00</geoidheight><course>314.8</course><type>1</type></trkpt>
      <trkpt lat="40.61056643" lon="-4.90742021"><ele>1844</ele><speed>10.28</speed><time>2016-07-01T15:26:10Z</time><pdop>10.0</pdop><geoidheight>54.00</geoidheight><course>319.0</course><type>1</type></trkpt>
      <trkpt lat="40.61075113" lon="-4.90759809"><ele>1836</ele><speed>8.59</speed><time>2016-07-01T15:26:13Z</time><pdop>10.0</pdop><geoidheight>54.00</geoidheight><course>333.2</course><type>1</type></trkpt>
      <trkpt lat="40.61092116" lon="-4.90767935"><ele>1832</ele><speed>5.89</speed><time>2016-07-01T15:26:16Z</time><pdop>9.0</pdop><geoidheight>54.00</geoidheight><course>342.3</course><type>1</type></trkpt>
      <trkpt lat="40.6111028" lon="-4.90792602"><ele>1825</ele><speed>7.39</speed><time>2016-07-01T15:26:22Z</time><pdop>14.0</pdop><geoidheight>54.00</geoidheight><course>305.6</course><type>1</type></trkpt>
      <trkpt lat="40.61122703" lon="-4.90829159"><ele>1822</ele><speed>9.16</speed><time>2016-07-01T15:26:25Z</time><pdop>12.0</pdop><geoidheight>54.00</geoidheight><course>297.5</course><type>1</type></trkpt>
      <trkpt lat="40.61142734" lon="-4.9081659"><ele>1814</ele><speed>6.51</speed><time>2016-07-01T15:26:28Z</time><pdop>11.0</pdop><geoidheight>54.00</geoidheight><course>1.2</course><type>1</type></trkpt>
      <trkpt lat="40.61166323" lon="-4.90811219"><ele>1807</ele><speed>8.09</speed><time>2016-07-01T15:26:32Z</time><pdop>10.0</pdop><geoidheight>54.00</geoidheight><course>6.7</course><type>1</type></trkpt>
      <trkpt lat="40.61187994" lon="-4.90811296"><ele>1804</ele><speed>7.09</speed><time>2016-07-01T15:26:35Z</time><pdop>10.0</pdop><geoidheight>54.00</geoidheight><course>355.5</course><type>1</type></trkpt>
      <trkpt lat="40.61213132" lon="-4.90814755"><ele>1801</ele><speed>9.47</speed><time>2016-07-01T15:26:38Z</time><pdop>11.0</pdop><geoidheight>54.00</geoidheight><course>345.1</course><type>1</type></trkpt>
      <trkpt lat="40.61233084" lon="-4.90827857"><ele>1797</ele><speed>8.22</speed><time>2016-07-01T15:26:41Z</time><pdop>10.0</pdop><geoidheight>54.00</geoidheight><course>339.8</course><type>1</type></trkpt>
      <trkpt lat="40.61252277" lon="-4.90831887"><ele>1795</ele><speed>5.22</speed><time>2016-07-01T15:26:45Z</time><pdop>10.0</pdop><geoidheight>54.00</geoidheight><course>354.9</course><type>1</type></trkpt>
      <trkpt lat="40.61272817" lon="-4.90841896"><ele>1789</ele><speed>7.68</speed><time>2016-07-01T15:26:49Z</time><pdop>11.0</pdop><geoidheight>54.00</geoidheight><course>330.8</course><type>1</type></trkpt>
      <trkpt lat="40.61291748" lon="-4.90870087"><ele>1780</ele><speed>7.41</speed><time>2016-07-01T15:26:55Z</time><pdop>11.0</pdop><geoidheight>54.00</geoidheight><course>317.2</course><type>1</type></trkpt>
      <trkpt lat="40.61312191" lon="-4.90886851"><ele>1776</ele><speed>8.64</speed><time>2016-07-01T15:26:58Z</time><pdop>11.0</pdop><geoidheight>54.00</geoidheight><course>331.7</course><type>1</type></trkpt>
      <trkpt lat="40.61338" lon="-4.908924"><ele>1772</ele><speed>8.37</speed><time>2016-07-01T15:27:02Z</time><pdop>11.0</pdop><geoidheight>54.00</geoidheight><course>356.3</course><type>1</type></trkpt>
      <trkpt lat="40.61360036" lon="-4.90891757"><ele>1768</ele><speed>8.88</speed><time>2016-07-01T15:27:05Z</time><pdop>10.0</pdop><geoidheight>54.00</geoidheight><course>359.7</course><type>1</type></trkpt>
      <trkpt lat="40.61381331" lon="-4.90885078"><ele>1766</ele><speed>8.78</speed><time>2016-07-01T15:27:08Z</time><pdop>11.0</pdop><geoidheight>54.00</geoidheight><course>19.2</course><type>1</type></trkpt>
      <trkpt lat="40.61408027" lon="-4.90868826"><ele>1761</ele><speed>12.04</speed><time>2016-07-01T15:27:11Z</time><pdop>11.0</pdop><geoidheight>54.00</geoidheight><course>19.9</course><type>1</type></trkpt>
      <trkpt lat="40.61425388" lon="-4.90850928"><ele>1757</ele><speed>13.65</speed><time>2016-07-01T15:27:13Z</time><pdop>11.0</pdop><geoidheight>54.00</geoidheight><course>35.2</course><type>1</type></trkpt>
      <trkpt lat="40.61428611" lon="-4.90811121"><ele>1750</ele><speed>11.11</speed><time>2016-07-01T15:27:16Z</time><pdop>14.0</pdop><geoidheight>54.00</geoidheight><course>79.1</course><type>1</type></trkpt>
      <trkpt lat="40.61407443" lon="-4.90777193"><ele>1745</ele><speed>14.50</speed><time>2016-07-01T15:27:18Z</time><pdop>18.0</pdop><geoidheight>54.00</geoidheight><course>119.4</course><type>1</type></trkpt>
      <trkpt lat="40.61387177" lon="-4.90731257"><ele>1741</ele><speed>17.76</speed><time>2016-07-01T15:27:20Z</time><pdop>21.0</pdop><geoidheight>54.00</geoidheight><course>126.4</course><type>1</type></trkpt>
      <trkpt lat="40.61357409" lon="-4.90694753"><ele>1737</ele><speed>19.95</speed><time>2016-07-01T15:27:22Z</time><pdop>18.0</pdop><geoidheight>54.00</geoidheight><course>138.2</course><type>1</type></trkpt>
      <trkpt lat="40.61324074" lon="-4.90673905"><ele>1732</ele><speed>19.37</speed><time>2016-07-01T15:27:24Z</time><pdop>14.0</pdop><geoidheight>54.00</geoidheight><course>146.9</course><type>1</type></trkpt>
      <trkpt lat="40.61291006" lon="-4.90670122"><ele>1727</ele><speed>17.83</speed><time>2016-07-01T15:27:26Z</time><pdop>12.0</pdop><geoidheight>54.00</geoidheight><course>160.6</course><type>1</type></trkpt>
      <trkpt lat="40.61263519" lon="-4.9065411"><ele>1718</ele><speed>18.50</speed><time>2016-07-01T15:27:28Z</time><pdop>12.0</pdop><geoidheight>54.00</geoidheight><course>159.9</course><type>1</type></trkpt>
      <trkpt lat="40.61234692" lon="-4.9063509"><ele>1714</ele><speed>17.54</speed><time>2016-07-01T15:27:30Z</time><pdop>11.0</pdop><geoidheight>54.00</geoidheight><course>155.0</course><type>1</type></trkpt>
      <trkpt lat="40.612073" lon="-4.90618229"><ele>1708</ele><speed>16.04</speed><time>2016-07-01T15:27:32Z</time><pdop>12.0</pdop><geoidheight>54.00</geoidheight><course>152.0</course><type>1</type></trkpt>
      <trkpt lat="40.61178799" lon="-4.90606071"><ele>1704</ele><speed>16.94</speed><time>2016-07-01T15:27:34Z</time><pdop>12.0</pdop><geoidheight>54.00</geoidheight><course>157.6</course><type>1</type></trkpt>
      <trkpt lat="40.61148176" lon="-4.90591328"><ele>1702</ele><speed>17.97</speed><time>2016-07-01T15:27:36Z</time><pdop>12.0</pdop><geoidheight>54.00</geoidheight><course>161.4</course><type>1</type></trkpt>
      <trkpt lat="40.61118628" lon="-4.90579168"><ele>1700</ele><speed>16.80</speed><time>2016-07-01T15:27:38Z</time><pdop>12.0</pdop><geoidheight>54.00</geoidheight><course>163.6</course><type>1</type></trkpt>
      <trkpt lat="40.61089557" lon="-4.90558867"><ele>1693</ele><speed>13.59</speed><time>2016-07-01T15:27:41Z</time><pdop>17.0</pdop><geoidheight>54.00</geoidheight><course>157.9</course><type>1</type></trkpt>
      <trkpt lat="40.61047169" lon="-4.90531539"><ele>1686</ele><speed>17.21</speed><time>2016-07-01T15:27:44Z</time><pdop>15.0</pdop><geoidheight>54.00</geoidheight><course>150.8</course><type>1</type></trkpt>
      <trkpt lat="40.6101401" lon="-4.90519122"><ele>1683</ele><speed>17.59</speed><time>2016-07-01T15:27:46Z</time><pdop>12.0</pdop><geoidheight>54.00</geoidheight><course>146.8</course><type>1</type></trkpt>
      <trkpt lat="40.60990568" lon="-4.90491083"><ele>1679</ele><speed>17.36</speed><time>2016-07-01T15:27:48Z</time><pdop>13.0</pdop><geoidheight>54.00</geoidheight><course>140.2</course><type>1</type></trkpt>
      <trkpt lat="40.60978649" lon="-4.90451038"><ele>1674</ele><speed>17.61</speed><time>2016-07-01T15:27:50Z</time><pdop>13.0</pdop><geoidheight>54.00</geoidheight><course>119.4</course><type>1</type></trkpt>
      <trkpt lat="40.60969042" lon="-4.90407727"><ele>1670</ele><speed>18.24</speed><time>2016-07-01T15:27:52Z</time><pdop>14.0</pdop><geoidheight>54.00</geoidheight><course>112.2</course><type>1</type></trkpt>
      <trkpt lat="40.60966339" lon="-4.90361414"><ele>1666</ele><speed>18.85</speed><time>2016-07-01T15:27:54Z</time><pdop>13.0</pdop><geoidheight>54.00</geoidheight><course>102.6</course><type>1</type></trkpt>
      <trkpt lat="40.60968707" lon="-4.90315981"><ele>1661</ele><speed>18.85</speed><time>2016-07-01T15:27:56Z</time><pdop>13.0</pdop><geoidheight>54.00</geoidheight><course>89.4</course><type>1</type></trkpt>
      <trkpt lat="40.60973453" lon="-4.90270329"><ele>1658</ele><speed>19.54</speed><time>2016-07-01T15:27:58Z</time><pdop>12.0</pdop><geoidheight>54.00</geoidheight><course>81.9</course><type>1</type></trkpt>
      <trkpt lat="40.6098111" lon="-4.90220046"><ele>1653</ele><speed>20.81</speed><time>2016-07-01T15:28:00Z</time><pdop>12.0</pdop><geoidheight>54.00</geoidheight><course>76.8</course><type>1</type></trkpt>
      <trkpt lat="40.60988999" lon="-4.90171288"><ele>1651</ele><speed>20.83</speed><time>2016-07-01T15:28:02Z</time><pdop>12.0</pdop><geoidheight>54.00</geoidheight><course>77.0</course><type>1</type></trkpt>
      <trkpt lat="40.60991847" lon="-4.90123112"><ele>1648</ele><speed>20.74</speed><time>2016-07-01T15:28:04Z</time><pdop>12.0</pdop><geoidheight>54.00</geoidheight><course>81.4</course><type>1</type></trkpt>
      <trkpt lat="40.6098901" lon="-4.90076413"><ele>1642</ele><speed>20.17</speed><time>2016-07-01T15:28:06Z</time><pdop>10.0</pdop><geoidheight>54.00</geoidheight><course>84.1</course><type>1</type></trkpt>
      <trkpt lat="40.60992672" lon="-4.9002964"><ele>1638</ele><speed>19.68</speed><time>2016-07-01T15:28:08Z</time><pdop>10.0</pdop><geoidheight>54.00</geoidheight><course>83.0</course><type>1</type></trkpt>
      <trkpt lat="40.6099625" lon="-4.89982802"><ele>1634</ele><speed>19.64</speed><time>2016-07-01T15:28:10Z</time><pdop>10.0</pdop><geoidheight>54.00</geoidheight><course>82.2</course><type>1</type></trkpt>
      <trkpt lat="40.60998977" lon="-4.89956713"><ele>1630</ele><speed>20.52</speed><time>2016-07-01T15:28:11Z</time><pdop>10.0</pdop><geoidheight>54.00</geoidheight><course>79.8</course><type>1</type></trkpt>
      <trkpt lat="40.61010009" lon="-4.89920619"><ele>1626</ele><speed>18.27</speed><time>2016-07-01T15:28:13Z</time><pdop>11.0</pdop><geoidheight>54.00</geoidheight><course>73.4</course><type>1</type></trkpt>
      <trkpt lat="40.61023037" lon="-4.89875541"><ele>1622</ele><speed>20.33</speed><time>2016-07-01T15:28:15Z</time><pdop>12.0</pdop><geoidheight>54.00</geoidheight><course>69.4</course><type>1</type></trkpt>
      <trkpt lat="40.61028547" lon="-4.8982428"><ele>1615</ele><speed>20.23</speed><time>2016-07-01T15:28:17Z</time><pdop>10.0</pdop><geoidheight>54.00</geoidheight><course>76.7</course><type>1</type></trkpt>
      <trkpt lat="40.61032128" lon="-4.89800852"><ele>1613</ele><speed>19.66</speed><time>2016-07-01T15:28:18Z</time><pdop>10.0</pdop><geoidheight>54.00</geoidheight><course>76.0</course><type>1</type></trkpt>
      <trkpt lat="40.61038496" lon="-4.89762838"><ele>1608</ele><speed>17.53</speed><time>2016-07-01T15:28:20Z</time><pdop>10.0</pdop><geoidheight>54.00</geoidheight><course>78.9</course><type>1</type></trkpt>
      <trkpt lat="40.61042144" lon="-4.89725811"><ele>1599</ele><speed>17.04</speed><time>2016-07-01T15:28:22Z</time><pdop>10.0</pdop><geoidheight>54.00</geoidheight><course>77.0</course><type>1</type></trkpt>
      <trkpt lat="40.61046833" lon="-4.89682051"><ele>1594</ele><speed>18.62</speed><time>2016-07-01T15:28:24Z</time><pdop>11.0</pdop><geoidheight>54.00</geoidheight><course>81.0</course><type>1</type></trkpt>
      <trkpt lat="40.61047612" lon="-4.89631921"><ele>1590</ele><speed>20.58</speed><time>2016-07-01T15:28:26Z</time><pdop>11.0</pdop><geoidheight>54.00</geoidheight><course>87.7</course><type>1</type></trkpt>
      <trkpt lat="40.61043072" lon="-4.89584895"><ele>1582</ele><speed>19.27</speed><time>2016-07-01T15:28:28Z</time><pdop>11.0</pdop><geoidheight>54.00</geoidheight><course>88.3</course><type>1</type></trkpt>
      <trkpt lat="40.61040811" lon="-4.89541376"><ele>1577</ele><speed>17.80</speed><time>2016-07-01T15:28:30Z</time><pdop>11.0</pdop><geoidheight>54.00</geoidheight><course>90.5</course><type>1</type></trkpt>
      <trkpt lat="40.6104133" lon="-4.89496493"><ele>1572</ele><speed>18.62</speed><time>2016-07-01T15:28:32Z</time><pdop>11.0</pdop><geoidheight>54.00</geoidheight><course>87.0</course><type>1</type></trkpt>
      <trkpt lat="40.61038256" lon="-4.89450108"><ele>1566</ele><speed>19.47</speed><time>2016-07-01T15:28:34Z</time><pdop>11.0</pdop><geoidheight>54.00</geoidheight><course>90.2</course><type>1</type></trkpt>
      <trkpt lat="40.61035205" lon="-4.89402618"><ele>1561</ele><speed>19.51</speed><time>2016-07-01T15:28:36Z</time><pdop>10.0</pdop><geoidheight>54.00</geoidheight><course>91.2</course><type>1</type></trkpt>
      <trkpt lat="40.61032634" lon="-4.89360053"><ele>1556</ele><speed>18.64</speed><time>2016-07-01T15:28:38Z</time><pdop>11.0</pdop><geoidheight>54.00</geoidheight><course>90.9</course><type>1</type></trkpt>
      <trkpt lat="40.61033035" lon="-4.89315379"><ele>1551</ele><speed>19.34</speed><time>2016-07-01T15:28:40Z</time><pdop>11.0</pdop><geoidheight>54.00</geoidheight><course>86.7</course><type>1</type></trkpt>
      <trkpt lat="40.61034673" lon="-4.89264018"><ele>1547</ele><speed>21.23</speed><time>2016-07-01T15:28:42Z</time><pdop>12.0</pdop><geoidheight>54.00</geoidheight><course>88.2</course><type>1</type></trkpt>
      <trkpt lat="40.61029626" lon="-4.89216459"><ele>1541</ele><speed>19.63</speed><time>2016-07-01T15:28:44Z</time><pdop>11.0</pdop><geoidheight>54.00</geoidheight><course>93.6</course><type>1</type></trkpt>
      <trkpt lat="40.61030033" lon="-4.89168514"><ele>1536</ele><speed>19.50</speed><time>2016-07-01T15:28:46Z</time><pdop>11.0</pdop><geoidheight>54.00</geoidheight><course>89.2</course><type>1</type></trkpt>
      <trkpt lat="40.6103124" lon="-4.89121357"><ele>1530</ele><speed>20.17</speed><time>2016-07-01T15:28:48Z</time><pdop>11.0</pdop><geoidheight>54.00</geoidheight><course>87.3</course><type>1</type></trkpt>
      <trkpt lat="40.61030967" lon="-4.89065164"><ele>1525</ele><speed>23.34</speed><time>2016-07-01T15:28:50Z</time><pdop>12.0</pdop><geoidheight>54.00</geoidheight><course>87.2</course><type>1</type></trkpt>
      <trkpt lat="40.61026626" lon="-4.89037998"><ele>1522</ele><speed>22.93</speed><time>2016-07-01T15:28:51Z</time><pdop>11.0</pdop><geoidheight>54.00</geoidheight><course>93.7</course><type>1</type></trkpt>
      <trkpt lat="40.61016421" lon="-4.88990807"><ele>1515</ele><speed>21.63</speed><time>2016-07-01T15:28:53Z</time><pdop>11.0</pdop><geoidheight>54.00</geoidheight><course>100.6</course><type>1</type></trkpt>
      <trkpt lat="40.61005013" lon="-4.88944521"><ele>1512</ele><speed>19.88</speed><time>2016-07-01T15:28:55Z</time><pdop>11.0</pdop><geoidheight>54.00</geoidheight><course>107.0</course><type>1</type></trkpt>
      <trkpt lat="40.60986486" lon="-4.88906358"><ele>1510</ele><speed>18.10</speed><time>2016-07-01T15:28:57Z</time><pdop>11.0</pdop><geoidheight>54.00</geoidheight><course>119.8</course><type>1</type></trkpt>
      <trkpt lat="40.60965748" lon="-4.88870556"><ele>1508</ele><speed>18.81</speed><time>2016-07-01T15:28:59Z</time><pdop>12.0</pdop><geoidheight>54.00</geoidheight><course>126.3</course><type>1</type></trkpt>
      <trkpt lat="40.60938908" lon="-4.88844604"><ele>1505</ele><speed>17.72</speed><time>2016-07-01T15:29:01Z</time><pdop>14.0</pdop><geoidheight>54.00</geoidheight><course>138.4</course><type>1</type></trkpt>
      <trkpt lat="40.60939818" lon="-4.88813822"><ele>1488</ele><speed>17.60</speed><time>2016-07-01T15:29:09Z</time><pdop>8.0</pdop><geoidheight>54.00</geoidheight><course>78.5</course><type>1</type></trkpt>
      <trkpt lat="40.609406" lon="-4.88795652"><ele>1488</ele><speed>17.22</speed><time>2016-07-01T15:29:10Z</time><pdop>6.0</pdop><geoidheight>54.00</geoidheight><course>90.2</course><type>1</type></trkpt>
      <trkpt lat="40.60939841" lon="-4.88778173"><ele>1487</ele><speed>15.49</speed><time>2016-07-01T15:29:11Z</time><pdop>6.0</pdop><geoidheight>54.00</geoidheight><course>97.4</course><type>1</type></trkpt>
      <trkpt lat="40.60935453" lon="-4.88761146"><ele>1486</ele><speed>14.66</speed><time>2016-07-01T15:29:12Z</time><pdop>5.0</pdop><geoidheight>54.00</geoidheight><course>101.7</course><type>1</type></trkpt>
      <trkpt lat="40.60932035" lon="-4.88744346"><ele>1485</ele><speed>15.12</speed><time>2016-07-01T15:29:13Z</time><pdop>5.0</pdop><geoidheight>54.00</geoidheight><course>104.2</course><type>1</type></trkpt>
      <trkpt lat="40.60927336" lon="-4.88726554"><ele>1486</ele><speed>15.95</speed><time>2016-07-01T15:29:14Z</time><pdop>5.0</pdop><geoidheight>54.00</geoidheight><course>105.8</course><type>1</type></trkpt>
      <trkpt lat="40.6092329" lon="-4.8870791"><ele>1486</ele><speed>16.15</speed><time>2016-07-01T15:29:15Z</time><pdop>5.0</pdop><geoidheight>54.00</geoidheight><course>107.1</course><type>1</type></trkpt>
      <trkpt lat="40.60917719" lon="-4.88691714"><ele>1485</ele><speed>15.98</speed><time>2016-07-01T15:29:16Z</time><pdop>6.0</pdop><geoidheight>54.00</geoidheight><course>111.1</course><type>1</type></trkpt>
      <trkpt lat="40.60911927" lon="-4.8867471"><ele>1485</ele><speed>15.62</speed><time>2016-07-01T15:29:17Z</time><pdop>6.0</pdop><geoidheight>54.00</geoidheight><course>110.8</course><type>1</type></trkpt>
      <trkpt lat="40.60905993" lon="-4.88660288"><ele>1485</ele><speed>14.48</speed><time>2016-07-01T15:29:18Z</time><pdop>6.0</pdop><geoidheight>54.00</geoidheight><course>113.2</course><type>1</type></trkpt>
      <trkpt lat="40.60900396" lon="-4.88645663"><ele>1485</ele><speed>13.84</speed><time>2016-07-01T15:29:19Z</time><pdop>6.0</pdop><geoidheight>54.00</geoidheight><course>118.6</course><type>1</type></trkpt>
      <trkpt lat="40.6089281" lon="-4.88635089"><ele>1484</ele><speed>12.92</speed><time>2016-07-01T15:29:20Z</time><pdop>5.0</pdop><geoidheight>54.00</geoidheight><course>128.1</course><type>1</type></trkpt>
      <trkpt lat="40.60885713" lon="-4.88623999"><ele>1482</ele><speed>13.20</speed><time>2016-07-01T15:29:21Z</time><pdop>6.0</pdop><geoidheight>54.00</geoidheight><course>132.0</course><type>1</type></trkpt>
      <trkpt lat="40.60866015" lon="-4.88606095"><ele>1480</ele><speed>13.26</speed><time>2016-07-01T15:29:23Z</time><pdop>8.0</pdop><geoidheight>54.00</geoidheight><course>140.9</course><type>1</type></trkpt>
      <trkpt lat="40.608509" lon="-4.886064"><ele>1479</ele><speed>9.00</speed><time>2016-07-01T15:29:25Z</time><pdop>7.0</pdop><geoidheight>54.00</geoidheight><course>165.2</course><type>1</type></trkpt>
      <trkpt lat="40.60841751" lon="-4.88618855"><ele>1477</ele><speed>5.37</speed><time>2016-07-01T15:29:27Z</time><pdop>7.0</pdop><geoidheight>54.00</geoidheight><course>203.5</course><type>1</type></trkpt>
      <trkpt lat="40.60860382" lon="-4.88604095"><ele>1468</ele><speed>7.15</speed><time>2016-07-01T15:29:33Z</time><pdop>10.0</pdop><geoidheight>54.00</geoidheight><course>38.2</course><type>1</type></trkpt>
      <trkpt lat="40.60881231" lon="-4.88561716"><ele>1466</ele><speed>15.32</speed><time>2016-07-01T15:29:35Z</time><pdop>8.0</pdop><geoidheight>54.00</geoidheight><course>58.7</course><type>1</type></trkpt>
      <trkpt lat="40.60871799" lon="-4.88537652"><ele>1463</ele><speed>16.16</speed><time>2016-07-01T15:29:36Z</time><pdop>6.0</pdop><geoidheight>54.00</geoidheight><course>91.6</course><type>1</type></trkpt>
      <trkpt lat="40.60867796" lon="-4.8851976"><ele>1463</ele><speed>14.93</speed><time>2016-07-01T15:29:37Z</time><pdop>5.0</pdop><geoidheight>54.00</geoidheight><course>99.7</course><type>1</type></trkpt>
      <trkpt lat="40.60864523" lon="-4.8850386"><ele>1464</ele><speed>13.96</speed><time>2016-07-01T15:29:38Z</time><pdop>5.0</pdop><geoidheight>54.00</geoidheight><course>107.3</course><type>1</type></trkpt>
      <trkpt lat="40.60860094" lon="-4.88491093"><ele>1464</ele><speed>12.11</speed><time>2016-07-01T15:29:39Z</time><pdop>5.0</pdop><geoidheight>54.00</geoidheight><course>114.6</course><type>1</type></trkpt>
      <trkpt lat="40.60855028" lon="-4.88478957"><ele>1463</ele><speed>11.53</speed><time>2016-07-01T15:29:40Z</time><pdop>5.0</pdop><geoidheight>54.00</geoidheight><course>117.4</course><type>1</type></trkpt>
      <trkpt lat="40.60850608" lon="-4.88465775"><ele>1462</ele><speed>12.52</speed><time>2016-07-01T15:29:41Z</time><pdop>5.0</pdop><geoidheight>54.00</geoidheight><course>118.4</course><type>1</type></trkpt>
      <trkpt lat="40.60845874" lon="-4.88451859"><ele>1462</ele><speed>13.04</speed><time>2016-07-01T15:29:42Z</time><pdop>6.0</pdop><geoidheight>54.00</geoidheight><course>116.1</course><type>1</type></trkpt>
      <trkpt lat="40.60836747" lon="-4.8843664"><ele>1459</ele><speed>15.18</speed><time>2016-07-01T15:29:43Z</time><pdop>5.0</pdop><geoidheight>54.00</geoidheight><course>122.8</course><type>1</type></trkpt>
      <trkpt lat="40.60828218" lon="-4.88420659"><ele>1459</ele><speed>15.88</speed><time>2016-07-01T15:29:44Z</time><pdop>5.0</pdop><geoidheight>54.00</geoidheight><course>125.4</course><type>1</type></trkpt>
      <trkpt lat="40.60820307" lon="-4.88405827"><ele>1459</ele><speed>15.90</speed><time>2016-07-01T15:29:45Z</time><pdop>7.0</pdop><geoidheight>54.00</geoidheight><course>125.5</course><type>1</type></trkpt>
      <trkpt lat="40.60807995" lon="-4.88392901"><ele>1458</ele><speed>16.70</speed><time>2016-07-01T15:29:46Z</time><pdop>6.0</pdop><geoidheight>54.00</geoidheight><course>133.4</course><type>1</type></trkpt>
      <trkpt lat="40.60795954" lon="-4.88379558"><ele>1457</ele><speed>17.28</speed><time>2016-07-01T15:29:47Z</time><pdop>7.0</pdop><geoidheight>54.00</geoidheight><course>136.6</course><type>1</type></trkpt>
      <trkpt lat="40.60783368" lon="-4.8836608"><ele>1458</ele><speed>17.34</speed><time>2016-07-01T15:29:48Z</time><pdop>7.0</pdop><geoidheight>54.00</geoidheight><course>140.3</course><type>1</type></trkpt>
      <trkpt lat="40.60771807" lon="-4.88356534"><ele>1457</ele><speed>15.74</speed><time>2016-07-01T15:29:49Z</time><pdop>6.0</pdop><geoidheight>54.00</geoidheight><course>146.6</course><type>1</type></trkpt>
      <trkpt lat="40.60762273" lon="-4.8834882"><ele>1455</ele><speed>13.58</speed><time>2016-07-01T15:29:50Z</time><pdop>5.0</pdop><geoidheight>54.00</geoidheight><course>152.2</course><type>1</type></trkpt>
      <trkpt lat="40.60752202" lon="-4.88342196"><ele>1455</ele><speed>12.28</speed><time>2016-07-01T15:29:51Z</time><pdop>5.0</pdop><geoidheight>54.00</geoidheight><course>153.8</course><type>1</type></trkpt>
      <trkpt lat="40.60731813" lon="-4.88335485"><ele>1455</ele><speed>12.02</speed><time>2016-07-01T15:29:53Z</time><pdop>6.0</pdop><geoidheight>54.00</geoidheight><course>164.2</course><type>1</type></trkpt>
      <trkpt lat="40.60706728" lon="-4.8833062"><ele>1455</ele><speed>14.65</speed><time>2016-07-01T15:29:55Z</time><pdop>6.0</pdop><geoidheight>54.00</geoidheight><course>165.5</course><type>1</type></trkpt>
      <trkpt lat="40.60691582" lon="-4.8832442"><ele>1455</ele><speed>15.94</speed><time>2016-07-01T15:29:56Z</time><pdop>6.0</pdop><geoidheight>54.00</geoidheight><course>163.6</course><type>1</type></trkpt>
      <trkpt lat="40.60679643" lon="-4.88315331"><ele>1455</ele><speed>15.73</speed><time>2016-07-01T15:29:57Z</time><pdop>8.0</pdop><geoidheight>54.00</geoidheight><course>159.7</course><type>1</type></trkpt>
      <trkpt lat="40.60662165" lon="-4.88294906"><ele>1452</ele><speed>13.42</speed><time>2016-07-01T15:29:59Z</time><pdop>9.0</pdop><geoidheight>54.00</geoidheight><course>142.1</course><type>1</type></trkpt>
      <trkpt lat="40.60653177" lon="-4.88269415"><ele>1450</ele><speed>16.57</speed><time>2016-07-01T15:30:00Z</time><pdop>8.0</pdop><geoidheight>54.00</geoidheight><course>126.3</course><type>1</type></trkpt>
      <trkpt lat="40.60645666" lon="-4.88249697"><ele>1449</ele><speed>16.22</speed><time>2016-07-01T15:30:01Z</time><pdop>7.0</pdop><geoidheight>54.00</geoidheight><course>122.0</course><type>1</type></trkpt>
      <trkpt lat="40.60639678" lon="-4.88229949"><ele>1447</ele><speed>16.78</speed><time>2016-07-01T15:30:02Z</time><pdop>6.0</pdop><geoidheight>54.00</geoidheight><course>115.5</course><type>1</type></trkpt>
      <trkpt lat="40.60634302" lon="-4.88210052"><ele>1444</ele><speed>16.71</speed><time>2016-07-01T15:30:03Z</time><pdop>5.0</pdop><geoidheight>54.00</geoidheight><course>110.8</course><type>1</type></trkpt>
      <trkpt lat="40.60630521" lon="-4.88190285"><ele>1442</ele><speed>15.99</speed><time>2016-07-01T15:30:04Z</time><pdop>5.0</pdop><geoidheight>54.00</geoidheight><course>108.6</course><type>1</type></trkpt>
      <trkpt lat="40.60626639" lon="-4.88172294"><ele>1440</ele><speed>15.58</speed><time>2016-07-01T15:30:05Z</time><pdop>6.0</pdop><geoidheight>54.00</geoidheight><course>107.1</course><type>1</type></trkpt>
      <trkpt lat="40.60623294" lon="-4.88154765"><ele>1440</ele><speed>15.47</speed><time>2016-07-01T15:30:06Z</time><pdop>6.0</pdop><geoidheight>54.00</geoidheight><course>105.5</course><type>1</type></trkpt>
      <trkpt lat="40.60620051" lon="-4.88135488"><ele>1440</ele><speed>16.05</speed><time>2016-07-01T15:30:07Z</time><pdop>7.0</pdop><geoidheight>54.00</geoidheight><course>104.5</course><type>1</type></trkpt>
      <trkpt lat="40.60615166" lon="-4.88116079"><ele>1435</ele><speed>17.74</speed><time>2016-07-01T15:30:08Z</time><pdop>7.0</pdop><geoidheight>54.00</geoidheight><course>103.3</course><type>1</type></trkpt>
      <trkpt lat="40.60611596" lon="-4.880957"><ele>1434</ele><speed>18.05</speed><time>2016-07-01T15:30:09Z</time><pdop>7.0</pdop><geoidheight>54.00</geoidheight><course>103.4</course><type>1</type></trkpt>
      <trkpt lat="40.60606364" lon="-4.88075231"><ele>1433</ele><speed>18.03</speed><time>2016-07-01T15:30:10Z</time><pdop>6.0</pdop><geoidheight>54.00</geoidheight><course>106.0</course><type>1</type></trkpt>
      <trkpt lat="40.60602068" lon="-4.88054392"><ele>1430</ele><speed>17.70</speed><time>2016-07-01T15:30:11Z</time><pdop>6.0</pdop><geoidheight>54.00</geoidheight><course>106.9</course><type>1</type></trkpt>
      <trkpt lat="40.6059794" lon="-4.88036053"><ele>1429</ele><speed>16.50</speed><time>2016-07-01T15:30:12Z</time><pdop>6.0</pdop><geoidheight>54.00</geoidheight><course>107.2</course><type>1</type></trkpt>
      <trkpt lat="40.60595683" lon="-4.88018988"><ele>1429</ele><speed>15.05</speed><time>2016-07-01T15:30:13Z</time><pdop>5.0</pdop><geoidheight>54.00</geoidheight><course>101.8</course><type>1</type></trkpt>
      <trkpt lat="40.60592654" lon="-4.88002543"><ele>1427</ele><speed>14.14</speed><time>2016-07-01T15:30:14Z</time><pdop>5.0</pdop><geoidheight>54.00</geoidheight><course>98.3</course><type>1</type></trkpt>
      <trkpt lat="40.60591707" lon="-4.8798538"><ele>1426</ele><speed>14.18</speed><time>2016-07-01T15:30:15Z</time><pdop>5.0</pdop><geoidheight>54.00</geoidheight><course>96.4</course><type>1</type></trkpt>
      <trkpt lat="40.60588983" lon="-4.87968483"><ele>1425</ele><speed>14.49</speed><time>2016-07-01T15:30:16Z</time><pdop>5.0</pdop><geoidheight>54.00</geoidheight><course>99.7</course><type>1</type></trkpt>
      <trkpt lat="40.60584683" lon="-4.87952309"><ele>1423</ele><speed>14.65</speed><time>2016-07-01T15:30:17Z</time><pdop>5.0</pdop><geoidheight>54.00</geoidheight><course>105.8</course><type>1</type></trkpt>
      <trkpt lat="40.605783" lon="-4.87936148"><ele>1421</ele><speed>14.89</speed><time>2016-07-01T15:30:18Z</time><pdop>5.0</pdop><geoidheight>54.00</geoidheight><course>112.3</course><type>1</type></trkpt>
      <trkpt lat="40.60572671" lon="-4.87921164"><ele>1422</ele><speed>14.86</speed><time>2016-07-01T15:30:19Z</time><pdop>5.0</pdop><geoidheight>54.00</geoidheight><course>113.5</course><type>1</type></trkpt>
      <trkpt lat="40.60567268" lon="-4.87903845"><ele>1421</ele><speed>15.73</speed><time>2016-07-01T15:30:20Z</time><pdop>5.0</pdop><geoidheight>54.00</geoidheight><course>112.8</course><type>1</type></trkpt>
      <trkpt lat="40.60561211" lon="-4.87886248"><ele>1419</ele><speed>15.99</speed><time>2016-07-01T15:30:21Z</time><pdop>6.0</pdop><geoidheight>54.00</geoidheight><course>109.2</course><type>1</type></trkpt>
      <trkpt lat="40.60557338" lon="-4.87867709"><ele>1417</ele><speed>15.96</speed><time>2016-07-01T15:30:22Z</time><pdop>5.0</pdop><geoidheight>54.00</geoidheight><course>105.0</course><type>1</type></trkpt>
      <trkpt lat="40.60555341" lon="-4.87848627"><ele>1417</ele><speed>15.83</speed><time>2016-07-01T15:30:23Z</time><pdop>6.0</pdop><geoidheight>54.00</geoidheight><course>100.7</course><type>1</type></trkpt>
      <trkpt lat="40.60555165" lon="-4.87830503"><ele>1416</ele><speed>15.88</speed><time>2016-07-01T15:30:24Z</time><pdop>5.0</pdop><geoidheight>54.00</geoidheight><course>96.7</course><type>1</type></trkpt>
      <trkpt lat="40.60552272" lon="-4.87811849"><ele>1415</ele><speed>15.92</speed><time>2016-07-01T15:30:25Z</time><pdop>5.0</pdop><geoidheight>54.00</geoidheight><course>98.7</course><type>1</type></trkpt>
      <trkpt lat="40.60549051" lon="-4.87794615"><ele>1414</ele><speed>15.59</speed><time>2016-07-01T15:30:26Z</time><pdop>5.0</pdop><geoidheight>54.00</geoidheight><course>100.9</course><type>1</type></trkpt>
      <trkpt lat="40.60545095" lon="-4.877775"><ele>1414</ele><speed>15.36</speed><time>2016-07-01T15:30:27Z</time><pdop>5.0</pdop><geoidheight>54.00</geoidheight><course>105.8</course><type>1</type></trkpt>
      <trkpt lat="40.60539487" lon="-4.87761834"><ele>1415</ele><speed>15.33</speed><time>2016-07-01T15:30:28Z</time><pdop>6.0</pdop><geoidheight>54.00</geoidheight><course>112.1</course><type>1</type></trkpt>
      <trkpt lat="40.60533366" lon="-4.87745683"><ele>1415</ele><speed>14.98</speed><time>2016-07-01T15:30:29Z</time><pdop>6.0</pdop><geoidheight>54.00</geoidheight><course>117.1</course><type>1</type></trkpt>
      <trkpt lat="40.60526203" lon="-4.87733361"><ele>1416</ele><speed>13.60</speed><time>2016-07-01T15:30:30Z</time><pdop>6.0</pdop><geoidheight>54.00</geoidheight><course>121.7</course><type>1</type></trkpt>
      <trkpt lat="40.6051819" lon="-4.87720583"><ele>1415</ele><speed>13.67</speed><time>2016-07-01T15:30:31Z</time><pdop>8.0</pdop><geoidheight>54.00</geoidheight><course>125.0</course><type>1</type></trkpt>
      <trkpt lat="40.60498736" lon="-4.87707929"><ele>1413</ele><speed>12.95</speed><time>2016-07-01T15:30:33Z</time><pdop>13.0</pdop><geoidheight>54.00</geoidheight><course>137.8</course><type>1</type></trkpt>
      <trkpt lat="40.60476822" lon="-4.87681687"><ele>1411</ele><speed>16.19</speed><time>2016-07-01T15:30:35Z</time><pdop>9.0</pdop><geoidheight>54.00</geoidheight><course>134.9</course><type>1</type></trkpt>
      <trkpt lat="40.60470932" lon="-4.8765964"><ele>1409</ele><speed>16.34</speed><time>2016-07-01T15:30:36Z</time><pdop>9.0</pdop><geoidheight>54.00</geoidheight><course>124.1</course><type>1</type></trkpt>
      <trkpt lat="40.60457206" lon="-4.87633755"><ele>1405</ele><speed>15.50</speed><time>2016-07-01T15:30:38Z</time><pdop>12.0</pdop><geoidheight>54.00</geoidheight><course>119.8</course><type>1</type></trkpt>
      <trkpt lat="40.60457319" lon="-4.87601763"><ele>1409</ele><speed>11.15</speed><time>2016-07-01T15:30:40Z</time><pdop>12.0</pdop><geoidheight>54.00</geoidheight><course>102.9</course><type>1</type></trkpt>
      <trkpt lat="40.6046539" lon="-4.87575398"><ele>1413</ele><speed>10.33</speed><time>2016-07-01T15:30:42Z</time><pdop>12.0</pdop><geoidheight>54.00</geoidheight><course>76.2</course><type>1</type></trkpt>
      <trkpt lat="40.60487633" lon="-4.8755484"><ele>1412</ele><speed>9.26</speed><time>2016-07-01T15:30:45Z</time><pdop>11.0</pdop><geoidheight>54.00</geoidheight><course>29.9</course><type>1</type></trkpt>
      <trkpt lat="40.60509979" lon="-4.87557773"><ele>1412</ele><speed>10.49</speed><time>2016-07-01T15:30:47Z</time><pdop>12.0</pdop><geoidheight>54.00</geoidheight><course>352.7</course><type>1</type></trkpt>
      <trkpt lat="40.6053491" lon="-4.87573933"><ele>1411</ele><speed>7.19</speed><time>2016-07-01T15:30:51Z</time><pdop>18.0</pdop><geoidheight>54.00</geoidheight><course>328.1</course><type>1</type></trkpt>
      <trkpt lat="40.60501636" lon="-4.87593442"><ele>1412</ele><speed>10.41</speed><time>2016-07-01T15:30:56Z</time><pdop>15.0</pdop><geoidheight>54.00</geoidheight><course>193.9</course><type>1</type></trkpt>
      <trkpt lat="40.60476368" lon="-4.8760162"><ele>1413</ele><speed>12.02</speed><time>2016-07-01T15:30:58Z</time><pdop>13.0</pdop><geoidheight>54.00</geoidheight><course>187.9</course><type>1</type></trkpt>
      <trkpt lat="40.60462958" lon="-4.87575665"><ele>1411</ele><speed>8.45</speed><time>2016-07-01T15:31:01Z</time><pdop>12.0</pdop><geoidheight>54.00</geoidheight><course>144.4</course><type>1</type></trkpt>
      <trkpt lat="40.60452569" lon="-4.87545326"><ele>1410</ele><speed>11.48</speed><time>2016-07-01T15:31:03Z</time><pdop>11.0</pdop><geoidheight>54.00</geoidheight><course>121.2</course><type>1</type></trkpt>
      <trkpt lat="40.60443473" lon="-4.87514796"><ele>1411</ele><speed>13.58</speed><time>2016-07-01T15:31:05Z</time><pdop>11.0</pdop><geoidheight>54.00</geoidheight><course>114.9</course><type>1</type></trkpt>
      <trkpt lat="40.60433866" lon="-4.8747607"><ele>1411</ele><speed>15.93</speed><time>2016-07-01T15:31:07Z</time><pdop>11.0</pdop><geoidheight>54.00</geoidheight><course>109.0</course><type>1</type></trkpt>
      <trkpt lat="40.60430026" lon="-4.874437"><ele>1414</ele><speed>12.86</speed><time>2016-07-01T15:31:09Z</time><pdop>11.0</pdop><geoidheight>54.00</geoidheight><course>99.5</course><type>1</type></trkpt>
      <trkpt lat="40.6044029" lon="-4.87410481"><ele>1416</ele><speed>6.69</speed><time>2016-07-01T15:31:13Z</time><pdop>18.0</pdop><geoidheight>54.00</geoidheight><course>70.8</course><type>1</type></trkpt>
      <trkpt lat="40.60475504" lon="-4.87435561"><ele>1416</ele><speed>5.37</speed><time>2016-07-01T15:31:18Z</time><pdop>24.0</pdop><geoidheight>53.00</geoidheight><course>337.4</course><type>1</type></trkpt>
      <trkpt lat="40.60429156" lon="-4.87444791"><ele>1414</ele><speed>10.75</speed><time>2016-07-01T15:31:21Z</time><pdop>13.0</pdop><geoidheight>54.00</geoidheight><course>158.9</course><type>1</type></trkpt>
      <trkpt lat="40.6040347" lon="-4.87432845"><ele>1414</ele><speed>14.06</speed><time>2016-07-01T15:31:23Z</time><pdop>12.0</pdop><geoidheight>54.00</geoidheight><course>157.2</course><type>1</type></trkpt>
      <trkpt lat="40.60373834" lon="-4.87415762"><ele>1413</ele><speed>15.73</speed><time>2016-07-01T15:31:25Z</time><pdop>12.0</pdop><geoidheight>54.00</geoidheight><course>153.5</course><type>1</type></trkpt>
      <trkpt lat="40.60354027" lon="-4.87393619"><ele>1417</ele><speed>13.27</speed><time>2016-07-01T15:31:27Z</time><pdop>12.0</pdop><geoidheight>54.00</geoidheight><course>140.9</course><type>1</type></trkpt>
      <trkpt lat="40.60332504" lon="-4.87368969"><ele>1418</ele><speed>14.27</speed><time>2016-07-01T15:31:29Z</time><pdop>12.0</pdop><geoidheight>54.00</geoidheight><course>141.4</course><type>1</type></trkpt>
      <trkpt lat="40.60337287" lon="-4.87320146"><ele>1418</ele><speed>11.73</speed><time>2016-07-01T15:31:32Z</time><pdop>13.0</pdop><geoidheight>54.00</geoidheight><course>91.8</course><type>1</type></trkpt>
      <trkpt lat="40.60350105" lon="-4.87286791"><ele>1421</ele><speed>13.61</speed><time>2016-07-01T15:31:34Z</time><pdop>13.0</pdop><geoidheight>54.00</geoidheight><course>75.1</course><type>1</type></trkpt>
      <trkpt lat="40.60369028" lon="-4.87255888"><ele>1426</ele><speed>13.56</speed><time>2016-07-01T15:31:36Z</time><pdop>12.0</pdop><geoidheight>54.00</geoidheight><course>65.2</course><type>1</type></trkpt>
      <trkpt lat="40.6038892" lon="-4.87225794"><ele>1433</ele><speed>10.15</speed><time>2016-07-01T15:31:39Z</time><pdop>11.0</pdop><geoidheight>53.00</geoidheight><course>57.8</course><type>1</type></trkpt>
      <trkpt lat="40.60401835" lon="-4.8720089"><ele>1439</ele><speed>12.27</speed><time>2016-07-01T15:31:41Z</time><pdop>12.0</pdop><geoidheight>53.00</geoidheight><course>64.3</course><type>1</type></trkpt>
      <trkpt lat="40.60415171" lon="-4.87175306"><ele>1443</ele><speed>11.98</speed><time>2016-07-01T15:31:43Z</time><pdop>11.0</pdop><geoidheight>53.00</geoidheight><course>55.9</course><type>1</type></trkpt>
      <trkpt lat="40.60432543" lon="-4.87153427"><ele>1449</ele><speed>7.73</speed><time>2016-07-01T15:31:46Z</time><pdop>15.0</pdop><geoidheight>53.00</geoidheight><course>47.1</course><type>1</type></trkpt>
      <trkpt lat="40.60464159" lon="-4.87175582"><ele>1453</ele><speed>7.56</speed><time>2016-07-01T15:31:50Z</time><pdop>17.0</pdop><geoidheight>53.00</geoidheight><course>336.4</course><type>1</type></trkpt>
      <trkpt lat="40.60436192" lon="-4.87181201"><ele>1453</ele><speed>7.64</speed><time>2016-07-01T15:31:53Z</time><pdop>14.0</pdop><geoidheight>53.00</geoidheight><course>172.0</course><type>1</type></trkpt>
      <trkpt lat="40.60409647" lon="-4.87183076"><ele>1456</ele><speed>10.51</speed><time>2016-07-01T15:31:55Z</time><pdop>13.0</pdop><geoidheight>53.00</geoidheight><course>172.9</course><type>1</type></trkpt>
      <trkpt lat="40.60397058" lon="-4.8715422"><ele>1461</ele><speed>11.89</speed><time>2016-07-01T15:31:57Z</time><pdop>11.0</pdop><geoidheight>53.00</geoidheight><course>120.2</course><type>1</type></trkpt>
      <trkpt lat="40.60390277" lon="-4.87117396"><ele>1462</ele><speed>11.91</speed><time>2016-07-01T15:32:00Z</time><pdop>11.0</pdop><geoidheight>53.00</geoidheight><course>100.6</course><type>1</type></trkpt>
      <trkpt lat="40.60399592" lon="-4.87083221"><ele>1466</ele><speed>9.56</speed><time>2016-07-01T15:32:03Z</time><pdop>14.0</pdop><geoidheight>53.00</geoidheight><course>78.0</course><type>1</type></trkpt>
      <trkpt lat="40.60433197" lon="-4.87094817"><ele>1472</ele><speed>7.04</speed><time>2016-07-01T15:32:07Z</time><pdop>22.0</pdop><geoidheight>53.00</geoidheight><course>355.4</course><type>1</type></trkpt>
      <trkpt lat="40.60399569" lon="-4.8711499"><ele>1479</ele><speed>8.36</speed><time>2016-07-01T15:32:14Z</time><pdop>14.0</pdop><geoidheight>53.00</geoidheight><course>155.1</course><type>1</type></trkpt>
      <trkpt lat="40.60383671" lon="-4.87087495"><ele>1484</ele><speed>11.91</speed><time>2016-07-01T15:32:16Z</time><pdop>13.0</pdop><geoidheight>53.00</geoidheight><course>130.6</course><type>1</type></trkpt>
      <trkpt lat="40.60373358" lon="-4.87055276"><ele>1491</ele><speed>12.82</speed><time>2016-07-01T15:32:18Z</time><pdop>13.0</pdop><geoidheight>53.00</geoidheight><course>116.6</course><type>1</type></trkpt>
      <trkpt lat="40.60376646" lon="-4.87021436"><ele>1495</ele><speed>11.99</speed><time>2016-07-01T15:32:20Z</time><pdop>15.0</pdop><geoidheight>53.00</geoidheight><course>99.1</course><type>1</type></trkpt>
      <trkpt lat="40.60410548" lon="-4.87006224"><ele>1504</ele><speed>5.80</speed><time>2016-07-01T15:32:24Z</time><pdop>21.0</pdop><geoidheight>53.00</geoidheight><course>36.1</course><type>1</type></trkpt>
      <trkpt lat="40.60381099" lon="-4.86987126"><ele>1529</ele><speed>11.56</speed><time>2016-07-01T15:32:35Z</time><pdop>11.0</pdop><geoidheight>53.00</geoidheight><course>118.5</course><type>1</type></trkpt>
      <trkpt lat="40.60373992" lon="-4.86960617"><ele>1531</ele><speed>11.21</speed><time>2016-07-01T15:32:37Z</time><pdop>11.0</pdop><geoidheight>53.00</geoidheight><course>111.5</course><type>1</type></trkpt>
      <trkpt lat="40.60379208" lon="-4.86928277"><ele>1537</ele><speed>11.79</speed><time>2016-07-01T15:32:39Z</time><pdop>11.0</pdop><geoidheight>53.00</geoidheight><course>84.3</course><type>1</type></trkpt>
      <trkpt lat="40.60386083" lon="-4.86901138"><ele>1539</ele><speed>11.19</speed><time>2016-07-01T15:32:41Z</time><pdop>12.0</pdop><geoidheight>53.00</geoidheight><course>74.8</course><type>1</type></trkpt>
      <trkpt lat="40.60407732" lon="-4.86882365"><ele>1542</ele><speed>11.97</speed><time>2016-07-01T15:32:43Z</time><pdop>13.0</pdop><geoidheight>53.00</geoidheight><course>42.7</course><type>1</type></trkpt>
      <trkpt lat="40.60430222" lon="-4.86887196"><ele>1550</ele><speed>8.66</speed><time>2016-07-01T15:32:46Z</time><pdop>11.0</pdop><geoidheight>53.00</geoidheight><course>357.1</course><type>1</type></trkpt>
      <trkpt lat="40.60451845" lon="-4.86885768"><ele>1557</ele><speed>6.00</speed><time>2016-07-01T15:32:49Z</time><pdop>10.0</pdop><geoidheight>53.00</geoidheight><course>353.9</course><type>1</type></trkpt>
      <trkpt lat="40.60436719" lon="-4.86902605"><ele>1564</ele><speed>10.29</speed><time>2016-07-01T15:32:56Z</time><pdop>10.0</pdop><geoidheight>53.00</geoidheight><course>167.5</course><type>1</type></trkpt>
      <trkpt lat="40.60413839" lon="-4.86890163"><ele>1569</ele><speed>12.73</speed><time>2016-07-01T15:32:58Z</time><pdop>8.0</pdop><geoidheight>53.00</geoidheight><course>154.2</course><type>1</type></trkpt>
      <trkpt lat="40.6039962" lon="-4.86872548"><ele>1578</ele><speed>10.24</speed><time>2016-07-01T15:33:00Z</time><pdop>6.0</pdop><geoidheight>53.00</geoidheight><course>144.5</course><type>1</type></trkpt>
      <trkpt lat="40.60385084" lon="-4.86862544"><ele>1581</ele><speed>9.27</speed><time>2016-07-01T15:33:02Z</time><pdop>6.0</pdop><geoidheight>53.00</geoidheight><course>149.9</course><type>1</type></trkpt>
      <trkpt lat="40.60371138" lon="-4.86853938"><ele>1583</ele><speed>9.07</speed><time>2016-07-01T15:33:04Z</time><pdop>9.0</pdop><geoidheight>53.00</geoidheight><course>153.8</course><type>1</type></trkpt>
      <trkpt lat="40.60352598" lon="-4.86877378"><ele>1585</ele><speed>8.14</speed><time>2016-07-01T15:33:07Z</time><pdop>7.0</pdop><geoidheight>53.00</geoidheight><course>224.8</course><type>1</type></trkpt>
      <trkpt lat="40.60347738" lon="-4.86902571"><ele>1588</ele><speed>8.39</speed><time>2016-07-01T15:33:09Z</time><pdop>6.0</pdop><geoidheight>53.00</geoidheight><course>255.0</course><type>1</type></trkpt>
      <trkpt lat="40.60354917" lon="-4.86922776"><ele>1591</ele><speed>6.29</speed><time>2016-07-01T15:33:12Z</time><pdop>11.0</pdop><geoidheight>53.00</geoidheight><course>287.8</course><type>1</type></trkpt>
      <trkpt lat="40.60374599" lon="-4.86890319"><ele>1595</ele><speed>8.15</speed><time>2016-07-01T15:33:15Z</time><pdop>9.0</pdop><geoidheight>53.00</geoidheight><course>52.3</course><type>1</type></trkpt>
      <trkpt lat="40.60380856" lon="-4.86856668"><ele>1597</ele><speed>12.55</speed><time>2016-07-01T15:33:17Z</time><pdop>8.0</pdop><geoidheight>53.00</geoidheight><course>85.3</course><type>1</type></trkpt>
      <trkpt lat="40.60382551" lon="-4.86822701"><ele>1602</ele><speed>13.39</speed><time>2016-07-01T15:33:19Z</time><pdop>9.0</pdop><geoidheight>53.00</geoidheight><course>96.1</course><type>1</type></trkpt>
      <trkpt lat="40.60369106" lon="-4.86806368"><ele>1605</ele><speed>11.47</speed><time>2016-07-01T15:33:21Z</time><pdop>11.0</pdop><geoidheight>53.00</geoidheight><course>124.0</course><type>1</type></trkpt>
      <trkpt lat="40.60353802" lon="-4.86809706"><ele>1607</ele><speed>11.11</speed><time>2016-07-01T15:33:22Z</time><pdop>6.0</pdop><geoidheight>53.00</geoidheight><course>163.1</course><type>1</type></trkpt>
      <trkpt lat="40.60336368" lon="-4.86804973"><ele>1610</ele><speed>9.49</speed><time>2016-07-01T15:33:24Z</time><pdop>5.0</pdop><geoidheight>53.00</geoidheight><course>172.1</course><type>1</type></trkpt>
      <trkpt lat="40.60325872" lon="-4.86816809"><ele>1612</ele><speed>7.48</speed><time>2016-07-01T15:33:26Z</time><pdop>7.0</pdop><geoidheight>53.00</geoidheight><course>201.3</course><type>1</type></trkpt>
      <trkpt lat="40.60325356" lon="-4.86839616"><ele>1618</ele><speed>8.18</speed><time>2016-07-01T15:33:28Z</time><pdop>9.0</pdop><geoidheight>53.00</geoidheight><course>251.3</course><type>1</type></trkpt>
      <trkpt lat="40.60346394" lon="-4.86838664"><ele>1622</ele><speed>4.03</speed><time>2016-07-01T15:33:31Z</time><pdop>9.0</pdop><geoidheight>53.00</geoidheight><course>346.0</course><type>1</type></trkpt>
      <trkpt lat="40.6036782" lon="-4.86813286"><ele>1627</ele><speed>10.18</speed><time>2016-07-01T15:33:33Z</time><pdop>8.0</pdop><geoidheight>53.00</geoidheight><course>44.8</course><type>1</type></trkpt>
      <trkpt lat="40.60375755" lon="-4.86790178"><ele>1632</ele><speed>9.32</speed><time>2016-07-01T15:33:35Z</time><pdop>10.0</pdop><geoidheight>53.00</geoidheight><course>69.9</course><type>1</type></trkpt>
      <trkpt lat="40.60368996" lon="-4.86763333"><ele>1635</ele><speed>10.43</speed><time>2016-07-01T15:33:37Z</time><pdop>11.0</pdop><geoidheight>53.00</geoidheight><course>109.3</course><type>1</type></trkpt>
      <trkpt lat="40.60342269" lon="-4.86730949"><ele>1638</ele><speed>13.28</speed><time>2016-07-01T15:33:40Z</time><pdop>12.0</pdop><geoidheight>53.00</geoidheight><course>144.3</course><type>1</type></trkpt>
      <trkpt lat="40.6032194" lon="-4.86706404"><ele>1642</ele><speed>13.31</speed><time>2016-07-01T15:33:42Z</time><pdop>13.0</pdop><geoidheight>53.00</geoidheight><course>143.1</course><type>1</type></trkpt>
      <trkpt lat="40.6030892" lon="-4.86734417"><ele>1647</ele><speed>7.33</speed><time>2016-07-01T15:33:45Z</time><pdop>11.0</pdop><geoidheight>53.00</geoidheight><course>225.5</course><type>1</type></trkpt>
      <trkpt lat="40.60304573" lon="-4.8676222"><ele>1654</ele><speed>5.36</speed><time>2016-07-01T15:33:49Z</time><pdop>12.0</pdop><geoidheight>53.00</geoidheight><course>270.8</course><type>1</type></trkpt>
      <trkpt lat="40.60334056" lon="-4.86732714"><ele>1668</ele><speed>12.59</speed><time>2016-07-01T15:33:53Z</time><pdop>9.0</pdop><geoidheight>53.00</geoidheight><course>52.8</course><type>1</type></trkpt>
      <trkpt lat="40.60343723" lon="-4.867029"><ele>1676</ele><speed>13.90</speed><time>2016-07-01T15:33:55Z</time><pdop>8.0</pdop><geoidheight>53.00</geoidheight><course>74.7</course><type>1</type></trkpt>
      <trkpt lat="40.60347934" lon="-4.86673277"><ele>1682</ele><speed>13.05</speed><time>2016-07-01T15:33:57Z</time><pdop>8.0</pdop><geoidheight>53.00</geoidheight><course>82.7</course><type>1</type></trkpt>
      <trkpt lat="40.60338589" lon="-4.86646323"><ele>1682</ele><speed>12.29</speed><time>2016-07-01T15:33:59Z</time><pdop>10.0</pdop><geoidheight>53.00</geoidheight><course>101.3</course><type>1</type></trkpt>
      <trkpt lat="40.60319184" lon="-4.86636415"><ele>1685</ele><speed>9.95</speed><time>2016-07-01T15:34:01Z</time><pdop>10.0</pdop><geoidheight>53.00</geoidheight><course>128.0</course><type>1</type></trkpt>
      <trkpt lat="40.60289037" lon="-4.8665256"><ele>1688</ele><speed>9.96</speed><time>2016-07-01T15:34:03Z</time><pdop>11.0</pdop><geoidheight>53.00</geoidheight><course>180.3</course><type>1</type></trkpt>
      <trkpt lat="40.60282222" lon="-4.86674625"><ele>1690</ele><speed>7.34</speed><time>2016-07-01T15:34:05Z</time><pdop>9.0</pdop><geoidheight>53.00</geoidheight><course>226.7</course><type>1</type></trkpt>
      <trkpt lat="40.60300997" lon="-4.86672954"><ele>1704</ele><speed>5.55</speed><time>2016-07-01T15:34:13Z</time><pdop>11.0</pdop><geoidheight>53.00</geoidheight><course>65.4</course><type>1</type></trkpt>
      <trkpt lat="40.60308978" lon="-4.86642725"><ele>1709</ele><speed>9.59</speed><time>2016-07-01T15:34:15Z</time><pdop>11.0</pdop><geoidheight>53.00</geoidheight><course>92.4</course><type>1</type></trkpt>
      <trkpt lat="40.60309288" lon="-4.86609194"><ele>1713</ele><speed>12.10</speed><time>2016-07-01T15:34:17Z</time><pdop>13.0</pdop><geoidheight>53.00</geoidheight><course>98.7</course><type>1</type></trkpt>
      <trkpt lat="40.60289986" lon="-4.86591421"><ele>1719</ele><speed>11.90</speed><time>2016-07-01T15:34:19Z</time><pdop>12.0</pdop><geoidheight>53.00</geoidheight><course>132.0</course><type>1</type></trkpt>
      <trkpt lat="40.60267939" lon="-4.86582803"><ele>1722</ele><speed>10.45</speed><time>2016-07-01T15:34:21Z</time><pdop>12.0</pdop><geoidheight>53.00</geoidheight><course>153.1</course><type>1</type></trkpt>
      <trkpt lat="40.60246251" lon="-4.86591835"><ele>1725</ele><speed>10.29</speed><time>2016-07-01T15:34:23Z</time><pdop>13.0</pdop><geoidheight>53.00</geoidheight><course>177.7</course><type>1</type></trkpt>
      <trkpt lat="40.60237957" lon="-4.86634332"><ele>1728</ele><speed>10.02</speed><time>2016-07-01T15:34:26Z</time><pdop>13.0</pdop><geoidheight>53.00</geoidheight><course>242.6</course><type>1</type></trkpt>
      <trkpt lat="40.60259297" lon="-4.86624559"><ele>1739</ele><speed>3.11</speed><time>2016-07-01T15:34:30Z</time><pdop>11.0</pdop><geoidheight>53.00</geoidheight><course>54.8</course><type>1</type></trkpt>
      <trkpt lat="40.60269129" lon="-4.86588389"><ele>1745</ele><speed>8.39</speed><time>2016-07-01T15:34:33Z</time><pdop>13.0</pdop><geoidheight>53.00</geoidheight><course>102.6</course><type>1</type></trkpt>
      <trkpt lat="40.60264931" lon="-4.86556727"><ele>1749</ele><speed>10.86</speed><time>2016-07-01T15:34:35Z</time><pdop>13.0</pdop><geoidheight>53.00</geoidheight><course>117.4</course><type>1</type></trkpt>
      <trkpt lat="40.6024662" lon="-4.86527081"><ele>1754</ele><speed>9.23</speed><time>2016-07-01T15:34:38Z</time><pdop>13.0</pdop><geoidheight>53.00</geoidheight><course>136.1</course><type>1</type></trkpt>
      <trkpt lat="40.60216178" lon="-4.8653239"><ele>1763</ele><speed>7.90</speed><time>2016-07-01T15:34:42Z</time><pdop>18.0</pdop><geoidheight>53.00</geoidheight><course>179.5</course><type>1</type></trkpt>
      <trkpt lat="40.6022749" lon="-4.86571552"><ele>1775</ele><speed>5.40</speed><time>2016-07-01T15:34:46Z</time><pdop>12.0</pdop><geoidheight>53.00</geoidheight><course>294.4</course><type>1</type></trkpt>
      <trkpt lat="40.60250166" lon="-4.86571671"><ele>1788</ele><speed>3.94</speed><time>2016-07-01T15:34:52Z</time><pdop>10.0</pdop><geoidheight>53.00</geoidheight><course>42.4</course><type>1</type></trkpt>
      <trkpt lat="40.60249401" lon="-4.86543426"><ele>1792</ele><speed>7.62</speed><time>2016-07-01T15:34:54Z</time><pdop>11.0</pdop><geoidheight>53.00</geoidheight><course>92.7</course><type>1</type></trkpt>
      <trkpt lat="40.60247912" lon="-4.86512353"><ele>1797</ele><speed>14.21</speed><time>2016-07-01T15:34:55Z</time><pdop>7.0</pdop><geoidheight>53.00</geoidheight><course>101.4</course><type>1</type></trkpt>
      <trkpt lat="40.60245852" lon="-4.86492788"><ele>1802</ele><speed>14.57</speed><time>2016-07-01T15:34:56Z</time><pdop>6.0</pdop><geoidheight>53.00</geoidheight><course>108.2</course><type>1</type></trkpt>
      <trkpt lat="40.60240994" lon="-4.86475742"><ele>1807</ele><speed>14.97</speed><time>2016-07-01T15:34:57Z</time><pdop>5.0</pdop><geoidheight>53.00</geoidheight><course>115.2</course><type>1</type></trkpt>
      <trkpt lat="40.60235013" lon="-4.8646055"><ele>1811</ele><speed>15.01</speed><time>2016-07-01T15:34:58Z</time><pdop>5.0</pdop><geoidheight>53.00</geoidheight><course>123.9</course><type>1</type></trkpt>
      <trkpt lat="40.60226754" lon="-4.86445516"><ele>1812</ele><speed>15.48</speed><time>2016-07-01T15:34:59Z</time><pdop>5.0</pdop><geoidheight>53.00</geoidheight><course>129.4</course><type>1</type></trkpt>
      <trkpt lat="40.60218649" lon="-4.86436433"><ele>1816</ele><speed>14.05</speed><time>2016-07-01T15:35:00Z</time><pdop>4.0</pdop><geoidheight>53.00</geoidheight><course>139.5</course><type>1</type></trkpt>
      <trkpt lat="40.60208085" lon="-4.86429414"><ele>1818</ele><speed>13.84</speed><time>2016-07-01T15:35:01Z</time><pdop>4.0</pdop><geoidheight>53.00</geoidheight><course>147.1</course><type>1</type></trkpt>
      <trkpt lat="40.60197254" lon="-4.86419735"><ele>1820</ele><speed>14.10</speed><time>2016-07-01T15:35:02Z</time><pdop>4.0</pdop><geoidheight>53.00</geoidheight><course>146.8</course><type>1</type></trkpt>
      <trkpt lat="40.60188724" lon="-4.86412222"><ele>1821</ele><speed>13.29</speed><time>2016-07-01T15:35:03Z</time><pdop>6.0</pdop><geoidheight>53.00</geoidheight><course>147.0</course><type>1</type></trkpt>
      <trkpt lat="40.601674" lon="-4.86407739"><ele>1825</ele><speed>12.57</speed><time>2016-07-01T15:35:05Z</time><pdop>9.0</pdop><geoidheight>53.00</geoidheight><course>162.5</course><type>1</type></trkpt>
      <trkpt lat="40.60152222" lon="-4.86421288"><ele>1827</ele><speed>10.00</speed><time>2016-07-01T15:35:07Z</time><pdop>10.0</pdop><geoidheight>53.00</geoidheight><course>189.2</course><type>1</type></trkpt>
      <trkpt lat="40.60135557" lon="-4.86449835"><ele>1833</ele><speed>10.14</speed><time>2016-07-01T15:35:10Z</time><pdop>13.0</pdop><geoidheight>53.00</geoidheight><course>232.4</course><type>1</type></trkpt>
      <trkpt lat="40.60144508" lon="-4.86472551"><ele>1848</ele><speed>4.03</speed><time>2016-07-01T15:35:14Z</time><pdop>7.0</pdop><geoidheight>53.00</geoidheight><course>323.5</course><type>1</type></trkpt>
      <trkpt lat="40.60159857" lon="-4.86459778"><ele>1852</ele><speed>8.66</speed><time>2016-07-01T15:35:17Z</time><pdop>7.0</pdop><geoidheight>53.00</geoidheight><course>51.5</course><type>1</type></trkpt>
      <trkpt lat="40.60166116" lon="-4.86432756"><ele>1858</ele><speed>13.04</speed><time>2016-07-01T15:35:19Z</time><pdop>5.0</pdop><geoidheight>53.00</geoidheight><course>88.0</course><type>1</type></trkpt>
      <trkpt lat="40.60164428" lon="-4.86415383"><ele>1861</ele><speed>14.76</speed><time>2016-07-01T15:35:20Z</time><pdop>5.0</pdop><geoidheight>53.00</geoidheight><course>101.3</course><type>1</type></trkpt>
      <trkpt lat="40.60159787" lon="-4.86398199"><ele>1862</ele><speed>15.06</speed><time>2016-07-01T15:35:21Z</time><pdop>5.0</pdop><geoidheight>53.00</geoidheight><course>105.8</course><type>1</type></trkpt>
      <trkpt lat="40.60151518" lon="-4.86385121"><ele>1865</ele><speed>14.85</speed><time>2016-07-01T15:35:22Z</time><pdop>4.0</pdop><geoidheight>53.00</geoidheight><course>122.7</course><type>1</type></trkpt>
      <trkpt lat="40.6014368" lon="-4.86374418"><ele>1869</ele><speed>14.51</speed><time>2016-07-01T15:35:23Z</time><pdop>4.0</pdop><geoidheight>53.00</geoidheight><course>134.2</course><type>1</type></trkpt>
      <trkpt lat="40.60134117" lon="-4.86363689"><ele>1869</ele><speed>14.40</speed><time>2016-07-01T15:35:24Z</time><pdop>4.0</pdop><geoidheight>53.00</geoidheight><course>137.9</course><type>1</type></trkpt>
      <trkpt lat="40.60118314" lon="-4.8634682"><ele>1870</ele><speed>12.84</speed><time>2016-07-01T15:35:26Z</time><pdop>7.0</pdop><geoidheight>53.00</geoidheight><course>142.4</course><type>1</type></trkpt>
      <trkpt lat="40.60096072" lon="-4.863438"><ele>1871</ele><speed>12.73</speed><time>2016-07-01T15:35:28Z</time><pdop>12.0</pdop><geoidheight>53.00</geoidheight><course>165.1</course><type>1</type></trkpt>
      <trkpt lat="40.60074564" lon="-4.8636719"><ele>1874</ele><speed>11.63</speed><time>2016-07-01T15:35:30Z</time><pdop>10.0</pdop><geoidheight>53.00</geoidheight><course>198.5</course><type>1</type></trkpt>
      <trkpt lat="40.60059101" lon="-4.86391196"><ele>1877</ele><speed>11.48</speed><time>2016-07-01T15:35:32Z</time><pdop>9.0</pdop><geoidheight>53.00</geoidheight><course>223.0</course><type>1</type></trkpt>
      <trkpt lat="40.60062947" lon="-4.86417558"><ele>1883</ele><speed>5.14</speed><time>2016-07-01T15:35:37Z</time><pdop>12.0</pdop><geoidheight>53.00</geoidheight><course>273.1</course><type>1</type></trkpt>
      <trkpt lat="40.60079139" lon="-4.86384992"><ele>1886</ele><speed>8.39</speed><time>2016-07-01T15:35:39Z</time><pdop>9.0</pdop><geoidheight>53.00</geoidheight><course>62.2</course><type>1</type></trkpt>
      <trkpt lat="40.60079474" lon="-4.86353755"><ele>1890</ele><speed>10.36</speed><time>2016-07-01T15:35:42Z</time><pdop>9.0</pdop><geoidheight>53.00</geoidheight><course>93.6</course><type>1</type></trkpt>
      <trkpt lat="40.60065424" lon="-4.86321412"><ele>1894</ele><speed>14.96</speed><time>2016-07-01T15:35:44Z</time><pdop>6.0</pdop><geoidheight>53.00</geoidheight><course>126.3</course><type>1</type></trkpt>
      <trkpt lat="40.60057751" lon="-4.86307913"><ele>1896</ele><speed>15.05</speed><time>2016-07-01T15:35:45Z</time><pdop>6.0</pdop><geoidheight>53.00</geoidheight><course>128.7</course><type>1</type></trkpt>
      <trkpt lat="40.60046692" lon="-4.8629266"><ele>1896</ele><speed>16.31</speed><time>2016-07-01T15:35:46Z</time><pdop>7.0</pdop><geoidheight>53.00</geoidheight><course>132.9</course><type>1</type></trkpt>
      <trkpt lat="40.60033298" lon="-4.86283449"><ele>1898</ele><speed>16.99</speed><time>2016-07-01T15:35:47Z</time><pdop>7.0</pdop><geoidheight>53.00</geoidheight><course>143.6</course><type>1</type></trkpt>
      <trkpt lat="40.60021183" lon="-4.86270631"><ele>1900</ele><speed>16.84</speed><time>2016-07-01T15:35:48Z</time><pdop>8.0</pdop><geoidheight>53.00</geoidheight><course>143.3</course><type>1</type></trkpt>
      <trkpt lat="40.60007679" lon="-4.86261148"><ele>1902</ele><speed>16.25</speed><time>2016-07-01T15:35:49Z</time><pdop>9.0</pdop><geoidheight>53.00</geoidheight><course>146.8</course><type>1</type></trkpt>
      <trkpt lat="40.59988947" lon="-4.86259718"><ele>1902</ele><speed>12.99</speed><time>2016-07-01T15:35:51Z</time><pdop>11.0</pdop><geoidheight>53.00</geoidheight><course>157.3</course><type>1</type></trkpt>
      <trkpt lat="40.5997041" lon="-4.86288487"><ele>1907</ele><speed>8.88</speed><time>2016-07-01T15:35:54Z</time><pdop>11.0</pdop><geoidheight>53.00</geoidheight><course>210.4</course><type>1</type></trkpt>
      <trkpt lat="40.5997005" lon="-4.86318777"><ele>1908</ele><speed>7.12</speed><time>2016-07-01T15:35:57Z</time><pdop>11.0</pdop><geoidheight>53.00</geoidheight><course>251.0</course><type>1</type></trkpt>
      <trkpt lat="40.59993083" lon="-4.8630255"><ele>1912</ele><speed>9.58</speed><time>2016-07-01T15:36:02Z</time><pdop>10.0</pdop><geoidheight>53.00</geoidheight><course>55.0</course><type>1</type></trkpt>
      <trkpt lat="40.59999479" lon="-4.86274331"><ele>1915</ele><speed>12.38</speed><time>2016-07-01T15:36:04Z</time><pdop>5.0</pdop><geoidheight>53.00</geoidheight><course>76.4</course><type>1</type></trkpt>
      <trkpt lat="40.59999286" lon="-4.8625613"><ele>1916</ele><speed>14.46</speed><time>2016-07-01T15:36:05Z</time><pdop>5.0</pdop><geoidheight>53.00</geoidheight><course>86.2</course><type>1</type></trkpt>
      <trkpt lat="40.59995282" lon="-4.86239051"><ele>1917</ele><speed>14.87</speed><time>2016-07-01T15:36:06Z</time><pdop>6.0</pdop><geoidheight>53.00</geoidheight><course>93.7</course><type>1</type></trkpt>
      <trkpt lat="40.59991677" lon="-4.86220845"><ele>1917</ele><speed>15.34</speed><time>2016-07-01T15:36:07Z</time><pdop>7.0</pdop><geoidheight>53.00</geoidheight><course>99.1</course><type>1</type></trkpt>
      <trkpt lat="40.59973414" lon="-4.8621322"><ele>1919</ele><speed>14.83</speed><time>2016-07-01T15:36:08Z</time><pdop>5.0</pdop><geoidheight>53.00</geoidheight><course>130.5</course><type>1</type></trkpt>
      <trkpt lat="40.59962429" lon="-4.86201968"><ele>1920</ele><speed>14.90</speed><time>2016-07-01T15:36:09Z</time><pdop>5.0</pdop><geoidheight>53.00</geoidheight><course>137.6</course><type>1</type></trkpt>
      <trkpt lat="40.59950666" lon="-4.86191237"><ele>1921</ele><speed>15.54</speed><time>2016-07-01T15:36:10Z</time><pdop>5.0</pdop><geoidheight>53.00</geoidheight><course>144.6</course><type>1</type></trkpt>
      <trkpt lat="40.5993988" lon="-4.86181792"><ele>1921</ele><speed>15.75</speed><time>2016-07-01T15:36:11Z</time><pdop>5.0</pdop><geoidheight>53.00</geoidheight><course>144.8</course><type>1</type></trkpt>
      <trkpt lat="40.59924566" lon="-4.86174333"><ele>1922</ele><speed>16.48</speed><time>2016-07-01T15:36:12Z</time><pdop>5.0</pdop><geoidheight>53.00</geoidheight><course>153.0</course><type>1</type></trkpt>
      <trkpt lat="40.59911221" lon="-4.86169115"><ele>1923</ele><speed>15.83</speed><time>2016-07-01T15:36:13Z</time><pdop>5.0</pdop><geoidheight>53.00</geoidheight><course>159.1</course><type>1</type></trkpt>
      <trkpt lat="40.59898918" lon="-4.8616162"><ele>1923</ele><speed>15.43</speed><time>2016-07-01T15:36:14Z</time><pdop>6.0</pdop><geoidheight>53.00</geoidheight><course>158.8</course><type>1</type></trkpt>
      <trkpt lat="40.59887396" lon="-4.86155207"><ele>1923</ele><speed>14.85</speed><time>2016-07-01T15:36:15Z</time><pdop>7.0</pdop><geoidheight>53.00</geoidheight><course>158.3</course><type>1</type></trkpt>
      <trkpt lat="40.59864688" lon="-4.86166205"><ele>1925</ele><speed>12.80</speed><time>2016-07-01T15:36:17Z</time><pdop>10.0</pdop><geoidheight>53.00</geoidheight><course>179.9</course><type>1</type></trkpt>
      <trkpt lat="40.59854456" lon="-4.86188551"><ele>1930</ele><speed>10.10</speed><time>2016-07-01T15:36:19Z</time><pdop>9.0</pdop><geoidheight>53.00</geoidheight><course>208.7</course><type>1</type></trkpt>
      <trkpt lat="40.59840167" lon="-4.86203801"><ele>1935</ele><speed>7.34</speed><time>2016-07-01T15:36:23Z</time><pdop>8.0</pdop><geoidheight>54.00</geoidheight><course>217.2</course><type>1</type></trkpt>
      <trkpt lat="40.59827612" lon="-4.86221036"><ele>1935</ele><speed>8.13</speed><time>2016-07-01T15:36:25Z</time><pdop>10.0</pdop><geoidheight>54.00</geoidheight><course>221.9</course><type>1</type></trkpt>
      <trkpt lat="40.59836279" lon="-4.86186402"><ele>1939</ele><speed>8.29</speed><time>2016-07-01T15:36:32Z</time><pdop>9.0</pdop><geoidheight>54.00</geoidheight><course>90.9</course><type>1</type></trkpt>
      <trkpt lat="40.5983143" lon="-4.86152569"><ele>1941</ele><speed>12.46</speed><time>2016-07-01T15:36:34Z</time><pdop>7.0</pdop><geoidheight>54.00</geoidheight><course>103.1</course><type>1</type></trkpt>
      <trkpt lat="40.59821639" lon="-4.86135408"><ele>1941</ele><speed>14.13</speed><time>2016-07-01T15:36:35Z</time><pdop>7.0</pdop><geoidheight>54.00</geoidheight><course>117.3</course><type>1</type></trkpt>
      <trkpt lat="40.59813459" lon="-4.86117775"><ele>1941</ele><speed>15.05</speed><time>2016-07-01T15:36:36Z</time><pdop>7.0</pdop><geoidheight>54.00</geoidheight><course>118.6</course><type>1</type></trkpt>
      <trkpt lat="40.59805252" lon="-4.8610191"><ele>1942</ele><speed>15.11</speed><time>2016-07-01T15:36:37Z</time><pdop>9.0</pdop><geoidheight>54.00</geoidheight><course>120.4</course><type>1</type></trkpt>
      <trkpt lat="40.59794167" lon="-4.86084901"><ele>1943</ele><speed>15.65</speed><time>2016-07-01T15:36:38Z</time><pdop>8.0</pdop><geoidheight>54.00</geoidheight><course>124.6</course><type>1</type></trkpt>
      <trkpt lat="40.59769394" lon="-4.86087031"><ele>1944</ele><speed>12.07</speed><time>2016-07-01T15:36:40Z</time><pdop>9.0</pdop><geoidheight>54.00</geoidheight><course>151.3</course><type>1</type></trkpt>
      <trkpt lat="40.59740434" lon="-4.86112598"><ele>1946</ele><speed>12.22</speed><time>2016-07-01T15:36:42Z</time><pdop>10.0</pdop><geoidheight>54.00</geoidheight><course>195.2</course><type>1</type></trkpt>
      <trkpt lat="40.59732978" lon="-4.86134114"><ele>1948</ele><speed>9.30</speed><time>2016-07-01T15:36:44Z</time><pdop>9.0</pdop><geoidheight>54.00</geoidheight><course>225.1</course><type>1</type></trkpt>
      <trkpt lat="40.59736052" lon="-4.86104762"><ele>1961</ele><speed>11.83</speed><time>2016-07-01T15:36:51Z</time><pdop>10.0</pdop><geoidheight>54.00</geoidheight><course>84.2</course><type>1</type></trkpt>
      <trkpt lat="40.59736071" lon="-4.86070512"><ele>1963</ele><speed>15.11</speed><time>2016-07-01T15:36:53Z</time><pdop>7.0</pdop><geoidheight>54.00</geoidheight><course>96.8</course><type>1</type></trkpt>
      <trkpt lat="40.597342" lon="-4.86052319"><ele>1965</ele><speed>16.27</speed><time>2016-07-01T15:36:54Z</time><pdop>6.0</pdop><geoidheight>54.00</geoidheight><course>102.9</course><type>1</type></trkpt>
      <trkpt lat="40.59731405" lon="-4.86033007"><ele>1968</ele><speed>17.07</speed><time>2016-07-01T15:36:55Z</time><pdop>6.0</pdop><geoidheight>54.00</geoidheight><course>106.6</course><type>1</type></trkpt>
      <trkpt lat="40.59723466" lon="-4.86014855"><ele>1969</ele><speed>17.16</speed><time>2016-07-01T15:36:56Z</time><pdop>5.0</pdop><geoidheight>54.00</geoidheight><course>113.6</course><type>1</type></trkpt>
      <trkpt lat="40.59715868" lon="-4.85996376"><ele>1971</ele><speed>18.27</speed><time>2016-07-01T15:36:57Z</time><pdop>5.0</pdop><geoidheight>54.00</geoidheight><course>122.2</course><type>1</type></trkpt>
      <trkpt lat="40.5970602" lon="-4.85978607"><ele>1973</ele><speed>19.26</speed><time>2016-07-01T15:36:58Z</time><pdop>5.0</pdop><geoidheight>54.00</geoidheight><course>128.2</course><type>1</type></trkpt>
      <trkpt lat="40.59694724" lon="-4.85962545"><ele>1976</ele><speed>19.33</speed><time>2016-07-01T15:36:59Z</time><pdop>5.0</pdop><geoidheight>54.00</geoidheight><course>132.9</course><type>1</type></trkpt>
      <trkpt lat="40.5968281" lon="-4.85953265"><ele>1979</ele><speed>17.77</speed><time>2016-07-01T15:37:00Z</time><pdop>4.0</pdop><geoidheight>54.00</geoidheight><course>141.2</course><type>1</type></trkpt>
      <trkpt lat="40.59669838" lon="-4.85943528"><ele>1980</ele><speed>17.48</speed><time>2016-07-01T15:37:01Z</time><pdop>4.0</pdop><geoidheight>54.00</geoidheight><course>146.6</course><type>1</type></trkpt>
      <trkpt lat="40.59656367" lon="-4.85934124"><ele>1980</ele><speed>17.45</speed><time>2016-07-01T15:37:02Z</time><pdop>5.0</pdop><geoidheight>54.00</geoidheight><course>148.9</course><type>1</type></trkpt>
      <trkpt lat="40.59644357" lon="-4.8592513"><ele>1981</ele><speed>16.68</speed><time>2016-07-01T15:37:03Z</time><pdop>6.0</pdop><geoidheight>54.00</geoidheight><course>151.1</course><type>1</type></trkpt>
      <trkpt lat="40.59632394" lon="-4.85930301"><ele>1982</ele><speed>14.80</speed><time>2016-07-01T15:37:04Z</time><pdop>7.0</pdop><geoidheight>54.00</geoidheight><course>166.6</course><type>1</type></trkpt>
      <trkpt lat="40.59608573" lon="-4.85934569"><ele>1982</ele><speed>13.23</speed><time>2016-07-01T15:37:06Z</time><pdop>8.0</pdop><geoidheight>54.00</geoidheight><course>179.9</course><type>1</type></trkpt>
      <trkpt lat="40.5960538" lon="-4.85958577"><ele>1981</ele><speed>7.70</speed><time>2016-07-01T15:37:08Z</time><pdop>7.0</pdop><geoidheight>54.00</geoidheight><course>220.6</course><type>1</type></trkpt>
      <trkpt lat="40.59614675" lon="-4.85937858"><ele>1985</ele><speed>6.64</speed><time>2016-07-01T15:37:13Z</time><pdop>5.0</pdop><geoidheight>54.00</geoidheight><course>66.7</course><type>1</type></trkpt>
      <trkpt lat="40.59623133" lon="-4.8592087"><ele>1990</ele><speed>8.69</speed><time>2016-07-01T15:37:15Z</time><pdop>4.0</pdop><geoidheight>54.00</geoidheight><course>58.5</course><type>1</type></trkpt>
      <trkpt lat="40.59627564" lon="-4.85911305"><ele>1992</ele><speed>9.59</speed><time>2016-07-01T15:37:16Z</time><pdop>4.0</pdop><geoidheight>54.00</geoidheight><course>59.2</course><type>1</type></trkpt>
      <trkpt lat="40.59631825" lon="-4.85902262"><ele>1994</ele><speed>8.35</speed><time>2016-07-01T15:37:17Z</time><pdop>4.0</pdop><geoidheight>54.00</geoidheight><course>62.0</course><type>1</type></trkpt>
      <trkpt lat="40.59637786" lon="-4.85888584"><ele>1996</ele><speed>6.31</speed><time>2016-07-01T15:37:19Z</time><pdop>5.0</pdop><geoidheight>54.00</geoidheight><course>59.0</course><type>1</type></trkpt>
      <trkpt lat="40.59628339" lon="-4.8590168"><ele>1997</ele><speed>4.31</speed><time>2016-07-01T15:37:26Z</time><pdop>10.0</pdop><geoidheight>54.00</geoidheight><course>208.3</course><type>1</type></trkpt>
      <trkpt lat="40.59600666" lon="-4.85900905"><ele>1997</ele><speed>9.76</speed><time>2016-07-01T15:37:28Z</time><pdop>9.0</pdop><geoidheight>54.00</geoidheight><course>179.1</course><type>1</type></trkpt>
      <trkpt lat="40.59578571" lon="-4.85899064"><ele>1996</ele><speed>13.91</speed><time>2016-07-01T15:37:29Z</time><pdop>8.0</pdop><geoidheight>54.00</geoidheight><course>174.5</course><type>1</type></trkpt>
      <trkpt lat="40.59549018" lon="-4.85885261"><ele>1996</ele><speed>15.67</speed><time>2016-07-01T15:37:31Z</time><pdop>11.0</pdop><geoidheight>54.00</geoidheight><course>163.8</course><type>1</type></trkpt>
      <trkpt lat="40.59536895" lon="-4.8586217"><ele>1997</ele><speed>16.59</speed><time>2016-07-01T15:37:32Z</time><pdop>11.0</pdop><geoidheight>54.00</geoidheight><course>149.1</course><type>1</type></trkpt>
      <trkpt lat="40.59522693" lon="-4.85834363"><ele>1998</ele><speed>19.58</speed><time>2016-07-01T15:37:33Z</time><pdop>8.0</pdop><geoidheight>54.00</geoidheight><course>137.2</course><type>1</type></trkpt>
      <trkpt lat="40.59508043" lon="-4.85818461"><ele>1999</ele><speed>19.65</speed><time>2016-07-01T15:37:34Z</time><pdop>8.0</pdop><geoidheight>54.00</geoidheight><course>133.7</course><type>1</type></trkpt>
      <trkpt lat="40.59499506" lon="-4.8579635"><ele>2002</ele><speed>19.80</speed><time>2016-07-01T15:37:35Z</time><pdop>7.0</pdop><geoidheight>54.00</geoidheight><course>128.6</course><type>1</type></trkpt>
      <trkpt lat="40.59488965" lon="-4.85777496"><ele>2002</ele><speed>19.68</speed><time>2016-07-01T15:37:36Z</time><pdop>6.0</pdop><geoidheight>54.00</geoidheight><course>127.4</course><type>1</type></trkpt>
      <trkpt lat="40.59481559" lon="-4.85758409"><ele>2001</ele><speed>18.46</speed><time>2016-07-01T15:37:37Z</time><pdop>6.0</pdop><geoidheight>54.00</geoidheight><course>123.4</course><type>1</type></trkpt>
      <trkpt lat="40.5947516" lon="-4.85740886"><ele>2006</ele><speed>17.59</speed><time>2016-07-01T15:37:38Z</time><pdop>6.0</pdop><geoidheight>54.00</geoidheight><course>121.9</course><type>1</type></trkpt>
      <trkpt lat="40.59468682" lon="-4.85719893"><ele>2006</ele><speed>17.95</speed><time>2016-07-01T15:37:39Z</time><pdop>8.0</pdop><geoidheight>54.00</geoidheight><course>118.4</course><type>1</type></trkpt>
      <trkpt lat="40.59464767" lon="-4.85688802"><ele>2006</ele><speed>14.14</speed><time>2016-07-01T15:37:41Z</time><pdop>10.0</pdop><geoidheight>54.00</geoidheight><course>112.5</course><type>1</type></trkpt>
      <trkpt lat="40.59479953" lon="-4.8567344"><ele>2006</ele><speed>6.73</speed><time>2016-07-01T15:37:43Z</time><pdop>11.0</pdop><geoidheight>54.00</geoidheight><course>86.2</course><type>1</type></trkpt>
      <trkpt lat="40.59477978" lon="-4.85700825"><ele>2011</ele><speed>5.14</speed><time>2016-07-01T15:37:50Z</time><pdop>12.0</pdop><geoidheight>54.00</geoidheight><course>215.7</course><type>1</type></trkpt>
      <trkpt lat="40.59426427" lon="-4.85690852"><ele>2012</ele><speed>16.53</speed><time>2016-07-01T15:37:53Z</time><pdop>9.0</pdop><geoidheight>54.00</geoidheight><course>165.1</course><type>1</type></trkpt>
      <trkpt lat="40.59405549" lon="-4.85690486"><ele>2012</ele><speed>17.51</speed><time>2016-07-01T15:37:54Z</time><pdop>9.0</pdop><geoidheight>54.00</geoidheight><course>166.7</course><type>1</type></trkpt>
      <trkpt lat="40.5937531" lon="-4.85675762"><ele>2012</ele><speed>16.09</speed><time>2016-07-01T15:37:56Z</time><pdop>10.0</pdop><geoidheight>54.00</geoidheight><course>153.3</course><type>1</type></trkpt>
      <trkpt lat="40.59350771" lon="-4.85648935"><ele>2015</ele><speed>16.38</speed><time>2016-07-01T15:37:58Z</time><pdop>11.0</pdop><geoidheight>54.00</geoidheight><course>139.4</course><type>1</type></trkpt>
      <trkpt lat="40.59330245" lon="-4.85616309"><ele>2016</ele><speed>16.49</speed><time>2016-07-01T15:38:00Z</time><pdop>10.0</pdop><geoidheight>54.00</geoidheight><course>130.0</course><type>1</type></trkpt>
      <trkpt lat="40.5931253" lon="-4.85589658"><ele>2017</ele><speed>14.80</speed><time>2016-07-01T15:38:02Z</time><pdop>10.0</pdop><geoidheight>54.00</geoidheight><course>129.7</course><type>1</type></trkpt>
      <trkpt lat="40.59297971" lon="-4.855617"><ele>2017</ele><speed>13.81</speed><time>2016-07-01T15:38:04Z</time><pdop>10.0</pdop><geoidheight>54.00</geoidheight><course>123.2</course><type>1</type></trkpt>
      <trkpt lat="40.59288781" lon="-4.85528472"><ele>2018</ele><speed>14.10</speed><time>2016-07-01T15:38:06Z</time><pdop>11.0</pdop><geoidheight>54.00</geoidheight><course>110.5</course><type>1</type></trkpt>
      <trkpt lat="40.59296701" lon="-4.85488189"><ele>2017</ele><speed>14.90</speed><time>2016-07-01T15:38:08Z</time><pdop>10.0</pdop><geoidheight>54.00</geoidheight><course>82.2</course><type>1</type></trkpt>
      <trkpt lat="40.59304405" lon="-4.85457022"><ele>2015</ele><speed>13.13</speed><time>2016-07-01T15:38:10Z</time><pdop>11.0</pdop><geoidheight>54.00</geoidheight><course>75.1</course><type>1</type></trkpt>
      <trkpt lat="40.59320372" lon="-4.85425846"><ele>2018</ele><speed>10.42</speed><time>2016-07-01T15:38:13Z</time><pdop>10.0</pdop><geoidheight>54.00</geoidheight><course>61.4</course><type>1</type></trkpt>
      <trkpt lat="40.59329276" lon="-4.85402865"><ele>2016</ele><speed>10.78</speed><time>2016-07-01T15:38:15Z</time><pdop>10.0</pdop><geoidheight>54.00</geoidheight><course>63.3</course><type>1</type></trkpt>
      <trkpt lat="40.59338841" lon="-4.85379279"><ele>2012</ele><speed>11.49</speed><time>2016-07-01T15:38:17Z</time><pdop>10.0</pdop><geoidheight>54.00</geoidheight><course>53.3</course><type>1</type></trkpt>
      <trkpt lat="40.59355597" lon="-4.85365924"><ele>2009</ele><speed>10.25</speed><time>2016-07-01T15:38:19Z</time><pdop>10.0</pdop><geoidheight>54.00</geoidheight><course>24.7</course><type>1</type></trkpt>
      <trkpt lat="40.59379234" lon="-4.85369005"><ele>2006</ele><speed>6.48</speed><time>2016-07-01T15:38:23Z</time><pdop>11.0</pdop><geoidheight>54.00</geoidheight><course>346.9</course><type>1</type></trkpt>
      <trkpt lat="40.59382734" lon="-4.8539685"><ele>2006</ele><speed>5.39</speed><time>2016-07-01T15:38:27Z</time><pdop>12.0</pdop><geoidheight>54.00</geoidheight><course>286.8</course><type>1</type></trkpt>
      <trkpt lat="40.59358244" lon="-4.85413878"><ele>2003</ele><speed>7.86</speed><time>2016-07-01T15:38:29Z</time><pdop>11.0</pdop><geoidheight>54.00</geoidheight><course>217.1</course><type>1</type></trkpt>
      <trkpt lat="40.59326646" lon="-4.8543041"><ele>2001</ele><speed>14.39</speed><time>2016-07-01T15:38:32Z</time><pdop>11.0</pdop><geoidheight>54.00</geoidheight><course>195.5</course><type>1</type></trkpt>
      <trkpt lat="40.59297052" lon="-4.8543514"><ele>1997</ele><speed>15.29</speed><time>2016-07-01T15:38:34Z</time><pdop>11.0</pdop><geoidheight>54.00</geoidheight><course>185.8</course><type>1</type></trkpt>
      <trkpt lat="40.59272432" lon="-4.85435205"><ele>1994</ele><speed>12.44</speed><time>2016-07-01T15:38:36Z</time><pdop>11.0</pdop><geoidheight>54.00</geoidheight><course>182.4</course><type>1</type></trkpt>
      <trkpt lat="40.59248585" lon="-4.85427025"><ele>1991</ele><speed>13.68</speed><time>2016-07-01T15:38:38Z</time><pdop>10.0</pdop><geoidheight>54.00</geoidheight><course>172.9</course><type>1</type></trkpt>
      <trkpt lat="40.59223461" lon="-4.85414512"><ele>1985</ele><speed>15.19</speed><time>2016-07-01T15:38:40Z</time><pdop>10.0</pdop><geoidheight>54.00</geoidheight><course>163.5</course><type>1</type></trkpt>
      <trkpt lat="40.59197497" lon="-4.8539584"><ele>1982</ele><speed>15.43</speed><time>2016-07-01T15:38:42Z</time><pdop>9.0</pdop><geoidheight>54.00</geoidheight><course>149.9</course><type>1</type></trkpt>
      <trkpt lat="40.5917684" lon="-4.8537358"><ele>1975</ele><speed>14.77</speed><time>2016-07-01T15:38:44Z</time><pdop>9.0</pdop><geoidheight>54.00</geoidheight><course>142.1</course><type>1</type></trkpt>
      <trkpt lat="40.5915672" lon="-4.85355453"><ele>1972</ele><speed>13.82</speed><time>2016-07-01T15:38:46Z</time><pdop>10.0</pdop><geoidheight>54.00</geoidheight><course>140.8</course><type>1</type></trkpt>
      <trkpt lat="40.59143085" lon="-4.85313017"><ele>1968</ele><speed>16.89</speed><time>2016-07-01T15:38:48Z</time><pdop>11.0</pdop><geoidheight>54.00</geoidheight><course>117.9</course><type>1</type></trkpt>
      <trkpt lat="40.59143912" lon="-4.85266073"><ele>1964</ele><speed>17.46</speed><time>2016-07-01T15:38:50Z</time><pdop>10.0</pdop><geoidheight>54.00</geoidheight><course>96.2</course><type>1</type></trkpt>
      <trkpt lat="40.59138586" lon="-4.85224923"><ele>1961</ele><speed>16.91</speed><time>2016-07-01T15:38:52Z</time><pdop>10.0</pdop><geoidheight>54.00</geoidheight><course>93.8</course><type>1</type></trkpt>
      <trkpt lat="40.59137182" lon="-4.85181043"><ele>1957</ele><speed>17.49</speed><time>2016-07-01T15:38:54Z</time><pdop>10.0</pdop><geoidheight>54.00</geoidheight><course>92.6</course><type>1</type></trkpt>
      <trkpt lat="40.59133644" lon="-4.85139546"><ele>1955</ele><speed>17.08</speed><time>2016-07-01T15:38:56Z</time><pdop>10.0</pdop><geoidheight>54.00</geoidheight><course>95.4</course><type>1</type></trkpt>
      <trkpt lat="40.59129672" lon="-4.8510045"><ele>1955</ele><speed>16.25</speed><time>2016-07-01T15:38:58Z</time><pdop>9.0</pdop><geoidheight>54.00</geoidheight><course>97.9</course><type>1</type></trkpt>
      <trkpt lat="40.59126392" lon="-4.85064247"><ele>1954</ele><speed>15.47</speed><time>2016-07-01T15:39:00Z</time><pdop>10.0</pdop><geoidheight>54.00</geoidheight><course>97.7</course><type>1</type></trkpt>
      <trkpt lat="40.59118414" lon="-4.85029683"><ele>1953</ele><speed>15.25</speed><time>2016-07-01T15:39:02Z</time><pdop>10.0</pdop><geoidheight>54.00</geoidheight><course>103.6</course><type>1</type></trkpt>
      <trkpt lat="40.59112516" lon="-4.84993309"><ele>1949</ele><speed>15.41</speed><time>2016-07-01T15:39:04Z</time><pdop>10.0</pdop><geoidheight>54.00</geoidheight><course>97.8</course><type>1</type></trkpt>
      <trkpt lat="40.5910855" lon="-4.84957254"><ele>1947</ele><speed>14.79</speed><time>2016-07-01T15:39:06Z</time><pdop>10.0</pdop><geoidheight>54.00</geoidheight><course>95.2</course><type>1</type></trkpt>
      <trkpt lat="40.59109464" lon="-4.84922255"><ele>1942</ele><speed>14.51</speed><time>2016-07-01T15:39:08Z</time><pdop>10.0</pdop><geoidheight>54.00</geoidheight><course>84.9</course><type>1</type></trkpt>
      <trkpt lat="40.59115072" lon="-4.84889129"><ele>1937</ele><speed>14.78</speed><time>2016-07-01T15:39:10Z</time><pdop>10.0</pdop><geoidheight>54.00</geoidheight><course>74.9</course><type>1</type></trkpt>
      <trkpt lat="40.59121214" lon="-4.84856447"><ele>1934</ele><speed>14.04</speed><time>2016-07-01T15:39:12Z</time><pdop>9.0</pdop><geoidheight>54.00</geoidheight><course>75.3</course><type>1</type></trkpt>
      <trkpt lat="40.59127962" lon="-4.84821449"><ele>1931</ele><speed>14.90</speed><time>2016-07-01T15:39:14Z</time><pdop>10.0</pdop><geoidheight>54.00</geoidheight><course>75.9</course><type>1</type></trkpt>
      <trkpt lat="40.59131836" lon="-4.84785902"><ele>1927</ele><speed>14.36</speed><time>2016-07-01T15:39:16Z</time><pdop>9.0</pdop><geoidheight>54.00</geoidheight><course>79.9</course><type>1</type></trkpt>
      <trkpt lat="40.59135624" lon="-4.84754679"><ele>1924</ele><speed>12.96</speed><time>2016-07-01T15:39:18Z</time><pdop>9.0</pdop><geoidheight>54.00</geoidheight><course>79.5</course><type>1</type></trkpt>
      <trkpt lat="40.59142724" lon="-4.84722639"><ele>1921</ele><speed>13.88</speed><time>2016-07-01T15:39:20Z</time><pdop>9.0</pdop><geoidheight>53.00</geoidheight><course>72.5</course><type>1</type></trkpt>
      <trkpt lat="40.5915398" lon="-4.84688922"><ele>1920</ele><speed>16.03</speed><time>2016-07-01T15:39:22Z</time><pdop>10.0</pdop><geoidheight>53.00</geoidheight><course>65.1</course><type>1</type></trkpt>
      <trkpt lat="40.59167131" lon="-4.84657326"><ele>1919</ele><speed>15.48</speed><time>2016-07-01T15:39:24Z</time><pdop>10.0</pdop><geoidheight>53.00</geoidheight><course>63.0</course><type>1</type></trkpt>
      <trkpt lat="40.59177555" lon="-4.84625307"><ele>1918</ele><speed>14.52</speed><time>2016-07-01T15:39:26Z</time><pdop>10.0</pdop><geoidheight>53.00</geoidheight><course>65.9</course><type>1</type></trkpt>
      <trkpt lat="40.59189211" lon="-4.84598154"><ele>1915</ele><speed>13.42</speed><time>2016-07-01T15:39:28Z</time><pdop>11.0</pdop><geoidheight>53.00</geoidheight><course>60.6</course><type>1</type></trkpt>
      <trkpt lat="40.59203509" lon="-4.84570731"><ele>1913</ele><speed>14.18</speed><time>2016-07-01T15:39:30Z</time><pdop>10.0</pdop><geoidheight>53.00</geoidheight><course>61.4</course><type>1</type></trkpt>
      <trkpt lat="40.59214289" lon="-4.84541415"><ele>1911</ele><speed>14.00</speed><time>2016-07-01T15:39:32Z</time><pdop>10.0</pdop><geoidheight>53.00</geoidheight><course>61.6</course><type>1</type></trkpt>
      <trkpt lat="40.5922537" lon="-4.84512111"><ele>1910</ele><speed>14.17</speed><time>2016-07-01T15:39:34Z</time><pdop>10.0</pdop><geoidheight>53.00</geoidheight><course>61.9</course><type>1</type></trkpt>
      <trkpt lat="40.59236611" lon="-4.84478059"><ele>1908</ele><speed>15.33</speed><time>2016-07-01T15:39:36Z</time><pdop>10.0</pdop><geoidheight>53.00</geoidheight><course>63.9</course><type>1</type></trkpt>
      <trkpt lat="40.59247107" lon="-4.8444274"><ele>1910</ele><speed>16.23</speed><time>2016-07-01T15:39:38Z</time><pdop>10.0</pdop><geoidheight>53.00</geoidheight><course>69.4</course><type>1</type></trkpt>
      <trkpt lat="40.59254455" lon="-4.84410686"><ele>1912</ele><speed>13.71</speed><time>2016-07-01T15:39:40Z</time><pdop>10.0</pdop><geoidheight>53.00</geoidheight><course>70.8</course><type>1</type></trkpt>
      <trkpt lat="40.59262488" lon="-4.84380741"><ele>1913</ele><speed>13.45</speed><time>2016-07-01T15:39:42Z</time><pdop>10.0</pdop><geoidheight>53.00</geoidheight><course>68.4</course><type>1</type></trkpt>
      <trkpt lat="40.59270559" lon="-4.84352382"><ele>1912</ele><speed>13.34</speed><time>2016-07-01T15:39:44Z</time><pdop>10.0</pdop><geoidheight>53.00</geoidheight><course>67.6</course><type>1</type></trkpt>
      <trkpt lat="40.5928185" lon="-4.8432856"><ele>1910</ele><speed>12.16</speed><time>2016-07-01T15:39:46Z</time><pdop>10.0</pdop><geoidheight>53.00</geoidheight><course>55.9</course><type>1</type></trkpt>
      <trkpt lat="40.59296587" lon="-4.84311219"><ele>1911</ele><speed>10.09</speed><time>2016-07-01T15:39:48Z</time><pdop>10.0</pdop><geoidheight>53.00</geoidheight><course>38.9</course><type>1</type></trkpt>
      <trkpt lat="40.59319187" lon="-4.84304028"><ele>1910</ele><speed>7.40</speed><time>2016-07-01T15:39:51Z</time><pdop>11.0</pdop><geoidheight>53.00</geoidheight><course>5.8</course><type>1</type></trkpt>
      <trkpt lat="40.59295889" lon="-4.84327014"><ele>1909</ele><speed>9.61</speed><time>2016-07-01T15:40:00Z</time><pdop>12.0</pdop><geoidheight>53.00</geoidheight><course>181.2</course><type>1</type></trkpt>
      <trkpt lat="40.59271175" lon="-4.84328736"><ele>1908</ele><speed>10.99</speed><time>2016-07-01T15:40:02Z</time><pdop>11.0</pdop><geoidheight>53.00</geoidheight><course>173.1</course><type>1</type></trkpt>
      <trkpt lat="40.59247663" lon="-4.84296748"><ele>1912</ele><speed>14.30</speed><time>2016-07-01T15:40:04Z</time><pdop>10.0</pdop><geoidheight>53.00</geoidheight><course>138.7</course><type>1</type></trkpt>
      <trkpt lat="40.59230082" lon="-4.84270992"><ele>1908</ele><speed>14.58</speed><time>2016-07-01T15:40:06Z</time><pdop>10.0</pdop><geoidheight>53.00</geoidheight><course>130.1</course><type>1</type></trkpt>
      <trkpt lat="40.59220565" lon="-4.84227963"><ele>1910</ele><speed>16.92</speed><time>2016-07-01T15:40:08Z</time><pdop>11.0</pdop><geoidheight>53.00</geoidheight><course>111.6</course><type>1</type></trkpt>
      <trkpt lat="40.59215703" lon="-4.8418603"><ele>1911</ele><speed>16.01</speed><time>2016-07-01T15:40:10Z</time><pdop>12.0</pdop><geoidheight>53.00</geoidheight><course>103.5</course><type>1</type></trkpt>
      <trkpt lat="40.59223213" lon="-4.84152105"><ele>1911</ele><speed>13.40</speed><time>2016-07-01T15:40:12Z</time><pdop>13.0</pdop><geoidheight>53.00</geoidheight><course>86.4</course><type>1</type></trkpt>
      <trkpt lat="40.592494" lon="-4.84134098"><ele>1913</ele><speed>11.94</speed><time>2016-07-01T15:40:14Z</time><pdop>12.0</pdop><geoidheight>53.00</geoidheight><course>48.9</course><type>1</type></trkpt>
      <trkpt lat="40.59268936" lon="-4.84119247"><ele>1910</ele><speed>9.88</speed><time>2016-07-01T15:40:16Z</time><pdop>11.0</pdop><geoidheight>53.00</geoidheight><course>33.4</course><type>1</type></trkpt>
      <trkpt lat="40.5929023" lon="-4.84113011"><ele>1906</ele><speed>6.65</speed><time>2016-07-01T15:40:19Z</time><pdop>11.0</pdop><geoidheight>53.00</geoidheight><course>359.1</course><type>1</type></trkpt>
      <trkpt lat="40.59272669" lon="-4.8413624"><ele>1906</ele><speed>9.36</speed><time>2016-07-01T15:40:26Z</time><pdop>12.0</pdop><geoidheight>53.00</geoidheight><course>184.9</course><type>1</type></trkpt>
      <trkpt lat="40.59245447" lon="-4.84133985"><ele>1909</ele><speed>13.14</speed><time>2016-07-01T15:40:28Z</time><pdop>11.0</pdop><geoidheight>53.00</geoidheight><course>161.6</course><type>1</type></trkpt>
      <trkpt lat="40.59226181" lon="-4.84113262"><ele>1910</ele><speed>14.81</speed><time>2016-07-01T15:40:30Z</time><pdop>10.0</pdop><geoidheight>53.00</geoidheight><course>143.3</course><type>1</type></trkpt>
      <trkpt lat="40.59205738" lon="-4.84088203"><ele>1912</ele><speed>15.20</speed><time>2016-07-01T15:40:32Z</time><pdop>9.0</pdop><geoidheight>53.00</geoidheight><course>132.7</course><type>1</type></trkpt>
      <trkpt lat="40.59189283" lon="-4.8405655"><ele>1915</ele><speed>15.93</speed><time>2016-07-01T15:40:34Z</time><pdop>9.0</pdop><geoidheight>53.00</geoidheight><course>122.1</course><type>1</type></trkpt>
      <trkpt lat="40.59174153" lon="-4.84023782"><ele>1913</ele><speed>16.07</speed><time>2016-07-01T15:40:36Z</time><pdop>9.0</pdop><geoidheight>53.00</geoidheight><course>121.3</course><type>1</type></trkpt>
      <trkpt lat="40.5915984" lon="-4.83992959"><ele>1913</ele><speed>15.51</speed><time>2016-07-01T15:40:38Z</time><pdop>10.0</pdop><geoidheight>53.00</geoidheight><course>121.2</course><type>1</type></trkpt>
      <trkpt lat="40.59144238" lon="-4.83965616"><ele>1913</ele><speed>14.64</speed><time>2016-07-01T15:40:40Z</time><pdop>10.0</pdop><geoidheight>53.00</geoidheight><course>128.3</course><type>1</type></trkpt>
      <trkpt lat="40.59125582" lon="-4.8393889"><ele>1914</ele><speed>14.86</speed><time>2016-07-01T15:40:42Z</time><pdop>12.0</pdop><geoidheight>53.00</geoidheight><course>133.5</course><type>1</type></trkpt>
      <trkpt lat="40.59105899" lon="-4.83957095"><ele>1913</ele><speed>6.71</speed><time>2016-07-01T15:40:45Z</time><pdop>10.0</pdop><geoidheight>53.00</geoidheight><course>201.8</course><type>1</type></trkpt>
      <trkpt lat="40.59105375" lon="-4.83983935"><ele>1913</ele><speed>3.85</speed><time>2016-07-01T15:40:51Z</time><pdop>11.0</pdop><geoidheight>53.00</geoidheight><course>288.2</course><type>1</type></trkpt>
      <trkpt lat="40.59128553" lon="-4.83995731"><ele>1914</ele><speed>6.66</speed><time>2016-07-01T15:40:55Z</time><pdop>12.0</pdop><geoidheight>53.00</geoidheight><course>345.6</course><type>1</type></trkpt>
      <trkpt lat="40.59149031" lon="-4.83974151"><ele>1915</ele><speed>10.35</speed><time>2016-07-01T15:40:57Z</time><pdop>11.0</pdop><geoidheight>53.00</geoidheight><course>32.9</course><type>1</type></trkpt>
      <trkpt lat="40.59167784" lon="-4.83954637"><ele>1915</ele><speed>12.55</speed><time>2016-07-01T15:40:59Z</time><pdop>11.0</pdop><geoidheight>53.00</geoidheight><course>41.0</course><type>1</type></trkpt>
      <trkpt lat="40.5918232" lon="-4.83925433"><ele>1915</ele><speed>13.63</speed><time>2016-07-01T15:41:01Z</time><pdop>11.0</pdop><geoidheight>53.00</geoidheight><course>55.1</course><type>1</type></trkpt>
      <trkpt lat="40.59194191" lon="-4.83895286"><ele>1916</ele><speed>13.73</speed><time>2016-07-01T15:41:03Z</time><pdop>11.0</pdop><geoidheight>53.00</geoidheight><course>59.6</course><type>1</type></trkpt>
      <trkpt lat="40.59206314" lon="-4.83866004"><ele>1921</ele><speed>13.07</speed><time>2016-07-01T15:41:05Z</time><pdop>10.0</pdop><geoidheight>53.00</geoidheight><course>60.3</course><type>1</type></trkpt>
      <trkpt lat="40.59217983" lon="-4.83837965"><ele>1921</ele><speed>13.50</speed><time>2016-07-01T15:41:07Z</time><pdop>10.0</pdop><geoidheight>53.00</geoidheight><course>64.3</course><type>1</type></trkpt>
      <trkpt lat="40.59226964" lon="-4.83806642"><ele>1922</ele><speed>14.09</speed><time>2016-07-01T15:41:09Z</time><pdop>10.0</pdop><geoidheight>53.00</geoidheight><course>70.9</course><type>1</type></trkpt>
      <trkpt lat="40.59228207" lon="-4.8377432"><ele>1921</ele><speed>13.94</speed><time>2016-07-01T15:41:11Z</time><pdop>10.0</pdop><geoidheight>53.00</geoidheight><course>86.3</course><type>1</type></trkpt>
      <trkpt lat="40.59222141" lon="-4.83740497"><ele>1921</ele><speed>14.51</speed><time>2016-07-01T15:41:13Z</time><pdop>10.0</pdop><geoidheight>53.00</geoidheight><course>104.0</course><type>1</type></trkpt>
      <trkpt lat="40.59207798" lon="-4.83709293"><ele>1920</ele><speed>15.35</speed><time>2016-07-01T15:41:15Z</time><pdop>11.0</pdop><geoidheight>53.00</geoidheight><course>119.0</course><type>1</type></trkpt>
      <trkpt lat="40.59183005" lon="-4.83691742"><ele>1921</ele><speed>14.80</speed><time>2016-07-01T15:41:17Z</time><pdop>10.0</pdop><geoidheight>53.00</geoidheight><course>141.4</course><type>1</type></trkpt>
      <trkpt lat="40.5916306" lon="-4.83671999"><ele>1921</ele><speed>12.31</speed><time>2016-07-01T15:41:19Z</time><pdop>10.0</pdop><geoidheight>53.00</geoidheight><course>147.8</course><type>1</type></trkpt>
      <trkpt lat="40.591454" lon="-4.83664941"><ele>1921</ele><speed>10.70</speed><time>2016-07-01T15:41:21Z</time><pdop>10.0</pdop><geoidheight>53.00</geoidheight><course>155.2</course><type>1</type></trkpt>
      <trkpt lat="40.59124688" lon="-4.83666495"><ele>1920</ele><speed>4.94</speed><time>2016-07-01T15:41:25Z</time><pdop>10.0</pdop><geoidheight>53.00</geoidheight><course>197.3</course><type>1</type></trkpt>
      <trkpt lat="40.59135113" lon="-4.83686312"><ele>1913</ele><speed>5.68</speed><time>2016-07-01T15:41:29Z</time><pdop>10.0</pdop><geoidheight>53.00</geoidheight><course>315.2</course><type>1</type></trkpt>
      <trkpt lat="40.59159503" lon="-4.83671561"><ele>1909</ele><speed>7.19</speed><time>2016-07-01T15:41:33Z</time><pdop>10.0</pdop><geoidheight>53.00</geoidheight><course>42.7</course><type>1</type></trkpt>
      <trkpt lat="40.59170511" lon="-4.83650505"><ele>1909</ele><speed>12.00</speed><time>2016-07-01T15:41:34Z</time><pdop>10.0</pdop><geoidheight>53.00</geoidheight><course>52.7</course><type>1</type></trkpt>
      <trkpt lat="40.59181295" lon="-4.83623186"><ele>1909</ele><speed>12.51</speed><time>2016-07-01T15:41:36Z</time><pdop>11.0</pdop><geoidheight>53.00</geoidheight><course>59.2</course><type>1</type></trkpt>
      <trkpt lat="40.59191603" lon="-4.83595174"><ele>1907</ele><speed>12.87</speed><time>2016-07-01T15:41:38Z</time><pdop>10.0</pdop><geoidheight>53.00</geoidheight><course>62.8</course><type>1</type></trkpt>
      <trkpt lat="40.59204109" lon="-4.83564673"><ele>1905</ele><speed>14.76</speed><time>2016-07-01T15:41:40Z</time><pdop>10.0</pdop><geoidheight>53.00</geoidheight><course>62.6</course><type>1</type></trkpt>
      <trkpt lat="40.59214354" lon="-4.83531614"><ele>1904</ele><speed>14.83</speed><time>2016-07-01T15:41:42Z</time><pdop>10.0</pdop><geoidheight>53.00</geoidheight><course>68.3</course><type>1</type></trkpt>
      <trkpt lat="40.59222678" lon="-4.83498509"><ele>1905</ele><speed>14.71</speed><time>2016-07-01T15:41:44Z</time><pdop>10.0</pdop><geoidheight>53.00</geoidheight><course>73.2</course><type>1</type></trkpt>
      <trkpt lat="40.592299" lon="-4.83465982"><ele>1905</ele><speed>14.44</speed><time>2016-07-01T15:41:46Z</time><pdop>9.0</pdop><geoidheight>53.00</geoidheight><course>73.9</course><type>1</type></trkpt>
      <trkpt lat="40.59233734" lon="-4.83430993"><ele>1902</ele><speed>15.59</speed><time>2016-07-01T15:41:48Z</time><pdop>10.0</pdop><geoidheight>53.00</geoidheight><course>76.6</course><type>1</type></trkpt>
      <trkpt lat="40.59240743" lon="-4.83394887"><ele>1902</ele><speed>15.54</speed><time>2016-07-01T15:41:50Z</time><pdop>9.0</pdop><geoidheight>53.00</geoidheight><course>78.1</course><type>1</type></trkpt>
      <trkpt lat="40.5924496" lon="-4.83357866"><ele>1899</ele><speed>15.96</speed><time>2016-07-01T15:41:52Z</time><pdop>10.0</pdop><geoidheight>53.00</geoidheight><course>79.5</course><type>1</type></trkpt>
      <trkpt lat="40.59250138" lon="-4.83318756"><ele>1900</ele><speed>16.25</speed><time>2016-07-01T15:41:54Z</time><pdop>10.0</pdop><geoidheight>53.00</geoidheight><course>82.3</course><type>1</type></trkpt>
      <trkpt lat="40.59254273" lon="-4.83281835"><ele>1900</ele><speed>15.80</speed><time>2016-07-01T15:41:56Z</time><pdop>10.0</pdop><geoidheight>53.00</geoidheight><course>85.2</course><type>1</type></trkpt>
      <trkpt lat="40.59256262" lon="-4.83244559"><ele>1901</ele><speed>15.59</speed><time>2016-07-01T15:41:58Z</time><pdop>10.0</pdop><geoidheight>53.00</geoidheight><course>86.0</course><type>1</type></trkpt>
      <trkpt lat="40.5925791" lon="-4.83207666"><ele>1901</ele><speed>15.70</speed><time>2016-07-01T15:42:00Z</time><pdop>9.0</pdop><geoidheight>53.00</geoidheight><course>83.9</course><type>1</type></trkpt>
      <trkpt lat="40.59260302" lon="-4.83167203"><ele>1900</ele><speed>17.54</speed><time>2016-07-01T15:42:02Z</time><pdop>9.0</pdop><geoidheight>53.00</geoidheight><course>80.4</course><type>1</type></trkpt>
      <trkpt lat="40.592653" lon="-4.83127258"><ele>1902</ele><speed>16.78</speed><time>2016-07-01T15:42:04Z</time><pdop>10.0</pdop><geoidheight>53.00</geoidheight><course>80.0</course><type>1</type></trkpt>
      <trkpt lat="40.59274078" lon="-4.83092672"><ele>1903</ele><speed>14.76</speed><time>2016-07-01T15:42:06Z</time><pdop>11.0</pdop><geoidheight>53.00</geoidheight><course>72.5</course><type>1</type></trkpt>
      <trkpt lat="40.5928637" lon="-4.83064048"><ele>1903</ele><speed>13.70</speed><time>2016-07-01T15:42:08Z</time><pdop>13.0</pdop><geoidheight>53.00</geoidheight><course>63.4</course><type>1</type></trkpt>
      <trkpt lat="40.59314028" lon="-4.83064148"><ele>1906</ele><speed>8.79</speed><time>2016-07-01T15:42:11Z</time><pdop>12.0</pdop><geoidheight>53.00</geoidheight><course>356.8</course><type>1</type></trkpt>
      <trkpt lat="40.59289151" lon="-4.83073524"><ele>1906</ele><speed>10.89</speed><time>2016-07-01T15:42:20Z</time><pdop>12.0</pdop><geoidheight>53.00</geoidheight><course>162.6</course><type>1</type></trkpt>
      <trkpt lat="40.59270261" lon="-4.83045624"><ele>1910</ele><speed>11.38</speed><time>2016-07-01T15:42:23Z</time><pdop>12.0</pdop><geoidheight>53.00</geoidheight><course>136.1</course><type>1</type></trkpt>
      <trkpt lat="40.59261016" lon="-4.83018545"><ele>1912</ele><speed>11.27</speed><time>2016-07-01T15:42:25Z</time><pdop>12.0</pdop><geoidheight>53.00</geoidheight><course>119.7</course><type>1</type></trkpt>
      <trkpt lat="40.59263489" lon="-4.82988964"><ele>1914</ele><speed>14.95</speed><time>2016-07-01T15:42:26Z</time><pdop>11.0</pdop><geoidheight>53.00</geoidheight><course>96.0</course><type>1</type></trkpt>
      <trkpt lat="40.59272835" lon="-4.82953003"><ele>1917</ele><speed>13.90</speed><time>2016-07-01T15:42:28Z</time><pdop>10.0</pdop><geoidheight>53.00</geoidheight><course>78.2</course><type>1</type></trkpt>
      <trkpt lat="40.5928545" lon="-4.82925091"><ele>1918</ele><speed>12.11</speed><time>2016-07-01T15:42:30Z</time><pdop>11.0</pdop><geoidheight>53.00</geoidheight><course>63.2</course><type>1</type></trkpt>
      <trkpt lat="40.59309148" lon="-4.82911442"><ele>1919</ele><speed>8.26</speed><time>2016-07-01T15:42:33Z</time><pdop>13.0</pdop><geoidheight>53.00</geoidheight><course>26.9</course><type>1</type></trkpt>
      <trkpt lat="40.59337763" lon="-4.82913207"><ele>1922</ele><speed>6.31</speed><time>2016-07-01T15:42:37Z</time><pdop>13.0</pdop><geoidheight>53.00</geoidheight><course>2.6</course><type>1</type></trkpt>
      <trkpt lat="40.59312093" lon="-4.82932361"><ele>1927</ele><speed>8.08</speed><time>2016-07-01T15:42:40Z</time><pdop>11.0</pdop><geoidheight>53.00</geoidheight><course>182.3</course><type>1</type></trkpt>
      <trkpt lat="40.59287695" lon="-4.82923454"><ele>1932</ele><speed>7.15</speed><time>2016-07-01T15:42:44Z</time><pdop>12.0</pdop><geoidheight>53.00</geoidheight><course>150.2</course><type>1</type></trkpt>
      <trkpt lat="40.59264835" lon="-4.82897048"><ele>1935</ele><speed>12.19</speed><time>2016-07-01T15:42:46Z</time><pdop>11.0</pdop><geoidheight>53.00</geoidheight><course>141.7</course><type>1</type></trkpt>
      <trkpt lat="40.59250991" lon="-4.82862536"><ele>1938</ele><speed>14.34</speed><time>2016-07-01T15:42:48Z</time><pdop>11.0</pdop><geoidheight>53.00</geoidheight><course>123.0</course><type>1</type></trkpt>
      <trkpt lat="40.59244251" lon="-4.82823519"><ele>1941</ele><speed>14.78</speed><time>2016-07-01T15:42:50Z</time><pdop>11.0</pdop><geoidheight>53.00</geoidheight><course>109.0</course><type>1</type></trkpt>
      <trkpt lat="40.59244004" lon="-4.82783664"><ele>1941</ele><speed>15.68</speed><time>2016-07-01T15:42:52Z</time><pdop>12.0</pdop><geoidheight>53.00</geoidheight><course>97.6</course><type>1</type></trkpt>
      <trkpt lat="40.59253146" lon="-4.82754759"><ele>1941</ele><speed>13.18</speed><time>2016-07-01T15:42:54Z</time><pdop>14.0</pdop><geoidheight>53.00</geoidheight><course>85.0</course><type>1</type></trkpt>
      <trkpt lat="40.59280516" lon="-4.8274707"><ele>1944</ele><speed>7.29</speed><time>2016-07-01T15:42:57Z</time><pdop>17.0</pdop><geoidheight>53.00</geoidheight><course>42.0</course><type>1</type></trkpt>
      <trkpt lat="40.5925387" lon="-4.82759682"><ele>1956</ele><speed>11.24</speed><time>2016-07-01T15:43:07Z</time><pdop>11.0</pdop><geoidheight>53.00</geoidheight><course>153.6</course><type>1</type></trkpt>
      <trkpt lat="40.59240606" lon="-4.82734423"><ele>1959</ele><speed>11.13</speed><time>2016-07-01T15:43:09Z</time><pdop>12.0</pdop><geoidheight>53.00</geoidheight><course>128.9</course><type>1</type></trkpt>
      <trkpt lat="40.59240108" lon="-4.82689866"><ele>1962</ele><speed>13.35</speed><time>2016-07-01T15:43:11Z</time><pdop>12.0</pdop><geoidheight>53.00</geoidheight><course>103.4</course><type>1</type></trkpt>
      <trkpt lat="40.59251039" lon="-4.82649794"><ele>1963</ele><speed>13.82</speed><time>2016-07-01T15:43:13Z</time><pdop>11.0</pdop><geoidheight>53.00</geoidheight><course>79.2</course><type>1</type></trkpt>
      <trkpt lat="40.59260468" lon="-4.82617476"><ele>1967</ele><speed>13.50</speed><time>2016-07-01T15:43:15Z</time><pdop>11.0</pdop><geoidheight>53.00</geoidheight><course>73.9</course><type>1</type></trkpt>
      <trkpt lat="40.59280872" lon="-4.8259358"><ele>1968</ele><speed>13.08</speed><time>2016-07-01T15:43:17Z</time><pdop>10.0</pdop><geoidheight>53.00</geoidheight><course>43.6</course><type>1</type></trkpt>
      <trkpt lat="40.59301992" lon="-4.82575795"><ele>1970</ele><speed>13.07</speed><time>2016-07-01T15:43:19Z</time><pdop>10.0</pdop><geoidheight>53.00</geoidheight><course>32.5</course><type>1</type></trkpt>
      <trkpt lat="40.59320839" lon="-4.82561358"><ele>1973</ele><speed>11.28</speed><time>2016-07-01T15:43:21Z</time><pdop>10.0</pdop><geoidheight>53.00</geoidheight><course>24.3</course><type>1</type></trkpt>
      <trkpt lat="40.59338455" lon="-4.82556697"><ele>1973</ele><speed>9.83</speed><time>2016-07-01T15:43:23Z</time><pdop>10.0</pdop><geoidheight>53.00</geoidheight><course>13.7</course><type>1</type></trkpt>
      <trkpt lat="40.59357506" lon="-4.82550165"><ele>1974</ele><speed>10.25</speed><time>2016-07-01T15:43:25Z</time><pdop>10.0</pdop><geoidheight>53.00</geoidheight><course>16.2</course><type>1</type></trkpt>
      <trkpt lat="40.59384406" lon="-4.8253825"><ele>1975</ele><speed>9.87</speed><time>2016-07-01T15:43:28Z</time><pdop>11.0</pdop><geoidheight>53.00</geoidheight><course>17.4</course><type>1</type></trkpt>
      <trkpt lat="40.5941111" lon="-4.82541681"><ele>1979</ele><speed>8.90</speed><time>2016-07-01T15:43:31Z</time><pdop>11.0</pdop><geoidheight>53.00</geoidheight><course>342.5</course><type>1</type></trkpt>
      <trkpt lat="40.59435787" lon="-4.82556265"><ele>1980</ele><speed>9.10</speed><time>2016-07-01T15:43:34Z</time><pdop>12.0</pdop><geoidheight>53.00</geoidheight><course>338.7</course><type>1</type></trkpt>
      <trkpt lat="40.59414576" lon="-4.82565017"><ele>1980</ele><speed>7.11</speed><time>2016-07-01T15:43:37Z</time><pdop>12.0</pdop><geoidheight>53.00</geoidheight><course>181.2</course><type>1</type></trkpt>
      <trkpt lat="40.59378823" lon="-4.8256151"><ele>1978</ele><speed>10.76</speed><time>2016-07-01T15:43:40Z</time><pdop>12.0</pdop><geoidheight>53.00</geoidheight><course>163.4</course><type>1</type></trkpt>
      <trkpt lat="40.5935661" lon="-4.82535472"><ele>1980</ele><speed>13.85</speed><time>2016-07-01T15:43:42Z</time><pdop>11.0</pdop><geoidheight>53.00</geoidheight><course>137.7</course><type>1</type></trkpt>
      <trkpt lat="40.59345642" lon="-4.82507683"><ele>1981</ele><speed>13.09</speed><time>2016-07-01T15:43:44Z</time><pdop>12.0</pdop><geoidheight>53.00</geoidheight><course>128.8</course><type>1</type></trkpt>
      <trkpt lat="40.59356587" lon="-4.82476682"><ele>1981</ele><speed>15.61</speed><time>2016-07-01T15:43:45Z</time><pdop>11.0</pdop><geoidheight>53.00</geoidheight><course>91.2</course><type>1</type></trkpt>
      <trkpt lat="40.5935905" lon="-4.82444904"><ele>1984</ele><speed>13.52</speed><time>2016-07-01T15:43:47Z</time><pdop>10.0</pdop><geoidheight>53.00</geoidheight><course>82.3</course><type>1</type></trkpt>
      <trkpt lat="40.59364022" lon="-4.82417855"><ele>1983</ele><speed>11.54</speed><time>2016-07-01T15:43:49Z</time><pdop>11.0</pdop><geoidheight>53.00</geoidheight><course>77.5</course><type>1</type></trkpt>
      <trkpt lat="40.59384157" lon="-4.8241174"><ele>1985</ele><speed>5.27</speed><time>2016-07-01T15:43:52Z</time><pdop>12.0</pdop><geoidheight>53.00</geoidheight><course>19.0</course><type>1</type></trkpt>
      <trkpt lat="40.59408283" lon="-4.82425223"><ele>1989</ele><speed>6.07</speed><time>2016-07-01T15:43:55Z</time><pdop>11.0</pdop><geoidheight>53.00</geoidheight><course>322.1</course><type>1</type></trkpt>
      <trkpt lat="40.59388063" lon="-4.82442012"><ele>1991</ele><speed>8.05</speed><time>2016-07-01T15:44:02Z</time><pdop>11.0</pdop><geoidheight>53.00</geoidheight><course>166.7</course><type>1</type></trkpt>
      <trkpt lat="40.59368315" lon="-4.82434761"><ele>1993</ele><speed>10.40</speed><time>2016-07-01T15:44:04Z</time><pdop>10.0</pdop><geoidheight>53.00</geoidheight><course>160.6</course><type>1</type></trkpt>
      <trkpt lat="40.59350022" lon="-4.82423003"><ele>1993</ele><speed>11.29</speed><time>2016-07-01T15:44:06Z</time><pdop>10.0</pdop><geoidheight>53.00</geoidheight><course>158.4</course><type>1</type></trkpt>
      <trkpt lat="40.5933433" lon="-4.82406028"><ele>1994</ele><speed>11.23</speed><time>2016-07-01T15:44:08Z</time><pdop>11.0</pdop><geoidheight>53.00</geoidheight><course>146.3</course><type>1</type></trkpt>
      <trkpt lat="40.59323775" lon="-4.82378372"><ele>1998</ele><speed>11.85</speed><time>2016-07-01T15:44:10Z</time><pdop>10.0</pdop><geoidheight>53.00</geoidheight><course>128.0</course><type>1</type></trkpt>
      <trkpt lat="40.59308369" lon="-4.82360365"><ele>2000</ele><speed>10.98</speed><time>2016-07-01T15:44:12Z</time><pdop>10.0</pdop><geoidheight>53.00</geoidheight><course>140.3</course><type>1</type></trkpt>
      <trkpt lat="40.5928848" lon="-4.82352219"><ele>2001</ele><speed>8.28</speed><time>2016-07-01T15:44:15Z</time><pdop>11.0</pdop><geoidheight>53.00</geoidheight><course>159.1</course><type>1</type></trkpt>
      <trkpt lat="40.5928552" lon="-4.82379639"><ele>2001</ele><speed>6.32</speed><time>2016-07-01T15:44:17Z</time><pdop>11.0</pdop><geoidheight>53.00</geoidheight><course>232.6</course><type>1</type></trkpt>
      <trkpt lat="40.5929708" lon="-4.82405661"><ele>2002</ele><speed>6.42</speed><time>2016-07-01T15:44:20Z</time><pdop>12.0</pdop><geoidheight>53.00</geoidheight><course>296.1</course><type>1</type></trkpt>
      <trkpt lat="40.59322522" lon="-4.82389131"><ele>2003</ele><speed>6.34</speed><time>2016-07-01T15:44:23Z</time><pdop>12.0</pdop><geoidheight>53.00</geoidheight><course>19.5</course><type>1</type></trkpt>
      <trkpt lat="40.59328927" lon="-4.82354093"><ele>2005</ele><speed>10.41</speed><time>2016-07-01T15:44:25Z</time><pdop>11.0</pdop><geoidheight>53.00</geoidheight><course>79.3</course><type>1</type></trkpt>
      <trkpt lat="40.59331656" lon="-4.82317062"><ele>2010</ele><speed>13.57</speed><time>2016-07-01T15:44:27Z</time><pdop>10.0</pdop><geoidheight>53.00</geoidheight><course>101.7</course><type>1</type></trkpt>
      <trkpt lat="40.59326568" lon="-4.82284401"><ele>2011</ele><speed>13.43</speed><time>2016-07-01T15:44:29Z</time><pdop>10.0</pdop><geoidheight>53.00</geoidheight><course>110.0</course><type>1</type></trkpt>
      <trkpt lat="40.59317879" lon="-4.82262119"><ele>2013</ele><speed>11.28</speed><time>2016-07-01T15:44:31Z</time><pdop>11.0</pdop><geoidheight>53.00</geoidheight><course>115.6</course><type>1</type></trkpt>
      <trkpt lat="40.59299354" lon="-4.82275454"><ele>2015</ele><speed>3.82</speed><time>2016-07-01T15:44:35Z</time><pdop>12.0</pdop><geoidheight>53.00</geoidheight><course>214.2</course><type>1</type></trkpt>
      <trkpt lat="40.59311688" lon="-4.82303799"><ele>2016</ele><speed>7.48</speed><time>2016-07-01T15:44:38Z</time><pdop>10.0</pdop><geoidheight>53.00</geoidheight><course>328.5</course><type>1</type></trkpt>
      <trkpt lat="40.59333667" lon="-4.8226454"><ele>2023</ele><speed>13.72</speed><time>2016-07-01T15:44:43Z</time><pdop>10.0</pdop><geoidheight>53.00</geoidheight><course>71.4</course><type>1</type></trkpt>
      <trkpt lat="40.59336164" lon="-4.82229463"><ele>2024</ele><speed>13.99</speed><time>2016-07-01T15:44:45Z</time><pdop>9.0</pdop><geoidheight>53.00</geoidheight><course>90.1</course><type>1</type></trkpt>
      <trkpt lat="40.59329168" lon="-4.8219811"><ele>2026</ele><speed>13.71</speed><time>2016-07-01T15:44:47Z</time><pdop>9.0</pdop><geoidheight>53.00</geoidheight><course>112.3</course><type>1</type></trkpt>
      <trkpt lat="40.5931723" lon="-4.82176906"><ele>2027</ele><speed>12.46</speed><time>2016-07-01T15:44:49Z</time><pdop>9.0</pdop><geoidheight>53.00</geoidheight><course>132.3</course><type>1</type></trkpt>
      <trkpt lat="40.5930176" lon="-4.82166744"><ele>2028</ele><speed>11.01</speed><time>2016-07-01T15:44:51Z</time><pdop>10.0</pdop><geoidheight>53.00</geoidheight><course>146.3</course><type>1</type></trkpt>
      <trkpt lat="40.59280558" lon="-4.82161928"><ele>2029</ele><speed>8.50</speed><time>2016-07-01T15:44:54Z</time><pdop>12.0</pdop><geoidheight>53.00</geoidheight><course>162.6</course><type>1</type></trkpt>
      <trkpt lat="40.59275624" lon="-4.82191203"><ele>2029</ele><speed>6.69</speed><time>2016-07-01T15:44:56Z</time><pdop>11.0</pdop><geoidheight>53.00</geoidheight><course>217.5</course><type>1</type></trkpt>
      <trkpt lat="40.59297868" lon="-4.8220846"><ele>2030</ele><speed>5.40</speed><time>2016-07-01T15:45:00Z</time><pdop>11.0</pdop><geoidheight>53.00</geoidheight><course>326.6</course><type>1</type></trkpt>
      <trkpt lat="40.5932362" lon="-4.82193571"><ele>2033</ele><speed>9.17</speed><time>2016-07-01T15:45:02Z</time><pdop>11.0</pdop><geoidheight>53.00</geoidheight><course>21.4</course><type>1</type></trkpt>
      <trkpt lat="40.59342444" lon="-4.82176152"><ele>2033</ele><speed>12.65</speed><time>2016-07-01T15:45:04Z</time><pdop>10.0</pdop><geoidheight>53.00</geoidheight><course>43.2</course><type>1</type></trkpt>
      <trkpt lat="40.59346909" lon="-4.8214693"><ele>2036</ele><speed>12.84</speed><time>2016-07-01T15:45:06Z</time><pdop>9.0</pdop><geoidheight>53.00</geoidheight><course>76.6</course><type>1</type></trkpt>
      <trkpt lat="40.59346222" lon="-4.8211697"><ele>2039</ele><speed>12.45</speed><time>2016-07-01T15:45:08Z</time><pdop>9.0</pdop><geoidheight>53.00</geoidheight><course>102.0</course><type>1</type></trkpt>
      <trkpt lat="40.59339029" lon="-4.82091337"><ele>2040</ele><speed>11.94</speed><time>2016-07-01T15:45:10Z</time><pdop>9.0</pdop><geoidheight>53.00</geoidheight><course>115.3</course><type>1</type></trkpt>
      <trkpt lat="40.59327042" lon="-4.82067896"><ele>2042</ele><speed>12.68</speed><time>2016-07-01T15:45:12Z</time><pdop>10.0</pdop><geoidheight>53.00</geoidheight><course>126.2</course><type>1</type></trkpt>
      <trkpt lat="40.59311161" lon="-4.82047909"><ele>2043</ele><speed>12.82</speed><time>2016-07-01T15:45:14Z</time><pdop>9.0</pdop><geoidheight>53.00</geoidheight><course>133.0</course><type>1</type></trkpt>
      <trkpt lat="40.59293126" lon="-4.82026639"><ele>2045</ele><speed>13.03</speed><time>2016-07-01T15:45:16Z</time><pdop>10.0</pdop><geoidheight>53.00</geoidheight><course>138.1</course><type>1</type></trkpt>
      <trkpt lat="40.5927186" lon="-4.82021466"><ele>2045</ele><speed>8.87</speed><time>2016-07-01T15:45:19Z</time><pdop>11.0</pdop><geoidheight>53.00</geoidheight><course>162.4</course><type>1</type></trkpt>
      <trkpt lat="40.59259972" lon="-4.82044912"><ele>2047</ele><speed>6.48</speed><time>2016-07-01T15:45:23Z</time><pdop>12.0</pdop><geoidheight>53.00</geoidheight><course>248.9</course><type>1</type></trkpt>
      <trkpt lat="40.59273766" lon="-4.82068899"><ele>2047</ele><speed>6.68</speed><time>2016-07-01T15:45:26Z</time><pdop>12.0</pdop><geoidheight>53.00</geoidheight><course>298.1</course><type>1</type></trkpt>
      <trkpt lat="40.59296342" lon="-4.82051001"><ele>2046</ele><speed>5.84</speed><time>2016-07-01T15:45:28Z</time><pdop>12.0</pdop><geoidheight>53.00</geoidheight><course>7.7</course><type>1</type></trkpt>
      <trkpt lat="40.59309593" lon="-4.82009704"><ele>2048</ele><speed>9.05</speed><time>2016-07-01T15:45:31Z</time><pdop>12.0</pdop><geoidheight>53.00</geoidheight><course>76.8</course><type>1</type></trkpt>
      <trkpt lat="40.5930331" lon="-4.81969027"><ele>2052</ele><speed>13.77</speed><time>2016-07-01T15:45:33Z</time><pdop>11.0</pdop><geoidheight>53.00</geoidheight><course>101.1</course><type>1</type></trkpt>
      <trkpt lat="40.59295877" lon="-4.81933519"><ele>2057</ele><speed>15.02</speed><time>2016-07-01T15:45:35Z</time><pdop>10.0</pdop><geoidheight>53.00</geoidheight><course>108.8</course><type>1</type></trkpt>
      <trkpt lat="40.59284474" lon="-4.81906202"><ele>2061</ele><speed>13.07</speed><time>2016-07-01T15:45:37Z</time><pdop>10.0</pdop><geoidheight>53.00</geoidheight><course>125.6</course><type>1</type></trkpt>
      <trkpt lat="40.59272011" lon="-4.81880772"><ele>2062</ele><speed>13.13</speed><time>2016-07-01T15:45:39Z</time><pdop>10.0</pdop><geoidheight>53.00</geoidheight><course>130.1</course><type>1</type></trkpt>
      <trkpt lat="40.59248068" lon="-4.81878777"><ele>2066</ele><speed>7.41</speed><time>2016-07-01T15:45:43Z</time><pdop>12.0</pdop><geoidheight>53.00</geoidheight><course>169.6</course><type>1</type></trkpt>
      <trkpt lat="40.59239245" lon="-4.81915616"><ele>2066</ele><speed>8.89</speed><time>2016-07-01T15:45:45Z</time><pdop>12.0</pdop><geoidheight>53.00</geoidheight><course>232.2</course><type>1</type></trkpt>
      <trkpt lat="40.59265664" lon="-4.81918392"><ele>2073</ele><speed>2.85</speed><time>2016-07-01T15:45:50Z</time><pdop>12.0</pdop><geoidheight>53.00</geoidheight><course>13.6</course><type>1</type></trkpt>
      <trkpt lat="40.59273267" lon="-4.81897311"><ele>2075</ele><speed>8.64</speed><time>2016-07-01T15:45:51Z</time><pdop>7.0</pdop><geoidheight>53.00</geoidheight><course>71.1</course><type>1</type></trkpt>
      <trkpt lat="40.59278042" lon="-4.8187953"><ele>2077</ele><speed>11.74</speed><time>2016-07-01T15:45:52Z</time><pdop>7.0</pdop><geoidheight>53.00</geoidheight><course>86.8</course><type>1</type></trkpt>
      <trkpt lat="40.5927911" lon="-4.81859869"><ele>2079</ele><speed>13.59</speed><time>2016-07-01T15:45:53Z</time><pdop>6.0</pdop><geoidheight>53.00</geoidheight><course>102.0</course><type>1</type></trkpt>
      <trkpt lat="40.59276003" lon="-4.81844006"><ele>2079</ele><speed>13.72</speed><time>2016-07-01T15:45:54Z</time><pdop>5.0</pdop><geoidheight>53.00</geoidheight><course>112.7</course><type>1</type></trkpt>
      <trkpt lat="40.59271292" lon="-4.81830053"><ele>2081</ele><speed>13.21</speed><time>2016-07-01T15:45:55Z</time><pdop>7.0</pdop><geoidheight>53.00</geoidheight><course>121.7</course><type>1</type></trkpt>
      <trkpt lat="40.59258089" lon="-4.81801678"><ele>2082</ele><speed>13.87</speed><time>2016-07-01T15:45:57Z</time><pdop>9.0</pdop><geoidheight>53.00</geoidheight><course>128.8</course><type>1</type></trkpt>
      <trkpt lat="40.59240741" lon="-4.81800169"><ele>2084</ele><speed>11.47</speed><time>2016-07-01T15:45:59Z</time><pdop>8.0</pdop><geoidheight>53.00</geoidheight><course>154.8</course><type>1</type></trkpt>
      <trkpt lat="40.59229202" lon="-4.81817126"><ele>2083</ele><speed>8.32</speed><time>2016-07-01T15:46:01Z</time><pdop>8.0</pdop><geoidheight>53.00</geoidheight><course>188.5</course><type>1</type></trkpt>
      <trkpt lat="40.59222886" lon="-4.81835621"><ele>2084</ele><speed>6.32</speed><time>2016-07-01T15:46:04Z</time><pdop>9.0</pdop><geoidheight>53.00</geoidheight><course>243.2</course><type>1</type></trkpt>
      <trkpt lat="40.5922748" lon="-4.81853873"><ele>2087</ele><speed>5.52</speed><time>2016-07-01T15:46:07Z</time><pdop>7.0</pdop><geoidheight>53.00</geoidheight><course>274.0</course><type>1</type></trkpt>
      <trkpt lat="40.59225158" lon="-4.81870766"><ele>2090</ele><speed>5.85</speed><time>2016-07-01T15:46:09Z</time><pdop>6.0</pdop><geoidheight>53.00</geoidheight><course>253.0</course><type>1</type></trkpt>
      <trkpt lat="40.59215997" lon="-4.81888615"><ele>2092</ele><speed>4.93</speed><time>2016-07-01T15:46:12Z</time><pdop>6.0</pdop><geoidheight>53.00</geoidheight><course>231.4</course><type>1</type></trkpt>
      <trkpt lat="40.5921291" lon="-4.8190126"><ele>2092</ele><speed>5.85</speed><time>2016-07-01T15:46:14Z</time><pdop>5.0</pdop><geoidheight>53.00</geoidheight><course>254.0</course><type>1</type></trkpt>
      <trkpt lat="40.59228625" lon="-4.81903901"><ele>2093</ele><speed>4.52</speed><time>2016-07-01T15:46:17Z</time><pdop>8.0</pdop><geoidheight>53.00</geoidheight><course>329.1</course><type>1</type></trkpt>
      <trkpt lat="40.59246497" lon="-4.81890677"><ele>2093</ele><speed>6.34</speed><time>2016-07-01T15:46:19Z</time><pdop>7.0</pdop><geoidheight>53.00</geoidheight><course>28.0</course><type>1</type></trkpt>
      <trkpt lat="40.59256567" lon="-4.81867969"><ele>2092</ele><speed>12.11</speed><time>2016-07-01T15:46:20Z</time><pdop>7.0</pdop><geoidheight>53.00</geoidheight><course>54.4</course><type>1</type></trkpt>
      <trkpt lat="40.59257046" lon="-4.81849688"><ele>2094</ele><speed>12.59</speed><time>2016-07-01T15:46:21Z</time><pdop>4.0</pdop><geoidheight>53.00</geoidheight><course>72.5</course><type>1</type></trkpt>
      <trkpt lat="40.59261896" lon="-4.81834875"><ele>2096</ele><speed>11.04</speed><time>2016-07-01T15:46:22Z</time><pdop>4.0</pdop><geoidheight>53.00</geoidheight><course>73.2</course><type>1</type></trkpt>
      <trkpt lat="40.59266713" lon="-4.81823522"><ele>2096</ele><speed>10.75</speed><time>2016-07-01T15:46:23Z</time><pdop>4.0</pdop><geoidheight>53.00</geoidheight><course>68.1</course><type>1</type></trkpt>
      <trkpt lat="40.59272253" lon="-4.81810261"><ele>2096</ele><speed>11.58</speed><time>2016-07-01T15:46:24Z</time><pdop>4.0</pdop><geoidheight>53.00</geoidheight><course>62.6</course><type>1</type></trkpt>
      <trkpt lat="40.59277846" lon="-4.81796521"><ele>2096</ele><speed>12.67</speed><time>2016-07-01T15:46:25Z</time><pdop>4.0</pdop><geoidheight>53.00</geoidheight><course>60.8</course><type>1</type></trkpt>
      <trkpt lat="40.59283463" lon="-4.81782354"><ele>2096</ele><speed>13.29</speed><time>2016-07-01T15:46:26Z</time><pdop>4.0</pdop><geoidheight>53.00</geoidheight><course>66.8</course><type>1</type></trkpt>
      <trkpt lat="40.5928707" lon="-4.81766133"><ele>2099</ele><speed>13.72</speed><time>2016-07-01T15:46:27Z</time><pdop>4.0</pdop><geoidheight>53.00</geoidheight><course>75.0</course><type>1</type></trkpt>
      <trkpt lat="40.59288326" lon="-4.8174917"><ele>2102</ele><speed>13.97</speed><time>2016-07-01T15:46:28Z</time><pdop>4.0</pdop><geoidheight>53.00</geoidheight><course>84.6</course><type>1</type></trkpt>
      <trkpt lat="40.59288126" lon="-4.81732771"><ele>2103</ele><speed>14.03</speed><time>2016-07-01T15:46:29Z</time><pdop>4.0</pdop><geoidheight>53.00</geoidheight><course>92.1</course><type>1</type></trkpt>
      <trkpt lat="40.59285479" lon="-4.81715909"><ele>2103</ele><speed>14.28</speed><time>2016-07-01T15:46:30Z</time><pdop>4.0</pdop><geoidheight>53.00</geoidheight><course>94.5</course><type>1</type></trkpt>
      <trkpt lat="40.59282779" lon="-4.81698188"><ele>2104</ele><speed>14.69</speed><time>2016-07-01T15:46:31Z</time><pdop>4.0</pdop><geoidheight>53.00</geoidheight><course>99.6</course><type>1</type></trkpt>
      <trkpt lat="40.59279766" lon="-4.81681114"><ele>2106</ele><speed>15.11</speed><time>2016-07-01T15:46:32Z</time><pdop>4.0</pdop><geoidheight>53.00</geoidheight><course>105.4</course><type>1</type></trkpt>
      <trkpt lat="40.59274775" lon="-4.81664123"><ele>2107</ele><speed>15.43</speed><time>2016-07-01T15:46:33Z</time><pdop>5.0</pdop><geoidheight>53.00</geoidheight><course>111.8</course><type>1</type></trkpt>
      <trkpt lat="40.59269093" lon="-4.81649378"><ele>2109</ele><speed>15.33</speed><time>2016-07-01T15:46:34Z</time><pdop>5.0</pdop><geoidheight>53.00</geoidheight><course>118.9</course><type>1</type></trkpt>
      <trkpt lat="40.59262437" lon="-4.81635276"><ele>2109</ele><speed>15.03</speed><time>2016-07-01T15:46:35Z</time><pdop>5.0</pdop><geoidheight>53.00</geoidheight><course>123.1</course><type>1</type></trkpt>
      <trkpt lat="40.5924696" lon="-4.81616954"><ele>2110</ele><speed>12.88</speed><time>2016-07-01T15:46:37Z</time><pdop>6.0</pdop><geoidheight>53.00</geoidheight><course>134.5</course><type>1</type></trkpt>
      <trkpt lat="40.59232714" lon="-4.81623982"><ele>2111</ele><speed>9.35</speed><time>2016-07-01T15:46:39Z</time><pdop>7.0</pdop><geoidheight>53.00</geoidheight><course>166.2</course><type>1</type></trkpt>
      <trkpt lat="40.59225248" lon="-4.81644354"><ele>2111</ele><speed>6.99</speed><time>2016-07-01T15:46:41Z</time><pdop>7.0</pdop><geoidheight>53.00</geoidheight><course>208.9</course><type>1</type></trkpt>
      <trkpt lat="40.59236733" lon="-4.81654989"><ele>2110</ele><speed>7.24</speed><time>2016-07-01T15:46:42Z</time><pdop>6.0</pdop><geoidheight>53.00</geoidheight><course>288.8</course><type>1</type></trkpt>
      <trkpt lat="40.59241931" lon="-4.81668584"><ele>2110</ele><speed>6.58</speed><time>2016-07-01T15:46:44Z</time><pdop>5.0</pdop><geoidheight>53.00</geoidheight><course>303.2</course><type>1</type></trkpt>
      <trkpt lat="40.5925553" lon="-4.81679745"><ele>2112</ele><speed>6.03</speed><time>2016-07-01T15:46:47Z</time><pdop>8.0</pdop><geoidheight>53.00</geoidheight><course>335.2</course><type>1</type></trkpt>
      <trkpt lat="40.59274716" lon="-4.81646347"><ele>2110</ele><speed>12.75</speed><time>2016-07-01T15:46:49Z</time><pdop>6.0</pdop><geoidheight>53.00</geoidheight><course>51.6</course><type>1</type></trkpt>
      <trkpt lat="40.59280548" lon="-4.8163156"><ele>2112</ele><speed>14.20</speed><time>2016-07-01T15:46:50Z</time><pdop>6.0</pdop><geoidheight>53.00</geoidheight><course>62.9</course><type>1</type></trkpt>
      <trkpt lat="40.59283651" lon="-4.81615052"><ele>2113</ele><speed>14.64</speed><time>2016-07-01T15:46:51Z</time><pdop>5.0</pdop><geoidheight>53.00</geoidheight><course>73.8</course><type>1</type></trkpt>
      <trkpt lat="40.59284857" lon="-4.81597173"><ele>2116</ele><speed>14.62</speed><time>2016-07-01T15:46:52Z</time><pdop>5.0</pdop><geoidheight>53.00</geoidheight><course>83.9</course><type>1</type></trkpt>
      <trkpt lat="40.59284289" lon="-4.81580008"><ele>2117</ele><speed>14.82</speed><time>2016-07-01T15:46:53Z</time><pdop>4.0</pdop><geoidheight>53.00</geoidheight><course>90.6</course><type>1</type></trkpt>
      <trkpt lat="40.59282258" lon="-4.81562826"><ele>2118</ele><speed>14.94</speed><time>2016-07-01T15:46:54Z</time><pdop>4.0</pdop><geoidheight>53.00</geoidheight><course>100.0</course><type>1</type></trkpt>
      <trkpt lat="40.59278269" lon="-4.81546302"><ele>2118</ele><speed>15.12</speed><time>2016-07-01T15:46:55Z</time><pdop>4.0</pdop><geoidheight>53.00</geoidheight><course>107.2</course><type>1</type></trkpt>
      <trkpt lat="40.59272426" lon="-4.81531543"><ele>2119</ele><speed>14.68</speed><time>2016-07-01T15:46:56Z</time><pdop>4.0</pdop><geoidheight>53.00</geoidheight><course>114.3</course><type>1</type></trkpt>
      <trkpt lat="40.59266257" lon="-4.8151791"><ele>2121</ele><speed>13.89</speed><time>2016-07-01T15:46:57Z</time><pdop>3.0</pdop><geoidheight>53.00</geoidheight><course>121.2</course><type>1</type></trkpt>
      <trkpt lat="40.59258876" lon="-4.81506374"><ele>2122</ele><speed>14.13</speed><time>2016-07-01T15:46:58Z</time><pdop>3.0</pdop><geoidheight>53.00</geoidheight><course>129.9</course><type>1</type></trkpt>
      <trkpt lat="40.59250642" lon="-4.81497485"><ele>2124</ele><speed>13.85</speed><time>2016-07-01T15:46:59Z</time><pdop>3.0</pdop><geoidheight>53.00</geoidheight><course>138.0</course><type>1</type></trkpt>
      <trkpt lat="40.59239782" lon="-4.81487972"><ele>2125</ele><speed>14.18</speed><time>2016-07-01T15:47:00Z</time><pdop>4.0</pdop><geoidheight>53.00</geoidheight><course>143.4</course><type>1</type></trkpt>
      <trkpt lat="40.59229152" lon="-4.81480031"><ele>2124</ele><speed>13.37</speed><time>2016-07-01T15:47:01Z</time><pdop>4.0</pdop><geoidheight>53.00</geoidheight><course>149.7</course><type>1</type></trkpt>
      <trkpt lat="40.59219978" lon="-4.81476932"><ele>2125</ele><speed>11.78</speed><time>2016-07-01T15:47:02Z</time><pdop>4.0</pdop><geoidheight>53.00</geoidheight><course>155.4</course><type>1</type></trkpt>
      <trkpt lat="40.59211124" lon="-4.81473936"><ele>2127</ele><speed>10.98</speed><time>2016-07-01T15:47:03Z</time><pdop>5.0</pdop><geoidheight>53.00</geoidheight><course>159.2</course><type>1</type></trkpt>
      <trkpt lat="40.59202827" lon="-4.81485302"><ele>2130</ele><speed>6.94</speed><time>2016-07-01T15:47:05Z</time><pdop>5.0</pdop><geoidheight>53.00</geoidheight><course>197.3</course><type>1</type></trkpt>
      <trkpt lat="40.59192771" lon="-4.81493595"><ele>2128</ele><speed>6.43</speed><time>2016-07-01T15:47:07Z</time><pdop>6.0</pdop><geoidheight>53.00</geoidheight><course>209.9</course><type>1</type></trkpt>
      <trkpt lat="40.59193333" lon="-4.81515465"><ele>2130</ele><speed>6.77</speed><time>2016-07-01T15:47:10Z</time><pdop>8.0</pdop><geoidheight>53.00</geoidheight><course>268.6</course><type>1</type></trkpt>
      <trkpt lat="40.59215788" lon="-4.81512654"><ele>2131</ele><speed>4.91</speed><time>2016-07-01T15:47:13Z</time><pdop>9.0</pdop><geoidheight>53.00</geoidheight><course>357.0</course><type>1</type></trkpt>
      <trkpt lat="40.5923193" lon="-4.81492466"><ele>2135</ele><speed>7.98</speed><time>2016-07-01T15:47:16Z</time><pdop>10.0</pdop><geoidheight>53.00</geoidheight><course>45.7</course><type>1</type></trkpt>
      <trkpt lat="40.59241831" lon="-4.81469758"><ele>2135</ele><speed>8.57</speed><time>2016-07-01T15:47:18Z</time><pdop>11.0</pdop><geoidheight>53.00</geoidheight><course>67.5</course><type>1</type></trkpt>
      <trkpt lat="40.59223831" lon="-4.81439919"><ele>2136</ele><speed>12.25</speed><time>2016-07-01T15:47:20Z</time><pdop>8.0</pdop><geoidheight>53.00</geoidheight><course>128.3</course><type>1</type></trkpt>
      <trkpt lat="40.59207016" lon="-4.81421401"><ele>2138</ele><speed>11.79</speed><time>2016-07-01T15:47:22Z</time><pdop>6.0</pdop><geoidheight>53.00</geoidheight><course>147.5</course><type>1</type></trkpt>
      <trkpt lat="40.59190384" lon="-4.81407671"><ele>2139</ele><speed>10.56</speed><time>2016-07-01T15:47:24Z</time><pdop>7.0</pdop><geoidheight>53.00</geoidheight><course>153.8</course><type>1</type></trkpt>
      <trkpt lat="40.59170221" lon="-4.81409676"><ele>2138</ele><speed>10.56</speed><time>2016-07-01T15:47:26Z</time><pdop>8.0</pdop><geoidheight>53.00</geoidheight><course>172.5</course><type>1</type></trkpt>
      <trkpt lat="40.59161348" lon="-4.81429127"><ele>2141</ele><speed>6.54</speed><time>2016-07-01T15:47:29Z</time><pdop>6.0</pdop><geoidheight>53.00</geoidheight><course>230.4</course><type>1</type></trkpt>
      <trkpt lat="40.59159553" lon="-4.81449565"><ele>2144</ele><speed>6.30</speed><time>2016-07-01T15:47:32Z</time><pdop>10.0</pdop><geoidheight>53.00</geoidheight><course>255.6</course><type>1</type></trkpt>
      <trkpt lat="40.59186891" lon="-4.81435011"><ele>2147</ele><speed>4.85</speed><time>2016-07-01T15:47:35Z</time><pdop>11.0</pdop><geoidheight>53.00</geoidheight><course>10.2</course><type>1</type></trkpt>
      <trkpt lat="40.59203795" lon="-4.8141511"><ele>2149</ele><speed>8.44</speed><time>2016-07-01T15:47:37Z</time><pdop>11.0</pdop><geoidheight>53.00</geoidheight><course>45.2</course><type>1</type></trkpt>
      <trkpt lat="40.5922212" lon="-4.81377022"><ele>2154</ele><speed>14.40</speed><time>2016-07-01T15:47:39Z</time><pdop>9.0</pdop><geoidheight>53.00</geoidheight><course>66.8</course><type>1</type></trkpt>
      <trkpt lat="40.59224061" lon="-4.81356752"><ele>2156</ele><speed>14.67</speed><time>2016-07-01T15:47:40Z</time><pdop>8.0</pdop><geoidheight>53.00</geoidheight><course>79.4</course><type>1</type></trkpt>
      <trkpt lat="40.59220754" lon="-4.81325515"><ele>2159</ele><speed>13.52</speed><time>2016-07-01T15:47:42Z</time><pdop>8.0</pdop><geoidheight>53.00</geoidheight><course>90.3</course><type>1</type></trkpt>
      <trkpt lat="40.59221973" lon="-4.81288229"><ele>2159</ele><speed>14.50</speed><time>2016-07-01T15:47:44Z</time><pdop>7.0</pdop><geoidheight>53.00</geoidheight><course>93.4</course><type>1</type></trkpt>
      <trkpt lat="40.59215904" lon="-4.81273292"><ele>2161</ele><speed>13.71</speed><time>2016-07-01T15:47:45Z</time><pdop>5.0</pdop><geoidheight>53.00</geoidheight><course>109.5</course><type>1</type></trkpt>
      <trkpt lat="40.59211413" lon="-4.81258807"><ele>2163</ele><speed>13.71</speed><time>2016-07-01T15:47:46Z</time><pdop>5.0</pdop><geoidheight>53.00</geoidheight><course>119.3</course><type>1</type></trkpt>
      <trkpt lat="40.59205971" lon="-4.81244405"><ele>2166</ele><speed>14.01</speed><time>2016-07-01T15:47:47Z</time><pdop>4.0</pdop><geoidheight>53.00</geoidheight><course>123.8</course><type>1</type></trkpt>
      <trkpt lat="40.59200427" lon="-4.81230976"><ele>2169</ele><speed>13.73</speed><time>2016-07-01T15:47:48Z</time><pdop>4.0</pdop><geoidheight>53.00</geoidheight><course>122.6</course><type>1</type></trkpt>
      <trkpt lat="40.59194366" lon="-4.81217965"><ele>2170</ele><speed>13.27</speed><time>2016-07-01T15:47:49Z</time><pdop>4.0</pdop><geoidheight>53.00</geoidheight><course>121.1</course><type>1</type></trkpt>
      <trkpt lat="40.59188201" lon="-4.81205646"><ele>2172</ele><speed>12.58</speed><time>2016-07-01T15:47:50Z</time><pdop>3.0</pdop><geoidheight>53.00</geoidheight><course>125.4</course><type>1</type></trkpt>
      <trkpt lat="40.59181193" lon="-4.81195586"><ele>2173</ele><speed>12.28</speed><time>2016-07-01T15:47:51Z</time><pdop>4.0</pdop><geoidheight>53.00</geoidheight><course>132.5</course><type>1</type></trkpt>
      <trkpt lat="40.59172302" lon="-4.8118529"><ele>2174</ele><speed>12.53</speed><time>2016-07-01T15:47:52Z</time><pdop>5.0</pdop><geoidheight>53.00</geoidheight><course>136.2</course><type>1</type></trkpt>
      <trkpt lat="40.59155045" lon="-4.8117381"><ele>2176</ele><speed>10.92</speed><time>2016-07-01T15:47:54Z</time><pdop>8.0</pdop><geoidheight>53.00</geoidheight><course>149.3</course><type>1</type></trkpt>
      <trkpt lat="40.59148475" lon="-4.81192908"><ele>2177</ele><speed>6.39</speed><time>2016-07-01T15:47:56Z</time><pdop>9.0</pdop><geoidheight>53.00</geoidheight><course>194.2</course><type>1</type></trkpt>
      <trkpt lat="40.59152741" lon="-4.81219047"><ele>2177</ele><speed>5.86</speed><time>2016-07-01T15:47:59Z</time><pdop>9.0</pdop><geoidheight>53.00</geoidheight><course>275.9</course><type>1</type></trkpt>
      <trkpt lat="40.59171029" lon="-4.81202913"><ele>2179</ele><speed>4.29</speed><time>2016-07-01T15:48:01Z</time><pdop>9.0</pdop><geoidheight>53.00</geoidheight><course>12.3</course><type>1</type></trkpt>
      <trkpt lat="40.59183133" lon="-4.81188264"><ele>2181</ele><speed>5.81</speed><time>2016-07-01T15:48:03Z</time><pdop>9.0</pdop><geoidheight>53.00</geoidheight><course>47.0</course><type>1</type></trkpt>
      <trkpt lat="40.59201047" lon="-4.81153914"><ele>2183</ele><speed>13.37</speed><time>2016-07-01T15:48:05Z</time><pdop>8.0</pdop><geoidheight>53.00</geoidheight><course>65.2</course><type>1</type></trkpt>
      <trkpt lat="40.59201892" lon="-4.81134728"><ele>2185</ele><speed>14.49</speed><time>2016-07-01T15:48:06Z</time><pdop>6.0</pdop><geoidheight>53.00</geoidheight><course>79.9</course><type>1</type></trkpt>
      <trkpt lat="40.59201286" lon="-4.81119607"><ele>2188</ele><speed>13.90</speed><time>2016-07-01T15:48:07Z</time><pdop>6.0</pdop><geoidheight>53.00</geoidheight><course>91.1</course><type>1</type></trkpt>
      <trkpt lat="40.59203666" lon="-4.81102571"><ele>2189</ele><speed>13.67</speed><time>2016-07-01T15:48:08Z</time><pdop>6.0</pdop><geoidheight>53.00</geoidheight><course>91.0</course><type>1</type></trkpt>
      <trkpt lat="40.59199751" lon="-4.81088264"><ele>2190</ele><speed>13.13</speed><time>2016-07-01T15:48:09Z</time><pdop>6.0</pdop><geoidheight>53.00</geoidheight><course>102.2</course><type>1</type></trkpt>
      <trkpt lat="40.59187797" lon="-4.81072699"><ele>2190</ele><speed>10.30</speed><time>2016-07-01T15:48:11Z</time><pdop>7.0</pdop><geoidheight>53.00</geoidheight><course>120.5</course><type>1</type></trkpt>
      <trkpt lat="40.59174027" lon="-4.81061544"><ele>2191</ele><speed>8.54</speed><time>2016-07-01T15:48:13Z</time><pdop>10.0</pdop><geoidheight>53.00</geoidheight><course>137.8</course><type>1</type></trkpt>
      <trkpt lat="40.59152361" lon="-4.81093034"><ele>2193</ele><speed>6.86</speed><time>2016-07-01T15:48:17Z</time><pdop>14.0</pdop><geoidheight>53.00</geoidheight><course>215.6</course><type>1</type></trkpt>
      <trkpt lat="40.59153429" lon="-4.81125058"><ele>2197</ele><speed>5.02</speed><time>2016-07-01T15:48:22Z</time><pdop>9.0</pdop><geoidheight>53.00</geoidheight><course>262.4</course><type>1</type></trkpt>
      <trkpt lat="40.59165615" lon="-4.81136576"><ele>2199</ele><speed>8.12</speed><time>2016-07-01T15:48:24Z</time><pdop>6.0</pdop><geoidheight>53.00</geoidheight><course>335.0</course><type>1</type></trkpt>
      <trkpt lat="40.59177312" lon="-4.81145508"><ele>2202</ele><speed>7.04</speed><time>2016-07-01T15:48:26Z</time><pdop>6.0</pdop><geoidheight>53.00</geoidheight><course>339.6</course><type>1</type></trkpt>
      <trkpt lat="40.59193943" lon="-4.81136582"><ele>2205</ele><speed>7.44</speed><time>2016-07-01T15:48:28Z</time><pdop>8.0</pdop><geoidheight>53.00</geoidheight><course>9.1</course><type>1</type></trkpt>
      <trkpt lat="40.59207171" lon="-4.81125437"><ele>2205</ele><speed>10.18</speed><time>2016-07-01T15:48:29Z</time><pdop>9.0</pdop><geoidheight>53.00</geoidheight><course>23.4</course><type>1</type></trkpt>
      <trkpt lat="40.59210329" lon="-4.81099786"><ele>2206</ele><speed>8.23</speed><time>2016-07-01T15:48:31Z</time><pdop>9.0</pdop><geoidheight>53.00</geoidheight><course>66.0</course><type>1</type></trkpt>
      <trkpt lat="40.59203799" lon="-4.81064742"><ele>2207</ele><speed>10.93</speed><time>2016-07-01T15:48:33Z</time><pdop>10.0</pdop><geoidheight>53.00</geoidheight><course>102.4</course><type>1</type></trkpt>
      <trkpt lat="40.59188597" lon="-4.81035295"><ele>2208</ele><speed>13.66</speed><time>2016-07-01T15:48:35Z</time><pdop>7.0</pdop><geoidheight>53.00</geoidheight><course>123.5</course><type>1</type></trkpt>
      <trkpt lat="40.59171439" lon="-4.81012373"><ele>2209</ele><speed>12.59</speed><time>2016-07-01T15:48:37Z</time><pdop>7.0</pdop><geoidheight>53.00</geoidheight><course>141.0</course><type>1</type></trkpt>
      <trkpt lat="40.59160872" lon="-4.81001214"><ele>2209</ele><speed>12.78</speed><time>2016-07-01T15:48:38Z</time><pdop>7.0</pdop><geoidheight>53.00</geoidheight><course>142.4</course><type>1</type></trkpt>
      <trkpt lat="40.59142024" lon="-4.80981897"><ele>2211</ele><speed>12.55</speed><time>2016-07-01T15:48:40Z</time><pdop>7.0</pdop><geoidheight>53.00</geoidheight><course>147.9</course><type>1</type></trkpt>
      <trkpt lat="40.59123793" lon="-4.8098072"><ele>2212</ele><speed>10.73</speed><time>2016-07-01T15:48:42Z</time><pdop>8.0</pdop><geoidheight>53.00</geoidheight><course>160.9</course><type>1</type></trkpt>
      <trkpt lat="40.59107854" lon="-4.80983706"><ele>2213</ele><speed>9.44</speed><time>2016-07-01T15:48:44Z</time><pdop>5.0</pdop><geoidheight>53.00</geoidheight><course>183.9</course><type>1</type></trkpt>
      <trkpt lat="40.59093258" lon="-4.80989074"><ele>2214</ele><speed>8.69</speed><time>2016-07-01T15:48:46Z</time><pdop>6.0</pdop><geoidheight>53.00</geoidheight><course>193.4</course><type>1</type></trkpt>
      <trkpt lat="40.59091666" lon="-4.8100461"><ele>2215</ele><speed>6.69</speed><time>2016-07-01T15:48:48Z</time><pdop>5.0</pdop><geoidheight>53.00</geoidheight><course>244.9</course><type>1</type></trkpt>
      <trkpt lat="40.59102874" lon="-4.81017338"><ele>2218</ele><speed>4.74</speed><time>2016-07-01T15:48:51Z</time><pdop>8.0</pdop><geoidheight>53.00</geoidheight><course>312.3</course><type>1</type></trkpt>
      <trkpt lat="40.5912542" lon="-4.81001487"><ele>2218</ele><speed>5.74</speed><time>2016-07-01T15:48:54Z</time><pdop>9.0</pdop><geoidheight>53.00</geoidheight><course>25.5</course><type>1</type></trkpt>
      <trkpt lat="40.59140769" lon="-4.80977657"><ele>2217</ele><speed>11.69</speed><time>2016-07-01T15:48:55Z</time><pdop>9.0</pdop><geoidheight>53.00</geoidheight><course>46.9</course><type>1</type></trkpt>
      <trkpt lat="40.59141713" lon="-4.80944595"><ele>2218</ele><speed>13.13</speed><time>2016-07-01T15:48:57Z</time><pdop>5.0</pdop><geoidheight>53.00</geoidheight><course>86.2</course><type>1</type></trkpt>
      <trkpt lat="40.59141268" lon="-4.8092789"><ele>2221</ele><speed>13.48</speed><time>2016-07-01T15:48:58Z</time><pdop>5.0</pdop><geoidheight>53.00</geoidheight><course>93.0</course><type>1</type></trkpt>
      <trkpt lat="40.59137907" lon="-4.8091142"><ele>2221</ele><speed>13.52</speed><time>2016-07-01T15:48:59Z</time><pdop>5.0</pdop><geoidheight>53.00</geoidheight><course>100.2</course><type>1</type></trkpt>
      <trkpt lat="40.59135404" lon="-4.8089681"><ele>2222</ele><speed>13.05</speed><time>2016-07-01T15:49:00Z</time><pdop>4.0</pdop><geoidheight>53.00</geoidheight><course>109.8</course><type>1</type></trkpt>
      <trkpt lat="40.59129702" lon="-4.80883257"><ele>2222</ele><speed>13.05</speed><time>2016-07-01T15:49:01Z</time><pdop>4.0</pdop><geoidheight>53.00</geoidheight><course>117.3</course><type>1</type></trkpt>
      <trkpt lat="40.59124187" lon="-4.80869965"><ele>2223</ele><speed>13.38</speed><time>2016-07-01T15:49:02Z</time><pdop>4.0</pdop><geoidheight>53.00</geoidheight><course>123.8</course><type>1</type></trkpt>
      <trkpt lat="40.59116601" lon="-4.80857227"><ele>2223</ele><speed>13.70</speed><time>2016-07-01T15:49:03Z</time><pdop>3.0</pdop><geoidheight>53.00</geoidheight><course>130.2</course><type>1</type></trkpt>
      <trkpt lat="40.59108572" lon="-4.80847073"><ele>2226</ele><speed>13.18</speed><time>2016-07-01T15:49:04Z</time><pdop>4.0</pdop><geoidheight>53.00</geoidheight><course>138.0</course><type>1</type></trkpt>
      <trkpt lat="40.59099281" lon="-4.80837278"><ele>2225</ele><speed>12.95</speed><time>2016-07-01T15:49:05Z</time><pdop>4.0</pdop><geoidheight>53.00</geoidheight><course>144.0</course><type>1</type></trkpt>
      <trkpt lat="40.5908995" lon="-4.80834326"><ele>2228</ele><speed>11.23</speed><time>2016-07-01T15:49:06Z</time><pdop>4.0</pdop><geoidheight>53.00</geoidheight><course>157.2</course><type>1</type></trkpt>
      <trkpt lat="40.59079934" lon="-4.80829587"><ele>2228</ele><speed>11.47</speed><time>2016-07-01T15:49:07Z</time><pdop>5.0</pdop><geoidheight>53.00</geoidheight><course>160.1</course><type>1</type></trkpt>
      <trkpt lat="40.59065044" lon="-4.80833826"><ele>2225</ele><speed>8.98</speed><time>2016-07-01T15:49:09Z</time><pdop>7.0</pdop><geoidheight>53.00</geoidheight><course>178.4</course><type>1</type></trkpt>
      <trkpt lat="40.59056402" lon="-4.808578"><ele>2225</ele><speed>6.65</speed><time>2016-07-01T15:49:12Z</time><pdop>8.0</pdop><geoidheight>53.00</geoidheight><course>224.1</course><type>1</type></trkpt>
      <trkpt lat="40.59069274" lon="-4.80873603"><ele>2225</ele><speed>5.42</speed><time>2016-07-01T15:49:15Z</time><pdop>7.0</pdop><geoidheight>53.00</geoidheight><course>300.6</course><type>1</type></trkpt>
      <trkpt lat="40.5908514" lon="-4.80869721"><ele>2226</ele><speed>5.19</speed><time>2016-07-01T15:49:17Z</time><pdop>7.0</pdop><geoidheight>53.00</geoidheight><course>350.4</course><type>1</type></trkpt>
      <trkpt lat="40.59102511" lon="-4.80849482"><ele>2224</ele><speed>7.69</speed><time>2016-07-01T15:49:19Z</time><pdop>7.0</pdop><geoidheight>53.00</geoidheight><course>31.6</course><type>1</type></trkpt>
      <trkpt lat="40.591081" lon="-4.80835002"><ele>2225</ele><speed>9.84</speed><time>2016-07-01T15:49:20Z</time><pdop>6.0</pdop><geoidheight>53.00</geoidheight><course>50.4</course><type>1</type></trkpt>
      <trkpt lat="40.59110363" lon="-4.80820821"><ele>2225</ele><speed>9.37</speed><time>2016-07-01T15:49:21Z</time><pdop>6.0</pdop><geoidheight>53.00</geoidheight><course>67.9</course><type>1</type></trkpt>
      <trkpt lat="40.59110205" lon="-4.80806306"><ele>2226</ele><speed>9.66</speed><time>2016-07-01T15:49:22Z</time><pdop>6.0</pdop><geoidheight>53.00</geoidheight><course>85.1</course><type>1</type></trkpt>
      <trkpt lat="40.59105293" lon="-4.8078544"><ele>2228</ele><speed>12.91</speed><time>2016-07-01T15:49:23Z</time><pdop>6.0</pdop><geoidheight>53.00</geoidheight><course>108.9</course><type>1</type></trkpt>
      <trkpt lat="40.59099933" lon="-4.80768782"><ele>2229</ele><speed>13.85</speed><time>2016-07-01T15:49:24Z</time><pdop>5.0</pdop><geoidheight>53.00</geoidheight><course>117.9</course><type>1</type></trkpt>
      <trkpt lat="40.59092547" lon="-4.80755915"><ele>2230</ele><speed>13.09</speed><time>2016-07-01T15:49:25Z</time><pdop>5.0</pdop><geoidheight>53.00</geoidheight><course>130.5</course><type>1</type></trkpt>
      <trkpt lat="40.5908348" lon="-4.80744551"><ele>2230</ele><speed>13.13</speed><time>2016-07-01T15:49:26Z</time><pdop>5.0</pdop><geoidheight>53.00</geoidheight><course>132.8</course><type>1</type></trkpt>
      <trkpt lat="40.590746" lon="-4.8073109"><ele>2231</ele><speed>13.51</speed><time>2016-07-01T15:49:27Z</time><pdop>6.0</pdop><geoidheight>53.00</geoidheight><course>133.3</course><type>1</type></trkpt>
      <trkpt lat="40.59061167" lon="-4.80719163"><ele>2231</ele><speed>11.07</speed><time>2016-07-01T15:49:29Z</time><pdop>8.0</pdop><geoidheight>53.00</geoidheight><course>138.1</course><type>1</type></trkpt>
      <trkpt lat="40.59063511" lon="-4.80745837"><ele>2233</ele><speed>5.42</speed><time>2016-07-01T15:49:33Z</time><pdop>10.0</pdop><geoidheight>53.00</geoidheight><course>297.4</course><type>1</type></trkpt>
      <trkpt lat="40.59091833" lon="-4.80743862"><ele>2240</ele><speed>6.98</speed><time>2016-07-01T15:49:38Z</time><pdop>11.0</pdop><geoidheight>53.00</geoidheight><course>17.0</course><type>1</type></trkpt>
      <trkpt lat="40.59118479" lon="-4.80709701"><ele>2244</ele><speed>13.46</speed><time>2016-07-01T15:49:41Z</time><pdop>6.0</pdop><geoidheight>53.00</geoidheight><course>53.8</course><type>1</type></trkpt>
      <trkpt lat="40.5911512" lon="-4.80694033"><ele>2244</ele><speed>13.45</speed><time>2016-07-01T15:49:42Z</time><pdop>5.0</pdop><geoidheight>53.00</geoidheight><course>78.7</course><type>1</type></trkpt>
      <trkpt lat="40.59116519" lon="-4.80676953"><ele>2244</ele><speed>13.85</speed><time>2016-07-01T15:49:43Z</time><pdop>5.0</pdop><geoidheight>53.00</geoidheight><course>81.7</course><type>1</type></trkpt>
      <trkpt lat="40.59115548" lon="-4.80661379"><ele>2245</ele><speed>13.52</speed><time>2016-07-01T15:49:44Z</time><pdop>5.0</pdop><geoidheight>53.00</geoidheight><course>94.2</course><type>1</type></trkpt>
      <trkpt lat="40.59115476" lon="-4.80644718"><ele>2245</ele><speed>13.57</speed><time>2016-07-01T15:49:45Z</time><pdop>5.0</pdop><geoidheight>53.00</geoidheight><course>94.8</course><type>1</type></trkpt>
      <trkpt lat="40.59111371" lon="-4.80628575"><ele>2243</ele><speed>13.96</speed><time>2016-07-01T15:49:46Z</time><pdop>5.0</pdop><geoidheight>53.00</geoidheight><course>102.7</course><type>1</type></trkpt>
      <trkpt lat="40.5910808" lon="-4.80612363"><ele>2242</ele><speed>13.89</speed><time>2016-07-01T15:49:47Z</time><pdop>4.0</pdop><geoidheight>53.00</geoidheight><course>106.5</course><type>1</type></trkpt>
      <trkpt lat="40.59104048" lon="-4.80597481"><ele>2240</ele><speed>14.02</speed><time>2016-07-01T15:49:48Z</time><pdop>4.0</pdop><geoidheight>53.00</geoidheight><course>112.2</course><type>1</type></trkpt>
      <trkpt lat="40.59098044" lon="-4.80583682"><ele>2240</ele><speed>13.37</speed><time>2016-07-01T15:49:49Z</time><pdop>4.0</pdop><geoidheight>53.00</geoidheight><course>118.1</course><type>1</type></trkpt>
      <trkpt lat="40.5909177" lon="-4.8057164"><ele>2241</ele><speed>12.06</speed><time>2016-07-01T15:49:50Z</time><pdop>4.0</pdop><geoidheight>53.00</geoidheight><course>126.5</course><type>1</type></trkpt>
      <trkpt lat="40.59085596" lon="-4.80562269"><ele>2241</ele><speed>10.99</speed><time>2016-07-01T15:49:51Z</time><pdop>4.0</pdop><geoidheight>53.00</geoidheight><course>134.8</course><type>1</type></trkpt>
      <trkpt lat="40.59079643" lon="-4.80557663"><ele>2242</ele><speed>8.41</speed><time>2016-07-01T15:49:52Z</time><pdop>3.0</pdop><geoidheight>53.00</geoidheight><course>145.7</course><type>1</type></trkpt>
      <trkpt lat="40.59073331" lon="-4.80552125"><ele>2242</ele><speed>7.79</speed><time>2016-07-01T15:49:53Z</time><pdop>4.0</pdop><geoidheight>53.00</geoidheight><course>148.6</course><type>1</type></trkpt>
      <trkpt lat="40.59064707" lon="-4.8054489"><ele>2242</ele><speed>6.55</speed><time>2016-07-01T15:49:55Z</time><pdop>7.0</pdop><geoidheight>53.00</geoidheight><course>149.3</course><type>1</type></trkpt>
      <trkpt lat="40.59045365" lon="-4.80542573"><ele>2241</ele><speed>8.65</speed><time>2016-07-01T15:49:57Z</time><pdop>7.0</pdop><geoidheight>53.00</geoidheight><course>169.6</course><type>1</type></trkpt>
      <trkpt lat="40.5903146" lon="-4.80553094"><ele>2242</ele><speed>8.22</speed><time>2016-07-01T15:49:59Z</time><pdop>8.0</pdop><geoidheight>53.00</geoidheight><course>186.8</course><type>1</type></trkpt>
      <trkpt lat="40.59013541" lon="-4.8055705"><ele>2242</ele><speed>11.04</speed><time>2016-07-01T15:50:01Z</time><pdop>6.0</pdop><geoidheight>53.00</geoidheight><course>186.8</course><type>1</type></trkpt>
      <trkpt lat="40.59003358" lon="-4.80563468"><ele>2240</ele><speed>11.42</speed><time>2016-07-01T15:50:02Z</time><pdop>5.0</pdop><geoidheight>53.00</geoidheight><course>187.3</course><type>1</type></trkpt>
      <trkpt lat="40.58993176" lon="-4.80564258"><ele>2241</ele><speed>11.05</speed><time>2016-07-01T15:50:03Z</time><pdop>5.0</pdop><geoidheight>53.00</geoidheight><course>185.7</course><type>1</type></trkpt>
      <trkpt lat="40.5898343" lon="-4.80564056"><ele>2239</ele><speed>10.70</speed><time>2016-07-01T15:50:04Z</time><pdop>5.0</pdop><geoidheight>53.00</geoidheight><course>182.4</course><type>1</type></trkpt>
      <trkpt lat="40.58964798" lon="-4.80565256"><ele>2244</ele><speed>10.90</speed><time>2016-07-01T15:50:06Z</time><pdop>7.0</pdop><geoidheight>53.00</geoidheight><course>181.9</course><type>1</type></trkpt>
      <trkpt lat="40.58949754" lon="-4.80562116"><ele>2248</ele><speed>9.93</speed><time>2016-07-01T15:50:08Z</time><pdop>7.0</pdop><geoidheight>53.00</geoidheight><course>176.6</course><type>1</type></trkpt>
      <trkpt lat="40.58934446" lon="-4.80565437"><ele>2248</ele><speed>9.13</speed><time>2016-07-01T15:50:10Z</time><pdop>5.0</pdop><geoidheight>53.00</geoidheight><course>193.8</course><type>1</type></trkpt>
      <trkpt lat="40.58917674" lon="-4.80569159"><ele>2250</ele><speed>9.01</speed><time>2016-07-01T15:50:12Z</time><pdop>8.0</pdop><geoidheight>53.00</geoidheight><course>194.1</course><type>1</type></trkpt>
      <trkpt lat="40.58919385" lon="-4.80593087"><ele>2247</ele><speed>6.31</speed><time>2016-07-01T15:50:15Z</time><pdop>9.0</pdop><geoidheight>53.00</geoidheight><course>257.7</course><type>1</type></trkpt>
      <trkpt lat="40.58935245" lon="-4.80606516"><ele>2246</ele><speed>6.65</speed><time>2016-07-01T15:50:17Z</time><pdop>10.0</pdop><geoidheight>53.00</geoidheight><course>305.6</course><type>1</type></trkpt>
      <trkpt lat="40.58955305" lon="-4.80589718"><ele>2241</ele><speed>5.48</speed><time>2016-07-01T15:50:20Z</time><pdop>9.0</pdop><geoidheight>53.00</geoidheight><course>38.9</course><type>1</type></trkpt>
      <trkpt lat="40.5897017" lon="-4.80572335"><ele>2241</ele><speed>9.47</speed><time>2016-07-01T15:50:21Z</time><pdop>9.0</pdop><geoidheight>53.00</geoidheight><course>46.7</course><type>1</type></trkpt>
      <trkpt lat="40.58990824" lon="-4.80541742"><ele>2242</ele><speed>14.28</speed><time>2016-07-01T15:50:23Z</time><pdop>6.0</pdop><geoidheight>53.00</geoidheight><course>52.8</course><type>1</type></trkpt>
      <trkpt lat="40.58997606" lon="-4.80526292"><ele>2241</ele><speed>14.54</speed><time>2016-07-01T15:50:24Z</time><pdop>6.0</pdop><geoidheight>53.00</geoidheight><course>57.6</course><type>1</type></trkpt>
      <trkpt lat="40.59004902" lon="-4.80510036"><ele>2240</ele><speed>15.40</speed><time>2016-07-01T15:50:25Z</time><pdop>5.0</pdop><geoidheight>53.00</geoidheight><course>60.6</course><type>1</type></trkpt>
      <trkpt lat="40.59010973" lon="-4.80495004"><ele>2240</ele><speed>15.14</speed><time>2016-07-01T15:50:26Z</time><pdop>5.0</pdop><geoidheight>53.00</geoidheight><course>62.0</course><type>1</type></trkpt>
      <trkpt lat="40.59015573" lon="-4.80482366"><ele>2239</ele><speed>14.29</speed><time>2016-07-01T15:50:27Z</time><pdop>6.0</pdop><geoidheight>53.00</geoidheight><course>61.5</course><type>1</type></trkpt>
      <trkpt lat="40.59021842" lon="-4.80467264"><ele>2240</ele><speed>13.40</speed><time>2016-07-01T15:50:28Z</time><pdop>5.0</pdop><geoidheight>53.00</geoidheight><course>63.7</course><type>1</type></trkpt>
      <trkpt lat="40.59025427" lon="-4.80452854"><ele>2239</ele><speed>13.32</speed><time>2016-07-01T15:50:29Z</time><pdop>5.0</pdop><geoidheight>53.00</geoidheight><course>67.5</course><type>1</type></trkpt>
      <trkpt lat="40.59030501" lon="-4.80438073"><ele>2240</ele><speed>12.79</speed><time>2016-07-01T15:50:30Z</time><pdop>4.0</pdop><geoidheight>53.00</geoidheight><course>68.5</course><type>1</type></trkpt>
      <trkpt lat="40.59035215" lon="-4.80423508"><ele>2240</ele><speed>12.67</speed><time>2016-07-01T15:50:31Z</time><pdop>4.0</pdop><geoidheight>53.00</geoidheight><course>66.8</course><type>1</type></trkpt>
      <trkpt lat="40.59039892" lon="-4.80408837"><ele>2239</ele><speed>12.63</speed><time>2016-07-01T15:50:32Z</time><pdop>4.0</pdop><geoidheight>53.00</geoidheight><course>66.9</course><type>1</type></trkpt>
      <trkpt lat="40.59043761" lon="-4.80394828"><ele>2239</ele><speed>12.27</speed><time>2016-07-01T15:50:33Z</time><pdop>4.0</pdop><geoidheight>53.00</geoidheight><course>68.7</course><type>1</type></trkpt>
      <trkpt lat="40.59046593" lon="-4.80382258"><ele>2239</ele><speed>11.59</speed><time>2016-07-01T15:50:34Z</time><pdop>4.0</pdop><geoidheight>53.00</geoidheight><course>72.1</course><type>1</type></trkpt>
      <trkpt lat="40.59048828" lon="-4.80370303"><ele>2239</ele><speed>10.93</speed><time>2016-07-01T15:50:35Z</time><pdop>4.0</pdop><geoidheight>53.00</geoidheight><course>74.8</course><type>1</type></trkpt>
      <trkpt lat="40.59051427" lon="-4.80357776"><ele>2239</ele><speed>10.63</speed><time>2016-07-01T15:50:36Z</time><pdop>4.0</pdop><geoidheight>53.00</geoidheight><course>75.8</course><type>1</type></trkpt>
      <trkpt lat="40.59053167" lon="-4.80345491"><ele>2238</ele><speed>10.68</speed><time>2016-07-01T15:50:37Z</time><pdop>4.0</pdop><geoidheight>53.00</geoidheight><course>77.8</course><type>1</type></trkpt>
      <trkpt lat="40.5905643" lon="-4.80333163"><ele>2237</ele><speed>10.85</speed><time>2016-07-01T15:50:38Z</time><pdop>4.0</pdop><geoidheight>53.00</geoidheight><course>77.0</course><type>1</type></trkpt>
      <trkpt lat="40.59058666" lon="-4.80320398"><ele>2237</ele><speed>11.06</speed><time>2016-07-01T15:50:39Z</time><pdop>4.0</pdop><geoidheight>53.00</geoidheight><course>77.9</course><type>1</type></trkpt>
      <trkpt lat="40.59061231" lon="-4.80307341"><ele>2237</ele><speed>11.32</speed><time>2016-07-01T15:50:40Z</time><pdop>5.0</pdop><geoidheight>53.00</geoidheight><course>78.2</course><type>1</type></trkpt>
      <trkpt lat="40.59064137" lon="-4.80292233"><ele>2235</ele><speed>12.15</speed><time>2016-07-01T15:50:41Z</time><pdop>6.0</pdop><geoidheight>53.00</geoidheight><course>78.2</course><type>1</type></trkpt>
      <trkpt lat="40.59058526" lon="-4.80279301"><ele>2235</ele><speed>11.87</speed><time>2016-07-01T15:50:42Z</time><pdop>5.0</pdop><geoidheight>53.00</geoidheight><course>93.2</course><type>1</type></trkpt>
      <trkpt lat="40.59055074" lon="-4.80255574"><ele>2232</ele><speed>10.40</speed><time>2016-07-01T15:50:44Z</time><pdop>11.0</pdop><geoidheight>53.00</geoidheight><course>105.2</course><type>1</type></trkpt>
      <trkpt lat="40.59045218" lon="-4.80227823"><ele>2230</ele><speed>11.34</speed><time>2016-07-01T15:50:46Z</time><pdop>12.0</pdop><geoidheight>53.00</geoidheight><course>111.4</course><type>1</type></trkpt>
      <trkpt lat="40.59016124" lon="-4.80229023"><ele>2222</ele><speed>5.52</speed><time>2016-07-01T15:50:51Z</time><pdop>16.0</pdop><geoidheight>53.00</geoidheight><course>172.7</course><type>1</type></trkpt>
      <trkpt lat="40.58981969" lon="-4.80248096"><ele>2217</ele><speed>8.89</speed><time>2016-07-01T15:50:54Z</time><pdop>14.0</pdop><geoidheight>53.00</geoidheight><course>191.2</course><type>1</type></trkpt>
      <trkpt lat="40.5894798" lon="-4.80261378"><ele>2213</ele><speed>10.86</speed><time>2016-07-01T15:50:57Z</time><pdop>12.0</pdop><geoidheight>53.00</geoidheight><course>187.6</course><type>1</type></trkpt>
      <trkpt lat="40.58922079" lon="-4.80269451"><ele>2210</ele><speed>11.62</speed><time>2016-07-01T15:50:59Z</time><pdop>10.0</pdop><geoidheight>53.00</geoidheight><course>182.6</course><type>1</type></trkpt>
      <trkpt lat="40.58901175" lon="-4.80274015"><ele>2209</ele><speed>10.06</speed><time>2016-07-01T15:51:01Z</time><pdop>10.0</pdop><geoidheight>53.00</geoidheight><course>184.5</course><type>1</type></trkpt>
      <trkpt lat="40.58881838" lon="-4.80277283"><ele>2205</ele><speed>9.68</speed><time>2016-07-01T15:51:03Z</time><pdop>10.0</pdop><geoidheight>53.00</geoidheight><course>190.2</course><type>1</type></trkpt>
      <trkpt lat="40.5886069" lon="-4.80288543"><ele>2202</ele><speed>8.07</speed><time>2016-07-01T15:51:06Z</time><pdop>9.0</pdop><geoidheight>53.00</geoidheight><course>204.1</course><type>1</type></trkpt>
      <trkpt lat="40.58836767" lon="-4.80301533"><ele>2198</ele><speed>9.11</speed><time>2016-07-01T15:51:09Z</time><pdop>11.0</pdop><geoidheight>53.00</geoidheight><course>199.6</course><type>1</type></trkpt>
      <trkpt lat="40.58815313" lon="-4.80307308"><ele>2195</ele><speed>8.26</speed><time>2016-07-01T15:51:12Z</time><pdop>12.0</pdop><geoidheight>53.00</geoidheight><course>195.8</course><type>1</type></trkpt>
      <trkpt lat="40.58795715" lon="-4.80313519"><ele>2189</ele><speed>9.34</speed><time>2016-07-01T15:51:14Z</time><pdop>10.0</pdop><geoidheight>53.00</geoidheight><course>191.1</course><type>1</type></trkpt>
      <trkpt lat="40.58768298" lon="-4.80318554"><ele>2180</ele><speed>9.80</speed><time>2016-07-01T15:51:17Z</time><pdop>10.0</pdop><geoidheight>53.00</geoidheight><course>183.6</course><type>1</type></trkpt>
      <trkpt lat="40.58750373" lon="-4.80324138"><ele>2174</ele><speed>10.06</speed><time>2016-07-01T15:51:19Z</time><pdop>10.0</pdop><geoidheight>53.00</geoidheight><course>188.7</course><type>1</type></trkpt>
      <trkpt lat="40.58726019" lon="-4.80322697"><ele>2171</ele><speed>9.85</speed><time>2016-07-01T15:51:22Z</time><pdop>11.0</pdop><geoidheight>53.00</geoidheight><course>181.1</course><type>1</type></trkpt>
      <trkpt lat="40.58704573" lon="-4.80327885"><ele>2170</ele><speed>10.91</speed><time>2016-07-01T15:51:24Z</time><pdop>11.0</pdop><geoidheight>53.00</geoidheight><course>186.2</course><type>1</type></trkpt>
      <trkpt lat="40.58674024" lon="-4.80332926"><ele>2169</ele><speed>11.53</speed><time>2016-07-01T15:51:27Z</time><pdop>11.0</pdop><geoidheight>53.00</geoidheight><course>189.4</course><type>1</type></trkpt>
      <trkpt lat="40.58651747" lon="-4.80337213"><ele>2170</ele><speed>11.63</speed><time>2016-07-01T15:51:29Z</time><pdop>10.0</pdop><geoidheight>53.00</geoidheight><course>186.0</course><type>1</type></trkpt>
      <trkpt lat="40.5862972" lon="-4.80335511"><ele>2170</ele><speed>11.65</speed><time>2016-07-01T15:51:31Z</time><pdop>10.0</pdop><geoidheight>53.00</geoidheight><course>181.2</course><type>1</type></trkpt>
      <trkpt lat="40.58610141" lon="-4.80335878"><ele>2167</ele><speed>10.66</speed><time>2016-07-01T15:51:33Z</time><pdop>10.0</pdop><geoidheight>53.00</geoidheight><course>174.8</course><type>1</type></trkpt>
      <trkpt lat="40.58591343" lon="-4.80329287"><ele>2164</ele><speed>10.48</speed><time>2016-07-01T15:51:35Z</time><pdop>10.0</pdop><geoidheight>53.00</geoidheight><course>167.9</course><type>1</type></trkpt>
      <trkpt lat="40.58572851" lon="-4.80324946"><ele>2161</ele><speed>10.78</speed><time>2016-07-01T15:51:37Z</time><pdop>9.0</pdop><geoidheight>53.00</geoidheight><course>171.8</course><type>1</type></trkpt>
      <trkpt lat="40.58554571" lon="-4.8031864"><ele>2159</ele><speed>10.44</speed><time>2016-07-01T15:51:39Z</time><pdop>10.0</pdop><geoidheight>53.00</geoidheight><course>168.0</course><type>1</type></trkpt>
      <trkpt lat="40.58531326" lon="-4.8031698"><ele>2159</ele><speed>7.32</speed><time>2016-07-01T15:51:42Z</time><pdop>9.0</pdop><geoidheight>53.00</geoidheight><course>173.7</course><type>1</type></trkpt>
      <trkpt lat="40.58510424" lon="-4.80321946"><ele>2157</ele><speed>6.91</speed><time>2016-07-01T15:51:46Z</time><pdop>9.0</pdop><geoidheight>53.00</geoidheight><course>196.3</course><type>1</type></trkpt>
      <trkpt lat="40.58492461" lon="-4.80332634"><ele>2158</ele><speed>7.06</speed><time>2016-07-01T15:51:49Z</time><pdop>11.0</pdop><geoidheight>53.00</geoidheight><course>204.3</course><type>1</type></trkpt>
      <trkpt lat="40.58470912" lon="-4.80341903"><ele>2156</ele><speed>7.75</speed><time>2016-07-01T15:51:52Z</time><pdop>11.0</pdop><geoidheight>53.00</geoidheight><course>198.9</course><type>1</type></trkpt>
      <trkpt lat="40.5844326" lon="-4.80345119"><ele>2155</ele><speed>6.64</speed><time>2016-07-01T15:51:58Z</time><pdop>12.0</pdop><geoidheight>53.00</geoidheight><course>186.0</course><type>1</type></trkpt>
      <trkpt lat="40.58420572" lon="-4.80347478"><ele>2156</ele><speed>10.95</speed><time>2016-07-01T15:52:00Z</time><pdop>11.0</pdop><geoidheight>53.00</geoidheight><course>177.6</course><type>1</type></trkpt>
      <trkpt lat="40.58396286" lon="-4.80346469"><ele>2158</ele><speed>11.46</speed><time>2016-07-01T15:52:02Z</time><pdop>11.0</pdop><geoidheight>53.00</geoidheight><course>176.8</course><type>1</type></trkpt>
      <trkpt lat="40.58376155" lon="-4.80343163"><ele>2157</ele><speed>10.92</speed><time>2016-07-01T15:52:04Z</time><pdop>10.0</pdop><geoidheight>53.00</geoidheight><course>167.3</course><type>1</type></trkpt>
      <trkpt lat="40.58357384" lon="-4.80344169"><ele>2158</ele><speed>8.78</speed><time>2016-07-01T15:52:06Z</time><pdop>10.0</pdop><geoidheight>53.00</geoidheight><course>183.3</course><type>1</type></trkpt>
      <trkpt lat="40.58341594" lon="-4.80365946"><ele>2159</ele><speed>5.70</speed><time>2016-07-01T15:52:11Z</time><pdop>12.0</pdop><geoidheight>53.00</geoidheight><course>241.1</course><type>1</type></trkpt>
      <trkpt lat="40.58361081" lon="-4.80375696"><ele>2160</ele><speed>4.82</speed><time>2016-07-01T15:52:16Z</time><pdop>11.0</pdop><geoidheight>53.00</geoidheight><course>345.6</course><type>1</type></trkpt>
      <trkpt lat="40.58381013" lon="-4.80366645"><ele>2163</ele><speed>5.96</speed><time>2016-07-01T15:52:19Z</time><pdop>12.0</pdop><geoidheight>53.00</geoidheight><course>16.6</course><type>1</type></trkpt>
      <trkpt lat="40.58404941" lon="-4.8032295"><ele>2166</ele><speed>12.68</speed><time>2016-07-01T15:52:22Z</time><pdop>13.0</pdop><geoidheight>53.00</geoidheight><course>60.7</course><type>1</type></trkpt>
      <trkpt lat="40.58412913" lon="-4.80285892"><ele>2166</ele><speed>15.25</speed><time>2016-07-01T15:52:24Z</time><pdop>7.0</pdop><geoidheight>53.00</geoidheight><course>83.4</course><type>1</type></trkpt>
      <trkpt lat="40.58414517" lon="-4.80266132"><ele>2166</ele><speed>15.74</speed><time>2016-07-01T15:52:25Z</time><pdop>7.0</pdop><geoidheight>53.00</geoidheight><course>89.2</course><type>1</type></trkpt>
      <trkpt lat="40.58413417" lon="-4.80247673"><ele>2167</ele><speed>15.93</speed><time>2016-07-01T15:52:26Z</time><pdop>6.0</pdop><geoidheight>53.00</geoidheight><course>97.4</course><type>1</type></trkpt>
      <trkpt lat="40.58409959" lon="-4.80228959"><ele>2167</ele><speed>15.98</speed><time>2016-07-01T15:52:27Z</time><pdop>5.0</pdop><geoidheight>53.00</geoidheight><course>105.2</course><type>1</type></trkpt>
      <trkpt lat="40.584045" lon="-4.80212269"><ele>2167</ele><speed>15.33</speed><time>2016-07-01T15:52:28Z</time><pdop>4.0</pdop><geoidheight>53.00</geoidheight><course>115.4</course><type>1</type></trkpt>
      <trkpt lat="40.58396955" lon="-4.80198216"><ele>2167</ele><speed>14.56</speed><time>2016-07-01T15:52:29Z</time><pdop>4.0</pdop><geoidheight>53.00</geoidheight><course>124.7</course><type>1</type></trkpt>
      <trkpt lat="40.58388581" lon="-4.80186772"><ele>2166</ele><speed>13.56</speed><time>2016-07-01T15:52:30Z</time><pdop>3.0</pdop><geoidheight>53.00</geoidheight><course>133.1</course><type>1</type></trkpt>
      <trkpt lat="40.58379616" lon="-4.80175623"><ele>2166</ele><speed>13.35</speed><time>2016-07-01T15:52:31Z</time><pdop>3.0</pdop><geoidheight>53.00</geoidheight><course>137.9</course><type>1</type></trkpt>
      <trkpt lat="40.58371139" lon="-4.80166831"><ele>2166</ele><speed>12.33</speed><time>2016-07-01T15:52:32Z</time><pdop>3.0</pdop><geoidheight>53.00</geoidheight><course>144.3</course><type>1</type></trkpt>
      <trkpt lat="40.58362596" lon="-4.80159057"><ele>2167</ele><speed>11.79</speed><time>2016-07-01T15:52:33Z</time><pdop>3.0</pdop><geoidheight>53.00</geoidheight><course>146.4</course><type>1</type></trkpt>
      <trkpt lat="40.58355075" lon="-4.80151408"><ele>2167</ele><speed>11.21</speed><time>2016-07-01T15:52:34Z</time><pdop>4.0</pdop><geoidheight>53.00</geoidheight><course>145.9</course><type>1</type></trkpt>
      <trkpt lat="40.583438" lon="-4.80149257"><ele>2167</ele><speed>11.60</speed><time>2016-07-01T15:52:35Z</time><pdop>4.0</pdop><geoidheight>53.00</geoidheight><course>158.6</course><type>1</type></trkpt>
      <trkpt lat="40.58335754" lon="-4.80149747"><ele>2168</ele><speed>10.14</speed><time>2016-07-01T15:52:36Z</time><pdop>3.0</pdop><geoidheight>53.00</geoidheight><course>172.5</course><type>1</type></trkpt>
      <trkpt lat="40.58327478" lon="-4.80148666"><ele>2168</ele><speed>9.51</speed><time>2016-07-01T15:52:37Z</time><pdop>3.0</pdop><geoidheight>53.00</geoidheight><course>175.5</course><type>1</type></trkpt>
      <trkpt lat="40.58321591" lon="-4.80151962"><ele>2168</ele><speed>8.33</speed><time>2016-07-01T15:52:38Z</time><pdop>3.0</pdop><geoidheight>53.00</geoidheight><course>184.5</course><type>1</type></trkpt>
      <trkpt lat="40.58315257" lon="-4.80154018"><ele>2170</ele><speed>7.11</speed><time>2016-07-01T15:52:39Z</time><pdop>3.0</pdop><geoidheight>53.00</geoidheight><course>193.2</course><type>1</type></trkpt>
      <trkpt lat="40.58304004" lon="-4.80158783"><ele>2171</ele><speed>6.63</speed><time>2016-07-01T15:52:41Z</time><pdop>6.0</pdop><geoidheight>53.00</geoidheight><course>199.6</course><type>1</type></trkpt>
      <trkpt lat="40.58295398" lon="-4.80170538"><ele>2171</ele><speed>6.49</speed><time>2016-07-01T15:52:43Z</time><pdop>7.0</pdop><geoidheight>53.00</geoidheight><course>217.1</course><type>1</type></trkpt>
      <trkpt lat="40.58280389" lon="-4.801785"><ele>2171</ele><speed>6.39</speed><time>2016-07-01T15:52:46Z</time><pdop>11.0</pdop><geoidheight>53.00</geoidheight><course>206.7</course><type>1</type></trkpt>
      <trkpt lat="40.58266855" lon="-4.80197979"><ele>2169</ele><speed>6.27</speed><time>2016-07-01T15:52:49Z</time><pdop>7.0</pdop><geoidheight>53.00</geoidheight><course>227.8</course><type>1</type></trkpt>
      <trkpt lat="40.58259956" lon="-4.80216585"><ele>2167</ele><speed>8.00</speed><time>2016-07-01T15:52:51Z</time><pdop>6.0</pdop><geoidheight>53.00</geoidheight><course>244.6</course><type>1</type></trkpt>
      <trkpt lat="40.58251879" lon="-4.8023491"><ele>2166</ele><speed>9.04</speed><time>2016-07-01T15:52:53Z</time><pdop>6.0</pdop><geoidheight>53.00</geoidheight><course>241.6</course><type>1</type></trkpt>
      <trkpt lat="40.58247456" lon="-4.80253021"><ele>2164</ele><speed>9.08</speed><time>2016-07-01T15:52:55Z</time><pdop>5.0</pdop><geoidheight>53.00</geoidheight><course>246.6</course><type>1</type></trkpt>
      <trkpt lat="40.5824045" lon="-4.8028661"><ele>2160</ele><speed>6.87</speed><time>2016-07-01T15:52:59Z</time><pdop>10.0</pdop><geoidheight>53.00</geoidheight><course>245.6</course><type>1</type></trkpt>
      <trkpt lat="40.58226121" lon="-4.80311274"><ele>2164</ele><speed>7.78</speed><time>2016-07-01T15:53:02Z</time><pdop>14.0</pdop><geoidheight>53.00</geoidheight><course>238.2</course><type>1</type></trkpt>
      <trkpt lat="40.5821585" lon="-4.80342923"><ele>2164</ele><speed>8.70</speed><time>2016-07-01T15:53:05Z</time><pdop>14.0</pdop><geoidheight>53.00</geoidheight><course>250.3</course><type>1</type></trkpt>
      <trkpt lat="40.58218426" lon="-4.80372359"><ele>2165</ele><speed>9.67</speed><time>2016-07-01T15:53:09Z</time><pdop>7.0</pdop><geoidheight>53.00</geoidheight><course>259.9</course><type>1</type></trkpt>
      <trkpt lat="40.58215595" lon="-4.80393493"><ele>2169</ele><speed>8.93</speed><time>2016-07-01T15:53:11Z</time><pdop>7.0</pdop><geoidheight>53.00</geoidheight><course>260.2</course><type>1</type></trkpt>
      <trkpt lat="40.58218967" lon="-4.80411964"><ele>2172</ele><speed>7.91</speed><time>2016-07-01T15:53:13Z</time><pdop>7.0</pdop><geoidheight>53.00</geoidheight><course>276.5</course><type>1</type></trkpt>
      <trkpt lat="40.58225332" lon="-4.80428881"><ele>2173</ele><speed>7.61</speed><time>2016-07-01T15:53:15Z</time><pdop>7.0</pdop><geoidheight>53.00</geoidheight><course>287.2</course><type>1</type></trkpt>
      <trkpt lat="40.58228045" lon="-4.80452897"><ele>2174</ele><speed>6.53</speed><time>2016-07-01T15:53:18Z</time><pdop>9.0</pdop><geoidheight>53.00</geoidheight><course>279.5</course><type>1</type></trkpt>
      <trkpt lat="40.58229696" lon="-4.80480395"><ele>2177</ele><speed>5.08</speed><time>2016-07-01T15:53:22Z</time><pdop>9.0</pdop><geoidheight>53.00</geoidheight><course>261.3</course><type>1</type></trkpt>
      <trkpt lat="40.5821978" lon="-4.80497058"><ele>2176</ele><speed>7.00</speed><time>2016-07-01T15:53:24Z</time><pdop>8.0</pdop><geoidheight>53.00</geoidheight><course>231.9</course><type>1</type></trkpt>
      <trkpt lat="40.58195184" lon="-4.80495695"><ele>2177</ele><speed>9.90</speed><time>2016-07-01T15:53:27Z</time><pdop>7.0</pdop><geoidheight>53.00</geoidheight><course>176.2</course><type>1</type></trkpt>
      <trkpt lat="40.58181847" lon="-4.80488644"><ele>2177</ele><speed>11.97</speed><time>2016-07-01T15:53:28Z</time><pdop>7.0</pdop><geoidheight>53.00</geoidheight><course>160.7</course><type>1</type></trkpt>
      <trkpt lat="40.58169759" lon="-4.80483388"><ele>2177</ele><speed>12.71</speed><time>2016-07-01T15:53:29Z</time><pdop>7.0</pdop><geoidheight>53.00</geoidheight><course>159.0</course><type>1</type></trkpt>
      <trkpt lat="40.58158594" lon="-4.80451759"><ele>2178</ele><speed>12.97</speed><time>2016-07-01T15:53:31Z</time><pdop>12.0</pdop><geoidheight>53.00</geoidheight><course>134.3</course><type>1</type></trkpt>
      <trkpt lat="40.58148232" lon="-4.80404575"><ele>2180</ele><speed>16.00</speed><time>2016-07-01T15:53:33Z</time><pdop>13.0</pdop><geoidheight>53.00</geoidheight><course>115.6</course><type>1</type></trkpt>
      <trkpt lat="40.58147493" lon="-4.80368606"><ele>2185</ele><speed>13.84</speed><time>2016-07-01T15:53:35Z</time><pdop>14.0</pdop><geoidheight>53.00</geoidheight><course>105.6</course><type>1</type></trkpt>
      <trkpt lat="40.5817355" lon="-4.80339845"><ele>2192</ele><speed>6.10</speed><time>2016-07-01T15:53:39Z</time><pdop>18.0</pdop><geoidheight>53.00</geoidheight><course>47.5</course><type>1</type></trkpt>
      <trkpt lat="40.58210741" lon="-4.80350808"><ele>2199</ele><speed>6.06</speed><time>2016-07-01T15:53:42Z</time><pdop>17.0</pdop><geoidheight>53.00</geoidheight><course>6.3</course><type>1</type></trkpt>
      <trkpt lat="40.58193312" lon="-4.80382955"><ele>2208</ele><speed>6.78</speed><time>2016-07-01T15:53:47Z</time><pdop>12.0</pdop><geoidheight>53.00</geoidheight><course>188.2</course><type>1</type></trkpt>
      <trkpt lat="40.58168183" lon="-4.8037776"><ele>2213</ele><speed>11.55</speed><time>2016-07-01T15:53:50Z</time><pdop>8.0</pdop><geoidheight>53.00</geoidheight><course>164.3</course><type>1</type></trkpt>
      <trkpt lat="40.58147293" lon="-4.80368543"><ele>2215</ele><speed>12.65</speed><time>2016-07-01T15:53:52Z</time><pdop>6.0</pdop><geoidheight>53.00</geoidheight><course>160.1</course><type>1</type></trkpt>
      <trkpt lat="40.58135973" lon="-4.80360745"><ele>2216</ele><speed>13.07</speed><time>2016-07-01T15:53:53Z</time><pdop>6.0</pdop><geoidheight>53.00</geoidheight><course>158.7</course><type>1</type></trkpt>
      <trkpt lat="40.58123994" lon="-4.80353416"><ele>2217</ele><speed>13.22</speed><time>2016-07-01T15:53:54Z</time><pdop>5.0</pdop><geoidheight>53.00</geoidheight><course>157.7</course><type>1</type></trkpt>
      <trkpt lat="40.58113027" lon="-4.80349221"><ele>2219</ele><speed>12.77</speed><time>2016-07-01T15:53:55Z</time><pdop>5.0</pdop><geoidheight>53.00</geoidheight><course>159.2</course><type>1</type></trkpt>
      <trkpt lat="40.58103156" lon="-4.8034383"><ele>2220</ele><speed>11.93</speed><time>2016-07-01T15:53:56Z</time><pdop>4.0</pdop><geoidheight>53.00</geoidheight><course>161.9</course><type>1</type></trkpt>
      <trkpt lat="40.58093305" lon="-4.80338341"><ele>2222</ele><speed>11.69</speed><time>2016-07-01T15:53:57Z</time><pdop>5.0</pdop><geoidheight>53.00</geoidheight><course>161.7</course><type>1</type></trkpt>
      <trkpt lat="40.580823" lon="-4.8033828"><ele>2223</ele><speed>11.67</speed><time>2016-07-01T15:53:58Z</time><pdop>7.0</pdop><geoidheight>53.00</geoidheight><course>168.7</course><type>1</type></trkpt>
      <trkpt lat="40.58077915" lon="-4.80356207"><ele>2228</ele><speed>6.02</speed><time>2016-07-01T15:54:00Z</time><pdop>6.0</pdop><geoidheight>53.00</geoidheight><course>219.2</course><type>1</type></trkpt>
      <trkpt lat="40.58067126" lon="-4.80371282"><ele>2232</ele><speed>6.30</speed><time>2016-07-01T15:54:03Z</time><pdop>8.0</pdop><geoidheight>53.00</geoidheight><course>233.2</course><type>1</type></trkpt>
      <trkpt lat="40.58085931" lon="-4.80341984"><ele>2242</ele><speed>5.44</speed><time>2016-07-01T15:54:08Z</time><pdop>14.0</pdop><geoidheight>53.00</geoidheight><course>69.4</course><type>1</type></trkpt>
      <trkpt lat="40.58101724" lon="-4.8031213"><ele>2244</ele><speed>11.00</speed><time>2016-07-01T15:54:10Z</time><pdop>11.0</pdop><geoidheight>53.00</geoidheight><course>68.3</course><type>1</type></trkpt>
      <trkpt lat="40.58111397" lon="-4.80278792"><ele>2248</ele><speed>12.28</speed><time>2016-07-01T15:54:12Z</time><pdop>10.0</pdop><geoidheight>53.00</geoidheight><course>79.0</course><type>1</type></trkpt>
      <trkpt lat="40.58101617" lon="-4.8024894"><ele>2250</ele><speed>12.58</speed><time>2016-07-01T15:54:14Z</time><pdop>11.0</pdop><geoidheight>53.00</geoidheight><course>108.5</course><type>1</type></trkpt>
      <trkpt lat="40.58079969" lon="-4.80233502"><ele>2253</ele><speed>12.96</speed><time>2016-07-01T15:54:16Z</time><pdop>9.0</pdop><geoidheight>53.00</geoidheight><course>147.3</course><type>1</type></trkpt>
      <trkpt lat="40.58060117" lon="-4.80225015"><ele>2259</ele><speed>10.64</speed><time>2016-07-01T15:54:18Z</time><pdop>9.0</pdop><geoidheight>53.00</geoidheight><course>163.5</course><type>1</type></trkpt>
      <trkpt lat="40.58044847" lon="-4.80227196"><ele>2265</ele><speed>5.44</speed><time>2016-07-01T15:54:21Z</time><pdop>6.0</pdop><geoidheight>53.00</geoidheight><course>214.6</course><type>1</type></trkpt>
      <trkpt lat="40.58065169" lon="-4.80214279"><ele>2286</ele><speed>7.17</speed><time>2016-07-01T15:54:29Z</time><pdop>12.0</pdop><geoidheight>53.00</geoidheight><course>60.4</course><type>1</type></trkpt>
      <trkpt lat="40.5807726" lon="-4.80187231"><ele>2293</ele><speed>9.67</speed><time>2016-07-01T15:54:31Z</time><pdop>11.0</pdop><geoidheight>53.00</geoidheight><course>85.6</course><type>1</type></trkpt>
      <trkpt lat="40.58082481" lon="-4.80152468"><ele>2295</ele><speed>12.15</speed><time>2016-07-01T15:54:33Z</time><pdop>12.0</pdop><geoidheight>53.00</geoidheight><course>84.9</course><type>1</type></trkpt>
      <trkpt lat="40.58075631" lon="-4.8011328"><ele>2296</ele><speed>13.99</speed><time>2016-07-01T15:54:35Z</time><pdop>12.0</pdop><geoidheight>53.00</geoidheight><course>98.2</course><type>1</type></trkpt>
      <trkpt lat="40.58051448" lon="-4.80086234"><ele>2299</ele><speed>14.83</speed><time>2016-07-01T15:54:37Z</time><pdop>9.0</pdop><geoidheight>53.00</geoidheight><course>121.6</course><type>1</type></trkpt>
      <trkpt lat="40.58026417" lon="-4.80094409"><ele>2302</ele><speed>11.24</speed><time>2016-07-01T15:54:39Z</time><pdop>9.0</pdop><geoidheight>53.00</geoidheight><course>155.9</course><type>1</type></trkpt>
      <trkpt lat="40.58023162" lon="-4.80120431"><ele>2306</ele><speed>5.76</speed><time>2016-07-01T15:54:42Z</time><pdop>11.0</pdop><geoidheight>53.00</geoidheight><course>236.0</course><type>1</type></trkpt>
      <trkpt lat="40.58048325" lon="-4.80117295"><ele>2331</ele><speed>11.72</speed><time>2016-07-01T15:54:47Z</time><pdop>9.0</pdop><geoidheight>53.00</geoidheight><course>54.3</course><type>1</type></trkpt>
      <trkpt lat="40.58059426" lon="-4.80083405"><ele>2337</ele><speed>14.80</speed><time>2016-07-01T15:54:49Z</time><pdop>7.0</pdop><geoidheight>53.00</geoidheight><course>81.0</course><type>1</type></trkpt>
      <trkpt lat="40.580614" lon="-4.80063825"><ele>2339</ele><speed>15.24</speed><time>2016-07-01T15:54:50Z</time><pdop>7.0</pdop><geoidheight>53.00</geoidheight><course>94.4</course><type>1</type></trkpt>
      <trkpt lat="40.58061211" lon="-4.80045823"><ele>2341</ele><speed>15.06</speed><time>2016-07-01T15:54:51Z</time><pdop>6.0</pdop><geoidheight>53.00</geoidheight><course>107.8</course><type>1</type></trkpt>
      <trkpt lat="40.58058013" lon="-4.80028712"><ele>2342</ele><speed>15.38</speed><time>2016-07-01T15:54:52Z</time><pdop>6.0</pdop><geoidheight>53.00</geoidheight><course>109.4</course><type>1</type></trkpt>
      <trkpt lat="40.58054794" lon="-4.80011773"><ele>2344</ele><speed>15.51</speed><time>2016-07-01T15:54:53Z</time><pdop>6.0</pdop><geoidheight>53.00</geoidheight><course>112.2</course><type>1</type></trkpt>
      <trkpt lat="40.58047247" lon="-4.79997077"><ele>2345</ele><speed>15.46</speed><time>2016-07-01T15:54:54Z</time><pdop>8.0</pdop><geoidheight>53.00</geoidheight><course>118.7</course><type>1</type></trkpt>
      <trkpt lat="40.58033577" lon="-4.79995387"><ele>2345</ele><speed>10.31</speed><time>2016-07-01T15:54:56Z</time><pdop>6.0</pdop><geoidheight>53.00</geoidheight><course>140.4</course><type>1</type></trkpt>
      <trkpt lat="40.58015018" lon="-4.79990374"><ele>2148</ele><speed>10.02</speed><time>2016-07-01T15:54:58Z</time><pdop>10.0</pdop><geoidheight>53.00</geoidheight><course>157.2</course><type>1</type></trkpt>
      <trkpt lat="40.58005168" lon="-4.80015878"><ele>2231</ele><speed>6.37</speed><time>2016-07-01T15:55:01Z</time><pdop>12.0</pdop><geoidheight>53.00</geoidheight><course>210.8</course><type>1</type></trkpt>
      <trkpt lat="40.58009959" lon="-4.80043557"><ele>2269</ele><speed>8.11</speed><time>2016-07-01T15:55:03Z</time><pdop>8.0</pdop><geoidheight>53.00</geoidheight><course>281.8</course><type>1</type></trkpt>
      <trkpt lat="40.58026719" lon="-4.8005321"><ele>2315</ele><speed>4.12</speed><time>2016-07-01T15:55:07Z</time><pdop>10.0</pdop><geoidheight>53.00</geoidheight><course>337.1</course><type>1</type></trkpt>
      <trkpt lat="40.58043872" lon="-4.80041739"><ele>2313</ele><speed>6.73</speed><time>2016-07-01T15:55:09Z</time><pdop>11.0</pdop><geoidheight>53.00</geoidheight><course>24.9</course><type>1</type></trkpt>
      <trkpt lat="40.5805093" lon="-4.79996345"><ele>2650</ele><speed>9.72</speed><time>2016-07-01T15:55:12Z</time><pdop>18.0</pdop><geoidheight>53.00</geoidheight><course>75.2</course><type>1</type></trkpt>
      <trkpt lat="40.5803489" lon="-4.79956771"><ele>2592</ele><speed>14.01</speed><time>2016-07-01T15:55:14Z</time><pdop>12.0</pdop><geoidheight>53.00</geoidheight><course>119.3</course><type>1</type></trkpt>
      <trkpt lat="40.58021098" lon="-4.79927916"><ele>2537</ele><speed>12.14</speed><time>2016-07-01T15:55:16Z</time><pdop>9.0</pdop><geoidheight>53.00</geoidheight><course>134.7</course><type>1</type></trkpt>
      <trkpt lat="40.58004697" lon="-4.7991007"><ele>2481</ele><speed>10.72</speed><time>2016-07-01T15:55:18Z</time><pdop>9.0</pdop><geoidheight>53.00</geoidheight><course>156.5</course><type>1</type></trkpt>
      <trkpt lat="40.57988843" lon="-4.7990605"><ele>2460</ele><speed>9.42</speed><time>2016-07-01T15:55:20Z</time><pdop>8.0</pdop><geoidheight>53.00</geoidheight><course>178.1</course><type>1</type></trkpt>
      <trkpt lat="40.57972573" lon="-4.79911866"><ele>2434</ele><speed>6.11</speed><time>2016-07-01T15:55:23Z</time><pdop>7.0</pdop><geoidheight>53.00</geoidheight><course>220.6</course><type>1</type></trkpt>
      <trkpt lat="40.57973019" lon="-4.79936066"><ele>2423</ele><speed>5.07</speed><time>2016-07-01T15:55:28Z</time><pdop>12.0</pdop><geoidheight>53.00</geoidheight><course>277.4</course><type>1</type></trkpt>
      <trkpt lat="40.58000118" lon="-4.79914275"><ele>2421</ele><speed>5.65</speed><time>2016-07-01T15:55:32Z</time><pdop>13.0</pdop><geoidheight>53.00</geoidheight><course>35.4</course><type>1</type></trkpt>
      <trkpt lat="40.58014405" lon="-4.79886899"><ele>2424</ele><speed>9.38</speed><time>2016-07-01T15:55:34Z</time><pdop>10.0</pdop><geoidheight>53.00</geoidheight><course>62.0</course><type>1</type></trkpt>
      <trkpt lat="40.58014309" lon="-4.79848106"><ele>2426</ele><speed>13.02</speed><time>2016-07-01T15:55:36Z</time><pdop>8.0</pdop><geoidheight>53.00</geoidheight><course>92.1</course><type>1</type></trkpt>
      <trkpt lat="40.58006036" lon="-4.79826973"><ele>2427</ele><speed>14.79</speed><time>2016-07-01T15:55:37Z</time><pdop>6.0</pdop><geoidheight>53.00</geoidheight><course>113.9</course><type>1</type></trkpt>
      <trkpt lat="40.57997343" lon="-4.7981347"><ele>2428</ele><speed>14.70</speed><time>2016-07-01T15:55:38Z</time><pdop>5.0</pdop><geoidheight>53.00</geoidheight><course>123.8</course><type>1</type></trkpt>
      <trkpt lat="40.57990912" lon="-4.79800291"><ele>2429</ele><speed>14.45</speed><time>2016-07-01T15:55:39Z</time><pdop>5.0</pdop><geoidheight>53.00</geoidheight><course>129.8</course><type>1</type></trkpt>
      <trkpt lat="40.57981554" lon="-4.79787175"><ele>2429</ele><speed>14.72</speed><time>2016-07-01T15:55:40Z</time><pdop>4.0</pdop><geoidheight>53.00</geoidheight><course>133.3</course><type>1</type></trkpt>
      <trkpt lat="40.57973127" lon="-4.79774334"><ele>2430</ele><speed>14.59</speed><time>2016-07-01T15:55:41Z</time><pdop>4.0</pdop><geoidheight>53.00</geoidheight><course>136.8</course><type>1</type></trkpt>
      <trkpt lat="40.57963203" lon="-4.79762176"><ele>2431</ele><speed>14.42</speed><time>2016-07-01T15:55:42Z</time><pdop>4.0</pdop><geoidheight>53.00</geoidheight><course>139.5</course><type>1</type></trkpt>
      <trkpt lat="40.57952484" lon="-4.79752432"><ele>2431</ele><speed>13.88</speed><time>2016-07-01T15:55:43Z</time><pdop>4.0</pdop><geoidheight>53.00</geoidheight><course>142.6</course><type>1</type></trkpt>
      <trkpt lat="40.57943215" lon="-4.79743371"><ele>2432</ele><speed>13.35</speed><time>2016-07-01T15:55:44Z</time><pdop>4.0</pdop><geoidheight>53.00</geoidheight><course>143.7</course><type>1</type></trkpt>
      <trkpt lat="40.57934196" lon="-4.79734777"><ele>2435</ele><speed>12.82</speed><time>2016-07-01T15:55:45Z</time><pdop>4.0</pdop><geoidheight>53.00</geoidheight><course>145.4</course><type>1</type></trkpt>
      <trkpt lat="40.57925611" lon="-4.79728297"><ele>2436</ele><speed>11.74</speed><time>2016-07-01T15:55:46Z</time><pdop>4.0</pdop><geoidheight>53.00</geoidheight><course>151.0</course><type>1</type></trkpt>
      <trkpt lat="40.5791838" lon="-4.7972614"><ele>2438</ele><speed>9.51</speed><time>2016-07-01T15:55:47Z</time><pdop>4.0</pdop><geoidheight>53.00</geoidheight><course>166.6</course><type>1</type></trkpt>
      <trkpt lat="40.5790387" lon="-4.79725683"><ele>2441</ele><speed>8.59</speed><time>2016-07-01T15:55:49Z</time><pdop>6.0</pdop><geoidheight>53.00</geoidheight><course>184.4</course><type>1</type></trkpt>
      <trkpt lat="40.5789225" lon="-4.7973182"><ele>2443</ele><speed>7.90</speed><time>2016-07-01T15:55:51Z</time><pdop>7.0</pdop><geoidheight>53.00</geoidheight><course>200.0</course><type>1</type></trkpt>
      <trkpt lat="40.57901172" lon="-4.79747485"><ele>2453</ele><speed>2.73</speed><time>2016-07-01T15:55:54Z</time><pdop>8.0</pdop><geoidheight>53.00</geoidheight><course>282.7</course><type>1</type></trkpt>
      <trkpt lat="40.5791644" lon="-4.79758511"><ele>2460</ele><speed>4.29</speed><time>2016-07-01T15:55:57Z</time><pdop>11.0</pdop><geoidheight>53.00</geoidheight><course>339.8</course><type>1</type></trkpt>
      <trkpt lat="40.57932716" lon="-4.7974395"><ele>2461</ele><speed>6.51</speed><time>2016-07-01T15:55:59Z</time><pdop>10.0</pdop><geoidheight>53.00</geoidheight><course>31.4</course><type>1</type></trkpt>
      <trkpt lat="40.57945477" lon="-4.79706799"><ele>2462</ele><speed>12.82</speed><time>2016-07-01T15:56:01Z</time><pdop>10.0</pdop><geoidheight>53.00</geoidheight><course>65.9</course><type>1</type></trkpt>
      <trkpt lat="40.57936505" lon="-4.79669231"><ele>2465</ele><speed>14.70</speed><time>2016-07-01T15:56:03Z</time><pdop>6.0</pdop><geoidheight>53.00</geoidheight><course>99.6</course><type>1</type></trkpt>
      <trkpt lat="40.57932943" lon="-4.79652426"><ele>2467</ele><speed>14.73</speed><time>2016-07-01T15:56:04Z</time><pdop>6.0</pdop><geoidheight>53.00</geoidheight><course>108.9</course><type>1</type></trkpt>
      <trkpt lat="40.57927278" lon="-4.79636168"><ele>2469</ele><speed>14.98</speed><time>2016-07-01T15:56:05Z</time><pdop>5.0</pdop><geoidheight>53.00</geoidheight><course>116.8</course><type>1</type></trkpt>
      <trkpt lat="40.57919405" lon="-4.79622782"><ele>2469</ele><speed>14.16</speed><time>2016-07-01T15:56:06Z</time><pdop>4.0</pdop><geoidheight>53.00</geoidheight><course>125.0</course><type>1</type></trkpt>
      <trkpt lat="40.57913021" lon="-4.79611229"><ele>2472</ele><speed>13.55</speed><time>2016-07-01T15:56:07Z</time><pdop>4.0</pdop><geoidheight>53.00</geoidheight><course>132.8</course><type>1</type></trkpt>
      <trkpt lat="40.57904079" lon="-4.79600594"><ele>2475</ele><speed>13.38</speed><time>2016-07-01T15:56:08Z</time><pdop>4.0</pdop><geoidheight>53.00</geoidheight><course>142.2</course><type>1</type></trkpt>
      <trkpt lat="40.57893939" lon="-4.79592794"><ele>2477</ele><speed>13.44</speed><time>2016-07-01T15:56:09Z</time><pdop>3.0</pdop><geoidheight>53.00</geoidheight><course>151.6</course><type>1</type></trkpt>
      <trkpt lat="40.57882972" lon="-4.79586662"><ele>2478</ele><speed>12.68</speed><time>2016-07-01T15:56:10Z</time><pdop>3.0</pdop><geoidheight>53.00</geoidheight><course>158.6</course><type>1</type></trkpt>
      <trkpt lat="40.57873797" lon="-4.79581575"><ele>2478</ele><speed>11.59</speed><time>2016-07-01T15:56:11Z</time><pdop>3.0</pdop><geoidheight>53.00</geoidheight><course>160.0</course><type>1</type></trkpt>
      <trkpt lat="40.57865186" lon="-4.79577519"><ele>2479</ele><speed>10.62</speed><time>2016-07-01T15:56:12Z</time><pdop>4.0</pdop><geoidheight>53.00</geoidheight><course>163.3</course><type>1</type></trkpt>
      <trkpt lat="40.5785727" lon="-4.79576502"><ele>2481</ele><speed>9.92</speed><time>2016-07-01T15:56:13Z</time><pdop>4.0</pdop><geoidheight>53.00</geoidheight><course>174.3</course><type>1</type></trkpt>
      <trkpt lat="40.57849183" lon="-4.79577537"><ele>2482</ele><speed>9.56</speed><time>2016-07-01T15:56:14Z</time><pdop>4.0</pdop><geoidheight>53.00</geoidheight><course>183.2</course><type>1</type></trkpt>
      <trkpt lat="40.57840864" lon="-4.79581439"><ele>2483</ele><speed>9.67</speed><time>2016-07-01T15:56:15Z</time><pdop>5.0</pdop><geoidheight>53.00</geoidheight><course>193.7</course><type>1</type></trkpt>
      <trkpt lat="40.57849021" lon="-4.79589814"><ele>2486</ele><speed>5.23</speed><time>2016-07-01T15:56:16Z</time><pdop>5.0</pdop><geoidheight>53.00</geoidheight><course>236.1</course><type>1</type></trkpt>
      <trkpt lat="40.57855876" lon="-4.79595871"><ele>2489</ele><speed>5.38</speed><time>2016-07-01T15:56:17Z</time><pdop>4.0</pdop><geoidheight>53.00</geoidheight><course>287.6</course><type>1</type></trkpt>
      <trkpt lat="40.57866192" lon="-4.79604237"><ele>2493</ele><speed>6.52</speed><time>2016-07-01T15:56:19Z</time><pdop>4.0</pdop><geoidheight>53.00</geoidheight><course>332.5</course><type>1</type></trkpt>
      <trkpt lat="40.57875248" lon="-4.79599776"><ele>2497</ele><speed>4.88</speed><time>2016-07-01T15:56:21Z</time><pdop>6.0</pdop><geoidheight>53.00</geoidheight><course>20.0</course><type>1</type></trkpt>
      <trkpt lat="40.57879346" lon="-4.79577141"><ele>2499</ele><speed>8.76</speed><time>2016-07-01T15:56:23Z</time><pdop>6.0</pdop><geoidheight>53.00</geoidheight><course>71.1</course><type>1</type></trkpt>
      <trkpt lat="40.57882241" lon="-4.79556994"><ele>2499</ele><speed>12.04</speed><time>2016-07-01T15:56:24Z</time><pdop>6.0</pdop><geoidheight>53.00</geoidheight><course>81.2</course><type>1</type></trkpt>
      <trkpt lat="40.57882695" lon="-4.79534714"><ele>2499</ele><speed>14.65</speed><time>2016-07-01T15:56:25Z</time><pdop>5.0</pdop><geoidheight>53.00</geoidheight><course>91.4</course><type>1</type></trkpt>
      <trkpt lat="40.57874103" lon="-4.79518011"><ele>2500</ele><speed>14.31</speed><time>2016-07-01T15:56:26Z</time><pdop>4.0</pdop><geoidheight>53.00</geoidheight><course>110.3</course><type>1</type></trkpt>
      <trkpt lat="40.57868438" lon="-4.79502131"><ele>2502</ele><speed>13.97</speed><time>2016-07-01T15:56:27Z</time><pdop>4.0</pdop><geoidheight>53.00</geoidheight><course>116.4</course><type>1</type></trkpt>
      <trkpt lat="40.57861615" lon="-4.79487572"><ele>2502</ele><speed>14.23</speed><time>2016-07-01T15:56:28Z</time><pdop>4.0</pdop><geoidheight>53.00</geoidheight><course>124.3</course><type>1</type></trkpt>
      <trkpt lat="40.57852625" lon="-4.79475098"><ele>2503</ele><speed>14.62</speed><time>2016-07-01T15:56:29Z</time><pdop>3.0</pdop><geoidheight>53.00</geoidheight><course>131.6</course><type>1</type></trkpt>
      <trkpt lat="40.578434" lon="-4.79463525"><ele>2504</ele><speed>14.08</speed><time>2016-07-01T15:56:30Z</time><pdop>3.0</pdop><geoidheight>53.00</geoidheight><course>138.4</course><type>1</type></trkpt>
      <trkpt lat="40.57834253" lon="-4.79453312"><ele>2504</ele><speed>13.30</speed><time>2016-07-01T15:56:31Z</time><pdop>3.0</pdop><geoidheight>53.00</geoidheight><course>141.4</course><type>1</type></trkpt>
      <trkpt lat="40.57825843" lon="-4.79444654"><ele>2506</ele><speed>12.47</speed><time>2016-07-01T15:56:32Z</time><pdop>3.0</pdop><geoidheight>53.00</geoidheight><course>144.2</course><type>1</type></trkpt>
      <trkpt lat="40.57816256" lon="-4.79437002"><ele>2508</ele><speed>12.25</speed><time>2016-07-01T15:56:33Z</time><pdop>3.0</pdop><geoidheight>53.00</geoidheight><course>147.6</course><type>1</type></trkpt>
      <trkpt lat="40.57807156" lon="-4.79428159"><ele>2508</ele><speed>12.46</speed><time>2016-07-01T15:56:34Z</time><pdop>4.0</pdop><geoidheight>53.00</geoidheight><course>146.6</course><type>1</type></trkpt>
      <trkpt lat="40.57799884" lon="-4.79419159"><ele>2510</ele><speed>11.71</speed><time>2016-07-01T15:56:35Z</time><pdop>5.0</pdop><geoidheight>53.00</geoidheight><course>144.1</course><type>1</type></trkpt>
      <trkpt lat="40.57779759" lon="-4.79413474"><ele>2509</ele><speed>11.75</speed><time>2016-07-01T15:56:37Z</time><pdop>6.0</pdop><geoidheight>53.00</geoidheight><course>161.0</course><type>1</type></trkpt>
      <trkpt lat="40.57766262" lon="-4.79424805"><ele>2512</ele><speed>9.85</speed><time>2016-07-01T15:56:39Z</time><pdop>6.0</pdop><geoidheight>53.00</geoidheight><course>190.8</course><type>1</type></trkpt>
      <trkpt lat="40.57769681" lon="-4.79442173"><ele>2515</ele><speed>6.60</speed><time>2016-07-01T15:56:41Z</time><pdop>6.0</pdop><geoidheight>53.00</geoidheight><course>226.0</course><type>1</type></trkpt>
      <trkpt lat="40.57780574" lon="-4.79449575"><ele>2517</ele><speed>3.48</speed><time>2016-07-01T15:56:43Z</time><pdop>7.0</pdop><geoidheight>53.00</geoidheight><course>288.5</course><type>1</type></trkpt>
      <trkpt lat="40.57794307" lon="-4.79451736"><ele>2519</ele><speed>4.89</speed><time>2016-07-01T15:56:45Z</time><pdop>8.0</pdop><geoidheight>53.00</geoidheight><course>340.6</course><type>1</type></trkpt>
      <trkpt lat="40.57807714" lon="-4.7942324"><ele>2523</ele><speed>9.20</speed><time>2016-07-01T15:56:47Z</time><pdop>8.0</pdop><geoidheight>53.00</geoidheight><course>56.1</course><type>1</type></trkpt>
      <trkpt lat="40.57812349" lon="-4.79401652"><ele>2526</ele><speed>9.09</speed><time>2016-07-01T15:56:49Z</time><pdop>7.0</pdop><geoidheight>53.00</geoidheight><course>78.5</course><type>1</type></trkpt>
      <trkpt lat="40.57804082" lon="-4.79377344"><ele>2529</ele><speed>15.32</speed><time>2016-07-01T15:56:50Z</time><pdop>5.0</pdop><geoidheight>53.00</geoidheight><course>106.6</course><type>1</type></trkpt>
      <trkpt lat="40.57801228" lon="-4.79359412"><ele>2531</ele><speed>15.39</speed><time>2016-07-01T15:56:51Z</time><pdop>4.0</pdop><geoidheight>53.00</geoidheight><course>109.7</course><type>1</type></trkpt>
      <trkpt lat="40.57794116" lon="-4.79344072"><ele>2533</ele><speed>15.62</speed><time>2016-07-01T15:56:52Z</time><pdop>3.0</pdop><geoidheight>53.00</geoidheight><course>122.9</course><type>1</type></trkpt>
      <trkpt lat="40.5778609" lon="-4.79332029"><ele>2537</ele><speed>14.95</speed><time>2016-07-01T15:56:53Z</time><pdop>3.0</pdop><geoidheight>53.00</geoidheight><course>131.1</course><type>1</type></trkpt>
      <trkpt lat="40.5777664" lon="-4.79321281"><ele>2539</ele><speed>13.71</speed><time>2016-07-01T15:56:54Z</time><pdop>3.0</pdop><geoidheight>53.00</geoidheight><course>141.4</course><type>1</type></trkpt>
      <trkpt lat="40.57767274" lon="-4.7931289"><ele>2542</ele><speed>13.14</speed><time>2016-07-01T15:56:55Z</time><pdop>3.0</pdop><geoidheight>53.00</geoidheight><course>145.2</course><type>1</type></trkpt>
      <trkpt lat="40.57756077" lon="-4.79303543"><ele>2543</ele><speed>13.96</speed><time>2016-07-01T15:56:56Z</time><pdop>4.0</pdop><geoidheight>53.00</geoidheight><course>148.3</course><type>1</type></trkpt>
      <trkpt lat="40.57745784" lon="-4.79302181"><ele>2542</ele><speed>12.80</speed><time>2016-07-01T15:56:57Z</time><pdop>5.0</pdop><geoidheight>53.00</geoidheight><course>157.7</course><type>1</type></trkpt>
      <trkpt lat="40.57736127" lon="-4.79296319"><ele>2544</ele><speed>12.40</speed><time>2016-07-01T15:56:58Z</time><pdop>6.0</pdop><geoidheight>53.00</geoidheight><course>158.6</course><type>1</type></trkpt>
      <trkpt lat="40.57728517" lon="-4.79312665"><ele>2551</ele><speed>8.51</speed><time>2016-07-01T15:57:00Z</time><pdop>6.0</pdop><geoidheight>53.00</geoidheight><course>201.3</course><type>1</type></trkpt>
      <trkpt lat="40.57725984" lon="-4.79336589"><ele>2558</ele><speed>3.66</speed><time>2016-07-01T15:57:05Z</time><pdop>14.0</pdop><geoidheight>53.00</geoidheight><course>239.1</course><type>1</type></trkpt>
      <trkpt lat="40.57759154" lon="-4.79319552"><ele>2563</ele><speed>6.27</speed><time>2016-07-01T15:57:09Z</time><pdop>12.0</pdop><geoidheight>53.00</geoidheight><course>46.2</course><type>1</type></trkpt>
      <trkpt lat="40.57768057" lon="-4.79290514"><ele>2563</ele><speed>9.14</speed><time>2016-07-01T15:57:11Z</time><pdop>13.0</pdop><geoidheight>53.00</geoidheight><course>75.9</course><type>1</type></trkpt>
      <trkpt lat="40.57765033" lon="-4.79243366"><ele>2567</ele><speed>15.83</speed><time>2016-07-01T15:57:13Z</time><pdop>10.0</pdop><geoidheight>53.00</geoidheight><course>108.4</course><type>1</type></trkpt>
      <trkpt lat="40.57753519" lon="-4.79209743"><ele>2574</ele><speed>15.57</speed><time>2016-07-01T15:57:15Z</time><pdop>6.0</pdop><geoidheight>53.00</geoidheight><course>132.2</course><type>1</type></trkpt>
      <trkpt lat="40.5774484" lon="-4.7919975"><ele>2577</ele><speed>14.73</speed><time>2016-07-01T15:57:16Z</time><pdop>5.0</pdop><geoidheight>53.00</geoidheight><course>143.7</course><type>1</type></trkpt>
      <trkpt lat="40.57734789" lon="-4.79190659"><ele>2580</ele><speed>13.77</speed><time>2016-07-01T15:57:17Z</time><pdop>4.0</pdop><geoidheight>53.00</geoidheight><course>154.0</course><type>1</type></trkpt>
      <trkpt lat="40.57724391" lon="-4.79186068"><ele>2581</ele><speed>12.59</speed><time>2016-07-01T15:57:18Z</time><pdop>4.0</pdop><geoidheight>53.00</geoidheight><course>163.0</course><type>1</type></trkpt>
      <trkpt lat="40.57716555" lon="-4.79184381"><ele>2586</ele><speed>11.23</speed><time>2016-07-01T15:57:19Z</time><pdop>4.0</pdop><geoidheight>53.00</geoidheight><course>171.3</course><type>1</type></trkpt>
      <trkpt lat="40.57708244" lon="-4.79184199"><ele>2588</ele><speed>9.91</speed><time>2016-07-01T15:57:20Z</time><pdop>3.0</pdop><geoidheight>53.00</geoidheight><course>182.7</course><type>1</type></trkpt>
      <trkpt lat="40.57699418" lon="-4.79186048"><ele>2590</ele><speed>9.91</speed><time>2016-07-01T15:57:21Z</time><pdop>4.0</pdop><geoidheight>53.00</geoidheight><course>189.2</course><type>1</type></trkpt>
      <trkpt lat="40.57693616" lon="-4.79191059"><ele>2591</ele><speed>8.54</speed><time>2016-07-01T15:57:22Z</time><pdop>3.0</pdop><geoidheight>53.00</geoidheight><course>204.2</course><type>1</type></trkpt>
      <trkpt lat="40.57687371" lon="-4.79196794"><ele>2592</ele><speed>8.48</speed><time>2016-07-01T15:57:23Z</time><pdop>3.0</pdop><geoidheight>53.00</geoidheight><course>210.6</course><type>1</type></trkpt>
      <trkpt lat="40.57681302" lon="-4.79202242"><ele>2593</ele><speed>8.48</speed><time>2016-07-01T15:57:24Z</time><pdop>4.0</pdop><geoidheight>53.00</geoidheight><course>212.8</course><type>1</type></trkpt>
      <trkpt lat="40.57691789" lon="-4.79213003"><ele>2596</ele><speed>3.68</speed><time>2016-07-01T15:57:27Z</time><pdop>5.0</pdop><geoidheight>53.00</geoidheight><course>307.8</course><type>1</type></trkpt>
      <trkpt lat="40.5770149" lon="-4.79220992"><ele>2599</ele><speed>3.86</speed><time>2016-07-01T15:57:29Z</time><pdop>6.0</pdop><geoidheight>53.00</geoidheight><course>324.4</course><type>1</type></trkpt>
      <trkpt lat="40.57714961" lon="-4.79219275"><ele>2599</ele><speed>4.41</speed><time>2016-07-01T15:57:31Z</time><pdop>7.0</pdop><geoidheight>53.00</geoidheight><course>2.2</course><type>1</type></trkpt>
      <trkpt lat="40.5772956" lon="-4.79204299"><ele>2602</ele><speed>7.38</speed><time>2016-07-01T15:57:33Z</time><pdop>6.0</pdop><geoidheight>53.00</geoidheight><course>44.1</course><type>1</type></trkpt>
      <trkpt lat="40.57733714" lon="-4.79186165"><ele>2602</ele><speed>9.75</speed><time>2016-07-01T15:57:34Z</time><pdop>6.0</pdop><geoidheight>53.00</geoidheight><course>66.0</course><type>1</type></trkpt>
      <trkpt lat="40.57733926" lon="-4.79164433"><ele>2603</ele><speed>13.35</speed><time>2016-07-01T15:57:35Z</time><pdop>5.0</pdop><geoidheight>53.00</geoidheight><course>83.3</course><type>1</type></trkpt>
      <trkpt lat="40.57733816" lon="-4.79148189"><ele>2604</ele><speed>13.08</speed><time>2016-07-01T15:57:36Z</time><pdop>5.0</pdop><geoidheight>53.00</geoidheight><course>88.5</course><type>1</type></trkpt>
      <trkpt lat="40.57731542" lon="-4.79133527"><ele>2604</ele><speed>12.63</speed><time>2016-07-01T15:57:37Z</time><pdop>5.0</pdop><geoidheight>53.00</geoidheight><course>96.4</course><type>1</type></trkpt>
      <trkpt lat="40.57726179" lon="-4.791204"><ele>2604</ele><speed>12.20</speed><time>2016-07-01T15:57:38Z</time><pdop>7.0</pdop><geoidheight>53.00</geoidheight><course>108.8</course><type>1</type></trkpt>
      <trkpt lat="40.57712559" lon="-4.79103075"><ele>2604</ele><speed>15.18</speed><time>2016-07-01T15:57:39Z</time><pdop>5.0</pdop><geoidheight>53.00</geoidheight><course>129.6</course><type>1</type></trkpt>
      <trkpt lat="40.57701445" lon="-4.79087554"><ele>2605</ele><speed>15.31</speed><time>2016-07-01T15:57:40Z</time><pdop>5.0</pdop><geoidheight>53.00</geoidheight><course>136.0</course><type>1</type></trkpt>
      <trkpt lat="40.57691371" lon="-4.79076445"><ele>2606</ele><speed>15.49</speed><time>2016-07-01T15:57:41Z</time><pdop>4.0</pdop><geoidheight>53.00</geoidheight><course>142.1</course><type>1</type></trkpt>
      <trkpt lat="40.57680096" lon="-4.79066899"><ele>2606</ele><speed>15.63</speed><time>2016-07-01T15:57:42Z</time><pdop>4.0</pdop><geoidheight>53.00</geoidheight><course>147.4</course><type>1</type></trkpt>
      <trkpt lat="40.57667526" lon="-4.79060278"><ele>2608</ele><speed>15.11</speed><time>2016-07-01T15:57:43Z</time><pdop>4.0</pdop><geoidheight>53.00</geoidheight><course>154.3</course><type>1</type></trkpt>
      <trkpt lat="40.57655018" lon="-4.79053209"><ele>2609</ele><speed>14.61</speed><time>2016-07-01T15:57:44Z</time><pdop>4.0</pdop><geoidheight>53.00</geoidheight><course>159.3</course><type>1</type></trkpt>
      <trkpt lat="40.57643948" lon="-4.79051264"><ele>2610</ele><speed>12.46</speed><time>2016-07-01T15:57:45Z</time><pdop>4.0</pdop><geoidheight>53.00</geoidheight><course>169.9</course><type>1</type></trkpt>
      <trkpt lat="40.57634297" lon="-4.79048481"><ele>2613</ele><speed>11.83</speed><time>2016-07-01T15:57:46Z</time><pdop>5.0</pdop><geoidheight>53.00</geoidheight><course>170.3</course><type>1</type></trkpt>
      <trkpt lat="40.57624568" lon="-4.79045939"><ele>2614</ele><speed>11.56</speed><time>2016-07-01T15:57:47Z</time><pdop>6.0</pdop><geoidheight>53.00</geoidheight><course>172.6</course><type>1</type></trkpt>
      <trkpt lat="40.57615709" lon="-4.79061244"><ele>2618</ele><speed>9.06</speed><time>2016-07-01T15:57:49Z</time><pdop>7.0</pdop><geoidheight>53.00</geoidheight><course>208.2</course><type>1</type></trkpt>
      <trkpt lat="40.57626593" lon="-4.79071328"><ele>2620</ele><speed>4.35</speed><time>2016-07-01T15:57:51Z</time><pdop>7.0</pdop><geoidheight>53.00</geoidheight><course>281.9</course><type>1</type></trkpt>
      <trkpt lat="40.57644281" lon="-4.79077697"><ele>2624</ele><speed>6.90</speed><time>2016-07-01T15:57:54Z</time><pdop>6.0</pdop><geoidheight>53.00</geoidheight><course>347.8</course><type>1</type></trkpt>
      <trkpt lat="40.57655065" lon="-4.79068814"><ele>2626</ele><speed>9.65</speed><time>2016-07-01T15:57:55Z</time><pdop>5.0</pdop><geoidheight>53.00</geoidheight><course>20.4</course><type>1</type></trkpt>
      <trkpt lat="40.57670339" lon="-4.79054071"><ele>2626</ele><speed>10.96</speed><time>2016-07-01T15:57:57Z</time><pdop>5.0</pdop><geoidheight>53.00</geoidheight><course>36.3</course><type>1</type></trkpt>
      <trkpt lat="40.57678306" lon="-4.79038449"><ele>2625</ele><speed>12.24</speed><time>2016-07-01T15:57:58Z</time><pdop>6.0</pdop><geoidheight>53.00</geoidheight><course>46.4</course><type>1</type></trkpt>
      <trkpt lat="40.57681393" lon="-4.79023951"><ele>2626</ele><speed>11.88</speed><time>2016-07-01T15:57:59Z</time><pdop>6.0</pdop><geoidheight>53.00</geoidheight><course>56.5</course><type>1</type></trkpt>
      <trkpt lat="40.57685664" lon="-4.79005496"><ele>2625</ele><speed>12.69</speed><time>2016-07-01T15:58:00Z</time><pdop>6.0</pdop><geoidheight>53.00</geoidheight><course>64.6</course><type>1</type></trkpt>
      <trkpt lat="40.57678639" lon="-4.78980681"><ele>2625</ele><speed>15.12</speed><time>2016-07-01T15:58:01Z</time><pdop>4.0</pdop><geoidheight>53.00</geoidheight><course>96.2</course><type>1</type></trkpt>
      <trkpt lat="40.57672617" lon="-4.78961794"><ele>2627</ele><speed>15.92</speed><time>2016-07-01T15:58:02Z</time><pdop>4.0</pdop><geoidheight>53.00</geoidheight><course>106.4</course><type>1</type></trkpt>
      <trkpt lat="40.57667444" lon="-4.78944268"><ele>2629</ele><speed>15.88</speed><time>2016-07-01T15:58:03Z</time><pdop>4.0</pdop><geoidheight>53.00</geoidheight><course>108.7</course><type>1</type></trkpt>
      <trkpt lat="40.57656774" lon="-4.78928391"><ele>2630</ele><speed>16.35</speed><time>2016-07-01T15:58:04Z</time><pdop>4.0</pdop><geoidheight>53.00</geoidheight><course>126.3</course><type>1</type></trkpt>
      <trkpt lat="40.57646994" lon="-4.78914638"><ele>2633</ele><speed>15.61</speed><time>2016-07-01T15:58:05Z</time><pdop>3.0</pdop><geoidheight>53.00</geoidheight><course>134.0</course><type>1</type></trkpt>
      <trkpt lat="40.57637173" lon="-4.78906161"><ele>2636</ele><speed>14.34</speed><time>2016-07-01T15:58:06Z</time><pdop>3.0</pdop><geoidheight>53.00</geoidheight><course>141.6</course><type>1</type></trkpt>
      <trkpt lat="40.57626438" lon="-4.78898615"><ele>2640</ele><speed>13.33</speed><time>2016-07-01T15:58:07Z</time><pdop>3.0</pdop><geoidheight>53.00</geoidheight><course>150.4</course><type>1</type></trkpt>
      <trkpt lat="40.57616506" lon="-4.78892196"><ele>2641</ele><speed>12.41</speed><time>2016-07-01T15:58:08Z</time><pdop>3.0</pdop><geoidheight>53.00</geoidheight><course>158.3</course><type>1</type></trkpt>
      <trkpt lat="40.57605532" lon="-4.78887115"><ele>2642</ele><speed>11.96</speed><time>2016-07-01T15:58:09Z</time><pdop>3.0</pdop><geoidheight>53.00</geoidheight><course>161.9</course><type>1</type></trkpt>
      <trkpt lat="40.57595698" lon="-4.7888312"><ele>2642</ele><speed>11.53</speed><time>2016-07-01T15:58:10Z</time><pdop>4.0</pdop><geoidheight>53.00</geoidheight><course>163.9</course><type>1</type></trkpt>
      <trkpt lat="40.57584875" lon="-4.78877473"><ele>2643</ele><speed>11.72</speed><time>2016-07-01T15:58:11Z</time><pdop>6.0</pdop><geoidheight>53.00</geoidheight><course>162.8</course><type>1</type></trkpt>
      <trkpt lat="40.57574478" lon="-4.78881247"><ele>2642</ele><speed>11.02</speed><time>2016-07-01T15:58:12Z</time><pdop>6.0</pdop><geoidheight>53.00</geoidheight><course>178.3</course><type>1</type></trkpt>
      <trkpt lat="40.57560232" lon="-4.78889985"><ele>2644</ele><speed>9.97</speed><time>2016-07-01T15:58:14Z</time><pdop>8.0</pdop><geoidheight>53.00</geoidheight><course>202.5</course><type>1</type></trkpt>
      <trkpt lat="40.57573301" lon="-4.78909047"><ele>2649</ele><speed>5.11</speed><time>2016-07-01T15:58:17Z</time><pdop>6.0</pdop><geoidheight>53.00</geoidheight><course>278.6</course><type>1</type></trkpt>
      <trkpt lat="40.57583709" lon="-4.78918043"><ele>2653</ele><speed>5.97</speed><time>2016-07-01T15:58:19Z</time><pdop>6.0</pdop><geoidheight>53.00</geoidheight><course>328.4</course><type>1</type></trkpt>
      <trkpt lat="40.57599896" lon="-4.7891048"><ele>2657</ele><speed>5.46</speed><time>2016-07-01T15:58:22Z</time><pdop>7.0</pdop><geoidheight>53.00</geoidheight><course>17.7</course><type>1</type></trkpt>
      <trkpt lat="40.57608701" lon="-4.78894747"><ele>2657</ele><speed>8.62</speed><time>2016-07-01T15:58:23Z</time><pdop>6.0</pdop><geoidheight>53.00</geoidheight><course>41.2</course><type>1</type></trkpt>
      <trkpt lat="40.57615432" lon="-4.7887836"><ele>2660</ele><speed>12.43</speed><time>2016-07-01T15:58:24Z</time><pdop>7.0</pdop><geoidheight>53.00</geoidheight><course>55.5</course><type>1</type></trkpt>
      <trkpt lat="40.57616062" lon="-4.78845015"><ele>2661</ele><speed>13.33</speed><time>2016-07-01T15:58:26Z</time><pdop>6.0</pdop><geoidheight>53.00</geoidheight><course>76.5</course><type>1</type></trkpt>
      <trkpt lat="40.57615904" lon="-4.78826309"><ele>2662</ele><speed>13.89</speed><time>2016-07-01T15:58:27Z</time><pdop>6.0</pdop><geoidheight>53.00</geoidheight><course>81.2</course><type>1</type></trkpt>
      <trkpt lat="40.57599748" lon="-4.78814466"><ele>2661</ele><speed>13.19</speed><time>2016-07-01T15:58:28Z</time><pdop>7.0</pdop><geoidheight>53.00</geoidheight><course>109.7</course><type>1</type></trkpt>
      <trkpt lat="40.57586473" lon="-4.78798976"><ele>2662</ele><speed>15.02</speed><time>2016-07-01T15:58:29Z</time><pdop>6.0</pdop><geoidheight>53.00</geoidheight><course>127.1</course><type>1</type></trkpt>
      <trkpt lat="40.57577136" lon="-4.78784036"><ele>2662</ele><speed>14.62</speed><time>2016-07-01T15:58:30Z</time><pdop>5.0</pdop><geoidheight>53.00</geoidheight><course>127.8</course><type>1</type></trkpt>
      <trkpt lat="40.57567101" lon="-4.78771833"><ele>2663</ele><speed>13.23</speed><time>2016-07-01T15:58:31Z</time><pdop>5.0</pdop><geoidheight>53.00</geoidheight><course>131.2</course><type>1</type></trkpt>
      <trkpt lat="40.57558332" lon="-4.78760861"><ele>2664</ele><speed>12.31</speed><time>2016-07-01T15:58:32Z</time><pdop>5.0</pdop><geoidheight>53.00</geoidheight><course>139.8</course><type>1</type></trkpt>
      <trkpt lat="40.57549722" lon="-4.78752097"><ele>2664</ele><speed>11.57</speed><time>2016-07-01T15:58:33Z</time><pdop>4.0</pdop><geoidheight>53.00</geoidheight><course>144.7</course><type>1</type></trkpt>
      <trkpt lat="40.57538771" lon="-4.78749023"><ele>2665</ele><speed>11.11</speed><time>2016-07-01T15:58:34Z</time><pdop>4.0</pdop><geoidheight>53.00</geoidheight><course>164.4</course><type>1</type></trkpt>
      <trkpt lat="40.57529587" lon="-4.78748767"><ele>2666</ele><speed>10.29</speed><time>2016-07-01T15:58:35Z</time><pdop>3.0</pdop><geoidheight>53.00</geoidheight><course>178.9</course><type>1</type></trkpt>
      <trkpt lat="40.57521429" lon="-4.78749003"><ele>2666</ele><speed>10.13</speed><time>2016-07-01T15:58:36Z</time><pdop>3.0</pdop><geoidheight>53.00</geoidheight><course>186.3</course><type>1</type></trkpt>
      <trkpt lat="40.5751524" lon="-4.78753115"><ele>2669</ele><speed>8.52</speed><time>2016-07-01T15:58:37Z</time><pdop>3.0</pdop><geoidheight>53.00</geoidheight><course>201.9</course><type>1</type></trkpt>
      <trkpt lat="40.57510599" lon="-4.78758642"><ele>2671</ele><speed>7.69</speed><time>2016-07-01T15:58:38Z</time><pdop>3.0</pdop><geoidheight>53.00</geoidheight><course>211.5</course><type>1</type></trkpt>
      <trkpt lat="40.57506631" lon="-4.78770484"><ele>2672</ele><speed>6.13</speed><time>2016-07-01T15:58:40Z</time><pdop>4.0</pdop><geoidheight>53.00</geoidheight><course>234.3</course><type>1</type></trkpt>
      <trkpt lat="40.575024" lon="-4.78786032"><ele>2674</ele><speed>6.84</speed><time>2016-07-01T15:58:42Z</time><pdop>9.0</pdop><geoidheight>53.00</geoidheight><course>245.9</course><type>1</type></trkpt>
      <trkpt lat="40.5750464" lon="-4.78810265"><ele>2674</ele><speed>4.56</speed><time>2016-07-01T15:58:46Z</time><pdop>9.0</pdop><geoidheight>53.00</geoidheight><course>284.8</course><type>1</type></trkpt>
      <trkpt lat="40.5750431" lon="-4.78834304"><ele>2678</ele><speed>3.77</speed><time>2016-07-01T15:58:51Z</time><pdop>10.0</pdop><geoidheight>53.00</geoidheight><course>256.5</course><type>1</type></trkpt>
      <trkpt lat="40.57493748" lon="-4.78860262"><ele>2683</ele><speed>5.12</speed><time>2016-07-01T15:58:56Z</time><pdop>11.0</pdop><geoidheight>53.00</geoidheight><course>249.8</course><type>1</type></trkpt>
      <trkpt lat="40.57499179" lon="-4.78888651"><ele>2686</ele><speed>5.74</speed><time>2016-07-01T15:59:00Z</time><pdop>10.0</pdop><geoidheight>53.00</geoidheight><course>297.3</course><type>1</type></trkpt>
      <trkpt lat="40.57516604" lon="-4.78895761"><ele>2690</ele><speed>6.87</speed><time>2016-07-01T15:59:03Z</time><pdop>9.0</pdop><geoidheight>53.00</geoidheight><course>344.7</course><type>1</type></trkpt>
      <trkpt lat="40.57535312" lon="-4.78879639"><ele>2695</ele><speed>8.87</speed><time>2016-07-01T15:59:06Z</time><pdop>9.0</pdop><geoidheight>53.00</geoidheight><course>34.1</course><type>1</type></trkpt>
      <trkpt lat="40.57547397" lon="-4.78857396"><ele>2697</ele><speed>13.65</speed><time>2016-07-01T15:59:08Z</time><pdop>9.0</pdop><geoidheight>53.00</geoidheight><course>62.9</course><type>1</type></trkpt>
      <trkpt lat="40.57546858" lon="-4.78825452"><ele>2700</ele><speed>14.95</speed><time>2016-07-01T15:59:10Z</time><pdop>9.0</pdop><geoidheight>53.00</geoidheight><course>90.2</course><type>1</type></trkpt>
      <trkpt lat="40.57540131" lon="-4.78789005"><ele>2701</ele><speed>15.65</speed><time>2016-07-01T15:59:12Z</time><pdop>9.0</pdop><geoidheight>53.00</geoidheight><course>106.1</course><type>1</type></trkpt>
      <trkpt lat="40.57518185" lon="-4.78767215"><ele>2702</ele><speed>15.01</speed><time>2016-07-01T15:59:14Z</time><pdop>9.0</pdop><geoidheight>53.00</geoidheight><course>141.9</course><type>1</type></trkpt>
      <trkpt lat="40.57497232" lon="-4.78761221"><ele>2705</ele><speed>12.42</speed><time>2016-07-01T15:59:16Z</time><pdop>9.0</pdop><geoidheight>53.00</geoidheight><course>169.6</course><type>1</type></trkpt>
      <trkpt lat="40.57478195" lon="-4.787628"><ele>2708</ele><speed>10.55</speed><time>2016-07-01T15:59:18Z</time><pdop>9.0</pdop><geoidheight>53.00</geoidheight><course>186.9</course><type>1</type></trkpt>
      <trkpt lat="40.57461767" lon="-4.78768805"><ele>2713</ele><speed>9.70</speed><time>2016-07-01T15:59:20Z</time><pdop>9.0</pdop><geoidheight>53.00</geoidheight><course>195.0</course><type>1</type></trkpt>
      <trkpt lat="40.57467915" lon="-4.78798003"><ele>2716</ele><speed>5.80</speed><time>2016-07-01T15:59:25Z</time><pdop>11.0</pdop><geoidheight>53.00</geoidheight><course>285.0</course><type>1</type></trkpt>
      <trkpt lat="40.57490451" lon="-4.78789833"><ele>2727</ele><speed>6.17</speed><time>2016-07-01T15:59:31Z</time><pdop>9.0</pdop><geoidheight>53.00</geoidheight><course>52.8</course><type>1</type></trkpt>
      <trkpt lat="40.57491349" lon="-4.78749083"><ele>2728</ele><speed>14.80</speed><time>2016-07-01T15:59:33Z</time><pdop>5.0</pdop><geoidheight>53.00</geoidheight><course>89.4</course><type>1</type></trkpt>
      <trkpt lat="40.57488612" lon="-4.78731427"><ele>2730</ele><speed>15.08</speed><time>2016-07-01T15:59:34Z</time><pdop>5.0</pdop><geoidheight>53.00</geoidheight><course>99.6</course><type>1</type></trkpt>
      <trkpt lat="40.57483414" lon="-4.7871581"><ele>2731</ele><speed>15.20</speed><time>2016-07-01T15:59:35Z</time><pdop>4.0</pdop><geoidheight>53.00</geoidheight><course>111.2</course><type>1</type></trkpt>
      <trkpt lat="40.57477752" lon="-4.78698675"><ele>2732</ele><speed>15.76</speed><time>2016-07-01T15:59:36Z</time><pdop>4.0</pdop><geoidheight>53.00</geoidheight><course>113.9</course><type>1</type></trkpt>
      <trkpt lat="40.57467802" lon="-4.78689521"><ele>2732</ele><speed>14.40</speed><time>2016-07-01T15:59:37Z</time><pdop>4.0</pdop><geoidheight>53.00</geoidheight><course>134.7</course><type>1</type></trkpt>
      <trkpt lat="40.57458527" lon="-4.78680213"><ele>2733</ele><speed>14.07</speed><time>2016-07-01T15:59:38Z</time><pdop>3.0</pdop><geoidheight>53.00</geoidheight><course>143.4</course><type>1</type></trkpt>
      <trkpt lat="40.57448621" lon="-4.78673768"><ele>2735</ele><speed>12.96</speed><time>2016-07-01T15:59:39Z</time><pdop>3.0</pdop><geoidheight>53.00</geoidheight><course>154.0</course><type>1</type></trkpt>
      <trkpt lat="40.57439239" lon="-4.78671515"><ele>2736</ele><speed>11.75</speed><time>2016-07-01T15:59:40Z</time><pdop>3.0</pdop><geoidheight>53.00</geoidheight><course>166.4</course><type>1</type></trkpt>
      <trkpt lat="40.57429211" lon="-4.78669331"><ele>2738</ele><speed>11.41</speed><time>2016-07-01T15:59:41Z</time><pdop>4.0</pdop><geoidheight>53.00</geoidheight><course>169.6</course><type>1</type></trkpt>
      <trkpt lat="40.57420558" lon="-4.7866971"><ele>2740</ele><speed>10.49</speed><time>2016-07-01T15:59:42Z</time><pdop>3.0</pdop><geoidheight>53.00</geoidheight><course>181.6</course><type>1</type></trkpt>
      <trkpt lat="40.57410878" lon="-4.78670476"><ele>2745</ele><speed>11.67</speed><time>2016-07-01T15:59:43Z</time><pdop>4.0</pdop><geoidheight>53.00</geoidheight><course>180.6</course><type>1</type></trkpt>
      <trkpt lat="40.57399728" lon="-4.7867057"><ele>2748</ele><speed>12.33</speed><time>2016-07-01T15:59:44Z</time><pdop>3.0</pdop><geoidheight>53.00</geoidheight><course>179.5</course><type>1</type></trkpt>
      <trkpt lat="40.57389157" lon="-4.78670317"><ele>2745</ele><speed>12.62</speed><time>2016-07-01T15:59:45Z</time><pdop>3.0</pdop><geoidheight>53.00</geoidheight><course>179.2</course><type>1</type></trkpt>
      <trkpt lat="40.57379526" lon="-4.78670211"><ele>2751</ele><speed>11.83</speed><time>2016-07-01T15:59:46Z</time><pdop>3.0</pdop><geoidheight>53.00</geoidheight><course>181.2</course><type>1</type></trkpt>
      <trkpt lat="40.57369673" lon="-4.78669955"><ele>2755</ele><speed>11.23</speed><time>2016-07-01T15:59:47Z</time><pdop>3.0</pdop><geoidheight>53.00</geoidheight><course>181.0</course><type>1</type></trkpt>
      <trkpt lat="40.57362323" lon="-4.78669233"><ele>2757</ele><speed>9.78</speed><time>2016-07-01T15:59:48Z</time><pdop>5.0</pdop><geoidheight>53.00</geoidheight><course>182.1</course><type>1</type></trkpt>
      <trkpt lat="40.57362917" lon="-4.78681182"><ele>2766</ele><speed>5.07</speed><time>2016-07-01T15:59:50Z</time><pdop>5.0</pdop><geoidheight>53.00</geoidheight><course>237.0</course><type>1</type></trkpt>
      <trkpt lat="40.57368596" lon="-4.78696274"><ele>2772</ele><speed>4.56</speed><time>2016-07-01T15:59:53Z</time><pdop>8.0</pdop><geoidheight>53.00</geoidheight><course>288.3</course><type>1</type></trkpt>
      <trkpt lat="40.57387653" lon="-4.78683719"><ele>2780</ele><speed>4.58</speed><time>2016-07-01T15:59:56Z</time><pdop>10.0</pdop><geoidheight>53.00</geoidheight><course>26.1</course><type>1</type></trkpt>
      <trkpt lat="40.5739789" lon="-4.78658055"><ele>2781</ele><speed>8.01</speed><time>2016-07-01T15:59:58Z</time><pdop>11.0</pdop><geoidheight>53.00</geoidheight><course>60.5</course><type>1</type></trkpt>
      <trkpt lat="40.57390145" lon="-4.78612629"><ele>2786</ele><speed>15.59</speed><time>2016-07-01T16:00:00Z</time><pdop>8.0</pdop><geoidheight>53.00</geoidheight><course>109.4</course><type>1</type></trkpt>
      <trkpt lat="40.57383612" lon="-4.78595897"><ele>2788</ele><speed>15.74</speed><time>2016-07-01T16:00:01Z</time><pdop>7.0</pdop><geoidheight>53.00</geoidheight><course>121.4</course><type>1</type></trkpt>
      <trkpt lat="40.5737537" lon="-4.78581273"><ele>2791</ele><speed>15.73</speed><time>2016-07-01T16:00:02Z</time><pdop>6.0</pdop><geoidheight>53.00</geoidheight><course>133.2</course><type>1</type></trkpt>
      <trkpt lat="40.57365153" lon="-4.78569552"><ele>2795</ele><speed>15.93</speed><time>2016-07-01T16:00:03Z</time><pdop>6.0</pdop><geoidheight>53.00</geoidheight><course>143.2</course><type>1</type></trkpt>
      <trkpt lat="40.5735392" lon="-4.78558888"><ele>2802</ele><speed>15.43</speed><time>2016-07-01T16:00:04Z</time><pdop>5.0</pdop><geoidheight>53.00</geoidheight><course>148.7</course><type>1</type></trkpt>
      <trkpt lat="40.57343029" lon="-4.78550639"><ele>2806</ele><speed>14.13</speed><time>2016-07-01T16:00:05Z</time><pdop>4.0</pdop><geoidheight>53.00</geoidheight><course>151.7</course><type>1</type></trkpt>
      <trkpt lat="40.5733332" lon="-4.78542579"><ele>2809</ele><speed>12.90</speed><time>2016-07-01T16:00:06Z</time><pdop>5.0</pdop><geoidheight>53.00</geoidheight><course>153.3</course><type>1</type></trkpt>
      <trkpt lat="40.57325115" lon="-4.78536655"><ele>2812</ele><speed>11.22</speed><time>2016-07-01T16:00:07Z</time><pdop>4.0</pdop><geoidheight>53.00</geoidheight><course>156.1</course><type>1</type></trkpt>
      <trkpt lat="40.57316444" lon="-4.7853134"><ele>2813</ele><speed>10.58</speed><time>2016-07-01T16:00:08Z</time><pdop>4.0</pdop><geoidheight>53.00</geoidheight><course>157.7</course><type>1</type></trkpt>
      <trkpt lat="40.57302614" lon="-4.78531981"><ele>2818</ele><speed>8.58</speed><time>2016-07-01T16:00:10Z</time><pdop>4.0</pdop><geoidheight>53.00</geoidheight><course>180.3</course><type>1</type></trkpt>
      <trkpt lat="40.57295048" lon="-4.78541102"><ele>2820</ele><speed>6.02</speed><time>2016-07-01T16:00:12Z</time><pdop>6.0</pdop><geoidheight>53.00</geoidheight><course>222.6</course><type>1</type></trkpt>
      <trkpt lat="40.57309087" lon="-4.785536"><ele>2828</ele><speed>4.92</speed><time>2016-07-01T16:00:15Z</time><pdop>7.0</pdop><geoidheight>53.00</geoidheight><course>327.9</course><type>1</type></trkpt>
      <trkpt lat="40.57327001" lon="-4.78545853"><ele>2841</ele><speed>6.41</speed><time>2016-07-01T16:00:18Z</time><pdop>8.0</pdop><geoidheight>53.00</geoidheight><course>33.2</course><type>1</type></trkpt>
      <trkpt lat="40.57341045" lon="-4.78517499"><ele>2853</ele><speed>14.85</speed><time>2016-07-01T16:00:20Z</time><pdop>7.0</pdop><geoidheight>53.00</geoidheight><course>62.0</course><type>1</type></trkpt>
      <trkpt lat="40.57346044" lon="-4.78501431"><ele>2857</ele><speed>15.56</speed><time>2016-07-01T16:00:21Z</time><pdop>7.0</pdop><geoidheight>53.00</geoidheight><course>69.1</course><type>1</type></trkpt>
      <trkpt lat="40.57351707" lon="-4.78484354"><ele>2861</ele><speed>15.72</speed><time>2016-07-01T16:00:22Z</time><pdop>7.0</pdop><geoidheight>53.00</geoidheight><course>72.6</course><type>1</type></trkpt>
      <trkpt lat="40.57345321" lon="-4.7846906"><ele>2865</ele><speed>14.25</speed><time>2016-07-01T16:00:23Z</time><pdop>6.0</pdop><geoidheight>53.00</geoidheight><course>102.8</course><type>1</type></trkpt>
      <trkpt lat="40.57339268" lon="-4.78454819"><ele>2866</ele><speed>13.84</speed><time>2016-07-01T16:00:24Z</time><pdop>5.0</pdop><geoidheight>53.00</geoidheight><course>116.9</course><type>1</type></trkpt>
      <trkpt lat="40.57334401" lon="-4.78439714"><ele>2867</ele><speed>13.75</speed><time>2016-07-01T16:00:25Z</time><pdop>6.0</pdop><geoidheight>53.00</geoidheight><course>117.2</course><type>1</type></trkpt>
      <trkpt lat="40.5732333" lon="-4.78430236"><ele>2870</ele><speed>13.91</speed><time>2016-07-01T16:00:26Z</time><pdop>5.0</pdop><geoidheight>53.00</geoidheight><course>137.7</course><type>1</type></trkpt>
      <trkpt lat="40.57314638" lon="-4.78423289"><ele>2871</ele><speed>13.68</speed><time>2016-07-01T16:00:27Z</time><pdop>4.0</pdop><geoidheight>53.00</geoidheight><course>148.9</course><type>1</type></trkpt>
      <trkpt lat="40.57305087" lon="-4.78418357"><ele>2872</ele><speed>12.87</speed><time>2016-07-01T16:00:28Z</time><pdop>4.0</pdop><geoidheight>53.00</geoidheight><course>156.3</course><type>1</type></trkpt>
      <trkpt lat="40.57294238" lon="-4.78416508"><ele>2872</ele><speed>12.81</speed><time>2016-07-01T16:00:29Z</time><pdop>4.0</pdop><geoidheight>53.00</geoidheight><course>167.4</course><type>1</type></trkpt>
      <trkpt lat="40.5728313" lon="-4.78414665"><ele>2873</ele><speed>12.29</speed><time>2016-07-01T16:00:30Z</time><pdop>5.0</pdop><geoidheight>53.00</geoidheight><course>168.4</course><type>1</type></trkpt>
      <trkpt lat="40.5726558" lon="-4.78416768"><ele>2880</ele><speed>11.33</speed><time>2016-07-01T16:00:32Z</time><pdop>5.0</pdop><geoidheight>53.00</geoidheight><course>175.9</course><type>1</type></trkpt>
      <trkpt lat="40.57256285" lon="-4.78418543"><ele>2853</ele><speed>11.07</speed><time>2016-07-01T16:00:33Z</time><pdop>5.0</pdop><geoidheight>53.00</geoidheight><course>179.2</course><type>1</type></trkpt>
      <trkpt lat="40.572479" lon="-4.78420448"><ele>2862</ele><speed>10.39</speed><time>2016-07-01T16:00:34Z</time><pdop>4.0</pdop><geoidheight>53.00</geoidheight><course>185.1</course><type>1</type></trkpt>
      <trkpt lat="40.57239868" lon="-4.7842258"><ele>2869</ele><speed>9.89</speed><time>2016-07-01T16:00:35Z</time><pdop>4.0</pdop><geoidheight>53.00</geoidheight><course>187.7</course><type>1</type></trkpt>
      <trkpt lat="40.57227309" lon="-4.78428751"><ele>2879</ele><speed>7.94</speed><time>2016-07-01T16:00:37Z</time><pdop>6.0</pdop><geoidheight>53.00</geoidheight><course>196.0</course><type>1</type></trkpt>
      <trkpt lat="40.57215947" lon="-4.78440397"><ele>2891</ele><speed>6.00</speed><time>2016-07-01T16:00:40Z</time><pdop>9.0</pdop><geoidheight>53.00</geoidheight><course>209.7</course><type>1</type></trkpt>
      <trkpt lat="40.57223995" lon="-4.7845942"><ele>2911</ele><speed>6.96</speed><time>2016-07-01T16:00:44Z</time><pdop>9.0</pdop><geoidheight>53.00</geoidheight><course>325.6</course><type>1</type></trkpt>
      <trkpt lat="40.57247791" lon="-4.7845463"><ele>2935</ele><speed>11.40</speed><time>2016-07-01T16:00:47Z</time><pdop>9.0</pdop><geoidheight>53.00</geoidheight><course>25.7</course><type>1</type></trkpt>
      <trkpt lat="40.57262958" lon="-4.78424372"><ele>2950</ele><speed>12.59</speed><time>2016-07-01T16:00:50Z</time><pdop>13.0</pdop><geoidheight>53.00</geoidheight><course>60.3</course><type>1</type></trkpt>
      <trkpt lat="40.57243493" lon="-4.78389616"><ele>2959</ele><speed>10.98</speed><time>2016-07-01T16:00:53Z</time><pdop>16.0</pdop><geoidheight>53.00</geoidheight><course>103.8</course><type>1</type></trkpt>
      <trkpt lat="40.57204885" lon="-4.78391346"><ele>2966</ele><speed>9.80</speed><time>2016-07-01T16:00:56Z</time><pdop>14.0</pdop><geoidheight>53.00</geoidheight><course>177.4</course><type>1</type></trkpt>
      <trkpt lat="40.57181101" lon="-4.78397256"><ele>2970</ele><speed>10.35</speed><time>2016-07-01T16:00:58Z</time><pdop>11.0</pdop><geoidheight>53.00</geoidheight><course>192.7</course><type>1</type></trkpt>
      <trkpt lat="40.57180383" lon="-4.78425424"><ele>2991</ele><speed>5.38</speed><time>2016-07-01T16:01:02Z</time><pdop>11.0</pdop><geoidheight>53.00</geoidheight><course>266.4</course><type>1</type></trkpt>
      <trkpt lat="40.57206881" lon="-4.78436556"><ele>3014</ele><speed>5.34</speed><time>2016-07-01T16:01:07Z</time><pdop>14.0</pdop><geoidheight>53.00</geoidheight><course>343.6</course><type>1</type></trkpt>
      <trkpt lat="40.57210917" lon="-4.78395522"><ele>3020</ele><speed>7.14</speed><time>2016-07-01T16:01:12Z</time><pdop>18.0</pdop><geoidheight>53.00</geoidheight><course>107.4</course><type>1</type></trkpt>
      <trkpt lat="40.5719968" lon="-4.78359319"><ele>3026</ele><speed>15.81</speed><time>2016-07-01T16:01:13Z</time><pdop>12.0</pdop><geoidheight>53.00</geoidheight><course>120.3</course><type>1</type></trkpt>
      <trkpt lat="40.5718196" lon="-4.78331803"><ele>3041</ele><speed>14.38</speed><time>2016-07-01T16:01:15Z</time><pdop>8.0</pdop><geoidheight>53.00</geoidheight><course>136.7</course><type>1</type></trkpt>
      <trkpt lat="40.57164984" lon="-4.78311746"><ele>3051</ele><speed>13.42</speed><time>2016-07-01T16:01:17Z</time><pdop>7.0</pdop><geoidheight>53.00</geoidheight><course>150.7</course><type>1</type></trkpt>
      <trkpt lat="40.57143274" lon="-4.78301452"><ele>3064</ele><speed>13.52</speed><time>2016-07-01T16:01:19Z</time><pdop>8.0</pdop><geoidheight>53.00</geoidheight><course>164.7</course><type>1</type></trkpt>
      <trkpt lat="40.57123614" lon="-4.78304312"><ele>3077</ele><speed>12.80</speed><time>2016-07-01T16:01:21Z</time><pdop>8.0</pdop><geoidheight>53.00</geoidheight><course>188.9</course><type>1</type></trkpt>
      <trkpt lat="40.57106197" lon="-4.78313319"><ele>3090</ele><speed>11.58</speed><time>2016-07-01T16:01:23Z</time><pdop>8.0</pdop><geoidheight>53.00</geoidheight><course>206.1</course><type>1</type></trkpt>
      <trkpt lat="40.57091824" lon="-4.7832293"><ele>3108</ele><speed>11.31</speed><time>2016-07-01T16:01:25Z</time><pdop>9.0</pdop><geoidheight>53.00</geoidheight><course>215.7</course><type>1</type></trkpt>
      <trkpt lat="40.57097027" lon="-4.78344615"><ele>3136</ele><speed>6.14</speed><time>2016-07-01T16:01:31Z</time><pdop>10.0</pdop><geoidheight>53.00</geoidheight><course>328.7</course><type>1</type></trkpt>
      <trkpt lat="40.57118052" lon="-4.78335424"><ele>3146</ele><speed>8.94</speed><time>2016-07-01T16:01:34Z</time><pdop>9.0</pdop><geoidheight>53.00</geoidheight><course>35.4</course><type>1</type></trkpt>
      <trkpt lat="40.57133712" lon="-4.783125"><ele>3155</ele><speed>12.53</speed><time>2016-07-01T16:01:36Z</time><pdop>9.0</pdop><geoidheight>53.00</geoidheight><course>54.3</course><type>1</type></trkpt>
      <trkpt lat="40.57137098" lon="-4.78278393"><ele>3159</ele><speed>14.88</speed><time>2016-07-01T16:01:38Z</time><pdop>8.0</pdop><geoidheight>53.00</geoidheight><course>83.0</course><type>1</type></trkpt>
      <trkpt lat="40.57135632" lon="-4.78259715"><ele>3162</ele><speed>15.30</speed><time>2016-07-01T16:01:39Z</time><pdop>7.0</pdop><geoidheight>53.00</geoidheight><course>91.8</course><type>1</type></trkpt>
      <trkpt lat="40.5713257" lon="-4.78241104"><ele>3163</ele><speed>15.85</speed><time>2016-07-01T16:01:40Z</time><pdop>6.0</pdop><geoidheight>53.00</geoidheight><course>99.0</course><type>1</type></trkpt>
      <trkpt lat="40.57129825" lon="-4.78222757"><ele>3167</ele><speed>15.67</speed><time>2016-07-01T16:01:41Z</time><pdop>5.0</pdop><geoidheight>53.00</geoidheight><course>105.1</course><type>1</type></trkpt>
      <trkpt lat="40.5712572" lon="-4.78204785"><ele>3168</ele><speed>15.98</speed><time>2016-07-01T16:01:42Z</time><pdop>5.0</pdop><geoidheight>53.00</geoidheight><course>110.4</course><type>1</type></trkpt>
      <trkpt lat="40.5711976" lon="-4.78189534"><ele>3172</ele><speed>15.51</speed><time>2016-07-01T16:01:43Z</time><pdop>5.0</pdop><geoidheight>53.00</geoidheight><course>118.1</course><type>1</type></trkpt>
      <trkpt lat="40.57110938" lon="-4.78177099"><ele>3173</ele><speed>14.01</speed><time>2016-07-01T16:01:44Z</time><pdop>5.0</pdop><geoidheight>53.00</geoidheight><course>129.1</course><type>1</type></trkpt>
      <trkpt lat="40.57101518" lon="-4.78168025"><ele>3177</ele><speed>14.05</speed><time>2016-07-01T16:01:45Z</time><pdop>5.0</pdop><geoidheight>53.00</geoidheight><course>142.1</course><type>1</type></trkpt>
      <trkpt lat="40.57089779" lon="-4.78161235"><ele>3180</ele><speed>14.57</speed><time>2016-07-01T16:01:46Z</time><pdop>4.0</pdop><geoidheight>53.00</geoidheight><course>153.9</course><type>1</type></trkpt>
      <trkpt lat="40.57077963" lon="-4.78153892"><ele>3181</ele><speed>14.46</speed><time>2016-07-01T16:01:47Z</time><pdop>5.0</pdop><geoidheight>53.00</geoidheight><course>155.5</course><type>1</type></trkpt>
      <trkpt lat="40.57065713" lon="-4.78149617"><ele>3182</ele><speed>14.58</speed><time>2016-07-01T16:01:48Z</time><pdop>6.0</pdop><geoidheight>53.00</geoidheight><course>162.6</course><type>1</type></trkpt>
      <trkpt lat="40.57055628" lon="-4.7815446"><ele>3189</ele><speed>12.73</speed><time>2016-07-01T16:01:49Z</time><pdop>5.0</pdop><geoidheight>53.00</geoidheight><course>182.1</course><type>1</type></trkpt>
      <trkpt lat="40.57044133" lon="-4.78156071"><ele>3193</ele><speed>12.40</speed><time>2016-07-01T16:01:50Z</time><pdop>6.0</pdop><geoidheight>53.00</geoidheight><course>184.7</course><type>1</type></trkpt>
      <trkpt lat="40.57025215" lon="-4.78164323"><ele>3197</ele><speed>11.46</speed><time>2016-07-01T16:01:52Z</time><pdop>6.0</pdop><geoidheight>53.00</geoidheight><course>201.7</course><type>1</type></trkpt>
      <trkpt lat="40.57012401" lon="-4.78180788"><ele>3206</ele><speed>7.96</speed><time>2016-07-01T16:01:55Z</time><pdop>9.0</pdop><geoidheight>53.00</geoidheight><course>214.2</course><type>1</type></trkpt>
      <trkpt lat="40.57009926" lon="-4.78206661"><ele>3217</ele><speed>4.84</speed><time>2016-07-01T16:01:59Z</time><pdop>10.0</pdop><geoidheight>53.00</geoidheight><course>255.6</course><type>1</type></trkpt>
      <trkpt lat="40.57022478" lon="-4.78228247"><ele>3036</ele><speed>6.01</speed><time>2016-07-01T16:02:03Z</time><pdop>11.0</pdop><geoidheight>53.00</geoidheight><course>316.4</course><type>1</type></trkpt>
      <trkpt lat="40.57037439" lon="-4.78245393"><ele>3132</ele><speed>6.78</speed><time>2016-07-01T16:02:06Z</time><pdop>9.0</pdop><geoidheight>53.00</geoidheight><course>321.4</course><type>1</type></trkpt>
      <trkpt lat="40.5705029" lon="-4.7826566"><ele>3188</ele><speed>4.92</speed><time>2016-07-01T16:02:10Z</time><pdop>10.0</pdop><geoidheight>53.00</geoidheight><course>317.5</course><type>1</type></trkpt>
      <trkpt lat="40.5705308" lon="-4.78285199"><ele>3213</ele><speed>4.93</speed><time>2016-07-01T16:02:13Z</time><pdop>6.0</pdop><geoidheight>53.00</geoidheight><course>283.6</course><type>1</type></trkpt>
      <trkpt lat="40.57055606" lon="-4.78298527"><ele>3227</ele><speed>4.78</speed><time>2016-07-01T16:02:15Z</time><pdop>5.0</pdop><geoidheight>53.00</geoidheight><course>279.2</course><type>1</type></trkpt>
      <trkpt lat="40.57057834" lon="-4.78310864"><ele>3234</ele><speed>5.50</speed><time>2016-07-01T16:02:17Z</time><pdop>5.0</pdop><geoidheight>53.00</geoidheight><course>284.0</course><type>1</type></trkpt>
      <trkpt lat="40.57060362" lon="-4.78326989"><ele>3240</ele><speed>6.91</speed><time>2016-07-01T16:02:19Z</time><pdop>7.0</pdop><geoidheight>53.00</geoidheight><course>280.3</course><type>1</type></trkpt>
      <trkpt lat="40.57063849" lon="-4.78341671"><ele>3247</ele><speed>6.91</speed><time>2016-07-01T16:02:21Z</time><pdop>6.0</pdop><geoidheight>53.00</geoidheight><course>283.1</course><type>1</type></trkpt>
      <trkpt lat="40.57066958" lon="-4.78354744"><ele>3254</ele><speed>6.00</speed><time>2016-07-01T16:02:23Z</time><pdop>4.0</pdop><geoidheight>53.00</geoidheight><course>290.0</course><type>1</type></trkpt>
      <trkpt lat="40.57068941" lon="-4.78369489"><ele>3260</ele><speed>5.62</speed><time>2016-07-01T16:02:25Z</time><pdop>4.0</pdop><geoidheight>53.00</geoidheight><course>284.7</course><type>1</type></trkpt>
      <trkpt lat="40.57068301" lon="-4.78382003"><ele>3264</ele><speed>5.69</speed><time>2016-07-01T16:02:27Z</time><pdop>3.0</pdop><geoidheight>53.00</geoidheight><course>276.7</course><type>1</type></trkpt>
      <trkpt lat="40.57068672" lon="-4.78390045"><ele>3267</ele><speed>5.90</speed><time>2016-07-01T16:02:28Z</time><pdop>3.0</pdop><geoidheight>53.00</geoidheight><course>279.9</course><type>1</type></trkpt>
      <trkpt lat="40.57069284" lon="-4.78398323"><ele>3269</ele><speed>6.38</speed><time>2016-07-01T16:02:29Z</time><pdop>3.0</pdop><geoidheight>53.00</geoidheight><course>278.4</course><type>1</type></trkpt>
      <trkpt lat="40.57068882" lon="-4.78406687"><ele>3271</ele><speed>6.92</speed><time>2016-07-01T16:02:30Z</time><pdop>3.0</pdop><geoidheight>53.00</geoidheight><course>275.1</course><type>1</type></trkpt>
      <trkpt lat="40.57068624" lon="-4.78415648"><ele>3274</ele><speed>7.03</speed><time>2016-07-01T16:02:31Z</time><pdop>3.0</pdop><geoidheight>53.00</geoidheight><course>271.0</course><type>1</type></trkpt>
      <trkpt lat="40.57069022" lon="-4.78423721"><ele>3277</ele><speed>6.84</speed><time>2016-07-01T16:02:32Z</time><pdop>3.0</pdop><geoidheight>53.00</geoidheight><course>275.2</course><type>1</type></trkpt>
      <trkpt lat="40.57069955" lon="-4.78431547"><ele>3278</ele><speed>6.61</speed><time>2016-07-01T16:02:33Z</time><pdop>3.0</pdop><geoidheight>53.00</geoidheight><course>279.7</course><type>1</type></trkpt>
      <trkpt lat="40.57071961" lon="-4.78439586"><ele>3280</ele><speed>6.36</speed><time>2016-07-01T16:02:34Z</time><pdop>3.0</pdop><geoidheight>53.00</geoidheight><course>280.8</course><type>1</type></trkpt>
      <trkpt lat="40.57074796" lon="-4.78453821"><ele>3282</ele><speed>6.58</speed><time>2016-07-01T16:02:36Z</time><pdop>3.0</pdop><geoidheight>53.00</geoidheight><course>287.1</course><type>1</type></trkpt>
      <trkpt lat="40.57078192" lon="-4.78461931"><ele>3282</ele><speed>7.02</speed><time>2016-07-01T16:02:37Z</time><pdop>3.0</pdop><geoidheight>53.00</geoidheight><course>291.6</course><type>1</type></trkpt>
      <trkpt lat="40.57081377" lon="-4.78470344"><ele>3282</ele><speed>7.30</speed><time>2016-07-01T16:02:38Z</time><pdop>3.0</pdop><geoidheight>53.00</geoidheight><course>291.2</course><type>1</type></trkpt>
      <trkpt lat="40.57082824" lon="-4.7847866"><ele>3283</ele><speed>7.32</speed><time>2016-07-01T16:02:39Z</time><pdop>4.0</pdop><geoidheight>53.00</geoidheight><course>289.0</course><type>1</type></trkpt>
      <trkpt lat="40.5708462" lon="-4.7849673"><ele>3283</ele><speed>8.42</speed><time>2016-07-01T16:02:41Z</time><pdop>9.0</pdop><geoidheight>53.00</geoidheight><course>282.7</course><type>1</type></trkpt>
      <trkpt lat="40.57091215" lon="-4.78516252"><ele>3285</ele><speed>9.19</speed><time>2016-07-01T16:02:43Z</time><pdop>9.0</pdop><geoidheight>53.00</geoidheight><course>294.0</course><type>1</type></trkpt>
      <trkpt lat="40.57099289" lon="-4.78537145"><ele>3287</ele><speed>9.42</speed><time>2016-07-01T16:02:45Z</time><pdop>9.0</pdop><geoidheight>53.00</geoidheight><course>297.8</course><type>1</type></trkpt>
      <trkpt lat="40.571072" lon="-4.7856711"><ele>3291</ele><speed>8.92</speed><time>2016-07-01T16:02:48Z</time><pdop>9.0</pdop><geoidheight>53.00</geoidheight><course>288.9</course><type>1</type></trkpt>
      <trkpt lat="40.5711677" lon="-4.78593585"><ele>3295</ele><speed>7.62</speed><time>2016-07-01T16:02:51Z</time><pdop>9.0</pdop><geoidheight>53.00</geoidheight><course>293.7</course><type>1</type></trkpt>
      <trkpt lat="40.57122929" lon="-4.78617065"><ele>3296</ele><speed>6.73</speed><time>2016-07-01T16:02:54Z</time><pdop>9.0</pdop><geoidheight>53.00</geoidheight><course>288.2</course><type>1</type></trkpt>
      <trkpt lat="40.57127407" lon="-4.78638124"><ele>3297</ele><speed>6.09</speed><time>2016-07-01T16:02:57Z</time><pdop>9.0</pdop><geoidheight>53.00</geoidheight><course>286.0</course><type>1</type></trkpt>
      <trkpt lat="40.57135521" lon="-4.78666136"><ele>3297</ele><speed>8.19</speed><time>2016-07-01T16:03:00Z</time><pdop>10.0</pdop><geoidheight>53.00</geoidheight><course>290.9</course><type>1</type></trkpt>
      <trkpt lat="40.57150578" lon="-4.78695263"><ele>3297</ele><speed>8.91</speed><time>2016-07-01T16:03:03Z</time><pdop>9.0</pdop><geoidheight>53.00</geoidheight><course>301.3</course><type>1</type></trkpt>
      <trkpt lat="40.57160494" lon="-4.78717725"><ele>3299</ele><speed>8.19</speed><time>2016-07-01T16:03:06Z</time><pdop>9.0</pdop><geoidheight>53.00</geoidheight><course>299.4</course><type>1</type></trkpt>
      <trkpt lat="40.57172767" lon="-4.78744348"><ele>3298</ele><speed>8.20</speed><time>2016-07-01T16:03:09Z</time><pdop>10.0</pdop><geoidheight>53.00</geoidheight><course>301.5</course><type>1</type></trkpt>
      <trkpt lat="40.57182377" lon="-4.7876788"><ele>3298</ele><speed>8.27</speed><time>2016-07-01T16:03:12Z</time><pdop>10.0</pdop><geoidheight>53.00</geoidheight><course>296.8</course><type>1</type></trkpt>
      <trkpt lat="40.571861" lon="-4.78796417"><ele>3299</ele><speed>6.96</speed><time>2016-07-01T16:03:16Z</time><pdop>13.0</pdop><geoidheight>53.00</geoidheight><course>281.6</course><type>1</type></trkpt>
      <trkpt lat="40.57180913" lon="-4.78829527"><ele>3296</ele><speed>7.56</speed><time>2016-07-01T16:03:20Z</time><pdop>12.0</pdop><geoidheight>53.00</geoidheight><course>266.0</course><type>1</type></trkpt>
      <trkpt lat="40.57192581" lon="-4.78863016"><ele>3295</ele><speed>8.84</speed><time>2016-07-01T16:03:23Z</time><pdop>12.0</pdop><geoidheight>53.00</geoidheight><course>287.7</course><type>1</type></trkpt>
      <trkpt lat="40.57192881" lon="-4.78890641"><ele>3296</ele><speed>6.29</speed><time>2016-07-01T16:03:27Z</time><pdop>10.0</pdop><geoidheight>53.00</geoidheight><course>280.5</course><type>1</type></trkpt>
      <trkpt lat="40.57199569" lon="-4.7892164"><ele>3298</ele><speed>6.80</speed><time>2016-07-01T16:03:31Z</time><pdop>10.0</pdop><geoidheight>53.00</geoidheight><course>286.0</course><type>1</type></trkpt>
      <trkpt lat="40.5720679" lon="-4.78950593"><ele>3295</ele><speed>8.20</speed><time>2016-07-01T16:03:34Z</time><pdop>10.0</pdop><geoidheight>53.00</geoidheight><course>283.8</course><type>1</type></trkpt>
      <trkpt lat="40.57209245" lon="-4.78979204"><ele>3293</ele><speed>8.67</speed><time>2016-07-01T16:03:37Z</time><pdop>11.0</pdop><geoidheight>53.00</geoidheight><course>278.0</course><type>1</type></trkpt>
      <trkpt lat="40.57217816" lon="-4.79009171"><ele>3292</ele><speed>8.91</speed><time>2016-07-01T16:03:40Z</time><pdop>9.0</pdop><geoidheight>53.00</geoidheight><course>288.8</course><type>1</type></trkpt>
      <trkpt lat="40.57225381" lon="-4.79028311"><ele>3294</ele><speed>8.87</speed><time>2016-07-01T16:03:42Z</time><pdop>9.0</pdop><geoidheight>53.00</geoidheight><course>296.3</course><type>1</type></trkpt>
      <trkpt lat="40.57234863" lon="-4.79048774"><ele>3298</ele><speed>6.67</speed><time>2016-07-01T16:03:45Z</time><pdop>9.0</pdop><geoidheight>53.00</geoidheight><course>303.0</course><type>1</type></trkpt>
      <trkpt lat="40.57247411" lon="-4.79063944"><ele>3300</ele><speed>5.96</speed><time>2016-07-01T16:03:48Z</time><pdop>9.0</pdop><geoidheight>53.00</geoidheight><course>310.7</course><type>1</type></trkpt>
      <trkpt lat="40.57256551" lon="-4.79086475"><ele>3300</ele><speed>4.59</speed><time>2016-07-01T16:03:52Z</time><pdop>9.0</pdop><geoidheight>53.00</geoidheight><course>289.2</course><type>1</type></trkpt>
      <trkpt lat="40.57263812" lon="-4.79108471"><ele>3296</ele><speed>7.20</speed><time>2016-07-01T16:03:55Z</time><pdop>9.0</pdop><geoidheight>53.00</geoidheight><course>288.1</course><type>1</type></trkpt>
      <trkpt lat="40.57272682" lon="-4.79136782"><ele>3289</ele><speed>9.54</speed><time>2016-07-01T16:03:58Z</time><pdop>9.0</pdop><geoidheight>53.00</geoidheight><course>285.7</course><type>1</type></trkpt>
      <trkpt lat="40.57281823" lon="-4.79169122"><ele>3290</ele><speed>12.34</speed><time>2016-07-01T16:04:00Z</time><pdop>10.0</pdop><geoidheight>53.00</geoidheight><course>291.3</course><type>1</type></trkpt>
      <trkpt lat="40.57297242" lon="-4.79194091"><ele>3288</ele><speed>11.96</speed><time>2016-07-01T16:04:02Z</time><pdop>10.0</pdop><geoidheight>53.00</geoidheight><course>301.6</course><type>1</type></trkpt>
      <trkpt lat="40.57317491" lon="-4.79217444"><ele>3280</ele><speed>9.27</speed><time>2016-07-01T16:04:06Z</time><pdop>12.0</pdop><geoidheight>53.00</geoidheight><course>300.8</course><type>1</type></trkpt>
      <trkpt lat="40.57329598" lon="-4.79246777"><ele>3278</ele><speed>10.70</speed><time>2016-07-01T16:04:08Z</time><pdop>11.0</pdop><geoidheight>53.00</geoidheight><course>295.1</course><type>1</type></trkpt>
      <trkpt lat="40.57335522" lon="-4.79281337"><ele>3158</ele><speed>10.77</speed><time>2016-07-01T16:04:11Z</time><pdop>11.0</pdop><geoidheight>53.00</geoidheight><course>283.8</course><type>1</type></trkpt>
      <trkpt lat="40.57342223" lon="-4.79313642"><ele>3191</ele><speed>11.56</speed><time>2016-07-01T16:04:13Z</time><pdop>10.0</pdop><geoidheight>53.00</geoidheight><course>279.1</course><type>1</type></trkpt>
      <trkpt lat="40.57351284" lon="-4.79339664"><ele>3211</ele><speed>11.06</speed><time>2016-07-01T16:04:15Z</time><pdop>10.0</pdop><geoidheight>53.00</geoidheight><course>289.9</course><type>1</type></trkpt>
      <trkpt lat="40.57363024" lon="-4.79361"><ele>3219</ele><speed>12.08</speed><time>2016-07-01T16:04:17Z</time><pdop>11.0</pdop><geoidheight>53.00</geoidheight><course>294.9</course><type>1</type></trkpt>
      <trkpt lat="40.5737083" lon="-4.79403188"><ele>3222</ele><speed>13.11</speed><time>2016-07-01T16:04:20Z</time><pdop>13.0</pdop><geoidheight>53.00</geoidheight><course>284.1</course><type>1</type></trkpt>
      <trkpt lat="40.57385363" lon="-4.79431265"><ele>3219</ele><speed>12.74</speed><time>2016-07-01T16:04:22Z</time><pdop>11.0</pdop><geoidheight>53.00</geoidheight><course>295.7</course><type>1</type></trkpt>
      <trkpt lat="40.57396424" lon="-4.79455064"><ele>3219</ele><speed>11.85</speed><time>2016-07-01T16:04:24Z</time><pdop>12.0</pdop><geoidheight>53.00</geoidheight><course>297.3</course><type>1</type></trkpt>
      <trkpt lat="40.57405323" lon="-4.79486692"><ele>3215</ele><speed>11.05</speed><time>2016-07-01T16:04:27Z</time><pdop>15.0</pdop><geoidheight>53.00</geoidheight><course>291.9</course><type>1</type></trkpt>
      <trkpt lat="40.57418283" lon="-4.79517753"><ele>3212</ele><speed>13.29</speed><time>2016-07-01T16:04:29Z</time><pdop>12.0</pdop><geoidheight>53.00</geoidheight><course>295.1</course><type>1</type></trkpt>
      <trkpt lat="40.57430282" lon="-4.79546586"><ele>3210</ele><speed>13.10</speed><time>2016-07-01T16:04:31Z</time><pdop>11.0</pdop><geoidheight>53.00</geoidheight><course>292.4</course><type>1</type></trkpt>
      <trkpt lat="40.57436785" lon="-4.79571829"><ele>3208</ele><speed>12.01</speed><time>2016-07-01T16:04:33Z</time><pdop>11.0</pdop><geoidheight>53.00</geoidheight><course>287.9</course><type>1</type></trkpt>
      <trkpt lat="40.5744309" lon="-4.79600131"><ele>3205</ele><speed>12.73</speed><time>2016-07-01T16:04:35Z</time><pdop>12.0</pdop><geoidheight>53.00</geoidheight><course>288.0</course><type>1</type></trkpt>
      <trkpt lat="40.57453258" lon="-4.79627316"><ele>3200</ele><speed>13.34</speed><time>2016-07-01T16:04:37Z</time><pdop>11.0</pdop><geoidheight>53.00</geoidheight><course>292.2</course><type>1</type></trkpt>
      <trkpt lat="40.57461846" lon="-4.79651726"><ele>3196</ele><speed>11.71</speed><time>2016-07-01T16:04:39Z</time><pdop>10.0</pdop><geoidheight>53.00</geoidheight><course>293.5</course><type>1</type></trkpt>
      <trkpt lat="40.57471034" lon="-4.79675156"><ele>3192</ele><speed>11.04</speed><time>2016-07-01T16:04:41Z</time><pdop>11.0</pdop><geoidheight>53.00</geoidheight><course>293.3</course><type>1</type></trkpt>
      <trkpt lat="40.57477536" lon="-4.79700842"><ele>3187</ele><speed>11.88</speed><time>2016-07-01T16:04:43Z</time><pdop>11.0</pdop><geoidheight>53.00</geoidheight><course>288.4</course><type>1</type></trkpt>
      <trkpt lat="40.57483905" lon="-4.79726203"><ele>3181</ele><speed>11.66</speed><time>2016-07-01T16:04:45Z</time><pdop>10.0</pdop><geoidheight>53.00</geoidheight><course>289.4</course><type>1</type></trkpt>
      <trkpt lat="40.57492128" lon="-4.79750682"><ele>3177</ele><speed>10.85</speed><time>2016-07-01T16:04:47Z</time><pdop>11.0</pdop><geoidheight>53.00</geoidheight><course>290.1</course><type>1</type></trkpt>
      <trkpt lat="40.57500374" lon="-4.79783324"><ele>3174</ele><speed>10.34</speed><time>2016-07-01T16:04:50Z</time><pdop>11.0</pdop><geoidheight>53.00</geoidheight><course>284.2</course><type>1</type></trkpt>
      <trkpt lat="40.5750784" lon="-4.79816055"><ele>3167</ele><speed>10.08</speed><time>2016-07-01T16:04:53Z</time><pdop>10.0</pdop><geoidheight>53.00</geoidheight><course>286.0</course><type>1</type></trkpt>
      <trkpt lat="40.57512782" lon="-4.7984055"><ele>3165</ele><speed>10.66</speed><time>2016-07-01T16:04:55Z</time><pdop>11.0</pdop><geoidheight>53.00</geoidheight><course>284.8</course><type>1</type></trkpt>
      <trkpt lat="40.57521527" lon="-4.79878055"><ele>3159</ele><speed>11.92</speed><time>2016-07-01T16:04:58Z</time><pdop>10.0</pdop><geoidheight>53.00</geoidheight><course>289.3</course><type>1</type></trkpt>
      <trkpt lat="40.57529623" lon="-4.7990556"><ele>3156</ele><speed>12.72</speed><time>2016-07-01T16:05:00Z</time><pdop>11.0</pdop><geoidheight>53.00</geoidheight><course>291.4</course><type>1</type></trkpt>
      <trkpt lat="40.57549438" lon="-4.79922708"><ele>3150</ele><speed>5.88</speed><time>2016-07-01T16:05:05Z</time><pdop>10.0</pdop><geoidheight>53.00</geoidheight><course>311.6</course><type>1</type></trkpt>
      <trkpt lat="40.5756519" lon="-4.79947907"><ele>3133</ele><speed>9.47</speed><time>2016-07-01T16:05:09Z</time><pdop>9.0</pdop><geoidheight>53.00</geoidheight><course>293.9</course><type>1</type></trkpt>
      <trkpt lat="40.57572221" lon="-4.79970526"><ele>3127</ele><speed>10.74</speed><time>2016-07-01T16:05:11Z</time><pdop>9.0</pdop><geoidheight>53.00</geoidheight><course>292.8</course><type>1</type></trkpt>
      <trkpt lat="40.57576996" lon="-4.79991207"><ele>3126</ele><speed>9.58</speed><time>2016-07-01T16:05:13Z</time><pdop>9.0</pdop><geoidheight>53.00</geoidheight><course>286.6</course><type>1</type></trkpt>
      <trkpt lat="40.57583385" lon="-4.8001136"><ele>3124</ele><speed>9.48</speed><time>2016-07-01T16:05:15Z</time><pdop>9.0</pdop><geoidheight>53.00</geoidheight><course>291.8</course><type>1</type></trkpt>
      <trkpt lat="40.57590323" lon="-4.80041386"><ele>3121</ele><speed>10.11</speed><time>2016-07-01T16:05:18Z</time><pdop>11.0</pdop><geoidheight>53.00</geoidheight><course>281.6</course><type>1</type></trkpt>
      <trkpt lat="40.5759373" lon="-4.80065984"><ele>3117</ele><speed>10.37</speed><time>2016-07-01T16:05:20Z</time><pdop>10.0</pdop><geoidheight>53.00</geoidheight><course>281.8</course><type>1</type></trkpt>
      <trkpt lat="40.57599277" lon="-4.80098332"><ele>3114</ele><speed>10.12</speed><time>2016-07-01T16:05:23Z</time><pdop>10.0</pdop><geoidheight>53.00</geoidheight><course>282.0</course><type>1</type></trkpt>
      <trkpt lat="40.57602333" lon="-4.8012611"><ele>3111</ele><speed>9.97</speed><time>2016-07-01T16:05:25Z</time><pdop>10.0</pdop><geoidheight>53.00</geoidheight><course>276.3</course><type>1</type></trkpt>
      <trkpt lat="40.57604743" lon="-4.80157602"><ele>3106</ele><speed>9.27</speed><time>2016-07-01T16:05:28Z</time><pdop>10.0</pdop><geoidheight>53.00</geoidheight><course>274.5</course><type>1</type></trkpt>
      <trkpt lat="40.57604087" lon="-4.80182722"><ele>3102</ele><speed>10.85</speed><time>2016-07-01T16:05:30Z</time><pdop>11.0</pdop><geoidheight>53.00</geoidheight><course>269.6</course><type>1</type></trkpt>
      <trkpt lat="40.57605803" lon="-4.80209168"><ele>3099</ele><speed>10.92</speed><time>2016-07-01T16:05:32Z</time><pdop>10.0</pdop><geoidheight>53.00</geoidheight><course>273.5</course><type>1</type></trkpt>
      <trkpt lat="40.57607458" lon="-4.80234572"><ele>3097</ele><speed>10.37</speed><time>2016-07-01T16:05:34Z</time><pdop>9.0</pdop><geoidheight>53.00</geoidheight><course>275.6</course><type>1</type></trkpt>
      <trkpt lat="40.57610734" lon="-4.80259892"><ele>3092</ele><speed>11.13</speed><time>2016-07-01T16:05:36Z</time><pdop>9.0</pdop><geoidheight>53.00</geoidheight><course>276.7</course><type>1</type></trkpt>
      <trkpt lat="40.57617563" lon="-4.80288882"><ele>3085</ele><speed>12.86</speed><time>2016-07-01T16:05:38Z</time><pdop>9.0</pdop><geoidheight>53.00</geoidheight><course>283.1</course><type>1</type></trkpt>
      <trkpt lat="40.57623425" lon="-4.80314755"><ele>3081</ele><speed>12.01</speed><time>2016-07-01T16:05:40Z</time><pdop>9.0</pdop><geoidheight>53.00</geoidheight><course>287.0</course><type>1</type></trkpt>
      <trkpt lat="40.57631468" lon="-4.80336762"><ele>3075</ele><speed>11.06</speed><time>2016-07-01T16:05:42Z</time><pdop>9.0</pdop><geoidheight>53.00</geoidheight><course>291.7</course><type>1</type></trkpt>
      <trkpt lat="40.57640711" lon="-4.80360245"><ele>3067</ele><speed>12.26</speed><time>2016-07-01T16:05:44Z</time><pdop>9.0</pdop><geoidheight>53.00</geoidheight><course>293.2</course><type>1</type></trkpt>
      <trkpt lat="40.57648849" lon="-4.8038542"><ele>3061</ele><speed>12.28</speed><time>2016-07-01T16:05:46Z</time><pdop>9.0</pdop><geoidheight>53.00</geoidheight><course>287.9</course><type>1</type></trkpt>
      <trkpt lat="40.57653549" lon="-4.80412731"><ele>3057</ele><speed>11.70</speed><time>2016-07-01T16:05:48Z</time><pdop>9.0</pdop><geoidheight>53.00</geoidheight><course>281.2</course><type>1</type></trkpt>
      <trkpt lat="40.57657563" lon="-4.80437958"><ele>3053</ele><speed>10.90</speed><time>2016-07-01T16:05:50Z</time><pdop>9.0</pdop><geoidheight>53.00</geoidheight><course>280.8</course><type>1</type></trkpt>
      <trkpt lat="40.57660554" lon="-4.80464802"><ele>3052</ele><speed>11.67</speed><time>2016-07-01T16:05:52Z</time><pdop>9.0</pdop><geoidheight>53.00</geoidheight><course>276.5</course><type>1</type></trkpt>
      <trkpt lat="40.57664218" lon="-4.80496199"><ele>3047</ele><speed>13.39</speed><time>2016-07-01T16:05:54Z</time><pdop>10.0</pdop><geoidheight>53.00</geoidheight><course>274.7</course><type>1</type></trkpt>
      <trkpt lat="40.57669944" lon="-4.80526513"><ele>3042</ele><speed>13.32</speed><time>2016-07-01T16:05:56Z</time><pdop>10.0</pdop><geoidheight>53.00</geoidheight><course>280.3</course><type>1</type></trkpt>
      <trkpt lat="40.57674694" lon="-4.80553381"><ele>3039</ele><speed>12.34</speed><time>2016-07-01T16:05:58Z</time><pdop>10.0</pdop><geoidheight>53.00</geoidheight><course>282.8</course><type>1</type></trkpt>
      <trkpt lat="40.57682585" lon="-4.80578003"><ele>3033</ele><speed>11.78</speed><time>2016-07-01T16:06:00Z</time><pdop>10.0</pdop><geoidheight>53.00</geoidheight><course>288.4</course><type>1</type></trkpt>
      <trkpt lat="40.57689183" lon="-4.80601496"><ele>3027</ele><speed>11.94</speed><time>2016-07-01T16:06:02Z</time><pdop>10.0</pdop><geoidheight>53.00</geoidheight><course>290.5</course><type>1</type></trkpt>
      <trkpt lat="40.57694075" lon="-4.80628462"><ele>3025</ele><speed>12.08</speed><time>2016-07-01T16:06:04Z</time><pdop>10.0</pdop><geoidheight>53.00</geoidheight><course>282.4</course><type>1</type></trkpt>
      <trkpt lat="40.57697856" lon="-4.80650444"><ele>3018</ele><speed>11.30</speed><time>2016-07-01T16:06:06Z</time><pdop>9.0</pdop><geoidheight>53.00</geoidheight><course>282.5</course><type>1</type></trkpt>
      <trkpt lat="40.57701409" lon="-4.80678409"><ele>3014</ele><speed>12.27</speed><time>2016-07-01T16:06:08Z</time><pdop>9.0</pdop><geoidheight>53.00</geoidheight><course>274.6</course><type>1</type></trkpt>
      <trkpt lat="40.57702275" lon="-4.80708994"><ele>3011</ele><speed>12.73</speed><time>2016-07-01T16:06:10Z</time><pdop>10.0</pdop><geoidheight>53.00</geoidheight><course>271.3</course><type>1</type></trkpt>
      <trkpt lat="40.57701439" lon="-4.80736316"><ele>3008</ele><speed>11.94</speed><time>2016-07-01T16:06:12Z</time><pdop>11.0</pdop><geoidheight>53.00</geoidheight><course>267.2</course><type>1</type></trkpt>
      <trkpt lat="40.57698452" lon="-4.80765125"><ele>2906</ele><speed>12.59</speed><time>2016-07-01T16:06:14Z</time><pdop>10.0</pdop><geoidheight>53.00</geoidheight><course>263.7</course><type>1</type></trkpt>
      <trkpt lat="40.57694503" lon="-4.80796478"><ele>2938</ele><speed>13.55</speed><time>2016-07-01T16:06:16Z</time><pdop>10.0</pdop><geoidheight>53.00</geoidheight><course>262.7</course><type>1</type></trkpt>
      <trkpt lat="40.57691612" lon="-4.80829703"><ele>2949</ele><speed>15.10</speed><time>2016-07-01T16:06:18Z</time><pdop>10.0</pdop><geoidheight>53.00</geoidheight><course>266.3</course><type>1</type></trkpt>
      <trkpt lat="40.5769074" lon="-4.80861858"><ele>2956</ele><speed>14.04</speed><time>2016-07-01T16:06:20Z</time><pdop>10.0</pdop><geoidheight>53.00</geoidheight><course>266.8</course><type>1</type></trkpt>
      <trkpt lat="40.57689308" lon="-4.80890968"><ele>2955</ele><speed>12.97</speed><time>2016-07-01T16:06:22Z</time><pdop>10.0</pdop><geoidheight>53.00</geoidheight><course>265.5</course><type>1</type></trkpt>
      <trkpt lat="40.57687322" lon="-4.80917427"><ele>2961</ele><speed>11.64</speed><time>2016-07-01T16:06:24Z</time><pdop>12.0</pdop><geoidheight>53.00</geoidheight><course>264.7</course><type>1</type></trkpt>
      <trkpt lat="40.57680208" lon="-4.80946936"><ele>2959</ele><speed>7.47</speed><time>2016-07-01T16:06:28Z</time><pdop>13.0</pdop><geoidheight>53.00</geoidheight><course>256.3</course><type>1</type></trkpt>
      <trkpt lat="40.57676882" lon="-4.80988882"><ele>2968</ele><speed>10.71</speed><time>2016-07-01T16:06:31Z</time><pdop>13.0</pdop><geoidheight>53.00</geoidheight><course>261.1</course><type>1</type></trkpt>
      <trkpt lat="40.57677628" lon="-4.81017299"><ele>2970</ele><speed>12.03</speed><time>2016-07-01T16:06:33Z</time><pdop>10.0</pdop><geoidheight>53.00</geoidheight><course>270.8</course><type>1</type></trkpt>
      <trkpt lat="40.57679616" lon="-4.81043486"><ele>2971</ele><speed>12.18</speed><time>2016-07-01T16:06:35Z</time><pdop>9.0</pdop><geoidheight>53.00</geoidheight><course>277.6</course><type>1</type></trkpt>
      <trkpt lat="40.57683864" lon="-4.8107076"><ele>2971</ele><speed>11.81</speed><time>2016-07-01T16:06:37Z</time><pdop>11.0</pdop><geoidheight>53.00</geoidheight><course>280.6</course><type>1</type></trkpt>
      <trkpt lat="40.57686788" lon="-4.81106946"><ele>2970</ele><speed>10.99</speed><time>2016-07-01T16:06:40Z</time><pdop>11.0</pdop><geoidheight>53.00</geoidheight><course>277.4</course><type>1</type></trkpt>
      <trkpt lat="40.57691255" lon="-4.811431"><ele>2967</ele><speed>11.58</speed><time>2016-07-01T16:06:43Z</time><pdop>12.0</pdop><geoidheight>53.00</geoidheight><course>275.1</course><type>1</type></trkpt>
      <trkpt lat="40.57686784" lon="-4.81170878"><ele>2964</ele><speed>12.25</speed><time>2016-07-01T16:06:45Z</time><pdop>10.0</pdop><geoidheight>53.00</geoidheight><course>273.8</course><type>1</type></trkpt>
      <trkpt lat="40.57687608" lon="-4.81199596"><ele>2962</ele><speed>12.14</speed><time>2016-07-01T16:06:47Z</time><pdop>9.0</pdop><geoidheight>53.00</geoidheight><course>276.3</course><type>1</type></trkpt>
      <trkpt lat="40.57691348" lon="-4.81227647"><ele>2960</ele><speed>12.21</speed><time>2016-07-01T16:06:49Z</time><pdop>9.0</pdop><geoidheight>53.00</geoidheight><course>284.5</course><type>1</type></trkpt>
      <trkpt lat="40.57696205" lon="-4.81256827"><ele>2959</ele><speed>12.29</speed><time>2016-07-01T16:06:51Z</time><pdop>10.0</pdop><geoidheight>53.00</geoidheight><course>284.3</course><type>1</type></trkpt>
      <trkpt lat="40.57701596" lon="-4.81291928"><ele>2959</ele><speed>10.13</speed><time>2016-07-01T16:06:54Z</time><pdop>10.0</pdop><geoidheight>53.00</geoidheight><course>283.9</course><type>1</type></trkpt>
      <trkpt lat="40.5770586" lon="-4.81317703"><ele>2962</ele><speed>6.71</speed><time>2016-07-01T16:06:57Z</time><pdop>9.0</pdop><geoidheight>53.00</geoidheight><course>274.8</course><type>1</type></trkpt>
      <trkpt lat="40.57704574" lon="-4.81340034"><ele>2962</ele><speed>6.80</speed><time>2016-07-01T16:07:00Z</time><pdop>9.0</pdop><geoidheight>53.00</geoidheight><course>262.8</course><type>1</type></trkpt>
      <trkpt lat="40.57702825" lon="-4.81373416"><ele>2961</ele><speed>10.37</speed><time>2016-07-01T16:07:03Z</time><pdop>10.0</pdop><geoidheight>53.00</geoidheight><course>270.2</course><type>1</type></trkpt>
      <trkpt lat="40.57705098" lon="-4.81406071"><ele>2959</ele><speed>13.56</speed><time>2016-07-01T16:07:05Z</time><pdop>9.0</pdop><geoidheight>53.00</geoidheight><course>274.4</course><type>1</type></trkpt>
      <trkpt lat="40.57706469" lon="-4.81434059"><ele>2958</ele><speed>12.14</speed><time>2016-07-01T16:07:07Z</time><pdop>10.0</pdop><geoidheight>53.00</geoidheight><course>277.9</course><type>1</type></trkpt>
      <trkpt lat="40.57713296" lon="-4.81465742"><ele>2953</ele><speed>9.83</speed><time>2016-07-01T16:07:10Z</time><pdop>11.0</pdop><geoidheight>53.00</geoidheight><course>281.5</course><type>1</type></trkpt>
      <trkpt lat="40.57722609" lon="-4.81488887"><ele>2954</ele><speed>9.43</speed><time>2016-07-01T16:07:12Z</time><pdop>11.0</pdop><geoidheight>53.00</geoidheight><course>290.4</course><type>1</type></trkpt>
      <trkpt lat="40.57712415" lon="-4.81514656"><ele>2955</ele><speed>7.65</speed><time>2016-07-01T16:07:15Z</time><pdop>10.0</pdop><geoidheight>53.00</geoidheight><course>268.1</course><type>1</type></trkpt>
      <trkpt lat="40.5771437" lon="-4.81549571"><ele>2943</ele><speed>11.51</speed><time>2016-07-01T16:07:18Z</time><pdop>9.0</pdop><geoidheight>53.00</geoidheight><course>276.2</course><type>1</type></trkpt>
      <trkpt lat="40.57722418" lon="-4.81572483"><ele>2943</ele><speed>9.70</speed><time>2016-07-01T16:07:20Z</time><pdop>9.0</pdop><geoidheight>53.00</geoidheight><course>289.8</course><type>1</type></trkpt>
      <trkpt lat="40.57729196" lon="-4.81601803"><ele>2945</ele><speed>8.81</speed><time>2016-07-01T16:07:23Z</time><pdop>9.0</pdop><geoidheight>53.00</geoidheight><course>290.0</course><type>1</type></trkpt>
      <trkpt lat="40.57736822" lon="-4.81626644"><ele>2946</ele><speed>10.32</speed><time>2016-07-01T16:07:25Z</time><pdop>10.0</pdop><geoidheight>53.00</geoidheight><course>290.2</course><type>1</type></trkpt>
      <trkpt lat="40.57745945" lon="-4.81649891"><ele>2946</ele><speed>10.35</speed><time>2016-07-01T16:07:27Z</time><pdop>10.0</pdop><geoidheight>53.00</geoidheight><course>294.8</course><type>1</type></trkpt>
      <trkpt lat="40.57740228" lon="-4.81685462"><ele>2944</ele><speed>11.31</speed><time>2016-07-01T16:07:30Z</time><pdop>10.0</pdop><geoidheight>53.00</geoidheight><course>270.2</course><type>1</type></trkpt>
      <trkpt lat="40.57742159" lon="-4.81716056"><ele>2935</ele><speed>13.36</speed><time>2016-07-01T16:07:32Z</time><pdop>9.0</pdop><geoidheight>53.00</geoidheight><course>279.2</course><type>1</type></trkpt>
      <trkpt lat="40.57747198" lon="-4.81744973"><ele>2931</ele><speed>12.97</speed><time>2016-07-01T16:07:34Z</time><pdop>10.0</pdop><geoidheight>53.00</geoidheight><course>280.6</course><type>1</type></trkpt>
      <trkpt lat="40.57749709" lon="-4.81768843"><ele>2929</ele><speed>10.47</speed><time>2016-07-01T16:07:36Z</time><pdop>9.0</pdop><geoidheight>53.00</geoidheight><course>275.8</course><type>1</type></trkpt>
      <trkpt lat="40.57752452" lon="-4.81792754"><ele>2928</ele><speed>9.96</speed><time>2016-07-01T16:07:38Z</time><pdop>10.0</pdop><geoidheight>53.00</geoidheight><course>278.8</course><type>1</type></trkpt>
      <trkpt lat="40.57757487" lon="-4.81818958"><ele>2927</ele><speed>10.63</speed><time>2016-07-01T16:07:40Z</time><pdop>12.0</pdop><geoidheight>53.00</geoidheight><course>279.5</course><type>1</type></trkpt>
      <trkpt lat="40.57757783" lon="-4.81854176"><ele>2925</ele><speed>12.96</speed><time>2016-07-01T16:07:42Z</time><pdop>11.0</pdop><geoidheight>53.00</geoidheight><course>274.1</course><type>1</type></trkpt>
      <trkpt lat="40.57752987" lon="-4.81879419"><ele>2922</ele><speed>12.11</speed><time>2016-07-01T16:07:44Z</time><pdop>10.0</pdop><geoidheight>53.00</geoidheight><course>274.4</course><type>1</type></trkpt>
      <trkpt lat="40.57754495" lon="-4.81905137"><ele>2922</ele><speed>10.58</speed><time>2016-07-01T16:07:46Z</time><pdop>10.0</pdop><geoidheight>53.00</geoidheight><course>273.4</course><type>1</type></trkpt>
      <trkpt lat="40.5775933" lon="-4.81934439"><ele>2918</ele><speed>8.86</speed><time>2016-07-01T16:07:49Z</time><pdop>11.0</pdop><geoidheight>53.00</geoidheight><course>279.8</course><type>1</type></trkpt>
      <trkpt lat="40.57753116" lon="-4.81961796"><ele>2915</ele><speed>9.05</speed><time>2016-07-01T16:07:52Z</time><pdop>11.0</pdop><geoidheight>53.00</geoidheight><course>262.6</course><type>1</type></trkpt>
      <trkpt lat="40.5775596" lon="-4.81987396"><ele>2912</ele><speed>10.03</speed><time>2016-07-01T16:07:54Z</time><pdop>10.0</pdop><geoidheight>53.00</geoidheight><course>271.8</course><type>1</type></trkpt>
      <trkpt lat="40.57759682" lon="-4.82014938"><ele>2908</ele><speed>11.27</speed><time>2016-07-01T16:07:56Z</time><pdop>11.0</pdop><geoidheight>54.00</geoidheight><course>272.7</course><type>1</type></trkpt>
      <trkpt lat="40.57761637" lon="-4.82044062"><ele>2906</ele><speed>11.57</speed><time>2016-07-01T16:07:58Z</time><pdop>11.0</pdop><geoidheight>54.00</geoidheight><course>273.6</course><type>1</type></trkpt>
      <trkpt lat="40.57764955" lon="-4.82072763"><ele>2905</ele><speed>12.30</speed><time>2016-07-01T16:08:00Z</time><pdop>11.0</pdop><geoidheight>54.00</geoidheight><course>276.5</course><type>1</type></trkpt>
      <trkpt lat="40.57767826" lon="-4.82097356"><ele>2900</ele><speed>10.34</speed><time>2016-07-01T16:08:02Z</time><pdop>10.0</pdop><geoidheight>54.00</geoidheight><course>280.0</course><type>1</type></trkpt>
      <trkpt lat="40.57769134" lon="-4.82125806"><ele>2892</ele><speed>9.12</speed><time>2016-07-01T16:08:05Z</time><pdop>10.0</pdop><geoidheight>54.00</geoidheight><course>266.6</course><type>1</type></trkpt>
      <trkpt lat="40.57767281" lon="-4.82159657"><ele>2888</ele><speed>10.17</speed><time>2016-07-01T16:08:08Z</time><pdop>11.0</pdop><geoidheight>54.00</geoidheight><course>265.6</course><type>1</type></trkpt>
      <trkpt lat="40.57765888" lon="-4.82188424"><ele>2887</ele><speed>11.29</speed><time>2016-07-01T16:08:10Z</time><pdop>12.0</pdop><geoidheight>54.00</geoidheight><course>266.6</course><type>1</type></trkpt>
      <trkpt lat="40.57766041" lon="-4.82224316"><ele>2884</ele><speed>10.53</speed><time>2016-07-01T16:08:13Z</time><pdop>13.0</pdop><geoidheight>54.00</geoidheight><course>267.7</course><type>1</type></trkpt>
      <trkpt lat="40.57769274" lon="-4.82255695"><ele>2882</ele><speed>12.02</speed><time>2016-07-01T16:08:15Z</time><pdop>13.0</pdop><geoidheight>54.00</geoidheight><course>272.2</course><type>1</type></trkpt>
      <trkpt lat="40.57772546" lon="-4.82287253"><ele>2876</ele><speed>7.73</speed><time>2016-07-01T16:08:20Z</time><pdop>12.0</pdop><geoidheight>54.00</geoidheight><course>273.1</course><type>1</type></trkpt>
      <trkpt lat="40.57769217" lon="-4.82317574"><ele>2873</ele><speed>11.63</speed><time>2016-07-01T16:08:22Z</time><pdop>11.0</pdop><geoidheight>54.00</geoidheight><course>264.2</course><type>1</type></trkpt>
      <trkpt lat="40.57766787" lon="-4.82352644"><ele>2870</ele><speed>13.21</speed><time>2016-07-01T16:08:24Z</time><pdop>13.0</pdop><geoidheight>54.00</geoidheight><course>265.1</course><type>1</type></trkpt>
      <trkpt lat="40.57762946" lon="-4.82380737"><ele>2868</ele><speed>12.40</speed><time>2016-07-01T16:08:26Z</time><pdop>11.0</pdop><geoidheight>54.00</geoidheight><course>261.3</course><type>1</type></trkpt>
      <trkpt lat="40.57760527" lon="-4.82413076"><ele>2869</ele><speed>10.14</speed><time>2016-07-01T16:08:29Z</time><pdop>12.0</pdop><geoidheight>54.00</geoidheight><course>265.7</course><type>1</type></trkpt>
      <trkpt lat="40.57756748" lon="-4.8244839"><ele>2868</ele><speed>12.94</speed><time>2016-07-01T16:08:31Z</time><pdop>12.0</pdop><geoidheight>54.00</geoidheight><course>263.7</course><type>1</type></trkpt>
      <trkpt lat="40.5775659" lon="-4.82480825"><ele>2866</ele><speed>13.28</speed><time>2016-07-01T16:08:33Z</time><pdop>11.0</pdop><geoidheight>54.00</geoidheight><course>268.1</course><type>1</type></trkpt>
      <trkpt lat="40.57758795" lon="-4.82511584"><ele>2862</ele><speed>10.44</speed><time>2016-07-01T16:08:36Z</time><pdop>11.0</pdop><geoidheight>54.00</geoidheight><course>269.3</course><type>1</type></trkpt>
      <trkpt lat="40.57760966" lon="-4.8255188"><ele>2860</ele><speed>11.75</speed><time>2016-07-01T16:08:39Z</time><pdop>12.0</pdop><geoidheight>54.00</geoidheight><course>273.1</course><type>1</type></trkpt>
      <trkpt lat="40.57766787" lon="-4.82582505"><ele>2855</ele><speed>12.55</speed><time>2016-07-01T16:08:41Z</time><pdop>11.0</pdop><geoidheight>54.00</geoidheight><course>276.8</course><type>1</type></trkpt>
      <trkpt lat="40.57759352" lon="-4.82631221"><ele>2855</ele><speed>13.61</speed><time>2016-07-01T16:08:44Z</time><pdop>13.0</pdop><geoidheight>54.00</geoidheight><course>267.0</course><type>1</type></trkpt>
      <trkpt lat="40.57751623" lon="-4.82664143"><ele>2852</ele><speed>13.94</speed><time>2016-07-01T16:08:46Z</time><pdop>12.0</pdop><geoidheight>54.00</geoidheight><course>261.2</course><type>1</type></trkpt>
      <trkpt lat="40.5774423" lon="-4.82702081"><ele>2845</ele><speed>10.34</speed><time>2016-07-01T16:08:50Z</time><pdop>11.0</pdop><geoidheight>54.00</geoidheight><course>256.7</course><type>1</type></trkpt>
      <trkpt lat="40.57741486" lon="-4.82730812"><ele>2842</ele><speed>11.69</speed><time>2016-07-01T16:08:52Z</time><pdop>11.0</pdop><geoidheight>54.00</geoidheight><course>259.1</course><type>1</type></trkpt>
      <trkpt lat="40.57740975" lon="-4.82768459"><ele>2840</ele><speed>14.38</speed><time>2016-07-01T16:08:54Z</time><pdop>11.0</pdop><geoidheight>54.00</geoidheight><course>266.8</course><type>1</type></trkpt>
      <trkpt lat="40.57738989" lon="-4.8279861"><ele>2836</ele><speed>12.93</speed><time>2016-07-01T16:08:56Z</time><pdop>10.0</pdop><geoidheight>54.00</geoidheight><course>267.7</course><type>1</type></trkpt>
      <trkpt lat="40.57743522" lon="-4.82824791"><ele>2834</ele><speed>11.94</speed><time>2016-07-01T16:08:58Z</time><pdop>10.0</pdop><geoidheight>54.00</geoidheight><course>268.5</course><type>1</type></trkpt>
      <trkpt lat="40.57743174" lon="-4.82853647"><ele>2829</ele><speed>12.59</speed><time>2016-07-01T16:09:00Z</time><pdop>9.0</pdop><geoidheight>54.00</geoidheight><course>270.7</course><type>1</type></trkpt>
      <trkpt lat="40.577449" lon="-4.82878863"><ele>2823</ele><speed>12.63</speed><time>2016-07-01T16:09:02Z</time><pdop>10.0</pdop><geoidheight>54.00</geoidheight><course>270.8</course><type>1</type></trkpt>
      <trkpt lat="40.57747038" lon="-4.82907819"><ele>2820</ele><speed>11.91</speed><time>2016-07-01T16:09:04Z</time><pdop>10.0</pdop><geoidheight>54.00</geoidheight><course>273.9</course><type>1</type></trkpt>
      <trkpt lat="40.57746763" lon="-4.8293718"><ele>2816</ele><speed>10.00</speed><time>2016-07-01T16:09:07Z</time><pdop>10.0</pdop><geoidheight>54.00</geoidheight><course>269.1</course><type>1</type></trkpt>
      <trkpt lat="40.57742073" lon="-4.82965986"><ele>2814</ele><speed>12.48</speed><time>2016-07-01T16:09:09Z</time><pdop>11.0</pdop><geoidheight>54.00</geoidheight><course>261.8</course><type>1</type></trkpt>
      <trkpt lat="40.57741336" lon="-4.82994485"><ele>2810</ele><speed>13.72</speed><time>2016-07-01T16:09:11Z</time><pdop>10.0</pdop><geoidheight>54.00</geoidheight><course>264.4</course><type>1</type></trkpt>
      <trkpt lat="40.57740792" lon="-4.83022654"><ele>2806</ele><speed>12.39</speed><time>2016-07-01T16:09:13Z</time><pdop>10.0</pdop><geoidheight>54.00</geoidheight><course>264.0</course><type>1</type></trkpt>
      <trkpt lat="40.57737153" lon="-4.83046971"><ele>2804</ele><speed>10.59</speed><time>2016-07-01T16:09:15Z</time><pdop>9.0</pdop><geoidheight>54.00</geoidheight><course>262.4</course><type>1</type></trkpt>
      <trkpt lat="40.57732869" lon="-4.83070657"><ele>2798</ele><speed>11.19</speed><time>2016-07-01T16:09:17Z</time><pdop>10.0</pdop><geoidheight>54.00</geoidheight><course>256.2</course><type>1</type></trkpt>
      <trkpt lat="40.57727351" lon="-4.83098872"><ele>2795</ele><speed>12.58</speed><time>2016-07-01T16:09:19Z</time><pdop>10.0</pdop><geoidheight>54.00</geoidheight><course>257.1</course><type>1</type></trkpt>
      <trkpt lat="40.57727605" lon="-4.83125671"><ele>2791</ele><speed>12.38</speed><time>2016-07-01T16:09:21Z</time><pdop>10.0</pdop><geoidheight>54.00</geoidheight><course>269.5</course><type>1</type></trkpt>
      <trkpt lat="40.57727393" lon="-4.83153436"><ele>2789</ele><speed>11.87</speed><time>2016-07-01T16:09:23Z</time><pdop>11.0</pdop><geoidheight>54.00</geoidheight><course>269.9</course><type>1</type></trkpt>
      <trkpt lat="40.57731516" lon="-4.83184603"><ele>2789</ele><speed>12.40</speed><time>2016-07-01T16:09:25Z</time><pdop>11.0</pdop><geoidheight>54.00</geoidheight><course>273.9</course><type>1</type></trkpt>
      <trkpt lat="40.57735712" lon="-4.83228061"><ele>2784</ele><speed>14.40</speed><time>2016-07-01T16:09:28Z</time><pdop>11.0</pdop><geoidheight>54.00</geoidheight><course>276.8</course><type>1</type></trkpt>
      <trkpt lat="40.57741922" lon="-4.8326172"><ele>2779</ele><speed>15.41</speed><time>2016-07-01T16:09:30Z</time><pdop>11.0</pdop><geoidheight>54.00</geoidheight><course>277.5</course><type>1</type></trkpt>
      <trkpt lat="40.57748501" lon="-4.83288071"><ele>2773</ele><speed>13.17</speed><time>2016-07-01T16:09:32Z</time><pdop>11.0</pdop><geoidheight>54.00</geoidheight><course>284.6</course><type>1</type></trkpt>
      <trkpt lat="40.57751689" lon="-4.83314541"><ele>2771</ele><speed>12.20</speed><time>2016-07-01T16:09:34Z</time><pdop>10.0</pdop><geoidheight>54.00</geoidheight><course>284.3</course><type>1</type></trkpt>
      <trkpt lat="40.57753406" lon="-4.83344354"><ele>2764</ele><speed>12.93</speed><time>2016-07-01T16:09:36Z</time><pdop>10.0</pdop><geoidheight>54.00</geoidheight><course>276.6</course><type>1</type></trkpt>
      <trkpt lat="40.57759059" lon="-4.83377194"><ele>2755</ele><speed>14.11</speed><time>2016-07-01T16:09:38Z</time><pdop>10.0</pdop><geoidheight>54.00</geoidheight><course>284.2</course><type>1</type></trkpt>
      <trkpt lat="40.57767503" lon="-4.83405632"><ele>2752</ele><speed>13.03</speed><time>2016-07-01T16:09:40Z</time><pdop>11.0</pdop><geoidheight>54.00</geoidheight><course>286.3</course><type>1</type></trkpt>
      <trkpt lat="40.57773583" lon="-4.83434346"><ele>2750</ele><speed>12.72</speed><time>2016-07-01T16:09:42Z</time><pdop>12.0</pdop><geoidheight>54.00</geoidheight><course>285.8</course><type>1</type></trkpt>
      <trkpt lat="40.57774828" lon="-4.83463611"><ele>2747</ele><speed>13.15</speed><time>2016-07-01T16:09:44Z</time><pdop>12.0</pdop><geoidheight>54.00</geoidheight><course>280.2</course><type>1</type></trkpt>
      <trkpt lat="40.57779808" lon="-4.83491792"><ele>2741</ele><speed>13.07</speed><time>2016-07-01T16:09:46Z</time><pdop>12.0</pdop><geoidheight>54.00</geoidheight><course>281.4</course><type>1</type></trkpt>
      <trkpt lat="40.57785007" lon="-4.83529126"><ele>2734</ele><speed>14.55</speed><time>2016-07-01T16:09:48Z</time><pdop>11.0</pdop><geoidheight>54.00</geoidheight><course>277.7</course><type>1</type></trkpt>
      <trkpt lat="40.57790965" lon="-4.83559591"><ele>2726</ele><speed>13.85</speed><time>2016-07-01T16:09:50Z</time><pdop>10.0</pdop><geoidheight>54.00</geoidheight><course>283.5</course><type>1</type></trkpt>
      <trkpt lat="40.57796707" lon="-4.83584741"><ele>2722</ele><speed>12.84</speed><time>2016-07-01T16:09:52Z</time><pdop>11.0</pdop><geoidheight>54.00</geoidheight><course>282.8</course><type>1</type></trkpt>
      <trkpt lat="40.57803957" lon="-4.83620905"><ele>2718</ele><speed>15.36</speed><time>2016-07-01T16:09:54Z</time><pdop>11.0</pdop><geoidheight>54.00</geoidheight><course>284.0</course><type>1</type></trkpt>
      <trkpt lat="40.57811028" lon="-4.83656496"><ele>2713</ele><speed>15.08</speed><time>2016-07-01T16:09:56Z</time><pdop>10.0</pdop><geoidheight>54.00</geoidheight><course>283.9</course><type>1</type></trkpt>
      <trkpt lat="40.578187" lon="-4.83688218"><ele>2710</ele><speed>14.73</speed><time>2016-07-01T16:09:58Z</time><pdop>11.0</pdop><geoidheight>54.00</geoidheight><course>284.6</course><type>1</type></trkpt>
      <trkpt lat="40.57823808" lon="-4.83721035"><ele>2708</ele><speed>14.84</speed><time>2016-07-01T16:10:00Z</time><pdop>13.0</pdop><geoidheight>54.00</geoidheight><course>283.4</course><type>1</type></trkpt>
      <trkpt lat="40.57828997" lon="-4.83750464"><ele>2702</ele><speed>14.18</speed><time>2016-07-01T16:10:02Z</time><pdop>11.0</pdop><geoidheight>54.00</geoidheight><course>282.4</course><type>1</type></trkpt>
      <trkpt lat="40.57835878" lon="-4.83781688"><ele>2694</ele><speed>13.84</speed><time>2016-07-01T16:10:04Z</time><pdop>10.0</pdop><geoidheight>54.00</geoidheight><course>283.5</course><type>1</type></trkpt>
      <trkpt lat="40.57841697" lon="-4.83814098"><ele>2689</ele><speed>14.66</speed><time>2016-07-01T16:10:06Z</time><pdop>10.0</pdop><geoidheight>54.00</geoidheight><course>282.5</course><type>1</type></trkpt>
      <trkpt lat="40.57847937" lon="-4.83847886"><ele>2684</ele><speed>15.07</speed><time>2016-07-01T16:10:08Z</time><pdop>10.0</pdop><geoidheight>54.00</geoidheight><course>282.4</course><type>1</type></trkpt>
      <trkpt lat="40.57853498" lon="-4.83882504"><ele>2679</ele><speed>15.15</speed><time>2016-07-01T16:10:10Z</time><pdop>10.0</pdop><geoidheight>54.00</geoidheight><course>282.0</course><type>1</type></trkpt>
      <trkpt lat="40.57858348" lon="-4.83912477"><ele>2673</ele><speed>14.25</speed><time>2016-07-01T16:10:12Z</time><pdop>10.0</pdop><geoidheight>54.00</geoidheight><course>278.2</course><type>1</type></trkpt>
      <trkpt lat="40.57862008" lon="-4.8394581"><ele>2670</ele><speed>14.37</speed><time>2016-07-01T16:10:14Z</time><pdop>10.0</pdop><geoidheight>54.00</geoidheight><course>277.6</course><type>1</type></trkpt>
      <trkpt lat="40.57866288" lon="-4.83977389"><ele>2658</ele><speed>15.00</speed><time>2016-07-01T16:10:16Z</time><pdop>10.0</pdop><geoidheight>54.00</geoidheight><course>279.5</course><type>1</type></trkpt>
      <trkpt lat="40.57872036" lon="-4.84005409"><ele>2650</ele><speed>13.60</speed><time>2016-07-01T16:10:18Z</time><pdop>10.0</pdop><geoidheight>54.00</geoidheight><course>280.9</course><type>1</type></trkpt>
      <trkpt lat="40.57875502" lon="-4.84031789"><ele>2646</ele><speed>11.90</speed><time>2016-07-01T16:10:20Z</time><pdop>10.0</pdop><geoidheight>54.00</geoidheight><course>280.0</course><type>1</type></trkpt>
      <trkpt lat="40.5787753" lon="-4.8405691"><ele>2642</ele><speed>11.09</speed><time>2016-07-01T16:10:22Z</time><pdop>10.0</pdop><geoidheight>54.00</geoidheight><course>274.7</course><type>1</type></trkpt>
      <trkpt lat="40.57876615" lon="-4.84086569"><ele>2639</ele><speed>12.53</speed><time>2016-07-01T16:10:24Z</time><pdop>12.0</pdop><geoidheight>54.00</geoidheight><course>271.0</course><type>1</type></trkpt>
      <trkpt lat="40.5788066" lon="-4.84124083"><ele>2634</ele><speed>15.12</speed><time>2016-07-01T16:10:26Z</time><pdop>11.0</pdop><geoidheight>54.00</geoidheight><course>278.9</course><type>1</type></trkpt>
      <trkpt lat="40.57884747" lon="-4.84155078"><ele>2628</ele><speed>13.24</speed><time>2016-07-01T16:10:28Z</time><pdop>10.0</pdop><geoidheight>54.00</geoidheight><course>283.2</course><type>1</type></trkpt>
      <trkpt lat="40.57888976" lon="-4.84181443"><ele>2624</ele><speed>11.76</speed><time>2016-07-01T16:10:30Z</time><pdop>10.0</pdop><geoidheight>54.00</geoidheight><course>279.6</course><type>1</type></trkpt>
      <trkpt lat="40.57891997" lon="-4.84208396"><ele>2619</ele><speed>12.13</speed><time>2016-07-01T16:10:32Z</time><pdop>10.0</pdop><geoidheight>54.00</geoidheight><course>277.3</course><type>1</type></trkpt>
      <trkpt lat="40.57895709" lon="-4.84242035"><ele>2614</ele><speed>10.02</speed><time>2016-07-01T16:10:35Z</time><pdop>10.0</pdop><geoidheight>54.00</geoidheight><course>278.0</course><type>1</type></trkpt>
      <trkpt lat="40.57898777" lon="-4.84267238"><ele>2608</ele><speed>12.08</speed><time>2016-07-01T16:10:37Z</time><pdop>10.0</pdop><geoidheight>54.00</geoidheight><course>277.1</course><type>1</type></trkpt>
      <trkpt lat="40.57903349" lon="-4.84298341"><ele>2604</ele><speed>13.10</speed><time>2016-07-01T16:10:39Z</time><pdop>10.0</pdop><geoidheight>54.00</geoidheight><course>280.2</course><type>1</type></trkpt>
      <trkpt lat="40.57907602" lon="-4.84326082"><ele>2601</ele><speed>12.65</speed><time>2016-07-01T16:10:41Z</time><pdop>10.0</pdop><geoidheight>54.00</geoidheight><course>278.3</course><type>1</type></trkpt>
      <trkpt lat="40.57910464" lon="-4.84351949"><ele>2599</ele><speed>11.70</speed><time>2016-07-01T16:10:43Z</time><pdop>10.0</pdop><geoidheight>54.00</geoidheight><course>277.5</course><type>1</type></trkpt>
      <trkpt lat="40.5791356" lon="-4.84383"><ele>2598</ele><speed>12.63</speed><time>2016-07-01T16:10:45Z</time><pdop>11.0</pdop><geoidheight>54.00</geoidheight><course>276.6</course><type>1</type></trkpt>
      <trkpt lat="40.57917487" lon="-4.84420452"><ele>2596</ele><speed>14.68</speed><time>2016-07-01T16:10:47Z</time><pdop>12.0</pdop><geoidheight>54.00</geoidheight><course>276.4</course><type>1</type></trkpt>
      <trkpt lat="40.57922764" lon="-4.8445332"><ele>2590</ele><speed>14.62</speed><time>2016-07-01T16:10:49Z</time><pdop>10.0</pdop><geoidheight>54.00</geoidheight><course>278.4</course><type>1</type></trkpt>
      <trkpt lat="40.57925864" lon="-4.84483156"><ele>2588</ele><speed>13.15</speed><time>2016-07-01T16:10:51Z</time><pdop>10.0</pdop><geoidheight>54.00</geoidheight><course>280.3</course><type>1</type></trkpt>
      <trkpt lat="40.57933329" lon="-4.8451082"><ele>2585</ele><speed>8.56</speed><time>2016-07-01T16:10:54Z</time><pdop>11.0</pdop><geoidheight>54.00</geoidheight><course>286.0</course><type>1</type></trkpt>
      <trkpt lat="40.57931333" lon="-4.8453721"><ele>2584</ele><speed>9.25</speed><time>2016-07-01T16:10:57Z</time><pdop>9.0</pdop><geoidheight>54.00</geoidheight><course>274.2</course><type>1</type></trkpt>
      <trkpt lat="40.57931364" lon="-4.84563138"><ele>2584</ele><speed>8.50</speed><time>2016-07-01T16:11:00Z</time><pdop>9.0</pdop><geoidheight>54.00</geoidheight><course>269.1</course><type>1</type></trkpt>
      <trkpt lat="40.57930348" lon="-4.84590171"><ele>2582</ele><speed>7.63</speed><time>2016-07-01T16:11:03Z</time><pdop>10.0</pdop><geoidheight>54.00</geoidheight><course>268.4</course><type>1</type></trkpt>
      <trkpt lat="40.57926342" lon="-4.8461743"><ele>2581</ele><speed>7.51</speed><time>2016-07-01T16:11:06Z</time><pdop>11.0</pdop><geoidheight>54.00</geoidheight><course>264.7</course><type>1</type></trkpt>
      <trkpt lat="40.57915845" lon="-4.84647021"><ele>2580</ele><speed>8.74</speed><time>2016-07-01T16:11:09Z</time><pdop>12.0</pdop><geoidheight>54.00</geoidheight><course>253.0</course><type>1</type></trkpt>
      <trkpt lat="40.57925908" lon="-4.84685716"><ele>2578</ele><speed>10.53</speed><time>2016-07-01T16:11:12Z</time><pdop>11.0</pdop><geoidheight>54.00</geoidheight><course>276.7</course><type>1</type></trkpt>
      <trkpt lat="40.5793254" lon="-4.84716606"><ele>2579</ele><speed>11.59</speed><time>2016-07-01T16:11:14Z</time><pdop>11.0</pdop><geoidheight>54.00</geoidheight><course>278.8</course><type>1</type></trkpt>
      <trkpt lat="40.57937071" lon="-4.84757988"><ele>2576</ele><speed>11.76</speed><time>2016-07-01T16:11:17Z</time><pdop>11.0</pdop><geoidheight>54.00</geoidheight><course>275.1</course><type>1</type></trkpt>
      <trkpt lat="40.57938523" lon="-4.84786177"><ele>2571</ele><speed>12.27</speed><time>2016-07-01T16:11:19Z</time><pdop>11.0</pdop><geoidheight>54.00</geoidheight><course>275.8</course><type>1</type></trkpt>
      <trkpt lat="40.57945563" lon="-4.84820504"><ele>2562</ele><speed>11.46</speed><time>2016-07-01T16:11:22Z</time><pdop>11.0</pdop><geoidheight>54.00</geoidheight><course>280.5</course><type>1</type></trkpt>
      <trkpt lat="40.57956224" lon="-4.84845874"><ele>2558</ele><speed>11.71</speed><time>2016-07-01T16:11:24Z</time><pdop>12.0</pdop><geoidheight>54.00</geoidheight><course>287.9</course><type>1</type></trkpt>
      <trkpt lat="40.57960683" lon="-4.84887145"><ele>2554</ele><speed>11.40</speed><time>2016-07-01T16:11:27Z</time><pdop>13.0</pdop><geoidheight>54.00</geoidheight><course>280.4</course><type>1</type></trkpt>
      <trkpt lat="40.57970296" lon="-4.8492356"><ele>2548</ele><speed>12.16</speed><time>2016-07-01T16:11:30Z</time><pdop>14.0</pdop><geoidheight>54.00</geoidheight><course>281.1</course><type>1</type></trkpt>
      <trkpt lat="40.57967775" lon="-4.84953687"><ele>2547</ele><speed>11.46</speed><time>2016-07-01T16:11:32Z</time><pdop>11.0</pdop><geoidheight>54.00</geoidheight><course>275.9</course><type>1</type></trkpt>
      <trkpt lat="40.57971123" lon="-4.849894"><ele>2542</ele><speed>11.22</speed><time>2016-07-01T16:11:35Z</time><pdop>11.0</pdop><geoidheight>54.00</geoidheight><course>278.8</course><type>1</type></trkpt>
      <trkpt lat="40.57978719" lon="-4.8502578"><ele>2536</ele><speed>11.32</speed><time>2016-07-01T16:11:38Z</time><pdop>17.0</pdop><geoidheight>54.00</geoidheight><course>283.2</course><type>1</type></trkpt>
      <trkpt lat="40.57990938" lon="-4.85062985"><ele>2525</ele><speed>11.18</speed><time>2016-07-01T16:11:41Z</time><pdop>14.0</pdop><geoidheight>54.00</geoidheight><course>288.4</course><type>1</type></trkpt>
      <trkpt lat="40.58003306" lon="-4.85096212"><ele>2517</ele><speed>12.13</speed><time>2016-07-01T16:11:44Z</time><pdop>12.0</pdop><geoidheight>54.00</geoidheight><course>291.9</course><type>1</type></trkpt>
      <trkpt lat="40.58013615" lon="-4.85123254"><ele>2514</ele><speed>11.85</speed><time>2016-07-01T16:11:46Z</time><pdop>11.0</pdop><geoidheight>54.00</geoidheight><course>295.7</course><type>1</type></trkpt>
      <trkpt lat="40.58026251" lon="-4.85154814"><ele>2506</ele><speed>10.58</speed><time>2016-07-01T16:11:49Z</time><pdop>11.0</pdop><geoidheight>54.00</geoidheight><course>292.4</course><type>1</type></trkpt>
      <trkpt lat="40.5803232" lon="-4.85183128"><ele>2502</ele><speed>12.60</speed><time>2016-07-01T16:11:51Z</time><pdop>13.0</pdop><geoidheight>54.00</geoidheight><course>288.0</course><type>1</type></trkpt>
      <trkpt lat="40.5804325" lon="-4.85209053"><ele>2495</ele><speed>12.77</speed><time>2016-07-01T16:11:53Z</time><pdop>12.0</pdop><geoidheight>54.00</geoidheight><course>292.0</course><type>1</type></trkpt>
      <trkpt lat="40.58055927" lon="-4.85247008"><ele>2490</ele><speed>11.86</speed><time>2016-07-01T16:11:56Z</time><pdop>14.0</pdop><geoidheight>54.00</geoidheight><course>294.8</course><type>1</type></trkpt>
      <trkpt lat="40.58079162" lon="-4.85286014"><ele>2484</ele><speed>14.34</speed><time>2016-07-01T16:11:59Z</time><pdop>14.0</pdop><geoidheight>54.00</geoidheight><course>300.7</course><type>1</type></trkpt>
      <trkpt lat="40.58086921" lon="-4.85319993"><ele>2481</ele><speed>15.39</speed><time>2016-07-01T16:12:01Z</time><pdop>15.0</pdop><geoidheight>54.00</geoidheight><course>291.9</course><type>1</type></trkpt>
      <trkpt lat="40.58093222" lon="-4.85355267"><ele>2477</ele><speed>15.47</speed><time>2016-07-01T16:12:03Z</time><pdop>13.0</pdop><geoidheight>54.00</geoidheight><course>285.1</course><type>1</type></trkpt>
      <trkpt lat="40.58096182" lon="-4.85391701"><ele>2472</ele><speed>15.22</speed><time>2016-07-01T16:12:05Z</time><pdop>12.0</pdop><geoidheight>54.00</geoidheight><course>281.2</course><type>1</type></trkpt>
      <trkpt lat="40.58099987" lon="-4.85420375"><ele>2465</ele><speed>13.53</speed><time>2016-07-01T16:12:07Z</time><pdop>12.0</pdop><geoidheight>54.00</geoidheight><course>280.0</course><type>1</type></trkpt>
      <trkpt lat="40.58106704" lon="-4.85458152"><ele>2457</ele><speed>11.67</speed><time>2016-07-01T16:12:10Z</time><pdop>12.0</pdop><geoidheight>54.00</geoidheight><course>288.4</course><type>1</type></trkpt>
      <trkpt lat="40.58116569" lon="-4.85495358"><ele>2448</ele><speed>12.63</speed><time>2016-07-01T16:12:13Z</time><pdop>12.0</pdop><geoidheight>54.00</geoidheight><course>286.0</course><type>1</type></trkpt>
      <trkpt lat="40.58126416" lon="-4.85534604"><ele>2444</ele><speed>15.57</speed><time>2016-07-01T16:12:15Z</time><pdop>13.0</pdop><geoidheight>54.00</geoidheight><course>286.2</course><type>1</type></trkpt>
      <trkpt lat="40.5813645" lon="-4.85561483"><ele>2436</ele><speed>13.64</speed><time>2016-07-01T16:12:17Z</time><pdop>11.0</pdop><geoidheight>54.00</geoidheight><course>289.4</course><type>1</type></trkpt>
      <trkpt lat="40.58143414" lon="-4.85586977"><ele>2429</ele><speed>12.65</speed><time>2016-07-01T16:12:19Z</time><pdop>11.0</pdop><geoidheight>54.00</geoidheight><course>286.0</course><type>1</type></trkpt>
      <trkpt lat="40.58151055" lon="-4.85616592"><ele>2423</ele><speed>13.31</speed><time>2016-07-01T16:12:21Z</time><pdop>11.0</pdop><geoidheight>54.00</geoidheight><course>286.7</course><type>1</type></trkpt>
      <trkpt lat="40.58161611" lon="-4.8565622"><ele>2413</ele><speed>13.25</speed><time>2016-07-01T16:12:24Z</time><pdop>13.0</pdop><geoidheight>54.00</geoidheight><course>285.5</course><type>1</type></trkpt>
      <trkpt lat="40.58165923" lon="-4.85696438"><ele>2402</ele><speed>11.34</speed><time>2016-07-01T16:12:27Z</time><pdop>11.0</pdop><geoidheight>54.00</geoidheight><course>281.5</course><type>1</type></trkpt>
      <trkpt lat="40.58171859" lon="-4.85733676"><ele>2383</ele><speed>12.59</speed><time>2016-07-01T16:12:30Z</time><pdop>11.0</pdop><geoidheight>54.00</geoidheight><course>281.1</course><type>1</type></trkpt>
      <trkpt lat="40.58174609" lon="-4.85762071"><ele>2370</ele><speed>13.31</speed><time>2016-07-01T16:12:32Z</time><pdop>11.0</pdop><geoidheight>54.00</geoidheight><course>280.0</course><type>1</type></trkpt>
      <trkpt lat="40.58180768" lon="-4.85788439"><ele>2355</ele><speed>13.73</speed><time>2016-07-01T16:12:34Z</time><pdop>11.0</pdop><geoidheight>54.00</geoidheight><course>285.1</course><type>1</type></trkpt>
      <trkpt lat="40.58187613" lon="-4.85821103"><ele>2339</ele><speed>15.19</speed><time>2016-07-01T16:12:36Z</time><pdop>14.0</pdop><geoidheight>54.00</geoidheight><course>286.0</course><type>1</type></trkpt>
      <trkpt lat="40.58202739" lon="-4.85856793"><ele>2317</ele><speed>12.71</speed><time>2016-07-01T16:12:39Z</time><pdop>15.0</pdop><geoidheight>54.00</geoidheight><course>298.7</course><type>1</type></trkpt>
      <trkpt lat="40.58215756" lon="-4.85885219"><ele>2324</ele><speed>4.93</speed><time>2016-07-01T16:12:45Z</time><pdop>13.0</pdop><geoidheight>54.00</geoidheight><course>291.0</course><type>1</type></trkpt>
      <trkpt lat="40.58215701" lon="-4.85922133"><ele>2321</ele><speed>9.14</speed><time>2016-07-01T16:12:48Z</time><pdop>17.0</pdop><geoidheight>54.00</geoidheight><course>273.4</course><type>1</type></trkpt>
      <trkpt lat="40.5824023" lon="-4.85970262"><ele>2317</ele><speed>12.19</speed><time>2016-07-01T16:12:51Z</time><pdop>15.0</pdop><geoidheight>54.00</geoidheight><course>295.8</course><type>1</type></trkpt>
      <trkpt lat="40.58254186" lon="-4.86002491"><ele>2312</ele><speed>11.48</speed><time>2016-07-01T16:12:54Z</time><pdop>12.0</pdop><geoidheight>54.00</geoidheight><course>294.8</course><type>1</type></trkpt>
      <trkpt lat="40.58266584" lon="-4.86041061"><ele>2306</ele><speed>12.32</speed><time>2016-07-01T16:12:57Z</time><pdop>16.0</pdop><geoidheight>54.00</geoidheight><course>292.7</course><type>1</type></trkpt>
      <trkpt lat="40.5827078" lon="-4.86086086"><ele>2298</ele><speed>10.60</speed><time>2016-07-01T16:13:01Z</time><pdop>21.0</pdop><geoidheight>54.00</geoidheight><course>282.5</course><type>1</type></trkpt>
      <trkpt lat="40.58291632" lon="-4.86127988"><ele>2280</ele><speed>5.65</speed><time>2016-07-01T16:13:09Z</time><pdop>18.0</pdop><geoidheight>54.00</geoidheight><course>285.7</course><type>1</type></trkpt>
      <trkpt lat="40.58300978" lon="-4.86171215"><ele>2274</ele><speed>7.19</speed><time>2016-07-01T16:13:14Z</time><pdop>15.0</pdop><geoidheight>54.00</geoidheight><course>280.7</course><type>1</type></trkpt>
      <trkpt lat="40.58291014" lon="-4.8620257"><ele>2270</ele><speed>5.12</speed><time>2016-07-01T16:13:19Z</time><pdop>13.0</pdop><geoidheight>54.00</geoidheight><course>264.9</course><type>1</type></trkpt>
      <trkpt lat="40.582832" lon="-4.86238373"><ele>2265</ele><speed>8.80</speed><time>2016-07-01T16:13:23Z</time><pdop>14.0</pdop><geoidheight>54.00</geoidheight><course>260.3</course><type>1</type></trkpt>
      <trkpt lat="40.5829082" lon="-4.86266373"><ele>2260</ele><speed>10.53</speed><time>2016-07-01T16:13:25Z</time><pdop>11.0</pdop><geoidheight>54.00</geoidheight><course>276.4</course><type>1</type></trkpt>
      <trkpt lat="40.5830368" lon="-4.86292653"><ele>2251</ele><speed>7.03</speed><time>2016-07-01T16:13:29Z</time><pdop>12.0</pdop><geoidheight>54.00</geoidheight><course>289.3</course><type>1</type></trkpt>
      <trkpt lat="40.58308696" lon="-4.86319072"><ele>2246</ele><speed>5.48</speed><time>2016-07-01T16:13:33Z</time><pdop>10.0</pdop><geoidheight>54.00</geoidheight><course>282.8</course><type>1</type></trkpt>
      <trkpt lat="40.58317415" lon="-4.86344414"><ele>2241</ele><speed>4.70</speed><time>2016-07-01T16:13:38Z</time><pdop>10.0</pdop><geoidheight>54.00</geoidheight><course>307.4</course><type>1</type></trkpt>
      <trkpt lat="40.58333796" lon="-4.86360038"><ele>2240</ele><speed>4.37</speed><time>2016-07-01T16:13:43Z</time><pdop>9.0</pdop><geoidheight>54.00</geoidheight><course>316.7</course><type>1</type></trkpt>
      <trkpt lat="40.58354332" lon="-4.86360202"><ele>2240</ele><speed>7.56</speed><time>2016-07-01T16:13:47Z</time><pdop>10.0</pdop><geoidheight>54.00</geoidheight><course>23.3</course><type>1</type></trkpt>
      <trkpt lat="40.58369908" lon="-4.86335599"><ele>2236</ele><speed>12.30</speed><time>2016-07-01T16:13:49Z</time><pdop>10.0</pdop><geoidheight>54.00</geoidheight><course>49.8</course><type>1</type></trkpt>
      <trkpt lat="40.58372111" lon="-4.86304375"><ele>2234</ele><speed>12.74</speed><time>2016-07-01T16:13:51Z</time><pdop>10.0</pdop><geoidheight>54.00</geoidheight><course>72.8</course><type>1</type></trkpt>
      <trkpt lat="40.58366741" lon="-4.862681"><ele>2233</ele><speed>13.32</speed><time>2016-07-01T16:13:53Z</time><pdop>11.0</pdop><geoidheight>54.00</geoidheight><course>97.8</course><type>1</type></trkpt>
      <trkpt lat="40.58350507" lon="-4.86233558"><ele>2232</ele><speed>14.37</speed><time>2016-07-01T16:13:55Z</time><pdop>12.0</pdop><geoidheight>54.00</geoidheight><course>113.3</course><type>1</type></trkpt>
      <trkpt lat="40.5832537" lon="-4.86219043"><ele>2231</ele><speed>13.60</speed><time>2016-07-01T16:13:57Z</time><pdop>11.0</pdop><geoidheight>54.00</geoidheight><course>140.7</course><type>1</type></trkpt>
      <trkpt lat="40.5830184" lon="-4.86213959"><ele>2231</ele><speed>12.51</speed><time>2016-07-01T16:13:59Z</time><pdop>11.0</pdop><geoidheight>54.00</geoidheight><course>155.2</course><type>1</type></trkpt>
      <trkpt lat="40.5828022" lon="-4.86230431"><ele>2231</ele><speed>8.66</speed><time>2016-07-01T16:14:02Z</time><pdop>11.0</pdop><geoidheight>54.00</geoidheight><course>192.8</course><type>1</type></trkpt>
      <trkpt lat="40.5826144" lon="-4.8625003"><ele>2232</ele><speed>7.92</speed><time>2016-07-01T16:14:05Z</time><pdop>10.0</pdop><geoidheight>54.00</geoidheight><course>202.9</course><type>1</type></trkpt>
      <trkpt lat="40.5823728" lon="-4.86265243"><ele>2231</ele><speed>9.75</speed><time>2016-07-01T16:14:08Z</time><pdop>10.0</pdop><geoidheight>54.00</geoidheight><course>202.5</course><type>1</type></trkpt>
      <trkpt lat="40.58212147" lon="-4.86276946"><ele>2233</ele><speed>10.17</speed><time>2016-07-01T16:14:11Z</time><pdop>11.0</pdop><geoidheight>54.00</geoidheight><course>195.7</course><type>1</type></trkpt>
      <trkpt lat="40.58193918" lon="-4.86296934"><ele>2234</ele><speed>8.85</speed><time>2016-07-01T16:14:14Z</time><pdop>11.0</pdop><geoidheight>54.00</geoidheight><course>214.6</course><type>1</type></trkpt>
      <trkpt lat="40.58194815" lon="-4.86324636"><ele>2234</ele><speed>8.25</speed><time>2016-07-01T16:14:17Z</time><pdop>10.0</pdop><geoidheight>54.00</geoidheight><course>264.8</course><type>1</type></trkpt>
      <trkpt lat="40.58191413" lon="-4.86348756"><ele>2235</ele><speed>10.60</speed><time>2016-07-01T16:14:19Z</time><pdop>10.0</pdop><geoidheight>54.00</geoidheight><course>264.7</course><type>1</type></trkpt>
      <trkpt lat="40.58185091" lon="-4.86377068"><ele>2234</ele><speed>11.76</speed><time>2016-07-01T16:14:21Z</time><pdop>11.0</pdop><geoidheight>54.00</geoidheight><course>258.5</course><type>1</type></trkpt>
      <trkpt lat="40.58184875" lon="-4.86406"><ele>2231</ele><speed>6.42</speed><time>2016-07-01T16:14:25Z</time><pdop>11.0</pdop><geoidheight>54.00</geoidheight><course>269.3</course><type>1</type></trkpt>
      <trkpt lat="40.58188936" lon="-4.86439546"><ele>2231</ele><speed>10.40</speed><time>2016-07-01T16:14:28Z</time><pdop>9.0</pdop><geoidheight>54.00</geoidheight><course>271.3</course><type>1</type></trkpt>
      <trkpt lat="40.58188582" lon="-4.86463644"><ele>2231</ele><speed>10.01</speed><time>2016-07-01T16:14:30Z</time><pdop>10.0</pdop><geoidheight>54.00</geoidheight><course>272.2</course><type>1</type></trkpt>
      <trkpt lat="40.58196612" lon="-4.86486153"><ele>2230</ele><speed>7.42</speed><time>2016-07-01T16:14:33Z</time><pdop>9.0</pdop><geoidheight>54.00</geoidheight><course>291.9</course><type>1</type></trkpt>
      <trkpt lat="40.5821135" lon="-4.86502781"><ele>2228</ele><speed>3.50</speed><time>2016-07-01T16:14:39Z</time><pdop>10.0</pdop><geoidheight>54.00</geoidheight><course>307.2</course><type>1</type></trkpt>
      <trkpt lat="40.58220825" lon="-4.86524621"><ele>2223</ele><speed>5.77</speed><time>2016-07-01T16:14:43Z</time><pdop>9.0</pdop><geoidheight>54.00</geoidheight><course>294.9</course><type>1</type></trkpt>
      <trkpt lat="40.58232997" lon="-4.86557861"><ele>2221</ele><speed>8.12</speed><time>2016-07-01T16:14:47Z</time><pdop>13.0</pdop><geoidheight>54.00</geoidheight><course>293.3</course><type>1</type></trkpt>
      <trkpt lat="40.58240233" lon="-4.8658952"><ele>2219</ele><speed>7.65</speed><time>2016-07-01T16:14:50Z</time><pdop>11.0</pdop><geoidheight>54.00</geoidheight><course>288.6</course><type>1</type></trkpt>
      <trkpt lat="40.58242287" lon="-4.86619433"><ele>2216</ele><speed>8.91</speed><time>2016-07-01T16:14:53Z</time><pdop>11.0</pdop><geoidheight>54.00</geoidheight><course>274.7</course><type>1</type></trkpt>
      <trkpt lat="40.5824241" lon="-4.86645955"><ele>2211</ele><speed>11.68</speed><time>2016-07-01T16:14:55Z</time><pdop>11.0</pdop><geoidheight>54.00</geoidheight><course>271.0</course><type>1</type></trkpt>
      <trkpt lat="40.58246622" lon="-4.86679473"><ele>2205</ele><speed>10.18</speed><time>2016-07-01T16:14:58Z</time><pdop>14.0</pdop><geoidheight>54.00</geoidheight><course>277.4</course><type>1</type></trkpt>
      <trkpt lat="40.58255616" lon="-4.86709318"><ele>2203</ele><speed>10.87</speed><time>2016-07-01T16:15:00Z</time><pdop>13.0</pdop><geoidheight>54.00</geoidheight><course>281.3</course><type>1</type></trkpt>
      <trkpt lat="40.58264803" lon="-4.86739475"><ele>2192</ele><speed>8.24</speed><time>2016-07-01T16:15:04Z</time><pdop>10.0</pdop><geoidheight>54.00</geoidheight><course>285.0</course><type>1</type></trkpt>
      <trkpt lat="40.58276064" lon="-4.86765155"><ele>2178</ele><speed>5.24</speed><time>2016-07-01T16:15:12Z</time><pdop>14.0</pdop><geoidheight>54.00</geoidheight><course>277.0</course><type>1</type></trkpt>
      <trkpt lat="40.58280524" lon="-4.86801359"><ele>2170</ele><speed>8.13</speed><time>2016-07-01T16:15:15Z</time><pdop>11.0</pdop><geoidheight>54.00</geoidheight><course>282.5</course><type>1</type></trkpt>
      <trkpt lat="40.58284615" lon="-4.86831828"><ele>2163</ele><speed>7.15</speed><time>2016-07-01T16:15:19Z</time><pdop>11.0</pdop><geoidheight>54.00</geoidheight><course>279.4</course><type>1</type></trkpt>
      <trkpt lat="40.58286078" lon="-4.86857381"><ele>2156</ele><speed>4.11</speed><time>2016-07-01T16:15:24Z</time><pdop>10.0</pdop><geoidheight>54.00</geoidheight><course>287.2</course><type>1</type></trkpt>
      <trkpt lat="40.58297281" lon="-4.86882345"><ele>2147</ele><speed>6.09</speed><time>2016-07-01T16:15:30Z</time><pdop>10.0</pdop><geoidheight>54.00</geoidheight><course>288.6</course><type>1</type></trkpt>
      <trkpt lat="40.58303346" lon="-4.86912354"><ele>2141</ele><speed>7.19</speed><time>2016-07-01T16:15:34Z</time><pdop>11.0</pdop><geoidheight>54.00</geoidheight><course>284.5</course><type>1</type></trkpt>
      <trkpt lat="40.58304727" lon="-4.86943897"><ele>2138</ele><speed>7.79</speed><time>2016-07-01T16:15:37Z</time><pdop>11.0</pdop><geoidheight>54.00</geoidheight><course>274.9</course><type>1</type></trkpt>
      <trkpt lat="40.5830555" lon="-4.86971401"><ele>2134</ele><speed>6.31</speed><time>2016-07-01T16:15:41Z</time><pdop>10.0</pdop><geoidheight>54.00</geoidheight><course>276.1</course><type>1</type></trkpt>
      <trkpt lat="40.5830507" lon="-4.86999376"><ele>2128</ele><speed>8.09</speed><time>2016-07-01T16:15:44Z</time><pdop>12.0</pdop><geoidheight>54.00</geoidheight><course>268.1</course><type>1</type></trkpt>
      <trkpt lat="40.58318609" lon="-4.87018421"><ele>2117</ele><speed>3.12</speed><time>2016-07-01T16:15:50Z</time><pdop>10.0</pdop><geoidheight>54.00</geoidheight><course>299.5</course><type>1</type></trkpt>
      <trkpt lat="40.58325418" lon="-4.8705354"><ele>2107</ele><speed>6.91</speed><time>2016-07-01T16:15:56Z</time><pdop>12.0</pdop><geoidheight>54.00</geoidheight><course>282.6</course><type>1</type></trkpt>
      <trkpt lat="40.58321919" lon="-4.87084053"><ele>2100</ele><speed>8.31</speed><time>2016-07-01T16:15:59Z</time><pdop>10.0</pdop><geoidheight>54.00</geoidheight><course>275.4</course><type>1</type></trkpt>
      <trkpt lat="40.58331287" lon="-4.87107059"><ele>2090</ele><speed>7.97</speed><time>2016-07-01T16:16:02Z</time><pdop>5.0</pdop><geoidheight>54.00</geoidheight><course>280.7</course><type>1</type></trkpt>
      <trkpt lat="40.5833181" lon="-4.87122566"><ele>2086</ele><speed>6.66</speed><time>2016-07-01T16:16:04Z</time><pdop>5.0</pdop><geoidheight>54.00</geoidheight><course>272.4</course><type>1</type></trkpt>
      <trkpt lat="40.58333218" lon="-4.87139251"><ele>2081</ele><speed>4.88</speed><time>2016-07-01T16:16:07Z</time><pdop>8.0</pdop><geoidheight>54.00</geoidheight><course>271.2</course><type>1</type></trkpt>
      <trkpt lat="40.58336503" lon="-4.87167218"><ele>2070</ele><speed>7.31</speed><time>2016-07-01T16:16:11Z</time><pdop>8.0</pdop><geoidheight>54.00</geoidheight><course>295.7</course><type>1</type></trkpt>
      <trkpt lat="40.58344607" lon="-4.87184342"><ele>2062</ele><speed>5.79</speed><time>2016-07-01T16:16:14Z</time><pdop>6.0</pdop><geoidheight>54.00</geoidheight><course>290.9</course><type>1</type></trkpt>
      <trkpt lat="40.58349377" lon="-4.87207586"><ele>2056</ele><speed>7.07</speed><time>2016-07-01T16:16:17Z</time><pdop>10.0</pdop><geoidheight>54.00</geoidheight><course>281.4</course><type>1</type></trkpt>
      <trkpt lat="40.5835288" lon="-4.87231142"><ele>2047</ele><speed>7.02</speed><time>2016-07-01T16:16:20Z</time><pdop>8.0</pdop><geoidheight>54.00</geoidheight><course>276.7</course><type>1</type></trkpt>
      <trkpt lat="40.58351559" lon="-4.87258656"><ele>2041</ele><speed>8.96</speed><time>2016-07-01T16:16:23Z</time><pdop>9.0</pdop><geoidheight>54.00</geoidheight><course>269.7</course><type>1</type></trkpt>
      <trkpt lat="40.58361659" lon="-4.87288054"><ele>2034</ele><speed>10.17</speed><time>2016-07-01T16:16:26Z</time><pdop>11.0</pdop><geoidheight>54.00</geoidheight><course>286.6</course><type>1</type></trkpt>
      <trkpt lat="40.58367432" lon="-4.87322061"><ele>2028</ele><speed>9.39</speed><time>2016-07-01T16:16:29Z</time><pdop>14.0</pdop><geoidheight>54.00</geoidheight><course>283.6</course><type>1</type></trkpt>
      <trkpt lat="40.5837304" lon="-4.87360278"><ele>2014</ele><speed>8.70</speed><time>2016-07-01T16:16:33Z</time><pdop>11.0</pdop><geoidheight>54.00</geoidheight><course>289.7</course><type>1</type></trkpt>
      <trkpt lat="40.58385474" lon="-4.87380616"><ele>1999</ele><speed>7.68</speed><time>2016-07-01T16:16:39Z</time><pdop>10.0</pdop><geoidheight>54.00</geoidheight><course>282.8</course><type>1</type></trkpt>
      <trkpt lat="40.58391494" lon="-4.87413813"><ele>1994</ele><speed>10.38</speed><time>2016-07-01T16:16:42Z</time><pdop>14.0</pdop><geoidheight>54.00</geoidheight><course>281.2</course><type>1</type></trkpt>
      <trkpt lat="40.58393328" lon="-4.87441922"><ele>1985</ele><speed>7.54</speed><time>2016-07-01T16:16:45Z</time><pdop>9.0</pdop><geoidheight>54.00</geoidheight><course>282.9</course><type>1</type></trkpt>
      <trkpt lat="40.58400824" lon="-4.8746857"><ele>1973</ele><speed>9.43</speed><time>2016-07-01T16:16:48Z</time><pdop>9.0</pdop><geoidheight>54.00</geoidheight><course>287.2</course><type>1</type></trkpt>
      <trkpt lat="40.58413279" lon="-4.87499548"><ele>1967</ele><speed>9.58</speed><time>2016-07-01T16:16:51Z</time><pdop>11.0</pdop><geoidheight>54.00</geoidheight><course>297.2</course><type>1</type></trkpt>
      <trkpt lat="40.58426843" lon="-4.87528106"><ele>1960</ele><speed>7.01</speed><time>2016-07-01T16:16:55Z</time><pdop>16.0</pdop><geoidheight>54.00</geoidheight><course>296.5</course><type>1</type></trkpt>
      <trkpt lat="40.58426936" lon="-4.87563477"><ele>1955</ele><speed>9.92</speed><time>2016-07-01T16:16:59Z</time><pdop>11.0</pdop><geoidheight>54.00</geoidheight><course>279.2</course><type>1</type></trkpt>
      <trkpt lat="40.58425965" lon="-4.87588555"><ele>1950</ele><speed>10.88</speed><time>2016-07-01T16:17:01Z</time><pdop>8.0</pdop><geoidheight>54.00</geoidheight><course>273.1</course><type>1</type></trkpt>
      <trkpt lat="40.58432844" lon="-4.87607921"><ele>1944</ele><speed>9.41</speed><time>2016-07-01T16:17:03Z</time><pdop>7.0</pdop><geoidheight>54.00</geoidheight><course>290.4</course><type>1</type></trkpt>
      <trkpt lat="40.58443097" lon="-4.87625888"><ele>1937</ele><speed>9.76</speed><time>2016-07-01T16:17:05Z</time><pdop>10.0</pdop><geoidheight>54.00</geoidheight><course>300.0</course><type>1</type></trkpt>
      <trkpt lat="40.58449604" lon="-4.876586"><ele>1932</ele><speed>9.61</speed><time>2016-07-01T16:17:08Z</time><pdop>11.0</pdop><geoidheight>54.00</geoidheight><course>279.5</course><type>1</type></trkpt>
      <trkpt lat="40.58449745" lon="-4.87694512"><ele>1920</ele><speed>10.01</speed><time>2016-07-01T16:17:11Z</time><pdop>10.0</pdop><geoidheight>54.00</geoidheight><course>279.1</course><type>1</type></trkpt>
      <trkpt lat="40.58452704" lon="-4.8771729"><ele>1912</ele><speed>10.00</speed><time>2016-07-01T16:17:13Z</time><pdop>9.0</pdop><geoidheight>54.00</geoidheight><course>280.8</course><type>1</type></trkpt>
      <trkpt lat="40.58455598" lon="-4.87749691"><ele>1906</ele><speed>9.64</speed><time>2016-07-01T16:17:16Z</time><pdop>9.0</pdop><geoidheight>54.00</geoidheight><course>276.2</course><type>1</type></trkpt>
      <trkpt lat="40.58457766" lon="-4.87772718"><ele>1899</ele><speed>10.88</speed><time>2016-07-01T16:17:18Z</time><pdop>10.0</pdop><geoidheight>54.00</geoidheight><course>276.7</course><type>1</type></trkpt>
      <trkpt lat="40.58460126" lon="-4.87799196"><ele>1895</ele><speed>11.93</speed><time>2016-07-01T16:17:20Z</time><pdop>9.0</pdop><geoidheight>54.00</geoidheight><course>276.6</course><type>1</type></trkpt>
      <trkpt lat="40.58463095" lon="-4.87824767"><ele>1892</ele><speed>11.39</speed><time>2016-07-01T16:17:22Z</time><pdop>10.0</pdop><geoidheight>54.00</geoidheight><course>280.5</course><type>1</type></trkpt>
      <trkpt lat="40.58474927" lon="-4.87853928"><ele>1883</ele><speed>9.88</speed><time>2016-07-01T16:17:25Z</time><pdop>10.0</pdop><geoidheight>54.00</geoidheight><course>290.1</course><type>1</type></trkpt>
      <trkpt lat="40.58481893" lon="-4.87876618"><ele>1876</ele><speed>11.36</speed><time>2016-07-01T16:17:27Z</time><pdop>10.0</pdop><geoidheight>54.00</geoidheight><course>287.9</course><type>1</type></trkpt>
      <trkpt lat="40.58489112" lon="-4.87903913"><ele>1873</ele><speed>12.38</speed><time>2016-07-01T16:17:29Z</time><pdop>11.0</pdop><geoidheight>54.00</geoidheight><course>291.0</course><type>1</type></trkpt>
      <trkpt lat="40.58497546" lon="-4.87927513"><ele>1871</ele><speed>10.93</speed><time>2016-07-01T16:17:31Z</time><pdop>11.0</pdop><geoidheight>54.00</geoidheight><course>290.1</course><type>1</type></trkpt>
      <trkpt lat="40.58506023" lon="-4.87958911"><ele>1867</ele><speed>9.69</speed><time>2016-07-01T16:17:34Z</time><pdop>10.0</pdop><geoidheight>54.00</geoidheight><course>288.3</course><type>1</type></trkpt>
      <trkpt lat="40.5851383" lon="-4.87989786"><ele>1859</ele><speed>9.47</speed><time>2016-07-01T16:17:37Z</time><pdop>10.0</pdop><geoidheight>54.00</geoidheight><course>290.1</course><type>1</type></trkpt>
      <trkpt lat="40.58519371" lon="-4.88012114"><ele>1856</ele><speed>10.10</speed><time>2016-07-01T16:17:39Z</time><pdop>9.0</pdop><geoidheight>54.00</geoidheight><course>289.5</course><type>1</type></trkpt>
      <trkpt lat="40.58527027" lon="-4.88032959"><ele>1853</ele><speed>9.72</speed><time>2016-07-01T16:17:41Z</time><pdop>9.0</pdop><geoidheight>54.00</geoidheight><course>297.3</course><type>1</type></trkpt>
      <trkpt lat="40.5854281" lon="-4.88059996"><ele>1852</ele><speed>9.57</speed><time>2016-07-01T16:17:44Z</time><pdop>11.0</pdop><geoidheight>54.00</geoidheight><course>309.2</course><type>1</type></trkpt>
      <trkpt lat="40.58561491" lon="-4.88073362"><ele>1856</ele><speed>6.23</speed><time>2016-07-01T16:17:48Z</time><pdop>11.0</pdop><geoidheight>54.00</geoidheight><course>339.9</course><type>1</type></trkpt>
      <trkpt lat="40.58585473" lon="-4.88065875"><ele>1860</ele><speed>6.32</speed><time>2016-07-01T16:17:52Z</time><pdop>11.0</pdop><geoidheight>54.00</geoidheight><course>14.1</course><type>1</type></trkpt>
      <trkpt lat="40.58604721" lon="-4.88056277"><ele>1866</ele><speed>7.27</speed><time>2016-07-01T16:17:56Z</time><pdop>11.0</pdop><geoidheight>54.00</geoidheight><course>24.9</course><type>1</type></trkpt>
      <trkpt lat="40.58626721" lon="-4.88056913"><ele>1870</ele><speed>7.01</speed><time>2016-07-01T16:17:59Z</time><pdop>10.0</pdop><geoidheight>54.00</geoidheight><course>359.5</course><type>1</type></trkpt>
      <trkpt lat="40.58610681" lon="-4.8807765"><ele>1874</ele><speed>4.36</speed><time>2016-07-01T16:18:06Z</time><pdop>13.0</pdop><geoidheight>54.00</geoidheight><course>196.6</course><type>1</type></trkpt>
      <trkpt lat="40.58586907" lon="-4.88066927"><ele>1875</ele><speed>7.92</speed><time>2016-07-01T16:18:08Z</time><pdop>14.0</pdop><geoidheight>54.00</geoidheight><course>160.5</course><type>1</type></trkpt>
      <trkpt lat="40.58567331" lon="-4.88043943"><ele>1875</ele><speed>10.39</speed><time>2016-07-01T16:18:10Z</time><pdop>13.0</pdop><geoidheight>54.00</geoidheight><course>137.8</course><type>1</type></trkpt>
      <trkpt lat="40.58548495" lon="-4.88012643"><ele>1876</ele><speed>12.63</speed><time>2016-07-01T16:18:12Z</time><pdop>13.0</pdop><geoidheight>54.00</geoidheight><course>133.2</course><type>1</type></trkpt>
      <trkpt lat="40.58525273" lon="-4.87987271"><ele>1877</ele><speed>10.91</speed><time>2016-07-01T16:18:15Z</time><pdop>14.0</pdop><geoidheight>54.00</geoidheight><course>138.6</course><type>1</type></trkpt>
      <trkpt lat="40.58530487" lon="-4.88022721"><ele>1875</ele><speed>4.14</speed><time>2016-07-01T16:18:20Z</time><pdop>13.0</pdop><geoidheight>54.00</geoidheight><course>283.9</course><type>1</type></trkpt>
      <trkpt lat="40.58552987" lon="-4.88016827"><ele>1872</ele><speed>4.53</speed><time>2016-07-01T16:18:23Z</time><pdop>11.0</pdop><geoidheight>54.00</geoidheight><course>17.0</course><type>1</type></trkpt>
      <trkpt lat="40.58573295" lon="-4.87978428"><ele>1869</ele><speed>10.98</speed><time>2016-07-01T16:18:25Z</time><pdop>10.0</pdop><geoidheight>54.00</geoidheight><course>56.0</course><type>1</type></trkpt>
      <trkpt lat="40.58579674" lon="-4.87935765"><ele>1868</ele><speed>13.10</speed><time>2016-07-01T16:18:27Z</time><pdop>10.0</pdop><geoidheight>54.00</geoidheight><course>79.4</course><type>1</type></trkpt>
      <trkpt lat="40.58580825" lon="-4.87887478"><ele>1868</ele><speed>15.55</speed><time>2016-07-01T16:18:29Z</time><pdop>10.0</pdop><geoidheight>54.00</geoidheight><course>88.7</course><type>1</type></trkpt>
      <trkpt lat="40.58568542" lon="-4.87867159"><ele>1868</ele><speed>15.74</speed><time>2016-07-01T16:18:30Z</time><pdop>8.0</pdop><geoidheight>54.00</geoidheight><course>105.6</course><type>1</type></trkpt>
      <trkpt lat="40.58561366" lon="-4.87846177"><ele>1865</ele><speed>16.50</speed><time>2016-07-01T16:18:31Z</time><pdop>10.0</pdop><geoidheight>54.00</geoidheight><course>107.4</course><type>1</type></trkpt>
      <trkpt lat="40.58539691" lon="-4.87820441"><ele>1867</ele><speed>15.78</speed><time>2016-07-01T16:18:33Z</time><pdop>13.0</pdop><geoidheight>54.00</geoidheight><course>129.1</course><type>1</type></trkpt>
      <trkpt lat="40.58514207" lon="-4.8781506"><ele>1865</ele><speed>10.05</speed><time>2016-07-01T16:18:36Z</time><pdop>14.0</pdop><geoidheight>54.00</geoidheight><course>148.1</course><type>1</type></trkpt>
      <trkpt lat="40.58496832" lon="-4.87837359"><ele>1863</ele><speed>6.43</speed><time>2016-07-01T16:18:39Z</time><pdop>8.0</pdop><geoidheight>54.00</geoidheight><course>185.7</course><type>1</type></trkpt>
      <trkpt lat="40.58480127" lon="-4.87838866"><ele>1862</ele><speed>7.24</speed><time>2016-07-01T16:18:41Z</time><pdop>5.0</pdop><geoidheight>54.00</geoidheight><course>163.8</course><type>1</type></trkpt>
      <trkpt lat="40.58466137" lon="-4.87835158"><ele>1863</ele><speed>7.27</speed><time>2016-07-01T16:18:43Z</time><pdop>7.0</pdop><geoidheight>54.00</geoidheight><course>163.5</course><type>1</type></trkpt>
      <trkpt lat="40.58455008" lon="-4.8784538"><ele>1862</ele><speed>4.83</speed><time>2016-07-01T16:18:46Z</time><pdop>6.0</pdop><geoidheight>54.00</geoidheight><course>224.5</course><type>1</type></trkpt>
      <trkpt lat="40.58448091" lon="-4.87858075"><ele>1861</ele><speed>4.64</speed><time>2016-07-01T16:18:48Z</time><pdop>6.0</pdop><geoidheight>54.00</geoidheight><course>228.4</course><type>1</type></trkpt>
      <trkpt lat="40.58433017" lon="-4.87867436"><ele>1859</ele><speed>5.93</speed><time>2016-07-01T16:18:51Z</time><pdop>9.0</pdop><geoidheight>54.00</geoidheight><course>211.3</course><type>1</type></trkpt>
      <trkpt lat="40.58417596" lon="-4.87875177"><ele>1858</ele><speed>5.74</speed><time>2016-07-01T16:18:54Z</time><pdop>9.0</pdop><geoidheight>54.00</geoidheight><course>204.6</course><type>1</type></trkpt>
      <trkpt lat="40.58402064" lon="-4.87892983"><ele>1858</ele><speed>6.96</speed><time>2016-07-01T16:18:57Z</time><pdop>8.0</pdop><geoidheight>54.00</geoidheight><course>216.5</course><type>1</type></trkpt>
      <trkpt lat="40.58388812" lon="-4.87908664"><ele>1856</ele><speed>8.82</speed><time>2016-07-01T16:18:59Z</time><pdop>6.0</pdop><geoidheight>54.00</geoidheight><course>215.6</course><type>1</type></trkpt>
      <trkpt lat="40.58377979" lon="-4.87917885"><ele>1856</ele><speed>7.01</speed><time>2016-07-01T16:19:01Z</time><pdop>7.0</pdop><geoidheight>54.00</geoidheight><course>211.0</course><type>1</type></trkpt>
      <trkpt lat="40.58371037" lon="-4.87938512"><ele>1853</ele><speed>8.89</speed><time>2016-07-01T16:19:03Z</time><pdop>8.0</pdop><geoidheight>54.00</geoidheight><course>236.5</course><type>1</type></trkpt>
      <trkpt lat="40.58363433" lon="-4.87964995"><ele>1847</ele><speed>8.81</speed><time>2016-07-01T16:19:06Z</time><pdop>7.0</pdop><geoidheight>54.00</geoidheight><course>247.4</course><type>1</type></trkpt>
      <trkpt lat="40.58355624" lon="-4.87986817"><ele>1843</ele><speed>7.19</speed><time>2016-07-01T16:19:09Z</time><pdop>8.0</pdop><geoidheight>54.00</geoidheight><course>250.1</course><type>1</type></trkpt>
      <trkpt lat="40.58349155" lon="-4.88003718"><ele>1839</ele><speed>9.38</speed><time>2016-07-01T16:19:11Z</time><pdop>7.0</pdop><geoidheight>54.00</geoidheight><course>250.6</course><type>1</type></trkpt>
      <trkpt lat="40.58341468" lon="-4.88028793"><ele>1837</ele><speed>11.84</speed><time>2016-07-01T16:19:13Z</time><pdop>7.0</pdop><geoidheight>54.00</geoidheight><course>250.7</course><type>1</type></trkpt>
      <trkpt lat="40.58334548" lon="-4.88053016"><ele>1834</ele><speed>11.16</speed><time>2016-07-01T16:19:15Z</time><pdop>11.0</pdop><geoidheight>54.00</geoidheight><course>251.2</course><type>1</type></trkpt>
      <trkpt lat="40.5832529" lon="-4.88086528"><ele>1826</ele><speed>8.95</speed><time>2016-07-01T16:19:19Z</time><pdop>11.0</pdop><geoidheight>54.00</geoidheight><course>254.5</course><type>1</type></trkpt>
      <trkpt lat="40.58322299" lon="-4.8811519"><ele>1820</ele><speed>5.20</speed><time>2016-07-01T16:19:24Z</time><pdop>11.0</pdop><geoidheight>54.00</geoidheight><course>256.0</course><type>1</type></trkpt>
      <trkpt lat="40.58330989" lon="-4.88145855"><ele>1814</ele><speed>5.84</speed><time>2016-07-01T16:19:29Z</time><pdop>13.0</pdop><geoidheight>54.00</geoidheight><course>272.5</course><type>1</type></trkpt>
      <trkpt lat="40.58302501" lon="-4.8815683"><ele>1810</ele><speed>8.40</speed><time>2016-07-01T16:19:33Z</time><pdop>11.0</pdop><geoidheight>54.00</geoidheight><course>186.1</course><type>1</type></trkpt>
      <trkpt lat="40.5827715" lon="-4.88149152"><ele>1809</ele><speed>9.42</speed><time>2016-07-01T16:19:36Z</time><pdop>10.0</pdop><geoidheight>54.00</geoidheight><course>161.4</course><type>1</type></trkpt>
      <trkpt lat="40.58256153" lon="-4.88135454"><ele>1808</ele><speed>9.31</speed><time>2016-07-01T16:19:39Z</time><pdop>10.0</pdop><geoidheight>54.00</geoidheight><course>155.3</course><type>1</type></trkpt>
      <trkpt lat="40.5823789" lon="-4.88122285"><ele>1808</ele><speed>10.63</speed><time>2016-07-01T16:19:41Z</time><pdop>10.0</pdop><geoidheight>54.00</geoidheight><course>150.6</course><type>1</type></trkpt>
      <trkpt lat="40.58218824" lon="-4.88101289"><ele>1809</ele><speed>12.07</speed><time>2016-07-01T16:19:43Z</time><pdop>11.0</pdop><geoidheight>54.00</geoidheight><course>140.5</course><type>1</type></trkpt>
      <trkpt lat="40.5820709" lon="-4.88072811"><ele>1810</ele><speed>12.72</speed><time>2016-07-01T16:19:45Z</time><pdop>12.0</pdop><geoidheight>54.00</geoidheight><course>125.2</course><type>1</type></trkpt>
      <trkpt lat="40.58209872" lon="-4.88031824"><ele>1813</ele><speed>11.73</speed><time>2016-07-01T16:19:48Z</time><pdop>10.0</pdop><geoidheight>54.00</geoidheight><course>104.6</course><type>1</type></trkpt>
      <trkpt lat="40.58205056" lon="-4.88004558"><ele>1812</ele><speed>12.07</speed><time>2016-07-01T16:19:50Z</time><pdop>10.0</pdop><geoidheight>54.00</geoidheight><course>102.2</course><type>1</type></trkpt>
      <trkpt lat="40.5820627" lon="-4.87972821"><ele>1813</ele><speed>12.50</speed><time>2016-07-01T16:19:52Z</time><pdop>10.0</pdop><geoidheight>54.00</geoidheight><course>91.4</course><type>1</type></trkpt>
      <trkpt lat="40.58221291" lon="-4.87948744"><ele>1815</ele><speed>11.42</speed><time>2016-07-01T16:19:54Z</time><pdop>10.0</pdop><geoidheight>54.00</geoidheight><course>60.0</course><type>1</type></trkpt>
      <trkpt lat="40.58241259" lon="-4.87928529"><ele>1819</ele><speed>8.48</speed><time>2016-07-01T16:19:57Z</time><pdop>12.0</pdop><geoidheight>54.00</geoidheight><course>38.2</course><type>1</type></trkpt>
      <trkpt lat="40.58250876" lon="-4.87959513"><ele>1821</ele><speed>3.67</speed><time>2016-07-01T16:20:01Z</time><pdop>13.0</pdop><geoidheight>54.00</geoidheight><course>295.0</course><type>1</type></trkpt>
      <trkpt lat="40.58239397" lon="-4.87985521"><ele>1819</ele><speed>7.22</speed><time>2016-07-01T16:20:03Z</time><pdop>12.0</pdop><geoidheight>54.00</geoidheight><course>248.2</course><type>1</type></trkpt>
      <trkpt lat="40.58206312" lon="-4.87987492"><ele>1821</ele><speed>9.75</speed><time>2016-07-01T16:20:06Z</time><pdop>12.0</pdop><geoidheight>54.00</geoidheight><course>187.1</course><type>1</type></trkpt>
      <trkpt lat="40.58182624" lon="-4.87967543"><ele>1823</ele><speed>11.25</speed><time>2016-07-01T16:20:08Z</time><pdop>10.0</pdop><geoidheight>54.00</geoidheight><course>150.9</course><type>1</type></trkpt>
      <trkpt lat="40.58165394" lon="-4.87946618"><ele>1823</ele><speed>12.49</speed><time>2016-07-01T16:20:10Z</time><pdop>10.0</pdop><geoidheight>54.00</geoidheight><course>133.7</course><type>1</type></trkpt>
      <trkpt lat="40.58151659" lon="-4.87922287"><ele>1825</ele><speed>12.91</speed><time>2016-07-01T16:20:12Z</time><pdop>10.0</pdop><geoidheight>54.00</geoidheight><course>121.7</course><type>1</type></trkpt>
      <trkpt lat="40.58138784" lon="-4.87895006"><ele>1827</ele><speed>13.51</speed><time>2016-07-01T16:20:14Z</time><pdop>10.0</pdop><geoidheight>54.00</geoidheight><course>121.3</course><type>1</type></trkpt>
      <trkpt lat="40.58126846" lon="-4.87874335"><ele>1830</ele><speed>11.95</speed><time>2016-07-01T16:20:16Z</time><pdop>10.0</pdop><geoidheight>54.00</geoidheight><course>131.0</course><type>1</type></trkpt>
      <trkpt lat="40.58112022" lon="-4.87854874"><ele>1832</ele><speed>11.43</speed><time>2016-07-01T16:20:18Z</time><pdop>9.0</pdop><geoidheight>54.00</geoidheight><course>140.1</course><type>1</type></trkpt>
      <trkpt lat="40.58094815" lon="-4.87842371"><ele>1832</ele><speed>10.83</speed><time>2016-07-01T16:20:20Z</time><pdop>9.0</pdop><geoidheight>54.00</geoidheight><course>151.8</course><type>1</type></trkpt>
      <trkpt lat="40.58078687" lon="-4.87855437"><ele>1835</ele><speed>7.01</speed><time>2016-07-01T16:20:23Z</time><pdop>10.0</pdop><geoidheight>54.00</geoidheight><course>203.9</course><type>1</type></trkpt>
      <trkpt lat="40.58090067" lon="-4.87877773"><ele>1837</ele><speed>5.23</speed><time>2016-07-01T16:20:27Z</time><pdop>9.0</pdop><geoidheight>54.00</geoidheight><course>317.8</course><type>1</type></trkpt>
      <trkpt lat="40.58108118" lon="-4.87867041"><ele>1836</ele><speed>7.64</speed><time>2016-07-01T16:20:29Z</time><pdop>9.0</pdop><geoidheight>54.00</geoidheight><course>17.3</course><type>1</type></trkpt>
      <trkpt lat="40.58126337" lon="-4.87847502"><ele>1840</ele><speed>12.45</speed><time>2016-07-01T16:20:31Z</time><pdop>8.0</pdop><geoidheight>54.00</geoidheight><course>44.4</course><type>1</type></trkpt>
      <trkpt lat="40.58134808" lon="-4.87815763"><ele>1838</ele><speed>14.88</speed><time>2016-07-01T16:20:33Z</time><pdop>6.0</pdop><geoidheight>54.00</geoidheight><course>69.1</course><type>1</type></trkpt>
      <trkpt lat="40.58137639" lon="-4.87797145"><ele>1838</ele><speed>15.01</speed><time>2016-07-01T16:20:34Z</time><pdop>6.0</pdop><geoidheight>54.00</geoidheight><course>76.3</course><type>1</type></trkpt>
      <trkpt lat="40.58139825" lon="-4.87779456"><ele>1841</ele><speed>15.17</speed><time>2016-07-01T16:20:35Z</time><pdop>5.0</pdop><geoidheight>54.00</geoidheight><course>84.8</course><type>1</type></trkpt>
      <trkpt lat="40.58141158" lon="-4.87762235"><ele>1840</ele><speed>14.84</speed><time>2016-07-01T16:20:36Z</time><pdop>5.0</pdop><geoidheight>54.00</geoidheight><course>87.7</course><type>1</type></trkpt>
      <trkpt lat="40.58140414" lon="-4.87745887"><ele>1841</ele><speed>14.42</speed><time>2016-07-01T16:20:37Z</time><pdop>6.0</pdop><geoidheight>54.00</geoidheight><course>93.9</course><type>1</type></trkpt>
      <trkpt lat="40.58130646" lon="-4.8773128"><ele>1841</ele><speed>14.65</speed><time>2016-07-01T16:20:38Z</time><pdop>6.0</pdop><geoidheight>54.00</geoidheight><course>113.5</course><type>1</type></trkpt>
      <trkpt lat="40.58123528" lon="-4.87714354"><ele>1842</ele><speed>15.22</speed><time>2016-07-01T16:20:39Z</time><pdop>5.0</pdop><geoidheight>54.00</geoidheight><course>117.2</course><type>1</type></trkpt>
      <trkpt lat="40.58115847" lon="-4.87698039"><ele>1842</ele><speed>15.22</speed><time>2016-07-01T16:20:40Z</time><pdop>5.0</pdop><geoidheight>54.00</geoidheight><course>118.6</course><type>1</type></trkpt>
      <trkpt lat="40.58110904" lon="-4.8768485"><ele>1844</ele><speed>14.58</speed><time>2016-07-01T16:20:41Z</time><pdop>5.0</pdop><geoidheight>54.00</geoidheight><course>119.8</course><type>1</type></trkpt>
      <trkpt lat="40.58104545" lon="-4.87671884"><ele>1847</ele><speed>14.39</speed><time>2016-07-01T16:20:42Z</time><pdop>6.0</pdop><geoidheight>54.00</geoidheight><course>122.8</course><type>1</type></trkpt>
      <trkpt lat="40.58091007" lon="-4.87660819"><ele>1848</ele><speed>10.27</speed><time>2016-07-01T16:20:44Z</time><pdop>5.0</pdop><geoidheight>54.00</geoidheight><course>152.2</course><type>1</type></trkpt>
      <trkpt lat="40.58082102" lon="-4.87658947"><ele>1850</ele><speed>9.49</speed><time>2016-07-01T16:20:45Z</time><pdop>5.0</pdop><geoidheight>54.00</geoidheight><course>170.3</course><type>1</type></trkpt>
      <trkpt lat="40.58071353" lon="-4.8766203"><ele>1855</ele><speed>7.44</speed><time>2016-07-01T16:20:47Z</time><pdop>6.0</pdop><geoidheight>54.00</geoidheight><course>183.3</course><type>1</type></trkpt>
      <trkpt lat="40.58069748" lon="-4.87681095"><ele>1859</ele><speed>3.21</speed><time>2016-07-01T16:20:51Z</time><pdop>7.0</pdop><geoidheight>54.00</geoidheight><course>262.7</course><type>1</type></trkpt>
      <trkpt lat="40.58080038" lon="-4.87689815"><ele>1859</ele><speed>5.77</speed><time>2016-07-01T16:20:52Z</time><pdop>5.0</pdop><geoidheight>54.00</geoidheight><course>313.5</course><type>1</type></trkpt>
      <trkpt lat="40.58091954" lon="-4.87697324"><ele>1859</ele><speed>7.07</speed><time>2016-07-01T16:20:54Z</time><pdop>6.0</pdop><geoidheight>54.00</geoidheight><course>334.0</course><type>1</type></trkpt>
      <trkpt lat="40.58102349" lon="-4.87686093"><ele>1860</ele><speed>6.01</speed><time>2016-07-01T16:20:56Z</time><pdop>6.0</pdop><geoidheight>54.00</geoidheight><course>27.9</course><type>1</type></trkpt>
      <trkpt lat="40.58117492" lon="-4.87668094"><ele>1861</ele><speed>12.56</speed><time>2016-07-01T16:20:57Z</time><pdop>4.0</pdop><geoidheight>54.00</geoidheight><course>45.6</course><type>1</type></trkpt>
      <trkpt lat="40.58124854" lon="-4.8765587"><ele>1860</ele><speed>13.08</speed><time>2016-07-01T16:20:58Z</time><pdop>4.0</pdop><geoidheight>54.00</geoidheight><course>49.4</course><type>1</type></trkpt>
      <trkpt lat="40.5812896" lon="-4.87641802"><ele>1861</ele><speed>12.71</speed><time>2016-07-01T16:20:59Z</time><pdop>4.0</pdop><geoidheight>54.00</geoidheight><course>59.4</course><type>1</type></trkpt>
      <trkpt lat="40.58126438" lon="-4.87622379"><ele>1863</ele><speed>13.89</speed><time>2016-07-01T16:21:00Z</time><pdop>3.0</pdop><geoidheight>54.00</geoidheight><course>87.8</course><type>1</type></trkpt>
      <trkpt lat="40.58127241" lon="-4.87606395"><ele>1863</ele><speed>13.71</speed><time>2016-07-01T16:21:01Z</time><pdop>3.0</pdop><geoidheight>54.00</geoidheight><course>91.4</course><type>1</type></trkpt>
      <trkpt lat="40.5812571" lon="-4.87590269"><ele>1863</ele><speed>13.54</speed><time>2016-07-01T16:21:02Z</time><pdop>4.0</pdop><geoidheight>54.00</geoidheight><course>98.7</course><type>1</type></trkpt>
      <trkpt lat="40.58116124" lon="-4.87576042"><ele>1865</ele><speed>13.78</speed><time>2016-07-01T16:21:03Z</time><pdop>3.0</pdop><geoidheight>54.00</geoidheight><course>122.0</course><type>1</type></trkpt>
      <trkpt lat="40.58106792" lon="-4.87565179"><ele>1867</ele><speed>13.85</speed><time>2016-07-01T16:21:04Z</time><pdop>3.0</pdop><geoidheight>54.00</geoidheight><course>135.2</course><type>1</type></trkpt>
      <trkpt lat="40.58096913" lon="-4.87555415"><ele>1867</ele><speed>14.25</speed><time>2016-07-01T16:21:05Z</time><pdop>3.0</pdop><geoidheight>54.00</geoidheight><course>144.1</course><type>1</type></trkpt>
      <trkpt lat="40.58089486" lon="-4.87557575"><ele>1869</ele><speed>10.65</speed><time>2016-07-01T16:21:06Z</time><pdop>3.0</pdop><geoidheight>54.00</geoidheight><course>166.0</course><type>1</type></trkpt>
      <trkpt lat="40.58080237" lon="-4.8755401"><ele>1870</ele><speed>10.29</speed><time>2016-07-01T16:21:07Z</time><pdop>3.0</pdop><geoidheight>54.00</geoidheight><course>166.6</course><type>1</type></trkpt>
      <trkpt lat="40.58074671" lon="-4.87559609"><ele>1870</ele><speed>8.27</speed><time>2016-07-01T16:21:08Z</time><pdop>4.0</pdop><geoidheight>54.00</geoidheight><course>190.8</course><type>1</type></trkpt>
      <trkpt lat="40.58074426" lon="-4.87571681"><ele>1872</ele><speed>5.03</speed><time>2016-07-01T16:21:10Z</time><pdop>4.0</pdop><geoidheight>54.00</geoidheight><course>241.0</course><type>1</type></trkpt>
      <trkpt lat="40.58073883" lon="-4.87583976"><ele>1872</ele><speed>4.67</speed><time>2016-07-01T16:21:12Z</time><pdop>6.0</pdop><geoidheight>54.00</geoidheight><course>264.9</course><type>1</type></trkpt>
      <trkpt lat="40.58087389" lon="-4.8759468"><ele>1871</ele><speed>6.15</speed><time>2016-07-01T16:21:15Z</time><pdop>6.0</pdop><geoidheight>54.00</geoidheight><course>333.2</course><type>1</type></trkpt>
      <trkpt lat="40.58102333" lon="-4.87587797"><ele>1872</ele><speed>7.93</speed><time>2016-07-01T16:21:17Z</time><pdop>6.0</pdop><geoidheight>54.00</geoidheight><course>11.4</course><type>1</type></trkpt>
      <trkpt lat="40.58110969" lon="-4.87570827"><ele>1870</ele><speed>10.10</speed><time>2016-07-01T16:21:18Z</time><pdop>6.0</pdop><geoidheight>54.00</geoidheight><course>38.7</course><type>1</type></trkpt>
      <trkpt lat="40.581219" lon="-4.87560895"><ele>1870</ele><speed>11.70</speed><time>2016-07-01T16:21:19Z</time><pdop>6.0</pdop><geoidheight>54.00</geoidheight><course>39.8</course><type>1</type></trkpt>
      <trkpt lat="40.58129186" lon="-4.87546595"><ele>1870</ele><speed>12.28</speed><time>2016-07-01T16:21:20Z</time><pdop>6.0</pdop><geoidheight>54.00</geoidheight><course>52.6</course><type>1</type></trkpt>
      <trkpt lat="40.58135535" lon="-4.87533829"><ele>1873</ele><speed>13.14</speed><time>2016-07-01T16:21:21Z</time><pdop>5.0</pdop><geoidheight>54.00</geoidheight><course>64.6</course><type>1</type></trkpt>
      <trkpt lat="40.58140976" lon="-4.87518186"><ele>1873</ele><speed>14.24</speed><time>2016-07-01T16:21:22Z</time><pdop>4.0</pdop><geoidheight>54.00</geoidheight><course>64.9</course><type>1</type></trkpt>
      <trkpt lat="40.58146021" lon="-4.87502832"><ele>1873</ele><speed>14.25</speed><time>2016-07-01T16:21:23Z</time><pdop>5.0</pdop><geoidheight>54.00</geoidheight><course>65.1</course><type>1</type></trkpt>
      <trkpt lat="40.58149751" lon="-4.87487305"><ele>1873</ele><speed>14.01</speed><time>2016-07-01T16:21:24Z</time><pdop>6.0</pdop><geoidheight>54.00</geoidheight><course>66.8</course><type>1</type></trkpt>
      <trkpt lat="40.58154609" lon="-4.8747394"><ele>1874</ele><speed>13.09</speed><time>2016-07-01T16:21:25Z</time><pdop>6.0</pdop><geoidheight>54.00</geoidheight><course>66.2</course><type>1</type></trkpt>
      <trkpt lat="40.58160563" lon="-4.87460894"><ele>1876</ele><speed>12.45</speed><time>2016-07-01T16:21:26Z</time><pdop>6.0</pdop><geoidheight>54.00</geoidheight><course>63.9</course><type>1</type></trkpt>
      <trkpt lat="40.5816941" lon="-4.87449628"><ele>1877</ele><speed>12.10</speed><time>2016-07-01T16:21:27Z</time><pdop>5.0</pdop><geoidheight>54.00</geoidheight><course>56.2</course><type>1</type></trkpt>
      <trkpt lat="40.58186242" lon="-4.87440294"><ele>1881</ele><speed>9.29</speed><time>2016-07-01T16:21:29Z</time><pdop>5.0</pdop><geoidheight>54.00</geoidheight><course>18.8</course><type>1</type></trkpt>
      <trkpt lat="40.58196586" lon="-4.87442293"><ele>1880</ele><speed>9.90</speed><time>2016-07-01T16:21:30Z</time><pdop>5.0</pdop><geoidheight>54.00</geoidheight><course>3.9</course><type>1</type></trkpt>
      <trkpt lat="40.58208253" lon="-4.87455001"><ele>1880</ele><speed>6.24</speed><time>2016-07-01T16:21:33Z</time><pdop>10.0</pdop><geoidheight>54.00</geoidheight><course>340.0</course><type>1</type></trkpt>
      <trkpt lat="40.58181582" lon="-4.87470505"><ele>1882</ele><speed>5.40</speed><time>2016-07-01T16:21:36Z</time><pdop>12.0</pdop><geoidheight>54.00</geoidheight><course>216.0</course><type>1</type></trkpt>
      <trkpt lat="40.58151447" lon="-4.87470979"><ele>1884</ele><speed>8.74</speed><time>2016-07-01T16:21:39Z</time><pdop>11.0</pdop><geoidheight>54.00</geoidheight><course>183.9</course><type>1</type></trkpt>
      <trkpt lat="40.58127279" lon="-4.87457479"><ele>1885</ele><speed>12.05</speed><time>2016-07-01T16:21:41Z</time><pdop>11.0</pdop><geoidheight>54.00</geoidheight><course>147.1</course><type>1</type></trkpt>
      <trkpt lat="40.58108602" lon="-4.87442665"><ele>1888</ele><speed>12.52</speed><time>2016-07-01T16:21:43Z</time><pdop>11.0</pdop><geoidheight>54.00</geoidheight><course>144.6</course><type>1</type></trkpt>
      <trkpt lat="40.58095583" lon="-4.87408451"><ele>1891</ele><speed>11.41</speed><time>2016-07-01T16:21:46Z</time><pdop>14.0</pdop><geoidheight>54.00</geoidheight><course>121.1</course><type>1</type></trkpt>
      <trkpt lat="40.58090669" lon="-4.87363187"><ele>1892</ele><speed>14.62</speed><time>2016-07-01T16:21:48Z</time><pdop>14.0</pdop><geoidheight>54.00</geoidheight><course>102.6</course><type>1</type></trkpt>
      <trkpt lat="40.58086137" lon="-4.8731988"><ele>1895</ele><speed>16.05</speed><time>2016-07-01T16:21:50Z</time><pdop>11.0</pdop><geoidheight>54.00</geoidheight><course>99.7</course><type>1</type></trkpt>
      <trkpt lat="40.58082832" lon="-4.8728437"><ele>1898</ele><speed>15.41</speed><time>2016-07-01T16:21:52Z</time><pdop>11.0</pdop><geoidheight>54.00</geoidheight><course>97.9</course><type>1</type></trkpt>
      <trkpt lat="40.58081317" lon="-4.87246093"><ele>1899</ele><speed>16.12</speed><time>2016-07-01T16:21:54Z</time><pdop>11.0</pdop><geoidheight>54.00</geoidheight><course>92.2</course><type>1</type></trkpt>
      <trkpt lat="40.58082289" lon="-4.87202808"><ele>1902</ele><speed>15.89</speed><time>2016-07-01T16:21:56Z</time><pdop>11.0</pdop><geoidheight>54.00</geoidheight><course>87.6</course><type>1</type></trkpt>
      <trkpt lat="40.58092009" lon="-4.87170265"><ele>1906</ele><speed>14.74</speed><time>2016-07-01T16:21:58Z</time><pdop>12.0</pdop><geoidheight>54.00</geoidheight><course>79.1</course><type>1</type></trkpt>
      <trkpt lat="40.58126579" lon="-4.87155513"><ele>1912</ele><speed>10.64</speed><time>2016-07-01T16:22:01Z</time><pdop>12.0</pdop><geoidheight>54.00</geoidheight><course>34.6</course><type>1</type></trkpt>
      <trkpt lat="40.58153146" lon="-4.87154583"><ele>1913</ele><speed>7.96</speed><time>2016-07-01T16:22:04Z</time><pdop>15.0</pdop><geoidheight>54.00</geoidheight><course>7.2</course><type>1</type></trkpt>
      <trkpt lat="40.58177094" lon="-4.87180576"><ele>1914</ele><speed>8.38</speed><time>2016-07-01T16:22:07Z</time><pdop>18.0</pdop><geoidheight>54.00</geoidheight><course>338.7</course><type>1</type></trkpt>
      <trkpt lat="40.58134695" lon="-4.8718944"><ele>1917</ele><speed>5.82</speed><time>2016-07-01T16:22:10Z</time><pdop>18.0</pdop><geoidheight>54.00</geoidheight><course>198.3</course><type>1</type></trkpt>
      <trkpt lat="40.58112618" lon="-4.87157404"><ele>1919</ele><speed>8.05</speed><time>2016-07-01T16:22:13Z</time><pdop>17.0</pdop><geoidheight>54.00</geoidheight><course>128.0</course><type>1</type></trkpt>
      <trkpt lat="40.5810331" lon="-4.87105634"><ele>1922</ele><speed>15.36</speed><time>2016-07-01T16:22:15Z</time><pdop>12.0</pdop><geoidheight>54.00</geoidheight><course>88.7</course><type>1</type></trkpt>
      <trkpt lat="40.58104388" lon="-4.8706884"><ele>1930</ele><speed>14.82</speed><time>2016-07-01T16:22:17Z</time><pdop>11.0</pdop><geoidheight>54.00</geoidheight><course>86.3</course><type>1</type></trkpt>
      <trkpt lat="40.58111698" lon="-4.87037988"><ele>1935</ele><speed>13.41</speed><time>2016-07-01T16:22:19Z</time><pdop>12.0</pdop><geoidheight>54.00</geoidheight><course>75.8</course><type>1</type></trkpt>
      <trkpt lat="40.58129704" lon="-4.87018186"><ele>1935</ele><speed>10.80</speed><time>2016-07-01T16:22:21Z</time><pdop>12.0</pdop><geoidheight>54.00</geoidheight><course>51.3</course><type>1</type></trkpt>
      <trkpt lat="40.58156153" lon="-4.87010578"><ele>1937</ele><speed>10.89</speed><time>2016-07-01T16:22:23Z</time><pdop>12.0</pdop><geoidheight>54.00</geoidheight><course>21.9</course><type>1</type></trkpt>
      <trkpt lat="40.5818416" lon="-4.87006594"><ele>1940</ele><speed>6.59</speed><time>2016-07-01T16:22:27Z</time><pdop>14.0</pdop><geoidheight>54.00</geoidheight><course>11.5</course><type>1</type></trkpt>
      <trkpt lat="40.58160822" lon="-4.87027243"><ele>1946</ele><speed>7.53</speed><time>2016-07-01T16:22:35Z</time><pdop>13.0</pdop><geoidheight>54.00</geoidheight><course>147.0</course><type>1</type></trkpt>
      <trkpt lat="40.58131855" lon="-4.87010873"><ele>1951</ele><speed>13.12</speed><time>2016-07-01T16:22:37Z</time><pdop>11.0</pdop><geoidheight>54.00</geoidheight><course>138.7</course><type>1</type></trkpt>
      <trkpt lat="40.58116871" lon="-4.86981388"><ele>1954</ele><speed>14.63</speed><time>2016-07-01T16:22:39Z</time><pdop>11.0</pdop><geoidheight>54.00</geoidheight><course>119.6</course><type>1</type></trkpt>
      <trkpt lat="40.58110273" lon="-4.86950471"><ele>1956</ele><speed>14.22</speed><time>2016-07-01T16:22:41Z</time><pdop>12.0</pdop><geoidheight>54.00</geoidheight><course>105.5</course><type>1</type></trkpt>
      <trkpt lat="40.58108349" lon="-4.86910811"><ele>1960</ele><speed>15.52</speed><time>2016-07-01T16:22:43Z</time><pdop>11.0</pdop><geoidheight>54.00</geoidheight><course>97.4</course><type>1</type></trkpt>
      <trkpt lat="40.5811253" lon="-4.86870821"><ele>1958</ele><speed>16.53</speed><time>2016-07-01T16:22:45Z</time><pdop>12.0</pdop><geoidheight>54.00</geoidheight><course>88.1</course><type>1</type></trkpt>
      <trkpt lat="40.58138283" lon="-4.86849386"><ele>1963</ele><speed>12.80</speed><time>2016-07-01T16:22:47Z</time><pdop>11.0</pdop><geoidheight>54.00</geoidheight><course>57.1</course><type>1</type></trkpt>
      <trkpt lat="40.58156601" lon="-4.86827012"><ele>1965</ele><speed>11.70</speed><time>2016-07-01T16:22:49Z</time><pdop>11.0</pdop><geoidheight>54.00</geoidheight><course>44.2</course><type>1</type></trkpt>
      <trkpt lat="40.58178097" lon="-4.86815289"><ele>1970</ele><speed>11.06</speed><time>2016-07-01T16:22:51Z</time><pdop>10.0</pdop><geoidheight>54.00</geoidheight><course>27.6</course><type>1</type></trkpt>
      <trkpt lat="40.58202239" lon="-4.86815848"><ele>1974</ele><speed>7.63</speed><time>2016-07-01T16:22:54Z</time><pdop>10.0</pdop><geoidheight>54.00</geoidheight><course>0.3</course><type>1</type></trkpt>
      <trkpt lat="40.58211622" lon="-4.86841651"><ele>1980</ele><speed>3.88</speed><time>2016-07-01T16:22:59Z</time><pdop>11.0</pdop><geoidheight>54.00</geoidheight><course>281.9</course><type>1</type></trkpt>
      <trkpt lat="40.58185977" lon="-4.86837082"><ele>1984</ele><speed>4.72</speed><time>2016-07-01T16:23:03Z</time><pdop>13.0</pdop><geoidheight>54.00</geoidheight><course>159.5</course><type>1</type></trkpt>
      <trkpt lat="40.58152504" lon="-4.8679803"><ele>1986</ele><speed>11.09</speed><time>2016-07-01T16:23:06Z</time><pdop>18.0</pdop><geoidheight>54.00</geoidheight><course>128.8</course><type>1</type></trkpt>
      <trkpt lat="40.58139149" lon="-4.86737225"><ele>1987</ele><speed>16.41</speed><time>2016-07-01T16:23:08Z</time><pdop>15.0</pdop><geoidheight>54.00</geoidheight><course>111.0</course><type>1</type></trkpt>
      <trkpt lat="40.58150908" lon="-4.86703668"><ele>1994</ele><speed>13.39</speed><time>2016-07-01T16:23:10Z</time><pdop>14.0</pdop><geoidheight>54.00</geoidheight><course>96.3</course><type>1</type></trkpt>
      <trkpt lat="40.58178239" lon="-4.86694879"><ele>2001</ele><speed>8.85</speed><time>2016-07-01T16:23:12Z</time><pdop>15.0</pdop><geoidheight>54.00</geoidheight><course>50.6</course><type>1</type></trkpt>
      <trkpt lat="40.58216086" lon="-4.86693115"><ele>2006</ele><speed>8.59</speed><time>2016-07-01T16:23:15Z</time><pdop>12.0</pdop><geoidheight>54.00</geoidheight><course>11.0</course><type>1</type></trkpt>
      <trkpt lat="40.58235156" lon="-4.86716377"><ele>2010</ele><speed>7.40</speed><time>2016-07-01T16:23:18Z</time><pdop>12.0</pdop><geoidheight>54.00</geoidheight><course>337.5</course><type>1</type></trkpt>
      <trkpt lat="40.58220015" lon="-4.86740357"><ele>2010</ele><speed>6.15</speed><time>2016-07-01T16:23:20Z</time><pdop>8.0</pdop><geoidheight>54.00</geoidheight><course>256.9</course><type>1</type></trkpt>
      <trkpt lat="40.58204634" lon="-4.86741705"><ele>2016</ele><speed>5.30</speed><time>2016-07-01T16:23:22Z</time><pdop>6.0</pdop><geoidheight>54.00</geoidheight><course>186.9</course><type>1</type></trkpt>
      <trkpt lat="40.58193456" lon="-4.86740205"><ele>2017</ele><speed>8.30</speed><time>2016-07-01T16:23:23Z</time><pdop>4.0</pdop><geoidheight>54.00</geoidheight><course>172.2</course><type>1</type></trkpt>
      <trkpt lat="40.58185597" lon="-4.86737431"><ele>2018</ele><speed>8.86</speed><time>2016-07-01T16:23:24Z</time><pdop>3.0</pdop><geoidheight>54.00</geoidheight><course>167.2</course><type>1</type></trkpt>
      <trkpt lat="40.58176442" lon="-4.86734594"><ele>2019</ele><speed>9.15</speed><time>2016-07-01T16:23:25Z</time><pdop>3.0</pdop><geoidheight>54.00</geoidheight><course>161.8</course><type>1</type></trkpt>
      <trkpt lat="40.58168686" lon="-4.86730515"><ele>2019</ele><speed>9.56</speed><time>2016-07-01T16:23:26Z</time><pdop>3.0</pdop><geoidheight>54.00</geoidheight><course>155.7</course><type>1</type></trkpt>
      <trkpt lat="40.58160763" lon="-4.86725116"><ele>2021</ele><speed>9.76</speed><time>2016-07-01T16:23:27Z</time><pdop>3.0</pdop><geoidheight>54.00</geoidheight><course>151.4</course><type>1</type></trkpt>
      <trkpt lat="40.58152375" lon="-4.86716942"><ele>2023</ele><speed>10.98</speed><time>2016-07-01T16:23:28Z</time><pdop>3.0</pdop><geoidheight>54.00</geoidheight><course>143.6</course><type>1</type></trkpt>
      <trkpt lat="40.58145138" lon="-4.86709457"><ele>2025</ele><speed>11.15</speed><time>2016-07-01T16:23:29Z</time><pdop>4.0</pdop><geoidheight>54.00</geoidheight><course>141.0</course><type>1</type></trkpt>
      <trkpt lat="40.58137036" lon="-4.86699486"><ele>2026</ele><speed>12.20</speed><time>2016-07-01T16:23:30Z</time><pdop>4.0</pdop><geoidheight>54.00</geoidheight><course>138.4</course><type>1</type></trkpt>
      <trkpt lat="40.58128284" lon="-4.86688333"><ele>2029</ele><speed>12.95</speed><time>2016-07-01T16:23:31Z</time><pdop>3.0</pdop><geoidheight>54.00</geoidheight><course>136.1</course><type>1</type></trkpt>
      <trkpt lat="40.58119702" lon="-4.86678848"><ele>2031</ele><speed>12.80</speed><time>2016-07-01T16:23:32Z</time><pdop>4.0</pdop><geoidheight>54.00</geoidheight><course>138.5</course><type>1</type></trkpt>
      <trkpt lat="40.58112223" lon="-4.86672598"><ele>2033</ele><speed>11.27</speed><time>2016-07-01T16:23:33Z</time><pdop>4.0</pdop><geoidheight>54.00</geoidheight><course>142.8</course><type>1</type></trkpt>
      <trkpt lat="40.58102726" lon="-4.86673734"><ele>2033</ele><speed>5.81</speed><time>2016-07-01T16:23:35Z</time><pdop>4.0</pdop><geoidheight>54.00</geoidheight><course>181.2</course><type>1</type></trkpt>
      <trkpt lat="40.58095633" lon="-4.86680027"><ele>2033</ele><speed>4.95</speed><time>2016-07-01T16:23:37Z</time><pdop>4.0</pdop><geoidheight>54.00</geoidheight><course>217.4</course><type>1</type></trkpt>
      <trkpt lat="40.58103383" lon="-4.86695999"><ele>2037</ele><speed>5.83</speed><time>2016-07-01T16:23:40Z</time><pdop>6.0</pdop><geoidheight>54.00</geoidheight><course>306.7</course><type>1</type></trkpt>
      <trkpt lat="40.58124169" lon="-4.86696158"><ele>2042</ele><speed>10.72</speed><time>2016-07-01T16:23:42Z</time><pdop>5.0</pdop><geoidheight>54.00</geoidheight><course>0.4</course><type>1</type></trkpt>
      <trkpt lat="40.58133324" lon="-4.86695228"><ele>2043</ele><speed>10.98</speed><time>2016-07-01T16:23:43Z</time><pdop>4.0</pdop><geoidheight>54.00</geoidheight><course>13.8</course><type>1</type></trkpt>
      <trkpt lat="40.58142285" lon="-4.86693027"><ele>2046</ele><speed>10.26</speed><time>2016-07-01T16:23:44Z</time><pdop>4.0</pdop><geoidheight>54.00</geoidheight><course>18.1</course><type>1</type></trkpt>
      <trkpt lat="40.58150949" lon="-4.86684615"><ele>2047</ele><speed>10.67</speed><time>2016-07-01T16:23:45Z</time><pdop>5.0</pdop><geoidheight>54.00</geoidheight><course>24.8</course><type>1</type></trkpt>
      <trkpt lat="40.58154304" lon="-4.86664244"><ele>2046</ele><speed>12.68</speed><time>2016-07-01T16:23:46Z</time><pdop>6.0</pdop><geoidheight>54.00</geoidheight><course>52.8</course><type>1</type></trkpt>
      <trkpt lat="40.58156282" lon="-4.866448"><ele>2046</ele><speed>13.33</speed><time>2016-07-01T16:23:47Z</time><pdop>5.0</pdop><geoidheight>54.00</geoidheight><course>69.6</course><type>1</type></trkpt>
      <trkpt lat="40.58148824" lon="-4.86624815"><ele>2048</ele><speed>14.26</speed><time>2016-07-01T16:23:48Z</time><pdop>4.0</pdop><geoidheight>54.00</geoidheight><course>101.1</course><type>1</type></trkpt>
      <trkpt lat="40.58144235" lon="-4.86611874"><ele>2049</ele><speed>13.41</speed><time>2016-07-01T16:23:49Z</time><pdop>3.0</pdop><geoidheight>54.00</geoidheight><course>114.5</course><type>1</type></trkpt>
      <trkpt lat="40.58137396" lon="-4.86599206"><ele>2050</ele><speed>13.19</speed><time>2016-07-01T16:23:50Z</time><pdop>3.0</pdop><geoidheight>54.00</geoidheight><course>125.6</course><type>1</type></trkpt>
      <trkpt lat="40.58131199" lon="-4.86587257"><ele>2050</ele><speed>12.61</speed><time>2016-07-01T16:23:51Z</time><pdop>4.0</pdop><geoidheight>54.00</geoidheight><course>127.4</course><type>1</type></trkpt>
      <trkpt lat="40.58120174" lon="-4.86581283"><ele>2050</ele><speed>12.05</speed><time>2016-07-01T16:23:52Z</time><pdop>4.0</pdop><geoidheight>54.00</geoidheight><course>146.9</course><type>1</type></trkpt>
      <trkpt lat="40.58112444" lon="-4.86581883"><ele>2050</ele><speed>9.94</speed><time>2016-07-01T16:23:53Z</time><pdop>4.0</pdop><geoidheight>54.00</geoidheight><course>157.4</course><type>1</type></trkpt>
      <trkpt lat="40.5809923" lon="-4.8657637"><ele>2050</ele><speed>8.67</speed><time>2016-07-01T16:23:55Z</time><pdop>7.0</pdop><geoidheight>54.00</geoidheight><course>160.1</course><type>1</type></trkpt>
      <trkpt lat="40.58094044" lon="-4.86590144"><ele>2053</ele><speed>4.91</speed><time>2016-07-01T16:23:57Z</time><pdop>5.0</pdop><geoidheight>54.00</geoidheight><course>210.3</course><type>1</type></trkpt>
      <trkpt lat="40.5809341" lon="-4.86603564"><ele>2054</ele><speed>4.45</speed><time>2016-07-01T16:24:00Z</time><pdop>6.0</pdop><geoidheight>54.00</geoidheight><course>281.5</course><type>1</type></trkpt>
      <trkpt lat="40.58111972" lon="-4.86610157"><ele>2053</ele><speed>10.06</speed><time>2016-07-01T16:24:02Z</time><pdop>5.0</pdop><geoidheight>54.00</geoidheight><course>344.5</course><type>1</type></trkpt>
      <trkpt lat="40.58121988" lon="-4.86613097"><ele>2054</ele><speed>10.77</speed><time>2016-07-01T16:24:03Z</time><pdop>5.0</pdop><geoidheight>54.00</geoidheight><course>349.5</course><type>1</type></trkpt>
      <trkpt lat="40.58139313" lon="-4.86600568"><ele>2058</ele><speed>10.66</speed><time>2016-07-01T16:24:05Z</time><pdop>5.0</pdop><geoidheight>54.00</geoidheight><course>28.1</course><type>1</type></trkpt>
      <trkpt lat="40.58147943" lon="-4.865921"><ele>2059</ele><speed>11.18</speed><time>2016-07-01T16:24:06Z</time><pdop>6.0</pdop><geoidheight>54.00</geoidheight><course>33.7</course><type>1</type></trkpt>
      <trkpt lat="40.58160754" lon="-4.86571053"><ele>2062</ele><speed>11.97</speed><time>2016-07-01T16:24:08Z</time><pdop>6.0</pdop><geoidheight>54.00</geoidheight><course>47.7</course><type>1</type></trkpt>
      <trkpt lat="40.58170921" lon="-4.86561053"><ele>2061</ele><speed>12.39</speed><time>2016-07-01T16:24:09Z</time><pdop>5.0</pdop><geoidheight>54.00</geoidheight><course>46.4</course><type>1</type></trkpt>
      <trkpt lat="40.58177476" lon="-4.86547047"><ele>2061</ele><speed>14.16</speed><time>2016-07-01T16:24:10Z</time><pdop>6.0</pdop><geoidheight>54.00</geoidheight><course>53.5</course><type>1</type></trkpt>
      <trkpt lat="40.58185593" lon="-4.86527757"><ele>2062</ele><speed>16.15</speed><time>2016-07-01T16:24:11Z</time><pdop>7.0</pdop><geoidheight>54.00</geoidheight><course>58.1</course><type>1</type></trkpt>
      <trkpt lat="40.58181348" lon="-4.86506794"><ele>2061</ele><speed>15.60</speed><time>2016-07-01T16:24:12Z</time><pdop>6.0</pdop><geoidheight>54.00</geoidheight><course>78.8</course><type>1</type></trkpt>
      <trkpt lat="40.58175598" lon="-4.86487848"><ele>2061</ele><speed>15.22</speed><time>2016-07-01T16:24:13Z</time><pdop>6.0</pdop><geoidheight>54.00</geoidheight><course>91.4</course><type>1</type></trkpt>
      <trkpt lat="40.58168068" lon="-4.8647268"><ele>2061</ele><speed>14.68</speed><time>2016-07-01T16:24:14Z</time><pdop>7.0</pdop><geoidheight>54.00</geoidheight><course>104.5</course><type>1</type></trkpt>
      <trkpt lat="40.58151258" lon="-4.86449444"><ele>2061</ele><speed>13.25</speed><time>2016-07-01T16:24:16Z</time><pdop>9.0</pdop><geoidheight>54.00</geoidheight><course>125.0</course><type>1</type></trkpt>
      <trkpt lat="40.58135428" lon="-4.86439408"><ele>2061</ele><speed>11.25</speed><time>2016-07-01T16:24:18Z</time><pdop>9.0</pdop><geoidheight>54.00</geoidheight><course>139.3</course><type>1</type></trkpt>
      <trkpt lat="40.58116374" lon="-4.86455003"><ele>2065</ele><speed>7.88</speed><time>2016-07-01T16:24:21Z</time><pdop>9.0</pdop><geoidheight>54.00</geoidheight><course>189.3</course><type>1</type></trkpt>
      <trkpt lat="40.5810711" lon="-4.86467897"><ele>2065</ele><speed>5.73</speed><time>2016-07-01T16:24:24Z</time><pdop>6.0</pdop><geoidheight>54.00</geoidheight><course>237.0</course><type>1</type></trkpt>
      <trkpt lat="40.58109226" lon="-4.86481851"><ele>2067</ele><speed>7.05</speed><time>2016-07-01T16:24:26Z</time><pdop>5.0</pdop><geoidheight>54.00</geoidheight><course>303.8</course><type>1</type></trkpt>
      <trkpt lat="40.58119132" lon="-4.86493335"><ele>2071</ele><speed>7.11</speed><time>2016-07-01T16:24:28Z</time><pdop>6.0</pdop><geoidheight>54.00</geoidheight><course>331.0</course><type>1</type></trkpt>
      <trkpt lat="40.58131804" lon="-4.86494436"><ele>2072</ele><speed>6.60</speed><time>2016-07-01T16:24:30Z</time><pdop>8.0</pdop><geoidheight>54.00</geoidheight><course>346.5</course><type>1</type></trkpt>
      <trkpt lat="40.58148363" lon="-4.86466049"><ele>2071</ele><speed>10.20</speed><time>2016-07-01T16:24:32Z</time><pdop>10.0</pdop><geoidheight>54.00</geoidheight><course>40.5</course><type>1</type></trkpt>
      <trkpt lat="40.58146006" lon="-4.86438695"><ele>2072</ele><speed>8.23</speed><time>2016-07-01T16:24:34Z</time><pdop>11.0</pdop><geoidheight>54.00</geoidheight><course>82.1</course><type>1</type></trkpt>
      <trkpt lat="40.58135457" lon="-4.86395942"><ele>2073</ele><speed>12.38</speed><time>2016-07-01T16:24:36Z</time><pdop>11.0</pdop><geoidheight>54.00</geoidheight><course>101.4</course><type>1</type></trkpt>
      <trkpt lat="40.58118656" lon="-4.86377348"><ele>2073</ele><speed>11.16</speed><time>2016-07-01T16:24:38Z</time><pdop>10.0</pdop><geoidheight>54.00</geoidheight><course>122.3</course><type>1</type></trkpt>
      <trkpt lat="40.58114619" lon="-4.86400405"><ele>2075</ele><speed>5.79</speed><time>2016-07-01T16:24:42Z</time><pdop>9.0</pdop><geoidheight>54.00</geoidheight><course>319.7</course><type>1</type></trkpt>
      <trkpt lat="40.58130055" lon="-4.86408297"><ele>2083</ele><speed>9.80</speed><time>2016-07-01T16:24:44Z</time><pdop>7.0</pdop><geoidheight>54.00</geoidheight><course>359.3</course><type>1</type></trkpt>
      <trkpt lat="40.58144683" lon="-4.863982"><ele>2090</ele><speed>11.93</speed><time>2016-07-01T16:24:46Z</time><pdop>6.0</pdop><geoidheight>54.00</geoidheight><course>39.7</course><type>1</type></trkpt>
      <trkpt lat="40.58150419" lon="-4.86386248"><ele>2092</ele><speed>13.51</speed><time>2016-07-01T16:24:47Z</time><pdop>5.0</pdop><geoidheight>54.00</geoidheight><course>58.8</course><type>1</type></trkpt>
      <trkpt lat="40.58155744" lon="-4.8637318"><ele>2093</ele><speed>13.94</speed><time>2016-07-01T16:24:48Z</time><pdop>6.0</pdop><geoidheight>54.00</geoidheight><course>60.4</course><type>1</type></trkpt>
      <trkpt lat="40.5815115" lon="-4.86344378"><ele>2094</ele><speed>12.86</speed><time>2016-07-01T16:24:50Z</time><pdop>8.0</pdop><geoidheight>54.00</geoidheight><course>91.2</course><type>1</type></trkpt>
      <trkpt lat="40.58140479" lon="-4.86330332"><ele>2095</ele><speed>13.13</speed><time>2016-07-01T16:24:51Z</time><pdop>8.0</pdop><geoidheight>54.00</geoidheight><course>112.3</course><type>1</type></trkpt>
      <trkpt lat="40.58124596" lon="-4.86302649"><ele>2096</ele><speed>13.45</speed><time>2016-07-01T16:24:53Z</time><pdop>9.0</pdop><geoidheight>54.00</geoidheight><course>125.3</course><type>1</type></trkpt>
      <trkpt lat="40.58107187" lon="-4.86305854"><ele>2098</ele><speed>9.05</speed><time>2016-07-01T16:24:55Z</time><pdop>6.0</pdop><geoidheight>54.00</geoidheight><course>166.6</course><type>1</type></trkpt>
      <trkpt lat="40.58095614" lon="-4.86310981"><ele>2101</ele><speed>6.65</speed><time>2016-07-01T16:24:57Z</time><pdop>6.0</pdop><geoidheight>54.00</geoidheight><course>210.4</course><type>1</type></trkpt>
      <trkpt lat="40.58092731" lon="-4.86324189"><ele>2099</ele><speed>5.99</speed><time>2016-07-01T16:24:59Z</time><pdop>5.0</pdop><geoidheight>54.00</geoidheight><course>268.8</course><type>1</type></trkpt>
      <trkpt lat="40.58095864" lon="-4.86340393"><ele>2099</ele><speed>7.61</speed><time>2016-07-01T16:25:01Z</time><pdop>5.0</pdop><geoidheight>54.00</geoidheight><course>281.7</course><type>1</type></trkpt>
      <trkpt lat="40.58093677" lon="-4.8636061"><ele>2101</ele><speed>8.34</speed><time>2016-07-01T16:25:03Z</time><pdop>5.0</pdop><geoidheight>54.00</geoidheight><course>264.4</course><type>1</type></trkpt>
      <trkpt lat="40.5808801" lon="-4.86382134"><ele>2109</ele><speed>8.17</speed><time>2016-07-01T16:25:05Z</time><pdop>5.0</pdop><geoidheight>54.00</geoidheight><course>246.9</course><type>1</type></trkpt>
      <trkpt lat="40.58082928" lon="-4.86393528"><ele>2116</ele><speed>5.38</speed><time>2016-07-01T16:25:07Z</time><pdop>5.0</pdop><geoidheight>54.00</geoidheight><course>240.1</course><type>1</type></trkpt>
      <trkpt lat="40.58078338" lon="-4.86405128"><ele>2116</ele><speed>5.44</speed><time>2016-07-01T16:25:09Z</time><pdop>5.0</pdop><geoidheight>54.00</geoidheight><course>241.4</course><type>1</type></trkpt>
      <trkpt lat="40.58071519" lon="-4.86422238"><ele>2115</ele><speed>7.57</speed><time>2016-07-01T16:25:11Z</time><pdop>5.0</pdop><geoidheight>54.00</geoidheight><course>241.3</course><type>1</type></trkpt>
      <trkpt lat="40.58061894" lon="-4.86442089"><ele>2112</ele><speed>10.46</speed><time>2016-07-01T16:25:13Z</time><pdop>4.0</pdop><geoidheight>54.00</geoidheight><course>240.3</course><type>1</type></trkpt>
      <trkpt lat="40.5805701" lon="-4.86452971"><ele>2112</ele><speed>10.36</speed><time>2016-07-01T16:25:14Z</time><pdop>4.0</pdop><geoidheight>54.00</geoidheight><course>236.8</course><type>1</type></trkpt>
      <trkpt lat="40.58053159" lon="-4.86461553"><ele>2110</ele><speed>9.32</speed><time>2016-07-01T16:25:15Z</time><pdop>4.0</pdop><geoidheight>54.00</geoidheight><course>238.0</course><type>1</type></trkpt>
      <trkpt lat="40.58048404" lon="-4.86471693"><ele>2108</ele><speed>8.57</speed><time>2016-07-01T16:25:16Z</time><pdop>4.0</pdop><geoidheight>54.00</geoidheight><course>243.2</course><type>1</type></trkpt>
      <trkpt lat="40.58041205" lon="-4.86493053"><ele>2108</ele><speed>9.97</speed><time>2016-07-01T16:25:18Z</time><pdop>6.0</pdop><geoidheight>54.00</geoidheight><course>245.7</course><type>1</type></trkpt>
      <trkpt lat="40.58037772" lon="-4.86506784"><ele>2107</ele><speed>11.37</speed><time>2016-07-01T16:25:19Z</time><pdop>5.0</pdop><geoidheight>54.00</geoidheight><course>250.1</course><type>1</type></trkpt>
      <trkpt lat="40.58034976" lon="-4.8651979"><ele>2106</ele><speed>12.11</speed><time>2016-07-01T16:25:20Z</time><pdop>5.0</pdop><geoidheight>54.00</geoidheight><course>254.1</course><type>1</type></trkpt>
      <trkpt lat="40.58032427" lon="-4.8653444"><ele>2103</ele><speed>12.05</speed><time>2016-07-01T16:25:21Z</time><pdop>5.0</pdop><geoidheight>54.00</geoidheight><course>257.3</course><type>1</type></trkpt>
      <trkpt lat="40.58034058" lon="-4.86547706"><ele>2103</ele><speed>11.17</speed><time>2016-07-01T16:25:22Z</time><pdop>5.0</pdop><geoidheight>54.00</geoidheight><course>266.3</course><type>1</type></trkpt>
      <trkpt lat="40.58034915" lon="-4.86560151"><ele>2102</ele><speed>10.22</speed><time>2016-07-01T16:25:23Z</time><pdop>4.0</pdop><geoidheight>54.00</geoidheight><course>270.0</course><type>1</type></trkpt>
      <trkpt lat="40.58034939" lon="-4.86577963"><ele>2105</ele><speed>6.99</speed><time>2016-07-01T16:25:25Z</time><pdop>4.0</pdop><geoidheight>54.00</geoidheight><course>267.1</course><type>1</type></trkpt>
      <trkpt lat="40.5803216" lon="-4.86588448"><ele>2106</ele><speed>4.94</speed><time>2016-07-01T16:25:27Z</time><pdop>4.0</pdop><geoidheight>54.00</geoidheight><course>249.6</course><type>1</type></trkpt>
      <trkpt lat="40.58027839" lon="-4.86598873"><ele>2105</ele><speed>4.78</speed><time>2016-07-01T16:25:29Z</time><pdop>3.0</pdop><geoidheight>54.00</geoidheight><course>229.6</course><type>1</type></trkpt>
      <trkpt lat="40.58022933" lon="-4.86609155"><ele>2103</ele><speed>5.48</speed><time>2016-07-01T16:25:31Z</time><pdop>4.0</pdop><geoidheight>54.00</geoidheight><course>238.6</course><type>1</type></trkpt>
      <trkpt lat="40.58020342" lon="-4.8661901"><ele>2102</ele><speed>7.44</speed><time>2016-07-01T16:25:32Z</time><pdop>4.0</pdop><geoidheight>54.00</geoidheight><course>244.7</course><type>1</type></trkpt>
      <trkpt lat="40.58018858" lon="-4.86636358"><ele>2100</ele><speed>8.35</speed><time>2016-07-01T16:25:34Z</time><pdop>3.0</pdop><geoidheight>54.00</geoidheight><course>265.8</course><type>1</type></trkpt>
      <trkpt lat="40.58019648" lon="-4.86646366"><ele>2098</ele><speed>9.17</speed><time>2016-07-01T16:25:35Z</time><pdop>3.0</pdop><geoidheight>54.00</geoidheight><course>273.4</course><type>1</type></trkpt>
      <trkpt lat="40.58019459" lon="-4.8665675"><ele>2095</ele><speed>9.26</speed><time>2016-07-01T16:25:36Z</time><pdop>3.0</pdop><geoidheight>54.00</geoidheight><course>269.5</course><type>1</type></trkpt>
      <trkpt lat="40.58018128" lon="-4.86667976"><ele>2094</ele><speed>9.12</speed><time>2016-07-01T16:25:37Z</time><pdop>4.0</pdop><geoidheight>54.00</geoidheight><course>258.4</course><type>1</type></trkpt>
      <trkpt lat="40.5801649" lon="-4.86677723"><ele>2092</ele><speed>8.89</speed><time>2016-07-01T16:25:38Z</time><pdop>4.0</pdop><geoidheight>54.00</geoidheight><course>255.0</course><type>1</type></trkpt>
      <trkpt lat="40.58013976" lon="-4.86695078"><ele>2092</ele><speed>8.29</speed><time>2016-07-01T16:25:40Z</time><pdop>4.0</pdop><geoidheight>54.00</geoidheight><course>268.1</course><type>1</type></trkpt>
      <trkpt lat="40.58014455" lon="-4.86705773"><ele>2092</ele><speed>8.67</speed><time>2016-07-01T16:25:41Z</time><pdop>4.0</pdop><geoidheight>54.00</geoidheight><course>275.6</course><type>1</type></trkpt>
      <trkpt lat="40.58016344" lon="-4.8671637"><ele>2091</ele><speed>8.83</speed><time>2016-07-01T16:25:42Z</time><pdop>4.0</pdop><geoidheight>54.00</geoidheight><course>278.5</course><type>1</type></trkpt>
      <trkpt lat="40.58017073" lon="-4.86726837"><ele>2092</ele><speed>8.79</speed><time>2016-07-01T16:25:43Z</time><pdop>4.0</pdop><geoidheight>54.00</geoidheight><course>277.8</course><type>1</type></trkpt>
      <trkpt lat="40.58019464" lon="-4.86736314"><ele>2090</ele><speed>8.60</speed><time>2016-07-01T16:25:44Z</time><pdop>4.0</pdop><geoidheight>54.00</geoidheight><course>279.4</course><type>1</type></trkpt>
      <trkpt lat="40.58019186" lon="-4.86754666"><ele>2090</ele><speed>7.71</speed><time>2016-07-01T16:25:46Z</time><pdop>4.0</pdop><geoidheight>54.00</geoidheight><course>269.7</course><type>1</type></trkpt>
      <trkpt lat="40.58018189" lon="-4.86765126"><ele>2090</ele><speed>8.10</speed><time>2016-07-01T16:25:47Z</time><pdop>4.0</pdop><geoidheight>54.00</geoidheight><course>266.7</course><type>1</type></trkpt>
      <trkpt lat="40.58017239" lon="-4.86775879"><ele>2089</ele><speed>8.43</speed><time>2016-07-01T16:25:48Z</time><pdop>4.0</pdop><geoidheight>54.00</geoidheight><course>266.5</course><type>1</type></trkpt>
      <trkpt lat="40.58016916" lon="-4.86787775"><ele>2089</ele><speed>9.17</speed><time>2016-07-01T16:25:49Z</time><pdop>4.0</pdop><geoidheight>54.00</geoidheight><course>266.7</course><type>1</type></trkpt>
      <trkpt lat="40.58016472" lon="-4.8680026"><ele>2087</ele><speed>9.87</speed><time>2016-07-01T16:25:50Z</time><pdop>4.0</pdop><geoidheight>54.00</geoidheight><course>268.8</course><type>1</type></trkpt>
      <trkpt lat="40.58017385" lon="-4.86812734"><ele>2084</ele><speed>10.14</speed><time>2016-07-01T16:25:51Z</time><pdop>5.0</pdop><geoidheight>54.00</geoidheight><course>271.7</course><type>1</type></trkpt>
      <trkpt lat="40.58020406" lon="-4.86834978"><ele>2082</ele><speed>9.83</speed><time>2016-07-01T16:25:53Z</time><pdop>5.0</pdop><geoidheight>54.00</geoidheight><course>278.4</course><type>1</type></trkpt>
      <trkpt lat="40.58024" lon="-4.86855612"><ele>2079</ele><speed>9.76</speed><time>2016-07-01T16:25:55Z</time><pdop>6.0</pdop><geoidheight>54.00</geoidheight><course>280.5</course><type>1</type></trkpt>
      <trkpt lat="40.58024921" lon="-4.86878989"><ele>2078</ele><speed>9.59</speed><time>2016-07-01T16:25:57Z</time><pdop>4.0</pdop><geoidheight>54.00</geoidheight><course>281.3</course><type>1</type></trkpt>
      <trkpt lat="40.58027692" lon="-4.86889577"><ele>2076</ele><speed>9.19</speed><time>2016-07-01T16:25:58Z</time><pdop>4.0</pdop><geoidheight>54.00</geoidheight><course>282.0</course><type>1</type></trkpt>
      <trkpt lat="40.58029039" lon="-4.8690049"><ele>2075</ele><speed>9.45</speed><time>2016-07-01T16:25:59Z</time><pdop>5.0</pdop><geoidheight>54.00</geoidheight><course>278.7</course><type>1</type></trkpt>
      <trkpt lat="40.58032787" lon="-4.8692131"><ele>2071</ele><speed>9.77</speed><time>2016-07-01T16:26:01Z</time><pdop>4.0</pdop><geoidheight>54.00</geoidheight><course>278.2</course><type>1</type></trkpt>
      <trkpt lat="40.58033783" lon="-4.86932533"><ele>2070</ele><speed>9.84</speed><time>2016-07-01T16:26:02Z</time><pdop>4.0</pdop><geoidheight>54.00</geoidheight><course>278.3</course><type>1</type></trkpt>
      <trkpt lat="40.58035181" lon="-4.86943149"><ele>2069</ele><speed>9.50</speed><time>2016-07-01T16:26:03Z</time><pdop>4.0</pdop><geoidheight>54.00</geoidheight><course>279.2</course><type>1</type></trkpt>
      <trkpt lat="40.58043581" lon="-4.86957595"><ele>2066</ele><speed>7.08</speed><time>2016-07-01T16:26:05Z</time><pdop>5.0</pdop><geoidheight>54.00</geoidheight><course>299.9</course><type>1</type></trkpt>
      <trkpt lat="40.58048377" lon="-4.86972447"><ele>2065</ele><speed>7.44</speed><time>2016-07-01T16:26:07Z</time><pdop>5.0</pdop><geoidheight>54.00</geoidheight><course>292.2</course><type>1</type></trkpt>
      <trkpt lat="40.58048623" lon="-4.86984956"><ele>2066</ele><speed>9.00</speed><time>2016-07-01T16:26:08Z</time><pdop>5.0</pdop><geoidheight>54.00</geoidheight><course>281.8</course><type>1</type></trkpt>
      <trkpt lat="40.5804934" lon="-4.8699757"><ele>2064</ele><speed>10.00</speed><time>2016-07-01T16:26:09Z</time><pdop>5.0</pdop><geoidheight>54.00</geoidheight><course>273.7</course><type>1</type></trkpt>
      <trkpt lat="40.58049392" lon="-4.87009754"><ele>2064</ele><speed>10.41</speed><time>2016-07-01T16:26:10Z</time><pdop>4.0</pdop><geoidheight>54.00</geoidheight><course>273.7</course><type>1</type></trkpt>
      <trkpt lat="40.58054253" lon="-4.87027654"><ele>2060</ele><speed>8.18</speed><time>2016-07-01T16:26:12Z</time><pdop>4.0</pdop><geoidheight>54.00</geoidheight><course>284.2</course><type>1</type></trkpt>
      <trkpt lat="40.58056062" lon="-4.87041486"><ele>2056</ele><speed>6.53</speed><time>2016-07-01T16:26:14Z</time><pdop>4.0</pdop><geoidheight>54.00</geoidheight><course>286.4</course><type>1</type></trkpt>
      <trkpt lat="40.58058977" lon="-4.87060648"><ele>2051</ele><speed>9.12</speed><time>2016-07-01T16:26:16Z</time><pdop>4.0</pdop><geoidheight>54.00</geoidheight><course>280.0</course><type>1</type></trkpt>
      <trkpt lat="40.58059562" lon="-4.87074554"><ele>2050</ele><speed>10.99</speed><time>2016-07-01T16:26:17Z</time><pdop>5.0</pdop><geoidheight>54.00</geoidheight><course>274.9</course><type>1</type></trkpt>
      <trkpt lat="40.58063" lon="-4.87088065"><ele>2042</ele><speed>12.72</speed><time>2016-07-01T16:26:18Z</time><pdop>4.0</pdop><geoidheight>54.00</geoidheight><course>281.4</course><type>1</type></trkpt>
      <trkpt lat="40.5806575" lon="-4.87101983"><ele>2040</ele><speed>11.98</speed><time>2016-07-01T16:26:19Z</time><pdop>4.0</pdop><geoidheight>54.00</geoidheight><course>285.3</course><type>1</type></trkpt>
      <trkpt lat="40.58070933" lon="-4.87112715"><ele>2037</ele><speed>10.94</speed><time>2016-07-01T16:26:20Z</time><pdop>5.0</pdop><geoidheight>54.00</geoidheight><course>290.9</course><type>1</type></trkpt>
      <trkpt lat="40.58074764" lon="-4.87123064"><ele>2038</ele><speed>9.80</speed><time>2016-07-01T16:26:21Z</time><pdop>4.0</pdop><geoidheight>54.00</geoidheight><course>296.3</course><type>1</type></trkpt>
      <trkpt lat="40.58078162" lon="-4.87134268"><ele>2036</ele><speed>5.31</speed><time>2016-07-01T16:26:23Z</time><pdop>6.0</pdop><geoidheight>54.00</geoidheight><course>284.4</course><type>1</type></trkpt>
      <trkpt lat="40.58088617" lon="-4.87127829"><ele>2033</ele><speed>3.27</speed><time>2016-07-01T16:26:26Z</time><pdop>4.0</pdop><geoidheight>54.00</geoidheight><course>328.4</course><type>1</type></trkpt>
      <trkpt lat="40.58100381" lon="-4.8714605"><ele>2026</ele><speed>8.15</speed><time>2016-07-01T16:26:29Z</time><pdop>6.0</pdop><geoidheight>54.00</geoidheight><course>303.0</course><type>1</type></trkpt>
      <trkpt lat="40.58102726" lon="-4.87161224"><ele>2022</ele><speed>10.63</speed><time>2016-07-01T16:26:30Z</time><pdop>5.0</pdop><geoidheight>54.00</geoidheight><course>291.2</course><type>1</type></trkpt>
      <trkpt lat="40.58107032" lon="-4.87174195"><ele>2020</ele><speed>10.59</speed><time>2016-07-01T16:26:31Z</time><pdop>5.0</pdop><geoidheight>54.00</geoidheight><course>290.2</course><type>1</type></trkpt>
      <trkpt lat="40.58111367" lon="-4.87184298"><ele>2019</ele><speed>10.05</speed><time>2016-07-01T16:26:32Z</time><pdop>4.0</pdop><geoidheight>54.00</geoidheight><course>291.0</course><type>1</type></trkpt>
      <trkpt lat="40.58115339" lon="-4.8719404"><ele>2016</ele><speed>9.76</speed><time>2016-07-01T16:26:33Z</time><pdop>5.0</pdop><geoidheight>54.00</geoidheight><course>292.4</course><type>1</type></trkpt>
      <trkpt lat="40.5812402" lon="-4.87212049"><ele>2013</ele><speed>9.03</speed><time>2016-07-01T16:26:35Z</time><pdop>6.0</pdop><geoidheight>54.00</geoidheight><course>296.2</course><type>1</type></trkpt>
      <trkpt lat="40.58131214" lon="-4.87230409"><ele>2009</ele><speed>9.36</speed><time>2016-07-01T16:26:37Z</time><pdop>6.0</pdop><geoidheight>54.00</geoidheight><course>290.1</course><type>1</type></trkpt>
      <trkpt lat="40.58138633" lon="-4.87252031"><ele>1996</ele><speed>10.96</speed><time>2016-07-01T16:26:39Z</time><pdop>5.0</pdop><geoidheight>54.00</geoidheight><course>292.8</course><type>1</type></trkpt>
      <trkpt lat="40.5814133" lon="-4.87264482"><ele>1993</ele><speed>10.56</speed><time>2016-07-01T16:26:40Z</time><pdop>4.0</pdop><geoidheight>54.00</geoidheight><course>291.4</course><type>1</type></trkpt>
      <trkpt lat="40.5814454" lon="-4.87274956"><ele>1990</ele><speed>9.54</speed><time>2016-07-01T16:26:41Z</time><pdop>5.0</pdop><geoidheight>54.00</geoidheight><course>289.2</course><type>1</type></trkpt>
      <trkpt lat="40.5814974" lon="-4.87291252"><ele>1984</ele><speed>8.69</speed><time>2016-07-01T16:26:43Z</time><pdop>5.0</pdop><geoidheight>54.00</geoidheight><course>290.0</course><type>1</type></trkpt>
      <trkpt lat="40.58151407" lon="-4.87311952"><ele>1980</ele><speed>9.37</speed><time>2016-07-01T16:26:45Z</time><pdop>6.0</pdop><geoidheight>54.00</geoidheight><course>281.1</course><type>1</type></trkpt>
      <trkpt lat="40.58160217" lon="-4.87331831"><ele>1974</ele><speed>9.72</speed><time>2016-07-01T16:26:47Z</time><pdop>7.0</pdop><geoidheight>54.00</geoidheight><course>293.3</course><type>1</type></trkpt>
      <trkpt lat="40.58175271" lon="-4.87353363"><ele>1969</ele><speed>11.81</speed><time>2016-07-01T16:26:49Z</time><pdop>7.0</pdop><geoidheight>54.00</geoidheight><course>306.0</course><type>1</type></trkpt>
      <trkpt lat="40.58187198" lon="-4.87373069"><ele>1966</ele><speed>10.26</speed><time>2016-07-01T16:26:51Z</time><pdop>6.0</pdop><geoidheight>54.00</geoidheight><course>301.2</course><type>1</type></trkpt>
      <trkpt lat="40.5819651" lon="-4.87392356"><ele>1959</ele><speed>9.32</speed><time>2016-07-01T16:26:53Z</time><pdop>5.0</pdop><geoidheight>54.00</geoidheight><course>305.3</course><type>1</type></trkpt>
      <trkpt lat="40.5820723" lon="-4.87407669"><ele>1951</ele><speed>8.94</speed><time>2016-07-01T16:26:55Z</time><pdop>7.0</pdop><geoidheight>54.00</geoidheight><course>306.8</course><type>1</type></trkpt>
      <trkpt lat="40.58218401" lon="-4.87426556"><ele>1945</ele><speed>10.40</speed><time>2016-07-01T16:26:57Z</time><pdop>8.0</pdop><geoidheight>54.00</geoidheight><course>303.3</course><type>1</type></trkpt>
      <trkpt lat="40.58219922" lon="-4.87452529"><ele>1941</ele><speed>10.03</speed><time>2016-07-01T16:26:59Z</time><pdop>6.0</pdop><geoidheight>54.00</geoidheight><course>278.9</course><type>1</type></trkpt>
      <trkpt lat="40.58224647" lon="-4.87471096"><ele>1932</ele><speed>8.94</speed><time>2016-07-01T16:27:01Z</time><pdop>6.0</pdop><geoidheight>54.00</geoidheight><course>283.9</course><type>1</type></trkpt>
      <trkpt lat="40.58232313" lon="-4.87493944"><ele>1923</ele><speed>11.26</speed><time>2016-07-01T16:27:03Z</time><pdop>5.0</pdop><geoidheight>54.00</geoidheight><course>289.0</course><type>1</type></trkpt>
      <trkpt lat="40.58236356" lon="-4.87505946"><ele>1918</ele><speed>11.90</speed><time>2016-07-01T16:27:04Z</time><pdop>4.0</pdop><geoidheight>54.00</geoidheight><course>292.9</course><type>1</type></trkpt>
      <trkpt lat="40.58240193" lon="-4.87518687"><ele>1913</ele><speed>11.15</speed><time>2016-07-01T16:27:05Z</time><pdop>4.0</pdop><geoidheight>54.00</geoidheight><course>292.9</course><type>1</type></trkpt>
      <trkpt lat="40.58243114" lon="-4.87528225"><ele>1913</ele><speed>8.99</speed><time>2016-07-01T16:27:06Z</time><pdop>4.0</pdop><geoidheight>54.00</geoidheight><course>293.0</course><type>1</type></trkpt>
      <trkpt lat="40.58245899" lon="-4.87537025"><ele>1913</ele><speed>7.97</speed><time>2016-07-01T16:27:07Z</time><pdop>4.0</pdop><geoidheight>54.00</geoidheight><course>290.7</course><type>1</type></trkpt>
      <trkpt lat="40.58249598" lon="-4.87552662"><ele>1904</ele><speed>8.47</speed><time>2016-07-01T16:27:09Z</time><pdop>3.0</pdop><geoidheight>54.00</geoidheight><course>281.4</course><type>1</type></trkpt>
      <trkpt lat="40.5825094" lon="-4.8756254"><ele>1900</ele><speed>9.06</speed><time>2016-07-01T16:27:10Z</time><pdop>3.0</pdop><geoidheight>54.00</geoidheight><course>281.0</course><type>1</type></trkpt>
      <trkpt lat="40.58253524" lon="-4.87571859"><ele>1897</ele><speed>9.62</speed><time>2016-07-01T16:27:11Z</time><pdop>3.0</pdop><geoidheight>54.00</geoidheight><course>284.1</course><type>1</type></trkpt>
      <trkpt lat="40.58256577" lon="-4.87583388"><ele>1893</ele><speed>10.40</speed><time>2016-07-01T16:27:12Z</time><pdop>3.0</pdop><geoidheight>54.00</geoidheight><course>287.5</course><type>1</type></trkpt>
      <trkpt lat="40.58260008" lon="-4.875964"><ele>1892</ele><speed>11.09</speed><time>2016-07-01T16:27:13Z</time><pdop>3.0</pdop><geoidheight>54.00</geoidheight><course>289.7</course><type>1</type></trkpt>
      <trkpt lat="40.58263435" lon="-4.8760901"><ele>1891</ele><speed>11.19</speed><time>2016-07-01T16:27:14Z</time><pdop>3.0</pdop><geoidheight>54.00</geoidheight><course>289.5</course><type>1</type></trkpt>
      <trkpt lat="40.58266755" lon="-4.87620563"><ele>1890</ele><speed>10.90</speed><time>2016-07-01T16:27:15Z</time><pdop>3.0</pdop><geoidheight>54.00</geoidheight><course>289.9</course><type>1</type></trkpt>
      <trkpt lat="40.58270404" lon="-4.8763068"><ele>1889</ele><speed>10.45</speed><time>2016-07-01T16:27:16Z</time><pdop>3.0</pdop><geoidheight>54.00</geoidheight><course>292.7</course><type>1</type></trkpt>
      <trkpt lat="40.5827356" lon="-4.87640535"><ele>1890</ele><speed>9.59</speed><time>2016-07-01T16:27:17Z</time><pdop>3.0</pdop><geoidheight>54.00</geoidheight><course>296.9</course><type>1</type></trkpt>
      <trkpt lat="40.58276801" lon="-4.87647882"><ele>1892</ele><speed>8.08</speed><time>2016-07-01T16:27:18Z</time><pdop>3.0</pdop><geoidheight>54.00</geoidheight><course>299.5</course><type>1</type></trkpt>
      <trkpt lat="40.5827955" lon="-4.87655409"><ele>1893</ele><speed>6.75</speed><time>2016-07-01T16:27:19Z</time><pdop>3.0</pdop><geoidheight>54.00</geoidheight><course>297.8</course><type>1</type></trkpt>
      <trkpt lat="40.58283206" lon="-4.87667808"><ele>1894</ele><speed>6.17</speed><time>2016-07-01T16:27:21Z</time><pdop>3.0</pdop><geoidheight>54.00</geoidheight><course>286.2</course><type>1</type></trkpt>
      <trkpt lat="40.58284215" lon="-4.8768171"><ele>1893</ele><speed>5.82</speed><time>2016-07-01T16:27:23Z</time><pdop>3.0</pdop><geoidheight>54.00</geoidheight><course>277.2</course><type>1</type></trkpt>
      <trkpt lat="40.58284766" lon="-4.87688876"><ele>1893</ele><speed>5.94</speed><time>2016-07-01T16:27:24Z</time><pdop>3.0</pdop><geoidheight>54.00</geoidheight><course>277.4</course><type>1</type></trkpt>
      <trkpt lat="40.58286478" lon="-4.87703585"><ele>1894</ele><speed>6.49</speed><time>2016-07-01T16:27:26Z</time><pdop>3.0</pdop><geoidheight>54.00</geoidheight><course>279.6</course><type>1</type></trkpt>
      <trkpt lat="40.5828726" lon="-4.87712339"><ele>1893</ele><speed>6.80</speed><time>2016-07-01T16:27:27Z</time><pdop>3.0</pdop><geoidheight>54.00</geoidheight><course>278.0</course><type>1</type></trkpt>
      <trkpt lat="40.58287608" lon="-4.87720637"><ele>1893</ele><speed>6.87</speed><time>2016-07-01T16:27:28Z</time><pdop>3.0</pdop><geoidheight>54.00</geoidheight><course>276.9</course><type>1</type></trkpt>
      <trkpt lat="40.58288961" lon="-4.87733401"><ele>1893</ele><speed>5.40</speed><time>2016-07-01T16:27:30Z</time><pdop>3.0</pdop><geoidheight>54.00</geoidheight><course>283.6</course><type>1</type></trkpt>
      <trkpt lat="40.58291698" lon="-4.87743549"><ele>1892</ele><speed>4.49</speed><time>2016-07-01T16:27:32Z</time><pdop>3.0</pdop><geoidheight>54.00</geoidheight><course>290.3</course><type>1</type></trkpt>
      <trkpt lat="40.58293394" lon="-4.87754912"><ele>1889</ele><speed>5.74</speed><time>2016-07-01T16:27:34Z</time><pdop>3.0</pdop><geoidheight>54.00</geoidheight><course>277.3</course><type>1</type></trkpt>
      <trkpt lat="40.58295151" lon="-4.87763294"><ele>1888</ele><speed>6.35</speed><time>2016-07-01T16:27:35Z</time><pdop>3.0</pdop><geoidheight>54.00</geoidheight><course>280.6</course><type>1</type></trkpt>
      <trkpt lat="40.5829486" lon="-4.87782622"><ele>1886</ele><speed>7.85</speed><time>2016-07-01T16:27:37Z</time><pdop>6.0</pdop><geoidheight>54.00</geoidheight><course>274.6</course><type>1</type></trkpt>
      <trkpt lat="40.58299154" lon="-4.87795477"><ele>1887</ele><speed>6.39</speed><time>2016-07-01T16:27:39Z</time><pdop>5.0</pdop><geoidheight>54.00</geoidheight><course>278.3</course><type>1</type></trkpt>
      <trkpt lat="40.58300731" lon="-4.87808542"><ele>1886</ele><speed>4.91</speed><time>2016-07-01T16:27:41Z</time><pdop>4.0</pdop><geoidheight>54.00</geoidheight><course>283.5</course><type>1</type></trkpt>
      <trkpt lat="40.58302971" lon="-4.87819297"><ele>1887</ele><speed>4.55</speed><time>2016-07-01T16:27:43Z</time><pdop>3.0</pdop><geoidheight>54.00</geoidheight><course>284.2</course><type>1</type></trkpt>
      <trkpt lat="40.58304255" lon="-4.87831218"><ele>1886</ele><speed>5.01</speed><time>2016-07-01T16:27:45Z</time><pdop>3.0</pdop><geoidheight>54.00</geoidheight><course>282.2</course><type>1</type></trkpt>
      <trkpt lat="40.5830572" lon="-4.87843395"><ele>1887</ele><speed>5.12</speed><time>2016-07-01T16:27:47Z</time><pdop>3.0</pdop><geoidheight>54.00</geoidheight><course>277.4</course><type>1</type></trkpt>
      <trkpt lat="40.58306897" lon="-4.87855482"><ele>1888</ele><speed>4.97</speed><time>2016-07-01T16:27:49Z</time><pdop>4.0</pdop><geoidheight>54.00</geoidheight><course>275.2</course><type>1</type></trkpt>
      <trkpt lat="40.58301317" lon="-4.87862711"><ele>1891</ele><speed>5.14</speed><time>2016-07-01T16:27:51Z</time><pdop>3.0</pdop><geoidheight>54.00</geoidheight><course>228.3</course><type>1</type></trkpt>
      <trkpt lat="40.58291636" lon="-4.87869281"><ele>1892</ele><speed>6.02</speed><time>2016-07-01T16:27:53Z</time><pdop>3.0</pdop><geoidheight>54.00</geoidheight><course>203.4</course><type>1</type></trkpt>
      <trkpt lat="40.58281816" lon="-4.87874089"><ele>1893</ele><speed>5.36</speed><time>2016-07-01T16:27:55Z</time><pdop>3.0</pdop><geoidheight>54.00</geoidheight><course>205.8</course><type>1</type></trkpt>
      <trkpt lat="40.58287942" lon="-4.87880005"><ele>1896</ele><speed>5.70</speed><time>2016-07-01T16:27:59Z</time><pdop>3.0</pdop><geoidheight>54.00</geoidheight><course>8.0</course><type>1</type></trkpt>
      <trkpt lat="40.58295569" lon="-4.87875355"><ele>1895</ele><speed>8.88</speed><time>2016-07-01T16:28:00Z</time><pdop>3.0</pdop><geoidheight>54.00</geoidheight><course>23.2</course><type>1</type></trkpt>
      <trkpt lat="40.58303132" lon="-4.87866029"><ele>1896</ele><speed>11.58</speed><time>2016-07-01T16:28:01Z</time><pdop>3.0</pdop><geoidheight>54.00</geoidheight><course>41.4</course><type>1</type></trkpt>
      <trkpt lat="40.5831065" lon="-4.87852751"><ele>1896</ele><speed>13.01</speed><time>2016-07-01T16:28:02Z</time><pdop>4.0</pdop><geoidheight>54.00</geoidheight><course>48.9</course><type>1</type></trkpt>
      <trkpt lat="40.58317618" lon="-4.87840958"><ele>1897</ele><speed>13.75</speed><time>2016-07-01T16:28:03Z</time><pdop>5.0</pdop><geoidheight>54.00</geoidheight><course>52.1</course><type>1</type></trkpt>
      <trkpt lat="40.58320887" lon="-4.87823469"><ele>1898</ele><speed>14.27</speed><time>2016-07-01T16:28:04Z</time><pdop>7.0</pdop><geoidheight>54.00</geoidheight><course>62.4</course><type>1</type></trkpt>
      <trkpt lat="40.58309193" lon="-4.87804267"><ele>1898</ele><speed>14.40</speed><time>2016-07-01T16:28:05Z</time><pdop>7.0</pdop><geoidheight>54.00</geoidheight><course>92.6</course><type>1</type></trkpt>
      <trkpt lat="40.58300805" lon="-4.87788217"><ele>1897</ele><speed>14.45</speed><time>2016-07-01T16:28:06Z</time><pdop>9.0</pdop><geoidheight>54.00</geoidheight><course>107.5</course><type>1</type></trkpt>
      <trkpt lat="40.58288163" lon="-4.87770287"><ele>1897</ele><speed>15.88</speed><time>2016-07-01T16:28:07Z</time><pdop>10.0</pdop><geoidheight>54.00</geoidheight><course>120.7</course><type>1</type></trkpt>
      <trkpt lat="40.58274261" lon="-4.87754983"><ele>1897</ele><speed>17.38</speed><time>2016-07-01T16:28:08Z</time><pdop>9.0</pdop><geoidheight>54.00</geoidheight><course>132.0</course><type>1</type></trkpt>
      <trkpt lat="40.58258942" lon="-4.87740399"><ele>1897</ele><speed>18.30</speed><time>2016-07-01T16:28:09Z</time><pdop>7.0</pdop><geoidheight>54.00</geoidheight><course>139.6</course><type>1</type></trkpt>
      <trkpt lat="40.58245314" lon="-4.87727499"><ele>1899</ele><speed>18.16</speed><time>2016-07-01T16:28:10Z</time><pdop>8.0</pdop><geoidheight>54.00</geoidheight><course>142.0</course><type>1</type></trkpt>
      <trkpt lat="40.58219192" lon="-4.87708477"><ele>1899</ele><speed>16.50</speed><time>2016-07-01T16:28:12Z</time><pdop>7.0</pdop><geoidheight>54.00</geoidheight><course>149.1</course><type>1</type></trkpt>
      <trkpt lat="40.58205107" lon="-4.87713473"><ele>1905</ele><speed>9.25</speed><time>2016-07-01T16:28:14Z</time><pdop>4.0</pdop><geoidheight>54.00</geoidheight><course>176.8</course><type>1</type></trkpt>
      <trkpt lat="40.58192895" lon="-4.87716104"><ele>1908</ele><speed>7.45</speed><time>2016-07-01T16:28:16Z</time><pdop>4.0</pdop><geoidheight>54.00</geoidheight><course>193.4</course><type>1</type></trkpt>
      <trkpt lat="40.58187677" lon="-4.87723862"><ele>1911</ele><speed>3.98</speed><time>2016-07-01T16:28:18Z</time><pdop>3.0</pdop><geoidheight>54.00</geoidheight><course>227.6</course><type>1</type></trkpt>
      <trkpt lat="40.58191317" lon="-4.87729392"><ele>1913</ele><speed>3.68</speed><time>2016-07-01T16:28:20Z</time><pdop>3.0</pdop><geoidheight>54.00</geoidheight><course>329.3</course><type>1</type></trkpt>
      <trkpt lat="40.58197112" lon="-4.87729212"><ele>1912</ele><speed>6.17</speed><time>2016-07-01T16:28:21Z</time><pdop>3.0</pdop><geoidheight>54.00</geoidheight><course>358.7</course><type>1</type></trkpt>
      <trkpt lat="40.58203274" lon="-4.87727241"><ele>1912</ele><speed>7.24</speed><time>2016-07-01T16:28:22Z</time><pdop>3.0</pdop><geoidheight>54.00</geoidheight><course>16.6</course><type>1</type></trkpt>
      <trkpt lat="40.58209897" lon="-4.8772348"><ele>1913</ele><speed>7.53</speed><time>2016-07-01T16:28:23Z</time><pdop>4.0</pdop><geoidheight>54.00</geoidheight><course>24.6</course><type>1</type></trkpt>
      <trkpt lat="40.58215956" lon="-4.87713155"><ele>1914</ele><speed>8.88</speed><time>2016-07-01T16:28:24Z</time><pdop>4.0</pdop><geoidheight>54.00</geoidheight><course>44.9</course><type>1</type></trkpt>
      <trkpt lat="40.58222269" lon="-4.87696551"><ele>1914</ele><speed>12.13</speed><time>2016-07-01T16:28:25Z</time><pdop>5.0</pdop><geoidheight>54.00</geoidheight><course>55.6</course><type>1</type></trkpt>
      <trkpt lat="40.5821941" lon="-4.87678242"><ele>1914</ele><speed>12.55</speed><time>2016-07-01T16:28:26Z</time><pdop>5.0</pdop><geoidheight>54.00</geoidheight><course>74.2</course><type>1</type></trkpt>
      <trkpt lat="40.58217371" lon="-4.87660764"><ele>1914</ele><speed>13.00</speed><time>2016-07-01T16:28:27Z</time><pdop>5.0</pdop><geoidheight>54.00</geoidheight><course>86.3</course><type>1</type></trkpt>
      <trkpt lat="40.5821636" lon="-4.87645832"><ele>1914</ele><speed>12.87</speed><time>2016-07-01T16:28:28Z</time><pdop>6.0</pdop><geoidheight>54.00</geoidheight><course>89.0</course><type>1</type></trkpt>
      <trkpt lat="40.58203007" lon="-4.87615721"><ele>1913</ele><speed>13.39</speed><time>2016-07-01T16:28:30Z</time><pdop>7.0</pdop><geoidheight>54.00</geoidheight><course>108.6</course><type>1</type></trkpt>
      <trkpt lat="40.58189532" lon="-4.87600916"><ele>1912</ele><speed>14.49</speed><time>2016-07-01T16:28:31Z</time><pdop>8.0</pdop><geoidheight>54.00</geoidheight><course>125.2</course><type>1</type></trkpt>
      <trkpt lat="40.58176069" lon="-4.87584425"><ele>1913</ele><speed>15.28</speed><time>2016-07-01T16:28:32Z</time><pdop>6.0</pdop><geoidheight>54.00</geoidheight><course>129.0</course><type>1</type></trkpt>
      <trkpt lat="40.58164859" lon="-4.87574707"><ele>1916</ele><speed>14.23</speed><time>2016-07-01T16:28:33Z</time><pdop>6.0</pdop><geoidheight>54.00</geoidheight><course>133.1</course><type>1</type></trkpt>
      <trkpt lat="40.58152757" lon="-4.87574972"><ele>1918</ele><speed>12.59</speed><time>2016-07-01T16:28:34Z</time><pdop>5.0</pdop><geoidheight>54.00</geoidheight><course>152.5</course><type>1</type></trkpt>
      <trkpt lat="40.58147099" lon="-4.87588596"><ele>1921</ele><speed>9.16</speed><time>2016-07-01T16:28:35Z</time><pdop>4.0</pdop><geoidheight>54.00</geoidheight><course>193.4</course><type>1</type></trkpt>
      <trkpt lat="40.58142776" lon="-4.87596936"><ele>1923</ele><speed>3.79</speed><time>2016-07-01T16:28:37Z</time><pdop>4.0</pdop><geoidheight>54.00</geoidheight><course>234.8</course><type>1</type></trkpt>
      <trkpt lat="40.58149003" lon="-4.87605295"><ele>1924</ele><speed>3.30</speed><time>2016-07-01T16:28:40Z</time><pdop>5.0</pdop><geoidheight>54.00</geoidheight><course>331.9</course><type>1</type></trkpt>
      <trkpt lat="40.58158999" lon="-4.87585647"><ele>1925</ele><speed>7.07</speed><time>2016-07-01T16:28:42Z</time><pdop>6.0</pdop><geoidheight>54.00</geoidheight><course>53.0</course><type>1</type></trkpt>
      <trkpt lat="40.58166521" lon="-4.87550934"><ele>1929</ele><speed>15.00</speed><time>2016-07-01T16:28:44Z</time><pdop>5.0</pdop><geoidheight>54.00</geoidheight><course>77.9</course><type>1</type></trkpt>
      <trkpt lat="40.58165272" lon="-4.87533811"><ele>1929</ele><speed>16.02</speed><time>2016-07-01T16:28:45Z</time><pdop>4.0</pdop><geoidheight>54.00</geoidheight><course>90.4</course><type>1</type></trkpt>
      <trkpt lat="40.58164411" lon="-4.87514598"><ele>1929</ele><speed>16.03</speed><time>2016-07-01T16:28:46Z</time><pdop>4.0</pdop><geoidheight>54.00</geoidheight><course>93.4</course><type>1</type></trkpt>
      <trkpt lat="40.58161888" lon="-4.87495943"><ele>1928</ele><speed>15.94</speed><time>2016-07-01T16:28:47Z</time><pdop>4.0</pdop><geoidheight>54.00</geoidheight><course>100.1</course><type>1</type></trkpt>
      <trkpt lat="40.58156276" lon="-4.87478983"><ele>1930</ele><speed>15.84</speed><time>2016-07-01T16:28:48Z</time><pdop>4.0</pdop><geoidheight>54.00</geoidheight><course>109.2</course><type>1</type></trkpt>
      <trkpt lat="40.58145592" lon="-4.87463032"><ele>1930</ele><speed>16.43</speed><time>2016-07-01T16:28:49Z</time><pdop>5.0</pdop><geoidheight>54.00</geoidheight><course>120.1</course><type>1</type></trkpt>
      <trkpt lat="40.58130709" lon="-4.87455404"><ele>1931</ele><speed>15.87</speed><time>2016-07-01T16:28:50Z</time><pdop>4.0</pdop><geoidheight>54.00</geoidheight><course>140.9</course><type>1</type></trkpt>
      <trkpt lat="40.58121005" lon="-4.87447694"><ele>1932</ele><speed>13.10</speed><time>2016-07-01T16:28:51Z</time><pdop>3.0</pdop><geoidheight>54.00</geoidheight><course>152.7</course><type>1</type></trkpt>
      <trkpt lat="40.58111044" lon="-4.87445414"><ele>1932</ele><speed>11.23</speed><time>2016-07-01T16:28:52Z</time><pdop>3.0</pdop><geoidheight>54.00</geoidheight><course>163.8</course><type>1</type></trkpt>
      <trkpt lat="40.58101116" lon="-4.87444128"><ele>1932</ele><speed>10.58</speed><time>2016-07-01T16:28:53Z</time><pdop>3.0</pdop><geoidheight>54.00</geoidheight><course>175.2</course><type>1</type></trkpt>
      <trkpt lat="40.58092914" lon="-4.87446978"><ele>1931</ele><speed>9.85</speed><time>2016-07-01T16:28:54Z</time><pdop>3.0</pdop><geoidheight>54.00</geoidheight><course>186.8</course><type>1</type></trkpt>
      <trkpt lat="40.58085977" lon="-4.87450561"><ele>1931</ele><speed>8.73</speed><time>2016-07-01T16:28:55Z</time><pdop>3.0</pdop><geoidheight>54.00</geoidheight><course>199.8</course><type>1</type></trkpt>
      <trkpt lat="40.58079622" lon="-4.87455884"><ele>1931</ele><speed>7.68</speed><time>2016-07-01T16:28:56Z</time><pdop>3.0</pdop><geoidheight>54.00</geoidheight><course>211.8</course><type>1</type></trkpt>
      <trkpt lat="40.5807511" lon="-4.87461696"><ele>1931</ele><speed>6.85</speed><time>2016-07-01T16:28:57Z</time><pdop>3.0</pdop><geoidheight>54.00</geoidheight><course>220.3</course><type>1</type></trkpt>
      <trkpt lat="40.58071331" lon="-4.87466997"><ele>1933</ele><speed>6.26</speed><time>2016-07-01T16:28:58Z</time><pdop>3.0</pdop><geoidheight>54.00</geoidheight><course>225.1</course><type>1</type></trkpt>
      <trkpt lat="40.58061335" lon="-4.87475136"><ele>1935</ele><speed>6.83</speed><time>2016-07-01T16:29:00Z</time><pdop>3.0</pdop><geoidheight>54.00</geoidheight><course>211.0</course><type>1</type></trkpt>
      <trkpt lat="40.58056426" lon="-4.87479522"><ele>1937</ele><speed>6.71</speed><time>2016-07-01T16:29:01Z</time><pdop>3.0</pdop><geoidheight>54.00</geoidheight><course>207.6</course><type>1</type></trkpt>
      <trkpt lat="40.58048438" lon="-4.8748222"><ele>1936</ele><speed>5.41</speed><time>2016-07-01T16:29:03Z</time><pdop>6.0</pdop><geoidheight>54.00</geoidheight><course>198.3</course><type>1</type></trkpt>
      <trkpt lat="40.58037541" lon="-4.87492253"><ele>1936</ele><speed>5.16</speed><time>2016-07-01T16:29:06Z</time><pdop>7.0</pdop><geoidheight>54.00</geoidheight><course>213.7</course><type>1</type></trkpt>
      <trkpt lat="40.58031074" lon="-4.87508122"><ele>1941</ele><speed>4.28</speed><time>2016-07-01T16:29:09Z</time><pdop>4.0</pdop><geoidheight>54.00</geoidheight><course>264.0</course><type>1</type></trkpt>
      <trkpt lat="40.5803756" lon="-4.87515651"><ele>1947</ele><speed>5.90</speed><time>2016-07-01T16:29:12Z</time><pdop>4.0</pdop><geoidheight>54.00</geoidheight><course>359.6</course><type>1</type></trkpt>
      <trkpt lat="40.58044784" lon="-4.87512321"><ele>1948</ele><speed>8.75</speed><time>2016-07-01T16:29:13Z</time><pdop>4.0</pdop><geoidheight>54.00</geoidheight><course>17.9</course><type>1</type></trkpt>
      <trkpt lat="40.58053335" lon="-4.87504763"><ele>1951</ele><speed>11.51</speed><time>2016-07-01T16:29:14Z</time><pdop>3.0</pdop><geoidheight>54.00</geoidheight><course>32.0</course><type>1</type></trkpt>
      <trkpt lat="40.5806125" lon="-4.87495173"><ele>1952</ele><speed>12.68</speed><time>2016-07-01T16:29:15Z</time><pdop>3.0</pdop><geoidheight>54.00</geoidheight><course>42.3</course><type>1</type></trkpt>
      <trkpt lat="40.5806251" lon="-4.87478469"><ele>1956</ele><speed>13.93</speed><time>2016-07-01T16:29:16Z</time><pdop>3.0</pdop><geoidheight>54.00</geoidheight><course>73.9</course><type>1</type></trkpt>
      <trkpt lat="40.58061115" lon="-4.87460966"><ele>1958</ele><speed>14.67</speed><time>2016-07-01T16:29:17Z</time><pdop>3.0</pdop><geoidheight>54.00</geoidheight><course>90.1</course><type>1</type></trkpt>
      <trkpt lat="40.58054218" lon="-4.87443682"><ele>1958</ele><speed>14.74</speed><time>2016-07-01T16:29:18Z</time><pdop>3.0</pdop><geoidheight>54.00</geoidheight><course>104.6</course><type>1</type></trkpt>
      <trkpt lat="40.58048285" lon="-4.87427632"><ele>1959</ele><speed>14.89</speed><time>2016-07-01T16:29:19Z</time><pdop>4.0</pdop><geoidheight>54.00</geoidheight><course>111.8</course><type>1</type></trkpt>
      <trkpt lat="40.58042495" lon="-4.87413062"><ele>1959</ele><speed>14.57</speed><time>2016-07-01T16:29:20Z</time><pdop>5.0</pdop><geoidheight>54.00</geoidheight><course>113.6</course><type>1</type></trkpt>
      <trkpt lat="40.58029675" lon="-4.87400759"><ele>1959</ele><speed>15.09</speed><time>2016-07-01T16:29:21Z</time><pdop>7.0</pdop><geoidheight>54.00</geoidheight><course>128.2</course><type>1</type></trkpt>
      <trkpt lat="40.5801529" lon="-4.87406045"><ele>1961</ele><speed>12.84</speed><time>2016-07-01T16:29:22Z</time><pdop>5.0</pdop><geoidheight>54.00</geoidheight><course>156.9</course><type>1</type></trkpt>
      <trkpt lat="40.58004999" lon="-4.87403542"><ele>1962</ele><speed>12.33</speed><time>2016-07-01T16:29:23Z</time><pdop>5.0</pdop><geoidheight>54.00</geoidheight><course>161.1</course><type>1</type></trkpt>
      <trkpt lat="40.57995212" lon="-4.87402082"><ele>1962</ele><speed>11.56</speed><time>2016-07-01T16:29:24Z</time><pdop>5.0</pdop><geoidheight>54.00</geoidheight><course>170.5</course><type>1</type></trkpt>
      <trkpt lat="40.57983342" lon="-4.8740908"><ele>1964</ele><speed>8.64</speed><time>2016-07-01T16:29:26Z</time><pdop>5.0</pdop><geoidheight>54.00</geoidheight><course>193.7</course><type>1</type></trkpt>
      <trkpt lat="40.57991707" lon="-4.87418718"><ele>1964</ele><speed>3.93</speed><time>2016-07-01T16:29:28Z</time><pdop>5.0</pdop><geoidheight>54.00</geoidheight><course>304.8</course><type>1</type></trkpt>
      <trkpt lat="40.58003394" lon="-4.87419805"><ele>1968</ele><speed>8.04</speed><time>2016-07-01T16:29:30Z</time><pdop>4.0</pdop><geoidheight>54.00</geoidheight><course>1.5</course><type>1</type></trkpt>
      <trkpt lat="40.58010384" lon="-4.87418532"><ele>1972</ele><speed>8.80</speed><time>2016-07-01T16:29:31Z</time><pdop>3.0</pdop><geoidheight>54.00</geoidheight><course>12.3</course><type>1</type></trkpt>
      <trkpt lat="40.58016698" lon="-4.87415718"><ele>1975</ele><speed>8.38</speed><time>2016-07-01T16:29:32Z</time><pdop>3.0</pdop><geoidheight>54.00</geoidheight><course>22.3</course><type>1</type></trkpt>
      <trkpt lat="40.58022641" lon="-4.87410393"><ele>1976</ele><speed>8.23</speed><time>2016-07-01T16:29:33Z</time><pdop>3.0</pdop><geoidheight>54.00</geoidheight><course>37.0</course><type>1</type></trkpt>
      <trkpt lat="40.58027859" lon="-4.87403388"><ele>1978</ele><speed>9.05</speed><time>2016-07-01T16:29:34Z</time><pdop>3.0</pdop><geoidheight>54.00</geoidheight><course>44.9</course><type>1</type></trkpt>
      <trkpt lat="40.58032526" lon="-4.87389926"><ele>1978</ele><speed>10.85</speed><time>2016-07-01T16:29:35Z</time><pdop>4.0</pdop><geoidheight>54.00</geoidheight><course>58.7</course><type>1</type></trkpt>
      <trkpt lat="40.58033787" lon="-4.8737517"><ele>1978</ele><speed>12.95</speed><time>2016-07-01T16:29:36Z</time><pdop>3.0</pdop><geoidheight>54.00</geoidheight><course>72.3</course><type>1</type></trkpt>
      <trkpt lat="40.58035424" lon="-4.87359081"><ele>1978</ele><speed>13.51</speed><time>2016-07-01T16:29:37Z</time><pdop>4.0</pdop><geoidheight>54.00</geoidheight><course>77.2</course><type>1</type></trkpt>
      <trkpt lat="40.58033846" lon="-4.87339006"><ele>1979</ele><speed>15.49</speed><time>2016-07-01T16:29:38Z</time><pdop>4.0</pdop><geoidheight>54.00</geoidheight><course>86.9</course><type>1</type></trkpt>
      <trkpt lat="40.58033112" lon="-4.87319421"><ele>1980</ele><speed>15.79</speed><time>2016-07-01T16:29:39Z</time><pdop>5.0</pdop><geoidheight>54.00</geoidheight><course>91.8</course><type>1</type></trkpt>
      <trkpt lat="40.58025508" lon="-4.87299174"><ele>1980</ele><speed>16.75</speed><time>2016-07-01T16:29:40Z</time><pdop>3.0</pdop><geoidheight>54.00</geoidheight><course>106.3</course><type>1</type></trkpt>
      <trkpt lat="40.58019633" lon="-4.87281031"><ele>1981</ele><speed>16.50</speed><time>2016-07-01T16:29:41Z</time><pdop>4.0</pdop><geoidheight>54.00</geoidheight><course>109.7</course><type>1</type></trkpt>
      <trkpt lat="40.58014336" lon="-4.87262431"><ele>1982</ele><speed>16.51</speed><time>2016-07-01T16:29:42Z</time><pdop>3.0</pdop><geoidheight>54.00</geoidheight><course>112.9</course><type>1</type></trkpt>
      <trkpt lat="40.58006665" lon="-4.87244422"><ele>1983</ele><speed>16.76</speed><time>2016-07-01T16:29:43Z</time><pdop>3.0</pdop><geoidheight>54.00</geoidheight><course>115.4</course><type>1</type></trkpt>
      <trkpt lat="40.57999509" lon="-4.87227973"><ele>1982</ele><speed>16.38</speed><time>2016-07-01T16:29:44Z</time><pdop>4.0</pdop><geoidheight>54.00</geoidheight><course>116.8</course><type>1</type></trkpt>
      <trkpt lat="40.57991311" lon="-4.87210044"><ele>1982</ele><speed>16.56</speed><time>2016-07-01T16:29:45Z</time><pdop>4.0</pdop><geoidheight>54.00</geoidheight><course>119.7</course><type>1</type></trkpt>
      <trkpt lat="40.57983737" lon="-4.87194185"><ele>1982</ele><speed>16.29</speed><time>2016-07-01T16:29:46Z</time><pdop>4.0</pdop><geoidheight>54.00</geoidheight><course>121.0</course><type>1</type></trkpt>
      <trkpt lat="40.57976224" lon="-4.87177839"><ele>1982</ele><speed>15.78</speed><time>2016-07-01T16:29:47Z</time><pdop>4.0</pdop><geoidheight>54.00</geoidheight><course>120.9</course><type>1</type></trkpt>
      <trkpt lat="40.57969802" lon="-4.87163161"><ele>1983</ele><speed>15.17</speed><time>2016-07-01T16:29:48Z</time><pdop>4.0</pdop><geoidheight>54.00</geoidheight><course>119.6</course><type>1</type></trkpt>
      <trkpt lat="40.579629" lon="-4.87147182"><ele>1983</ele><speed>14.87</speed><time>2016-07-01T16:29:49Z</time><pdop>4.0</pdop><geoidheight>54.00</geoidheight><course>118.8</course><type>1</type></trkpt>
      <trkpt lat="40.57957152" lon="-4.87132966"><ele>1983</ele><speed>14.68</speed><time>2016-07-01T16:29:50Z</time><pdop>5.0</pdop><geoidheight>54.00</geoidheight><course>118.7</course><type>1</type></trkpt>
      <trkpt lat="40.57951132" lon="-4.87119996"><ele>1985</ele><speed>14.26</speed><time>2016-07-01T16:29:51Z</time><pdop>5.0</pdop><geoidheight>54.00</geoidheight><course>119.8</course><type>1</type></trkpt>
      <trkpt lat="40.57943097" lon="-4.87105675"><ele>1986</ele><speed>14.60</speed><time>2016-07-01T16:29:52Z</time><pdop>5.0</pdop><geoidheight>54.00</geoidheight><course>124.7</course><type>1</type></trkpt>
      <trkpt lat="40.57933267" lon="-4.87095835"><ele>1987</ele><speed>14.51</speed><time>2016-07-01T16:29:53Z</time><pdop>5.0</pdop><geoidheight>54.00</geoidheight><course>137.9</course><type>1</type></trkpt>
      <trkpt lat="40.57923956" lon="-4.87086969"><ele>1988</ele><speed>14.05</speed><time>2016-07-01T16:29:54Z</time><pdop>5.0</pdop><geoidheight>54.00</geoidheight><course>141.2</course><type>1</type></trkpt>
      <trkpt lat="40.579123" lon="-4.870793"><ele>1990</ele><speed>14.82</speed><time>2016-07-01T16:29:55Z</time><pdop>7.0</pdop><geoidheight>54.00</geoidheight><course>148.9</course><type>1</type></trkpt>
      <trkpt lat="40.57895084" lon="-4.87089124"><ele>1988</ele><speed>11.00</speed><time>2016-07-01T16:29:57Z</time><pdop>6.0</pdop><geoidheight>54.00</geoidheight><course>175.6</course><type>1</type></trkpt>
      <trkpt lat="40.57888163" lon="-4.87100493"><ele>1988</ele><speed>10.59</speed><time>2016-07-01T16:29:58Z</time><pdop>6.0</pdop><geoidheight>54.00</geoidheight><course>201.5</course><type>1</type></trkpt>
      <trkpt lat="40.57891146" lon="-4.87117022"><ele>1991</ele><speed>6.09</speed><time>2016-07-01T16:30:00Z</time><pdop>5.0</pdop><geoidheight>54.00</geoidheight><course>259.1</course><type>1</type></trkpt>
      <trkpt lat="40.57888257" lon="-4.8713445"><ele>1995</ele><speed>5.34</speed><time>2016-07-01T16:30:03Z</time><pdop>4.0</pdop><geoidheight>54.00</geoidheight><course>257.8</course><type>1</type></trkpt>
      <trkpt lat="40.57885085" lon="-4.87145733"><ele>1998</ele><speed>4.74</speed><time>2016-07-01T16:30:05Z</time><pdop>5.0</pdop><geoidheight>54.00</geoidheight><course>249.2</course><type>1</type></trkpt>
      <trkpt lat="40.57886011" lon="-4.87157522"><ele>1999</ele><speed>4.57</speed><time>2016-07-01T16:30:07Z</time><pdop>4.0</pdop><geoidheight>54.00</geoidheight><course>281.9</course><type>1</type></trkpt>
      <trkpt lat="40.5789511" lon="-4.87161478"><ele>2001</ele><speed>6.34</speed><time>2016-07-01T16:30:09Z</time><pdop>4.0</pdop><geoidheight>54.00</geoidheight><course>353.4</course><type>1</type></trkpt>
      <trkpt lat="40.57902379" lon="-4.87156956"><ele>2002</ele><speed>8.74</speed><time>2016-07-01T16:30:10Z</time><pdop>4.0</pdop><geoidheight>54.00</geoidheight><course>19.9</course><type>1</type></trkpt>
      <trkpt lat="40.57909524" lon="-4.87148023"><ele>2003</ele><speed>11.20</speed><time>2016-07-01T16:30:11Z</time><pdop>3.0</pdop><geoidheight>54.00</geoidheight><course>41.5</course><type>1</type></trkpt>
      <trkpt lat="40.57914376" lon="-4.87135157"><ele>2006</ele><speed>13.37</speed><time>2016-07-01T16:30:12Z</time><pdop>3.0</pdop><geoidheight>54.00</geoidheight><course>61.0</course><type>1</type></trkpt>
      <trkpt lat="40.57917554" lon="-4.87117837"><ele>2007</ele><speed>15.24</speed><time>2016-07-01T16:30:13Z</time><pdop>3.0</pdop><geoidheight>54.00</geoidheight><course>74.8</course><type>1</type></trkpt>
      <trkpt lat="40.57916635" lon="-4.87099304"><ele>2009</ele><speed>16.08</speed><time>2016-07-01T16:30:14Z</time><pdop>3.0</pdop><geoidheight>54.00</geoidheight><course>88.5</course><type>1</type></trkpt>
      <trkpt lat="40.57912879" lon="-4.87082532"><ele>2010</ele><speed>14.79</speed><time>2016-07-01T16:30:15Z</time><pdop>4.0</pdop><geoidheight>54.00</geoidheight><course>97.5</course><type>1</type></trkpt>
      <trkpt lat="40.57904223" lon="-4.87065036"><ele>2011</ele><speed>15.49</speed><time>2016-07-01T16:30:16Z</time><pdop>4.0</pdop><geoidheight>54.00</geoidheight><course>110.5</course><type>1</type></trkpt>
      <trkpt lat="40.57893563" lon="-4.87051332"><ele>2011</ele><speed>15.21</speed><time>2016-07-01T16:30:17Z</time><pdop>5.0</pdop><geoidheight>54.00</geoidheight><course>123.4</course><type>1</type></trkpt>
      <trkpt lat="40.57875637" lon="-4.87040027"><ele>2011</ele><speed>17.97</speed><time>2016-07-01T16:30:18Z</time><pdop>5.0</pdop><geoidheight>54.00</geoidheight><course>143.3</course><type>1</type></trkpt>
      <trkpt lat="40.57863978" lon="-4.87038533"><ele>2010</ele><speed>15.32</speed><time>2016-07-01T16:30:19Z</time><pdop>5.0</pdop><geoidheight>54.00</geoidheight><course>151.5</course><type>1</type></trkpt>
      <trkpt lat="40.57852826" lon="-4.8703637"><ele>2012</ele><speed>13.25</speed><time>2016-07-01T16:30:20Z</time><pdop>4.0</pdop><geoidheight>54.00</geoidheight><course>161.9</course><type>1</type></trkpt>
      <trkpt lat="40.5784341" lon="-4.87033924"><ele>2012</ele><speed>12.13</speed><time>2016-07-01T16:30:21Z</time><pdop>5.0</pdop><geoidheight>54.00</geoidheight><course>164.1</course><type>1</type></trkpt>
      <trkpt lat="40.57825438" lon="-4.87038541"><ele>2014</ele><speed>10.68</speed><time>2016-07-01T16:30:23Z</time><pdop>6.0</pdop><geoidheight>54.00</geoidheight><course>185.5</course><type>1</type></trkpt>
      <trkpt lat="40.57822867" lon="-4.87057469"><ele>2015</ele><speed>5.18</speed><time>2016-07-01T16:30:26Z</time><pdop>8.0</pdop><geoidheight>54.00</geoidheight><course>222.2</course><type>1</type></trkpt>
      <trkpt lat="40.57824936" lon="-4.87078492"><ele>2017</ele><speed>6.38</speed><time>2016-07-01T16:30:29Z</time><pdop>6.0</pdop><geoidheight>54.00</geoidheight><course>258.2</course><type>1</type></trkpt>
      <trkpt lat="40.57818321" lon="-4.87094141"><ele>2022</ele><speed>6.61</speed><time>2016-07-01T16:30:31Z</time><pdop>4.0</pdop><geoidheight>54.00</geoidheight><course>249.6</course><type>1</type></trkpt>
      <trkpt lat="40.57812062" lon="-4.87106136"><ele>2024</ele><speed>5.56</speed><time>2016-07-01T16:30:33Z</time><pdop>4.0</pdop><geoidheight>54.00</geoidheight><course>236.7</course><type>1</type></trkpt>
      <trkpt lat="40.57806798" lon="-4.87112872"><ele>2026</ele><speed>4.56</speed><time>2016-07-01T16:30:35Z</time><pdop>4.0</pdop><geoidheight>54.00</geoidheight><course>213.8</course><type>1</type></trkpt>
      <trkpt lat="40.57797533" lon="-4.87120363"><ele>2026</ele><speed>6.01</speed><time>2016-07-01T16:30:37Z</time><pdop>4.0</pdop><geoidheight>54.00</geoidheight><course>207.8</course><type>1</type></trkpt>
      <trkpt lat="40.57788924" lon="-4.87129974"><ele>2029</ele><speed>5.49</speed><time>2016-07-01T16:30:39Z</time><pdop>4.0</pdop><geoidheight>54.00</geoidheight><course>226.8</course><type>1</type></trkpt>
      <trkpt lat="40.57792154" lon="-4.8713968"><ele>2029</ele><speed>3.07</speed><time>2016-07-01T16:30:42Z</time><pdop>4.0</pdop><geoidheight>54.00</geoidheight><course>326.5</course><type>1</type></trkpt>
      <trkpt lat="40.57800594" lon="-4.87121228"><ele>2028</ele><speed>6.51</speed><time>2016-07-01T16:30:44Z</time><pdop>5.0</pdop><geoidheight>54.00</geoidheight><course>53.0</course><type>1</type></trkpt>
      <trkpt lat="40.57811074" lon="-4.87090341"><ele>2027</ele><speed>12.19</speed><time>2016-07-01T16:30:46Z</time><pdop>7.0</pdop><geoidheight>54.00</geoidheight><course>64.4</course><type>1</type></trkpt>
      <trkpt lat="40.57804601" lon="-4.87065725"><ele>2027</ele><speed>15.01</speed><time>2016-07-01T16:30:47Z</time><pdop>6.0</pdop><geoidheight>54.00</geoidheight><course>89.5</course><type>1</type></trkpt>
      <trkpt lat="40.57797391" lon="-4.87048126"><ele>2027</ele><speed>14.89</speed><time>2016-07-01T16:30:48Z</time><pdop>6.0</pdop><geoidheight>54.00</geoidheight><course>102.6</course><type>1</type></trkpt>
      <trkpt lat="40.57790106" lon="-4.87034432"><ele>2027</ele><speed>14.50</speed><time>2016-07-01T16:30:49Z</time><pdop>5.0</pdop><geoidheight>54.00</geoidheight><course>113.3</course><type>1</type></trkpt>
      <trkpt lat="40.57781421" lon="-4.87021627"><ele>2027</ele><speed>14.69</speed><time>2016-07-01T16:30:50Z</time><pdop>6.0</pdop><geoidheight>54.00</geoidheight><course>123.9</course><type>1</type></trkpt>
      <trkpt lat="40.57765966" lon="-4.87009135"><ele>2028</ele><speed>16.54</speed><time>2016-07-01T16:30:51Z</time><pdop>5.0</pdop><geoidheight>54.00</geoidheight><course>140.9</course><type>1</type></trkpt>
      <trkpt lat="40.57754416" lon="-4.86999238"><ele>2028</ele><speed>15.78</speed><time>2016-07-01T16:30:52Z</time><pdop>5.0</pdop><geoidheight>54.00</geoidheight><course>144.0</course><type>1</type></trkpt>
      <trkpt lat="40.57736114" lon="-4.86991326"><ele>2028</ele><speed>12.03</speed><time>2016-07-01T16:30:54Z</time><pdop>3.0</pdop><geoidheight>54.00</geoidheight><course>157.6</course><type>1</type></trkpt>
      <trkpt lat="40.57727069" lon="-4.86991599"><ele>2027</ele><speed>12.10</speed><time>2016-07-01T16:30:55Z</time><pdop>4.0</pdop><geoidheight>54.00</geoidheight><course>166.2</course><type>1</type></trkpt>
      <trkpt lat="40.57716253" lon="-4.86988325"><ele>2027</ele><speed>11.94</speed><time>2016-07-01T16:30:56Z</time><pdop>4.0</pdop><geoidheight>54.00</geoidheight><course>169.9</course><type>1</type></trkpt>
      <trkpt lat="40.57705855" lon="-4.86986895"><ele>2027</ele><speed>11.61</speed><time>2016-07-01T16:30:57Z</time><pdop>5.0</pdop><geoidheight>54.00</geoidheight><course>175.5</course><type>1</type></trkpt>
      <trkpt lat="40.57696643" lon="-4.8699474"><ele>2029</ele><speed>7.21</speed><time>2016-07-01T16:30:59Z</time><pdop>4.0</pdop><geoidheight>54.00</geoidheight><course>194.6</course><type>1</type></trkpt>
      <trkpt lat="40.57686636" lon="-4.87000322"><ele>2031</ele><speed>6.52</speed><time>2016-07-01T16:31:01Z</time><pdop>4.0</pdop><geoidheight>54.00</geoidheight><course>208.2</course><type>1</type></trkpt>
      <trkpt lat="40.57677515" lon="-4.87009773"><ele>2032</ele><speed>6.40</speed><time>2016-07-01T16:31:03Z</time><pdop>4.0</pdop><geoidheight>54.00</geoidheight><course>219.0</course><type>1</type></trkpt>
      <trkpt lat="40.5767387" lon="-4.87020807"><ele>2034</ele><speed>4.87</speed><time>2016-07-01T16:31:05Z</time><pdop>4.0</pdop><geoidheight>54.00</geoidheight><course>270.9</course><type>1</type></trkpt>
      <trkpt lat="40.57681734" lon="-4.87028292"><ele>2040</ele><speed>6.49</speed><time>2016-07-01T16:31:07Z</time><pdop>4.0</pdop><geoidheight>54.00</geoidheight><course>341.6</course><type>1</type></trkpt>
      <trkpt lat="40.57694967" lon="-4.87019213"><ele>2047</ele><speed>10.52</speed><time>2016-07-01T16:31:09Z</time><pdop>3.0</pdop><geoidheight>54.00</geoidheight><course>38.8</course><type>1</type></trkpt>
      <trkpt lat="40.5770012" lon="-4.87008784"><ele>2051</ele><speed>12.00</speed><time>2016-07-01T16:31:10Z</time><pdop>3.0</pdop><geoidheight>54.00</geoidheight><course>57.4</course><type>1</type></trkpt>
      <trkpt lat="40.57702411" lon="-4.86993721"><ele>2052</ele><speed>12.39</speed><time>2016-07-01T16:31:11Z</time><pdop>3.0</pdop><geoidheight>54.00</geoidheight><course>73.9</course><type>1</type></trkpt>
      <trkpt lat="40.57701254" lon="-4.869793"><ele>2054</ele><speed>12.60</speed><time>2016-07-01T16:31:12Z</time><pdop>3.0</pdop><geoidheight>54.00</geoidheight><course>91.6</course><type>1</type></trkpt>
      <trkpt lat="40.57699857" lon="-4.86964503"><ele>2054</ele><speed>12.65</speed><time>2016-07-01T16:31:13Z</time><pdop>3.0</pdop><geoidheight>54.00</geoidheight><course>95.3</course><type>1</type></trkpt>
      <trkpt lat="40.57694299" lon="-4.86949417"><ele>2054</ele><speed>13.17</speed><time>2016-07-01T16:31:14Z</time><pdop>4.0</pdop><geoidheight>54.00</geoidheight><course>106.2</course><type>1</type></trkpt>
      <trkpt lat="40.5767873" lon="-4.86937905"><ele>2054</ele><speed>15.14</speed><time>2016-07-01T16:31:15Z</time><pdop>4.0</pdop><geoidheight>54.00</geoidheight><course>132.9</course><type>1</type></trkpt>
      <trkpt lat="40.57668671" lon="-4.86928639"><ele>2053</ele><speed>15.14</speed><time>2016-07-01T16:31:16Z</time><pdop>5.0</pdop><geoidheight>54.00</geoidheight><course>139.0</course><type>1</type></trkpt>
      <trkpt lat="40.57654153" lon="-4.86918143"><ele>2054</ele><speed>16.97</speed><time>2016-07-01T16:31:17Z</time><pdop>6.0</pdop><geoidheight>54.00</geoidheight><course>148.3</course><type>1</type></trkpt>
      <trkpt lat="40.57640597" lon="-4.86909593"><ele>2056</ele><speed>16.76</speed><time>2016-07-01T16:31:18Z</time><pdop>6.0</pdop><geoidheight>54.00</geoidheight><course>152.0</course><type>1</type></trkpt>
      <trkpt lat="40.57628299" lon="-4.869018"><ele>2056</ele><speed>15.66</speed><time>2016-07-01T16:31:19Z</time><pdop>6.0</pdop><geoidheight>54.00</geoidheight><course>153.0</course><type>1</type></trkpt>
      <trkpt lat="40.57613402" lon="-4.86909006"><ele>2057</ele><speed>10.68</speed><time>2016-07-01T16:31:21Z</time><pdop>6.0</pdop><geoidheight>54.00</geoidheight><course>176.5</course><type>1</type></trkpt>
      <trkpt lat="40.57599518" lon="-4.8691735"><ele>2060</ele><speed>9.26</speed><time>2016-07-01T16:31:23Z</time><pdop>3.0</pdop><geoidheight>54.00</geoidheight><course>194.0</course><type>1</type></trkpt>
      <trkpt lat="40.57592445" lon="-4.8692055"><ele>2060</ele><speed>9.16</speed><time>2016-07-01T16:31:24Z</time><pdop>3.0</pdop><geoidheight>54.00</geoidheight><course>194.2</course><type>1</type></trkpt>
      <trkpt lat="40.57584197" lon="-4.86923554"><ele>2062</ele><speed>9.26</speed><time>2016-07-01T16:31:25Z</time><pdop>3.0</pdop><geoidheight>54.00</geoidheight><course>192.5</course><type>1</type></trkpt>
      <trkpt lat="40.57575456" lon="-4.86925696"><ele>2062</ele><speed>9.72</speed><time>2016-07-01T16:31:26Z</time><pdop>3.0</pdop><geoidheight>54.00</geoidheight><course>190.0</course><type>1</type></trkpt>
      <trkpt lat="40.57566574" lon="-4.86927303"><ele>2062</ele><speed>9.80</speed><time>2016-07-01T16:31:27Z</time><pdop>3.0</pdop><geoidheight>54.00</geoidheight><course>188.0</course><type>1</type></trkpt>
      <trkpt lat="40.57558095" lon="-4.86931338"><ele>2062</ele><speed>9.81</speed><time>2016-07-01T16:31:28Z</time><pdop>4.0</pdop><geoidheight>54.00</geoidheight><course>192.2</course><type>1</type></trkpt>
      <trkpt lat="40.57549955" lon="-4.86931827"><ele>2064</ele><speed>9.80</speed><time>2016-07-01T16:31:29Z</time><pdop>4.0</pdop><geoidheight>54.00</geoidheight><course>186.1</course><type>1</type></trkpt>
      <trkpt lat="40.57541792" lon="-4.86932483"><ele>2066</ele><speed>9.87</speed><time>2016-07-01T16:31:30Z</time><pdop>4.0</pdop><geoidheight>54.00</geoidheight><course>184.6</course><type>1</type></trkpt>
      <trkpt lat="40.57531751" lon="-4.86933181"><ele>2066</ele><speed>10.26</speed><time>2016-07-01T16:31:31Z</time><pdop>6.0</pdop><geoidheight>54.00</geoidheight><course>184.2</course><type>1</type></trkpt>
      <trkpt lat="40.57515412" lon="-4.86936956"><ele>2070</ele><speed>8.70</speed><time>2016-07-01T16:31:33Z</time><pdop>4.0</pdop><geoidheight>54.00</geoidheight><course>187.1</course><type>1</type></trkpt>
      <trkpt lat="40.57507369" lon="-4.86938306"><ele>2071</ele><speed>8.44</speed><time>2016-07-01T16:31:34Z</time><pdop>4.0</pdop><geoidheight>54.00</geoidheight><course>187.0</course><type>1</type></trkpt>
      <trkpt lat="40.57498977" lon="-4.86940193"><ele>2071</ele><speed>8.65</speed><time>2016-07-01T16:31:35Z</time><pdop>4.0</pdop><geoidheight>54.00</geoidheight><course>189.0</course><type>1</type></trkpt>
      <trkpt lat="40.57484245" lon="-4.86948698"><ele>2072</ele><speed>8.87</speed><time>2016-07-01T16:31:37Z</time><pdop>6.0</pdop><geoidheight>54.00</geoidheight><course>201.3</course><type>1</type></trkpt>
      <trkpt lat="40.57481667" lon="-4.86962182"><ele>2081</ele><speed>6.35</speed><time>2016-07-01T16:31:39Z</time><pdop>4.0</pdop><geoidheight>54.00</geoidheight><course>233.4</course><type>1</type></trkpt>
      <trkpt lat="40.57481839" lon="-4.86972304"><ele>2089</ele><speed>4.13</speed><time>2016-07-01T16:31:41Z</time><pdop>4.0</pdop><geoidheight>54.00</geoidheight><course>306.9</course><type>1</type></trkpt>
      <trkpt lat="40.57490969" lon="-4.86975611"><ele>2095</ele><speed>7.11</speed><time>2016-07-01T16:31:43Z</time><pdop>4.0</pdop><geoidheight>54.00</geoidheight><course>4.4</course><type>1</type></trkpt>
      <trkpt lat="40.57497184" lon="-4.86967783"><ele>2097</ele><speed>9.37</speed><time>2016-07-01T16:31:44Z</time><pdop>4.0</pdop><geoidheight>54.00</geoidheight><course>33.3</course><type>1</type></trkpt>
      <trkpt lat="40.57502885" lon="-4.86957278"><ele>2101</ele><speed>11.39</speed><time>2016-07-01T16:31:45Z</time><pdop>3.0</pdop><geoidheight>54.00</geoidheight><course>51.5</course><type>1</type></trkpt>
      <trkpt lat="40.57507737" lon="-4.86944213"><ele>2103</ele><speed>13.17</speed><time>2016-07-01T16:31:46Z</time><pdop>4.0</pdop><geoidheight>54.00</geoidheight><course>62.3</course><type>1</type></trkpt>
      <trkpt lat="40.57509116" lon="-4.86928259"><ele>2106</ele><speed>14.61</speed><time>2016-07-01T16:31:47Z</time><pdop>3.0</pdop><geoidheight>54.00</geoidheight><course>78.9</course><type>1</type></trkpt>
      <trkpt lat="40.57509733" lon="-4.86911981"><ele>2109</ele><speed>14.80</speed><time>2016-07-01T16:31:48Z</time><pdop>3.0</pdop><geoidheight>54.00</geoidheight><course>83.6</course><type>1</type></trkpt>
      <trkpt lat="40.57505852" lon="-4.86895401"><ele>2111</ele><speed>14.30</speed><time>2016-07-01T16:31:49Z</time><pdop>4.0</pdop><geoidheight>54.00</geoidheight><course>95.2</course><type>1</type></trkpt>
      <trkpt lat="40.57499411" lon="-4.86880974"><ele>2112</ele><speed>13.70</speed><time>2016-07-01T16:31:50Z</time><pdop>4.0</pdop><geoidheight>54.00</geoidheight><course>108.2</course><type>1</type></trkpt>
      <trkpt lat="40.57489078" lon="-4.86866982"><ele>2111</ele><speed>14.23</speed><time>2016-07-01T16:31:51Z</time><pdop>6.0</pdop><geoidheight>54.00</geoidheight><course>120.9</course><type>1</type></trkpt>
      <trkpt lat="40.57477284" lon="-4.86852454"><ele>2117</ele><speed>15.45</speed><time>2016-07-01T16:31:52Z</time><pdop>5.0</pdop><geoidheight>54.00</geoidheight><course>132.8</course><type>1</type></trkpt>
      <trkpt lat="40.5746903" lon="-4.86842291"><ele>2123</ele><speed>14.28</speed><time>2016-07-01T16:31:53Z</time><pdop>4.0</pdop><geoidheight>54.00</geoidheight><course>137.7</course><type>1</type></trkpt>
      <trkpt lat="40.57458884" lon="-4.86833418"><ele>2125</ele><speed>13.10</speed><time>2016-07-01T16:31:54Z</time><pdop>4.0</pdop><geoidheight>54.00</geoidheight><course>146.0</course><type>1</type></trkpt>
      <trkpt lat="40.57447438" lon="-4.86827158"><ele>2127</ele><speed>13.23</speed><time>2016-07-01T16:31:55Z</time><pdop>5.0</pdop><geoidheight>54.00</geoidheight><course>154.2</course><type>1</type></trkpt>
      <trkpt lat="40.57435088" lon="-4.86823427"><ele>2130</ele><speed>13.94</speed><time>2016-07-01T16:31:56Z</time><pdop>5.0</pdop><geoidheight>54.00</geoidheight><course>161.1</course><type>1</type></trkpt>
      <trkpt lat="40.57423839" lon="-4.8682186"><ele>2133</ele><speed>13.37</speed><time>2016-07-01T16:31:57Z</time><pdop>5.0</pdop><geoidheight>54.00</geoidheight><course>167.2</course><type>1</type></trkpt>
      <trkpt lat="40.57411997" lon="-4.86819808"><ele>2134</ele><speed>13.31</speed><time>2016-07-01T16:31:58Z</time><pdop>6.0</pdop><geoidheight>54.00</geoidheight><course>169.3</course><type>1</type></trkpt>
      <trkpt lat="40.57389978" lon="-4.86823248"><ele>2139</ele><speed>11.89</speed><time>2016-07-01T16:32:00Z</time><pdop>5.0</pdop><geoidheight>54.00</geoidheight><course>186.1</course><type>1</type></trkpt>
      <trkpt lat="40.57379133" lon="-4.86832983"><ele>2142</ele><speed>7.94</speed><time>2016-07-01T16:32:02Z</time><pdop>5.0</pdop><geoidheight>54.00</geoidheight><course>203.1</course><type>1</type></trkpt>
      <trkpt lat="40.57386154" lon="-4.86841463"><ele>2147</ele><speed>4.79</speed><time>2016-07-01T16:32:03Z</time><pdop>4.0</pdop><geoidheight>54.00</geoidheight><course>269.3</course><type>1</type></trkpt>
      <trkpt lat="40.57393651" lon="-4.86849635"><ele>2156</ele><speed>4.78</speed><time>2016-07-01T16:32:05Z</time><pdop>3.0</pdop><geoidheight>54.00</geoidheight><course>339.5</course><type>1</type></trkpt>
      <trkpt lat="40.57399086" lon="-4.86849114"><ele>2160</ele><speed>6.16</speed><time>2016-07-01T16:32:06Z</time><pdop>3.0</pdop><geoidheight>54.00</geoidheight><course>3.1</course><type>1</type></trkpt>
      <trkpt lat="40.57405626" lon="-4.86845405"><ele>2163</ele><speed>7.55</speed><time>2016-07-01T16:32:07Z</time><pdop>3.0</pdop><geoidheight>54.00</geoidheight><course>26.0</course><type>1</type></trkpt>
      <trkpt lat="40.5741198" lon="-4.86836915"><ele>2166</ele><speed>9.65</speed><time>2016-07-01T16:32:08Z</time><pdop>3.0</pdop><geoidheight>54.00</geoidheight><course>45.3</course><type>1</type></trkpt>
      <trkpt lat="40.57416767" lon="-4.86825494"><ele>2169</ele><speed>11.72</speed><time>2016-07-01T16:32:09Z</time><pdop>3.0</pdop><geoidheight>54.00</geoidheight><course>61.2</course><type>1</type></trkpt>
      <trkpt lat="40.57418588" lon="-4.86810125"><ele>2172</ele><speed>13.41</speed><time>2016-07-01T16:32:10Z</time><pdop>3.0</pdop><geoidheight>54.00</geoidheight><course>78.0</course><type>1</type></trkpt>
      <trkpt lat="40.57416558" lon="-4.86793774"><ele>2176</ele><speed>14.81</speed><time>2016-07-01T16:32:11Z</time><pdop>3.0</pdop><geoidheight>54.00</geoidheight><course>95.2</course><type>1</type></trkpt>
      <trkpt lat="40.57411816" lon="-4.86778322"><ele>2181</ele><speed>15.46</speed><time>2016-07-01T16:32:12Z</time><pdop>3.0</pdop><geoidheight>54.00</geoidheight><course>110.8</course><type>1</type></trkpt>
      <trkpt lat="40.57405296" lon="-4.86765482"><ele>2185</ele><speed>14.58</speed><time>2016-07-01T16:32:13Z</time><pdop>3.0</pdop><geoidheight>54.00</geoidheight><course>122.0</course><type>1</type></trkpt>
      <trkpt lat="40.57398556" lon="-4.86753862"><ele>2190</ele><speed>13.62</speed><time>2016-07-01T16:32:14Z</time><pdop>3.0</pdop><geoidheight>54.00</geoidheight><course>127.5</course><type>1</type></trkpt>
      <trkpt lat="40.57390939" lon="-4.86743643"><ele>2192</ele><speed>13.14</speed><time>2016-07-01T16:32:15Z</time><pdop>3.0</pdop><geoidheight>54.00</geoidheight><course>133.4</course><type>1</type></trkpt>
      <trkpt lat="40.57382762" lon="-4.86735031"><ele>2192</ele><speed>12.53</speed><time>2016-07-01T16:32:16Z</time><pdop>4.0</pdop><geoidheight>54.00</geoidheight><course>137.9</course><type>1</type></trkpt>
      <trkpt lat="40.57368614" lon="-4.86730566"><ele>2194</ele><speed>14.32</speed><time>2016-07-01T16:32:17Z</time><pdop>4.0</pdop><geoidheight>54.00</geoidheight><course>156.0</course><type>1</type></trkpt>
      <trkpt lat="40.57357019" lon="-4.86728526"><ele>2194</ele><speed>14.46</speed><time>2016-07-01T16:32:18Z</time><pdop>4.0</pdop><geoidheight>54.00</geoidheight><course>165.2</course><type>1</type></trkpt>
      <trkpt lat="40.57345429" lon="-4.86734723"><ele>2196</ele><speed>13.38</speed><time>2016-07-01T16:32:19Z</time><pdop>4.0</pdop><geoidheight>54.00</geoidheight><course>185.1</course><type>1</type></trkpt>
      <trkpt lat="40.57335197" lon="-4.86737357"><ele>2197</ele><speed>12.27</speed><time>2016-07-01T16:32:20Z</time><pdop>4.0</pdop><geoidheight>54.00</geoidheight><course>189.0</course><type>1</type></trkpt>
      <trkpt lat="40.57330896" lon="-4.86743491"><ele>2201</ele><speed>8.64</speed><time>2016-07-01T16:32:21Z</time><pdop>3.0</pdop><geoidheight>54.00</geoidheight><course>216.5</course><type>1</type></trkpt>
      <trkpt lat="40.57329057" lon="-4.86750735"><ele>2204</ele><speed>6.51</speed><time>2016-07-01T16:32:22Z</time><pdop>3.0</pdop><geoidheight>54.00</geoidheight><course>238.5</course><type>1</type></trkpt>
      <trkpt lat="40.57328958" lon="-4.8676182"><ele>2210</ele><speed>5.35</speed><time>2016-07-01T16:32:24Z</time><pdop>3.0</pdop><geoidheight>54.00</geoidheight><course>282.6</course><type>1</type></trkpt>
      <trkpt lat="40.57334504" lon="-4.86768623"><ele>2218</ele><speed>4.89</speed><time>2016-07-01T16:32:26Z</time><pdop>3.0</pdop><geoidheight>54.00</geoidheight><course>327.2</course><type>1</type></trkpt>
      <trkpt lat="40.57342623" lon="-4.86771394"><ele>2223</ele><speed>5.46</speed><time>2016-07-01T16:32:28Z</time><pdop>3.0</pdop><geoidheight>54.00</geoidheight><course>352.6</course><type>1</type></trkpt>
      <trkpt lat="40.57348422" lon="-4.86769293"><ele>2225</ele><speed>6.73</speed><time>2016-07-01T16:32:29Z</time><pdop>3.0</pdop><geoidheight>54.00</geoidheight><course>11.5</course><type>1</type></trkpt>
      <trkpt lat="40.57354039" lon="-4.86761192"><ele>2225</ele><speed>8.99</speed><time>2016-07-01T16:32:30Z</time><pdop>3.0</pdop><geoidheight>54.00</geoidheight><course>41.8</course><type>1</type></trkpt>
      <trkpt lat="40.57359265" lon="-4.86749275"><ele>2227</ele><speed>11.24</speed><time>2016-07-01T16:32:31Z</time><pdop>3.0</pdop><geoidheight>54.00</geoidheight><course>59.6</course><type>1</type></trkpt>
      <trkpt lat="40.57361982" lon="-4.8673485"><ele>2229</ele><speed>12.96</speed><time>2016-07-01T16:32:32Z</time><pdop>3.0</pdop><geoidheight>54.00</geoidheight><course>74.6</course><type>1</type></trkpt>
      <trkpt lat="40.57361871" lon="-4.86719013"><ele>2232</ele><speed>13.88</speed><time>2016-07-01T16:32:33Z</time><pdop>3.0</pdop><geoidheight>54.00</geoidheight><course>88.5</course><type>1</type></trkpt>
      <trkpt lat="40.57361272" lon="-4.8670392"><ele>2234</ele><speed>13.70</speed><time>2016-07-01T16:32:34Z</time><pdop>3.0</pdop><geoidheight>54.00</geoidheight><course>92.6</course><type>1</type></trkpt>
      <trkpt lat="40.5735652" lon="-4.86689949"><ele>2236</ele><speed>13.18</speed><time>2016-07-01T16:32:35Z</time><pdop>4.0</pdop><geoidheight>54.00</geoidheight><course>103.9</course><type>1</type></trkpt>
      <trkpt lat="40.57349543" lon="-4.86675464"><ele>2236</ele><speed>13.83</speed><time>2016-07-01T16:32:36Z</time><pdop>5.0</pdop><geoidheight>54.00</geoidheight><course>112.6</course><type>1</type></trkpt>
      <trkpt lat="40.57341049" lon="-4.86664828"><ele>2237</ele><speed>13.46</speed><time>2016-07-01T16:32:37Z</time><pdop>5.0</pdop><geoidheight>54.00</geoidheight><course>124.0</course><type>1</type></trkpt>
      <trkpt lat="40.5732984" lon="-4.86655726"><ele>2237</ele><speed>13.63</speed><time>2016-07-01T16:32:38Z</time><pdop>7.0</pdop><geoidheight>54.00</geoidheight><course>135.3</course><type>1</type></trkpt>
      <trkpt lat="40.5731233" lon="-4.86649377"><ele>2238</ele><speed>15.64</speed><time>2016-07-01T16:32:39Z</time><pdop>6.0</pdop><geoidheight>54.00</geoidheight><course>154.7</course><type>1</type></trkpt>
      <trkpt lat="40.57301555" lon="-4.86650908"><ele>2238</ele><speed>13.83</speed><time>2016-07-01T16:32:40Z</time><pdop>4.0</pdop><geoidheight>54.00</geoidheight><course>166.4</course><type>1</type></trkpt>
      <trkpt lat="40.57290281" lon="-4.86649396"><ele>2240</ele><speed>13.33</speed><time>2016-07-01T16:32:41Z</time><pdop>5.0</pdop><geoidheight>54.00</geoidheight><course>168.2</course><type>1</type></trkpt>
      <trkpt lat="40.5728029" lon="-4.86656971"><ele>2241</ele><speed>12.34</speed><time>2016-07-01T16:32:42Z</time><pdop>4.0</pdop><geoidheight>54.00</geoidheight><course>186.8</course><type>1</type></trkpt>
      <trkpt lat="40.57272024" lon="-4.86660847"><ele>2242</ele><speed>11.33</speed><time>2016-07-01T16:32:43Z</time><pdop>5.0</pdop><geoidheight>54.00</geoidheight><course>194.5</course><type>1</type></trkpt>
      <trkpt lat="40.57263672" lon="-4.86675295"><ele>2245</ele><speed>8.35</speed><time>2016-07-01T16:32:45Z</time><pdop>3.0</pdop><geoidheight>54.00</geoidheight><course>222.5</course><type>1</type></trkpt>
      <trkpt lat="40.57259987" lon="-4.86682949"><ele>2247</ele><speed>7.89</speed><time>2016-07-01T16:32:46Z</time><pdop>4.0</pdop><geoidheight>54.00</geoidheight><course>233.6</course><type>1</type></trkpt>
      <trkpt lat="40.57255866" lon="-4.86693334"><ele>2252</ele><speed>8.77</speed><time>2016-07-01T16:32:47Z</time><pdop>3.0</pdop><geoidheight>54.00</geoidheight><course>242.5</course><type>1</type></trkpt>
      <trkpt lat="40.57253462" lon="-4.8670169"><ele>2258</ele><speed>7.98</speed><time>2016-07-01T16:32:48Z</time><pdop>3.0</pdop><geoidheight>54.00</geoidheight><course>246.9</course><type>1</type></trkpt>
      <trkpt lat="40.57251385" lon="-4.86708906"><ele>2262</ele><speed>6.33</speed><time>2016-07-01T16:32:49Z</time><pdop>3.0</pdop><geoidheight>54.00</geoidheight><course>253.7</course><type>1</type></trkpt>
      <trkpt lat="40.57250348" lon="-4.86715989"><ele>2266</ele><speed>5.47</speed><time>2016-07-01T16:32:50Z</time><pdop>3.0</pdop><geoidheight>54.00</geoidheight><course>258.8</course><type>1</type></trkpt>
      <trkpt lat="40.57251398" lon="-4.86726291"><ele>2271</ele><speed>3.78</speed><time>2016-07-01T16:32:52Z</time><pdop>3.0</pdop><geoidheight>54.00</geoidheight><course>288.7</course><type>1</type></trkpt>
      <trkpt lat="40.57259934" lon="-4.86728068"><ele>2272</ele><speed>6.17</speed><time>2016-07-01T16:32:54Z</time><pdop>3.0</pdop><geoidheight>54.00</geoidheight><course>0.0</course><type>1</type></trkpt>
      <trkpt lat="40.57265925" lon="-4.86726192"><ele>2273</ele><speed>6.87</speed><time>2016-07-01T16:32:55Z</time><pdop>3.0</pdop><geoidheight>54.00</geoidheight><course>16.2</course><type>1</type></trkpt>
      <trkpt lat="40.57274303" lon="-4.86716661"><ele>2274</ele><speed>6.44</speed><time>2016-07-01T16:32:57Z</time><pdop>5.0</pdop><geoidheight>54.00</geoidheight><course>36.7</course><type>1</type></trkpt>
      <trkpt lat="40.57282325" lon="-4.86684646"><ele>2273</ele><speed>11.42</speed><time>2016-07-01T16:32:59Z</time><pdop>9.0</pdop><geoidheight>54.00</geoidheight><course>64.0</course><type>1</type></trkpt>
      <trkpt lat="40.57271406" lon="-4.86668294"><ele>2274</ele><speed>11.28</speed><time>2016-07-01T16:33:00Z</time><pdop>9.0</pdop><geoidheight>54.00</geoidheight><course>94.2</course><type>1</type></trkpt>
      <trkpt lat="40.57258239" lon="-4.86647644"><ele>2274</ele><speed>13.77</speed><time>2016-07-01T16:33:01Z</time><pdop>9.0</pdop><geoidheight>54.00</geoidheight><course>112.3</course><type>1</type></trkpt>
      <trkpt lat="40.57231078" lon="-4.8661315"><ele>2277</ele><speed>15.55</speed><time>2016-07-01T16:33:03Z</time><pdop>6.0</pdop><geoidheight>54.00</geoidheight><course>134.8</course><type>1</type></trkpt>
      <trkpt lat="40.57221596" lon="-4.86601072"><ele>2280</ele><speed>14.74</speed><time>2016-07-01T16:33:04Z</time><pdop>6.0</pdop><geoidheight>54.00</geoidheight><course>140.0</course><type>1</type></trkpt>
      <trkpt lat="40.57211314" lon="-4.86591292"><ele>2282</ele><speed>14.19</speed><time>2016-07-01T16:33:05Z</time><pdop>4.0</pdop><geoidheight>54.00</geoidheight><course>145.4</course><type>1</type></trkpt>
      <trkpt lat="40.57198239" lon="-4.86584948"><ele>2284</ele><speed>14.57</speed><time>2016-07-01T16:33:06Z</time><pdop>4.0</pdop><geoidheight>54.00</geoidheight><course>157.9</course><type>1</type></trkpt>
      <trkpt lat="40.57184627" lon="-4.86578894"><ele>2284</ele><speed>15.47</speed><time>2016-07-01T16:33:07Z</time><pdop>4.0</pdop><geoidheight>54.00</geoidheight><course>163.6</course><type>1</type></trkpt>
      <trkpt lat="40.57169997" lon="-4.86575452"><ele>2285</ele><speed>15.41</speed><time>2016-07-01T16:33:08Z</time><pdop>4.0</pdop><geoidheight>54.00</geoidheight><course>168.8</course><type>1</type></trkpt>
      <trkpt lat="40.57156977" lon="-4.86573554"><ele>2285</ele><speed>14.93</speed><time>2016-07-01T16:33:09Z</time><pdop>5.0</pdop><geoidheight>54.00</geoidheight><course>170.7</course><type>1</type></trkpt>
      <trkpt lat="40.57150015" lon="-4.86581156"><ele>2287</ele><speed>11.53</speed><time>2016-07-01T16:33:10Z</time><pdop>3.0</pdop><geoidheight>54.00</geoidheight><course>189.0</course><type>1</type></trkpt>
      <trkpt lat="40.57141178" lon="-4.86584549"><ele>2290</ele><speed>10.54</speed><time>2016-07-01T16:33:11Z</time><pdop>3.0</pdop><geoidheight>54.00</geoidheight><course>196.8</course><type>1</type></trkpt>
      <trkpt lat="40.57134288" lon="-4.8658932"><ele>2292</ele><speed>9.59</speed><time>2016-07-01T16:33:12Z</time><pdop>3.0</pdop><geoidheight>54.00</geoidheight><course>203.2</course><type>1</type></trkpt>
      <trkpt lat="40.57126968" lon="-4.86594437"><ele>2294</ele><speed>9.38</speed><time>2016-07-01T16:33:13Z</time><pdop>3.0</pdop><geoidheight>54.00</geoidheight><course>209.4</course><type>1</type></trkpt>
      <trkpt lat="40.57120354" lon="-4.86599927"><ele>2295</ele><speed>9.42</speed><time>2016-07-01T16:33:14Z</time><pdop>4.0</pdop><geoidheight>54.00</geoidheight><course>210.9</course><type>1</type></trkpt>
      <trkpt lat="40.57120464" lon="-4.86614633"><ele>2301</ele><speed>5.82</speed><time>2016-07-01T16:33:16Z</time><pdop>3.0</pdop><geoidheight>54.00</geoidheight><course>258.0</course><type>1</type></trkpt>
      <trkpt lat="40.57124092" lon="-4.86621081"><ele>2307</ele><speed>3.91</speed><time>2016-07-01T16:33:18Z</time><pdop>3.0</pdop><geoidheight>54.00</geoidheight><course>331.1</course><type>1</type></trkpt>
      <trkpt lat="40.57135778" lon="-4.86611948"><ele>2305</ele><speed>8.58</speed><time>2016-07-01T16:33:20Z</time><pdop>3.0</pdop><geoidheight>54.00</geoidheight><course>37.4</course><type>1</type></trkpt>
      <trkpt lat="40.57141973" lon="-4.86600301"><ele>2304</ele><speed>11.31</speed><time>2016-07-01T16:33:21Z</time><pdop>3.0</pdop><geoidheight>54.00</geoidheight><course>52.2</course><type>1</type></trkpt>
      <trkpt lat="40.57145516" lon="-4.86585815"><ele>2306</ele><speed>13.06</speed><time>2016-07-01T16:33:22Z</time><pdop>3.0</pdop><geoidheight>54.00</geoidheight><course>67.0</course><type>1</type></trkpt>
      <trkpt lat="40.57148945" lon="-4.86570954"><ele>2308</ele><speed>13.83</speed><time>2016-07-01T16:33:23Z</time><pdop>3.0</pdop><geoidheight>54.00</geoidheight><course>72.4</course><type>1</type></trkpt>
      <trkpt lat="40.57149832" lon="-4.86555178"><ele>2309</ele><speed>14.18</speed><time>2016-07-01T16:33:24Z</time><pdop>4.0</pdop><geoidheight>54.00</geoidheight><course>81.1</course><type>1</type></trkpt>
      <trkpt lat="40.57146394" lon="-4.86540259"><ele>2308</ele><speed>13.43</speed><time>2016-07-01T16:33:25Z</time><pdop>5.0</pdop><geoidheight>54.00</geoidheight><course>92.0</course><type>1</type></trkpt>
      <trkpt lat="40.57134171" lon="-4.86522872"><ele>2309</ele><speed>15.53</speed><time>2016-07-01T16:33:26Z</time><pdop>4.0</pdop><geoidheight>54.00</geoidheight><course>117.1</course><type>1</type></trkpt>
      <trkpt lat="40.57122127" lon="-4.86507895"><ele>2309</ele><speed>16.76</speed><time>2016-07-01T16:33:27Z</time><pdop>4.0</pdop><geoidheight>54.00</geoidheight><course>129.6</course><type>1</type></trkpt>
      <trkpt lat="40.57109785" lon="-4.86493759"><ele>2310</ele><speed>17.92</speed><time>2016-07-01T16:33:28Z</time><pdop>4.0</pdop><geoidheight>54.00</geoidheight><course>139.3</course><type>1</type></trkpt>
      <trkpt lat="40.5709657" lon="-4.86481597"><ele>2311</ele><speed>18.36</speed><time>2016-07-01T16:33:29Z</time><pdop>4.0</pdop><geoidheight>54.00</geoidheight><course>144.0</course><type>1</type></trkpt>
      <trkpt lat="40.57083687" lon="-4.86474485"><ele>2314</ele><speed>17.85</speed><time>2016-07-01T16:33:30Z</time><pdop>5.0</pdop><geoidheight>54.00</geoidheight><course>150.3</course><type>1</type></trkpt>
      <trkpt lat="40.57072276" lon="-4.86473296"><ele>2317</ele><speed>15.28</speed><time>2016-07-01T16:33:31Z</time><pdop>5.0</pdop><geoidheight>54.00</geoidheight><course>161.3</course><type>1</type></trkpt>
      <trkpt lat="40.57062613" lon="-4.86479698"><ele>2321</ele><speed>12.26</speed><time>2016-07-01T16:33:32Z</time><pdop>3.0</pdop><geoidheight>54.00</geoidheight><course>181.9</course><type>1</type></trkpt>
      <trkpt lat="40.57052508" lon="-4.8647912"><ele>2323</ele><speed>11.62</speed><time>2016-07-01T16:33:33Z</time><pdop>3.0</pdop><geoidheight>54.00</geoidheight><course>181.0</course><type>1</type></trkpt>
      <trkpt lat="40.5704324" lon="-4.86479323"><ele>2324</ele><speed>11.06</speed><time>2016-07-01T16:33:34Z</time><pdop>3.0</pdop><geoidheight>54.00</geoidheight><course>181.2</course><type>1</type></trkpt>
      <trkpt lat="40.57035536" lon="-4.86481269"><ele>2326</ele><speed>10.15</speed><time>2016-07-01T16:33:35Z</time><pdop>3.0</pdop><geoidheight>54.00</geoidheight><course>189.7</course><type>1</type></trkpt>
      <trkpt lat="40.57027133" lon="-4.8648489"><ele>2327</ele><speed>10.02</speed><time>2016-07-01T16:33:36Z</time><pdop>4.0</pdop><geoidheight>54.00</geoidheight><course>194.1</course><type>1</type></trkpt>
      <trkpt lat="40.57023391" lon="-4.86498775"><ele>2330</ele><speed>4.04</speed><time>2016-07-01T16:33:39Z</time><pdop>5.0</pdop><geoidheight>54.00</geoidheight><course>236.9</course><type>1</type></trkpt>
      <trkpt lat="40.57016818" lon="-4.86506912"><ele>2331</ele><speed>5.23</speed><time>2016-07-01T16:33:41Z</time><pdop>5.0</pdop><geoidheight>54.00</geoidheight><course>230.6</course><type>1</type></trkpt>
      <trkpt lat="40.57009809" lon="-4.86519669"><ele>2331</ele><speed>6.21</speed><time>2016-07-01T16:33:43Z</time><pdop>4.0</pdop><geoidheight>54.00</geoidheight><course>244.0</course><type>1</type></trkpt>
      <trkpt lat="40.57006573" lon="-4.86531599"><ele>2334</ele><speed>5.02</speed><time>2016-07-01T16:33:45Z</time><pdop>4.0</pdop><geoidheight>54.00</geoidheight><course>253.6</course><type>1</type></trkpt>
      <trkpt lat="40.57002615" lon="-4.86540824"><ele>2337</ele><speed>3.49</speed><time>2016-07-01T16:33:47Z</time><pdop>4.0</pdop><geoidheight>54.00</geoidheight><course>256.0</course><type>1</type></trkpt>
      <trkpt lat="40.57000299" lon="-4.8654901"><ele>2340</ele><speed>2.94</speed><time>2016-07-01T16:33:49Z</time><pdop>3.0</pdop><geoidheight>54.00</geoidheight><course>243.9</course><type>1</type></trkpt>
      <trkpt lat="40.56996191" lon="-4.86559052"><ele>2341</ele><speed>3.89</speed><time>2016-07-01T16:33:52Z</time><pdop>3.0</pdop><geoidheight>54.00</geoidheight><course>245.0</course><type>1</type></trkpt>
      <trkpt lat="40.56993749" lon="-4.86569224"><ele>2340</ele><speed>4.40</speed><time>2016-07-01T16:33:54Z</time><pdop>3.0</pdop><geoidheight>54.00</geoidheight><course>242.0</course><type>1</type></trkpt>
      <trkpt lat="40.56991376" lon="-4.86582636"><ele>2339</ele><speed>6.40</speed><time>2016-07-01T16:33:56Z</time><pdop>3.0</pdop><geoidheight>54.00</geoidheight><course>260.4</course><type>1</type></trkpt>
      <trkpt lat="40.56992596" lon="-4.86592334"><ele>2338</ele><speed>7.18</speed><time>2016-07-01T16:33:57Z</time><pdop>3.0</pdop><geoidheight>54.00</geoidheight><course>276.8</course><type>1</type></trkpt>
      <trkpt lat="40.56993783" lon="-4.86601411"><ele>2338</ele><speed>7.36</speed><time>2016-07-01T16:33:58Z</time><pdop>3.0</pdop><geoidheight>54.00</geoidheight><course>281.0</course><type>1</type></trkpt>
      <trkpt lat="40.56995071" lon="-4.86609161"><ele>2338</ele><speed>6.83</speed><time>2016-07-01T16:33:59Z</time><pdop>3.0</pdop><geoidheight>54.00</geoidheight><course>280.8</course><type>1</type></trkpt>
      <trkpt lat="40.56996341" lon="-4.86620347"><ele>2338</ele><speed>4.80</speed><time>2016-07-01T16:34:01Z</time><pdop>3.0</pdop><geoidheight>54.00</geoidheight><course>277.0</course><type>1</type></trkpt>
      <trkpt lat="40.56996543" lon="-4.86631557"><ele>2337</ele><speed>4.21</speed><time>2016-07-01T16:34:03Z</time><pdop>3.0</pdop><geoidheight>54.00</geoidheight><course>272.4</course><type>1</type></trkpt>
      <trkpt lat="40.56995259" lon="-4.86640528"><ele>2336</ele><speed>3.79</speed><time>2016-07-01T16:34:05Z</time><pdop>3.0</pdop><geoidheight>54.00</geoidheight><course>253.7</course><type>1</type></trkpt>
      <trkpt lat="40.56992574" lon="-4.86649899"><ele>2334</ele><speed>4.36</speed><time>2016-07-01T16:34:07Z</time><pdop>3.0</pdop><geoidheight>54.00</geoidheight><course>244.7</course><type>1</type></trkpt>
      <trkpt lat="40.56991105" lon="-4.86657009"><ele>2333</ele><speed>5.70</speed><time>2016-07-01T16:34:08Z</time><pdop>3.0</pdop><geoidheight>54.00</geoidheight><course>246.6</course><type>1</type></trkpt>
      <trkpt lat="40.56988961" lon="-4.86664766"><ele>2333</ele><speed>6.91</speed><time>2016-07-01T16:34:09Z</time><pdop>3.0</pdop><geoidheight>54.00</geoidheight><course>251.4</course><type>1</type></trkpt>
      <trkpt lat="40.56986443" lon="-4.86672869"><ele>2332</ele><speed>7.74</speed><time>2016-07-01T16:34:10Z</time><pdop>3.0</pdop><geoidheight>54.00</geoidheight><course>252.2</course><type>1</type></trkpt>
      <trkpt lat="40.56984775" lon="-4.86682207"><ele>2331</ele><speed>8.34</speed><time>2016-07-01T16:34:11Z</time><pdop>3.0</pdop><geoidheight>54.00</geoidheight><course>257.2</course><type>1</type></trkpt>
      <trkpt lat="40.5698376" lon="-4.86692069"><ele>2331</ele><speed>8.07</speed><time>2016-07-01T16:34:12Z</time><pdop>3.0</pdop><geoidheight>54.00</geoidheight><course>263.9</course><type>1</type></trkpt>
      <trkpt lat="40.56984594" lon="-4.86699871"><ele>2331</ele><speed>7.09</speed><time>2016-07-01T16:34:13Z</time><pdop>3.0</pdop><geoidheight>54.00</geoidheight><course>270.6</course><type>1</type></trkpt>
      <trkpt lat="40.56984904" lon="-4.86708479"><ele>2333</ele><speed>6.47</speed><time>2016-07-01T16:34:14Z</time><pdop>3.0</pdop><geoidheight>54.00</geoidheight><course>273.4</course><type>1</type></trkpt>
      <trkpt lat="40.5698505" lon="-4.86721619"><ele>2335</ele><speed>6.25</speed><time>2016-07-01T16:34:16Z</time><pdop>3.0</pdop><geoidheight>54.00</geoidheight><course>266.4</course><type>1</type></trkpt>
      <trkpt lat="40.5698553" lon="-4.8673602"><ele>2340</ele><speed>5.98</speed><time>2016-07-01T16:34:18Z</time><pdop>3.0</pdop><geoidheight>54.00</geoidheight><course>270.0</course><type>1</type></trkpt>
      <trkpt lat="40.56985696" lon="-4.86743694"><ele>2340</ele><speed>6.01</speed><time>2016-07-01T16:34:19Z</time><pdop>3.0</pdop><geoidheight>54.00</geoidheight><course>273.3</course><type>1</type></trkpt>
      <trkpt lat="40.56987117" lon="-4.86755961"><ele>2343</ele><speed>5.38</speed><time>2016-07-01T16:34:21Z</time><pdop>3.0</pdop><geoidheight>54.00</geoidheight><course>284.9</course><type>1</type></trkpt>
      <trkpt lat="40.56991006" lon="-4.86766229"><ele>2344</ele><speed>4.55</speed><time>2016-07-01T16:34:23Z</time><pdop>3.0</pdop><geoidheight>54.00</geoidheight><course>290.6</course><type>1</type></trkpt>
      <trkpt lat="40.56990737" lon="-4.86782735"><ele>2344</ele><speed>4.75</speed><time>2016-07-01T16:34:26Z</time><pdop>9.0</pdop><geoidheight>54.00</geoidheight><course>273.6</course><type>1</type></trkpt>
      <trkpt lat="40.56992479" lon="-4.86806518"><ele>2343</ele><speed>6.82</speed><time>2016-07-01T16:34:29Z</time><pdop>9.0</pdop><geoidheight>54.00</geoidheight><course>273.4</course><type>1</type></trkpt>
      <trkpt lat="40.56993774" lon="-4.86832556"><ele>2349</ele><speed>4.78</speed><time>2016-07-01T16:34:33Z</time><pdop>9.0</pdop><geoidheight>54.00</geoidheight><course>281.9</course><type>1</type></trkpt>
      <trkpt lat="40.56992364" lon="-4.86856121"><ele>2352</ele><speed>5.22</speed><time>2016-07-01T16:34:37Z</time><pdop>9.0</pdop><geoidheight>54.00</geoidheight><course>247.4</course><type>1</type></trkpt>
      <trkpt lat="40.5699018" lon="-4.86878935"><ele>2354</ele><speed>4.92</speed><time>2016-07-01T16:34:41Z</time><pdop>9.0</pdop><geoidheight>54.00</geoidheight><course>280.0</course><type>1</type></trkpt>
      <trkpt lat="40.56994543" lon="-4.86903124"><ele>2357</ele><speed>5.19</speed><time>2016-07-01T16:34:45Z</time><pdop>9.0</pdop><geoidheight>54.00</geoidheight><course>281.5</course><type>1</type></trkpt>
      <trkpt lat="40.56997033" lon="-4.8692449"><ele>2360</ele><speed>4.63</speed><time>2016-07-01T16:34:49Z</time><pdop>9.0</pdop><geoidheight>54.00</geoidheight><course>283.3</course><type>1</type></trkpt>
      <trkpt lat="40.5698882" lon="-4.86944948"><ele>2362</ele><speed>5.91</speed><time>2016-07-01T16:34:53Z</time><pdop>9.0</pdop><geoidheight>54.00</geoidheight><course>215.8</course><type>1</type></trkpt>
      <trkpt lat="40.56964637" lon="-4.86948207"><ele>2361</ele><speed>9.82</speed><time>2016-07-01T16:34:56Z</time><pdop>9.0</pdop><geoidheight>54.00</geoidheight><course>183.2</course><type>1</type></trkpt>
      <trkpt lat="40.56943175" lon="-4.86937263"><ele>2361</ele><speed>12.26</speed><time>2016-07-01T16:34:58Z</time><pdop>10.0</pdop><geoidheight>54.00</geoidheight><course>161.1</course><type>1</type></trkpt>
      <trkpt lat="40.56922268" lon="-4.86911801"><ele>2362</ele><speed>14.89</speed><time>2016-07-01T16:35:00Z</time><pdop>10.0</pdop><geoidheight>54.00</geoidheight><course>137.1</course><type>1</type></trkpt>
      <trkpt lat="40.56905197" lon="-4.86882303"><ele>2362</ele><speed>15.55</speed><time>2016-07-01T16:35:02Z</time><pdop>10.0</pdop><geoidheight>54.00</geoidheight><course>126.4</course><type>1</type></trkpt>
      <trkpt lat="40.56887754" lon="-4.8685158"><ele>2360</ele><speed>16.04</speed><time>2016-07-01T16:35:04Z</time><pdop>11.0</pdop><geoidheight>54.00</geoidheight><course>121.5</course><type>1</type></trkpt>
      <trkpt lat="40.56880711" lon="-4.868128"><ele>2360</ele><speed>16.52</speed><time>2016-07-01T16:35:06Z</time><pdop>11.0</pdop><geoidheight>54.00</geoidheight><course>107.6</course><type>1</type></trkpt>
      <trkpt lat="40.56883148" lon="-4.86772704"><ele>2360</ele><speed>16.03</speed><time>2016-07-01T16:35:08Z</time><pdop>10.0</pdop><geoidheight>54.00</geoidheight><course>93.9</course><type>1</type></trkpt>
      <trkpt lat="40.56891195" lon="-4.86739581"><ele>2361</ele><speed>14.31</speed><time>2016-07-01T16:35:10Z</time><pdop>11.0</pdop><geoidheight>54.00</geoidheight><course>80.4</course><type>1</type></trkpt>
      <trkpt lat="40.5690969" lon="-4.86729543"><ele>2361</ele><speed>9.86</speed><time>2016-07-01T16:35:12Z</time><pdop>10.0</pdop><geoidheight>54.00</geoidheight><course>39.6</course><type>1</type></trkpt>
      <trkpt lat="40.56927244" lon="-4.86725797"><ele>2362</ele><speed>8.73</speed><time>2016-07-01T16:35:14Z</time><pdop>9.0</pdop><geoidheight>54.00</geoidheight><course>14.6</course><type>1</type></trkpt>
      <trkpt lat="40.56943527" lon="-4.86726774"><ele>2365</ele><speed>5.01</speed><time>2016-07-01T16:35:17Z</time><pdop>9.0</pdop><geoidheight>54.00</geoidheight><course>345.8</course><type>1</type></trkpt>
      <trkpt lat="40.56960311" lon="-4.86741076"><ele>2363</ele><speed>4.45</speed><time>2016-07-01T16:35:22Z</time><pdop>9.0</pdop><geoidheight>54.00</geoidheight><course>318.0</course><type>1</type></trkpt>
      <trkpt lat="40.56966231" lon="-4.86762415"><ele>2360</ele><speed>4.93</speed><time>2016-07-01T16:35:26Z</time><pdop>9.0</pdop><geoidheight>54.00</geoidheight><course>281.2</course><type>1</type></trkpt>
      <trkpt lat="40.56970464" lon="-4.86789255"><ele>2357</ele><speed>6.76</speed><time>2016-07-01T16:35:30Z</time><pdop>9.0</pdop><geoidheight>54.00</geoidheight><course>278.9</course><type>1</type></trkpt>
      <trkpt lat="40.56973972" lon="-4.86813364"><ele>2357</ele><speed>6.62</speed><time>2016-07-01T16:35:33Z</time><pdop>9.0</pdop><geoidheight>54.00</geoidheight><course>285.6</course><type>1</type></trkpt>
      <trkpt lat="40.56981699" lon="-4.86838462"><ele>2355</ele><speed>5.31</speed><time>2016-07-01T16:35:37Z</time><pdop>9.0</pdop><geoidheight>54.00</geoidheight><course>295.6</course><type>1</type></trkpt>
      <trkpt lat="40.56987686" lon="-4.86861311"><ele>2350</ele><speed>5.23</speed><time>2016-07-01T16:35:41Z</time><pdop>9.0</pdop><geoidheight>54.00</geoidheight><course>275.6</course><type>1</type></trkpt>
      <trkpt lat="40.56989915" lon="-4.86889582"><ele>2343</ele><speed>7.54</speed><time>2016-07-01T16:35:45Z</time><pdop>9.0</pdop><geoidheight>54.00</geoidheight><course>282.6</course><type>1</type></trkpt>
      <trkpt lat="40.56995524" lon="-4.86911288"><ele>2339</ele><speed>9.74</speed><time>2016-07-01T16:35:47Z</time><pdop>9.0</pdop><geoidheight>54.00</geoidheight><course>287.1</course><type>1</type></trkpt>
      <trkpt lat="40.57001411" lon="-4.86932437"><ele>2340</ele><speed>9.12</speed><time>2016-07-01T16:35:49Z</time><pdop>9.0</pdop><geoidheight>54.00</geoidheight><course>289.1</course><type>1</type></trkpt>
      <trkpt lat="40.57007606" lon="-4.86954722"><ele>2345</ele><speed>6.36</speed><time>2016-07-01T16:35:52Z</time><pdop>9.0</pdop><geoidheight>54.00</geoidheight><course>290.7</course><type>1</type></trkpt>
      <trkpt lat="40.57017055" lon="-4.86975813"><ele>2346</ele><speed>5.75</speed><time>2016-07-01T16:35:56Z</time><pdop>9.0</pdop><geoidheight>54.00</geoidheight><course>310.8</course><type>1</type></trkpt>
      <trkpt lat="40.57025427" lon="-4.86985418"><ele>2346</ele><speed>5.73</speed><time>2016-07-01T16:35:58Z</time><pdop>3.0</pdop><geoidheight>54.00</geoidheight><course>319.7</course><type>1</type></trkpt>
      <trkpt lat="40.57033755" lon="-4.86994948"><ele>2344</ele><speed>6.11</speed><time>2016-07-01T16:36:00Z</time><pdop>3.0</pdop><geoidheight>54.00</geoidheight><course>317.1</course><type>1</type></trkpt>
      <trkpt lat="40.57037987" lon="-4.8700017"><ele>2343</ele><speed>6.51</speed><time>2016-07-01T16:36:01Z</time><pdop>3.0</pdop><geoidheight>54.00</geoidheight><course>314.2</course><type>1</type></trkpt>
      <trkpt lat="40.5704197" lon="-4.87005551"><ele>2342</ele><speed>6.39</speed><time>2016-07-01T16:36:02Z</time><pdop>3.0</pdop><geoidheight>54.00</geoidheight><course>314.1</course><type>1</type></trkpt>
      <trkpt lat="40.57048957" lon="-4.8701676"><ele>2344</ele><speed>6.15</speed><time>2016-07-01T16:36:04Z</time><pdop>3.0</pdop><geoidheight>54.00</geoidheight><course>308.3</course><type>1</type></trkpt>
      <trkpt lat="40.57055916" lon="-4.87026773"><ele>2344</ele><speed>5.93</speed><time>2016-07-01T16:36:06Z</time><pdop>3.0</pdop><geoidheight>54.00</geoidheight><course>316.8</course><type>1</type></trkpt>
      <trkpt lat="40.57064377" lon="-4.87037518"><ele>2344</ele><speed>6.33</speed><time>2016-07-01T16:36:08Z</time><pdop>3.0</pdop><geoidheight>54.00</geoidheight><course>317.7</course><type>1</type></trkpt>
      <trkpt lat="40.5707155" lon="-4.87048149"><ele>2346</ele><speed>6.44</speed><time>2016-07-01T16:36:10Z</time><pdop>3.0</pdop><geoidheight>54.00</geoidheight><course>315.1</course><type>1</type></trkpt>
      <trkpt lat="40.57075818" lon="-4.87054357"><ele>2346</ele><speed>6.72</speed><time>2016-07-01T16:36:11Z</time><pdop>3.0</pdop><geoidheight>54.00</geoidheight><course>313.0</course><type>1</type></trkpt>
      <trkpt lat="40.57083999" lon="-4.87065931"><ele>2348</ele><speed>6.20</speed><time>2016-07-01T16:36:13Z</time><pdop>3.0</pdop><geoidheight>54.00</geoidheight><course>305.5</course><type>1</type></trkpt>
      <trkpt lat="40.5708994" lon="-4.87077912"><ele>2349</ele><speed>6.05</speed><time>2016-07-01T16:36:15Z</time><pdop>3.0</pdop><geoidheight>54.00</geoidheight><course>302.2</course><type>1</type></trkpt>
      <trkpt lat="40.57093012" lon="-4.87084984"><ele>2348</ele><speed>6.38</speed><time>2016-07-01T16:36:16Z</time><pdop>3.0</pdop><geoidheight>54.00</geoidheight><course>302.0</course><type>1</type></trkpt>
      <trkpt lat="40.5709518" lon="-4.8709219"><ele>2347</ele><speed>6.38</speed><time>2016-07-01T16:36:17Z</time><pdop>3.0</pdop><geoidheight>54.00</geoidheight><course>298.2</course><type>1</type></trkpt>
      <trkpt lat="40.57098398" lon="-4.8709861"><ele>2347</ele><speed>6.50</speed><time>2016-07-01T16:36:18Z</time><pdop>3.0</pdop><geoidheight>54.00</geoidheight><course>300.1</course><type>1</type></trkpt>
      <trkpt lat="40.57106068" lon="-4.87108709"><ele>2347</ele><speed>6.41</speed><time>2016-07-01T16:36:20Z</time><pdop>3.0</pdop><geoidheight>54.00</geoidheight><course>309.6</course><type>1</type></trkpt>
      <trkpt lat="40.57109408" lon="-4.87114993"><ele>2349</ele><speed>5.94</speed><time>2016-07-01T16:36:21Z</time><pdop>3.0</pdop><geoidheight>54.00</geoidheight><course>311.9</course><type>1</type></trkpt>
      <trkpt lat="40.57116512" lon="-4.87124266"><ele>2346</ele><speed>5.69</speed><time>2016-07-01T16:36:23Z</time><pdop>4.0</pdop><geoidheight>54.00</geoidheight><course>309.3</course><type>1</type></trkpt>
      <trkpt lat="40.57122971" lon="-4.8713576"><ele>2346</ele><speed>6.26</speed><time>2016-07-01T16:36:25Z</time><pdop>3.0</pdop><geoidheight>54.00</geoidheight><course>301.6</course><type>1</type></trkpt>
      <trkpt lat="40.57129778" lon="-4.87147787"><ele>2346</ele><speed>6.43</speed><time>2016-07-01T16:36:27Z</time><pdop>3.0</pdop><geoidheight>54.00</geoidheight><course>311.4</course><type>1</type></trkpt>
      <trkpt lat="40.57133836" lon="-4.87153559"><ele>2346</ele><speed>5.76</speed><time>2016-07-01T16:36:28Z</time><pdop>3.0</pdop><geoidheight>54.00</geoidheight><course>313.2</course><type>1</type></trkpt>
      <trkpt lat="40.57140214" lon="-4.87165278"><ele>2345</ele><speed>6.49</speed><time>2016-07-01T16:36:30Z</time><pdop>4.0</pdop><geoidheight>54.00</geoidheight><course>300.8</course><type>1</type></trkpt>
      <trkpt lat="40.57144795" lon="-4.87180637"><ele>2345</ele><speed>7.49</speed><time>2016-07-01T16:36:32Z</time><pdop>5.0</pdop><geoidheight>54.00</geoidheight><course>293.6</course><type>1</type></trkpt>
      <trkpt lat="40.57152402" lon="-4.87194179"><ele>2345</ele><speed>7.13</speed><time>2016-07-01T16:36:34Z</time><pdop>6.0</pdop><geoidheight>54.00</geoidheight><course>304.0</course><type>1</type></trkpt>
      <trkpt lat="40.57161035" lon="-4.87207251"><ele>2344</ele><speed>7.27</speed><time>2016-07-01T16:36:36Z</time><pdop>3.0</pdop><geoidheight>54.00</geoidheight><course>319.0</course><type>1</type></trkpt>
      <trkpt lat="40.5716545" lon="-4.87213573"><ele>2344</ele><speed>7.18</speed><time>2016-07-01T16:36:37Z</time><pdop>4.0</pdop><geoidheight>54.00</geoidheight><course>315.6</course><type>1</type></trkpt>
      <trkpt lat="40.57169202" lon="-4.87220432"><ele>2344</ele><speed>7.18</speed><time>2016-07-01T16:36:38Z</time><pdop>3.0</pdop><geoidheight>54.00</geoidheight><course>310.9</course><type>1</type></trkpt>
      <trkpt lat="40.57172936" lon="-4.87227559"><ele>2344</ele><speed>7.24</speed><time>2016-07-01T16:36:39Z</time><pdop>4.0</pdop><geoidheight>54.00</geoidheight><course>303.0</course><type>1</type></trkpt>
      <trkpt lat="40.5717984" lon="-4.87242219"><ele>2341</ele><speed>7.00</speed><time>2016-07-01T16:36:41Z</time><pdop>4.0</pdop><geoidheight>54.00</geoidheight><course>302.3</course><type>1</type></trkpt>
      <trkpt lat="40.57184512" lon="-4.87251016"><ele>2340</ele><speed>8.51</speed><time>2016-07-01T16:36:42Z</time><pdop>4.0</pdop><geoidheight>54.00</geoidheight><course>300.8</course><type>1</type></trkpt>
      <trkpt lat="40.57188403" lon="-4.87257916"><ele>2338</ele><speed>8.64</speed><time>2016-07-01T16:36:43Z</time><pdop>3.0</pdop><geoidheight>54.00</geoidheight><course>303.0</course><type>1</type></trkpt>
      <trkpt lat="40.57192147" lon="-4.87267222"><ele>2335</ele><speed>8.75</speed><time>2016-07-01T16:36:44Z</time><pdop>3.0</pdop><geoidheight>54.00</geoidheight><course>296.6</course><type>1</type></trkpt>
      <trkpt lat="40.57195559" lon="-4.87276162"><ele>2333</ele><speed>8.57</speed><time>2016-07-01T16:36:45Z</time><pdop>4.0</pdop><geoidheight>54.00</geoidheight><course>296.6</course><type>1</type></trkpt>
      <trkpt lat="40.57197292" lon="-4.87286353"><ele>2330</ele><speed>7.68</speed><time>2016-07-01T16:36:46Z</time><pdop>3.0</pdop><geoidheight>54.00</geoidheight><course>285.5</course><type>1</type></trkpt>
      <trkpt lat="40.57199297" lon="-4.8729434"><ele>2329</ele><speed>7.08</speed><time>2016-07-01T16:36:47Z</time><pdop>4.0</pdop><geoidheight>54.00</geoidheight><course>291.5</course><type>1</type></trkpt>
      <trkpt lat="40.57202844" lon="-4.87305616"><ele>2326</ele><speed>5.62</speed><time>2016-07-01T16:36:49Z</time><pdop>4.0</pdop><geoidheight>54.00</geoidheight><course>301.1</course><type>1</type></trkpt>
      <trkpt lat="40.5720646" lon="-4.87318759"><ele>2326</ele><speed>6.10</speed><time>2016-07-01T16:36:51Z</time><pdop>5.0</pdop><geoidheight>54.00</geoidheight><course>289.1</course><type>1</type></trkpt>
      <trkpt lat="40.57212055" lon="-4.87335918"><ele>2323</ele><speed>7.87</speed><time>2016-07-01T16:36:53Z</time><pdop>5.0</pdop><geoidheight>54.00</geoidheight><course>296.4</course><type>1</type></trkpt>
      <trkpt lat="40.57217196" lon="-4.87351639"><ele>2322</ele><speed>7.42</speed><time>2016-07-01T16:36:55Z</time><pdop>5.0</pdop><geoidheight>54.00</geoidheight><course>295.1</course><type>1</type></trkpt>
      <trkpt lat="40.57220197" lon="-4.87366408"><ele>2318</ele><speed>7.05</speed><time>2016-07-01T16:36:57Z</time><pdop>4.0</pdop><geoidheight>54.00</geoidheight><course>281.8</course><type>1</type></trkpt>
      <trkpt lat="40.57224329" lon="-4.87384136"><ele>2314</ele><speed>7.99</speed><time>2016-07-01T16:36:59Z</time><pdop>4.0</pdop><geoidheight>54.00</geoidheight><course>286.5</course><type>1</type></trkpt>
      <trkpt lat="40.57226355" lon="-4.87394372"><ele>2313</ele><speed>8.39</speed><time>2016-07-01T16:37:00Z</time><pdop>4.0</pdop><geoidheight>54.00</geoidheight><course>285.3</course><type>1</type></trkpt>
      <trkpt lat="40.57228082" lon="-4.87405133"><ele>2311</ele><speed>8.68</speed><time>2016-07-01T16:37:01Z</time><pdop>5.0</pdop><geoidheight>54.00</geoidheight><course>282.6</course><type>1</type></trkpt>
      <trkpt lat="40.5722775" lon="-4.87422318"><ele>2304</ele><speed>7.63</speed><time>2016-07-01T16:37:03Z</time><pdop>4.0</pdop><geoidheight>54.00</geoidheight><course>269.6</course><type>1</type></trkpt>
      <trkpt lat="40.57227182" lon="-4.87439325"><ele>2298</ele><speed>8.18</speed><time>2016-07-01T16:37:05Z</time><pdop>5.0</pdop><geoidheight>54.00</geoidheight><course>271.7</course><type>1</type></trkpt>
      <trkpt lat="40.57229093" lon="-4.87460746"><ele>2293</ele><speed>10.60</speed><time>2016-07-01T16:37:07Z</time><pdop>6.0</pdop><geoidheight>54.00</geoidheight><course>272.9</course><type>1</type></trkpt>
      <trkpt lat="40.57231238" lon="-4.87482741"><ele>2287</ele><speed>10.24</speed><time>2016-07-01T16:37:09Z</time><pdop>6.0</pdop><geoidheight>54.00</geoidheight><course>276.6</course><type>1</type></trkpt>
      <trkpt lat="40.5723748" lon="-4.87500689"><ele>2280</ele><speed>8.40</speed><time>2016-07-01T16:37:11Z</time><pdop>4.0</pdop><geoidheight>54.00</geoidheight><course>284.3</course><type>1</type></trkpt>
      <trkpt lat="40.57240057" lon="-4.87519565"><ele>2275</ele><speed>8.75</speed><time>2016-07-01T16:37:13Z</time><pdop>4.0</pdop><geoidheight>54.00</geoidheight><course>281.1</course><type>1</type></trkpt>
      <trkpt lat="40.57241474" lon="-4.87529651"><ele>2272</ele><speed>9.50</speed><time>2016-07-01T16:37:14Z</time><pdop>4.0</pdop><geoidheight>54.00</geoidheight><course>278.2</course><type>1</type></trkpt>
      <trkpt lat="40.57242082" lon="-4.87541627"><ele>2270</ele><speed>9.86</speed><time>2016-07-01T16:37:15Z</time><pdop>4.0</pdop><geoidheight>54.00</geoidheight><course>276.3</course><type>1</type></trkpt>
      <trkpt lat="40.57244722" lon="-4.87554153"><ele>2268</ele><speed>10.47</speed><time>2016-07-01T16:37:16Z</time><pdop>5.0</pdop><geoidheight>54.00</geoidheight><course>280.6</course><type>1</type></trkpt>
      <trkpt lat="40.5724901" lon="-4.87563195"><ele>2263</ele><speed>9.55</speed><time>2016-07-01T16:37:17Z</time><pdop>4.0</pdop><geoidheight>54.00</geoidheight><course>290.7</course><type>1</type></trkpt>
      <trkpt lat="40.57252571" lon="-4.87572347"><ele>2260</ele><speed>8.70</speed><time>2016-07-01T16:37:18Z</time><pdop>4.0</pdop><geoidheight>54.00</geoidheight><course>295.5</course><type>1</type></trkpt>
      <trkpt lat="40.57258074" lon="-4.87589021"><ele>2256</ele><speed>7.59</speed><time>2016-07-01T16:37:20Z</time><pdop>4.0</pdop><geoidheight>54.00</geoidheight><course>288.1</course><type>1</type></trkpt>
      <trkpt lat="40.5725942" lon="-4.87597545"><ele>2252</ele><speed>8.05</speed><time>2016-07-01T16:37:21Z</time><pdop>3.0</pdop><geoidheight>54.00</geoidheight><course>279.2</course><type>1</type></trkpt>
      <trkpt lat="40.57260497" lon="-4.87607417"><ele>2249</ele><speed>8.84</speed><time>2016-07-01T16:37:22Z</time><pdop>3.0</pdop><geoidheight>54.00</geoidheight><course>278.2</course><type>1</type></trkpt>
      <trkpt lat="40.57263162" lon="-4.87618095"><ele>2245</ele><speed>9.32</speed><time>2016-07-01T16:37:23Z</time><pdop>3.0</pdop><geoidheight>54.00</geoidheight><course>283.6</course><type>1</type></trkpt>
      <trkpt lat="40.5726554" lon="-4.87628851"><ele>2242</ele><speed>9.47</speed><time>2016-07-01T16:37:24Z</time><pdop>3.0</pdop><geoidheight>54.00</geoidheight><course>287.2</course><type>1</type></trkpt>
      <trkpt lat="40.57267857" lon="-4.87639803"><ele>2241</ele><speed>9.48</speed><time>2016-07-01T16:37:25Z</time><pdop>3.0</pdop><geoidheight>54.00</geoidheight><course>287.2</course><type>1</type></trkpt>
      <trkpt lat="40.57269935" lon="-4.87650763"><ele>2238</ele><speed>9.43</speed><time>2016-07-01T16:37:26Z</time><pdop>3.0</pdop><geoidheight>54.00</geoidheight><course>285.8</course><type>1</type></trkpt>
      <trkpt lat="40.5727254" lon="-4.87660807"><ele>2236</ele><speed>9.59</speed><time>2016-07-01T16:37:27Z</time><pdop>3.0</pdop><geoidheight>54.00</geoidheight><course>285.8</course><type>1</type></trkpt>
      <trkpt lat="40.57275344" lon="-4.87671613"><ele>2234</ele><speed>9.89</speed><time>2016-07-01T16:37:28Z</time><pdop>3.0</pdop><geoidheight>54.00</geoidheight><course>287.4</course><type>1</type></trkpt>
      <trkpt lat="40.57278804" lon="-4.87683643"><ele>2231</ele><speed>10.55</speed><time>2016-07-01T16:37:29Z</time><pdop>3.0</pdop><geoidheight>54.00</geoidheight><course>288.3</course><type>1</type></trkpt>
      <trkpt lat="40.57281639" lon="-4.87694116"><ele>2227</ele><speed>10.68</speed><time>2016-07-01T16:37:30Z</time><pdop>3.0</pdop><geoidheight>54.00</geoidheight><course>288.5</course><type>1</type></trkpt>
      <trkpt lat="40.57284975" lon="-4.87706248"><ele>2225</ele><speed>10.94</speed><time>2016-07-01T16:37:31Z</time><pdop>3.0</pdop><geoidheight>54.00</geoidheight><course>288.1</course><type>1</type></trkpt>
      <trkpt lat="40.572878" lon="-4.87715753"><ele>2221</ele><speed>10.34</speed><time>2016-07-01T16:37:32Z</time><pdop>3.0</pdop><geoidheight>54.00</geoidheight><course>292.6</course><type>1</type></trkpt>
      <trkpt lat="40.57291361" lon="-4.87726953"><ele>2220</ele><speed>10.28</speed><time>2016-07-01T16:37:33Z</time><pdop>4.0</pdop><geoidheight>54.00</geoidheight><course>292.6</course><type>1</type></trkpt>
      <trkpt lat="40.57296967" lon="-4.87736699"><ele>2218</ele><speed>9.89</speed><time>2016-07-01T16:37:34Z</time><pdop>3.0</pdop><geoidheight>54.00</geoidheight><course>301.2</course><type>1</type></trkpt>
      <trkpt lat="40.57301534" lon="-4.87745203"><ele>2216</ele><speed>8.97</speed><time>2016-07-01T16:37:35Z</time><pdop>3.0</pdop><geoidheight>54.00</geoidheight><course>301.4</course><type>1</type></trkpt>
      <trkpt lat="40.57305725" lon="-4.87754211"><ele>2216</ele><speed>8.94</speed><time>2016-07-01T16:37:36Z</time><pdop>5.0</pdop><geoidheight>54.00</geoidheight><course>301.4</course><type>1</type></trkpt>
      <trkpt lat="40.57310097" lon="-4.87771368"><ele>2210</ele><speed>8.29</speed><time>2016-07-01T16:37:38Z</time><pdop>5.0</pdop><geoidheight>54.00</geoidheight><course>291.7</course><type>1</type></trkpt>
      <trkpt lat="40.57317462" lon="-4.87789447"><ele>2204</ele><speed>9.17</speed><time>2016-07-01T16:37:40Z</time><pdop>5.0</pdop><geoidheight>54.00</geoidheight><course>291.3</course><type>1</type></trkpt>
      <trkpt lat="40.57322307" lon="-4.87812066"><ele>2202</ele><speed>9.66</speed><time>2016-07-01T16:37:42Z</time><pdop>9.0</pdop><geoidheight>54.00</geoidheight><course>288.2</course><type>1</type></trkpt>
      <trkpt lat="40.57332189" lon="-4.87832729"><ele>2197</ele><speed>9.33</speed><time>2016-07-01T16:37:44Z</time><pdop>5.0</pdop><geoidheight>54.00</geoidheight><course>292.9</course><type>1</type></trkpt>
      <trkpt lat="40.57338342" lon="-4.87853109"><ele>2193</ele><speed>9.08</speed><time>2016-07-01T16:37:46Z</time><pdop>5.0</pdop><geoidheight>54.00</geoidheight><course>291.4</course><type>1</type></trkpt>
      <trkpt lat="40.57340075" lon="-4.87863698"><ele>2186</ele><speed>10.81</speed><time>2016-07-01T16:37:47Z</time><pdop>4.0</pdop><geoidheight>54.00</geoidheight><course>283.2</course><type>1</type></trkpt>
      <trkpt lat="40.57342825" lon="-4.878762"><ele>2183</ele><speed>11.85</speed><time>2016-07-01T16:37:48Z</time><pdop>4.0</pdop><geoidheight>54.00</geoidheight><course>283.6</course><type>1</type></trkpt>
      <trkpt lat="40.57344515" lon="-4.8788867"><ele>2181</ele><speed>12.17</speed><time>2016-07-01T16:37:49Z</time><pdop>4.0</pdop><geoidheight>54.00</geoidheight><course>283.9</course><type>1</type></trkpt>
      <trkpt lat="40.57347361" lon="-4.87902773"><ele>2179</ele><speed>12.43</speed><time>2016-07-01T16:37:50Z</time><pdop>5.0</pdop><geoidheight>54.00</geoidheight><course>288.5</course><type>1</type></trkpt>
      <trkpt lat="40.57350844" lon="-4.87915546"><ele>2176</ele><speed>11.55</speed><time>2016-07-01T16:37:51Z</time><pdop>5.0</pdop><geoidheight>54.00</geoidheight><course>292.9</course><type>1</type></trkpt>
      <trkpt lat="40.5735486" lon="-4.87928021"><ele>2175</ele><speed>11.49</speed><time>2016-07-01T16:37:52Z</time><pdop>6.0</pdop><geoidheight>54.00</geoidheight><course>292.9</course><type>1</type></trkpt>
      <trkpt lat="40.57364272" lon="-4.87947586"><ele>2168</ele><speed>9.55</speed><time>2016-07-01T16:37:54Z</time><pdop>5.0</pdop><geoidheight>54.00</geoidheight><course>290.7</course><type>1</type></trkpt>
      <trkpt lat="40.57368668" lon="-4.87969858"><ele>2158</ele><speed>10.71</speed><time>2016-07-01T16:37:56Z</time><pdop>5.0</pdop><geoidheight>54.00</geoidheight><course>285.8</course><type>1</type></trkpt>
      <trkpt lat="40.57371787" lon="-4.87981065"><ele>2154</ele><speed>11.56</speed><time>2016-07-01T16:37:57Z</time><pdop>5.0</pdop><geoidheight>54.00</geoidheight><course>287.5</course><type>1</type></trkpt>
      <trkpt lat="40.57375789" lon="-4.8799502"><ele>2149</ele><speed>13.01</speed><time>2016-07-01T16:37:58Z</time><pdop>5.0</pdop><geoidheight>54.00</geoidheight><course>292.7</course><type>1</type></trkpt>
      <trkpt lat="40.57382003" lon="-4.88007522"><ele>2145</ele><speed>13.17</speed><time>2016-07-01T16:37:59Z</time><pdop>5.0</pdop><geoidheight>54.00</geoidheight><course>292.1</course><type>1</type></trkpt>
      <trkpt lat="40.57386813" lon="-4.88021102"><ele>2143</ele><speed>11.98</speed><time>2016-07-01T16:38:00Z</time><pdop>5.0</pdop><geoidheight>54.00</geoidheight><course>289.0</course><type>1</type></trkpt>
      <trkpt lat="40.57390313" lon="-4.88034434"><ele>2142</ele><speed>11.94</speed><time>2016-07-01T16:38:01Z</time><pdop>6.0</pdop><geoidheight>54.00</geoidheight><course>289.0</course><type>1</type></trkpt>
      <trkpt lat="40.57394358" lon="-4.88046727"><ele>2141</ele><speed>10.85</speed><time>2016-07-01T16:38:02Z</time><pdop>5.0</pdop><geoidheight>54.00</geoidheight><course>287.2</course><type>1</type></trkpt>
      <trkpt lat="40.57397169" lon="-4.88058165"><ele>2139</ele><speed>10.14</speed><time>2016-07-01T16:38:03Z</time><pdop>5.0</pdop><geoidheight>54.00</geoidheight><course>291.7</course><type>1</type></trkpt>
      <trkpt lat="40.57400468" lon="-4.88069543"><ele>2137</ele><speed>10.53</speed><time>2016-07-01T16:38:04Z</time><pdop>5.0</pdop><geoidheight>54.00</geoidheight><course>292.2</course><type>1</type></trkpt>
      <trkpt lat="40.57406421" lon="-4.88089691"><ele>2131</ele><speed>9.82</speed><time>2016-07-01T16:38:06Z</time><pdop>5.0</pdop><geoidheight>54.00</geoidheight><course>292.0</course><type>1</type></trkpt>
      <trkpt lat="40.57410244" lon="-4.88102362"><ele>2127</ele><speed>11.29</speed><time>2016-07-01T16:38:07Z</time><pdop>4.0</pdop><geoidheight>54.00</geoidheight><course>295.0</course><type>1</type></trkpt>
      <trkpt lat="40.57415818" lon="-4.88112229"><ele>2122</ele><speed>11.54</speed><time>2016-07-01T16:38:08Z</time><pdop>4.0</pdop><geoidheight>54.00</geoidheight><course>297.4</course><type>1</type></trkpt>
      <trkpt lat="40.57420541" lon="-4.88124205"><ele>2121</ele><speed>11.44</speed><time>2016-07-01T16:38:09Z</time><pdop>6.0</pdop><geoidheight>54.00</geoidheight><course>297.3</course><type>1</type></trkpt>
      <trkpt lat="40.5742401" lon="-4.88137076"><ele>2119</ele><speed>11.33</speed><time>2016-07-01T16:38:10Z</time><pdop>4.0</pdop><geoidheight>54.00</geoidheight><course>291.0</course><type>1</type></trkpt>
      <trkpt lat="40.57427605" lon="-4.88149396"><ele>2118</ele><speed>11.22</speed><time>2016-07-01T16:38:11Z</time><pdop>6.0</pdop><geoidheight>54.00</geoidheight><course>290.9</course><type>1</type></trkpt>
      <trkpt lat="40.57430885" lon="-4.88160542"><ele>2114</ele><speed>10.37</speed><time>2016-07-01T16:38:12Z</time><pdop>4.0</pdop><geoidheight>54.00</geoidheight><course>298.1</course><type>1</type></trkpt>
      <trkpt lat="40.57435139" lon="-4.88172029"><ele>2111</ele><speed>10.62</speed><time>2016-07-01T16:38:13Z</time><pdop>5.0</pdop><geoidheight>54.00</geoidheight><course>299.1</course><type>1</type></trkpt>
      <trkpt lat="40.57442743" lon="-4.8819369"><ele>2106</ele><speed>11.57</speed><time>2016-07-01T16:38:15Z</time><pdop>5.0</pdop><geoidheight>54.00</geoidheight><course>295.7</course><type>1</type></trkpt>
      <trkpt lat="40.57448014" lon="-4.88205302"><ele>2102</ele><speed>12.05</speed><time>2016-07-01T16:38:16Z</time><pdop>5.0</pdop><geoidheight>54.00</geoidheight><course>296.6</course><type>1</type></trkpt>
      <trkpt lat="40.57452221" lon="-4.88218833"><ele>2099</ele><speed>12.32</speed><time>2016-07-01T16:38:17Z</time><pdop>5.0</pdop><geoidheight>54.00</geoidheight><course>295.7</course><type>1</type></trkpt>
      <trkpt lat="40.57456895" lon="-4.88231538"><ele>2098</ele><speed>12.41</speed><time>2016-07-01T16:38:18Z</time><pdop>5.0</pdop><geoidheight>54.00</geoidheight><course>296.5</course><type>1</type></trkpt>
      <trkpt lat="40.57461401" lon="-4.88243996"><ele>2095</ele><speed>12.00</speed><time>2016-07-01T16:38:19Z</time><pdop>4.0</pdop><geoidheight>54.00</geoidheight><course>296.2</course><type>1</type></trkpt>
      <trkpt lat="40.5746612" lon="-4.88256572"><ele>2094</ele><speed>11.90</speed><time>2016-07-01T16:38:20Z</time><pdop>6.0</pdop><geoidheight>54.00</geoidheight><course>296.2</course><type>1</type></trkpt>
      <trkpt lat="40.57470251" lon="-4.88268064"><ele>2092</ele><speed>11.04</speed><time>2016-07-01T16:38:21Z</time><pdop>4.0</pdop><geoidheight>54.00</geoidheight><course>295.6</course><type>1</type></trkpt>
      <trkpt lat="40.57474951" lon="-4.88279577"><ele>2090</ele><speed>11.27</speed><time>2016-07-01T16:38:22Z</time><pdop>4.0</pdop><geoidheight>54.00</geoidheight><course>296.2</course><type>1</type></trkpt>
      <trkpt lat="40.57479857" lon="-4.88291041"><ele>2087</ele><speed>11.58</speed><time>2016-07-01T16:38:23Z</time><pdop>4.0</pdop><geoidheight>54.00</geoidheight><course>296.1</course><type>1</type></trkpt>
      <trkpt lat="40.57483895" lon="-4.88302355"><ele>2086</ele><speed>11.74</speed><time>2016-07-01T16:38:24Z</time><pdop>4.0</pdop><geoidheight>54.00</geoidheight><course>295.3</course><type>1</type></trkpt>
      <trkpt lat="40.57488403" lon="-4.883148"><ele>2085</ele><speed>11.68</speed><time>2016-07-01T16:38:25Z</time><pdop>6.0</pdop><geoidheight>54.00</geoidheight><course>295.4</course><type>1</type></trkpt>
      <trkpt lat="40.57492543" lon="-4.88326818"><ele>2081</ele><speed>11.97</speed><time>2016-07-01T16:38:26Z</time><pdop>5.0</pdop><geoidheight>54.00</geoidheight><course>294.9</course><type>1</type></trkpt>
      <trkpt lat="40.57497134" lon="-4.88339283"><ele>2078</ele><speed>11.88</speed><time>2016-07-01T16:38:27Z</time><pdop>5.0</pdop><geoidheight>54.00</geoidheight><course>297.3</course><type>1</type></trkpt>
      <trkpt lat="40.57501806" lon="-4.8835091"><ele>2075</ele><speed>11.73</speed><time>2016-07-01T16:38:28Z</time><pdop>5.0</pdop><geoidheight>54.00</geoidheight><course>298.0</course><type>1</type></trkpt>
      <trkpt lat="40.57511732" lon="-4.8837277"><ele>2068</ele><speed>11.88</speed><time>2016-07-01T16:38:30Z</time><pdop>5.0</pdop><geoidheight>54.00</geoidheight><course>295.3</course><type>1</type></trkpt>
      <trkpt lat="40.57517575" lon="-4.88385416"><ele>2064</ele><speed>12.50</speed><time>2016-07-01T16:38:31Z</time><pdop>5.0</pdop><geoidheight>54.00</geoidheight><course>298.1</course><type>1</type></trkpt>
      <trkpt lat="40.57522857" lon="-4.88398807"><ele>2062</ele><speed>12.57</speed><time>2016-07-01T16:38:32Z</time><pdop>4.0</pdop><geoidheight>54.00</geoidheight><course>295.9</course><type>1</type></trkpt>
      <trkpt lat="40.57526324" lon="-4.88411296"><ele>2060</ele><speed>12.34</speed><time>2016-07-01T16:38:33Z</time><pdop>4.0</pdop><geoidheight>54.00</geoidheight><course>292.6</course><type>1</type></trkpt>
      <trkpt lat="40.57529888" lon="-4.88423662"><ele>2060</ele><speed>10.62</speed><time>2016-07-01T16:38:34Z</time><pdop>4.0</pdop><geoidheight>54.00</geoidheight><course>294.6</course><type>1</type></trkpt>
      <trkpt lat="40.57532728" lon="-4.88432895"><ele>2061</ele><speed>8.51</speed><time>2016-07-01T16:38:35Z</time><pdop>4.0</pdop><geoidheight>54.00</geoidheight><course>292.5</course><type>1</type></trkpt>
      <trkpt lat="40.57536952" lon="-4.88450367"><ele>2064</ele><speed>6.92</speed><time>2016-07-01T16:38:37Z</time><pdop>4.0</pdop><geoidheight>54.00</geoidheight><course>279.4</course><type>1</type></trkpt>
      <trkpt lat="40.57536674" lon="-4.88466167"><ele>2064</ele><speed>6.44</speed><time>2016-07-01T16:38:39Z</time><pdop>4.0</pdop><geoidheight>54.00</geoidheight><course>275.3</course><type>1</type></trkpt>
      <trkpt lat="40.57536885" lon="-4.88475772"><ele>2065</ele><speed>7.62</speed><time>2016-07-01T16:38:40Z</time><pdop>4.0</pdop><geoidheight>54.00</geoidheight><course>276.1</course><type>1</type></trkpt>
      <trkpt lat="40.57539266" lon="-4.88487172"><ele>2064</ele><speed>8.57</speed><time>2016-07-01T16:38:41Z</time><pdop>4.0</pdop><geoidheight>54.00</geoidheight><course>277.9</course><type>1</type></trkpt>
      <trkpt lat="40.57541002" lon="-4.88496079"><ele>2066</ele><speed>8.50</speed><time>2016-07-01T16:38:42Z</time><pdop>3.0</pdop><geoidheight>54.00</geoidheight><course>278.5</course><type>1</type></trkpt>
      <trkpt lat="40.57540716" lon="-4.8850482"><ele>2066</ele><speed>8.05</speed><time>2016-07-01T16:38:43Z</time><pdop>3.0</pdop><geoidheight>54.00</geoidheight><course>273.9</course><type>1</type></trkpt>
      <trkpt lat="40.57541211" lon="-4.88514303"><ele>2066</ele><speed>8.05</speed><time>2016-07-01T16:38:44Z</time><pdop>4.0</pdop><geoidheight>54.00</geoidheight><course>273.9</course><type>1</type></trkpt>
      <trkpt lat="40.57541646" lon="-4.88524065"><ele>2065</ele><speed>8.68</speed><time>2016-07-01T16:38:45Z</time><pdop>3.0</pdop><geoidheight>54.00</geoidheight><course>275.5</course><type>1</type></trkpt>
      <trkpt lat="40.57543267" lon="-4.8853113"><ele>2063</ele><speed>8.52</speed><time>2016-07-01T16:38:46Z</time><pdop>3.0</pdop><geoidheight>54.00</geoidheight><course>277.3</course><type>1</type></trkpt>
      <trkpt lat="40.57544235" lon="-4.88541061"><ele>2063</ele><speed>8.48</speed><time>2016-07-01T16:38:47Z</time><pdop>5.0</pdop><geoidheight>54.00</geoidheight><course>277.3</course><type>1</type></trkpt>
      <trkpt lat="40.57545599" lon="-4.88559189"><ele>2064</ele><speed>7.95</speed><time>2016-07-01T16:38:49Z</time><pdop>4.0</pdop><geoidheight>54.00</geoidheight><course>274.1</course><type>1</type></trkpt>
      <trkpt lat="40.57546305" lon="-4.8857005"><ele>2064</ele><speed>8.43</speed><time>2016-07-01T16:38:50Z</time><pdop>4.0</pdop><geoidheight>54.00</geoidheight><course>276.6</course><type>1</type></trkpt>
      <trkpt lat="40.57548341" lon="-4.8858013"><ele>2062</ele><speed>8.82</speed><time>2016-07-01T16:38:51Z</time><pdop>3.0</pdop><geoidheight>54.00</geoidheight><course>279.1</course><type>1</type></trkpt>
      <trkpt lat="40.57549593" lon="-4.88590424"><ele>2062</ele><speed>8.82</speed><time>2016-07-01T16:38:52Z</time><pdop>4.0</pdop><geoidheight>54.00</geoidheight><course>279.1</course><type>1</type></trkpt>
      <trkpt lat="40.57552121" lon="-4.88600448"><ele>2064</ele><speed>8.94</speed><time>2016-07-01T16:38:53Z</time><pdop>3.0</pdop><geoidheight>54.00</geoidheight><course>283.8</course><type>1</type></trkpt>
      <trkpt lat="40.57554144" lon="-4.88611029"><ele>2064</ele><speed>9.45</speed><time>2016-07-01T16:38:54Z</time><pdop>3.0</pdop><geoidheight>54.00</geoidheight><course>280.0</course><type>1</type></trkpt>
      <trkpt lat="40.57555139" lon="-4.88622675"><ele>2065</ele><speed>10.17</speed><time>2016-07-01T16:38:55Z</time><pdop>4.0</pdop><geoidheight>54.00</geoidheight><course>274.4</course><type>1</type></trkpt>
      <trkpt lat="40.57555054" lon="-4.88635445"><ele>2066</ele><speed>10.80</speed><time>2016-07-01T16:38:56Z</time><pdop>4.0</pdop><geoidheight>54.00</geoidheight><course>270.5</course><type>1</type></trkpt>
      <trkpt lat="40.57554467" lon="-4.88645896"><ele>2068</ele><speed>10.18</speed><time>2016-07-01T16:38:57Z</time><pdop>4.0</pdop><geoidheight>54.00</geoidheight><course>269.1</course><type>1</type></trkpt>
      <trkpt lat="40.57553522" lon="-4.88657941"><ele>2070</ele><speed>10.03</speed><time>2016-07-01T16:38:58Z</time><pdop>4.0</pdop><geoidheight>54.00</geoidheight><course>263.7</course><type>1</type></trkpt>
      <trkpt lat="40.57552058" lon="-4.88669341"><ele>2071</ele><speed>9.94</speed><time>2016-07-01T16:38:59Z</time><pdop>4.0</pdop><geoidheight>54.00</geoidheight><course>261.0</course><type>1</type></trkpt>
      <trkpt lat="40.57550143" lon="-4.88680128"><ele>2071</ele><speed>9.39</speed><time>2016-07-01T16:39:00Z</time><pdop>4.0</pdop><geoidheight>54.00</geoidheight><course>259.0</course><type>1</type></trkpt>
      <trkpt lat="40.57549032" lon="-4.88690716"><ele>2073</ele><speed>8.54</speed><time>2016-07-01T16:39:01Z</time><pdop>4.0</pdop><geoidheight>54.00</geoidheight><course>260.9</course><type>1</type></trkpt>
      <trkpt lat="40.57547947" lon="-4.88700423"><ele>2074</ele><speed>7.80</speed><time>2016-07-01T16:39:02Z</time><pdop>4.0</pdop><geoidheight>54.00</geoidheight><course>267.1</course><type>1</type></trkpt>
      <trkpt lat="40.5754903" lon="-4.8871935"><ele>2075</ele><speed>6.88</speed><time>2016-07-01T16:39:04Z</time><pdop>5.0</pdop><geoidheight>54.00</geoidheight><course>278.1</course><type>1</type></trkpt>
      <trkpt lat="40.57552755" lon="-4.88736541"><ele>2075</ele><speed>7.89</speed><time>2016-07-01T16:39:06Z</time><pdop>4.0</pdop><geoidheight>54.00</geoidheight><course>290.5</course><type>1</type></trkpt>
      <trkpt lat="40.57558697" lon="-4.88759715"><ele>2071</ele><speed>11.03</speed><time>2016-07-01T16:39:08Z</time><pdop>4.0</pdop><geoidheight>54.00</geoidheight><course>291.4</course><type>1</type></trkpt>
      <trkpt lat="40.57563118" lon="-4.88771342"><ele>2069</ele><speed>11.96</speed><time>2016-07-01T16:39:09Z</time><pdop>4.0</pdop><geoidheight>54.00</geoidheight><course>289.4</course><type>1</type></trkpt>
      <trkpt lat="40.57565884" lon="-4.88784657"><ele>2067</ele><speed>12.42</speed><time>2016-07-01T16:39:10Z</time><pdop>4.0</pdop><geoidheight>54.00</geoidheight><course>288.5</course><type>1</type></trkpt>
      <trkpt lat="40.57570642" lon="-4.88797627"><ele>2065</ele><speed>12.46</speed><time>2016-07-01T16:39:11Z</time><pdop>4.0</pdop><geoidheight>54.00</geoidheight><course>286.0</course><type>1</type></trkpt>
      <trkpt lat="40.57573477" lon="-4.88811574"><ele>2064</ele><speed>11.48</speed><time>2016-07-01T16:39:12Z</time><pdop>4.0</pdop><geoidheight>54.00</geoidheight><course>287.6</course><type>1</type></trkpt>
      <trkpt lat="40.57576598" lon="-4.88824497"><ele>2064</ele><speed>11.48</speed><time>2016-07-01T16:39:13Z</time><pdop>5.0</pdop><geoidheight>54.00</geoidheight><course>287.6</course><type>1</type></trkpt>
      <trkpt lat="40.57579956" lon="-4.88836773"><ele>2065</ele><speed>11.42</speed><time>2016-07-01T16:39:14Z</time><pdop>4.0</pdop><geoidheight>54.00</geoidheight><course>290.6</course><type>1</type></trkpt>
      <trkpt lat="40.57584632" lon="-4.88848045"><ele>2063</ele><speed>11.51</speed><time>2016-07-01T16:39:15Z</time><pdop>4.0</pdop><geoidheight>54.00</geoidheight><course>293.3</course><type>1</type></trkpt>
      <trkpt lat="40.57588112" lon="-4.88861846"><ele>2062</ele><speed>11.79</speed><time>2016-07-01T16:39:16Z</time><pdop>4.0</pdop><geoidheight>54.00</geoidheight><course>289.2</course><type>1</type></trkpt>
      <trkpt lat="40.57591674" lon="-4.88875183"><ele>2061</ele><speed>11.84</speed><time>2016-07-01T16:39:17Z</time><pdop>4.0</pdop><geoidheight>54.00</geoidheight><course>291.3</course><type>1</type></trkpt>
      <trkpt lat="40.5759594" lon="-4.88887042"><ele>2061</ele><speed>11.49</speed><time>2016-07-01T16:39:18Z</time><pdop>5.0</pdop><geoidheight>54.00</geoidheight><course>293.7</course><type>1</type></trkpt>
      <trkpt lat="40.57600428" lon="-4.88899525"><ele>2060</ele><speed>11.88</speed><time>2016-07-01T16:39:19Z</time><pdop>4.0</pdop><geoidheight>54.00</geoidheight><course>297.1</course><type>1</type></trkpt>
      <trkpt lat="40.57605308" lon="-4.88912025"><ele>2060</ele><speed>11.89</speed><time>2016-07-01T16:39:20Z</time><pdop>6.0</pdop><geoidheight>54.00</geoidheight><course>297.1</course><type>1</type></trkpt>
      <trkpt lat="40.57613385" lon="-4.88934753"><ele>2056</ele><speed>11.92</speed><time>2016-07-01T16:39:22Z</time><pdop>4.0</pdop><geoidheight>54.00</geoidheight><course>295.7</course><type>1</type></trkpt>
      <trkpt lat="40.57619516" lon="-4.88948039"><ele>2054</ele><speed>12.88</speed><time>2016-07-01T16:39:23Z</time><pdop>4.0</pdop><geoidheight>54.00</geoidheight><course>298.0</course><type>1</type></trkpt>
      <trkpt lat="40.57625146" lon="-4.88961526"><ele>2054</ele><speed>12.71</speed><time>2016-07-01T16:39:24Z</time><pdop>4.0</pdop><geoidheight>54.00</geoidheight><course>299.8</course><type>1</type></trkpt>
      <trkpt lat="40.57630834" lon="-4.88974557"><ele>2054</ele><speed>12.71</speed><time>2016-07-01T16:39:25Z</time><pdop>5.0</pdop><geoidheight>54.00</geoidheight><course>299.8</course><type>1</type></trkpt>
      <trkpt lat="40.5763519" lon="-4.88986823"><ele>2054</ele><speed>11.46</speed><time>2016-07-01T16:39:26Z</time><pdop>4.0</pdop><geoidheight>54.00</geoidheight><course>298.2</course><type>1</type></trkpt>
      <trkpt lat="40.57640077" lon="-4.88997774"><ele>2053</ele><speed>10.68</speed><time>2016-07-01T16:39:27Z</time><pdop>4.0</pdop><geoidheight>54.00</geoidheight><course>299.3</course><type>1</type></trkpt>
      <trkpt lat="40.57643566" lon="-4.89006622"><ele>2051</ele><speed>10.50</speed><time>2016-07-01T16:39:28Z</time><pdop>4.0</pdop><geoidheight>54.00</geoidheight><course>302.2</course><type>1</type></trkpt>
      <trkpt lat="40.57648639" lon="-4.8901806"><ele>2047</ele><speed>11.88</speed><time>2016-07-01T16:39:29Z</time><pdop>4.0</pdop><geoidheight>54.00</geoidheight><course>298.0</course><type>1</type></trkpt>
      <trkpt lat="40.57652841" lon="-4.89030558"><ele>2044</ele><speed>12.98</speed><time>2016-07-01T16:39:30Z</time><pdop>4.0</pdop><geoidheight>54.00</geoidheight><course>295.0</course><type>1</type></trkpt>
      <trkpt lat="40.57657699" lon="-4.89044834"><ele>2043</ele><speed>13.64</speed><time>2016-07-01T16:39:31Z</time><pdop>5.0</pdop><geoidheight>54.00</geoidheight><course>295.9</course><type>1</type></trkpt>
      <trkpt lat="40.57663022" lon="-4.89059242"><ele>2042</ele><speed>13.57</speed><time>2016-07-01T16:39:32Z</time><pdop>6.0</pdop><geoidheight>54.00</geoidheight><course>295.9</course><type>1</type></trkpt>
      <trkpt lat="40.57670909" lon="-4.89071195"><ele>2042</ele><speed>12.51</speed><time>2016-07-01T16:39:33Z</time><pdop>5.0</pdop><geoidheight>54.00</geoidheight><course>305.5</course><type>1</type></trkpt>
      <trkpt lat="40.57676556" lon="-4.89082067"><ele>2040</ele><speed>11.73</speed><time>2016-07-01T16:39:34Z</time><pdop>5.0</pdop><geoidheight>54.00</geoidheight><course>304.1</course><type>1</type></trkpt>
      <trkpt lat="40.57682565" lon="-4.89094154"><ele>2038</ele><speed>11.86</speed><time>2016-07-01T16:39:35Z</time><pdop>5.0</pdop><geoidheight>54.00</geoidheight><course>301.2</course><type>1</type></trkpt>
      <trkpt lat="40.57686718" lon="-4.89105576"><ele>2037</ele><speed>12.46</speed><time>2016-07-01T16:39:36Z</time><pdop>5.0</pdop><geoidheight>54.00</geoidheight><course>299.6</course><type>1</type></trkpt>
      <trkpt lat="40.57692637" lon="-4.89118223"><ele>2035</ele><speed>12.28</speed><time>2016-07-01T16:39:37Z</time><pdop>5.0</pdop><geoidheight>54.00</geoidheight><course>302.0</course><type>1</type></trkpt>
      <trkpt lat="40.57696949" lon="-4.89129339"><ele>2031</ele><speed>12.16</speed><time>2016-07-01T16:39:38Z</time><pdop>4.0</pdop><geoidheight>54.00</geoidheight><course>296.1</course><type>1</type></trkpt>
      <trkpt lat="40.57701494" lon="-4.89142393"><ele>2028</ele><speed>11.67</speed><time>2016-07-01T16:39:39Z</time><pdop>5.0</pdop><geoidheight>54.00</geoidheight><course>293.7</course><type>1</type></trkpt>
      <trkpt lat="40.57705619" lon="-4.89154774"><ele>2026</ele><speed>11.52</speed><time>2016-07-01T16:39:40Z</time><pdop>6.0</pdop><geoidheight>54.00</geoidheight><course>293.6</course><type>1</type></trkpt>
      <trkpt lat="40.57710417" lon="-4.89168131"><ele>2020</ele><speed>12.05</speed><time>2016-07-01T16:39:41Z</time><pdop>4.0</pdop><geoidheight>54.00</geoidheight><course>288.2</course><type>1</type></trkpt>
      <trkpt lat="40.57713443" lon="-4.89180021"><ele>2019</ele><speed>11.09</speed><time>2016-07-01T16:39:42Z</time><pdop>4.0</pdop><geoidheight>54.00</geoidheight><course>287.9</course><type>1</type></trkpt>
      <trkpt lat="40.57716268" lon="-4.89191272"><ele>2019</ele><speed>10.25</speed><time>2016-07-01T16:39:43Z</time><pdop>4.0</pdop><geoidheight>54.00</geoidheight><course>285.5</course><type>1</type></trkpt>
      <trkpt lat="40.57718384" lon="-4.89202689"><ele>2018</ele><speed>9.99</speed><time>2016-07-01T16:39:44Z</time><pdop>5.0</pdop><geoidheight>54.00</geoidheight><course>285.8</course><type>1</type></trkpt>
      <trkpt lat="40.57723106" lon="-4.89222056"><ele>2013</ele><speed>8.59</speed><time>2016-07-01T16:39:46Z</time><pdop>4.0</pdop><geoidheight>54.00</geoidheight><course>287.0</course><type>1</type></trkpt>
      <trkpt lat="40.5772517" lon="-4.89232313"><ele>2009</ele><speed>9.83</speed><time>2016-07-01T16:39:47Z</time><pdop>4.0</pdop><geoidheight>54.00</geoidheight><course>280.6</course><type>1</type></trkpt>
      <trkpt lat="40.57726706" lon="-4.89243323"><ele>2007</ele><speed>9.62</speed><time>2016-07-01T16:39:48Z</time><pdop>5.0</pdop><geoidheight>54.00</geoidheight><course>280.4</course><type>1</type></trkpt>
      <trkpt lat="40.57726891" lon="-4.89258935"><ele>2006</ele><speed>11.58</speed><time>2016-07-01T16:39:49Z</time><pdop>6.0</pdop><geoidheight>54.00</geoidheight><course>274.8</course><type>1</type></trkpt>
      <trkpt lat="40.57731205" lon="-4.89274074"><ele>2004</ele><speed>12.52</speed><time>2016-07-01T16:39:50Z</time><pdop>6.0</pdop><geoidheight>54.00</geoidheight><course>278.9</course><type>1</type></trkpt>
      <trkpt lat="40.57734309" lon="-4.89288633"><ele>2003</ele><speed>11.85</speed><time>2016-07-01T16:39:51Z</time><pdop>5.0</pdop><geoidheight>54.00</geoidheight><course>283.1</course><type>1</type></trkpt>
      <trkpt lat="40.57738014" lon="-4.89299913"><ele>2001</ele><speed>11.04</speed><time>2016-07-01T16:39:52Z</time><pdop>5.0</pdop><geoidheight>54.00</geoidheight><course>285.1</course><type>1</type></trkpt>
      <trkpt lat="40.57739844" lon="-4.89312257"><ele>2000</ele><speed>9.21</speed><time>2016-07-01T16:39:53Z</time><pdop>5.0</pdop><geoidheight>54.00</geoidheight><course>284.1</course><type>1</type></trkpt>
      <trkpt lat="40.5774151" lon="-4.89322709"><ele>1998</ele><speed>8.62</speed><time>2016-07-01T16:39:54Z</time><pdop>4.0</pdop><geoidheight>54.00</geoidheight><course>280.6</course><type>1</type></trkpt>
      <trkpt lat="40.57741908" lon="-4.89332418"><ele>1994</ele><speed>9.98</speed><time>2016-07-01T16:39:55Z</time><pdop>4.0</pdop><geoidheight>54.00</geoidheight><course>279.6</course><type>1</type></trkpt>
      <trkpt lat="40.57742564" lon="-4.89344169"><ele>1988</ele><speed>11.53</speed><time>2016-07-01T16:39:56Z</time><pdop>4.0</pdop><geoidheight>54.00</geoidheight><course>281.8</course><type>1</type></trkpt>
      <trkpt lat="40.57745265" lon="-4.89357178"><ele>1983</ele><speed>12.85</speed><time>2016-07-01T16:39:57Z</time><pdop>4.0</pdop><geoidheight>54.00</geoidheight><course>285.0</course><type>1</type></trkpt>
      <trkpt lat="40.57748921" lon="-4.89369774"><ele>1976</ele><speed>13.23</speed><time>2016-07-01T16:39:58Z</time><pdop>4.0</pdop><geoidheight>54.00</geoidheight><course>286.9</course><type>1</type></trkpt>
      <trkpt lat="40.57752699" lon="-4.89383466"><ele>1970</ele><speed>13.11</speed><time>2016-07-01T16:39:59Z</time><pdop>4.0</pdop><geoidheight>54.00</geoidheight><course>287.1</course><type>1</type></trkpt>
      <trkpt lat="40.57756292" lon="-4.89398397"><ele>1968</ele><speed>12.45</speed><time>2016-07-01T16:40:00Z</time><pdop>4.0</pdop><geoidheight>54.00</geoidheight><course>285.6</course><type>1</type></trkpt>
      <trkpt lat="40.57759821" lon="-4.89411231"><ele>1967</ele><speed>11.84</speed><time>2016-07-01T16:40:01Z</time><pdop>4.0</pdop><geoidheight>54.00</geoidheight><course>286.5</course><type>1</type></trkpt>
      <trkpt lat="40.57763577" lon="-4.89423778"><ele>1964</ele><speed>10.83</speed><time>2016-07-01T16:40:02Z</time><pdop>4.0</pdop><geoidheight>54.00</geoidheight><course>288.2</course><type>1</type></trkpt>
      <trkpt lat="40.57767661" lon="-4.8943437"><ele>1962</ele><speed>10.54</speed><time>2016-07-01T16:40:03Z</time><pdop>4.0</pdop><geoidheight>54.00</geoidheight><course>290.0</course><type>1</type></trkpt>
      <trkpt lat="40.57770885" lon="-4.89445966"><ele>1961</ele><speed>10.48</speed><time>2016-07-01T16:40:04Z</time><pdop>5.0</pdop><geoidheight>54.00</geoidheight><course>290.0</course><type>1</type></trkpt>
      <trkpt lat="40.5777805" lon="-4.89464796"><ele>1950</ele><speed>10.63</speed><time>2016-07-01T16:40:06Z</time><pdop>4.0</pdop><geoidheight>54.00</geoidheight><course>292.3</course><type>1</type></trkpt>
      <trkpt lat="40.57783411" lon="-4.89475632"><ele>1945</ele><speed>12.43</speed><time>2016-07-01T16:40:07Z</time><pdop>4.0</pdop><geoidheight>54.00</geoidheight><course>287.4</course><type>1</type></trkpt>
      <trkpt lat="40.57785941" lon="-4.89489683"><ele>1944</ele><speed>12.28</speed><time>2016-07-01T16:40:08Z</time><pdop>3.0</pdop><geoidheight>54.00</geoidheight><course>284.7</course><type>1</type></trkpt>
      <trkpt lat="40.57788115" lon="-4.89502289"><ele>1942</ele><speed>11.45</speed><time>2016-07-01T16:40:09Z</time><pdop>3.0</pdop><geoidheight>54.00</geoidheight><course>286.1</course><type>1</type></trkpt>
      <trkpt lat="40.57790658" lon="-4.89515229"><ele>1941</ele><speed>11.55</speed><time>2016-07-01T16:40:10Z</time><pdop>3.0</pdop><geoidheight>54.00</geoidheight><course>282.7</course><type>1</type></trkpt>
      <trkpt lat="40.57792944" lon="-4.89528495"><ele>1941</ele><speed>11.52</speed><time>2016-07-01T16:40:11Z</time><pdop>5.0</pdop><geoidheight>54.00</geoidheight><course>282.7</course><type>1</type></trkpt>
      <trkpt lat="40.57795323" lon="-4.89540642"><ele>1938</ele><speed>11.04</speed><time>2016-07-01T16:40:12Z</time><pdop>5.0</pdop><geoidheight>54.00</geoidheight><course>283.4</course><type>1</type></trkpt>
      <trkpt lat="40.57796359" lon="-4.89554777"><ele>1937</ele><speed>11.89</speed><time>2016-07-01T16:40:13Z</time><pdop>6.0</pdop><geoidheight>54.00</geoidheight><course>278.6</course><type>1</type></trkpt>
      <trkpt lat="40.57798725" lon="-4.89579348"><ele>1934</ele><speed>11.20</speed><time>2016-07-01T16:40:15Z</time><pdop>6.0</pdop><geoidheight>54.00</geoidheight><course>279.7</course><type>1</type></trkpt>
      <trkpt lat="40.57802869" lon="-4.89599773"><ele>1929</ele><speed>9.95</speed><time>2016-07-01T16:40:17Z</time><pdop>5.0</pdop><geoidheight>54.00</geoidheight><course>288.7</course><type>1</type></trkpt>
      <trkpt lat="40.57808706" lon="-4.89622287"><ele>1927</ele><speed>9.44</speed><time>2016-07-01T16:40:19Z</time><pdop>5.0</pdop><geoidheight>54.00</geoidheight><course>284.8</course><type>1</type></trkpt>
      <trkpt lat="40.57811119" lon="-4.89642199"><ele>1925</ele><speed>7.38</speed><time>2016-07-01T16:40:21Z</time><pdop>5.0</pdop><geoidheight>54.00</geoidheight><course>288.8</course><type>1</type></trkpt>
      <trkpt lat="40.57818804" lon="-4.89653443"><ele>1921</ele><speed>6.87</speed><time>2016-07-01T16:40:23Z</time><pdop>5.0</pdop><geoidheight>54.00</geoidheight><course>313.6</course><type>1</type></trkpt>
      <trkpt lat="40.57825785" lon="-4.89667887"><ele>1919</ele><speed>7.37</speed><time>2016-07-01T16:40:25Z</time><pdop>5.0</pdop><geoidheight>54.00</geoidheight><course>297.6</course><type>1</type></trkpt>
      <trkpt lat="40.57828558" lon="-4.89679705"><ele>1914</ele><speed>9.32</speed><time>2016-07-01T16:40:26Z</time><pdop>5.0</pdop><geoidheight>54.00</geoidheight><course>289.3</course><type>1</type></trkpt>
      <trkpt lat="40.57833909" lon="-4.89698587"><ele>1909</ele><speed>8.89</speed><time>2016-07-01T16:40:28Z</time><pdop>4.0</pdop><geoidheight>54.00</geoidheight><course>287.9</course><type>1</type></trkpt>
      <trkpt lat="40.57838945" lon="-4.89716057"><ele>1903</ele><speed>7.97</speed><time>2016-07-01T16:40:30Z</time><pdop>5.0</pdop><geoidheight>54.00</geoidheight><course>296.7</course><type>1</type></trkpt>
      <trkpt lat="40.57844722" lon="-4.89735024"><ele>1898</ele><speed>8.41</speed><time>2016-07-01T16:40:32Z</time><pdop>5.0</pdop><geoidheight>54.00</geoidheight><course>293.4</course><type>1</type></trkpt>
      <trkpt lat="40.57850636" lon="-4.89751178"><ele>1894</ele><speed>8.24</speed><time>2016-07-01T16:40:34Z</time><pdop>5.0</pdop><geoidheight>54.00</geoidheight><course>300.2</course><type>1</type></trkpt>
      <trkpt lat="40.57858279" lon="-4.89766514"><ele>1894</ele><speed>7.06</speed><time>2016-07-01T16:40:36Z</time><pdop>5.0</pdop><geoidheight>54.00</geoidheight><course>302.4</course><type>1</type></trkpt>
      <trkpt lat="40.57864113" lon="-4.89779159"><ele>1893</ele><speed>6.10</speed><time>2016-07-01T16:40:38Z</time><pdop>5.0</pdop><geoidheight>54.00</geoidheight><course>298.8</course><type>1</type></trkpt>
      <trkpt lat="40.57868903" lon="-4.89792677"><ele>1891</ele><speed>5.42</speed><time>2016-07-01T16:40:40Z</time><pdop>4.0</pdop><geoidheight>54.00</geoidheight><course>289.0</course><type>1</type></trkpt>
      <trkpt lat="40.57871954" lon="-4.89804681"><ele>1888</ele><speed>5.52</speed><time>2016-07-01T16:40:42Z</time><pdop>4.0</pdop><geoidheight>54.00</geoidheight><course>285.0</course><type>1</type></trkpt>
      <trkpt lat="40.57874586" lon="-4.89817509"><ele>1883</ele><speed>6.93</speed><time>2016-07-01T16:40:44Z</time><pdop>5.0</pdop><geoidheight>54.00</geoidheight><course>281.9</course><type>1</type></trkpt>
      <trkpt lat="40.5787732" lon="-4.89834974"><ele>1879</ele><speed>8.29</speed><time>2016-07-01T16:40:46Z</time><pdop>4.0</pdop><geoidheight>54.00</geoidheight><course>288.3</course><type>1</type></trkpt>
      <trkpt lat="40.57881628" lon="-4.89849849"><ele>1877</ele><speed>5.92</speed><time>2016-07-01T16:40:48Z</time><pdop>4.0</pdop><geoidheight>54.00</geoidheight><course>295.4</course><type>1</type></trkpt>
      <trkpt lat="40.57885669" lon="-4.89860687"><ele>1871</ele><speed>5.38</speed><time>2016-07-01T16:40:50Z</time><pdop>6.0</pdop><geoidheight>54.00</geoidheight><course>302.1</course><type>1</type></trkpt>
      <trkpt lat="40.57891349" lon="-4.89874885"><ele>1860</ele><speed>8.53</speed><time>2016-07-01T16:40:52Z</time><pdop>5.0</pdop><geoidheight>54.00</geoidheight><course>291.3</course><type>1</type></trkpt>
      <trkpt lat="40.57896444" lon="-4.8989388"><ele>1850</ele><speed>11.07</speed><time>2016-07-01T16:40:54Z</time><pdop>5.0</pdop><geoidheight>54.00</geoidheight><course>283.1</course><type>1</type></trkpt>
      <trkpt lat="40.57898551" lon="-4.89906912"><ele>1844</ele><speed>11.35</speed><time>2016-07-01T16:40:55Z</time><pdop>5.0</pdop><geoidheight>54.00</geoidheight><course>281.2</course><type>1</type></trkpt>
      <trkpt lat="40.57902359" lon="-4.89931664"><ele>1839</ele><speed>10.55</speed><time>2016-07-01T16:40:57Z</time><pdop>4.0</pdop><geoidheight>54.00</geoidheight><course>283.9</course><type>1</type></trkpt>
      <trkpt lat="40.57904626" lon="-4.89943652"><ele>1838</ele><speed>10.48</speed><time>2016-07-01T16:40:58Z</time><pdop>5.0</pdop><geoidheight>54.00</geoidheight><course>283.9</course><type>1</type></trkpt>
      <trkpt lat="40.57907341" lon="-4.89954375"><ele>1835</ele><speed>9.98</speed><time>2016-07-01T16:40:59Z</time><pdop>4.0</pdop><geoidheight>54.00</geoidheight><course>289.7</course><type>1</type></trkpt>
      <trkpt lat="40.57910338" lon="-4.89965369"><ele>1834</ele><speed>9.90</speed><time>2016-07-01T16:41:00Z</time><pdop>5.0</pdop><geoidheight>54.00</geoidheight><course>289.7</course><type>1</type></trkpt>
      <trkpt lat="40.57913727" lon="-4.89975049"><ele>1833</ele><speed>8.32</speed><time>2016-07-01T16:41:01Z</time><pdop>3.0</pdop><geoidheight>54.00</geoidheight><course>293.4</course><type>1</type></trkpt>
      <trkpt lat="40.57916698" lon="-4.89984042"><ele>1832</ele><speed>8.31</speed><time>2016-07-01T16:41:02Z</time><pdop>5.0</pdop><geoidheight>54.00</geoidheight><course>293.4</course><type>1</type></trkpt>
      <trkpt lat="40.57920593" lon="-4.89993379"><ele>1828</ele><speed>9.85</speed><time>2016-07-01T16:41:03Z</time><pdop>3.0</pdop><geoidheight>54.00</geoidheight><course>295.4</course><type>1</type></trkpt>
      <trkpt lat="40.57923356" lon="-4.90003797"><ele>1826</ele><speed>10.59</speed><time>2016-07-01T16:41:04Z</time><pdop>4.0</pdop><geoidheight>54.00</geoidheight><course>290.6</course><type>1</type></trkpt>
      <trkpt lat="40.57926687" lon="-4.90015443"><ele>1826</ele><speed>10.54</speed><time>2016-07-01T16:41:05Z</time><pdop>5.0</pdop><geoidheight>54.00</geoidheight><course>290.6</course><type>1</type></trkpt>
      <trkpt lat="40.57928178" lon="-4.90029409"><ele>1826</ele><speed>5.07</speed><time>2016-07-01T16:41:07Z</time><pdop>6.0</pdop><geoidheight>54.00</geoidheight><course>289.8</course><type>1</type></trkpt>
      <trkpt lat="40.5793207" lon="-4.90045506"><ele>1822</ele><speed>3.81</speed><time>2016-07-01T16:41:11Z</time><pdop>7.0</pdop><geoidheight>54.00</geoidheight><course>283.2</course><type>1</type></trkpt>
      <trkpt lat="40.57935861" lon="-4.90065839"><ele>1820</ele><speed>9.69</speed><time>2016-07-01T16:41:13Z</time><pdop>10.0</pdop><geoidheight>54.00</geoidheight><course>278.7</course><type>1</type></trkpt>
      <trkpt lat="40.57938087" lon="-4.90089657"><ele>1824</ele><speed>9.17</speed><time>2016-07-01T16:41:15Z</time><pdop>10.0</pdop><geoidheight>54.00</geoidheight><course>274.8</course><type>1</type></trkpt>
      <trkpt lat="40.57936337" lon="-4.90112029"><ele>1830</ele><speed>3.52</speed><time>2016-07-01T16:41:19Z</time><pdop>9.0</pdop><geoidheight>54.00</geoidheight><course>256.3</course><type>1</type></trkpt>
      <trkpt lat="40.57928211" lon="-4.90136152"><ele>1827</ele><speed>5.17</speed><time>2016-07-01T16:41:25Z</time><pdop>9.0</pdop><geoidheight>54.00</geoidheight><course>237.0</course><type>1</type></trkpt>
      <trkpt lat="40.57922225" lon="-4.90158513"><ele>1823</ele><speed>5.15</speed><time>2016-07-01T16:41:29Z</time><pdop>9.0</pdop><geoidheight>54.00</geoidheight><course>274.8</course><type>1</type></trkpt>
      <trkpt lat="40.5791907" lon="-4.90183529"><ele>1821</ele><speed>5.76</speed><time>2016-07-01T16:41:33Z</time><pdop>9.0</pdop><geoidheight>54.00</geoidheight><course>243.8</course><type>1</type></trkpt>
      <trkpt lat="40.57911505" lon="-4.90203552"><ele>1818</ele><speed>5.41</speed><time>2016-07-01T16:41:36Z</time><pdop>9.0</pdop><geoidheight>54.00</geoidheight><course>250.8</course><type>1</type></trkpt>
      <trkpt lat="40.57903024" lon="-4.90226171"><ele>1814</ele><speed>6.29</speed><time>2016-07-01T16:41:40Z</time><pdop>9.0</pdop><geoidheight>54.00</geoidheight><course>243.3</course><type>1</type></trkpt>
      <trkpt lat="40.57899119" lon="-4.90248705"><ele>1812</ele><speed>6.62</speed><time>2016-07-01T16:41:43Z</time><pdop>9.0</pdop><geoidheight>54.00</geoidheight><course>265.4</course><type>1</type></trkpt>
      <trkpt lat="40.57898765" lon="-4.90271741"><ele>1807</ele><speed>5.16</speed><time>2016-07-01T16:41:47Z</time><pdop>4.0</pdop><geoidheight>54.00</geoidheight><course>277.8</course><type>1</type></trkpt>
      <trkpt lat="40.57902773" lon="-4.90284153"><ele>1805</ele><speed>5.62</speed><time>2016-07-01T16:41:49Z</time><pdop>4.0</pdop><geoidheight>54.00</geoidheight><course>287.0</course><type>1</type></trkpt>
      <trkpt lat="40.579038" lon="-4.90301415"><ele>1803</ele><speed>7.09</speed><time>2016-07-01T16:41:51Z</time><pdop>4.0</pdop><geoidheight>54.00</geoidheight><course>271.1</course><type>1</type></trkpt>
      <trkpt lat="40.57902629" lon="-4.90318269"><ele>1800</ele><speed>6.78</speed><time>2016-07-01T16:41:53Z</time><pdop>3.0</pdop><geoidheight>54.00</geoidheight><course>263.0</course><type>1</type></trkpt>
      <trkpt lat="40.57902089" lon="-4.90333434"><ele>1798</ele><speed>6.60</speed><time>2016-07-01T16:41:55Z</time><pdop>4.0</pdop><geoidheight>54.00</geoidheight><course>269.3</course><type>1</type></trkpt>
      <trkpt lat="40.57904455" lon="-4.90350689"><ele>1791</ele><speed>8.78</speed><time>2016-07-01T16:41:57Z</time><pdop>3.0</pdop><geoidheight>54.00</geoidheight><course>282.0</course><type>1</type></trkpt>
      <trkpt lat="40.57907091" lon="-4.90360501"><ele>1787</ele><speed>9.65</speed><time>2016-07-01T16:41:58Z</time><pdop>3.0</pdop><geoidheight>54.00</geoidheight><course>286.4</course><type>1</type></trkpt>
      <trkpt lat="40.57910357" lon="-4.90371595"><ele>1785</ele><speed>9.86</speed><time>2016-07-01T16:41:59Z</time><pdop>3.0</pdop><geoidheight>54.00</geoidheight><course>291.1</course><type>1</type></trkpt>
      <trkpt lat="40.57914328" lon="-4.9038216"><ele>1782</ele><speed>9.60</speed><time>2016-07-01T16:42:00Z</time><pdop>3.0</pdop><geoidheight>54.00</geoidheight><course>294.1</course><type>1</type></trkpt>
      <trkpt lat="40.57917535" lon="-4.90391621"><ele>1782</ele><speed>8.92</speed><time>2016-07-01T16:42:01Z</time><pdop>3.0</pdop><geoidheight>54.00</geoidheight><course>293.2</course><type>1</type></trkpt>
      <trkpt lat="40.57920292" lon="-4.90400976"><ele>1782</ele><speed>8.23</speed><time>2016-07-01T16:42:02Z</time><pdop>4.0</pdop><geoidheight>54.00</geoidheight><course>290.4</course><type>1</type></trkpt>
      <trkpt lat="40.57924344" lon="-4.90416607"><ele>1778</ele><speed>7.08</speed><time>2016-07-01T16:42:04Z</time><pdop>4.0</pdop><geoidheight>54.00</geoidheight><course>287.9</course><type>1</type></trkpt>
      <trkpt lat="40.57926132" lon="-4.90424614"><ele>1775</ele><speed>7.66</speed><time>2016-07-01T16:42:05Z</time><pdop>3.0</pdop><geoidheight>54.00</geoidheight><course>287.3</course><type>1</type></trkpt>
      <trkpt lat="40.5792832" lon="-4.90434227"><ele>1772</ele><speed>8.66</speed><time>2016-07-01T16:42:06Z</time><pdop>4.0</pdop><geoidheight>54.00</geoidheight><course>286.9</course><type>1</type></trkpt>
      <trkpt lat="40.57931005" lon="-4.90444476"><ele>1769</ele><speed>9.06</speed><time>2016-07-01T16:42:07Z</time><pdop>3.0</pdop><geoidheight>54.00</geoidheight><course>288.8</course><type>1</type></trkpt>
      <trkpt lat="40.57933737" lon="-4.90454432"><ele>1769</ele><speed>9.03</speed><time>2016-07-01T16:42:08Z</time><pdop>4.0</pdop><geoidheight>54.00</geoidheight><course>289.5</course><type>1</type></trkpt>
      <trkpt lat="40.57935582" lon="-4.904649"><ele>1769</ele><speed>8.86</speed><time>2016-07-01T16:42:09Z</time><pdop>3.0</pdop><geoidheight>54.00</geoidheight><course>289.4</course><type>1</type></trkpt>
      <trkpt lat="40.5793829" lon="-4.90474612"><ele>1768</ele><speed>8.74</speed><time>2016-07-01T16:42:10Z</time><pdop>4.0</pdop><geoidheight>54.00</geoidheight><course>289.9</course><type>1</type></trkpt>
      <trkpt lat="40.5794197" lon="-4.90483987"><ele>1766</ele><speed>8.92</speed><time>2016-07-01T16:42:11Z</time><pdop>4.0</pdop><geoidheight>54.00</geoidheight><course>296.2</course><type>1</type></trkpt>
      <trkpt lat="40.5795092" lon="-4.90500556"><ele>1762</ele><speed>9.51</speed><time>2016-07-01T16:42:13Z</time><pdop>3.0</pdop><geoidheight>54.00</geoidheight><course>303.3</course><type>1</type></trkpt>
      <trkpt lat="40.57955403" lon="-4.9051057"><ele>1760</ele><speed>10.41</speed><time>2016-07-01T16:42:14Z</time><pdop>3.0</pdop><geoidheight>54.00</geoidheight><course>295.4</course><type>1</type></trkpt>
      <trkpt lat="40.57959008" lon="-4.90521726"><ele>1760</ele><speed>10.52</speed><time>2016-07-01T16:42:15Z</time><pdop>4.0</pdop><geoidheight>54.00</geoidheight><course>293.3</course><type>1</type></trkpt>
      <trkpt lat="40.5796307" lon="-4.90532132"><ele>1760</ele><speed>9.54</speed><time>2016-07-01T16:42:16Z</time><pdop>4.0</pdop><geoidheight>54.00</geoidheight><course>297.1</course><type>1</type></trkpt>
      <trkpt lat="40.57967508" lon="-4.9053995"><ele>1760</ele><speed>8.00</speed><time>2016-07-01T16:42:17Z</time><pdop>4.0</pdop><geoidheight>54.00</geoidheight><course>303.3</course><type>1</type></trkpt>
      <trkpt lat="40.57974298" lon="-4.90553987"><ele>1758</ele><speed>7.14</speed><time>2016-07-01T16:42:19Z</time><pdop>4.0</pdop><geoidheight>54.00</geoidheight><course>302.8</course><type>1</type></trkpt>
      <trkpt lat="40.57977124" lon="-4.905616"><ele>1756</ele><speed>7.50</speed><time>2016-07-01T16:42:20Z</time><pdop>3.0</pdop><geoidheight>54.00</geoidheight><course>299.5</course><type>1</type></trkpt>
      <trkpt lat="40.57979991" lon="-4.90570418"><ele>1755</ele><speed>7.63</speed><time>2016-07-01T16:42:21Z</time><pdop>3.0</pdop><geoidheight>54.00</geoidheight><course>294.9</course><type>1</type></trkpt>
      <trkpt lat="40.57982223" lon="-4.90578326"><ele>1751</ele><speed>8.63</speed><time>2016-07-01T16:42:22Z</time><pdop>3.0</pdop><geoidheight>54.00</geoidheight><course>289.5</course><type>1</type></trkpt>
      <trkpt lat="40.57985004" lon="-4.90588448"><ele>1747</ele><speed>9.38</speed><time>2016-07-01T16:42:23Z</time><pdop>3.0</pdop><geoidheight>54.00</geoidheight><course>288.6</course><type>1</type></trkpt>
      <trkpt lat="40.57988619" lon="-4.90600266"><ele>1743</ele><speed>10.53</speed><time>2016-07-01T16:42:24Z</time><pdop>3.0</pdop><geoidheight>54.00</geoidheight><course>291.2</course><type>1</type></trkpt>
      <trkpt lat="40.57993591" lon="-4.9061267"><ele>1740</ele><speed>11.33</speed><time>2016-07-01T16:42:25Z</time><pdop>3.0</pdop><geoidheight>54.00</geoidheight><course>297.4</course><type>1</type></trkpt>
      <trkpt lat="40.57999029" lon="-4.90624296"><ele>1738</ele><speed>11.46</speed><time>2016-07-01T16:42:26Z</time><pdop>3.0</pdop><geoidheight>54.00</geoidheight><course>303.0</course><type>1</type></trkpt>
      <trkpt lat="40.58004577" lon="-4.90634926"><ele>1739</ele><speed>10.75</speed><time>2016-07-01T16:42:27Z</time><pdop>3.0</pdop><geoidheight>54.00</geoidheight><course>305.9</course><type>1</type></trkpt>
      <trkpt lat="40.58009991" lon="-4.90642119"><ele>1738</ele><speed>9.15</speed><time>2016-07-01T16:42:28Z</time><pdop>3.0</pdop><geoidheight>54.00</geoidheight><course>307.0</course><type>1</type></trkpt>
      <trkpt lat="40.5801396" lon="-4.90649697"><ele>1738</ele><speed>7.26</speed><time>2016-07-01T16:42:29Z</time><pdop>3.0</pdop><geoidheight>54.00</geoidheight><course>305.2</course><type>1</type></trkpt>
      <trkpt lat="40.58018389" lon="-4.90656214"><ele>1737</ele><speed>6.26</speed><time>2016-07-01T16:42:30Z</time><pdop>4.0</pdop><geoidheight>54.00</geoidheight><course>306.2</course><type>1</type></trkpt>
      <trkpt lat="40.58026943" lon="-4.90667947"><ele>1736</ele><speed>6.31</speed><time>2016-07-01T16:42:32Z</time><pdop>5.0</pdop><geoidheight>54.00</geoidheight><course>308.6</course><type>1</type></trkpt>
      <trkpt lat="40.58035993" lon="-4.90687792"><ele>1732</ele><speed>10.13</speed><time>2016-07-01T16:42:34Z</time><pdop>7.0</pdop><geoidheight>54.00</geoidheight><course>298.3</course><type>1</type></trkpt>
      <trkpt lat="40.5804627" lon="-4.90711144"><ele>1729</ele><speed>11.79</speed><time>2016-07-01T16:42:36Z</time><pdop>8.0</pdop><geoidheight>54.00</geoidheight><course>302.0</course><type>1</type></trkpt>
      <trkpt lat="40.58058617" lon="-4.90718472"><ele>1727</ele><speed>6.36</speed><time>2016-07-01T16:42:38Z</time><pdop>6.0</pdop><geoidheight>54.00</geoidheight><course>326.1</course><type>1</type></trkpt>
      <trkpt lat="40.58067366" lon="-4.90727167"><ele>1725</ele><speed>5.61</speed><time>2016-07-01T16:42:40Z</time><pdop>6.0</pdop><geoidheight>54.00</geoidheight><course>307.2</course><type>1</type></trkpt>
      <trkpt lat="40.5807294" lon="-4.90738261"><ele>1714</ele><speed>7.95</speed><time>2016-07-01T16:42:42Z</time><pdop>5.0</pdop><geoidheight>54.00</geoidheight><course>285.3</course><type>1</type></trkpt>
      <trkpt lat="40.58077588" lon="-4.90752076"><ele>1704</ele><speed>10.14</speed><time>2016-07-01T16:42:44Z</time><pdop>5.0</pdop><geoidheight>54.00</geoidheight><course>295.5</course><type>1</type></trkpt>
      <trkpt lat="40.58083321" lon="-4.90770177"><ele>1699</ele><speed>8.08</speed><time>2016-07-01T16:42:46Z</time><pdop>5.0</pdop><geoidheight>54.00</geoidheight><course>291.5</course><type>1</type></trkpt>
      <trkpt lat="40.58086656" lon="-4.90782555"><ele>1695</ele><speed>6.63</speed><time>2016-07-01T16:42:48Z</time><pdop>6.0</pdop><geoidheight>54.00</geoidheight><course>292.8</course><type>1</type></trkpt>
      <trkpt lat="40.58096571" lon="-4.90792676"><ele>1692</ele><speed>6.94</speed><time>2016-07-01T16:42:50Z</time><pdop>5.0</pdop><geoidheight>54.00</geoidheight><course>304.6</course><type>1</type></trkpt>
      <trkpt lat="40.58103267" lon="-4.90808816"><ele>1683</ele><speed>9.74</speed><time>2016-07-01T16:42:52Z</time><pdop>6.0</pdop><geoidheight>54.00</geoidheight><course>299.0</course><type>1</type></trkpt>
      <trkpt lat="40.58112893" lon="-4.90823469"><ele>1674</ele><speed>9.95</speed><time>2016-07-01T16:42:54Z</time><pdop>7.0</pdop><geoidheight>54.00</geoidheight><course>308.0</course><type>1</type></trkpt>
      <trkpt lat="40.58121822" lon="-4.90839855"><ele>1670</ele><speed>8.67</speed><time>2016-07-01T16:42:56Z</time><pdop>7.0</pdop><geoidheight>54.00</geoidheight><course>303.3</course><type>1</type></trkpt>
      <trkpt lat="40.58129226" lon="-4.90856257"><ele>1667</ele><speed>7.92</speed><time>2016-07-01T16:42:58Z</time><pdop>5.0</pdop><geoidheight>54.00</geoidheight><course>303.4</course><type>1</type></trkpt>
      <trkpt lat="40.58137749" lon="-4.90873459"><ele>1664</ele><speed>8.21</speed><time>2016-07-01T16:43:00Z</time><pdop>5.0</pdop><geoidheight>54.00</geoidheight><course>305.6</course><type>1</type></trkpt>
      <trkpt lat="40.58146148" lon="-4.90888479"><ele>1661</ele><speed>7.80</speed><time>2016-07-01T16:43:02Z</time><pdop>7.0</pdop><geoidheight>54.00</geoidheight><course>309.5</course><type>1</type></trkpt>
      <trkpt lat="40.58155692" lon="-4.90902137"><ele>1654</ele><speed>8.45</speed><time>2016-07-01T16:43:04Z</time><pdop>7.0</pdop><geoidheight>54.00</geoidheight><course>314.9</course><type>1</type></trkpt>
      <trkpt lat="40.58165112" lon="-4.90916946"><ele>1654</ele><speed>8.40</speed><time>2016-07-01T16:43:06Z</time><pdop>9.0</pdop><geoidheight>54.00</geoidheight><course>312.0</course><type>1</type></trkpt>
      <trkpt lat="40.581781" lon="-4.90926761"><ele>1656</ele><speed>8.30</speed><time>2016-07-01T16:43:08Z</time><pdop>7.0</pdop><geoidheight>54.00</geoidheight><course>329.7</course><type>1</type></trkpt>
      <trkpt lat="40.58193527" lon="-4.90931508"><ele>1657</ele><speed>6.47</speed><time>2016-07-01T16:43:11Z</time><pdop>6.0</pdop><geoidheight>54.00</geoidheight><course>351.6</course><type>1</type></trkpt>
      <trkpt lat="40.58206335" lon="-4.90929893"><ele>1659</ele><speed>7.26</speed><time>2016-07-01T16:43:13Z</time><pdop>6.0</pdop><geoidheight>54.00</geoidheight><course>9.2</course><type>1</type></trkpt>
      <trkpt lat="40.58218024" lon="-4.90928394"><ele>1660</ele><speed>6.65</speed><time>2016-07-01T16:43:15Z</time><pdop>7.0</pdop><geoidheight>54.00</geoidheight><course>3.6</course><type>1</type></trkpt>
      <trkpt lat="40.58206423" lon="-4.90947995"><ele>1660</ele><speed>6.82</speed><time>2016-07-01T16:43:23Z</time><pdop>10.0</pdop><geoidheight>54.00</geoidheight><course>187.5</course><type>1</type></trkpt>
      <trkpt lat="40.58180188" lon="-4.9093582"><ele>1659</ele><speed>10.64</speed><time>2016-07-01T16:43:25Z</time><pdop>9.0</pdop><geoidheight>54.00</geoidheight><course>157.9</course><type>1</type></trkpt>
      <trkpt lat="40.58167286" lon="-4.9092108"><ele>1657</ele><speed>15.05</speed><time>2016-07-01T16:43:26Z</time><pdop>8.0</pdop><geoidheight>54.00</geoidheight><course>148.0</course><type>1</type></trkpt>
      <trkpt lat="40.58139905" lon="-4.90850149"><ele>2020</ele><speed>16.07</speed><time>2016-07-01T16:43:30Z</time><pdop>12.0</pdop><geoidheight>54.00</geoidheight><course>116.8</course><type>1</type></trkpt>
      <trkpt lat="40.58147076" lon="-4.90823901"><ele>1945</ele><speed>15.83</speed><time>2016-07-01T16:43:31Z</time><pdop>11.0</pdop><geoidheight>54.00</geoidheight><course>99.1</course><type>1</type></trkpt>
      <trkpt lat="40.58167894" lon="-4.90797638"><ele>1914</ele><speed>12.03</speed><time>2016-07-01T16:43:33Z</time><pdop>15.0</pdop><geoidheight>54.00</geoidheight><course>68.3</course><type>1</type></trkpt>
      <trkpt lat="40.58188516" lon="-4.90770728"><ele>1842</ele><speed>12.16</speed><time>2016-07-01T16:43:35Z</time><pdop>11.0</pdop><geoidheight>54.00</geoidheight><course>57.9</course><type>1</type></trkpt>
      <trkpt lat="40.58202824" lon="-4.90746588"><ele>1779</ele><speed>10.36</speed><time>2016-07-01T16:43:37Z</time><pdop>8.0</pdop><geoidheight>54.00</geoidheight><course>53.1</course><type>1</type></trkpt>
      <trkpt lat="40.58217396" lon="-4.90733924"><ele>1731</ele><speed>8.15</speed><time>2016-07-01T16:43:39Z</time><pdop>6.0</pdop><geoidheight>54.00</geoidheight><course>34.3</course><type>1</type></trkpt>
      <trkpt lat="40.58230191" lon="-4.90728635"><ele>1710</ele><speed>6.18</speed><time>2016-07-01T16:43:41Z</time><pdop>6.0</pdop><geoidheight>54.00</geoidheight><course>15.5</course><type>1</type></trkpt>
      <trkpt lat="40.58245466" lon="-4.90730519"><ele>1689</ele><speed>5.46</speed><time>2016-07-01T16:43:44Z</time><pdop>6.0</pdop><geoidheight>54.00</geoidheight><course>349.2</course><type>1</type></trkpt>
      <trkpt lat="40.58256335" lon="-4.9073195"><ele>1684</ele><speed>6.48</speed><time>2016-07-01T16:43:46Z</time><pdop>6.0</pdop><geoidheight>54.00</geoidheight><course>357.5</course><type>1</type></trkpt>
      <trkpt lat="40.58271287" lon="-4.90727977"><ele>1675</ele><speed>8.13</speed><time>2016-07-01T16:43:48Z</time><pdop>5.0</pdop><geoidheight>54.00</geoidheight><course>11.1</course><type>1</type></trkpt>
      <trkpt lat="40.58286891" lon="-4.90722678"><ele>1674</ele><speed>8.73</speed><time>2016-07-01T16:43:50Z</time><pdop>5.0</pdop><geoidheight>54.00</geoidheight><course>15.0</course><type>1</type></trkpt>
      <trkpt lat="40.58298741" lon="-4.90721953"><ele>1671</ele><speed>5.38</speed><time>2016-07-01T16:43:52Z</time><pdop>4.0</pdop><geoidheight>54.00</geoidheight><course>0.4</course><type>1</type></trkpt>
      <trkpt lat="40.58304285" lon="-4.90729357"><ele>1667</ele><speed>3.53</speed><time>2016-07-01T16:43:55Z</time><pdop>4.0</pdop><geoidheight>54.00</geoidheight><course>292.7</course><type>1</type></trkpt>
      <trkpt lat="40.58311136" lon="-4.90741365"><ele>1664</ele><speed>7.27</speed><time>2016-07-01T16:43:57Z</time><pdop>4.0</pdop><geoidheight>54.00</geoidheight><course>312.0</course><type>1</type></trkpt>
      <trkpt lat="40.58315826" lon="-4.90749553"><ele>1661</ele><speed>8.70</speed><time>2016-07-01T16:43:58Z</time><pdop>4.0</pdop><geoidheight>54.00</geoidheight><course>310.2</course><type>1</type></trkpt>
      <trkpt lat="40.58322232" lon="-4.90758636"><ele>1657</ele><speed>10.00</speed><time>2016-07-01T16:43:59Z</time><pdop>4.0</pdop><geoidheight>54.00</geoidheight><course>312.4</course><type>1</type></trkpt>
      <trkpt lat="40.58329383" lon="-4.90766276"><ele>1653</ele><speed>10.97</speed><time>2016-07-01T16:44:00Z</time><pdop>4.0</pdop><geoidheight>54.00</geoidheight><course>318.7</course><type>1</type></trkpt>
      <trkpt lat="40.58336821" lon="-4.90774668"><ele>1652</ele><speed>10.76</speed><time>2016-07-01T16:44:01Z</time><pdop>4.0</pdop><geoidheight>54.00</geoidheight><course>320.1</course><type>1</type></trkpt>
      <trkpt lat="40.58347974" lon="-4.90779529"><ele>1659</ele><speed>6.39</speed><time>2016-07-01T16:44:03Z</time><pdop>4.0</pdop><geoidheight>54.00</geoidheight><course>339.3</course><type>1</type></trkpt>
      <trkpt lat="40.58356985" lon="-4.90779599"><ele>1659</ele><speed>4.92</speed><time>2016-07-01T16:44:05Z</time><pdop>4.0</pdop><geoidheight>54.00</geoidheight><course>357.8</course><type>1</type></trkpt>
      <trkpt lat="40.58368456" lon="-4.90779833"><ele>1660</ele><speed>6.97</speed><time>2016-07-01T16:44:07Z</time><pdop>3.0</pdop><geoidheight>54.00</geoidheight><course>4.7</course><type>1</type></trkpt>
      <trkpt lat="40.58375506" lon="-4.90776724"><ele>1662</ele><speed>8.15</speed><time>2016-07-01T16:44:08Z</time><pdop>3.0</pdop><geoidheight>54.00</geoidheight><course>14.4</course><type>1</type></trkpt>
      <trkpt lat="40.58382484" lon="-4.9077264"><ele>1666</ele><speed>9.33</speed><time>2016-07-01T16:44:09Z</time><pdop>4.0</pdop><geoidheight>54.00</geoidheight><course>22.6</course><type>1</type></trkpt>
      <trkpt lat="40.58389462" lon="-4.90768005"><ele>1669</ele><speed>9.38</speed><time>2016-07-01T16:44:10Z</time><pdop>4.0</pdop><geoidheight>54.00</geoidheight><course>30.9</course><type>1</type></trkpt>
      <trkpt lat="40.58396027" lon="-4.90761777"><ele>1672</ele><speed>9.42</speed><time>2016-07-01T16:44:11Z</time><pdop>4.0</pdop><geoidheight>54.00</geoidheight><course>34.7</course><type>1</type></trkpt>
      <trkpt lat="40.58401911" lon="-4.90753014"><ele>1673</ele><speed>9.47</speed><time>2016-07-01T16:44:12Z</time><pdop>5.0</pdop><geoidheight>54.00</geoidheight><course>41.2</course><type>1</type></trkpt>
      <trkpt lat="40.58407565" lon="-4.90744714"><ele>1675</ele><speed>9.91</speed><time>2016-07-01T16:44:13Z</time><pdop>4.0</pdop><geoidheight>54.00</geoidheight><course>46.7</course><type>1</type></trkpt>
      <trkpt lat="40.58412431" lon="-4.90735678"><ele>1677</ele><speed>10.22</speed><time>2016-07-01T16:44:14Z</time><pdop>4.0</pdop><geoidheight>54.00</geoidheight><course>55.5</course><type>1</type></trkpt>
      <trkpt lat="40.58416377" lon="-4.90723153"><ele>1677</ele><speed>11.38</speed><time>2016-07-01T16:44:15Z</time><pdop>4.0</pdop><geoidheight>54.00</geoidheight><course>64.4</course><type>1</type></trkpt>
      <trkpt lat="40.58419505" lon="-4.90706352"><ele>1677</ele><speed>13.47</speed><time>2016-07-01T16:44:16Z</time><pdop>4.0</pdop><geoidheight>54.00</geoidheight><course>70.9</course><type>1</type></trkpt>
      <trkpt lat="40.58420693" lon="-4.90685481"><ele>1674</ele><speed>16.65</speed><time>2016-07-01T16:44:17Z</time><pdop>4.0</pdop><geoidheight>54.00</geoidheight><course>82.9</course><type>1</type></trkpt>
      <trkpt lat="40.58420426" lon="-4.90664174"><ele>1673</ele><speed>18.20</speed><time>2016-07-01T16:44:18Z</time><pdop>4.0</pdop><geoidheight>54.00</geoidheight><course>90.6</course><type>1</type></trkpt>
      <trkpt lat="40.58417227" lon="-4.90641668"><ele>1673</ele><speed>18.26</speed><time>2016-07-01T16:44:19Z</time><pdop>6.0</pdop><geoidheight>54.00</geoidheight><course>96.5</course><type>1</type></trkpt>
      <trkpt lat="40.58410428" lon="-4.90621091"><ele>1673</ele><speed>18.17</speed><time>2016-07-01T16:44:20Z</time><pdop>6.0</pdop><geoidheight>54.00</geoidheight><course>104.7</course><type>1</type></trkpt>
      <trkpt lat="40.58400128" lon="-4.90600457"><ele>1673</ele><speed>18.92</speed><time>2016-07-01T16:44:21Z</time><pdop>7.0</pdop><geoidheight>54.00</geoidheight><course>114.5</course><type>1</type></trkpt>
      <trkpt lat="40.58387881" lon="-4.90584393"><ele>1674</ele><speed>18.47</speed><time>2016-07-01T16:44:22Z</time><pdop>8.0</pdop><geoidheight>54.00</geoidheight><course>124.3</course><type>1</type></trkpt>
      <trkpt lat="40.58377819" lon="-4.90570503"><ele>1675</ele><speed>17.48</speed><time>2016-07-01T16:44:23Z</time><pdop>8.0</pdop><geoidheight>54.00</geoidheight><course>126.2</course><type>1</type></trkpt>
      <trkpt lat="40.58360685" lon="-4.90573041"><ele>1676</ele><speed>10.13</speed><time>2016-07-01T16:44:25Z</time><pdop>8.0</pdop><geoidheight>54.00</geoidheight><course>157.7</course><type>1</type></trkpt>
      <trkpt lat="40.58347466" lon="-4.90578211"><ele>1680</ele><speed>1.81</speed><time>2016-07-01T16:44:30Z</time><pdop>7.0</pdop><geoidheight>54.00</geoidheight><course>224.5</course><type>1</type></trkpt>
      <trkpt lat="40.58357022" lon="-4.90574576"><ele>1695</ele><speed>8.43</speed><time>2016-07-01T16:44:37Z</time><pdop>3.0</pdop><geoidheight>54.00</geoidheight><course>46.3</course><type>1</type></trkpt>
      <trkpt lat="40.5836159" lon="-4.90562122"><ele>1694</ele><speed>10.01</speed><time>2016-07-01T16:44:38Z</time><pdop>4.0</pdop><geoidheight>54.00</geoidheight><course>57.5</course><type>1</type></trkpt>
      <trkpt lat="40.5836479" lon="-4.90547752"><ele>1694</ele><speed>11.05</speed><time>2016-07-01T16:44:39Z</time><pdop>6.0</pdop><geoidheight>54.00</geoidheight><course>63.6</course><type>1</type></trkpt>
      <trkpt lat="40.58361665" lon="-4.90526112"><ele>1694</ele><speed>13.47</speed><time>2016-07-01T16:44:40Z</time><pdop>7.0</pdop><geoidheight>54.00</geoidheight><course>83.4</course><type>1</type></trkpt>
      <trkpt lat="40.58357398" lon="-4.90507609"><ele>1697</ele><speed>13.62</speed><time>2016-07-01T16:44:41Z</time><pdop>7.0</pdop><geoidheight>54.00</geoidheight><course>96.3</course><type>1</type></trkpt>
      <trkpt lat="40.58353243" lon="-4.90487763"><ele>1698</ele><speed>14.45</speed><time>2016-07-01T16:44:42Z</time><pdop>8.0</pdop><geoidheight>54.00</geoidheight><course>100.4</course><type>1</type></trkpt>
      <trkpt lat="40.58341504" lon="-4.90470044"><ele>1698</ele><speed>15.33</speed><time>2016-07-01T16:44:43Z</time><pdop>9.0</pdop><geoidheight>54.00</geoidheight><course>117.6</course><type>1</type></trkpt>
      <trkpt lat="40.58327724" lon="-4.90453338"><ele>1699</ele><speed>16.56</speed><time>2016-07-01T16:44:44Z</time><pdop>8.0</pdop><geoidheight>54.00</geoidheight><course>128.3</course><type>1</type></trkpt>
      <trkpt lat="40.58315611" lon="-4.90441622"><ele>1700</ele><speed>16.19</speed><time>2016-07-01T16:44:45Z</time><pdop>8.0</pdop><geoidheight>54.00</geoidheight><course>135.0</course><type>1</type></trkpt>
      <trkpt lat="40.58296662" lon="-4.90435309"><ele>1702</ele><speed>12.98</speed><time>2016-07-01T16:44:47Z</time><pdop>8.0</pdop><geoidheight>54.00</geoidheight><course>149.7</course><type>1</type></trkpt>
      <trkpt lat="40.58303291" lon="-4.90452221"><ele>1710</ele><speed>2.78</speed><time>2016-07-01T16:44:51Z</time><pdop>7.0</pdop><geoidheight>54.00</geoidheight><course>330.8</course><type>1</type></trkpt>
      <trkpt lat="40.58316721" lon="-4.90437028"><ele>1711</ele><speed>11.63</speed><time>2016-07-01T16:44:54Z</time><pdop>5.0</pdop><geoidheight>54.00</geoidheight><course>56.6</course><type>1</type></trkpt>
      <trkpt lat="40.58320422" lon="-4.90406676"><ele>1711</ele><speed>16.59</speed><time>2016-07-01T16:44:56Z</time><pdop>5.0</pdop><geoidheight>54.00</geoidheight><course>84.4</course><type>1</type></trkpt>
      <trkpt lat="40.58321873" lon="-4.90387169"><ele>1712</ele><speed>16.59</speed><time>2016-07-01T16:44:57Z</time><pdop>6.0</pdop><geoidheight>54.00</geoidheight><course>84.4</course><type>1</type></trkpt>
      <trkpt lat="40.58312562" lon="-4.90365767"><ele>1713</ele><speed>18.33</speed><time>2016-07-01T16:44:58Z</time><pdop>5.0</pdop><geoidheight>54.00</geoidheight><course>103.7</course><type>1</type></trkpt>
      <trkpt lat="40.58308666" lon="-4.90344733"><ele>1713</ele><speed>18.33</speed><time>2016-07-01T16:44:59Z</time><pdop>7.0</pdop><geoidheight>54.00</geoidheight><course>103.7</course><type>1</type></trkpt>
      <trkpt lat="40.58295425" lon="-4.90315796"><ele>2431</ele><speed>15.36</speed><time>2016-07-01T16:45:01Z</time><pdop>12.0</pdop><geoidheight>54.00</geoidheight><course>119.2</course><type>1</type></trkpt>
      <trkpt lat="40.58272686" lon="-4.90320995"><ele>2168</ele><speed>7.44</speed><time>2016-07-01T16:45:04Z</time><pdop>11.0</pdop><geoidheight>54.00</geoidheight><course>180.8</course><type>1</type></trkpt>
      <trkpt lat="40.58284568" lon="-4.90339321"><ele>1882</ele><speed>5.21</speed><time>2016-07-01T16:45:10Z</time><pdop>7.0</pdop><geoidheight>54.00</geoidheight><course>309.6</course><type>1</type></trkpt>
      <trkpt lat="40.58288538" lon="-4.90352551"><ele>1797</ele><speed>2.81</speed><time>2016-07-01T16:45:15Z</time><pdop>5.0</pdop><geoidheight>54.00</geoidheight><course>287.7</course><type>1</type></trkpt>
      <trkpt lat="40.5829195" lon="-4.90364166"><ele>1772</ele><speed>3.11</speed><time>2016-07-01T16:45:20Z</time><pdop>5.0</pdop><geoidheight>54.00</geoidheight><course>328.7</course><type>1</type></trkpt>
      <trkpt lat="40.58304016" lon="-4.90359818"><ele>1768</ele><speed>7.35</speed><time>2016-07-01T16:45:22Z</time><pdop>6.0</pdop><geoidheight>54.00</geoidheight><course>17.6</course><type>1</type></trkpt>
      <trkpt lat="40.5829622" lon="-4.90275262"><ele>2266</ele><speed>17.71</speed><time>2016-07-01T16:45:27Z</time><pdop>6.0</pdop><geoidheight>54.00</geoidheight><course>129.3</course><type>1</type></trkpt>
      <trkpt lat="40.58270761" lon="-4.90258113"><ele>2040</ele><speed>16.24</speed><time>2016-07-01T16:45:29Z</time><pdop>6.0</pdop><geoidheight>54.00</geoidheight><course>153.9</course><type>1</type></trkpt>
      <trkpt lat="40.58255809" lon="-4.90262792"><ele>1911</ele><speed>9.67</speed><time>2016-07-01T16:45:31Z</time><pdop>4.0</pdop><geoidheight>54.00</geoidheight><course>181.2</course><type>1</type></trkpt>
      <trkpt lat="40.58247235" lon="-4.90263032"><ele>1896</ele><speed>9.56</speed><time>2016-07-01T16:45:32Z</time><pdop>5.0</pdop><geoidheight>54.00</geoidheight><course>181.2</course><type>1</type></trkpt>
      <trkpt lat="40.58242782" lon="-4.90272824"><ele>1818</ele><speed>2.61</speed><time>2016-07-01T16:45:36Z</time><pdop>4.0</pdop><geoidheight>54.00</geoidheight><course>291.0</course><type>1</type></trkpt>
      <trkpt lat="40.58252494" lon="-4.9028164"><ele>1807</ele><speed>3.41</speed><time>2016-07-01T16:45:40Z</time><pdop>5.0</pdop><geoidheight>54.00</geoidheight><course>320.5</course><type>1</type></trkpt>
      <trkpt lat="40.5825912" lon="-4.90295784"><ele>1786</ele><speed>4.99</speed><time>2016-07-01T16:45:43Z</time><pdop>4.0</pdop><geoidheight>54.00</geoidheight><course>309.6</course><type>1</type></trkpt>
      <trkpt lat="40.58267298" lon="-4.90300873"><ele>1787</ele><speed>3.51</speed><time>2016-07-01T16:45:46Z</time><pdop>5.0</pdop><geoidheight>54.00</geoidheight><course>346.0</course><type>1</type></trkpt>
      <trkpt lat="40.58274894" lon="-4.90309386"><ele>1788</ele><speed>3.01</speed><time>2016-07-01T16:45:49Z</time><pdop>6.0</pdop><geoidheight>54.00</geoidheight><course>317.8</course><type>1</type></trkpt>
      <trkpt lat="40.58280633" lon="-4.90324715"><ele>1786</ele><speed>5.12</speed><time>2016-07-01T16:45:52Z</time><pdop>5.0</pdop><geoidheight>54.00</geoidheight><course>310.5</course><type>1</type></trkpt>
      <trkpt lat="40.58290767" lon="-4.90335537"><ele>1790</ele><speed>4.54</speed><time>2016-07-01T16:45:55Z</time><pdop>9.0</pdop><geoidheight>54.00</geoidheight><course>332.8</course><type>1</type></trkpt>
      <trkpt lat="40.58304542" lon="-4.9034721"><ele>1778</ele><speed>4.40</speed><time>2016-07-01T16:46:01Z</time><pdop>5.0</pdop><geoidheight>54.00</geoidheight><course>322.3</course><type>1</type></trkpt>
      <trkpt lat="40.58315628" lon="-4.90359386"><ele>1778</ele><speed>5.13</speed><time>2016-07-01T16:46:04Z</time><pdop>5.0</pdop><geoidheight>54.00</geoidheight><course>324.1</course><type>1</type></trkpt>
      <trkpt lat="40.58326893" lon="-4.90363018"><ele>1780</ele><speed>4.48</speed><time>2016-07-01T16:46:07Z</time><pdop>5.0</pdop><geoidheight>54.00</geoidheight><course>355.1</course><type>1</type></trkpt>
      <trkpt lat="40.58340351" lon="-4.90366683"><ele>1787</ele><speed>5.94</speed><time>2016-07-01T16:46:10Z</time><pdop>4.0</pdop><geoidheight>54.00</geoidheight><course>351.2</course><type>1</type></trkpt>
      <trkpt lat="40.58349519" lon="-4.90367615"><ele>1791</ele><speed>4.26</speed><time>2016-07-01T16:46:12Z</time><pdop>5.0</pdop><geoidheight>54.00</geoidheight><course>352.0</course><type>1</type></trkpt>
      <trkpt lat="40.58360489" lon="-4.90370351"><ele>1795</ele><speed>3.85</speed><time>2016-07-01T16:46:15Z</time><pdop>6.0</pdop><geoidheight>54.00</geoidheight><course>348.7</course><type>1</type></trkpt>
      <trkpt lat="40.58372044" lon="-4.90378734"><ele>1798</ele><speed>1.92</speed><time>2016-07-01T16:46:20Z</time><pdop>7.0</pdop><geoidheight>54.00</geoidheight><course>338.9</course><type>1</type></trkpt>
      <trkpt lat="40.58379818" lon="-4.90399407"><ele>1798</ele><speed>5.79</speed><time>2016-07-01T16:46:24Z</time><pdop>4.0</pdop><geoidheight>54.00</geoidheight><course>295.6</course><type>1</type></trkpt>
      <trkpt lat="40.58384122" lon="-4.90411841"><ele>1798</ele><speed>6.46</speed><time>2016-07-01T16:46:26Z</time><pdop>5.0</pdop><geoidheight>54.00</geoidheight><course>299.0</course><type>1</type></trkpt>
      <trkpt lat="40.58391053" lon="-4.90420852"><ele>1796</ele><speed>5.04</speed><time>2016-07-01T16:46:28Z</time><pdop>5.0</pdop><geoidheight>54.00</geoidheight><course>312.7</course><type>1</type></trkpt>
      <trkpt lat="40.58400497" lon="-4.90428895"><ele>1798</ele><speed>3.53</speed><time>2016-07-01T16:46:31Z</time><pdop>6.0</pdop><geoidheight>54.00</geoidheight><course>334.5</course><type>1</type></trkpt>
      <trkpt lat="40.58405972" lon="-4.90442345"><ele>1803</ele><speed>2.33</speed><time>2016-07-01T16:46:37Z</time><pdop>5.0</pdop><geoidheight>54.00</geoidheight><course>274.0</course><type>1</type></trkpt>
      <trkpt lat="40.58406346" lon="-4.90454712"><ele>1805</ele><speed>2.27</speed><time>2016-07-01T16:46:40Z</time><pdop>4.0</pdop><geoidheight>54.00</geoidheight><course>286.3</course><type>1</type></trkpt>
      <trkpt lat="40.58407387" lon="-4.90465751"><ele>1810</ele><speed>1.85</speed><time>2016-07-01T16:46:46Z</time><pdop>4.0</pdop><geoidheight>54.00</geoidheight><course>269.2</course><type>1</type></trkpt>
      <trkpt lat="40.58413692" lon="-4.90475345"><ele>1810</ele><speed>2.38</speed><time>2016-07-01T16:46:51Z</time><pdop>6.0</pdop><geoidheight>54.00</geoidheight><course>308.2</course><type>1</type></trkpt>
      <trkpt lat="40.58418029" lon="-4.90487551"><ele>1810</ele><speed>5.77</speed><time>2016-07-01T16:46:53Z</time><pdop>4.0</pdop><geoidheight>54.00</geoidheight><course>301.7</course><type>1</type></trkpt>
      <trkpt lat="40.58423969" lon="-4.90502334"><ele>1810</ele><speed>6.02</speed><time>2016-07-01T16:46:55Z</time><pdop>4.0</pdop><geoidheight>54.00</geoidheight><course>299.8</course><type>1</type></trkpt>
      <trkpt lat="40.58428176" lon="-4.90518064"><ele>1810</ele><speed>5.63</speed><time>2016-07-01T16:46:58Z</time><pdop>4.0</pdop><geoidheight>54.00</geoidheight><course>279.4</course><type>1</type></trkpt>
      <trkpt lat="40.58428864" lon="-4.90532532"><ele>1809</ele><speed>5.56</speed><time>2016-07-01T16:47:00Z</time><pdop>5.0</pdop><geoidheight>54.00</geoidheight><course>278.4</course><type>1</type></trkpt>
      <trkpt lat="40.58434718" lon="-4.90550656"><ele>1813</ele><speed>3.86</speed><time>2016-07-01T16:47:04Z</time><pdop>8.0</pdop><geoidheight>54.00</geoidheight><course>290.6</course><type>1</type></trkpt>
      <trkpt lat="40.58440903" lon="-4.90569129"><ele>1811</ele><speed>4.94</speed><time>2016-07-01T16:47:08Z</time><pdop>7.0</pdop><geoidheight>54.00</geoidheight><course>289.3</course><type>1</type></trkpt>
      <trkpt lat="40.58448174" lon="-4.90586958"><ele>1811</ele><speed>5.62</speed><time>2016-07-01T16:47:11Z</time><pdop>6.0</pdop><geoidheight>54.00</geoidheight><course>301.7</course><type>1</type></trkpt>
      <trkpt lat="40.5845189" lon="-4.9060223"><ele>1811</ele><speed>7.68</speed><time>2016-07-01T16:47:13Z</time><pdop>7.0</pdop><geoidheight>54.00</geoidheight><course>290.5</course><type>1</type></trkpt>
      <trkpt lat="40.58459668" lon="-4.90616286"><ele>1812</ele><speed>7.29</speed><time>2016-07-01T16:47:15Z</time><pdop>7.0</pdop><geoidheight>54.00</geoidheight><course>309.9</course><type>1</type></trkpt>
      <trkpt lat="40.58473977" lon="-4.90627228"><ele>1817</ele><speed>5.86</speed><time>2016-07-01T16:47:18Z</time><pdop>9.0</pdop><geoidheight>54.00</geoidheight><course>328.4</course><type>1</type></trkpt>
      <trkpt lat="40.58490532" lon="-4.90637541"><ele>1824</ele><speed>4.65</speed><time>2016-07-01T16:47:22Z</time><pdop>7.0</pdop><geoidheight>54.00</geoidheight><course>332.6</course><type>1</type></trkpt>
      <trkpt lat="40.58500867" lon="-4.90644187"><ele>1830</ele><speed>3.43</speed><time>2016-07-01T16:47:26Z</time><pdop>5.0</pdop><geoidheight>54.00</geoidheight><course>338.4</course><type>1</type></trkpt>
      <trkpt lat="40.58508518" lon="-4.90650659"><ele>1833</ele><speed>5.13</speed><time>2016-07-01T16:47:28Z</time><pdop>5.0</pdop><geoidheight>54.00</geoidheight><course>342.0</course><type>1</type></trkpt>
      <trkpt lat="40.58518247" lon="-4.90657833"><ele>1836</ele><speed>3.14</speed><time>2016-07-01T16:47:31Z</time><pdop>5.0</pdop><geoidheight>54.00</geoidheight><course>288.4</course><type>1</type></trkpt>
      <trkpt lat="40.58514389" lon="-4.90674167"><ele>1838</ele><speed>4.65</speed><time>2016-07-01T16:47:34Z</time><pdop>7.0</pdop><geoidheight>54.00</geoidheight><course>233.1</course><type>1</type></trkpt>
      <trkpt lat="40.58499193" lon="-4.906754"><ele>1838</ele><speed>11.66</speed><time>2016-07-01T16:47:35Z</time><pdop>6.0</pdop><geoidheight>54.00</geoidheight><course>179.6</course><type>1</type></trkpt>
      <trkpt lat="40.5848815" lon="-4.90671995"><ele>1839</ele><speed>13.24</speed><time>2016-07-01T16:47:36Z</time><pdop>6.0</pdop><geoidheight>54.00</geoidheight><course>163.1</course><type>1</type></trkpt>
      <trkpt lat="40.5847675" lon="-4.90667471"><ele>1840</ele><speed>13.22</speed><time>2016-07-01T16:47:37Z</time><pdop>7.0</pdop><geoidheight>54.00</geoidheight><course>163.2</course><type>1</type></trkpt>
      <trkpt lat="40.58458461" lon="-4.9064147"><ele>1843</ele><speed>15.10</speed><time>2016-07-01T16:47:39Z</time><pdop>9.0</pdop><geoidheight>54.00</geoidheight><course>129.2</course><type>1</type></trkpt>
      <trkpt lat="40.58445314" lon="-4.90613368"><ele>1843</ele><speed>14.83</speed><time>2016-07-01T16:47:41Z</time><pdop>9.0</pdop><geoidheight>54.00</geoidheight><course>117.1</course><type>1</type></trkpt>
      <trkpt lat="40.58454683" lon="-4.90581614"><ele>1842</ele><speed>13.21</speed><time>2016-07-01T16:47:43Z</time><pdop>8.0</pdop><geoidheight>54.00</geoidheight><course>81.9</course><type>1</type></trkpt>
      <trkpt lat="40.58468323" lon="-4.9056029"><ele>1847</ele><speed>10.87</speed><time>2016-07-01T16:47:45Z</time><pdop>6.0</pdop><geoidheight>54.00</geoidheight><course>54.0</course><type>1</type></trkpt>
      <trkpt lat="40.5847717" lon="-4.90545424"><ele>1851</ele><speed>7.79</speed><time>2016-07-01T16:47:47Z</time><pdop>6.0</pdop><geoidheight>54.00</geoidheight><course>49.1</course><type>1</type></trkpt>
      <trkpt lat="40.58484441" lon="-4.90533224"><ele>1852</ele><speed>6.77</speed><time>2016-07-01T16:47:49Z</time><pdop>7.0</pdop><geoidheight>54.00</geoidheight><course>39.9</course><type>1</type></trkpt>
      <trkpt lat="40.58495795" lon="-4.90522875"><ele>1854</ele><speed>7.28</speed><time>2016-07-01T16:47:51Z</time><pdop>8.0</pdop><geoidheight>54.00</geoidheight><course>39.1</course><type>1</type></trkpt>
      <trkpt lat="40.58507102" lon="-4.90512454"><ele>1858</ele><speed>6.50</speed><time>2016-07-01T16:47:53Z</time><pdop>7.0</pdop><geoidheight>54.00</geoidheight><course>40.6</course><type>1</type></trkpt>
      <trkpt lat="40.58518978" lon="-4.90515942"><ele>1862</ele><speed>5.25</speed><time>2016-07-01T16:47:55Z</time><pdop>5.0</pdop><geoidheight>54.00</geoidheight><course>350.1</course><type>1</type></trkpt>
      <trkpt lat="40.58523729" lon="-4.90526792"><ele>1865</ele><speed>4.94</speed><time>2016-07-01T16:47:57Z</time><pdop>5.0</pdop><geoidheight>54.00</geoidheight><course>284.8</course><type>1</type></trkpt>
      <trkpt lat="40.58518647" lon="-4.90539346"><ele>1869</ele><speed>6.40</speed><time>2016-07-01T16:47:59Z</time><pdop>4.0</pdop><geoidheight>54.00</geoidheight><course>230.8</course><type>1</type></trkpt>
      <trkpt lat="40.58504697" lon="-4.9054368"><ele>1871</ele><speed>9.15</speed><time>2016-07-01T16:48:01Z</time><pdop>4.0</pdop><geoidheight>54.00</geoidheight><course>191.2</course><type>1</type></trkpt>
      <trkpt lat="40.58495239" lon="-4.90545257"><ele>1874</ele><speed>10.45</speed><time>2016-07-01T16:48:02Z</time><pdop>4.0</pdop><geoidheight>54.00</geoidheight><course>179.4</course><type>1</type></trkpt>
      <trkpt lat="40.58484873" lon="-4.90542742"><ele>1877</ele><speed>11.28</speed><time>2016-07-01T16:48:03Z</time><pdop>4.0</pdop><geoidheight>54.00</geoidheight><course>167.7</course><type>1</type></trkpt>
      <trkpt lat="40.58475076" lon="-4.90540018"><ele>1879</ele><speed>11.86</speed><time>2016-07-01T16:48:04Z</time><pdop>4.0</pdop><geoidheight>54.00</geoidheight><course>163.9</course><type>1</type></trkpt>
      <trkpt lat="40.58465714" lon="-4.90530046"><ele>1881</ele><speed>12.94</speed><time>2016-07-01T16:48:05Z</time><pdop>4.0</pdop><geoidheight>54.00</geoidheight><course>146.9</course><type>1</type></trkpt>
      <trkpt lat="40.58456983" lon="-4.90517402"><ele>1882</ele><speed>14.33</speed><time>2016-07-01T16:48:06Z</time><pdop>4.0</pdop><geoidheight>54.00</geoidheight><course>135.1</course><type>1</type></trkpt>
      <trkpt lat="40.58447946" lon="-4.90502323"><ele>1883</ele><speed>15.08</speed><time>2016-07-01T16:48:07Z</time><pdop>5.0</pdop><geoidheight>54.00</geoidheight><course>128.8</course><type>1</type></trkpt>
      <trkpt lat="40.58439164" lon="-4.90485139"><ele>1884</ele><speed>15.83</speed><time>2016-07-01T16:48:08Z</time><pdop>4.0</pdop><geoidheight>54.00</geoidheight><course>121.4</course><type>1</type></trkpt>
      <trkpt lat="40.58433139" lon="-4.90466951"><ele>1886</ele><speed>15.78</speed><time>2016-07-01T16:48:09Z</time><pdop>5.0</pdop><geoidheight>54.00</geoidheight><course>116.2</course><type>1</type></trkpt>
      <trkpt lat="40.58426172" lon="-4.90450408"><ele>1887</ele><speed>15.42</speed><time>2016-07-01T16:48:10Z</time><pdop>6.0</pdop><geoidheight>54.00</geoidheight><course>116.1</course><type>1</type></trkpt>
      <trkpt lat="40.58430403" lon="-4.90423984"><ele>1889</ele><speed>11.79</speed><time>2016-07-01T16:48:12Z</time><pdop>9.0</pdop><geoidheight>54.00</geoidheight><course>97.5</course><type>1</type></trkpt>
      <trkpt lat="40.58441552" lon="-4.90406043"><ele>1891</ele><speed>8.73</speed><time>2016-07-01T16:48:14Z</time><pdop>10.0</pdop><geoidheight>54.00</geoidheight><course>79.2</course><type>1</type></trkpt>
      <trkpt lat="40.58464199" lon="-4.90404645"><ele>1893</ele><speed>7.02</speed><time>2016-07-01T16:48:16Z</time><pdop>10.0</pdop><geoidheight>54.00</geoidheight><course>27.4</course><type>1</type></trkpt>
      <trkpt lat="40.58479501" lon="-4.90423704"><ele>1897</ele><speed>3.88</speed><time>2016-07-01T16:48:20Z</time><pdop>9.0</pdop><geoidheight>54.00</geoidheight><course>315.4</course><type>1</type></trkpt>
      <trkpt lat="40.58456472" lon="-4.90430939"><ele>1899</ele><speed>9.53</speed><time>2016-07-01T16:48:22Z</time><pdop>7.0</pdop><geoidheight>54.00</geoidheight><course>189.5</course><type>1</type></trkpt>
      <trkpt lat="40.58437517" lon="-4.90438946"><ele>1905</ele><speed>10.37</speed><time>2016-07-01T16:48:24Z</time><pdop>7.0</pdop><geoidheight>54.00</geoidheight><course>187.1</course><type>1</type></trkpt>
      <trkpt lat="40.58417736" lon="-4.90427338"><ele>1908</ele><speed>10.10</speed><time>2016-07-01T16:48:26Z</time><pdop>9.0</pdop><geoidheight>54.00</geoidheight><course>148.1</course><type>1</type></trkpt>
      <trkpt lat="40.58399536" lon="-4.9039688"><ele>1913</ele><speed>14.30</speed><time>2016-07-01T16:48:28Z</time><pdop>8.0</pdop><geoidheight>54.00</geoidheight><course>125.9</course><type>1</type></trkpt>
      <trkpt lat="40.58393981" lon="-4.9038055"><ele>1917</ele><speed>14.02</speed><time>2016-07-01T16:48:29Z</time><pdop>7.0</pdop><geoidheight>54.00</geoidheight><course>116.8</course><type>1</type></trkpt>
      <trkpt lat="40.58390199" lon="-4.90360328"><ele>1920</ele><speed>15.48</speed><time>2016-07-01T16:48:30Z</time><pdop>7.0</pdop><geoidheight>54.00</geoidheight><course>105.3</course><type>1</type></trkpt>
      <trkpt lat="40.58387333" lon="-4.90341018"><ele>1922</ele><speed>15.23</speed><time>2016-07-01T16:48:31Z</time><pdop>7.0</pdop><geoidheight>54.00</geoidheight><course>101.6</course><type>1</type></trkpt>
      <trkpt lat="40.58390576" lon="-4.90307056"><ele>1926</ele><speed>14.69</speed><time>2016-07-01T16:48:33Z</time><pdop>11.0</pdop><geoidheight>54.00</geoidheight><course>90.8</course><type>1</type></trkpt>
      <trkpt lat="40.58404537" lon="-4.90286548"><ele>1933</ele><speed>6.80</speed><time>2016-07-01T16:48:36Z</time><pdop>12.0</pdop><geoidheight>54.00</geoidheight><course>59.6</course><type>1</type></trkpt>
      <trkpt lat="40.58426159" lon="-4.9028281"><ele>1942</ele><speed>3.94</speed><time>2016-07-01T16:48:39Z</time><pdop>11.0</pdop><geoidheight>54.00</geoidheight><course>6.0</course><type>1</type></trkpt>
      <trkpt lat="40.58418987" lon="-4.90308267"><ele>1957</ele><speed>7.10</speed><time>2016-07-01T16:48:45Z</time><pdop>11.0</pdop><geoidheight>54.00</geoidheight><course>191.3</course><type>1</type></trkpt>
      <trkpt lat="40.58393694" lon="-4.90296482"><ele>1963</ele><speed>11.73</speed><time>2016-07-01T16:48:48Z</time><pdop>11.0</pdop><geoidheight>54.00</geoidheight><course>152.7</course><type>1</type></trkpt>
      <trkpt lat="40.58373112" lon="-4.90281427"><ele>1968</ele><speed>12.65</speed><time>2016-07-01T16:48:50Z</time><pdop>12.0</pdop><geoidheight>54.00</geoidheight><course>142.1</course><type>1</type></trkpt>
      <trkpt lat="40.58363552" lon="-4.90247648"><ele>1974</ele><speed>14.08</speed><time>2016-07-01T16:48:52Z</time><pdop>12.0</pdop><geoidheight>54.00</geoidheight><course>112.6</course><type>1</type></trkpt>
      <trkpt lat="40.58357885" lon="-4.90210089"><ele>1978</ele><speed>14.84</speed><time>2016-07-01T16:48:54Z</time><pdop>14.0</pdop><geoidheight>54.00</geoidheight><course>105.5</course><type>1</type></trkpt>
      <trkpt lat="40.58376767" lon="-4.90185614"><ele>1987</ele><speed>6.04</speed><time>2016-07-01T16:48:58Z</time><pdop>13.0</pdop><geoidheight>54.00</geoidheight><course>38.9</course><type>1</type></trkpt>
      <trkpt lat="40.58396342" lon="-4.90202646"><ele>1996</ele><speed>4.71</speed><time>2016-07-01T16:49:01Z</time><pdop>12.0</pdop><geoidheight>54.00</geoidheight><course>324.1</course><type>1</type></trkpt>
      <trkpt lat="40.58376095" lon="-4.9021614"><ele>2000</ele><speed>8.72</speed><time>2016-07-01T16:49:04Z</time><pdop>11.0</pdop><geoidheight>54.00</geoidheight><course>185.9</course><type>1</type></trkpt>
      <trkpt lat="40.5835581" lon="-4.90212172"><ele>2007</ele><speed>10.96</speed><time>2016-07-01T16:49:06Z</time><pdop>11.0</pdop><geoidheight>54.00</geoidheight><course>166.2</course><type>1</type></trkpt>
      <trkpt lat="40.58333145" lon="-4.90203545"><ele>2013</ele><speed>11.61</speed><time>2016-07-01T16:49:08Z</time><pdop>12.0</pdop><geoidheight>54.00</geoidheight><course>152.0</course><type>1</type></trkpt>
      <trkpt lat="40.58318659" lon="-4.90166256"><ele>2024</ele><speed>12.00</speed><time>2016-07-01T16:49:11Z</time><pdop>14.0</pdop><geoidheight>54.00</geoidheight><course>112.3</course><type>1</type></trkpt>
      <trkpt lat="40.583082" lon="-4.90126944"><ele>2029</ele><speed>13.56</speed><time>2016-07-01T16:49:13Z</time><pdop>15.0</pdop><geoidheight>54.00</geoidheight><course>109.3</course><type>1</type></trkpt>
      <trkpt lat="40.58311432" lon="-4.90085944"><ele>2038</ele><speed>10.28</speed><time>2016-07-01T16:49:16Z</time><pdop>13.0</pdop><geoidheight>54.00</geoidheight><course>98.0</course><type>1</type></trkpt>
      <trkpt lat="40.58339609" lon="-4.90082165"><ele>2050</ele><speed>5.76</speed><time>2016-07-01T16:49:19Z</time><pdop>13.0</pdop><geoidheight>54.00</geoidheight><course>13.6</course><type>1</type></trkpt>
      <trkpt lat="40.58335131" lon="-4.90115642"><ele>2065</ele><speed>8.62</speed><time>2016-07-01T16:49:23Z</time><pdop>10.0</pdop><geoidheight>54.00</geoidheight><course>220.0</course><type>1</type></trkpt>
      <trkpt lat="40.58310779" lon="-4.9012158"><ele>2072</ele><speed>10.25</speed><time>2016-07-01T16:49:26Z</time><pdop>10.0</pdop><geoidheight>54.00</geoidheight><course>182.5</course><type>1</type></trkpt>
      <trkpt lat="40.58284812" lon="-4.90105053"><ele>2077</ele><speed>10.58</speed><time>2016-07-01T16:49:29Z</time><pdop>12.0</pdop><geoidheight>54.00</geoidheight><course>152.8</course><type>1</type></trkpt>
      <trkpt lat="40.58272607" lon="-4.90066803"><ele>2081</ele><speed>12.97</speed><time>2016-07-01T16:49:31Z</time><pdop>12.0</pdop><geoidheight>54.00</geoidheight><course>118.3</course><type>1</type></trkpt>
      <trkpt lat="40.58263822" lon="-4.90031403"><ele>2088</ele><speed>13.42</speed><time>2016-07-01T16:49:33Z</time><pdop>11.0</pdop><geoidheight>54.00</geoidheight><course>106.5</course><type>1</type></trkpt>
      <trkpt lat="40.58261039" lon="-4.89999691"><ele>2091</ele><speed>12.20</speed><time>2016-07-01T16:49:35Z</time><pdop>12.0</pdop><geoidheight>54.00</geoidheight><course>99.9</course><type>1</type></trkpt>
      <trkpt lat="40.58277437" lon="-4.89977599"><ele>2095</ele><speed>9.92</speed><time>2016-07-01T16:49:37Z</time><pdop>10.0</pdop><geoidheight>54.00</geoidheight><course>57.4</course><type>1</type></trkpt>
      <trkpt lat="40.58292865" lon="-4.89962044"><ele>2104</ele><speed>6.16</speed><time>2016-07-01T16:49:40Z</time><pdop>10.0</pdop><geoidheight>54.00</geoidheight><course>29.6</course><type>1</type></trkpt>
      <trkpt lat="40.58306329" lon="-4.8996574"><ele>2112</ele><speed>3.72</speed><time>2016-07-01T16:49:43Z</time><pdop>4.0</pdop><geoidheight>54.00</geoidheight><course>337.5</course><type>1</type></trkpt>
      <trkpt lat="40.58313487" lon="-4.89974333"><ele>2120</ele><speed>4.71</speed><time>2016-07-01T16:49:45Z</time><pdop>4.0</pdop><geoidheight>54.00</geoidheight><course>296.1</course><type>1</type></trkpt>
      <trkpt lat="40.58311811" lon="-4.89985783"><ele>2124</ele><speed>5.12</speed><time>2016-07-01T16:49:47Z</time><pdop>5.0</pdop><geoidheight>54.00</geoidheight><course>250.1</course><type>1</type></trkpt>
      <trkpt lat="40.58303956" lon="-4.89991887"><ele>2128</ele><speed>8.50</speed><time>2016-07-01T16:49:48Z</time><pdop>4.0</pdop><geoidheight>54.00</geoidheight><course>214.7</course><type>1</type></trkpt>
      <trkpt lat="40.58297441" lon="-4.89998011"><ele>2130</ele><speed>8.40</speed><time>2016-07-01T16:49:49Z</time><pdop>4.0</pdop><geoidheight>54.00</geoidheight><course>212.1</course><type>1</type></trkpt>
      <trkpt lat="40.58285727" lon="-4.90006041"><ele>2134</ele><speed>6.45</speed><time>2016-07-01T16:49:51Z</time><pdop>6.0</pdop><geoidheight>54.00</geoidheight><course>197.9</course><type>1</type></trkpt>
      <trkpt lat="40.58270214" lon="-4.90003457"><ele>2137</ele><speed>10.18</speed><time>2016-07-01T16:49:52Z</time><pdop>7.0</pdop><geoidheight>54.00</geoidheight><course>181.7</course><type>1</type></trkpt>
      <trkpt lat="40.58250129" lon="-4.89988222"><ele>2138</ele><speed>11.19</speed><time>2016-07-01T16:49:54Z</time><pdop>8.0</pdop><geoidheight>54.00</geoidheight><course>155.3</course><type>1</type></trkpt>
      <trkpt lat="40.58239943" lon="-4.89963261"><ele>2143</ele><speed>14.73</speed><time>2016-07-01T16:49:55Z</time><pdop>5.0</pdop><geoidheight>54.00</geoidheight><course>131.1</course><type>1</type></trkpt>
      <trkpt lat="40.5823277" lon="-4.89945592"><ele>2150</ele><speed>15.03</speed><time>2016-07-01T16:49:56Z</time><pdop>5.0</pdop><geoidheight>54.00</geoidheight><course>122.1</course><type>1</type></trkpt>
      <trkpt lat="40.58227818" lon="-4.89928998"><ele>2154</ele><speed>14.15</speed><time>2016-07-01T16:49:57Z</time><pdop>4.0</pdop><geoidheight>54.00</geoidheight><course>112.2</course><type>1</type></trkpt>
      <trkpt lat="40.58223526" lon="-4.89913005"><ele>2156</ele><speed>13.67</speed><time>2016-07-01T16:49:58Z</time><pdop>5.0</pdop><geoidheight>54.00</geoidheight><course>110.0</course><type>1</type></trkpt>
      <trkpt lat="40.58220401" lon="-4.89897032"><ele>2159</ele><speed>14.04</speed><time>2016-07-01T16:49:59Z</time><pdop>5.0</pdop><geoidheight>54.00</geoidheight><course>105.3</course><type>1</type></trkpt>
      <trkpt lat="40.58216348" lon="-4.89880234"><ele>2161</ele><speed>14.00</speed><time>2016-07-01T16:50:00Z</time><pdop>6.0</pdop><geoidheight>54.00</geoidheight><course>105.6</course><type>1</type></trkpt>
      <trkpt lat="40.58215999" lon="-4.89863945"><ele>2163</ele><speed>13.29</speed><time>2016-07-01T16:50:01Z</time><pdop>6.0</pdop><geoidheight>54.00</geoidheight><course>100.0</course><type>1</type></trkpt>
      <trkpt lat="40.58231706" lon="-4.89843521"><ele>2168</ele><speed>9.20</speed><time>2016-07-01T16:50:03Z</time><pdop>5.0</pdop><geoidheight>54.00</geoidheight><course>63.0</course><type>1</type></trkpt>
      <trkpt lat="40.58241905" lon="-4.89829202"><ele>2175</ele><speed>7.95</speed><time>2016-07-01T16:50:05Z</time><pdop>5.0</pdop><geoidheight>54.00</geoidheight><course>50.3</course><type>1</type></trkpt>
      <trkpt lat="40.58253568" lon="-4.89820772"><ele>2182</ele><speed>7.85</speed><time>2016-07-01T16:50:07Z</time><pdop>4.0</pdop><geoidheight>54.00</geoidheight><course>30.9</course><type>1</type></trkpt>
      <trkpt lat="40.58260966" lon="-4.89814712"><ele>2185</ele><speed>8.64</speed><time>2016-07-01T16:50:08Z</time><pdop>4.0</pdop><geoidheight>54.00</geoidheight><course>32.6</course><type>1</type></trkpt>
      <trkpt lat="40.58271438" lon="-4.89806692"><ele>2189</ele><speed>6.58</speed><time>2016-07-01T16:50:10Z</time><pdop>4.0</pdop><geoidheight>54.00</geoidheight><course>33.1</course><type>1</type></trkpt>
      <trkpt lat="40.58279723" lon="-4.89802877"><ele>2192</ele><speed>4.15</speed><time>2016-07-01T16:50:12Z</time><pdop>3.0</pdop><geoidheight>54.00</geoidheight><course>16.0</course><type>1</type></trkpt>
      <trkpt lat="40.58287382" lon="-4.89803196"><ele>2195</ele><speed>4.66</speed><time>2016-07-01T16:50:14Z</time><pdop>3.0</pdop><geoidheight>54.00</geoidheight><course>352.2</course><type>1</type></trkpt>
      <trkpt lat="40.58295827" lon="-4.89808201"><ele>2198</ele><speed>4.49</speed><time>2016-07-01T16:50:16Z</time><pdop>3.0</pdop><geoidheight>54.00</geoidheight><course>330.6</course><type>1</type></trkpt>
      <trkpt lat="40.5830043" lon="-4.89814453"><ele>2200</ele><speed>3.11</speed><time>2016-07-01T16:50:18Z</time><pdop>4.0</pdop><geoidheight>54.00</geoidheight><course>302.3</course><type>1</type></trkpt>
      <trkpt lat="40.58302219" lon="-4.89825832"><ele>2200</ele><speed>4.08</speed><time>2016-07-01T16:50:20Z</time><pdop>3.0</pdop><geoidheight>54.00</geoidheight><course>274.1</course><type>1</type></trkpt>
      <trkpt lat="40.58302017" lon="-4.89838057"><ele>2200</ele><speed>5.20</speed><time>2016-07-01T16:50:22Z</time><pdop>3.0</pdop><geoidheight>54.00</geoidheight><course>270.9</course><type>1</type></trkpt>
      <trkpt lat="40.58304247" lon="-4.89850567"><ele>2201</ele><speed>5.20</speed><time>2016-07-01T16:50:24Z</time><pdop>3.0</pdop><geoidheight>54.00</geoidheight><course>288.1</course><type>1</type></trkpt>
      <trkpt lat="40.58309379" lon="-4.89861247"><ele>2202</ele><speed>5.47</speed><time>2016-07-01T16:50:26Z</time><pdop>4.0</pdop><geoidheight>54.00</geoidheight><course>304.0</course><type>1</type></trkpt>
      <trkpt lat="40.58315262" lon="-4.8987198"><ele>2202</ele><speed>5.31</speed><time>2016-07-01T16:50:28Z</time><pdop>3.0</pdop><geoidheight>54.00</geoidheight><course>304.5</course><type>1</type></trkpt>
      <trkpt lat="40.58318192" lon="-4.89877969"><ele>2201</ele><speed>5.87</speed><time>2016-07-01T16:50:29Z</time><pdop>3.0</pdop><geoidheight>54.00</geoidheight><course>303.3</course><type>1</type></trkpt>
      <trkpt lat="40.58324417" lon="-4.89890296"><ele>2197</ele><speed>7.72</speed><time>2016-07-01T16:50:31Z</time><pdop>3.0</pdop><geoidheight>54.00</geoidheight><course>302.2</course><type>1</type></trkpt>
      <trkpt lat="40.58328926" lon="-4.89898752"><ele>2196</ele><speed>8.52</speed><time>2016-07-01T16:50:32Z</time><pdop>3.0</pdop><geoidheight>54.00</geoidheight><course>302.1</course><type>1</type></trkpt>
      <trkpt lat="40.58332278" lon="-4.89906846"><ele>2195</ele><speed>8.14</speed><time>2016-07-01T16:50:33Z</time><pdop>3.0</pdop><geoidheight>54.00</geoidheight><course>300.6</course><type>1</type></trkpt>
      <trkpt lat="40.58335543" lon="-4.8991455"><ele>2195</ele><speed>7.63</speed><time>2016-07-01T16:50:34Z</time><pdop>4.0</pdop><geoidheight>54.00</geoidheight><course>301.0</course><type>1</type></trkpt>
      <trkpt lat="40.58339879" lon="-4.89928174"><ele>2198</ele><speed>5.52</speed><time>2016-07-01T16:50:36Z</time><pdop>4.0</pdop><geoidheight>54.00</geoidheight><course>300.8</course><type>1</type></trkpt>
      <trkpt lat="40.58347207" lon="-4.89937757"><ele>2197</ele><speed>5.56</speed><time>2016-07-01T16:50:38Z</time><pdop>4.0</pdop><geoidheight>54.00</geoidheight><course>313.5</course><type>1</type></trkpt>
      <trkpt lat="40.58354225" lon="-4.89943863"><ele>2196</ele><speed>3.91</speed><time>2016-07-01T16:50:40Z</time><pdop>4.0</pdop><geoidheight>54.00</geoidheight><course>317.0</course><type>1</type></trkpt>
      <trkpt lat="40.58357672" lon="-4.89952618"><ele>2195</ele><speed>3.79</speed><time>2016-07-01T16:50:42Z</time><pdop>4.0</pdop><geoidheight>54.00</geoidheight><course>295.2</course><type>1</type></trkpt>
      <trkpt lat="40.58358976" lon="-4.89961152"><ele>2192</ele><speed>4.61</speed><time>2016-07-01T16:50:44Z</time><pdop>3.0</pdop><geoidheight>54.00</geoidheight><course>282.0</course><type>1</type></trkpt>
      <trkpt lat="40.58358954" lon="-4.899698"><ele>2188</ele><speed>6.17</speed><time>2016-07-01T16:50:45Z</time><pdop>3.0</pdop><geoidheight>54.00</geoidheight><course>277.0</course><type>1</type></trkpt>
      <trkpt lat="40.58360052" lon="-4.89977735"><ele>2183</ele><speed>7.82</speed><time>2016-07-01T16:50:46Z</time><pdop>3.0</pdop><geoidheight>54.00</geoidheight><course>281.6</course><type>1</type></trkpt>
      <trkpt lat="40.58362537" lon="-4.89987051"><ele>2178</ele><speed>9.32</speed><time>2016-07-01T16:50:47Z</time><pdop>3.0</pdop><geoidheight>54.00</geoidheight><course>291.9</course><type>1</type></trkpt>
      <trkpt lat="40.58366514" lon="-4.89996061"><ele>2174</ele><speed>9.57</speed><time>2016-07-01T16:50:48Z</time><pdop>3.0</pdop><geoidheight>54.00</geoidheight><course>300.8</course><type>1</type></trkpt>
      <trkpt lat="40.58371902" lon="-4.90005615"><ele>2173</ele><speed>9.68</speed><time>2016-07-01T16:50:49Z</time><pdop>3.0</pdop><geoidheight>54.00</geoidheight><course>304.1</course><type>1</type></trkpt>
      <trkpt lat="40.58376539" lon="-4.90014068"><ele>2173</ele><speed>9.05</speed><time>2016-07-01T16:50:50Z</time><pdop>3.0</pdop><geoidheight>54.00</geoidheight><course>304.9</course><type>1</type></trkpt>
      <trkpt lat="40.58380656" lon="-4.90021841"><ele>2173</ele><speed>8.08</speed><time>2016-07-01T16:50:51Z</time><pdop>3.0</pdop><geoidheight>54.00</geoidheight><course>304.8</course><type>1</type></trkpt>
      <trkpt lat="40.58384773" lon="-4.90029651"><ele>2173</ele><speed>7.94</speed><time>2016-07-01T16:50:52Z</time><pdop>3.0</pdop><geoidheight>54.00</geoidheight><course>303.7</course><type>1</type></trkpt>
      <trkpt lat="40.58388645" lon="-4.90036962"><ele>2172</ele><speed>7.55</speed><time>2016-07-01T16:50:53Z</time><pdop>3.0</pdop><geoidheight>54.00</geoidheight><course>305.5</course><type>1</type></trkpt>
      <trkpt lat="40.58392404" lon="-4.90044921"><ele>2170</ele><speed>8.07</speed><time>2016-07-01T16:50:54Z</time><pdop>3.0</pdop><geoidheight>54.00</geoidheight><course>304.7</course><type>1</type></trkpt>
      <trkpt lat="40.58396264" lon="-4.90051945"><ele>2167</ele><speed>8.68</speed><time>2016-07-01T16:50:55Z</time><pdop>3.0</pdop><geoidheight>54.00</geoidheight><course>300.3</course><type>1</type></trkpt>
      <trkpt lat="40.58400039" lon="-4.900627"><ele>2167</ele><speed>8.76</speed><time>2016-07-01T16:50:56Z</time><pdop>3.0</pdop><geoidheight>54.00</geoidheight><course>295.9</course><type>1</type></trkpt>
      <trkpt lat="40.5840256" lon="-4.90071809"><ele>2166</ele><speed>8.18</speed><time>2016-07-01T16:50:57Z</time><pdop>3.0</pdop><geoidheight>54.00</geoidheight><course>288.4</course><type>1</type></trkpt>
      <trkpt lat="40.58403946" lon="-4.90080191"><ele>2165</ele><speed>7.49</speed><time>2016-07-01T16:50:58Z</time><pdop>3.0</pdop><geoidheight>54.00</geoidheight><course>284.0</course><type>1</type></trkpt>
      <trkpt lat="40.58405468" lon="-4.90089401"><ele>2163</ele><speed>8.12</speed><time>2016-07-01T16:50:59Z</time><pdop>3.0</pdop><geoidheight>54.00</geoidheight><course>282.2</course><type>1</type></trkpt>
      <trkpt lat="40.58407788" lon="-4.90099404"><ele>2160</ele><speed>8.91</speed><time>2016-07-01T16:51:00Z</time><pdop>3.0</pdop><geoidheight>54.00</geoidheight><course>285.5</course><type>1</type></trkpt>
      <trkpt lat="40.58409897" lon="-4.90109391"><ele>2159</ele><speed>8.81</speed><time>2016-07-01T16:51:01Z</time><pdop>3.0</pdop><geoidheight>54.00</geoidheight><course>285.5</course><type>1</type></trkpt>
      <trkpt lat="40.58415888" lon="-4.90115987"><ele>2159</ele><speed>8.14</speed><time>2016-07-01T16:51:02Z</time><pdop>3.0</pdop><geoidheight>54.00</geoidheight><course>305.6</course><type>1</type></trkpt>
      <trkpt lat="40.5842041" lon="-4.90123771"><ele>2159</ele><speed>7.84</speed><time>2016-07-01T16:51:03Z</time><pdop>4.0</pdop><geoidheight>54.00</geoidheight><course>307.2</course><type>1</type></trkpt>
      <trkpt lat="40.5842606" lon="-4.90135844"><ele>2160</ele><speed>6.19</speed><time>2016-07-01T16:51:05Z</time><pdop>4.0</pdop><geoidheight>54.00</geoidheight><course>299.7</course><type>1</type></trkpt>
      <trkpt lat="40.58431331" lon="-4.90149195"><ele>2160</ele><speed>5.92</speed><time>2016-07-01T16:51:07Z</time><pdop>6.0</pdop><geoidheight>54.00</geoidheight><course>298.8</course><type>1</type></trkpt>
      <trkpt lat="40.58436361" lon="-4.90169201"><ele>2156</ele><speed>7.93</speed><time>2016-07-01T16:51:09Z</time><pdop>6.0</pdop><geoidheight>54.00</geoidheight><course>292.4</course><type>1</type></trkpt>
      <trkpt lat="40.58442126" lon="-4.90189075"><ele>2153</ele><speed>8.95</speed><time>2016-07-01T16:51:11Z</time><pdop>4.0</pdop><geoidheight>54.00</geoidheight><course>291.0</course><type>1</type></trkpt>
      <trkpt lat="40.58443805" lon="-4.90204237"><ele>2150</ele><speed>9.13</speed><time>2016-07-01T16:51:13Z</time><pdop>5.0</pdop><geoidheight>54.00</geoidheight><course>278.5</course><type>1</type></trkpt>
      <trkpt lat="40.58445417" lon="-4.90216714"><ele>2148</ele><speed>9.54</speed><time>2016-07-01T16:51:14Z</time><pdop>5.0</pdop><geoidheight>54.00</geoidheight><course>278.7</course><type>1</type></trkpt>
      <trkpt lat="40.58449733" lon="-4.90238572"><ele>2144</ele><speed>9.24</speed><time>2016-07-01T16:51:16Z</time><pdop>4.0</pdop><geoidheight>54.00</geoidheight><course>284.7</course><type>1</type></trkpt>
      <trkpt lat="40.58452204" lon="-4.90249485"><ele>2144</ele><speed>9.54</speed><time>2016-07-01T16:51:17Z</time><pdop>5.0</pdop><geoidheight>54.00</geoidheight><course>287.7</course><type>1</type></trkpt>
      <trkpt lat="40.58457996" lon="-4.90268013"><ele>2142</ele><speed>8.83</speed><time>2016-07-01T16:51:19Z</time><pdop>4.0</pdop><geoidheight>54.00</geoidheight><course>289.4</course><type>1</type></trkpt>
      <trkpt lat="40.58461269" lon="-4.90278457"><ele>2142</ele><speed>8.09</speed><time>2016-07-01T16:51:20Z</time><pdop>5.0</pdop><geoidheight>54.00</geoidheight><course>291.2</course><type>1</type></trkpt>
      <trkpt lat="40.58465877" lon="-4.90289001"><ele>2140</ele><speed>5.75</speed><time>2016-07-01T16:51:22Z</time><pdop>4.0</pdop><geoidheight>54.00</geoidheight><course>295.0</course><type>1</type></trkpt>
      <trkpt lat="40.58470543" lon="-4.90306439"><ele>2139</ele><speed>5.03</speed><time>2016-07-01T16:51:25Z</time><pdop>10.0</pdop><geoidheight>54.00</geoidheight><course>285.3</course><type>1</type></trkpt>
      <trkpt lat="40.58473127" lon="-4.90336805"><ele>2138</ele><speed>9.05</speed><time>2016-07-01T16:51:28Z</time><pdop>11.0</pdop><geoidheight>54.00</geoidheight><course>277.0</course><type>1</type></trkpt>
      <trkpt lat="40.58483477" lon="-4.90368607"><ele>2135</ele><speed>8.56</speed><time>2016-07-01T16:51:31Z</time><pdop>9.0</pdop><geoidheight>54.00</geoidheight><course>286.4</course><type>1</type></trkpt>
      <trkpt lat="40.58489673" lon="-4.90384537"><ele>2130</ele><speed>8.71</speed><time>2016-07-01T16:51:33Z</time><pdop>6.0</pdop><geoidheight>54.00</geoidheight><course>285.8</course><type>1</type></trkpt>
      <trkpt lat="40.58496499" lon="-4.90403525"><ele>2124</ele><speed>9.68</speed><time>2016-07-01T16:51:35Z</time><pdop>6.0</pdop><geoidheight>54.00</geoidheight><course>293.9</course><type>1</type></trkpt>
      <trkpt lat="40.58499846" lon="-4.90417665"><ele>2123</ele><speed>10.41</speed><time>2016-07-01T16:51:36Z</time><pdop>6.0</pdop><geoidheight>54.00</geoidheight><course>292.1</course><type>1</type></trkpt>
      <trkpt lat="40.585058" lon="-4.90429709"><ele>2120</ele><speed>11.74</speed><time>2016-07-01T16:51:37Z</time><pdop>5.0</pdop><geoidheight>54.00</geoidheight><course>299.7</course><type>1</type></trkpt>
      <trkpt lat="40.58510156" lon="-4.90438774"><ele>2117</ele><speed>9.70</speed><time>2016-07-01T16:51:38Z</time><pdop>4.0</pdop><geoidheight>54.00</geoidheight><course>299.2</course><type>1</type></trkpt>
      <trkpt lat="40.58517264" lon="-4.90450974"><ele>2111</ele><speed>7.72</speed><time>2016-07-01T16:51:40Z</time><pdop>4.0</pdop><geoidheight>54.00</geoidheight><course>297.1</course><type>1</type></trkpt>
      <trkpt lat="40.58523924" lon="-4.90463389"><ele>2101</ele><speed>8.17</speed><time>2016-07-01T16:51:42Z</time><pdop>4.0</pdop><geoidheight>54.00</geoidheight><course>302.6</course><type>1</type></trkpt>
      <trkpt lat="40.58530432" lon="-4.90479667"><ele>2092</ele><speed>8.95</speed><time>2016-07-01T16:51:44Z</time><pdop>4.0</pdop><geoidheight>54.00</geoidheight><course>301.2</course><type>1</type></trkpt>
      <trkpt lat="40.58534954" lon="-4.9048827"><ele>2088</ele><speed>8.51</speed><time>2016-07-01T16:51:45Z</time><pdop>4.0</pdop><geoidheight>54.00</geoidheight><course>300.6</course><type>1</type></trkpt>
      <trkpt lat="40.58543092" lon="-4.90501524"><ele>2082</ele><speed>7.54</speed><time>2016-07-01T16:51:47Z</time><pdop>3.0</pdop><geoidheight>54.00</geoidheight><course>308.6</course><type>1</type></trkpt>
      <trkpt lat="40.58547023" lon="-4.90507212"><ele>2077</ele><speed>7.27</speed><time>2016-07-01T16:51:48Z</time><pdop>3.0</pdop><geoidheight>54.00</geoidheight><course>308.9</course><type>1</type></trkpt>
      <trkpt lat="40.58550833" lon="-4.90513867"><ele>2074</ele><speed>7.89</speed><time>2016-07-01T16:51:49Z</time><pdop>3.0</pdop><geoidheight>54.00</geoidheight><course>306.3</course><type>1</type></trkpt>
      <trkpt lat="40.585544" lon="-4.90520024"><ele>2070</ele><speed>8.24</speed><time>2016-07-01T16:51:50Z</time><pdop>3.0</pdop><geoidheight>54.00</geoidheight><course>305.4</course><type>1</type></trkpt>
      <trkpt lat="40.58558295" lon="-4.90527719"><ele>2066</ele><speed>8.70</speed><time>2016-07-01T16:51:51Z</time><pdop>3.0</pdop><geoidheight>54.00</geoidheight><course>302.0</course><type>1</type></trkpt>
      <trkpt lat="40.58561614" lon="-4.90534566"><ele>2059</ele><speed>9.42</speed><time>2016-07-01T16:51:52Z</time><pdop>3.0</pdop><geoidheight>54.00</geoidheight><course>300.5</course><type>1</type></trkpt>
      <trkpt lat="40.58565362" lon="-4.90543138"><ele>2053</ele><speed>9.79</speed><time>2016-07-01T16:51:53Z</time><pdop>3.0</pdop><geoidheight>54.00</geoidheight><course>300.9</course><type>1</type></trkpt>
      <trkpt lat="40.58569427" lon="-4.90552954"><ele>2049</ele><speed>10.07</speed><time>2016-07-01T16:51:54Z</time><pdop>3.0</pdop><geoidheight>54.00</geoidheight><course>301.9</course><type>1</type></trkpt>
      <trkpt lat="40.58574645" lon="-4.90560454"><ele>2043</ele><speed>9.86</speed><time>2016-07-01T16:51:55Z</time><pdop>3.0</pdop><geoidheight>54.00</geoidheight><course>306.2</course><type>1</type></trkpt>
      <trkpt lat="40.58580015" lon="-4.90570054"><ele>2041</ele><speed>9.79</speed><time>2016-07-01T16:51:56Z</time><pdop>3.0</pdop><geoidheight>54.00</geoidheight><course>306.4</course><type>1</type></trkpt>
      <trkpt lat="40.58585148" lon="-4.90579435"><ele>2038</ele><speed>9.54</speed><time>2016-07-01T16:51:57Z</time><pdop>4.0</pdop><geoidheight>54.00</geoidheight><course>305.0</course><type>1</type></trkpt>
      <trkpt lat="40.58588906" lon="-4.9058819"><ele>2035</ele><speed>9.36</speed><time>2016-07-01T16:51:58Z</time><pdop>4.0</pdop><geoidheight>54.00</geoidheight><course>299.9</course><type>1</type></trkpt>
      <trkpt lat="40.58597359" lon="-4.90605381"><ele>2031</ele><speed>9.71</speed><time>2016-07-01T16:52:00Z</time><pdop>4.0</pdop><geoidheight>54.00</geoidheight><course>299.1</course><type>1</type></trkpt>
      <trkpt lat="40.58603446" lon="-4.90611864"><ele>2026</ele><speed>8.96</speed><time>2016-07-01T16:52:01Z</time><pdop>4.0</pdop><geoidheight>54.00</geoidheight><course>312.1</course><type>1</type></trkpt>
      <trkpt lat="40.586091" lon="-4.90619473"><ele>2024</ele><speed>8.73</speed><time>2016-07-01T16:52:02Z</time><pdop>4.0</pdop><geoidheight>54.00</geoidheight><course>312.4</course><type>1</type></trkpt>
      <trkpt lat="40.58615798" lon="-4.90634539"><ele>2021</ele><speed>7.22</speed><time>2016-07-01T16:52:04Z</time><pdop>3.0</pdop><geoidheight>54.00</geoidheight><course>298.7</course><type>1</type></trkpt>
      <trkpt lat="40.58618305" lon="-4.90644232"><ele>2019</ele><speed>8.18</speed><time>2016-07-01T16:52:05Z</time><pdop>3.0</pdop><geoidheight>54.00</geoidheight><course>296.2</course><type>1</type></trkpt>
      <trkpt lat="40.58621593" lon="-4.90654713"><ele>2017</ele><speed>9.74</speed><time>2016-07-01T16:52:06Z</time><pdop>4.0</pdop><geoidheight>54.00</geoidheight><course>295.4</course><type>1</type></trkpt>
      <trkpt lat="40.58624903" lon="-4.90668408"><ele>2016</ele><speed>10.65</speed><time>2016-07-01T16:52:07Z</time><pdop>4.0</pdop><geoidheight>54.00</geoidheight><course>290.8</course><type>1</type></trkpt>
      <trkpt lat="40.5862909" lon="-4.90684645"><ele>2013</ele><speed>12.28</speed><time>2016-07-01T16:52:08Z</time><pdop>4.0</pdop><geoidheight>54.00</geoidheight><course>290.2</course><type>1</type></trkpt>
      <trkpt lat="40.58633546" lon="-4.90693278"><ele>2008</ele><speed>11.23</speed><time>2016-07-01T16:52:09Z</time><pdop>4.0</pdop><geoidheight>54.00</geoidheight><course>293.3</course><type>1</type></trkpt>
      <trkpt lat="40.58638583" lon="-4.90703945"><ele>2006</ele><speed>10.83</speed><time>2016-07-01T16:52:10Z</time><pdop>4.0</pdop><geoidheight>54.00</geoidheight><course>296.7</course><type>1</type></trkpt>
      <trkpt lat="40.58644641" lon="-4.90713925"><ele>2003</ele><speed>10.50</speed><time>2016-07-01T16:52:11Z</time><pdop>4.0</pdop><geoidheight>54.00</geoidheight><course>302.3</course><type>1</type></trkpt>
      <trkpt lat="40.58650653" lon="-4.90723631"><ele>2000</ele><speed>10.70</speed><time>2016-07-01T16:52:12Z</time><pdop>5.0</pdop><geoidheight>54.00</geoidheight><course>305.1</course><type>1</type></trkpt>
      <trkpt lat="40.58660132" lon="-4.90741686"><ele>1994</ele><speed>10.24</speed><time>2016-07-01T16:52:14Z</time><pdop>4.0</pdop><geoidheight>54.00</geoidheight><course>304.0</course><type>1</type></trkpt>
      <trkpt lat="40.58663945" lon="-4.90751679"><ele>1993</ele><speed>10.01</speed><time>2016-07-01T16:52:15Z</time><pdop>5.0</pdop><geoidheight>54.00</geoidheight><course>302.6</course><type>1</type></trkpt>
      <trkpt lat="40.58669482" lon="-4.90760471"><ele>1987</ele><speed>10.35</speed><time>2016-07-01T16:52:16Z</time><pdop>4.0</pdop><geoidheight>54.00</geoidheight><course>309.1</course><type>1</type></trkpt>
      <trkpt lat="40.58675953" lon="-4.90768873"><ele>1983</ele><speed>10.54</speed><time>2016-07-01T16:52:17Z</time><pdop>4.0</pdop><geoidheight>54.00</geoidheight><course>312.4</course><type>1</type></trkpt>
      <trkpt lat="40.58681611" lon="-4.90776703"><ele>1980</ele><speed>10.27</speed><time>2016-07-01T16:52:18Z</time><pdop>4.0</pdop><geoidheight>54.00</geoidheight><course>311.2</course><type>1</type></trkpt>
      <trkpt lat="40.58687002" lon="-4.90785906"><ele>1977</ele><speed>10.00</speed><time>2016-07-01T16:52:19Z</time><pdop>4.0</pdop><geoidheight>54.00</geoidheight><course>309.9</course><type>1</type></trkpt>
      <trkpt lat="40.58693228" lon="-4.90793381"><ele>1975</ele><speed>9.82</speed><time>2016-07-01T16:52:20Z</time><pdop>5.0</pdop><geoidheight>54.00</geoidheight><course>315.6</course><type>1</type></trkpt>
      <trkpt lat="40.58704899" lon="-4.90803356"><ele>1968</ele><speed>8.64</speed><time>2016-07-01T16:52:22Z</time><pdop>5.0</pdop><geoidheight>54.00</geoidheight><course>325.8</course><type>1</type></trkpt>
      <trkpt lat="40.58716029" lon="-4.90814229"><ele>1963</ele><speed>9.00</speed><time>2016-07-01T16:52:24Z</time><pdop>6.0</pdop><geoidheight>54.00</geoidheight><course>321.0</course><type>1</type></trkpt>
      <trkpt lat="40.58729978" lon="-4.90827447"><ele>1954</ele><speed>10.66</speed><time>2016-07-01T16:52:26Z</time><pdop>6.0</pdop><geoidheight>54.00</geoidheight><course>320.0</course><type>1</type></trkpt>
      <trkpt lat="40.58746089" lon="-4.90842644"><ele>1948</ele><speed>10.68</speed><time>2016-07-01T16:52:28Z</time><pdop>6.0</pdop><geoidheight>54.00</geoidheight><course>319.3</course><type>1</type></trkpt>
      <trkpt lat="40.58757723" lon="-4.90859682"><ele>1939</ele><speed>10.47</speed><time>2016-07-01T16:52:30Z</time><pdop>5.0</pdop><geoidheight>54.00</geoidheight><course>312.8</course><type>1</type></trkpt>
      <trkpt lat="40.58769691" lon="-4.90878411"><ele>1931</ele><speed>11.05</speed><time>2016-07-01T16:52:32Z</time><pdop>5.0</pdop><geoidheight>54.00</geoidheight><course>313.3</course><type>1</type></trkpt>
      <trkpt lat="40.58777092" lon="-4.90888955"><ele>1927</ele><speed>11.72</speed><time>2016-07-01T16:52:33Z</time><pdop>5.0</pdop><geoidheight>54.00</geoidheight><course>318.6</course><type>1</type></trkpt>
      <trkpt lat="40.58785039" lon="-4.90896674"><ele>1922</ele><speed>11.78</speed><time>2016-07-01T16:52:34Z</time><pdop>4.0</pdop><geoidheight>54.00</geoidheight><course>321.8</course><type>1</type></trkpt>
      <trkpt lat="40.58793147" lon="-4.90906424"><ele>1919</ele><speed>12.17</speed><time>2016-07-01T16:52:35Z</time><pdop>4.0</pdop><geoidheight>54.00</geoidheight><course>320.8</course><type>1</type></trkpt>
      <trkpt lat="40.5880181" lon="-4.90913558"><ele>1915</ele><speed>11.84</speed><time>2016-07-01T16:52:36Z</time><pdop>4.0</pdop><geoidheight>54.00</geoidheight><course>322.5</course><type>1</type></trkpt>
      <trkpt lat="40.5881003" lon="-4.9092168"><ele>1912</ele><speed>11.60</speed><time>2016-07-01T16:52:37Z</time><pdop>4.0</pdop><geoidheight>54.00</geoidheight><course>322.4</course><type>1</type></trkpt>
      <trkpt lat="40.5881713" lon="-4.90928987"><ele>1908</ele><speed>11.38</speed><time>2016-07-01T16:52:38Z</time><pdop>4.0</pdop><geoidheight>54.00</geoidheight><course>322.4</course><type>1</type></trkpt>
      <trkpt lat="40.58824147" lon="-4.9093785"><ele>1905</ele><speed>10.94</speed><time>2016-07-01T16:52:39Z</time><pdop>4.0</pdop><geoidheight>54.00</geoidheight><course>319.8</course><type>1</type></trkpt>
      <trkpt lat="40.5882996" lon="-4.90946136"><ele>1902</ele><speed>10.33</speed><time>2016-07-01T16:52:40Z</time><pdop>4.0</pdop><geoidheight>54.00</geoidheight><course>314.9</course><type>1</type></trkpt>
      <trkpt lat="40.58834868" lon="-4.9095573"><ele>1899</ele><speed>9.83</speed><time>2016-07-01T16:52:41Z</time><pdop>4.0</pdop><geoidheight>54.00</geoidheight><course>307.4</course><type>1</type></trkpt>
      <trkpt lat="40.5883926" lon="-4.9096586"><ele>1898</ele><speed>9.53</speed><time>2016-07-01T16:52:42Z</time><pdop>4.0</pdop><geoidheight>54.00</geoidheight><course>302.0</course><type>1</type></trkpt>
      <trkpt lat="40.58843682" lon="-4.90976479"><ele>1896</ele><speed>10.24</speed><time>2016-07-01T16:52:43Z</time><pdop>5.0</pdop><geoidheight>54.00</geoidheight><course>299.0</course><type>1</type></trkpt>
      <trkpt lat="40.58849084" lon="-4.90987478"><ele>1895</ele><speed>10.86</speed><time>2016-07-01T16:52:44Z</time><pdop>5.0</pdop><geoidheight>54.00</geoidheight><course>301.7</course><type>1</type></trkpt>
      <trkpt lat="40.58859698" lon="-4.91003959"><ele>1890</ele><speed>10.87</speed><time>2016-07-01T16:52:46Z</time><pdop>7.0</pdop><geoidheight>54.00</geoidheight><course>303.6</course><type>1</type></trkpt>
      <trkpt lat="40.5886858" lon="-4.91017779"><ele>1887</ele><speed>12.94</speed><time>2016-07-01T16:52:47Z</time><pdop>7.0</pdop><geoidheight>54.00</geoidheight><course>306.8</course><type>1</type></trkpt>
      <trkpt lat="40.58884916" lon="-4.91036491"><ele>1879</ele><speed>11.61</speed><time>2016-07-01T16:52:49Z</time><pdop>5.0</pdop><geoidheight>54.00</geoidheight><course>312.4</course><type>1</type></trkpt>
      <trkpt lat="40.5889191" lon="-4.91047079"><ele>1876</ele><speed>10.95</speed><time>2016-07-01T16:52:50Z</time><pdop>5.0</pdop><geoidheight>54.00</geoidheight><course>313.5</course><type>1</type></trkpt>
      <trkpt lat="40.58905139" lon="-4.91060831"><ele>1870</ele><speed>10.13</speed><time>2016-07-01T16:52:52Z</time><pdop>4.0</pdop><geoidheight>54.00</geoidheight><course>313.1</course><type>1</type></trkpt>
      <trkpt lat="40.58911283" lon="-4.91071655"><ele>1868</ele><speed>10.41</speed><time>2016-07-01T16:52:53Z</time><pdop>5.0</pdop><geoidheight>54.00</geoidheight><course>308.6</course><type>1</type></trkpt>
      <trkpt lat="40.58922214" lon="-4.91095534"><ele>1860</ele><speed>12.91</speed><time>2016-07-01T16:52:55Z</time><pdop>5.0</pdop><geoidheight>54.00</geoidheight><course>300.0</course><type>1</type></trkpt>
      <trkpt lat="40.58927887" lon="-4.91110057"><ele>1857</ele><speed>12.79</speed><time>2016-07-01T16:52:56Z</time><pdop>4.0</pdop><geoidheight>54.00</geoidheight><course>296.3</course><type>1</type></trkpt>
      <trkpt lat="40.58931686" lon="-4.91122904"><ele>1854</ele><speed>12.23</speed><time>2016-07-01T16:52:57Z</time><pdop>4.0</pdop><geoidheight>54.00</geoidheight><course>294.4</course><type>1</type></trkpt>
      <trkpt lat="40.58936795" lon="-4.91135946"><ele>1852</ele><speed>11.80</speed><time>2016-07-01T16:52:58Z</time><pdop>4.0</pdop><geoidheight>54.00</geoidheight><course>294.9</course><type>1</type></trkpt>
      <trkpt lat="40.58941186" lon="-4.9114804"><ele>1851</ele><speed>11.59</speed><time>2016-07-01T16:52:59Z</time><pdop>4.0</pdop><geoidheight>54.00</geoidheight><course>294.9</course><type>1</type></trkpt>
      <trkpt lat="40.58944863" lon="-4.91158737"><ele>1849</ele><speed>11.53</speed><time>2016-07-01T16:53:00Z</time><pdop>5.0</pdop><geoidheight>54.00</geoidheight><course>295.1</course><type>1</type></trkpt>
      <trkpt lat="40.58950212" lon="-4.91171668"><ele>1848</ele><speed>11.96</speed><time>2016-07-01T16:53:01Z</time><pdop>5.0</pdop><geoidheight>54.00</geoidheight><course>295.4</course><type>1</type></trkpt>
      <trkpt lat="40.58961503" lon="-4.91196575"><ele>1841</ele><speed>13.47</speed><time>2016-07-01T16:53:03Z</time><pdop>5.0</pdop><geoidheight>54.00</geoidheight><course>297.8</course><type>1</type></trkpt>
      <trkpt lat="40.58966465" lon="-4.9120869"><ele>1839</ele><speed>12.20</speed><time>2016-07-01T16:53:04Z</time><pdop>5.0</pdop><geoidheight>54.00</geoidheight><course>298.6</course><type>1</type></trkpt>
      <trkpt lat="40.58970245" lon="-4.91219343"><ele>1837</ele><speed>11.05</speed><time>2016-07-01T16:53:05Z</time><pdop>4.0</pdop><geoidheight>54.00</geoidheight><course>298.9</course><type>1</type></trkpt>
      <trkpt lat="40.58975519" lon="-4.91230393"><ele>1835</ele><speed>10.92</speed><time>2016-07-01T16:53:06Z</time><pdop>4.0</pdop><geoidheight>54.00</geoidheight><course>298.2</course><type>1</type></trkpt>
      <trkpt lat="40.58981265" lon="-4.91242048"><ele>1833</ele><speed>10.81</speed><time>2016-07-01T16:53:07Z</time><pdop>4.0</pdop><geoidheight>54.00</geoidheight><course>298.5</course><type>1</type></trkpt>
      <trkpt lat="40.58986807" lon="-4.91252227"><ele>1827</ele><speed>11.58</speed><time>2016-07-01T16:53:08Z</time><pdop>4.0</pdop><geoidheight>54.00</geoidheight><course>298.6</course><type>1</type></trkpt>
      <trkpt lat="40.58992325" lon="-4.91263562"><ele>1821</ele><speed>13.09</speed><time>2016-07-01T16:53:09Z</time><pdop>3.0</pdop><geoidheight>54.00</geoidheight><course>299.2</course><type>1</type></trkpt>
      <trkpt lat="40.58999224" lon="-4.91277696"><ele>1815</ele><speed>13.95</speed><time>2016-07-01T16:53:10Z</time><pdop>3.0</pdop><geoidheight>54.00</geoidheight><course>300.9</course><type>1</type></trkpt>
      <trkpt lat="40.59005824" lon="-4.91288719"><ele>1809</ele><speed>14.03</speed><time>2016-07-01T16:53:11Z</time><pdop>3.0</pdop><geoidheight>54.00</geoidheight><course>302.9</course><type>1</type></trkpt>
      <trkpt lat="40.59012472" lon="-4.91301384"><ele>1805</ele><speed>13.68</speed><time>2016-07-01T16:53:12Z</time><pdop>3.0</pdop><geoidheight>54.00</geoidheight><course>302.8</course><type>1</type></trkpt>
      <trkpt lat="40.59019068" lon="-4.91314323"><ele>1803</ele><speed>13.21</speed><time>2016-07-01T16:53:13Z</time><pdop>3.0</pdop><geoidheight>54.00</geoidheight><course>302.6</course><type>1</type></trkpt>
      <trkpt lat="40.59025404" lon="-4.91326501"><ele>1802</ele><speed>12.63</speed><time>2016-07-01T16:53:14Z</time><pdop>4.0</pdop><geoidheight>54.00</geoidheight><course>303.4</course><type>1</type></trkpt>
      <trkpt lat="40.59031839" lon="-4.91338353"><ele>1800</ele><speed>12.28</speed><time>2016-07-01T16:53:15Z</time><pdop>4.0</pdop><geoidheight>54.00</geoidheight><course>303.4</course><type>1</type></trkpt>
      <trkpt lat="40.59035989" lon="-4.9134771"><ele>1797</ele><speed>11.33</speed><time>2016-07-01T16:53:16Z</time><pdop>4.0</pdop><geoidheight>54.00</geoidheight><course>301.6</course><type>1</type></trkpt>
      <trkpt lat="40.59040613" lon="-4.91358933"><ele>1791</ele><speed>12.14</speed><time>2016-07-01T16:53:17Z</time><pdop>4.0</pdop><geoidheight>54.00</geoidheight><course>297.3</course><type>1</type></trkpt>
      <trkpt lat="40.59045106" lon="-4.91372114"><ele>1788</ele><speed>12.83</speed><time>2016-07-01T16:53:18Z</time><pdop>3.0</pdop><geoidheight>54.00</geoidheight><course>294.2</course><type>1</type></trkpt>
      <trkpt lat="40.59049609" lon="-4.91386336"><ele>1787</ele><speed>13.26</speed><time>2016-07-01T16:53:19Z</time><pdop>3.0</pdop><geoidheight>54.00</geoidheight><course>293.2</course><type>1</type></trkpt>
      <trkpt lat="40.59054369" lon="-4.91401482"><ele>1787</ele><speed>12.92</speed><time>2016-07-01T16:53:20Z</time><pdop>3.0</pdop><geoidheight>54.00</geoidheight><course>291.0</course><type>1</type></trkpt>
      <trkpt lat="40.59057509" lon="-4.91414593"><ele>1786</ele><speed>12.12</speed><time>2016-07-01T16:53:21Z</time><pdop>3.0</pdop><geoidheight>54.00</geoidheight><course>285.9</course><type>1</type></trkpt>
      <trkpt lat="40.59059956" lon="-4.91426879"><ele>1785</ele><speed>11.46</speed><time>2016-07-01T16:53:22Z</time><pdop>3.0</pdop><geoidheight>54.00</geoidheight><course>282.8</course><type>1</type></trkpt>
      <trkpt lat="40.59062003" lon="-4.91441246"><ele>1784</ele><speed>11.96</speed><time>2016-07-01T16:53:23Z</time><pdop>3.0</pdop><geoidheight>54.00</geoidheight><course>282.1</course><type>1</type></trkpt>
      <trkpt lat="40.59065533" lon="-4.91454886"><ele>1782</ele><speed>11.98</speed><time>2016-07-01T16:53:24Z</time><pdop>3.0</pdop><geoidheight>54.00</geoidheight><course>287.0</course><type>1</type></trkpt>
      <trkpt lat="40.59069393" lon="-4.91468034"><ele>1782</ele><speed>11.50</speed><time>2016-07-01T16:53:25Z</time><pdop>3.0</pdop><geoidheight>54.00</geoidheight><course>290.8</course><type>1</type></trkpt>
      <trkpt lat="40.59072011" lon="-4.91478024"><ele>1783</ele><speed>9.73</speed><time>2016-07-01T16:53:26Z</time><pdop>3.0</pdop><geoidheight>54.00</geoidheight><course>291.8</course><type>1</type></trkpt>
      <trkpt lat="40.59073268" lon="-4.91486617"><ele>1783</ele><speed>8.08</speed><time>2016-07-01T16:53:27Z</time><pdop>3.0</pdop><geoidheight>54.00</geoidheight><course>287.3</course><type>1</type></trkpt>
      <trkpt lat="40.59076956" lon="-4.91498475"><ele>1780</ele><speed>6.21</speed><time>2016-07-01T16:53:29Z</time><pdop>3.0</pdop><geoidheight>54.00</geoidheight><course>292.6</course><type>1</type></trkpt>
      <trkpt lat="40.5907891" lon="-4.91505771"><ele>1779</ele><speed>6.66</speed><time>2016-07-01T16:53:30Z</time><pdop>3.0</pdop><geoidheight>54.00</geoidheight><course>294.0</course><type>1</type></trkpt>
      <trkpt lat="40.59081752" lon="-4.91513951"><ele>1778</ele><speed>7.57</speed><time>2016-07-01T16:53:31Z</time><pdop>3.0</pdop><geoidheight>54.00</geoidheight><course>295.5</course><type>1</type></trkpt>
      <trkpt lat="40.59085485" lon="-4.9152296"><ele>1776</ele><speed>8.28</speed><time>2016-07-01T16:53:32Z</time><pdop>3.0</pdop><geoidheight>54.00</geoidheight><course>298.2</course><type>1</type></trkpt>
      <trkpt lat="40.59090593" lon="-4.91532274"><ele>1774</ele><speed>9.88</speed><time>2016-07-01T16:53:33Z</time><pdop>3.0</pdop><geoidheight>54.00</geoidheight><course>300.4</course><type>1</type></trkpt>
      <trkpt lat="40.59095913" lon="-4.91542292"><ele>1775</ele><speed>10.44</speed><time>2016-07-01T16:53:34Z</time><pdop>3.0</pdop><geoidheight>54.00</geoidheight><course>305.1</course><type>1</type></trkpt>
      <trkpt lat="40.59101731" lon="-4.91550992"><ele>1775</ele><speed>10.12</speed><time>2016-07-01T16:53:35Z</time><pdop>3.0</pdop><geoidheight>54.00</geoidheight><course>311.3</course><type>1</type></trkpt>
      <trkpt lat="40.59108741" lon="-4.91555232"><ele>1779</ele><speed>9.20</speed><time>2016-07-01T16:53:36Z</time><pdop>3.0</pdop><geoidheight>54.00</geoidheight><course>327.0</course><type>1</type></trkpt>
      <trkpt lat="40.59117095" lon="-4.91559159"><ele>1780</ele><speed>9.25</speed><time>2016-07-01T16:53:37Z</time><pdop>3.0</pdop><geoidheight>54.00</geoidheight><course>335.8</course><type>1</type></trkpt>
      <trkpt lat="40.59124705" lon="-4.91561041"><ele>1783</ele><speed>9.07</speed><time>2016-07-01T16:53:38Z</time><pdop>3.0</pdop><geoidheight>54.00</geoidheight><course>346.3</course><type>1</type></trkpt>
      <trkpt lat="40.5913258" lon="-4.91560549"><ele>1782</ele><speed>8.92</speed><time>2016-07-01T16:53:39Z</time><pdop>3.0</pdop><geoidheight>54.00</geoidheight><course>355.0</course><type>1</type></trkpt>
      <trkpt lat="40.59140548" lon="-4.91561471"><ele>1783</ele><speed>8.89</speed><time>2016-07-01T16:53:40Z</time><pdop>4.0</pdop><geoidheight>54.00</geoidheight><course>355.0</course><type>1</type></trkpt>
      <trkpt lat="40.59148913" lon="-4.9156023"><ele>1783</ele><speed>9.57</speed><time>2016-07-01T16:53:41Z</time><pdop>4.0</pdop><geoidheight>54.00</geoidheight><course>357.3</course><type>1</type></trkpt>
      <trkpt lat="40.59158298" lon="-4.91560535"><ele>1784</ele><speed>9.40</speed><time>2016-07-01T16:53:42Z</time><pdop>5.0</pdop><geoidheight>54.00</geoidheight><course>357.7</course><type>1</type></trkpt>
      <trkpt lat="40.5917327" lon="-4.91563166"><ele>1783</ele><speed>7.80</speed><time>2016-07-01T16:53:44Z</time><pdop>6.0</pdop><geoidheight>54.00</geoidheight><course>350.9</course><type>1</type></trkpt>
      <trkpt lat="40.59183384" lon="-4.91571041"><ele>1784</ele><speed>5.77</speed><time>2016-07-01T16:53:46Z</time><pdop>5.0</pdop><geoidheight>54.00</geoidheight><course>314.6</course><type>1</type></trkpt>
      <trkpt lat="40.59189925" lon="-4.91583618"><ele>1786</ele><speed>6.07</speed><time>2016-07-01T16:53:48Z</time><pdop>6.0</pdop><geoidheight>54.00</geoidheight><course>294.7</course><type>1</type></trkpt>
      <trkpt lat="40.59194678" lon="-4.91598379"><ele>1787</ele><speed>4.71</speed><time>2016-07-01T16:53:51Z</time><pdop>6.0</pdop><geoidheight>54.00</geoidheight><course>285.2</course><type>1</type></trkpt>
      <trkpt lat="40.59189809" lon="-4.91614467"><ele>1784</ele><speed>5.49</speed><time>2016-07-01T16:53:54Z</time><pdop>6.0</pdop><geoidheight>54.00</geoidheight><course>237.2</course><type>1</type></trkpt>
      <trkpt lat="40.59170724" lon="-4.91624336"><ele>1783</ele><speed>11.89</speed><time>2016-07-01T16:53:56Z</time><pdop>6.0</pdop><geoidheight>54.00</geoidheight><course>194.6</course><type>1</type></trkpt>
      <trkpt lat="40.59159995" lon="-4.91628588"><ele>1782</ele><speed>12.12</speed><time>2016-07-01T16:53:57Z</time><pdop>5.0</pdop><geoidheight>54.00</geoidheight><course>191.4</course><type>1</type></trkpt>
      <trkpt lat="40.59149211" lon="-4.91624002"><ele>1783</ele><speed>13.24</speed><time>2016-07-01T16:53:58Z</time><pdop>6.0</pdop><geoidheight>54.00</geoidheight><course>165.7</course><type>1</type></trkpt>
      <trkpt lat="40.59137101" lon="-4.91617414"><ele>1780</ele><speed>13.46</speed><time>2016-07-01T16:53:59Z</time><pdop>7.0</pdop><geoidheight>54.00</geoidheight><course>143.7</course><type>1</type></trkpt>
      <trkpt lat="40.5911751" lon="-4.9160048"><ele>1780</ele><speed>13.46</speed><time>2016-07-01T16:54:01Z</time><pdop>9.0</pdop><geoidheight>54.00</geoidheight><course>141.5</course><type>1</type></trkpt>
      <trkpt lat="40.59102218" lon="-4.91572828"><ele>1782</ele><speed>13.74</speed><time>2016-07-01T16:54:03Z</time><pdop>13.0</pdop><geoidheight>54.00</geoidheight><course>129.5</course><type>1</type></trkpt>
      <trkpt lat="40.59115878" lon="-4.91548285"><ele>1777</ele><speed>12.98</speed><time>2016-07-01T16:54:04Z</time><pdop>10.0</pdop><geoidheight>54.00</geoidheight><course>87.7</course><type>1</type></trkpt>
      <trkpt lat="40.59123968" lon="-4.91516355"><ele>1776</ele><speed>13.02</speed><time>2016-07-01T16:54:06Z</time><pdop>11.0</pdop><geoidheight>54.00</geoidheight><course>77.2</course><type>1</type></trkpt>
      <trkpt lat="40.59134812" lon="-4.91474461"><ele>1774</ele><speed>14.66</speed><time>2016-07-01T16:54:08Z</time><pdop>11.0</pdop><geoidheight>54.00</geoidheight><course>63.1</course><type>1</type></trkpt>
      <trkpt lat="40.59156256" lon="-4.91476276"><ele>1774</ele><speed>9.87</speed><time>2016-07-01T16:54:10Z</time><pdop>9.0</pdop><geoidheight>54.00</geoidheight><course>16.3</course><type>1</type></trkpt>
      <trkpt lat="40.59176717" lon="-4.91482908"><ele>1772</ele><speed>7.19</speed><time>2016-07-01T16:54:13Z</time><pdop>6.0</pdop><geoidheight>54.00</geoidheight><course>341.2</course><type>1</type></trkpt>
      <trkpt lat="40.59188548" lon="-4.91491826"><ele>1772</ele><speed>6.76</speed><time>2016-07-01T16:54:15Z</time><pdop>5.0</pdop><geoidheight>54.00</geoidheight><course>326.9</course><type>1</type></trkpt>
      <trkpt lat="40.59198892" lon="-4.91503699"><ele>1769</ele><speed>6.91</speed><time>2016-07-01T16:54:17Z</time><pdop>5.0</pdop><geoidheight>54.00</geoidheight><course>318.6</course><type>1</type></trkpt>
      <trkpt lat="40.59206836" lon="-4.91513941"><ele>1769</ele><speed>6.18</speed><time>2016-07-01T16:54:19Z</time><pdop>5.0</pdop><geoidheight>54.00</geoidheight><course>314.6</course><type>1</type></trkpt>
      <trkpt lat="40.59215139" lon="-4.9152262"><ele>1767</ele><speed>6.14</speed><time>2016-07-01T16:54:21Z</time><pdop>5.0</pdop><geoidheight>54.00</geoidheight><course>323.4</course><type>1</type></trkpt>
      <trkpt lat="40.59225517" lon="-4.91529739"><ele>1765</ele><speed>6.60</speed><time>2016-07-01T16:54:23Z</time><pdop>7.0</pdop><geoidheight>54.00</geoidheight><course>328.3</course><type>1</type></trkpt>
      <trkpt lat="40.59235643" lon="-4.91542599"><ele>1763</ele><speed>8.08</speed><time>2016-07-01T16:54:25Z</time><pdop>6.0</pdop><geoidheight>54.00</geoidheight><course>316.7</course><type>1</type></trkpt>
      <trkpt lat="40.59246016" lon="-4.91555596"><ele>1757</ele><speed>7.58</speed><time>2016-07-01T16:54:27Z</time><pdop>5.0</pdop><geoidheight>54.00</geoidheight><course>317.2</course><type>1</type></trkpt>
      <trkpt lat="40.59255904" lon="-4.91568082"><ele>1749</ele><speed>9.23</speed><time>2016-07-01T16:54:29Z</time><pdop>5.0</pdop><geoidheight>54.00</geoidheight><course>311.2</course><type>1</type></trkpt>
      <trkpt lat="40.59266828" lon="-4.91587286"><ele>1742</ele><speed>10.60</speed><time>2016-07-01T16:54:31Z</time><pdop>5.0</pdop><geoidheight>54.00</geoidheight><course>302.7</course><type>1</type></trkpt>
      <trkpt lat="40.5927845" lon="-4.91603488"><ele>1734</ele><speed>10.43</speed><time>2016-07-01T16:54:33Z</time><pdop>6.0</pdop><geoidheight>54.00</geoidheight><course>311.6</course><type>1</type></trkpt>
      <trkpt lat="40.59290954" lon="-4.9161984"><ele>1730</ele><speed>9.97</speed><time>2016-07-01T16:54:35Z</time><pdop>6.0</pdop><geoidheight>54.00</geoidheight><course>316.2</course><type>1</type></trkpt>
      <trkpt lat="40.59301411" lon="-4.9163665"><ele>1725</ele><speed>10.00</speed><time>2016-07-01T16:54:37Z</time><pdop>5.0</pdop><geoidheight>54.00</geoidheight><course>310.3</course><type>1</type></trkpt>
      <trkpt lat="40.59307363" lon="-4.91645654"><ele>1723</ele><speed>9.77</speed><time>2016-07-01T16:54:38Z</time><pdop>5.0</pdop><geoidheight>54.00</geoidheight><course>312.5</course><type>1</type></trkpt>
      <trkpt lat="40.59319111" lon="-4.91662128"><ele>1720</ele><speed>9.49</speed><time>2016-07-01T16:54:40Z</time><pdop>5.0</pdop><geoidheight>54.00</geoidheight><course>310.0</course><type>1</type></trkpt>
      <trkpt lat="40.59328995" lon="-4.91679504"><ele>1715</ele><speed>9.36</speed><time>2016-07-01T16:54:42Z</time><pdop>6.0</pdop><geoidheight>54.00</geoidheight><course>306.8</course><type>1</type></trkpt>
      <trkpt lat="40.59337918" lon="-4.91696169"><ele>1708</ele><speed>10.08</speed><time>2016-07-01T16:54:44Z</time><pdop>5.0</pdop><geoidheight>54.00</geoidheight><course>300.6</course><type>1</type></trkpt>
      <trkpt lat="40.59345153" lon="-4.91714326"><ele>1701</ele><speed>9.33</speed><time>2016-07-01T16:54:46Z</time><pdop>5.0</pdop><geoidheight>54.00</geoidheight><course>299.8</course><type>1</type></trkpt>
      <trkpt lat="40.59353856" lon="-4.91732969"><ele>1693</ele><speed>10.12</speed><time>2016-07-01T16:54:48Z</time><pdop>4.0</pdop><geoidheight>54.00</geoidheight><course>304.8</course><type>1</type></trkpt>
      <trkpt lat="40.59364278" lon="-4.91751897"><ele>1679</ele><speed>13.49</speed><time>2016-07-01T16:54:50Z</time><pdop>4.0</pdop><geoidheight>54.00</geoidheight><course>303.7</course><type>1</type></trkpt>
      <trkpt lat="40.59370667" lon="-4.91764972"><ele>1674</ele><speed>14.37</speed><time>2016-07-01T16:54:51Z</time><pdop>4.0</pdop><geoidheight>54.00</geoidheight><course>305.6</course><type>1</type></trkpt>
      <trkpt lat="40.59377714" lon="-4.91777879"><ele>1669</ele><speed>14.37</speed><time>2016-07-01T16:54:52Z</time><pdop>5.0</pdop><geoidheight>54.00</geoidheight><course>305.6</course><type>1</type></trkpt>
      <trkpt lat="40.59384421" lon="-4.91786396"><ele>1664</ele><speed>13.19</speed><time>2016-07-01T16:54:53Z</time><pdop>4.0</pdop><geoidheight>54.00</geoidheight><course>306.4</course><type>1</type></trkpt>
      <trkpt lat="40.59390426" lon="-4.91796697"><ele>1662</ele><speed>12.02</speed><time>2016-07-01T16:54:54Z</time><pdop>5.0</pdop><geoidheight>54.00</geoidheight><course>306.1</course><type>1</type></trkpt>
      <trkpt lat="40.59405287" lon="-4.91818054"><ele>1653</ele><speed>11.63</speed><time>2016-07-01T16:54:56Z</time><pdop>5.0</pdop><geoidheight>54.00</geoidheight><course>310.4</course><type>1</type></trkpt>
      <trkpt lat="40.59411748" lon="-4.91828027"><ele>1650</ele><speed>11.36</speed><time>2016-07-01T16:54:57Z</time><pdop>6.0</pdop><geoidheight>54.00</geoidheight><course>310.4</course><type>1</type></trkpt>
      <trkpt lat="40.594189" lon="-4.91838842"><ele>1645</ele><speed>11.84</speed><time>2016-07-01T16:54:58Z</time><pdop>4.0</pdop><geoidheight>54.00</geoidheight><course>311.3</course><type>1</type></trkpt>
      <trkpt lat="40.59425504" lon="-4.91848241"><ele>1642</ele><speed>11.83</speed><time>2016-07-01T16:54:59Z</time><pdop>4.0</pdop><geoidheight>54.00</geoidheight><course>310.4</course><type>1</type></trkpt>
      <trkpt lat="40.59432613" lon="-4.91858222"><ele>1638</ele><speed>11.33</speed><time>2016-07-01T16:55:00Z</time><pdop>4.0</pdop><geoidheight>54.00</geoidheight><course>310.0</course><type>1</type></trkpt>
      <trkpt lat="40.59439025" lon="-4.91867667"><ele>1635</ele><speed>11.38</speed><time>2016-07-01T16:55:01Z</time><pdop>4.0</pdop><geoidheight>54.00</geoidheight><course>309.7</course><type>1</type></trkpt>
      <trkpt lat="40.59445715" lon="-4.91877452"><ele>1634</ele><speed>11.60</speed><time>2016-07-01T16:55:02Z</time><pdop>4.0</pdop><geoidheight>54.00</geoidheight><course>310.8</course><type>1</type></trkpt>
      <trkpt lat="40.59453676" lon="-4.91888357"><ele>1633</ele><speed>11.43</speed><time>2016-07-01T16:55:03Z</time><pdop>4.0</pdop><geoidheight>54.00</geoidheight><course>311.1</course><type>1</type></trkpt>
      <trkpt lat="40.59460575" lon="-4.91894785"><ele>1630</ele><speed>10.85</speed><time>2016-07-01T16:55:04Z</time><pdop>4.0</pdop><geoidheight>54.00</geoidheight><course>314.0</course><type>1</type></trkpt>
      <trkpt lat="40.59467602" lon="-4.91903888"><ele>1629</ele><speed>11.77</speed><time>2016-07-01T16:55:05Z</time><pdop>4.0</pdop><geoidheight>54.00</geoidheight><course>312.1</course><type>1</type></trkpt>
      <trkpt lat="40.59474348" lon="-4.91914247"><ele>1627</ele><speed>11.70</speed><time>2016-07-01T16:55:06Z</time><pdop>4.0</pdop><geoidheight>54.00</geoidheight><course>312.9</course><type>1</type></trkpt>
      <trkpt lat="40.59481503" lon="-4.91924337"><ele>1626</ele><speed>11.68</speed><time>2016-07-01T16:55:07Z</time><pdop>5.0</pdop><geoidheight>54.00</geoidheight><course>312.9</course><type>1</type></trkpt>
      <trkpt lat="40.5948891" lon="-4.91936341"><ele>1623</ele><speed>12.69</speed><time>2016-07-01T16:55:08Z</time><pdop>4.0</pdop><geoidheight>54.00</geoidheight><course>306.8</course><type>1</type></trkpt>
      <trkpt lat="40.59495225" lon="-4.91948566"><ele>1619</ele><speed>12.32</speed><time>2016-07-01T16:55:09Z</time><pdop>4.0</pdop><geoidheight>54.00</geoidheight><course>308.9</course><type>1</type></trkpt>
      <trkpt lat="40.59502102" lon="-4.91959551"><ele>1617</ele><speed>12.75</speed><time>2016-07-01T16:55:10Z</time><pdop>4.0</pdop><geoidheight>54.00</geoidheight><course>311.6</course><type>1</type></trkpt>
      <trkpt lat="40.59509587" lon="-4.91969594"><ele>1615</ele><speed>12.58</speed><time>2016-07-01T16:55:11Z</time><pdop>4.0</pdop><geoidheight>54.00</geoidheight><course>315.8</course><type>1</type></trkpt>
      <trkpt lat="40.59517737" lon="-4.91978955"><ele>1611</ele><speed>11.98</speed><time>2016-07-01T16:55:12Z</time><pdop>4.0</pdop><geoidheight>54.00</geoidheight><course>316.9</course><type>1</type></trkpt>
      <trkpt lat="40.59525038" lon="-4.91988278"><ele>1611</ele><speed>11.87</speed><time>2016-07-01T16:55:13Z</time><pdop>4.0</pdop><geoidheight>54.00</geoidheight><course>315.0</course><type>1</type></trkpt>
      <trkpt lat="40.5953263" lon="-4.919987"><ele>1610</ele><speed>12.14</speed><time>2016-07-01T16:55:14Z</time><pdop>5.0</pdop><geoidheight>54.00</geoidheight><course>313.4</course><type>1</type></trkpt>
      <trkpt lat="40.59539413" lon="-4.92008688"><ele>1606</ele><speed>12.14</speed><time>2016-07-01T16:55:15Z</time><pdop>4.0</pdop><geoidheight>54.00</geoidheight><course>314.2</course><type>1</type></trkpt>
      <trkpt lat="40.59547151" lon="-4.92018032"><ele>1602</ele><speed>12.02</speed><time>2016-07-01T16:55:16Z</time><pdop>5.0</pdop><geoidheight>54.00</geoidheight><course>315.5</course><type>1</type></trkpt>
      <trkpt lat="40.59555086" lon="-4.9202744"><ele>1598</ele><speed>12.34</speed><time>2016-07-01T16:55:17Z</time><pdop>4.0</pdop><geoidheight>54.00</geoidheight><course>317.4</course><type>1</type></trkpt>
      <trkpt lat="40.59562034" lon="-4.92035879"><ele>1593</ele><speed>12.18</speed><time>2016-07-01T16:55:18Z</time><pdop>4.0</pdop><geoidheight>54.00</geoidheight><course>314.4</course><type>1</type></trkpt>
      <trkpt lat="40.59568939" lon="-4.92047123"><ele>1591</ele><speed>12.25</speed><time>2016-07-01T16:55:19Z</time><pdop>5.0</pdop><geoidheight>54.00</geoidheight><course>310.3</course><type>1</type></trkpt>
      <trkpt lat="40.59575744" lon="-4.92056473"><ele>1586</ele><speed>12.38</speed><time>2016-07-01T16:55:20Z</time><pdop>5.0</pdop><geoidheight>54.00</geoidheight><course>310.3</course><type>1</type></trkpt>
      <trkpt lat="40.5958294" lon="-4.92065819"><ele>1584</ele><speed>12.39</speed><time>2016-07-01T16:55:21Z</time><pdop>5.0</pdop><geoidheight>54.00</geoidheight><course>312.6</course><type>1</type></trkpt>
      <trkpt lat="40.59590185" lon="-4.92076211"><ele>1581</ele><speed>12.15</speed><time>2016-07-01T16:55:22Z</time><pdop>6.0</pdop><geoidheight>54.00</geoidheight><course>312.5</course><type>1</type></trkpt>
      <trkpt lat="40.59605008" lon="-4.92096117"><ele>1574</ele><speed>13.24</speed><time>2016-07-01T16:55:24Z</time><pdop>6.0</pdop><geoidheight>54.00</geoidheight><course>312.5</course><type>1</type></trkpt>
      <trkpt lat="40.59614489" lon="-4.92107825"><ele>1572</ele><speed>13.17</speed><time>2016-07-01T16:55:25Z</time><pdop>6.0</pdop><geoidheight>54.00</geoidheight><course>316.0</course><type>1</type></trkpt>
      <trkpt lat="40.59623316" lon="-4.92118245"><ele>1570</ele><speed>13.01</speed><time>2016-07-01T16:55:26Z</time><pdop>7.0</pdop><geoidheight>54.00</geoidheight><course>318.3</course><type>1</type></trkpt>
      <trkpt lat="40.59631464" lon="-4.92128056"><ele>1564</ele><speed>12.80</speed><time>2016-07-01T16:55:27Z</time><pdop>5.0</pdop><geoidheight>54.00</geoidheight><course>319.4</course><type>1</type></trkpt>
      <trkpt lat="40.59641256" lon="-4.9213531"><ele>1560</ele><speed>12.84</speed><time>2016-07-01T16:55:28Z</time><pdop>5.0</pdop><geoidheight>54.00</geoidheight><course>319.4</course><type>1</type></trkpt>
      <trkpt lat="40.59650197" lon="-4.92145968"><ele>1557</ele><speed>12.78</speed><time>2016-07-01T16:55:29Z</time><pdop>5.0</pdop><geoidheight>54.00</geoidheight><course>319.0</course><type>1</type></trkpt>
      <trkpt lat="40.59658011" lon="-4.92155351"><ele>1552</ele><speed>12.23</speed><time>2016-07-01T16:55:30Z</time><pdop>5.0</pdop><geoidheight>54.00</geoidheight><course>317.2</course><type>1</type></trkpt>
      <trkpt lat="40.59665124" lon="-4.92164988"><ele>1548</ele><speed>12.23</speed><time>2016-07-01T16:55:31Z</time><pdop>5.0</pdop><geoidheight>54.00</geoidheight><course>314.4</course><type>1</type></trkpt>
      <trkpt lat="40.59672786" lon="-4.92176419"><ele>1546</ele><speed>12.52</speed><time>2016-07-01T16:55:32Z</time><pdop>6.0</pdop><geoidheight>54.00</geoidheight><course>311.4</course><type>1</type></trkpt>
      <trkpt lat="40.59688812" lon="-4.92198668"><ele>1540</ele><speed>13.05</speed><time>2016-07-01T16:55:34Z</time><pdop>5.0</pdop><geoidheight>54.00</geoidheight><course>311.8</course><type>1</type></trkpt>
      <trkpt lat="40.5969631" lon="-4.92209437"><ele>1537</ele><speed>12.83</speed><time>2016-07-01T16:55:35Z</time><pdop>6.0</pdop><geoidheight>54.00</geoidheight><course>314.1</course><type>1</type></trkpt>
      <trkpt lat="40.59710381" lon="-4.92226239"><ele>1533</ele><speed>11.88</speed><time>2016-07-01T16:55:37Z</time><pdop>4.0</pdop><geoidheight>54.00</geoidheight><course>312.1</course><type>1</type></trkpt>
      <trkpt lat="40.59717484" lon="-4.92236533"><ele>1532</ele><speed>11.78</speed><time>2016-07-01T16:55:38Z</time><pdop>6.0</pdop><geoidheight>54.00</geoidheight><course>312.1</course><type>1</type></trkpt>
      <trkpt lat="40.59725487" lon="-4.92247298"><ele>1526</ele><speed>12.40</speed><time>2016-07-01T16:55:39Z</time><pdop>5.0</pdop><geoidheight>54.00</geoidheight><course>314.4</course><type>1</type></trkpt>
      <trkpt lat="40.59733908" lon="-4.92257662"><ele>1521</ele><speed>12.89</speed><time>2016-07-01T16:55:40Z</time><pdop>5.0</pdop><geoidheight>54.00</geoidheight><course>318.3</course><type>1</type></trkpt>
      <trkpt lat="40.59742205" lon="-4.92267353"><ele>1517</ele><speed>12.91</speed><time>2016-07-01T16:55:41Z</time><pdop>6.0</pdop><geoidheight>54.00</geoidheight><course>318.3</course><type>1</type></trkpt>
      <trkpt lat="40.5974916" lon="-4.92278989"><ele>1514</ele><speed>12.61</speed><time>2016-07-01T16:55:42Z</time><pdop>6.0</pdop><geoidheight>54.00</geoidheight><course>311.9</course><type>1</type></trkpt>
      <trkpt lat="40.59764636" lon="-4.92300385"><ele>1509</ele><speed>12.08</speed><time>2016-07-01T16:55:44Z</time><pdop>5.0</pdop><geoidheight>54.00</geoidheight><course>309.8</course><type>1</type></trkpt>
      <trkpt lat="40.59772859" lon="-4.92309547"><ele>1505</ele><speed>11.81</speed><time>2016-07-01T16:55:45Z</time><pdop>6.0</pdop><geoidheight>54.00</geoidheight><course>312.7</course><type>1</type></trkpt>
      <trkpt lat="40.5978893" lon="-4.92328305"><ele>1501</ele><speed>11.84</speed><time>2016-07-01T16:55:47Z</time><pdop>7.0</pdop><geoidheight>54.00</geoidheight><course>311.0</course><type>1</type></trkpt>
      <trkpt lat="40.59804213" lon="-4.9235067"><ele>1499</ele><speed>12.05</speed><time>2016-07-01T16:55:49Z</time><pdop>7.0</pdop><geoidheight>54.00</geoidheight><course>313.6</course><type>1</type></trkpt>
      <trkpt lat="40.59820839" lon="-4.92370415"><ele>1496</ele><speed>12.18</speed><time>2016-07-01T16:55:51Z</time><pdop>9.0</pdop><geoidheight>54.00</geoidheight><course>315.5</course><type>1</type></trkpt>
      <trkpt lat="40.5983364" lon="-4.92386357"><ele>1492</ele><speed>10.91</speed><time>2016-07-01T16:55:53Z</time><pdop>8.0</pdop><geoidheight>54.00</geoidheight><course>317.1</course><type>1</type></trkpt>
      <trkpt lat="40.59848356" lon="-4.92407051"><ele>1489</ele><speed>11.83</speed><time>2016-07-01T16:55:55Z</time><pdop>8.0</pdop><geoidheight>54.00</geoidheight><course>314.3</course><type>1</type></trkpt>
      <trkpt lat="40.59861949" lon="-4.92432629"><ele>1484</ele><speed>12.95</speed><time>2016-07-01T16:55:57Z</time><pdop>7.0</pdop><geoidheight>54.00</geoidheight><course>311.0</course><type>1</type></trkpt>
      <trkpt lat="40.59876283" lon="-4.92455229"><ele>1475</ele><speed>13.14</speed><time>2016-07-01T16:55:59Z</time><pdop>6.0</pdop><geoidheight>54.00</geoidheight><course>311.2</course><type>1</type></trkpt>
      <trkpt lat="40.59883193" lon="-4.9246665"><ele>1473</ele><speed>12.54</speed><time>2016-07-01T16:56:00Z</time><pdop>6.0</pdop><geoidheight>54.00</geoidheight><course>312.6</course><type>1</type></trkpt>
      <trkpt lat="40.59897483" lon="-4.92485752"><ele>1469</ele><speed>10.98</speed><time>2016-07-01T16:56:02Z</time><pdop>6.0</pdop><geoidheight>54.00</geoidheight><course>314.0</course><type>1</type></trkpt>
      <trkpt lat="40.59910519" lon="-4.92501459"><ele>1461</ele><speed>10.93</speed><time>2016-07-01T16:56:04Z</time><pdop>6.0</pdop><geoidheight>54.00</geoidheight><course>321.6</course><type>1</type></trkpt>
      <trkpt lat="40.59924794" lon="-4.92518521"><ele>1455</ele><speed>11.39</speed><time>2016-07-01T16:56:06Z</time><pdop>7.0</pdop><geoidheight>54.00</geoidheight><course>319.6</course><type>1</type></trkpt>
      <trkpt lat="40.59939551" lon="-4.92535526"><ele>1452</ele><speed>11.53</speed><time>2016-07-01T16:56:08Z</time><pdop>7.0</pdop><geoidheight>54.00</geoidheight><course>315.8</course><type>1</type></trkpt>
      <trkpt lat="40.59954629" lon="-4.92553009"><ele>1444</ele><speed>11.67</speed><time>2016-07-01T16:56:10Z</time><pdop>7.0</pdop><geoidheight>54.00</geoidheight><course>318.3</course><type>1</type></trkpt>
      <trkpt lat="40.59969439" lon="-4.92572339"><ele>1434</ele><speed>11.49</speed><time>2016-07-01T16:56:12Z</time><pdop>7.0</pdop><geoidheight>54.00</geoidheight><course>314.6</course><type>1</type></trkpt>
      <trkpt lat="40.59984009" lon="-4.92592062"><ele>1425</ele><speed>12.10</speed><time>2016-07-01T16:56:14Z</time><pdop>7.0</pdop><geoidheight>54.00</geoidheight><course>312.0</course><type>1</type></trkpt>
      <trkpt lat="40.59998493" lon="-4.92609615"><ele>1422</ele><speed>11.29</speed><time>2016-07-01T16:56:16Z</time><pdop>8.0</pdop><geoidheight>54.00</geoidheight><course>315.2</course><type>1</type></trkpt>
      <trkpt lat="40.60012672" lon="-4.92630735"><ele>1420</ele><speed>11.05</speed><time>2016-07-01T16:56:18Z</time><pdop>10.0</pdop><geoidheight>54.00</geoidheight><course>310.6</course><type>1</type></trkpt>
      <trkpt lat="40.60024525" lon="-4.92649762"><ele>1416</ele><speed>11.45</speed><time>2016-07-01T16:56:20Z</time><pdop>10.0</pdop><geoidheight>54.00</geoidheight><course>308.3</course><type>1</type></trkpt>
      <trkpt lat="40.60037131" lon="-4.92671504"><ele>1412</ele><speed>12.02</speed><time>2016-07-01T16:56:22Z</time><pdop>10.0</pdop><geoidheight>54.00</geoidheight><course>308.0</course><type>1</type></trkpt>
      <trkpt lat="40.60050378" lon="-4.92698617"><ele>1403</ele><speed>13.27</speed><time>2016-07-01T16:56:24Z</time><pdop>10.0</pdop><geoidheight>54.00</geoidheight><course>302.5</course><type>1</type></trkpt>
      <trkpt lat="40.60061482" lon="-4.92721492"><ele>1390</ele><speed>12.41</speed><time>2016-07-01T16:56:26Z</time><pdop>8.0</pdop><geoidheight>54.00</geoidheight><course>303.6</course><type>1</type></trkpt>
      <trkpt lat="40.60073783" lon="-4.92743667"><ele>1379</ele><speed>11.97</speed><time>2016-07-01T16:56:28Z</time><pdop>6.0</pdop><geoidheight>54.00</geoidheight><course>305.5</course><type>1</type></trkpt>
      <trkpt lat="40.60086931" lon="-4.92764647"><ele>1370</ele><speed>11.73</speed><time>2016-07-01T16:56:30Z</time><pdop>6.0</pdop><geoidheight>54.00</geoidheight><course>309.5</course><type>1</type></trkpt>
      <trkpt lat="40.60100853" lon="-4.92784607"><ele>1366</ele><speed>11.50</speed><time>2016-07-01T16:56:32Z</time><pdop>5.0</pdop><geoidheight>54.00</geoidheight><course>314.6</course><type>1</type></trkpt>
      <trkpt lat="40.60106951" lon="-4.92793296"><ele>1360</ele><speed>11.16</speed><time>2016-07-01T16:56:33Z</time><pdop>5.0</pdop><geoidheight>54.00</geoidheight><course>314.1</course><type>1</type></trkpt>
      <trkpt lat="40.60113528" lon="-4.9280307"><ele>1358</ele><speed>11.17</speed><time>2016-07-01T16:56:34Z</time><pdop>6.0</pdop><geoidheight>54.00</geoidheight><course>312.3</course><type>1</type></trkpt>
      <trkpt lat="40.601261" lon="-4.92821428"><ele>1352</ele><speed>10.78</speed><time>2016-07-01T16:56:36Z</time><pdop>7.0</pdop><geoidheight>54.00</geoidheight><course>315.5</course><type>1</type></trkpt>
      <trkpt lat="40.60139599" lon="-4.92839077"><ele>1346</ele><speed>11.43</speed><time>2016-07-01T16:56:38Z</time><pdop>7.0</pdop><geoidheight>54.00</geoidheight><course>316.1</course><type>1</type></trkpt>
      <trkpt lat="40.601535" lon="-4.92858132"><ele>1341</ele><speed>11.33</speed><time>2016-07-01T16:56:40Z</time><pdop>6.0</pdop><geoidheight>54.00</geoidheight><course>314.3</course><type>1</type></trkpt>
      <trkpt lat="40.60168771" lon="-4.92871968"><ele>1335</ele><speed>11.34</speed><time>2016-07-01T16:56:42Z</time><pdop>6.0</pdop><geoidheight>54.00</geoidheight><course>320.3</course><type>1</type></trkpt>
      <trkpt lat="40.60182388" lon="-4.9289143"><ele>1332</ele><speed>11.56</speed><time>2016-07-01T16:56:44Z</time><pdop>8.0</pdop><geoidheight>54.00</geoidheight><course>310.1</course><type>1</type></trkpt>
      <trkpt lat="40.60194499" lon="-4.92910159"><ele>1329</ele><speed>11.32</speed><time>2016-07-01T16:56:46Z</time><pdop>8.0</pdop><geoidheight>54.00</geoidheight><course>310.1</course><type>1</type></trkpt>
      <trkpt lat="40.60204825" lon="-4.92928383"><ele>1323</ele><speed>9.43</speed><time>2016-07-01T16:56:48Z</time><pdop>6.0</pdop><geoidheight>54.00</geoidheight><course>309.5</course><type>1</type></trkpt>
      <trkpt lat="40.6021378" lon="-4.92945733"><ele>1317</ele><speed>6.28</speed><time>2016-07-01T16:56:51Z</time><pdop>7.0</pdop><geoidheight>54.00</geoidheight><course>307.8</course><type>1</type></trkpt>
      <trkpt lat="40.60220943" lon="-4.92961969"><ele>1312</ele><speed>8.93</speed><time>2016-07-01T16:56:53Z</time><pdop>6.0</pdop><geoidheight>54.00</geoidheight><course>304.2</course><type>1</type></trkpt>
      <trkpt lat="40.60227117" lon="-4.92980939"><ele>1309</ele><speed>8.65</speed><time>2016-07-01T16:56:55Z</time><pdop>10.0</pdop><geoidheight>54.00</geoidheight><course>289.3</course><type>1</type></trkpt>
      <trkpt lat="40.60194635" lon="-4.92950258"><ele>1291</ele><speed>6.90</speed><time>2016-07-01T16:57:01Z</time><pdop>31.0</pdop><geoidheight>54.00</geoidheight><course>123.0</course><type>1</type></trkpt>
      <trkpt lat="40.60204679" lon="-4.92873536"><ele>1286</ele><speed>14.24</speed><time>2016-07-01T16:57:04Z</time><pdop>24.0</pdop><geoidheight>54.00</geoidheight><course>76.7</course><type>1</type></trkpt>
      <trkpt lat="40.60218277" lon="-4.92808971"><ele>1280</ele><speed>14.61</speed><time>2016-07-01T16:57:07Z</time><pdop>13.0</pdop><geoidheight>54.00</geoidheight><course>76.1</course><type>1</type></trkpt>
      <trkpt lat="40.60226773" lon="-4.92772467"><ele>1275</ele><speed>14.71</speed><time>2016-07-01T16:57:09Z</time><pdop>13.0</pdop><geoidheight>54.00</geoidheight><course>77.2</course><type>1</type></trkpt>
      <trkpt lat="40.6022316" lon="-4.92735028"><ele>1270</ele><speed>15.41</speed><time>2016-07-01T16:57:11Z</time><pdop>10.0</pdop><geoidheight>54.00</geoidheight><course>94.3</course><type>1</type></trkpt>
      <trkpt lat="40.60216458" lon="-4.92698333"><ele>1265</ele><speed>14.64</speed><time>2016-07-01T16:57:13Z</time><pdop>8.0</pdop><geoidheight>54.00</geoidheight><course>102.5</course><type>1</type></trkpt>
      <trkpt lat="40.60204975" lon="-4.92662271"><ele>1262</ele><speed>14.63</speed><time>2016-07-01T16:57:15Z</time><pdop>11.0</pdop><geoidheight>54.00</geoidheight><course>109.8</course><type>1</type></trkpt>
      <trkpt lat="40.60196351" lon="-4.9263134"><ele>1260</ele><speed>14.42</speed><time>2016-07-01T16:57:17Z</time><pdop>9.0</pdop><geoidheight>54.00</geoidheight><course>111.2</course><type>1</type></trkpt>
      <trkpt lat="40.60182848" lon="-4.92607235"><ele>1256</ele><speed>10.94</speed><time>2016-07-01T16:57:19Z</time><pdop>8.0</pdop><geoidheight>54.00</geoidheight><course>113.4</course><type>1</type></trkpt>
      <trkpt lat="40.60173278" lon="-4.92588931"><ele>1252</ele><speed>10.10</speed><time>2016-07-01T16:57:21Z</time><pdop>7.0</pdop><geoidheight>54.00</geoidheight><course>129.3</course><type>1</type></trkpt>
      <trkpt lat="40.60160334" lon="-4.92569143"><ele>1248</ele><speed>11.37</speed><time>2016-07-01T16:57:23Z</time><pdop>8.0</pdop><geoidheight>54.00</geoidheight><course>130.5</course><type>1</type></trkpt>
      <trkpt lat="40.6014467" lon="-4.9255024"><ele>1245</ele><speed>11.37</speed><time>2016-07-01T16:57:25Z</time><pdop>9.0</pdop><geoidheight>54.00</geoidheight><course>131.5</course><type>1</type></trkpt>
      <trkpt lat="40.60129476" lon="-4.92533893"><ele>1242</ele><speed>11.12</speed><time>2016-07-01T16:57:27Z</time><pdop>11.0</pdop><geoidheight>54.00</geoidheight><course>137.8</course><type>1</type></trkpt>
      <trkpt lat="40.60112558" lon="-4.92511596"><ele>1238</ele><speed>12.24</speed><time>2016-07-01T16:57:29Z</time><pdop>10.0</pdop><geoidheight>54.00</geoidheight><course>136.1</course><type>1</type></trkpt>
      <trkpt lat="40.60099646" lon="-4.92503224"><ele>1231</ele><speed>9.00</speed><time>2016-07-01T16:57:31Z</time><pdop>6.0</pdop><geoidheight>54.00</geoidheight><course>146.2</course><type>1</type></trkpt>
      <trkpt lat="40.60085844" lon="-4.92490864"><ele>1228</ele><speed>8.58</speed><time>2016-07-01T16:57:33Z</time><pdop>6.0</pdop><geoidheight>54.00</geoidheight><course>148.4</course><type>1</type></trkpt>
      <trkpt lat="40.60067097" lon="-4.92482035"><ele>1224</ele><speed>10.77</speed><time>2016-07-01T16:57:35Z</time><pdop>7.0</pdop><geoidheight>54.00</geoidheight><course>149.5</course><type>1</type></trkpt>
      <trkpt lat="40.60055455" lon="-4.92464544"><ele>1217</ele><speed>11.46</speed><time>2016-07-01T16:57:37Z</time><pdop>6.0</pdop><geoidheight>54.00</geoidheight><course>129.6</course><type>1</type></trkpt>
      <trkpt lat="40.60043872" lon="-4.92446232"><ele>1211</ele><speed>10.38</speed><time>2016-07-01T16:57:39Z</time><pdop>5.0</pdop><geoidheight>54.00</geoidheight><course>133.2</course><type>1</type></trkpt>
      <trkpt lat="40.60036132" lon="-4.92440099"><ele>1209</ele><speed>9.85</speed><time>2016-07-01T16:57:40Z</time><pdop>5.0</pdop><geoidheight>54.00</geoidheight><course>145.8</course><type>1</type></trkpt>
      <trkpt lat="40.6002252" lon="-4.92432724"><ele>1201</ele><speed>8.48</speed><time>2016-07-01T16:57:42Z</time><pdop>4.0</pdop><geoidheight>54.00</geoidheight><course>162.3</course><type>1</type></trkpt>
      <trkpt lat="40.60010129" lon="-4.92427869"><ele>1198</ele><speed>6.90</speed><time>2016-07-01T16:57:44Z</time><pdop>5.0</pdop><geoidheight>54.00</geoidheight><course>168.1</course><type>1</type></trkpt>
      <trkpt lat="40.59999769" lon="-4.92431858"><ele>1195</ele><speed>6.12</speed><time>2016-07-01T16:57:46Z</time><pdop>5.0</pdop><geoidheight>54.00</geoidheight><course>194.6</course><type>1</type></trkpt>
      <trkpt lat="40.59986936" lon="-4.92441357"><ele>1188</ele><speed>5.37</speed><time>2016-07-01T16:57:49Z</time><pdop>6.0</pdop><geoidheight>54.00</geoidheight><course>221.5</course><type>1</type></trkpt>
      <trkpt lat="40.59986296" lon="-4.92461048"><ele>1178</ele><speed>6.46</speed><time>2016-07-01T16:57:52Z</time><pdop>6.0</pdop><geoidheight>54.00</geoidheight><course>277.0</course><type>1</type></trkpt>
      <trkpt lat="40.59994851" lon="-4.92471745"><ele>1175</ele><speed>9.14</speed><time>2016-07-01T16:57:53Z</time><pdop>5.0</pdop><geoidheight>54.00</geoidheight><course>304.2</course><type>1</type></trkpt>
      <trkpt lat="40.60006875" lon="-4.92483068"><ele>1170</ele><speed>7.96</speed><time>2016-07-01T16:57:55Z</time><pdop>4.0</pdop><geoidheight>54.00</geoidheight><course>326.1</course><type>1</type></trkpt>
      <trkpt lat="40.60016117" lon="-4.92495282"><ele>1166</ele><speed>7.63</speed><time>2016-07-01T16:57:57Z</time><pdop>3.0</pdop><geoidheight>54.00</geoidheight><course>314.1</course><type>1</type></trkpt>
      <trkpt lat="40.60019652" lon="-4.92503262"><ele>1165</ele><speed>7.83</speed><time>2016-07-01T16:57:58Z</time><pdop>3.0</pdop><geoidheight>54.00</geoidheight><course>303.7</course><type>1</type></trkpt>
      <trkpt lat="40.60022609" lon="-4.92511106"><ele>1164</ele><speed>7.85</speed><time>2016-07-01T16:57:59Z</time><pdop>3.0</pdop><geoidheight>54.00</geoidheight><course>300.5</course><type>1</type></trkpt>
      <trkpt lat="40.60025915" lon="-4.92517939"><ele>1161</ele><speed>7.66</speed><time>2016-07-01T16:58:00Z</time><pdop>3.0</pdop><geoidheight>54.00</geoidheight><course>300.0</course><type>1</type></trkpt>
      <trkpt lat="40.60028709" lon="-4.92525565"><ele>1159</ele><speed>6.90</speed><time>2016-07-01T16:58:01Z</time><pdop>3.0</pdop><geoidheight>54.00</geoidheight><course>298.2</course><type>1</type></trkpt>
      <trkpt lat="40.60031702" lon="-4.92537243"><ele>1158</ele><speed>5.12</speed><time>2016-07-01T16:58:03Z</time><pdop>3.0</pdop><geoidheight>54.00</geoidheight><course>285.4</course><type>1</type></trkpt>
      <trkpt lat="40.60032775" lon="-4.92549361"><ele>1155</ele><speed>5.42</speed><time>2016-07-01T16:58:05Z</time><pdop>3.0</pdop><geoidheight>54.00</geoidheight><course>276.6</course><type>1</type></trkpt>
      <trkpt lat="40.6003286" lon="-4.92568092"><ele>1152</ele><speed>8.12</speed><time>2016-07-01T16:58:07Z</time><pdop>4.0</pdop><geoidheight>54.00</geoidheight><course>269.1</course><type>1</type></trkpt>
      <trkpt lat="40.60031254" lon="-4.92579121"><ele>1152</ele><speed>8.78</speed><time>2016-07-01T16:58:08Z</time><pdop>4.0</pdop><geoidheight>54.00</geoidheight><course>262.2</course><type>1</type></trkpt>
      <trkpt lat="40.60027321" lon="-4.92589821"><ele>1151</ele><speed>9.00</speed><time>2016-07-01T16:58:09Z</time><pdop>4.0</pdop><geoidheight>54.00</geoidheight><course>244.6</course><type>1</type></trkpt>
      <trkpt lat="40.60022083" lon="-4.92598551"><ele>1151</ele><speed>8.79</speed><time>2016-07-01T16:58:10Z</time><pdop>5.0</pdop><geoidheight>54.00</geoidheight><course>235.7</course><type>1</type></trkpt>
      <trkpt lat="40.6001773" lon="-4.92607621"><ele>1147</ele><speed>5.23</speed><time>2016-07-01T16:58:12Z</time><pdop>4.0</pdop><geoidheight>54.00</geoidheight><course>243.4</course><type>1</type></trkpt>
      <trkpt lat="40.60013022" lon="-4.92601543"><ele>1142</ele><speed>0.00</speed><time>2016-07-01T16:58:59Z</time><pdop>3.0</pdop><geoidheight>54.00</geoidheight><course>0.0</course><type>1</type></trkpt>
      <trkpt lat="40.60016052" lon="-4.92594931"><ele>1142</ele><speed>0.74</speed><time>2016-07-01T16:59:09Z</time><pdop>3.0</pdop><geoidheight>54.00</geoidheight><course>144.4</course><type>1</type></trkpt>
      <trkpt lat="40.60018832" lon="-4.92586834"><ele>1142</ele><speed>0.64</speed><time>2016-07-01T16:59:20Z</time><pdop>3.0</pdop><geoidheight>54.00</geoidheight><course>144.4</course><type>1</type></trkpt>
      <trkpt lat="40.60021645" lon="-4.92578965"><ele>1140</ele><speed>0.90</speed><time>2016-07-01T16:59:27Z</time><pdop>3.0</pdop><geoidheight>54.00</geoidheight><course>70.1</course><type>1</type></trkpt>
      <trkpt lat="40.60023585" lon="-4.92571653"><ele>1137</ele><speed>0.82</speed><time>2016-07-01T16:59:32Z</time><pdop>3.0</pdop><geoidheight>54.00</geoidheight><course>70.1</course><type>1</type></trkpt>
      <trkpt lat="40.60022984" lon="-4.92573815"><ele>1137</ele><speed>0.00</speed><time>2016-07-01T17:00:32Z</time><pdop>3.0</pdop><geoidheight>54.00</geoidheight><course>0.0</course><type>1</type></trkpt>
      <trkpt lat="40.60022995" lon="-4.92573802"><ele>1137</ele><speed>0.00</speed><time>2016-07-01T17:01:32Z</time><pdop>3.0</pdop><geoidheight>54.00</geoidheight><course>0.0</course><type>1</type></trkpt>
      <trkpt lat="40.60023057" lon="-4.92573795"><ele>1137</ele><speed>0.00</speed><time>2016-07-01T17:02:32Z</time><pdop>3.0</pdop><geoidheight>54.00</geoidheight><course>0.0</course><type>1</type></trkpt>
      <trkpt lat="40.60023102" lon="-4.92573757"><ele>1137</ele><speed>0.00</speed><time>2016-07-01T17:03:32Z</time><pdop>3.0</pdop><geoidheight>54.00</geoidheight><course>0.0</course><type>1</type></trkpt>
      <trkpt lat="40.60023121" lon="-4.92573763"><ele>1137</ele><speed>0.00</speed><time>2016-07-01T17:04:32Z</time><pdop>3.0</pdop><geoidheight>54.00</geoidheight><course>0.0</course><type>1</type></trkpt>
      <trkpt lat="40.60023136" lon="-4.92573752"><ele>1137</ele><speed>0.00</speed><time>2016-07-01T17:05:32Z</time><pdop>9.0</pdop><geoidheight>54.00</geoidheight><course>0.0</course><type>1</type></trkpt>
      <trkpt lat="40.60023072" lon="-4.92572504"><ele>1136</ele><speed>0.00</speed><time>2016-07-01T17:06:32Z</time><pdop>3.0</pdop><geoidheight>54.00</geoidheight><course>0.0</course><type>1</type></trkpt>
      <trkpt lat="40.60023841" lon="-4.92571792"><ele>1134</ele><speed>0.00</speed><time>2016-07-01T17:07:32Z</time><pdop>9.0</pdop><geoidheight>54.00</geoidheight><course>0.0</course><type>1</type></trkpt>
      <trkpt lat="40.60023839" lon="-4.92571735"><ele>1134</ele><speed>0.00</speed><time>2016-07-01T17:08:32Z</time><pdop>9.0</pdop><geoidheight>54.00</geoidheight><course>0.0</course><type>1</type></trkpt>
      <trkpt lat="40.60023823" lon="-4.92571734"><ele>1134</ele><speed>0.00</speed><time>2016-07-01T17:09:32Z</time><pdop>9.0</pdop><geoidheight>54.00</geoidheight><course>0.0</course><type>1</type></trkpt>
      <trkpt lat="40.60024608" lon="-4.92571755"><ele>1134</ele><speed>0.00</speed><time>2016-07-01T17:10:32Z</time><pdop>3.0</pdop><geoidheight>54.00</geoidheight><course>0.0</course><type>1</type></trkpt>
      <trkpt lat="40.60023587" lon="-4.9257168"><ele>1135</ele><speed>0.76</speed><time>2016-07-01T17:11:32Z</time><pdop>3.0</pdop><geoidheight>54.00</geoidheight><course>296.1</course><type>1</type></trkpt>
      <trkpt lat="40.60028902" lon="-4.92574576"><ele>1141</ele><speed>0.77</speed><time>2016-07-01T17:11:40Z</time><pdop>3.0</pdop><geoidheight>54.00</geoidheight><course>311.0</course><type>1</type></trkpt>
      <trkpt lat="40.60028608" lon="-4.92578836"><ele>1140</ele><speed>0.00</speed><time>2016-07-01T17:12:40Z</time><pdop>3.0</pdop><geoidheight>54.00</geoidheight><course>0.0</course><type>1</type></trkpt>
      <trkpt lat="40.60031133" lon="-4.92579187"><ele>1139</ele><speed>0.00</speed><time>2016-07-01T17:13:40Z</time><pdop>3.0</pdop><geoidheight>54.00</geoidheight><course>0.0</course><type>1</type></trkpt>
      <trkpt lat="40.60031003" lon="-4.9257924"><ele>1139</ele><speed>0.00</speed><time>2016-07-01T17:14:40Z</time><pdop>9.0</pdop><geoidheight>54.00</geoidheight><course>0.0</course><type>1</type></trkpt>
      <trkpt lat="40.60021881" lon="-4.92571281"><ele>1136</ele><speed>0.61</speed><time>2016-07-01T17:15:40Z</time><pdop>3.0</pdop><geoidheight>54.00</geoidheight><course>164.8</course><type>1</type></trkpt>
      <trkpt lat="40.60024101" lon="-4.92572277"><ele>1136</ele><speed>0.00</speed><time>2016-07-01T17:16:40Z</time><pdop>3.0</pdop><geoidheight>54.00</geoidheight><course>0.0</course><type>1</type></trkpt>
      <trkpt lat="40.60021181" lon="-4.92572915"><ele>1137</ele><speed>0.00</speed><time>2016-07-01T17:17:40Z</time><pdop>3.0</pdop><geoidheight>54.00</geoidheight><course>0.0</course><type>1</type></trkpt>
      <trkpt lat="40.60025018" lon="-4.92570519"><ele>1135</ele><speed>0.00</speed><time>2016-07-01T17:18:40Z</time><pdop>3.0</pdop><geoidheight>54.00</geoidheight><course>0.0</course><type>1</type></trkpt>
      <trkpt lat="40.60021493" lon="-4.92569879"><ele>1134</ele><speed>0.00</speed><time>2016-07-01T17:19:40Z</time><pdop>9.0</pdop><geoidheight>54.00</geoidheight><course>0.0</course><type>1</type></trkpt>
      <trkpt lat="40.60022258" lon="-4.92570088"><ele>1137</ele><speed>0.00</speed><time>2016-07-01T17:20:40Z</time><pdop>3.0</pdop><geoidheight>54.00</geoidheight><course>0.0</course><type>1</type></trkpt>
      <trkpt lat="40.60023231" lon="-4.92568876"><ele>1138</ele><speed>0.00</speed><time>2016-07-01T17:21:40Z</time><pdop>4.0</pdop><geoidheight>54.00</geoidheight><course>0.0</course><type>1</type></trkpt>
      <trkpt lat="40.60024535" lon="-4.92573658"><ele>1139</ele><speed>0.20</speed><time>2016-07-01T17:22:40Z</time><pdop>3.0</pdop><geoidheight>54.00</geoidheight><course>28.7</course><type>1</type></trkpt>
      <trkpt lat="40.60023129" lon="-4.92570523"><ele>1138</ele><speed>0.00</speed><time>2016-07-01T17:23:40Z</time><pdop>4.0</pdop><geoidheight>54.00</geoidheight><course>0.0</course><type>1</type></trkpt>
      <trkpt lat="40.60023736" lon="-4.92572826"><ele>1140</ele><speed>0.00</speed><time>2016-07-01T17:24:40Z</time><pdop>3.0</pdop><geoidheight>54.00</geoidheight><course>0.0</course><type>1</type></trkpt>
      <trkpt lat="40.60023724" lon="-4.92572927"><ele>1140</ele><speed>0.00</speed><time>2016-07-01T17:25:40Z</time><pdop>9.0</pdop><geoidheight>54.00</geoidheight><course>0.0</course><type>1</type></trkpt>
      <trkpt lat="40.60022009" lon="-4.92571853"><ele>1139</ele><speed>0.00</speed><time>2016-07-01T17:26:40Z</time><pdop>5.0</pdop><geoidheight>54.00</geoidheight><course>0.0</course><type>1</type></trkpt>
      <trkpt lat="40.6002809" lon="-4.92578745"><ele>1137</ele><speed>1.12</speed><time>2016-07-01T17:27:06Z</time><pdop>3.0</pdop><geoidheight>54.00</geoidheight><course>326.9</course><type>1</type></trkpt>
      <trkpt lat="40.60034234" lon="-4.92580164"><ele>1138</ele><speed>1.10</speed><time>2016-07-01T17:27:19Z</time><pdop>3.0</pdop><geoidheight>54.00</geoidheight><course>29.8</course><type>1</type></trkpt>
      <trkpt lat="40.60039267" lon="-4.92572517"><ele>1138</ele><speed>1.33</speed><time>2016-07-01T17:27:26Z</time><pdop>4.0</pdop><geoidheight>54.00</geoidheight><course>50.1</course><type>1</type></trkpt>
      <trkpt lat="40.60044403" lon="-4.92561289"><ele>1139</ele><speed>1.27</speed><time>2016-07-01T17:27:35Z</time><pdop>7.0</pdop><geoidheight>54.00</geoidheight><course>70.7</course><type>1</type></trkpt>
      <trkpt lat="40.60046447" lon="-4.92545676"><ele>1138</ele><speed>1.38</speed><time>2016-07-01T17:27:43Z</time><pdop>6.0</pdop><geoidheight>54.00</geoidheight><course>67.6</course><type>1</type></trkpt>
      <trkpt lat="40.60049067" lon="-4.92532419"><ele>1136</ele><speed>1.15</speed><time>2016-07-01T17:27:55Z</time><pdop>5.0</pdop><geoidheight>54.00</geoidheight><course>77.3</course><type>1</type></trkpt>
      <trkpt lat="40.60056112" lon="-4.92516868"><ele>1139</ele><speed>1.32</speed><time>2016-07-01T17:28:08Z</time><pdop>10.0</pdop><geoidheight>54.00</geoidheight><course>64.9</course><type>1</type></trkpt>
      <trkpt lat="40.60058067" lon="-4.92500437"><ele>1136</ele><speed>1.03</speed><time>2016-07-01T17:28:19Z</time><pdop>3.0</pdop><geoidheight>54.00</geoidheight><course>85.5</course><type>1</type></trkpt>
      <trkpt lat="40.60058651" lon="-4.92492173"><ele>1135</ele><speed>1.13</speed><time>2016-07-01T17:28:25Z</time><pdop>3.0</pdop><geoidheight>54.00</geoidheight><course>98.0</course><type>1</type></trkpt>
      <trkpt lat="40.6005669" lon="-4.9248547"><ele>1135</ele><speed>1.18</speed><time>2016-07-01T17:28:29Z</time><pdop>3.0</pdop><geoidheight>54.00</geoidheight><course>108.7</course><type>1</type></trkpt>
      <trkpt lat="40.60054248" lon="-4.92478639"><ele>1137</ele><speed>0.83</speed><time>2016-07-01T17:28:35Z</time><pdop>3.0</pdop><geoidheight>54.00</geoidheight><course>127.7</course><type>1</type></trkpt>
    </trkseg>
  </trk>
</gpx>